Long, Charles (2015): Radiosonde measurements from station Momote (2010-01) [dataset]. Pacific Northwest National Laboratory, Washington, PANGAEA, https://doi.org/10.1594/PANGAEA.841567
Always quote citation above when using data! You can download the citation in several formats below.
Published: 2015-01-16 • DOI registered: 2015-02-13
Other version:
Long, Charles (2015): BSRN Station-to-archive file for station Momote (2010-01) [dataset]. ftp://ftp.bsrn.awi.de/man/man0110.dat.gz
Project(s):
Coverage:
Latitude: -2.058000 * Longitude: 147.425000
Date/Time Start: 2010-01-01T00:00:00 * Date/Time End: 2010-01-31T23:59:00
Minimum ALTITUDE: 4 m * Maximum ALTITUDE: 30355 m
Event(s):
MAN (Momote) * Latitude: -2.058000 * Longitude: 147.425000 * Date/Time Start: 1996-09-01T00:00:00 * Date/Time End: 2013-10-31T00:00:00 * Elevation: 6.0 m * Location: Papua New Guinea * Method/Device: Monitoring station (MONS) * Comment: BSRN station no: 29; Surface type: grass; Topography type: flat, rural; Latest station scientist: Charles Long. ** Station closed late 2013 **
Comment:
Version 2, 2015-01-16; Launches at irregular time intervals
Parameter(s):
| # | Name | Short Name | Unit | Principal Investigator | Method/Device | Comment |
|---|---|---|---|---|---|---|
| 1 | DATE/TIME | Date/Time | Geocode | |||
| 2 | ALTITUDE | Altitude | m | Geocode | ||
| 3 | Pressure, at given altitude | PPPP | hPa | Long, Charles | Radiosonde, Vaisala, RS80-15GH | |
| 4 | Temperature, air | TTT | °C | Long, Charles | Radiosonde, Vaisala, RS80-15GH | |
| 5 | Dew/frost point | TdTdTd | °C | Long, Charles | Radiosonde, Vaisala, RS80-15GH | |
| 6 | Wind direction | dd | deg | Long, Charles | Radiosonde, Vaisala, RS80-15GH | |
| 7 | Wind speed | ff | m/s | Long, Charles | Radiosonde, Vaisala, RS80-15GH |
License:
Size:
156715 data points
Data
| 1 Date/Time | 2 Altitude [m] | 3 PPPP [hPa] | 4 TTT [°C] | 5 TdTdTd [°C] | 6 dd [deg] | 7 ff [m/s] |
|---|---|---|---|---|---|---|
| 2010-01-01T00:00 | 1316 | 867 | 20.3 | 17.4 | 303 | 4 |
| 2010-01-01T00:00 | 1324 | 867 | 20.2 | 17.4 | 302 | 4 |
| 2010-01-01T00:00 | 1331 | 866 | 20.1 | 17.3 | 301 | 4 |
| 2010-01-01T00:00 | 1338 | 865 | 20.1 | 17.1 | 300 | 4 |
| 2010-01-01T00:00 | 1345 | 864 | 20.0 | 17.1 | 299 | 4 |
| 2010-01-01T00:00 | 1352 | 864 | 20.0 | 17.1 | 298 | 4 |
| 2010-01-01T00:00 | 1360 | 863 | 19.9 | 17.0 | 297 | 4 |
| 2010-01-01T00:00 | 1367 | 862 | 19.9 | 17.0 | 296 | 4 |
| 2010-01-01T00:00 | 1374 | 862 | 19.8 | 17.0 | 295 | 4 |
| 2010-01-01T00:00 | 1381 | 861 | 19.7 | 17.0 | 295 | 4 |
| 2010-01-01T00:00 | 1389 | 860 | 19.7 | 17.0 | 294 | 4 |
| 2010-01-01T00:00 | 1396 | 859 | 19.6 | 17.0 | 294 | 4 |
| 2010-01-01T00:00 | 1405 | 858 | 19.6 | 17.0 | 293 | 4 |
| 2010-01-01T00:00 | 1413 | 858 | 19.5 | 17.0 | 293 | 4 |
| 2010-01-01T00:00 | 1421 | 857 | 19.5 | 17.0 | 293 | 4 |
| 2010-01-01T00:00 | 1431 | 856 | 19.4 | 16.9 | 293 | 4 |
| 2010-01-01T00:00 | 1441 | 855 | 19.3 | 16.9 | 293 | 5 |
| 2010-01-01T00:00 | 1451 | 854 | 19.2 | 16.7 | 292 | 5 |
| 2010-01-01T00:00 | 1460 | 853 | 19.1 | 16.6 | 292 | 5 |
| 2010-01-01T00:00 | 1468 | 852 | 19.1 | 16.6 | 291 | 5 |
| 2010-01-01T00:00 | 1476 | 851 | 19.0 | 16.6 | 291 | 5 |
| 2010-01-01T00:00 | 1483 | 851 | 18.9 | 16.6 | 291 | 5 |
| 2010-01-01T00:00 | 1491 | 850 | 18.9 | 16.6 | 291 | 5 |
| 2010-01-01T00:00 | 1498 | 849 | 18.8 | 16.6 | 291 | 5 |
| 2010-01-01T00:00 | 1506 | 848 | 18.7 | 16.4 | 291 | 5 |
| 2010-01-01T00:00 | 1514 | 848 | 18.7 | 16.3 | 291 | 5 |
| 2010-01-01T00:00 | 1521 | 847 | 18.6 | 16.3 | 291 | 5 |
| 2010-01-01T00:00 | 1529 | 846 | 18.5 | 16.4 | 292 | 5 |
| 2010-01-01T00:00 | 1537 | 845 | 18.5 | 16.4 | 292 | 5 |
| 2010-01-01T00:00 | 1544 | 845 | 18.4 | 16.4 | 292 | 5 |
| 2010-01-01T00:01 | 1551 | 844 | 18.4 | 16.4 | 293 | 5 |
| 2010-01-01T00:01 | 1558 | 843 | 18.3 | 16.4 | 293 | 5 |
| 2010-01-01T00:01 | 1567 | 842 | 18.2 | 16.4 | 293 | 5 |
| 2010-01-01T00:01 | 1574 | 842 | 18.2 | 16.4 | 294 | 5 |
| 2010-01-01T00:01 | 1581 | 841 | 18.1 | 16.3 | 294 | 5 |
| 2010-01-01T00:01 | 1589 | 840 | 18.0 | 16.3 | 294 | 5 |
| 2010-01-01T00:01 | 1595 | 840 | 18.0 | 16.3 | 294 | 5 |
| 2010-01-01T00:01 | 1603 | 839 | 17.9 | 16.3 | 294 | 5 |
| 2010-01-01T00:01 | 1611 | 838 | 17.9 | 16.2 | 295 | 5 |
| 2010-01-01T00:01 | 1618 | 837 | 17.9 | 16.2 | 295 | 5 |
| 2010-01-01T00:01 | 1626 | 837 | 17.8 | 16.2 | 296 | 5 |
| 2010-01-01T00:01 | 1634 | 836 | 17.8 | 16.2 | 297 | 5 |
| 2010-01-01T00:01 | 1641 | 835 | 17.7 | 16.2 | 297 | 5 |
| 2010-01-01T00:01 | 1650 | 834 | 17.7 | 16.1 | 298 | 4 |
| 2010-01-01T00:01 | 1660 | 833 | 17.6 | 16.1 | 299 | 4 |
| 2010-01-01T00:01 | 1671 | 832 | 17.5 | 16.0 | 299 | 4 |
| 2010-01-01T00:01 | 1682 | 831 | 17.5 | 16.0 | 300 | 4 |
| 2010-01-01T00:01 | 1690 | 830 | 17.4 | 15.9 | 300 | 4 |
| 2010-01-01T00:01 | 1697 | 830 | 17.3 | 15.9 | 301 | 4 |
| 2010-01-01T00:01 | 1704 | 829 | 17.2 | 15.9 | 301 | 4 |
| 2010-01-01T00:01 | 1712 | 828 | 17.2 | 15.8 | 301 | 4 |
| 2010-01-01T00:01 | 1720 | 828 | 17.1 | 15.8 | 300 | 5 |
| 2010-01-01T00:01 | 1728 | 827 | 17.0 | 15.7 | 300 | 5 |
| 2010-01-01T00:01 | 1736 | 826 | 17.0 | 15.6 | 300 | 5 |
| 2010-01-01T00:01 | 1745 | 825 | 16.9 | 15.6 | 299 | 5 |
| 2010-01-01T00:01 | 1754 | 824 | 16.9 | 15.5 | 299 | 5 |
| 2010-01-01T00:01 | 1762 | 824 | 16.8 | 15.4 | 298 | 5 |
| 2010-01-01T00:01 | 1771 | 823 | 16.8 | 15.4 | 298 | 5 |
| 2010-01-01T00:01 | 1779 | 822 | 16.7 | 15.4 | 298 | 5 |
| 2010-01-01T00:01 | 1787 | 821 | 16.7 | 15.4 | 298 | 5 |
| 2010-01-01T00:02 | 1795 | 820 | 16.6 | 15.4 | 298 | 5 |
| 2010-01-01T00:02 | 1803 | 820 | 16.5 | 15.4 | 298 | 5 |
| 2010-01-01T00:02 | 1811 | 819 | 16.5 | 15.3 | 298 | 5 |
| 2010-01-01T00:02 | 1819 | 818 | 16.5 | 15.3 | 298 | 5 |
| 2010-01-01T00:02 | 1827 | 817 | 16.4 | 15.2 | 298 | 5 |
| 2010-01-01T00:02 | 1836 | 816 | 16.3 | 15.2 | 299 | 5 |
| 2010-01-01T00:02 | 1843 | 816 | 16.3 | 15.2 | 299 | 5 |
| 2010-01-01T00:02 | 1851 | 815 | 16.2 | 15.1 | 299 | 5 |
| 2010-01-01T00:02 | 1859 | 814 | 16.1 | 15.1 | 299 | 5 |
| 2010-01-01T00:02 | 1867 | 814 | 16.1 | 15.0 | 299 | 5 |
| 2010-01-01T00:02 | 1874 | 813 | 16.0 | 15.0 | 299 | 5 |
| 2010-01-01T00:02 | 1883 | 812 | 16.0 | 15.0 | 299 | 5 |
| 2010-01-01T00:02 | 1891 | 811 | 15.9 | 15.0 | 299 | 5 |
| 2010-01-01T00:02 | 1899 | 810 | 15.9 | 14.9 | 299 | 5 |
| 2010-01-01T00:02 | 1907 | 810 | 15.8 | 14.8 | 299 | 5 |
| 2010-01-01T00:02 | 1914 | 809 | 15.8 | 14.8 | 299 | 5 |
| 2010-01-01T00:02 | 1922 | 808 | 15.7 | 14.8 | 299 | 5 |
| 2010-01-01T00:02 | 1930 | 807 | 15.7 | 14.7 | 299 | 5 |
| 2010-01-01T00:02 | 1938 | 807 | 15.6 | 14.7 | 299 | 5 |
| 2010-01-01T00:02 | 1946 | 806 | 15.5 | 14.6 | 299 | 5 |
| 2010-01-01T00:02 | 1955 | 805 | 15.5 | 14.4 | 299 | 5 |
| 2010-01-01T00:02 | 1964 | 804 | 15.4 | 14.4 | 299 | 5 |
| 2010-01-01T00:02 | 1973 | 803 | 15.4 | 14.4 | 299 | 5 |
| 2010-01-01T00:02 | 1982 | 803 | 15.3 | 14.4 | 299 | 5 |
| 2010-01-01T00:02 | 1990 | 802 | 15.2 | 14.4 | 299 | 5 |
| 2010-01-01T00:02 | 1998 | 801 | 15.2 | 14.4 | 299 | 5 |
| 2010-01-01T00:03 | 2035 | 798 | 14.9 | 14.2 | 298 | 5 |
| 2010-01-01T00:03 | 2074 | 794 | 14.8 | 13.8 | 295 | 5 |
| 2010-01-01T00:03 | 2111 | 790 | 14.5 | 13.6 | 292 | 5 |
| 2010-01-01T00:03 | 2157 | 786 | 14.4 | 13.0 | 291 | 5 |
| 2010-01-01T00:03 | 2208 | 781 | 13.9 | 12.9 | 292 | 5 |
| 2010-01-01T00:03 | 2245 | 778 | 13.6 | 13.1 | 294 | 5 |
| 2010-01-01T00:04 | 2282 | 775 | 13.5 | 13.0 | 296 | 5 |
| 2010-01-01T00:04 | 2317 | 771 | 13.4 | 12.5 | 296 | 5 |
| 2010-01-01T00:04 | 2349 | 769 | 13.3 | 12.4 | 298 | 5 |
| 2010-01-01T00:04 | 2382 | 766 | 13.6 | 11.0 | 300 | 5 |
| 2010-01-01T00:04 | 2416 | 762 | 13.4 | 10.8 | 300 | 5 |
| 2010-01-01T00:04 | 2471 | 758 | 13.0 | 11.0 | 297 | 5 |
| 2010-01-01T00:05 | 2506 | 754 | 12.8 | 12.0 | 293 | 4 |
| 2010-01-01T00:05 | 2540 | 751 | 13.0 | 11.2 | 290 | 4 |
| 2010-01-01T00:05 | 2576 | 748 | 13.0 | 10.2 | 284 | 4 |
| 2010-01-01T00:05 | 2611 | 745 | 13.2 | 7.8 | 279 | 3 |
| 2010-01-01T00:05 | 2647 | 742 | 12.9 | 7.7 | 280 | 3 |
| 2010-01-01T00:05 | 2684 | 739 | 12.8 | 6.2 | 284 | 3 |
| 2010-01-01T00:06 | 2721 | 735 | 12.7 | 5.0 | 285 | 3 |
| 2010-01-01T00:06 | 2759 | 732 | 12.4 | 5.1 | 281 | 3 |
| 2010-01-01T00:06 | 2796 | 729 | 12.3 | 4.3 | 277 | 3 |
| 2010-01-01T00:06 | 2836 | 725 | 12.1 | 5.2 | 277 | 3 |
| 2010-01-01T00:06 | 2874 | 722 | 11.9 | 5.6 | 279 | 3 |
| 2010-01-01T00:06 | 2913 | 719 | 11.8 | 3.8 | 283 | 2 |
| 2010-01-01T00:07 | 2953 | 715 | 11.8 | 4.4 | 292 | 2 |
| 2010-01-01T00:07 | 2993 | 712 | 11.7 | 2.1 | 306 | 1 |
| 2010-01-01T00:07 | 3035 | 708 | 11.6 | -0.3 | 325 | 1 |
| 2010-01-01T00:07 | 3075 | 705 | 11.3 | 0.6 | 346 | 1 |
| 2010-01-01T00:07 | 3115 | 702 | 11.0 | 1.2 | 358 | 1 |
| 2010-01-01T00:07 | 3153 | 698 | 10.5 | 3.7 | 356 | 2 |
| 2010-01-01T00:08 | 3195 | 695 | 10.4 | 5.5 | 349 | 2 |
| 2010-01-01T00:08 | 3233 | 692 | 10.4 | 3.7 | 345 | 3 |
| 2010-01-01T00:08 | 3272 | 689 | 10.2 | 3.8 | 343 | 3 |
| 2010-01-01T00:08 | 3310 | 685 | 10.2 | 2.5 | 343 | 3 |
| 2010-01-01T00:08 | 3354 | 682 | 10.0 | 2.0 | 345 | 3 |
| 2010-01-01T00:08 | 3408 | 677 | 9.6 | 2.3 | 350 | 4 |
| 2010-01-01T00:09 | 3445 | 674 | 9.5 | 0.7 | 352 | 4 |
| 2010-01-01T00:09 | 3483 | 671 | 9.1 | 1.5 | 352 | 4 |
| 2010-01-01T00:09 | 3521 | 668 | 9.1 | 0.7 | 349 | 4 |
| 2010-01-01T00:09 | 3560 | 665 | 8.7 | 0.4 | 348 | 4 |
| 2010-01-01T00:09 | 3598 | 662 | 8.4 | 0.4 | 350 | 4 |
| 2010-01-01T00:09 | 3635 | 659 | 8.3 | -1.4 | 354 | 5 |
| 2010-01-01T00:10 | 3681 | 655 | 8.0 | -2.1 | 356 | 6 |
| 2010-01-01T00:10 | 3737 | 651 | 7.5 | -0.2 | 356 | 7 |
| 2010-01-01T00:10 | 3785 | 647 | 7.1 | 0.5 | 354 | 7 |
| 2010-01-01T00:10 | 3826 | 644 | 6.7 | 0.8 | 352 | 8 |
| 2010-01-01T00:10 | 3865 | 641 | 6.3 | 0.7 | 352 | 8 |
| 2010-01-01T00:10 | 3908 | 638 | 6.0 | 0.5 | 354 | 9 |
| 2010-01-01T00:11 | 3961 | 633 | 5.5 | 0.2 | 357 | 9 |
| 2010-01-01T00:11 | 4006 | 630 | 5.1 | 0.0 | 356 | 9 |
| 2010-01-01T00:11 | 4042 | 627 | 4.8 | -0.3 | 353 | 8 |
| 2010-01-01T00:11 | 4080 | 624 | 4.7 | -0.4 | 351 | 8 |
| 2010-01-01T00:11 | 4126 | 621 | 4.4 | -0.5 | 350 | 8 |
| 2010-01-01T00:11 | 4162 | 618 | 4.2 | -0.8 | 349 | 7 |
| 2010-01-01T00:12 | 4199 | 615 | 3.9 | -0.7 | 350 | 7 |
| 2010-01-01T00:12 | 4241 | 612 | 3.5 | -0.8 | 351 | 6 |
| 2010-01-01T00:12 | 4283 | 609 | 3.3 | -0.4 | 352 | 5 |
| 2010-01-01T00:12 | 4324 | 606 | 3.2 | -0.2 | 352 | 5 |
| 2010-01-01T00:12 | 4361 | 603 | 3.0 | -0.4 | 351 | 4 |
| 2010-01-01T00:12 | 4398 | 600 | 2.8 | -0.1 | 351 | 4 |
| 2010-01-01T00:13 | 4437 | 597 | 2.8 | -1.4 | 353 | 4 |
| 2010-01-01T00:13 | 4478 | 594 | 2.4 | -1.0 | 353 | 4 |
| 2010-01-01T00:13 | 4514 | 592 | 2.2 | -2.1 | 352 | 4 |
| 2010-01-01T00:13 | 4550 | 589 | 1.9 | -1.9 | 351 | 4 |
| 2010-01-01T00:13 | 4588 | 586 | 1.6 | -1.7 | 352 | 4 |
| 2010-01-01T00:13 | 4626 | 584 | 1.7 | -0.1 | 355 | 4 |
| 2010-01-01T00:14 | 4667 | 581 | 1.8 | -0.6 | 360 | 4 |
| 2010-01-01T00:14 | 4707 | 578 | 1.5 | -0.1 | 4 | 5 |
| 2010-01-01T00:14 | 4745 | 575 | 1.1 | -0.4 | 8 | 5 |
| 2010-01-01T00:14 | 4783 | 572 | 0.8 | -0.6 | 9 | 5 |
| 2010-01-01T00:14 | 4821 | 570 | 0.6 | -0.8 | 7 | 5 |
| 2010-01-01T00:14 | 4860 | 567 | 0.3 | -0.7 | 2 | 5 |
| 2010-01-01T00:15 | 4898 | 564 | 0.1 | -1.0 | 359 | 4 |
| 2010-01-01T00:15 | 4936 | 562 | -0.2 | -1.2 | 358 | 4 |
| 2010-01-01T00:15 | 4972 | 559 | -0.4 | -1.4 | 358 | 4 |
| 2010-01-01T00:15 | 5009 | 557 | -0.6 | -1.9 | 359 | 4 |
| 2010-01-01T00:15 | 5048 | 554 | -0.9 | -2.8 | 1 | 4 |
| 2010-01-01T00:15 | 5086 | 551 | -1.1 | -3.6 | 4 | 4 |
| 2010-01-01T00:16 | 5123 | 549 | -1.3 | -3.6 | 8 | 4 |
| 2010-01-01T00:16 | 5161 | 546 | -1.4 | -3.1 | 12 | 5 |
| 2010-01-01T00:16 | 5198 | 543 | -1.4 | -3.3 | 13 | 5 |
| 2010-01-01T00:16 | 5237 | 541 | -1.4 | -3.4 | 13 | 4 |
| 2010-01-01T00:16 | 5274 | 538 | -1.5 | -3.0 | 12 | 4 |
| 2010-01-01T00:16 | 5312 | 536 | -1.7 | -3.3 | 13 | 3 |
| 2010-01-01T00:17 | 5348 | 533 | -1.8 | -3.0 | 17 | 3 |
| 2010-01-01T00:17 | 5384 | 531 | -2.0 | -3.2 | 18 | 3 |
| 2010-01-01T00:17 | 5420 | 529 | -2.2 | -3.8 | 15 | 3 |
| 2010-01-01T00:17 | 5457 | 526 | -2.4 | -3.7 | 14 | 3 |
| 2010-01-01T00:17 | 5493 | 524 | -2.6 | -3.7 | 14 | 3 |
| 2010-01-01T00:17 | 5530 | 521 | -2.8 | -3.9 | 15 | 3 |
| 2010-01-01T00:18 | 5566 | 519 | -3.0 | -4.1 | 20 | 3 |
| 2010-01-01T00:18 | 5603 | 517 | -3.0 | -4.1 | 31 | 3 |
| 2010-01-01T00:18 | 5640 | 514 | -3.2 | -4.5 | 43 | 3 |
| 2010-01-01T00:18 | 5681 | 512 | -3.2 | -4.6 | 51 | 3 |
| 2010-01-01T00:18 | 5720 | 509 | -3.5 | -4.9 | 56 | 4 |
| 2010-01-01T00:18 | 5758 | 507 | -3.7 | -5.1 | 58 | 4 |
| 2010-01-01T00:19 | 5796 | 504 | -3.9 | -5.3 | 58 | 4 |
| 2010-01-01T00:19 | 5832 | 502 | -4.1 | -5.9 | 58 | 4 |
| 2010-01-01T00:19 | 5870 | 499 | -4.3 | -5.8 | 60 | 4 |
| 2010-01-01T00:19 | 5907 | 497 | -4.6 | -5.9 | 62 | 4 |
| 2010-01-01T00:19 | 5944 | 495 | -4.8 | -6.0 | 63 | 3 |
| 2010-01-01T00:19 | 5984 | 492 | -5.1 | -6.2 | 66 | 3 |
| 2010-01-01T00:20 | 6030 | 489 | -5.3 | -6.4 | 69 | 2 |
| 2010-01-01T00:20 | 6083 | 486 | -5.6 | -6.7 | 63 | 1 |
| 2010-01-01T00:20 | 6147 | 482 | -5.7 | -7.2 | 50 | 1 |
| 2010-01-01T00:20 | 6203 | 479 | -6.0 | -7.7 | 61 | 1 |
| 2010-01-01T00:20 | 6261 | 475 | -6.4 | -7.8 | 107 | 0 |
| 2010-01-01T00:20 | 6320 | 472 | -6.6 | -8.0 | 127 | 1 |
| 2010-01-01T00:21 | 6378 | 468 | -7.0 | -8.3 | 125 | 1 |
| 2010-01-01T00:21 | 6438 | 465 | -7.3 | -8.5 | 111 | 1 |
| 2010-01-01T00:21 | 6498 | 461 | -7.6 | -8.9 | 93 | 2 |
| 2010-01-01T00:21 | 6561 | 457 | -7.9 | -9.3 | 90 | 3 |
| 2010-01-01T00:21 | 6613 | 454 | -8.1 | -9.3 | 92 | 4 |
| 2010-01-01T00:21 | 6670 | 451 | -8.4 | -9.6 | 91 | 5 |
| 2010-01-01T00:22 | 6729 | 448 | -8.7 | -10.0 | 89 | 6 |
| 2010-01-01T00:22 | 6783 | 444 | -9.0 | -10.5 | 87 | 6 |
| 2010-01-01T00:22 | 6842 | 441 | -9.5 | -10.9 | 88 | 7 |
| 2010-01-01T00:22 | 6905 | 437 | -9.9 | -11.4 | 91 | 7 |
| 2010-01-01T00:22 | 6957 | 435 | -10.3 | -12.0 | 95 | 8 |
| 2010-01-01T00:22 | 7018 | 431 | -10.6 | -12.2 | 96 | 9 |
| 2010-01-01T00:23 | 7075 | 428 | -11.0 | -12.6 | 95 | 9 |
| 2010-01-01T00:23 | 7129 | 425 | -11.3 | -12.8 | 92 | 9 |
| 2010-01-01T00:23 | 7185 | 422 | -11.4 | -13.0 | 90 | 9 |
| 2010-01-01T00:23 | 7242 | 419 | -11.8 | -13.6 | 89 | 10 |
| 2010-01-01T00:23 | 7301 | 415 | -12.1 | -14.1 | 88 | 10 |
| 2010-01-01T00:23 | 7366 | 412 | -12.4 | -14.4 | 88 | 9 |
| 2010-01-01T00:24 | 7433 | 408 | -12.8 | -14.9 | 89 | 8 |
| 2010-01-01T00:24 | 7496 | 405 | -13.2 | -15.6 | 92 | 8 |
| 2010-01-01T00:24 | 7550 | 402 | -13.6 | -16.0 | 95 | 8 |
| 2010-01-01T00:24 | 7613 | 399 | -13.8 | -16.4 | 99 | 9 |
| 2010-01-01T00:24 | 7676 | 396 | -14.1 | -17.0 | 101 | 10 |
| 2010-01-01T00:24 | 7738 | 392 | -14.5 | -17.3 | 99 | 12 |
| 2010-01-01T00:25 | 7805 | 389 | -15.0 | -17.9 | 98 | 12 |
| 2010-01-01T00:25 | 7863 | 386 | -15.5 | -18.6 | 99 | 12 |
| 2010-01-01T00:25 | 7921 | 383 | -15.8 | -18.9 | 99 | 12 |
| 2010-01-01T00:25 | 7973 | 380 | -16.1 | -19.3 | 99 | 12 |
| 2010-01-01T00:25 | 8031 | 377 | -16.6 | -19.6 | 98 | 12 |
| 2010-01-01T00:25 | 8092 | 374 | -17.0 | -19.8 | 96 | 12 |
| 2010-01-01T00:26 | 8150 | 371 | -17.3 | -20.2 | 96 | 13 |
| 2010-01-01T00:26 | 8207 | 369 | -17.7 | -20.6 | 99 | 13 |
| 2010-01-01T00:26 | 8263 | 366 | -18.1 | -21.1 | 100 | 13 |
| 2010-01-01T00:26 | 8329 | 363 | -18.5 | -21.4 | 99 | 13 |
| 2010-01-01T00:26 | 8396 | 359 | -19.1 | -21.8 | 97 | 13 |
| 2010-01-01T00:26 | 8451 | 357 | -19.4 | -22.3 | 96 | 13 |
| 2010-01-01T00:27 | 8511 | 354 | -19.7 | -22.6 | 95 | 13 |
| 2010-01-01T00:27 | 8573 | 351 | -20.1 | -23.1 | 92 | 13 |
| 2010-01-01T00:27 | 8631 | 348 | -20.5 | -23.5 | 89 | 12 |
| 2010-01-01T00:27 | 8696 | 345 | -20.9 | -24.0 | 87 | 13 |
| 2010-01-01T00:27 | 8752 | 343 | -21.3 | -24.4 | 86 | 13 |
| 2010-01-01T00:27 | 8807 | 340 | -21.6 | -24.6 | 86 | 13 |
| 2010-01-01T00:28 | 8861 | 338 | -22.0 | -25.0 | 85 | 13 |
| 2010-01-01T00:28 | 8913 | 335 | -22.4 | -25.5 | 85 | 13 |
| 2010-01-01T00:28 | 8975 | 332 | -22.8 | -26.1 | 85 | 13 |
| 2010-01-01T00:28 | 9035 | 330 | -23.3 | -26.7 | 86 | 12 |
| 2010-01-01T00:28 | 9092 | 327 | -23.7 | -27.1 | 84 | 12 |
| 2010-01-01T00:28 | 9148 | 325 | -24.0 | -27.6 | 81 | 13 |
| 2010-01-01T00:29 | 9213 | 322 | -24.6 | -28.1 | 81 | 12 |
| 2010-01-01T00:29 | 9269 | 319 | -25.0 | -28.5 | 84 | 12 |
| 2010-01-01T00:29 | 9331 | 317 | -25.5 | -29.1 | 86 | 12 |
| 2010-01-01T00:29 | 9388 | 314 | -25.9 | -29.4 | 88 | 13 |
| 2010-01-01T00:29 | 9452 | 311 | -26.4 | -29.9 | 89 | 13 |
| 2010-01-01T00:29 | 9517 | 309 | -26.8 | -30.5 | 92 | 12 |
| 2010-01-01T00:30 | 9587 | 306 | -27.3 | -31.0 | 95 | 12 |
| 2010-01-01T00:30 | 9650 | 303 | -27.7 | -31.8 | 99 | 12 |
| 2010-01-01T00:30 | 9697 | 301 | -28.0 | -32.5 | 101 | 12 |
| 2010-01-01T00:30 | 9756 | 298 | -28.5 | -32.9 | 101 | 12 |
| 2010-01-01T00:30 | 9807 | 296 | -28.9 | -33.6 | 101 | 13 |
| 2010-01-01T00:30 | 9871 | 294 | -29.3 | -33.8 | 102 | 14 |
| 2010-01-01T00:31 | 9923 | 292 | -29.6 | -34.1 | 102 | 14 |
| 2010-01-01T00:31 | 9969 | 290 | -30.0 | -34.7 | 102 | 14 |
| 2010-01-01T00:31 | 10015 | 288 | -30.4 | -35.2 | 102 | 14 |
| 2010-01-01T00:31 | 10067 | 286 | -30.9 | -35.5 | 103 | 15 |
| 2010-01-01T00:31 | 10129 | 283 | -31.4 | -36.2 | 106 | 14 |
| 2010-01-01T00:31 | 10185 | 281 | -31.8 | -36.4 | 108 | 13 |
| 2010-01-01T00:32 | 10242 | 279 | -32.3 | -36.6 | 108 | 12 |
| 2010-01-01T00:32 | 10309 | 276 | -32.9 | -37.0 | 109 | 11 |
| 2010-01-01T00:32 | 10356 | 274 | -33.3 | -38.0 | 109 | 11 |
| 2010-01-01T00:32 | 10408 | 272 | -33.8 | -38.7 | 110 | 12 |
| 2010-01-01T00:32 | 10462 | 270 | -34.2 | -39.1 | 112 | 12 |
| 2010-01-01T00:32 | 10509 | 268 | -34.5 | -39.7 | 112 | 12 |
| 2010-01-01T00:33 | 10555 | 267 | -34.9 | -40.0 | 111 | 13 |
| 2010-01-01T00:33 | 10600 | 265 | -35.3 | -40.4 | 110 | 13 |
| 2010-01-01T00:33 | 10644 | 263 | -35.6 | -40.8 | 109 | 13 |
| 2010-01-01T00:33 | 10690 | 261 | -36.0 | -41.5 | 107 | 14 |
| 2010-01-01T00:33 | 10751 | 259 | -36.5 | -41.7 | 106 | 14 |
| 2010-01-01T00:33 | 10800 | 257 | -36.9 | -42.2 | 105 | 14 |
| 2010-01-01T00:34 | 10844 | 256 | -37.3 | -42.8 | 104 | 15 |
| 2010-01-01T00:34 | 10891 | 254 | -37.7 | -43.2 | 103 | 15 |
| 2010-01-01T00:34 | 10938 | 252 | -38.1 | -43.6 | 101 | 15 |
| 2010-01-01T00:34 | 10983 | 251 | -38.5 | -43.9 | 100 | 15 |
| 2010-01-01T00:34 | 11027 | 249 | -38.9 | -44.3 | 98 | 15 |
| 2010-01-01T00:34 | 11072 | 247 | -39.3 | -44.8 | 97 | 16 |
| 2010-01-01T00:35 | 11115 | 246 | -39.7 | -45.1 | 96 | 16 |
| 2010-01-01T00:35 | 11159 | 244 | -40.0 | -45.5 | 95 | 16 |
| 2010-01-01T00:35 | 11203 | 243 | -40.4 | -46.0 | 94 | 16 |
| 2010-01-01T00:35 | 11248 | 241 | -40.8 | -46.3 | 94 | 17 |
| 2010-01-01T00:35 | 11293 | 239 | -41.2 | -46.6 | 94 | 17 |
| 2010-01-01T00:35 | 11337 | 238 | -41.6 | -47.3 | 94 | 17 |
| 2010-01-01T00:36 | 11380 | 236 | -42.0 | -48.1 | 95 | 17 |
| 2010-01-01T00:36 | 11424 | 235 | -42.4 | -48.7 | 95 | 17 |
| 2010-01-01T00:36 | 11467 | 233 | -42.7 | -49.1 | 96 | 17 |
| 2010-01-01T00:36 | 11511 | 232 | -43.1 | -49.5 | 97 | 17 |
| 2010-01-01T00:36 | 11555 | 230 | -43.5 | -49.9 | 97 | 17 |
| 2010-01-01T00:36 | 11599 | 229 | -43.9 | -50.5 | 98 | 17 |
| 2010-01-01T00:37 | 11644 | 227 | -44.3 | -50.8 | 99 | 17 |
| 2010-01-01T00:37 | 11688 | 226 | -44.6 | -51.1 | 99 | 17 |
| 2010-01-01T00:37 | 11732 | 224 | -45.0 | -51.4 | 100 | 17 |
| 2010-01-01T00:37 | 11774 | 223 | -45.4 | -51.8 | 100 | 18 |
| 2010-01-01T00:37 | 11819 | 221 | -45.8 | -52.2 | 100 | 18 |
| 2010-01-01T00:37 | 11863 | 220 | -46.2 | -52.8 | 101 | 18 |
| 2010-01-01T00:38 | 11907 | 218 | -46.6 | -53.3 | 103 | 19 |
| 2010-01-01T00:38 | 11951 | 217 | -46.9 | -53.6 | 104 | 19 |
| 2010-01-01T00:38 | 11994 | 216 | -47.3 | -54.0 | 104 | 19 |
| 2010-01-01T00:38 | 12036 | 214 | -47.6 | -54.5 | 103 | 19 |
| 2010-01-01T00:38 | 12079 | 213 | -48.0 | -55.0 | 103 | 19 |
| 2010-01-01T00:38 | 12121 | 212 | -48.5 | -55.6 | 104 | 19 |
| 2010-01-01T00:39 | 12165 | 210 | -48.9 | -55.9 | 104 | 19 |
| 2010-01-01T00:39 | 12205 | 209 | -49.2 | -56.1 | 104 | 20 |
| 2010-01-01T00:39 | 12247 | 208 | -49.6 | -56.5 | 104 | 20 |
| 2010-01-01T00:39 | 12288 | 206 | -50.0 | -56.9 | 104 | 20 |
| 2010-01-01T00:39 | 12330 | 205 | -50.4 | -57.3 | 104 | 20 |
| 2010-01-01T00:39 | 12371 | 204 | -50.7 | -57.6 | 105 | 20 |
| 2010-01-01T00:40 | 12412 | 202 | -51.0 | -58.0 | 105 | 20 |
| 2010-01-01T00:40 | 12452 | 201 | -51.4 | -58.4 | 105 | 20 |
| 2010-01-01T00:40 | 12495 | 200 | -51.8 | -58.8 | 106 | 20 |
| 2010-01-01T00:40 | 12535 | 199 | -52.1 | -59.3 | 106 | 20 |
| 2010-01-01T00:40 | 12576 | 197 | -52.5 | -59.8 | 107 | 20 |
| 2010-01-01T00:40 | 12618 | 196 | -52.8 | -60.3 | 107 | 21 |
| 2010-01-01T00:41 | 12660 | 195 | -53.2 | -60.8 | 108 | 21 |
| 2010-01-01T00:41 | 12702 | 193 | -53.6 | -61.2 | 109 | 21 |
| 2010-01-01T00:41 | 12743 | 192 | -54.0 | -61.6 | 109 | 21 |
| 2010-01-01T00:41 | 12786 | 191 | -54.3 | -62.1 | 109 | 21 |
| 2010-01-01T00:41 | 12828 | 190 | -54.8 | -62.4 | 110 | 21 |
| 2010-01-01T00:41 | 12869 | 188 | -55.2 | -62.8 | 110 | 21 |
| 2010-01-01T00:42 | 12913 | 187 | -55.5 | -63.2 | 110 | 21 |
| 2010-01-01T00:42 | 12956 | 186 | -55.9 | -63.6 | 109 | 21 |
| 2010-01-01T00:42 | 12997 | 185 | -56.3 | -64.0 | 110 | 21 |
| 2010-01-01T00:42 | 13040 | 183 | -56.7 | -64.5 | 110 | 21 |
| 2010-01-01T00:42 | 13085 | 182 | -56.9 | -64.8 | 111 | 21 |
| 2010-01-01T00:42 | 13127 | 181 | -57.4 | -65.3 | 113 | 22 |
| 2010-01-01T00:43 | 13167 | 180 | -57.7 | -65.8 | 115 | 21 |
| 2010-01-01T00:43 | 13211 | 179 | -58.2 | -66.3 | 116 | 21 |
| 2010-01-01T00:43 | 13251 | 177 | -58.3 | -66.4 | 117 | 21 |
| 2010-01-01T00:43 | 13298 | 176 | -59.0 | -67.1 | 118 | 21 |
| 2010-01-01T00:43 | 13339 | 175 | -59.4 | -67.5 | 119 | 21 |
| 2010-01-01T00:43 | 13383 | 174 | -59.8 | -68.1 | 120 | 21 |
| 2010-01-01T00:44 | 13430 | 172 | -60.1 | -68.5 | 121 | 21 |
| 2010-01-01T00:44 | 13479 | 171 | -60.6 | -69.0 | 122 | 21 |
| 2010-01-01T00:44 | 13523 | 170 | -61.0 | -69.4 | 123 | 21 |
| 2010-01-01T00:44 | 13565 | 169 | -61.4 | -69.9 | 123 | 21 |
| 2010-01-01T00:44 | 13608 | 168 | -61.8 | -70.2 | 124 | 21 |
| 2010-01-01T00:44 | 13656 | 166 | -62.3 | -70.6 | 124 | 21 |
| 2010-01-01T00:45 | 13702 | 165 | -62.6 | -70.8 | 125 | 22 |
| 2010-01-01T00:45 | 13747 | 164 | -63.1 | -71.3 | 125 | 22 |
| 2010-01-01T00:45 | 13793 | 163 | -63.5 | -71.8 | 126 | 22 |
| 2010-01-01T00:45 | 13838 | 161 | -63.9 | -72.1 | 126 | 22 |
| 2010-01-01T00:45 | 13881 | 160 | -64.4 | -72.7 | 127 | 22 |
| 2010-01-01T00:45 | 13927 | 159 | -65.0 | -73.0 | 128 | 22 |
| 2010-01-01T00:46 | 13970 | 158 | -65.4 | -73.3 | 128 | 22 |
| 2010-01-01T00:46 | 14012 | 157 | -65.7 | -73.5 | 129 | 22 |
| 2010-01-01T00:46 | 14055 | 156 | -66.0 | -73.7 | 129 | 22 |
| 2010-01-01T00:46 | 14099 | 155 | -66.6 | -74.4 | 130 | 22 |
| 2010-01-01T00:46 | 14143 | 154 | -66.9 | -74.8 | 130 | 23 |
| 2010-01-01T00:46 | 14188 | 152 | -67.3 | -75.3 | 129 | 23 |
| 2010-01-01T00:47 | 14236 | 151 | -67.6 | -75.8 | 128 | 24 |
| 2010-01-01T00:47 | 14285 | 150 | -67.9 | -76.3 | 126 | 24 |
| 2010-01-01T00:47 | 14330 | 149 | -68.2 | -76.8 | 125 | 24 |
| 2010-01-01T00:47 | 14372 | 148 | -68.6 | -77.5 | 124 | 24 |
| 2010-01-01T00:47 | 14415 | 147 | -68.9 | -78.0 | 122 | 25 |
| 2010-01-01T00:47 | 14462 | 146 | -68.7 | -78.2 | 120 | 26 |
| 2010-01-01T00:48 | 14505 | 145 | -69.2 | -79.1 | 118 | 27 |
| 2010-01-01T00:48 | 14544 | 144 | -69.4 | -79.5 | 116 | 27 |
| 2010-01-01T00:48 | 14584 | 143 | -69.6 | -79.8 | 115 | 27 |
| 2010-01-01T00:48 | 14624 | 142 | -69.9 | -80.2 | 114 | 26 |
| 2010-01-01T00:48 | 14664 | 141 | -70.2 | -80.6 | 113 | 26 |
| 2010-01-01T00:48 | 14704 | 140 | -70.3 | -80.8 | 114 | 26 |
| 2010-01-01T00:49 | 14745 | 139 | -70.8 | -81.4 | 115 | 26 |
| 2010-01-01T00:49 | 14785 | 138 | -71.1 | -81.7 | 116 | 26 |
| 2010-01-01T00:49 | 14823 | 137 | -71.3 | -81.9 | 117 | 27 |
| 2010-01-01T00:49 | 14861 | 136 | -71.6 | -82.3 | 118 | 27 |
| 2010-01-01T00:49 | 14900 | 135 | -71.9 | -82.7 | 118 | 27 |
| 2010-01-01T00:49 | 14941 | 134 | -72.3 | -83.3 | 119 | 26 |
| 2010-01-01T00:50 | 14981 | 133 | -72.6 | -83.8 | 120 | 25 |
| 2010-01-01T00:50 | 15028 | 132 | -72.7 | -84.1 | 120 | 24 |
| 2010-01-01T00:50 | 15068 | 131 | -72.8 | -84.3 | 120 | 24 |
| 2010-01-01T00:50 | 15108 | 131 | -72.8 | -84.6 | 119 | 23 |
| 2010-01-01T00:50 | 15146 | 130 | -73.3 | -85.2 | 119 | 23 |
| 2010-01-01T00:50 | 15187 | 129 | -73.8 | -85.8 | 120 | 23 |
| 2010-01-01T00:51 | 15227 | 128 | -74.2 | -86.3 | 120 | 22 |
| 2010-01-01T00:51 | 15267 | 127 | -74.3 | -86.5 | 120 | 22 |
| 2010-01-01T00:51 | 15309 | 126 | -74.6 | -86.8 | 119 | 22 |
| 2010-01-01T00:51 | 15351 | 125 | -74.9 | -87.2 | 118 | 22 |
| 2010-01-01T00:51 | 15390 | 124 | -75.4 | -87.7 | 116 | 22 |
| 2010-01-01T00:51 | 15431 | 123 | -75.6 | -87.8 | 114 | 22 |
| 2010-01-01T00:52 | 15471 | 123 | -75.7 | -88.0 | 111 | 22 |
| 2010-01-01T00:52 | 15513 | 122 | -75.9 | -88.2 | 109 | 22 |
| 2010-01-01T00:52 | 15555 | 121 | -76.2 | -88.5 | 106 | 22 |
| 2010-01-01T00:52 | 15601 | 120 | -76.7 | -88.9 | 104 | 22 |
| 2010-01-01T00:52 | 15645 | 119 | -77.0 | -89.2 | 103 | 22 |
| 2010-01-01T00:52 | 15690 | 118 | -77.4 | -89.5 | 102 | 22 |
| 2010-01-01T00:53 | 15736 | 117 | -77.8 | -89.9 | 100 | 21 |
| 2010-01-01T00:53 | 15781 | 116 | -78.2 | -90.2 | 97 | 21 |
| 2010-01-01T00:53 | 15831 | 115 | -78.4 | -90.4 | 94 | 21 |
| 2010-01-01T00:53 | 15879 | 114 | -78.9 | -90.8 | 92 | 22 |
| 2010-01-01T00:53 | 15931 | 113 | -79.3 | -91.1 | 91 | 22 |
| 2010-01-01T00:53 | 15974 | 112 | -79.7 | -91.3 | 89 | 22 |
| 2010-01-01T00:54 | 16017 | 111 | -80.0 | -91.4 | 88 | 22 |
| 2010-01-01T00:54 | 16059 | 111 | -80.4 | -91.8 | 88 | 23 |
| 2010-01-01T00:54 | 16102 | 110 | -80.8 | -92.1 | 88 | 23 |
| 2010-01-01T00:54 | 16142 | 109 | -81.0 | -92.2 | 87 | 23 |
| 2010-01-01T00:54 | 16183 | 108 | -81.3 | -92.4 | 87 | 23 |
| 2010-01-01T00:54 | 16226 | 107 | -81.2 | -92.4 | 85 | 24 |
| 2010-01-01T00:55 | 16270 | 107 | -80.9 | -92.3 | 82 | 24 |
| 2010-01-01T00:55 | 16312 | 106 | -81.1 | -92.4 | 80 | 24 |
| 2010-01-01T00:55 | 16358 | 105 | -81.6 | -93.0 | 78 | 23 |
| 2010-01-01T00:55 | 16406 | 104 | -81.8 | -93.2 | 76 | 23 |
| 2010-01-01T00:55 | 16450 | 103 | -82.2 | -93.7 | 75 | 22 |
| 2010-01-01T00:55 | 16498 | 102 | -82.6 | -94.1 | 75 | 22 |
| 2010-01-01T00:56 | 16543 | 101 | -82.9 | -94.4 | 75 | 21 |
| 2010-01-01T00:56 | 16589 | 101 | -83.2 | -94.7 | 75 | 22 |
| 2010-01-01T00:56 | 16633 | 100 | -83.3 | -94.8 | 76 | 22 |
| 2010-01-01T00:56 | 16678 | 99 | -83.2 | -94.8 | 77 | 23 |
| 2010-01-01T00:56 | 16723 | 98 | -83.5 | -95.0 | 78 | 23 |
| 2010-01-01T00:56 | 16768 | 97 | -83.5 | -95.1 | 79 | 23 |
| 2010-01-01T00:57 | 16814 | 97 | -83.7 | -95.3 | 80 | 23 |
| 2010-01-01T00:57 | 16862 | 96 | -83.9 | -95.5 | 82 | 23 |
| 2010-01-01T00:57 | 16908 | 95 | -84.0 | -95.6 | 84 | 23 |
| 2010-01-01T00:57 | 16958 | 94 | -83.7 | -95.4 | 86 | 23 |
| 2010-01-01T00:57 | 17006 | 93 | -83.9 | -95.5 | 86 | 22 |
| 2010-01-01T00:57 | 17052 | 93 | -84.0 | -95.7 | 87 | 21 |
| 2010-01-01T00:58 | 17099 | 92 | -84.0 | -95.7 | 87 | 20 |
| 2010-01-01T00:58 | 17144 | 91 | -84.0 | -95.7 | 89 | 19 |
| 2010-01-01T00:58 | 17189 | 90 | -83.7 | -95.5 | 90 | 18 |
| 2010-01-01T00:58 | 17236 | 90 | -83.7 | -95.5 | 91 | 16 |
| 2010-01-01T00:58 | 17281 | 89 | -83.8 | -95.6 | 92 | 16 |
| 2010-01-01T00:58 | 17326 | 88 | -84.1 | -95.9 | 94 | 16 |
| 2010-01-01T00:59 | 17369 | 87 | -83.4 | -95.3 | 97 | 17 |
| 2010-01-01T00:59 | 17412 | 87 | -83.2 | -95.1 | 100 | 18 |
| 2010-01-01T00:59 | 17454 | 86 | -83.1 | -95.0 | 101 | 18 |
| 2010-01-01T00:59 | 17494 | 86 | -82.3 | -94.3 | 100 | 16 |
| 2010-01-01T00:59 | 17539 | 85 | -80.6 | -93.1 | 100 | 13 |
| 2010-01-01T00:59 | 17583 | 84 | -78.1 | -91.0 | 101 | 10 |
| 2010-01-01T01:00 | 17631 | 83 | -77.1 | -90.1 | 103 | 7 |
| 2010-01-01T01:00 | 17682 | 83 | -77.0 | -90.1 | 99 | 5 |
| 2010-01-01T01:00 | 17728 | 82 | -76.1 | -89.4 | 87 | 4 |
| 2010-01-01T01:00 | 17773 | 81 | -75.7 | -89.2 | 69 | 3 |
| 2010-01-01T01:00 | 17819 | 81 | -75.7 | -89.3 | 49 | 2 |
| 2010-01-01T01:00 | 17867 | 80 | -75.9 | -89.7 | 22 | 2 |
| 2010-01-01T01:01 | 17912 | 80 | -76.0 | -89.9 | 346 | 3 |
| 2010-01-01T01:01 | 17959 | 79 | -75.6 | -89.8 | 319 | 4 |
| 2010-01-01T01:01 | 18006 | 78 | -75.3 | -89.6 | 305 | 6 |
| 2010-01-01T01:01 | 18052 | 78 | -74.8 | -89.4 | 299 | 7 |
| 2010-01-01T01:01 | 18096 | 77 | -74.8 | -89.5 | 294 | 9 |
| 2010-01-01T01:01 | 18144 | 76 | -74.9 | -89.7 | 291 | 10 |
| 2010-01-01T01:02 | 18189 | 76 | -74.9 | -89.9 | 289 | 11 |
| 2010-01-01T01:02 | 18233 | 75 | -75.3 | -90.3 | 287 | 11 |
| 2010-01-01T01:02 | 18277 | 75 | -75.7 | -90.8 | 284 | 12 |
| 2010-01-01T01:02 | 18322 | 74 | -76.0 | -91.1 | 281 | 12 |
| 2010-01-01T01:02 | 18366 | 74 | -76.3 | -91.5 | 279 | 13 |
| 2010-01-01T01:02 | 18408 | 73 | -76.7 | -91.8 | 274 | 13 |
| 2010-01-01T01:03 | 18461 | 72 | -76.5 | -91.7 | 268 | 14 |
| 2010-01-01T01:03 | 18508 | 72 | -76.3 | -91.6 | 263 | 15 |
| 2010-01-01T01:03 | 18552 | 71 | -76.2 | -91.5 | 261 | 15 |
| 2010-01-01T01:03 | 18597 | 71 | -76.4 | -91.6 | 259 | 14 |
| 2010-01-01T01:03 | 18643 | 70 | -77.0 | -92.1 | 257 | 13 |
| 2010-01-01T01:03 | 18689 | 69 | -77.1 | -92.2 | 255 | 12 |
| 2010-01-01T01:04 | 18736 | 69 | -76.6 | -91.8 | 257 | 13 |
| 2010-01-01T01:04 | 18783 | 68 | -76.7 | -91.8 | 260 | 13 |
| 2010-01-01T01:04 | 18828 | 68 | -77.2 | -92.1 | 263 | 13 |
| 2010-01-01T01:04 | 18873 | 67 | -77.4 | -92.3 | 265 | 13 |
| 2010-01-01T01:04 | 18918 | 67 | -77.6 | -92.4 | 268 | 13 |
| 2010-01-01T01:04 | 18961 | 66 | -77.7 | -92.5 | 270 | 12 |
| 2010-01-01T01:05 | 19005 | 66 | -78.0 | -92.7 | 272 | 12 |
| 2010-01-01T01:05 | 19049 | 65 | -78.1 | -92.8 | 274 | 11 |
| 2010-01-01T01:05 | 19095 | 65 | -78.2 | -92.9 | 275 | 11 |
| 2010-01-01T01:05 | 19137 | 64 | -78.0 | -92.7 | 275 | 12 |
| 2010-01-01T01:05 | 19179 | 64 | -78.2 | -92.9 | 275 | 14 |
| 2010-01-01T01:05 | 19222 | 63 | -78.2 | -92.8 | 276 | 15 |
| 2010-01-01T01:06 | 19265 | 63 | -78.1 | -92.7 | 278 | 16 |
| 2010-01-01T01:06 | 19309 | 62 | -78.2 | -92.7 | 279 | 16 |
| 2010-01-01T01:06 | 19353 | 62 | -78.3 | -92.8 | 280 | 16 |
| 2010-01-01T01:06 | 19396 | 61 | -78.5 | -93.0 | 282 | 16 |
| 2010-01-01T01:06 | 19440 | 61 | -78.1 | -92.6 | 284 | 16 |
| 2010-01-01T01:06 | 19485 | 60 | -78.2 | -92.7 | 286 | 16 |
| 2010-01-01T01:07 | 19529 | 60 | -78.4 | -92.8 | 289 | 16 |
| 2010-01-01T01:07 | 19574 | 60 | -78.3 | -92.7 | 291 | 16 |
| 2010-01-01T01:07 | 19619 | 59 | -78.1 | -92.5 | 292 | 16 |
| 2010-01-01T01:07 | 19665 | 59 | -77.7 | -92.2 | 294 | 16 |
| 2010-01-01T01:07 | 19711 | 58 | -76.6 | -91.3 | 295 | 16 |
| 2010-01-01T01:07 | 19756 | 58 | -75.6 | -90.6 | 296 | 16 |
| 2010-01-01T01:08 | 19800 | 57 | -75.4 | -90.5 | 297 | 16 |
| 2010-01-01T01:08 | 19845 | 57 | -75.5 | -90.7 | 297 | 17 |
| 2010-01-01T01:08 | 19889 | 56 | -75.5 | -90.8 | 296 | 16 |
| 2010-01-01T01:08 | 19933 | 56 | -75.4 | -90.8 | 293 | 15 |
| 2010-01-01T01:08 | 19979 | 55 | -75.0 | -90.7 | 288 | 15 |
| 2010-01-01T01:08 | 20022 | 55 | -74.4 | -90.4 | 285 | 14 |
| 2010-01-01T01:09 | 20067 | 55 | -74.2 | -90.3 | 284 | 13 |
| 2010-01-01T01:09 | 20112 | 54 | -74.1 | -90.4 | 282 | 13 |
| 2010-01-01T01:09 | 20158 | 54 | -73.7 | -90.2 | 279 | 13 |
| 2010-01-01T01:09 | 20202 | 53 | -73.5 | -90.2 | 275 | 13 |
| 2010-01-01T01:09 | 20247 | 53 | -73.3 | -90.2 | 270 | 12 |
| 2010-01-01T01:09 | 20293 | 53 | -71.5 | -89.2 | 264 | 12 |
| 2010-01-01T01:10 | 20337 | 52 | -70.9 | -88.9 | 260 | 11 |
| 2010-01-01T01:10 | 20382 | 52 | -70.4 | -88.8 | 258 | 11 |
| 2010-01-01T01:10 | 20427 | 51 | -69.6 | -88.5 | 257 | 11 |
| 2010-01-01T01:10 | 20473 | 51 | -69.2 | -88.5 | 255 | 10 |
| 2010-01-01T01:10 | 20519 | 51 | -69.0 | -88.7 | 254 | 10 |
| 2010-01-01T01:10 | 20565 | 50 | -68.8 | -88.9 | 255 | 9 |
| 2010-01-01T01:11 | 20610 | 50 | -68.6 | -89.2 | 256 | 8 |
| 2010-01-01T01:11 | 20655 | 49 | -68.3 | -89.3 | 255 | 7 |
| 2010-01-01T01:11 | 20701 | 49 | -68.3 | -89.6 | 252 | 7 |
| 2010-01-01T01:11 | 20748 | 49 | -68.5 | -90.0 | 250 | 7 |
| 2010-01-01T01:11 | 20794 | 48 | -68.6 | -90.4 | 250 | 7 |
| 2010-01-01T01:11 | 20843 | 48 | -68.7 | -90.7 | 250 | 7 |
| 2010-01-01T01:12 | 20890 | 48 | -68.7 | -90.9 | 250 | 8 |
| 2010-01-01T01:12 | 20937 | 47 | -68.8 | -91.1 | 249 | 8 |
| 2010-01-01T01:12 | 20986 | 47 | -69.2 | -91.5 | 247 | 8 |
| 2010-01-01T01:12 | 21035 | 46 | -69.4 | -91.8 | 244 | 8 |
| 2010-01-01T01:12 | 21083 | 46 | -69.8 | -92.2 | 239 | 8 |
| 2010-01-01T01:12 | 21130 | 46 | -70.2 | -92.5 | 234 | 9 |
| 2010-01-01T01:13 | 21179 | 45 | -70.4 | -92.8 | 229 | 9 |
| 2010-01-01T01:13 | 21228 | 45 | -70.6 | -93.0 | 226 | 9 |
| 2010-01-01T01:13 | 21277 | 45 | -71.0 | -93.3 | 225 | 8 |
| 2010-01-01T01:13 | 21326 | 44 | -71.3 | -93.5 | 224 | 7 |
| 2010-01-01T01:13 | 21375 | 44 | -71.3 | -93.6 | 221 | 6 |
| 2010-01-01T01:13 | 21424 | 43 | -71.5 | -93.7 | 218 | 5 |
| 2010-01-01T01:14 | 21472 | 43 | -71.7 | -93.8 | 218 | 4 |
| 2010-01-01T01:14 | 21520 | 43 | -71.9 | -93.9 | 218 | 3 |
| 2010-01-01T01:14 | 21568 | 42 | -71.6 | -93.8 | 215 | 1 |
| 2010-01-01T01:14 | 21613 | 42 | -70.7 | -93.3 | 226 | 0 |
| 2010-01-01T01:14 | 21659 | 42 | -70.1 | -93.0 | 284 | 0 |
| 2010-01-01T01:14 | 21704 | 41 | -70.4 | -93.2 | 307 | 1 |
| 2010-01-01T01:15 | 21749 | 41 | -70.6 | -93.1 | 315 | 2 |
| 2010-01-01T01:15 | 21795 | 41 | -70.7 | -93.3 | 318 | 3 |
| 2010-01-01T01:15 | 21840 | 41 | -71.1 | -93.6 | 318 | 3 |
| 2010-01-01T01:15 | 21885 | 40 | -71.2 | -93.8 | 310 | 2 |
| 2010-01-01T01:15 | 21931 | 40 | -70.0 | -93.2 | 285 | 1 |
| 2010-01-01T01:15 | 21978 | 40 | -70.4 | -93.3 | 254 | 1 |
| 2010-01-01T01:16 | 22024 | 39 | -70.6 | -93.3 | 208 | 1 |
| 2010-01-01T01:16 | 22071 | 39 | -70.3 | -93.3 | 154 | 2 |
| 2010-01-01T01:16 | 22118 | 39 | -70.4 | -93.4 | 129 | 3 |
| 2010-01-01T01:16 | 22162 | 38 | -70.3 | -93.3 | 116 | 5 |
| 2010-01-01T01:16 | 22210 | 38 | -69.4 | -92.9 | 107 | 6 |
| 2010-01-01T01:16 | 22258 | 38 | -69.3 | -92.8 | 100 | 8 |
| 2010-01-01T01:17 | 22305 | 37 | -69.4 | -93.0 | 97 | 10 |
| 2010-01-01T01:17 | 22354 | 37 | -68.9 | -92.7 | 98 | 11 |
| 2010-01-01T01:17 | 22402 | 37 | -68.6 | -92.6 | 102 | 13 |
| 2010-01-01T01:17 | 22448 | 37 | -68.4 | -92.5 | 106 | 14 |
| 2010-01-01T01:17 | 22497 | 36 | -68.2 | -92.4 | 109 | 15 |
| 2010-01-01T01:17 | 22547 | 36 | -68.1 | -92.3 | 108 | 17 |
| 2010-01-01T01:18 | 22597 | 36 | -67.0 | -91.8 | 105 | 19 |
| 2010-01-01T01:18 | 22641 | 35 | -66.5 | -91.5 | 102 | 21 |
| 2010-01-01T01:18 | 22691 | 35 | -66.2 | -91.4 | 101 | 23 |
| 2010-01-01T01:18 | 22738 | 35 | -66.2 | -91.3 | 100 | 25 |
| 2010-01-01T01:18 | 22784 | 35 | -66.1 | -91.3 | 98 | 26 |
| 2010-01-01T01:18 | 22833 | 34 | -65.7 | -91.2 | 95 | 27 |
| 2010-01-01T01:19 | 22879 | 34 | -65.1 | -90.9 | 92 | 27 |
| 2010-01-01T01:19 | 22925 | 34 | -64.9 | -90.8 | 89 | 27 |
| 2010-01-01T01:19 | 22972 | 34 | -63.7 | -90.2 | 87 | 27 |
| 2010-01-01T01:19 | 23017 | 33 | -63.1 | -89.9 | 86 | 27 |
| 2010-01-01T01:19 | 23064 | 33 | -63.0 | -89.7 | 85 | 27 |
| 2010-01-01T01:19 | 23111 | 33 | -63.2 | -89.8 | 85 | 27 |
| 2010-01-01T01:20 | 23160 | 33 | -63.5 | -89.9 | 85 | 27 |
| 2010-01-01T01:20 | 23205 | 32 | -63.7 | -90.1 | 86 | 28 |
| 2010-01-01T01:20 | 23257 | 32 | -64.0 | -90.3 | 88 | 28 |
| 2010-01-01T01:20 | 23304 | 32 | -63.8 | -90.3 | 91 | 28 |
| 2010-01-01T01:20 | 23352 | 32 | -63.7 | -90.3 | 93 | 29 |
| 2010-01-01T01:20 | 23401 | 31 | -63.5 | -90.2 | 96 | 29 |
| 2010-01-01T01:21 | 23446 | 31 | -63.4 | -90.1 | 97 | 30 |
| 2010-01-01T01:21 | 23496 | 31 | -63.6 | -90.2 | 97 | 31 |
| 2010-01-01T01:21 | 23543 | 31 | -63.9 | -90.3 | 96 | 31 |
| 2010-01-01T01:21 | 23592 | 30 | -63.5 | -90.2 | 94 | 31 |
| 2010-01-01T01:21 | 23638 | 30 | -62.5 | -89.7 | 92 | 31 |
| 2010-01-01T01:21 | 23684 | 30 | -61.4 | -89.1 | 89 | 31 |
| 2010-01-01T01:22 | 23734 | 30 | -60.4 | -88.6 | 86 | 30 |
| 2010-01-01T01:22 | 23781 | 29 | -59.9 | -88.2 | 83 | 30 |
| 2010-01-01T01:22 | 23829 | 29 | -59.7 | -87.9 | 80 | 30 |
| 2010-01-01T01:22 | 23878 | 29 | -59.2 | -87.6 | 79 | 29 |
| 2010-01-01T01:22 | 23925 | 29 | -59.3 | -87.5 | 79 | 29 |
| 2010-01-01T01:22 | 23973 | 29 | -58.9 | -87.3 | 82 | 29 |
| 2010-01-01T01:23 | 24022 | 28 | -58.5 | -87.1 | 84 | 28 |
| 2010-01-01T01:23 | 24068 | 28 | -58.2 | -86.8 | 85 | 28 |
| 2010-01-01T01:23 | 24117 | 28 | -58.2 | -86.8 | 86 | 28 |
| 2010-01-01T01:23 | 24167 | 28 | -58.3 | -86.7 | 86 | 28 |
| 2010-01-01T01:23 | 24217 | 27 | -58.3 | -86.7 | 86 | 29 |
| 2010-01-01T01:23 | 24268 | 27 | -58.5 | -86.7 | 85 | 30 |
| 2010-01-01T01:24 | 24318 | 27 | -58.4 | -86.7 | 84 | 31 |
| 2010-01-01T01:24 | 24370 | 27 | -58.4 | -86.7 | 83 | 31 |
| 2010-01-01T01:24 | 24423 | 27 | -58.0 | -86.5 | 82 | 31 |
| 2010-01-01T01:24 | 24475 | 26 | -57.9 | -86.4 | 82 | 30 |
| 2010-01-01T01:24 | 24525 | 26 | -57.2 | -86.1 | 82 | 29 |
| 2010-01-01T01:24 | 24576 | 26 | -57.0 | -85.9 | 83 | 29 |
| 2010-01-01T01:25 | 24627 | 26 | -56.5 | -85.7 | 85 | 28 |
| 2010-01-01T01:25 | 24677 | 26 | -56.2 | -85.4 | 86 | 28 |
| 2010-01-01T01:25 | 24726 | 25 | -55.3 | -85.0 | 87 | 28 |
| 2010-01-01T01:25 | 24776 | 25 | -54.8 | -84.6 | 88 | 28 |
| 2010-01-01T01:25 | 24826 | 25 | -54.6 | -84.4 | 89 | 28 |
| 2010-01-01T01:25 | 24875 | 25 | -54.4 | -84.2 | 91 | 27 |
| 2010-01-01T01:26 | 24925 | 25 | -54.1 | -84.0 | 92 | 27 |
| 2010-01-01T01:26 | 24972 | 24 | -54.1 | -83.9 | 92 | 27 |
| 2010-01-01T01:26 | 25022 | 24 | -54.2 | -83.8 | 93 | 26 |
| 2010-01-01T01:26 | 25070 | 24 | -54.3 | -83.8 | 94 | 26 |
| 2010-01-01T01:26 | 25113 | 24 | -54.5 | -83.9 | 95 | 26 |
| 2010-01-01T01:26 | 25163 | 24 | -54.4 | -83.8 | 97 | 27 |
| 2010-01-01T01:27 | 25208 | 23 | -54.4 | -83.8 | 99 | 27 |
| 2010-01-01T01:27 | 25257 | 23 | -54.3 | -83.8 | 101 | 27 |
| 2010-01-01T01:27 | 25303 | 23 | -54.2 | -83.7 | 103 | 27 |
| 2010-01-01T01:27 | 25349 | 23 | -54.0 | -83.6 | 105 | 27 |
| 2010-01-01T01:27 | 25401 | 23 | -54.0 | -83.6 | 108 | 27 |
| 2010-01-01T01:27 | 25449 | 23 | -54.2 | -83.7 | 110 | 28 |
| 2010-01-01T01:28 | 25499 | 22 | -54.2 | -83.7 | 111 | 28 |
| 2010-01-01T01:28 | 25549 | 22 | -54.2 | -83.7 | 109 | 29 |
| 2010-01-01T01:28 | 25600 | 22 | -54.3 | -83.7 | 105 | 30 |
| 2010-01-01T01:28 | 25652 | 22 | -53.9 | -83.6 | 101 | 31 |
| 2010-01-01T01:28 | 25700 | 22 | -51.9 | -82.7 | 98 | 32 |
| 2010-01-01T01:28 | 25753 | 22 | -51.8 | -82.5 | 96 | 33 |
| 2010-01-01T01:29 | 25805 | 21 | -51.5 | -82.3 | 95 | 33 |
| 2010-01-01T01:29 | 25856 | 21 | -51.2 | -82.0 | 95 | 34 |
| 2010-01-01T01:29 | 25912 | 21 | -51.2 | -81.8 | 94 | 34 |
| 2010-01-01T01:29 | 25963 | 21 | -51.0 | -81.8 | 93 | 34 |
| 2010-01-01T01:29 | 26018 | 21 | -51.0 | -81.6 | 92 | 34 |
| 2010-01-01T01:29 | 26075 | 21 | -51.1 | -81.6 | 91 | 34 |
| 2010-01-01T01:30 | 26122 | 20 | -51.1 | -81.6 | 91 | 34 |
| 2010-01-01T01:30 | 26178 | 20 | -50.8 | -81.4 | 92 | 34 |
| 2010-01-01T01:30 | 26228 | 20 | -50.5 | -81.3 | 92 | 34 |
| 2010-01-01T01:30 | 26279 | 20 | -50.6 | -81.3 | 93 | 34 |
| 2010-01-01T01:30 | 26330 | 20 | -50.6 | -81.3 | 93 | 35 |
| 2010-01-01T01:30 | 26376 | 20 | -50.7 | -81.3 | 94 | 35 |
| 2010-01-01T01:31 | 26427 | 19 | -50.7 | -81.3 | 95 | 36 |
| 2010-01-01T01:31 | 26472 | 19 | -51.0 | -81.4 | 96 | 36 |
| 2010-01-01T01:31 | 26519 | 19 | -51.3 | -81.6 | 97 | 37 |
| 2010-01-01T01:31 | 26571 | 19 | -51.5 | -81.7 | 98 | 37 |
| 2010-01-01T01:31 | 26614 | 19 | -51.5 | -81.7 | 99 | 37 |
| 2010-01-01T01:31 | 26661 | 19 | -51.7 | -81.9 | 100 | 38 |
| 2010-01-01T01:32 | 26709 | 19 | -52.0 | -82.0 | 100 | 38 |
| 2010-01-01T01:32 | 26750 | 19 | -52.3 | -82.1 | 100 | 39 |
| 2010-01-01T01:32 | 26799 | 18 | -52.1 | -82.1 | 100 | 39 |
| 2010-01-01T01:32 | 26842 | 18 | -52.3 | -82.3 | 99 | 38 |
| 2010-01-01T01:32 | 26888 | 18 | -52.1 | -82.1 | 98 | 38 |
| 2010-01-01T01:32 | 26935 | 18 | -51.9 | -82.0 | 97 | 38 |
| 2010-01-03T23:41 | 4 | 1006 | 31.3 | 25.4 | 200 | 3 |
| 2010-01-03T23:41 | 14 | 1005 | 29.9 | 25.4 | 211 | 1 |
| 2010-01-03T23:41 | 24 | 1004 | 28.3 | 24.3 | 212 | 1 |
| 2010-01-03T23:41 | 35 | 1003 | 28.3 | 24.6 | 211 | 1 |
| 2010-01-03T23:41 | 46 | 1001 | 28.2 | 24.9 | 212 | 2 |
| 2010-01-03T23:41 | 58 | 1000 | 28.1 | 24.9 | 212 | 2 |
| 2010-01-03T23:41 | 69 | 999 | 27.8 | 24.8 | 213 | 2 |
| 2010-01-03T23:41 | 80 | 998 | 27.6 | 24.6 | 214 | 2 |
| 2010-01-03T23:41 | 87 | 997 | 27.4 | 24.6 | 215 | 2 |
| 2010-01-03T23:41 | 96 | 996 | 27.3 | 24.7 | 216 | 2 |
| 2010-01-03T23:41 | 105 | 995 | 27.2 | 24.7 | 217 | 2 |
| 2010-01-03T23:41 | 114 | 994 | 27.1 | 24.7 | 218 | 2 |
| 2010-01-03T23:41 | 123 | 993 | 27.0 | 24.7 | 219 | 2 |
| 2010-01-03T23:41 | 133 | 992 | 27.0 | 24.7 | 221 | 2 |
| 2010-01-03T23:41 | 143 | 991 | 27.1 | 24.3 | 222 | 2 |
| 2010-01-03T23:41 | 152 | 990 | 27.1 | 24.1 | 223 | 2 |
| 2010-01-03T23:41 | 160 | 989 | 27.1 | 24.0 | 225 | 2 |
| 2010-01-03T23:41 | 168 | 988 | 27.0 | 24.0 | 226 | 2 |
| 2010-01-03T23:41 | 177 | 987 | 26.9 | 23.9 | 228 | 2 |
| 2010-01-03T23:41 | 186 | 986 | 26.8 | 23.8 | 230 | 2 |
| 2010-01-03T23:41 | 195 | 985 | 26.8 | 23.9 | 231 | 2 |
| 2010-01-03T23:41 | 205 | 984 | 26.7 | 23.8 | 233 | 2 |
| 2010-01-03T23:41 | 214 | 983 | 26.6 | 23.8 | 235 | 2 |
| 2010-01-03T23:41 | 223 | 982 | 26.5 | 23.7 | 237 | 2 |
| 2010-01-03T23:41 | 230 | 981 | 26.5 | 23.7 | 239 | 2 |
| 2010-01-03T23:41 | 238 | 980 | 26.4 | 23.6 | 241 | 2 |
| 2010-01-03T23:41 | 245 | 979 | 26.4 | 23.6 | 243 | 2 |
| 2010-01-03T23:41 | 252 | 978 | 26.3 | 23.7 | 245 | 2 |
| 2010-01-03T23:41 | 259 | 978 | 26.3 | 23.8 | 247 | 2 |
| 2010-01-03T23:41 | 265 | 977 | 26.2 | 23.8 | 249 | 2 |
| 2010-01-03T23:42 | 271 | 976 | 26.2 | 23.7 | 250 | 2 |
| 2010-01-03T23:42 | 278 | 976 | 26.1 | 23.7 | 252 | 2 |
| 2010-01-03T23:42 | 284 | 975 | 26.1 | 23.6 | 253 | 2 |
| 2010-01-03T23:42 | 289 | 974 | 26.1 | 23.6 | 254 | 2 |
| 2010-01-03T23:42 | 293 | 974 | 26.0 | 23.5 | 255 | 2 |
| 2010-01-03T23:42 | 298 | 973 | 26.0 | 23.4 | 256 | 2 |
| 2010-01-03T23:42 | 304 | 973 | 26.0 | 23.4 | 257 | 2 |
| 2010-01-03T23:42 | 308 | 972 | 26.0 | 23.4 | 257 | 2 |
| 2010-01-03T23:42 | 313 | 972 | 25.9 | 23.3 | 258 | 2 |
| 2010-01-03T23:42 | 318 | 971 | 25.9 | 23.1 | 258 | 2 |
| 2010-01-03T23:42 | 323 | 971 | 25.9 | 22.8 | 259 | 2 |
| 2010-01-03T23:42 | 328 | 970 | 25.9 | 22.8 | 259 | 2 |
| 2010-01-03T23:42 | 333 | 970 | 25.9 | 22.8 | 259 | 2 |
| 2010-01-03T23:42 | 339 | 969 | 25.9 | 22.7 | 260 | 2 |
| 2010-01-03T23:42 | 344 | 968 | 25.8 | 22.7 | 260 | 2 |
| 2010-01-03T23:42 | 349 | 968 | 25.8 | 22.7 | 260 | 2 |
| 2010-01-03T23:42 | 354 | 967 | 25.7 | 22.7 | 261 | 2 |
| 2010-01-03T23:42 | 359 | 967 | 25.7 | 22.6 | 261 | 2 |
| 2010-01-03T23:42 | 365 | 966 | 25.7 | 22.4 | 262 | 2 |
| 2010-01-03T23:42 | 371 | 965 | 25.7 | 22.3 | 262 | 2 |
| 2010-01-03T23:42 | 376 | 965 | 25.7 | 22.3 | 262 | 2 |
| 2010-01-03T23:42 | 381 | 964 | 25.6 | 22.2 | 263 | 2 |
| 2010-01-03T23:42 | 385 | 964 | 25.6 | 22.2 | 263 | 2 |
| 2010-01-03T23:42 | 390 | 963 | 25.6 | 22.2 | 263 | 2 |
| 2010-01-03T23:42 | 395 | 963 | 25.5 | 22.4 | 264 | 2 |
| 2010-01-03T23:42 | 400 | 962 | 25.5 | 22.3 | 264 | 2 |
| 2010-01-03T23:42 | 406 | 962 | 25.5 | 22.2 | 264 | 2 |
| 2010-01-03T23:42 | 411 | 961 | 25.4 | 22.2 | 264 | 2 |
| 2010-01-03T23:42 | 416 | 961 | 25.4 | 22.2 | 265 | 2 |
| 2010-01-03T23:42 | 421 | 960 | 25.3 | 22.2 | 265 | 2 |
| 2010-01-03T23:43 | 426 | 959 | 25.3 | 22.2 | 265 | 2 |
| 2010-01-03T23:43 | 432 | 959 | 25.2 | 22.2 | 266 | 2 |
| 2010-01-03T23:43 | 437 | 958 | 25.2 | 22.3 | 266 | 2 |
| 2010-01-03T23:43 | 443 | 958 | 25.1 | 22.1 | 267 | 2 |
| 2010-01-03T23:43 | 449 | 957 | 25.1 | 22.0 | 268 | 2 |
| 2010-01-03T23:43 | 454 | 956 | 25.1 | 21.9 | 268 | 2 |
| 2010-01-03T23:43 | 460 | 956 | 25.1 | 21.8 | 269 | 2 |
| 2010-01-03T23:43 | 465 | 955 | 25.0 | 21.5 | 270 | 2 |
| 2010-01-03T23:43 | 472 | 954 | 25.0 | 21.4 | 270 | 2 |
| 2010-01-03T23:43 | 478 | 954 | 24.9 | 21.4 | 271 | 2 |
| 2010-01-03T23:43 | 484 | 953 | 24.9 | 21.5 | 271 | 2 |
| 2010-01-03T23:43 | 490 | 953 | 24.8 | 21.5 | 272 | 2 |
| 2010-01-03T23:43 | 495 | 952 | 24.8 | 21.5 | 272 | 2 |
| 2010-01-03T23:43 | 500 | 951 | 24.7 | 21.5 | 272 | 2 |
| 2010-01-03T23:43 | 505 | 951 | 24.7 | 21.5 | 272 | 2 |
| 2010-01-03T23:43 | 511 | 950 | 24.6 | 21.5 | 272 | 2 |
| 2010-01-03T23:43 | 516 | 950 | 24.6 | 21.5 | 272 | 2 |
| 2010-01-03T23:43 | 521 | 949 | 24.6 | 21.4 | 272 | 2 |
| 2010-01-03T23:43 | 526 | 949 | 24.5 | 21.3 | 271 | 2 |
| 2010-01-03T23:43 | 532 | 948 | 24.5 | 21.3 | 271 | 2 |
| 2010-01-03T23:43 | 537 | 947 | 24.5 | 21.2 | 271 | 2 |
| 2010-01-03T23:43 | 542 | 947 | 24.4 | 21.3 | 271 | 2 |
| 2010-01-03T23:43 | 547 | 946 | 24.4 | 21.1 | 271 | 2 |
| 2010-01-03T23:43 | 553 | 946 | 24.4 | 21.0 | 271 | 2 |
| 2010-01-03T23:43 | 558 | 945 | 24.4 | 20.9 | 270 | 2 |
| 2010-01-03T23:43 | 563 | 945 | 24.4 | 20.8 | 270 | 2 |
| 2010-01-03T23:43 | 569 | 944 | 24.4 | 20.7 | 270 | 2 |
| 2010-01-03T23:43 | 574 | 943 | 24.4 | 20.7 | 270 | 2 |
| 2010-01-03T23:43 | 579 | 943 | 24.3 | 20.8 | 270 | 2 |
| 2010-01-03T23:43 | 585 | 942 | 24.3 | 20.9 | 270 | 2 |
| 2010-01-03T23:44 | 590 | 942 | 24.2 | 21.1 | 270 | 2 |
| 2010-01-03T23:44 | 596 | 941 | 24.1 | 21.1 | 270 | 2 |
| 2010-01-03T23:44 | 601 | 941 | 24.1 | 21.0 | 270 | 2 |
| 2010-01-03T23:44 | 606 | 940 | 24.1 | 20.8 | 270 | 2 |
| 2010-01-03T23:44 | 611 | 939 | 24.1 | 20.5 | 270 | 2 |
| 2010-01-03T23:44 | 617 | 939 | 24.1 | 20.2 | 270 | 2 |
| 2010-01-03T23:44 | 622 | 938 | 24.0 | 20.4 | 271 | 2 |
| 2010-01-03T23:44 | 628 | 938 | 23.9 | 20.6 | 271 | 2 |
| 2010-01-03T23:44 | 634 | 937 | 23.9 | 20.7 | 271 | 2 |
| 2010-01-03T23:44 | 639 | 936 | 23.8 | 20.8 | 272 | 2 |
| 2010-01-03T23:44 | 645 | 936 | 23.8 | 20.7 | 273 | 2 |
| 2010-01-03T23:44 | 650 | 935 | 23.8 | 20.7 | 273 | 2 |
| 2010-01-03T23:44 | 655 | 935 | 23.8 | 20.7 | 274 | 2 |
| 2010-01-03T23:44 | 661 | 934 | 23.8 | 20.6 | 275 | 2 |
| 2010-01-03T23:44 | 666 | 934 | 23.7 | 20.5 | 275 | 2 |
| 2010-01-03T23:44 | 672 | 933 | 23.7 | 20.5 | 276 | 2 |
| 2010-01-03T23:44 | 677 | 932 | 23.7 | 20.5 | 277 | 2 |
| 2010-01-03T23:44 | 683 | 932 | 23.7 | 20.4 | 278 | 2 |
| 2010-01-03T23:44 | 688 | 931 | 23.6 | 20.4 | 279 | 2 |
| 2010-01-03T23:44 | 693 | 931 | 23.6 | 20.4 | 280 | 2 |
| 2010-01-03T23:44 | 699 | 930 | 23.6 | 20.4 | 280 | 2 |
| 2010-01-03T23:44 | 704 | 930 | 23.6 | 20.3 | 281 | 2 |
| 2010-01-03T23:44 | 709 | 929 | 23.5 | 20.3 | 282 | 2 |
| 2010-01-03T23:44 | 714 | 928 | 23.5 | 20.2 | 283 | 2 |
| 2010-01-03T23:44 | 719 | 928 | 23.5 | 20.3 | 284 | 2 |
| 2010-01-03T23:44 | 725 | 927 | 23.4 | 20.2 | 285 | 2 |
| 2010-01-03T23:44 | 730 | 927 | 23.4 | 20.1 | 285 | 2 |
| 2010-01-03T23:44 | 735 | 926 | 23.5 | 20.0 | 286 | 2 |
| 2010-01-03T23:44 | 740 | 926 | 23.4 | 19.9 | 287 | 2 |
| 2010-01-03T23:44 | 746 | 925 | 23.4 | 19.9 | 288 | 2 |
| 2010-01-03T23:45 | 751 | 925 | 23.4 | 19.8 | 289 | 2 |
| 2010-01-03T23:45 | 756 | 924 | 23.4 | 19.7 | 290 | 2 |
| 2010-01-03T23:45 | 761 | 924 | 23.4 | 19.4 | 291 | 2 |
| 2010-01-03T23:45 | 766 | 923 | 23.3 | 19.3 | 292 | 2 |
| 2010-01-03T23:45 | 771 | 922 | 23.3 | 19.3 | 293 | 2 |
| 2010-01-03T23:45 | 777 | 922 | 23.3 | 19.4 | 293 | 2 |
| 2010-01-03T23:45 | 781 | 921 | 23.2 | 19.4 | 294 | 2 |
| 2010-01-03T23:45 | 786 | 921 | 23.2 | 19.3 | 294 | 2 |
| 2010-01-03T23:45 | 792 | 920 | 23.2 | 19.2 | 295 | 2 |
| 2010-01-03T23:45 | 797 | 920 | 23.2 | 19.2 | 295 | 2 |
| 2010-01-03T23:45 | 802 | 919 | 23.2 | 19.1 | 295 | 2 |
| 2010-01-03T23:45 | 807 | 919 | 23.2 | 19.1 | 295 | 2 |
| 2010-01-03T23:45 | 813 | 918 | 23.2 | 19.1 | 295 | 2 |
| 2010-01-03T23:45 | 818 | 918 | 23.1 | 19.0 | 295 | 2 |
| 2010-01-03T23:45 | 824 | 917 | 23.1 | 18.8 | 294 | 2 |
| 2010-01-03T23:45 | 829 | 916 | 23.1 | 18.7 | 294 | 2 |
| 2010-01-03T23:45 | 834 | 916 | 23.1 | 18.8 | 294 | 2 |
| 2010-01-03T23:45 | 839 | 915 | 23.0 | 18.9 | 294 | 2 |
| 2010-01-03T23:45 | 844 | 915 | 23.0 | 18.9 | 294 | 2 |
| 2010-01-03T23:45 | 850 | 914 | 22.9 | 18.8 | 294 | 2 |
| 2010-01-03T23:45 | 855 | 914 | 22.9 | 18.7 | 294 | 2 |
| 2010-01-03T23:45 | 859 | 913 | 22.9 | 18.7 | 294 | 2 |
| 2010-01-03T23:45 | 865 | 913 | 22.8 | 18.7 | 295 | 2 |
| 2010-01-03T23:45 | 870 | 912 | 22.8 | 18.8 | 295 | 2 |
| 2010-01-03T23:45 | 875 | 912 | 22.7 | 18.7 | 295 | 2 |
| 2010-01-03T23:45 | 880 | 911 | 22.7 | 18.8 | 295 | 2 |
| 2010-01-03T23:45 | 886 | 910 | 22.6 | 18.8 | 296 | 2 |
| 2010-01-03T23:45 | 891 | 910 | 22.6 | 18.7 | 296 | 2 |
| 2010-01-03T23:45 | 897 | 909 | 22.6 | 18.7 | 296 | 2 |
| 2010-01-03T23:45 | 902 | 909 | 22.6 | 18.4 | 296 | 2 |
| 2010-01-03T23:46 | 907 | 908 | 22.6 | 18.0 | 296 | 2 |
| 2010-01-03T23:46 | 912 | 908 | 22.6 | 17.9 | 296 | 2 |
| 2010-01-03T23:46 | 916 | 907 | 22.6 | 18.0 | 295 | 2 |
| 2010-01-03T23:46 | 921 | 907 | 22.5 | 18.0 | 295 | 2 |
| 2010-01-03T23:46 | 927 | 906 | 22.5 | 17.9 | 294 | 2 |
| 2010-01-03T23:46 | 931 | 906 | 22.5 | 17.9 | 293 | 3 |
| 2010-01-03T23:46 | 936 | 905 | 22.5 | 17.9 | 292 | 3 |
| 2010-01-03T23:46 | 941 | 905 | 22.5 | 17.9 | 291 | 3 |
| 2010-01-03T23:46 | 946 | 904 | 22.4 | 17.9 | 290 | 3 |
| 2010-01-03T23:46 | 952 | 904 | 22.4 | 17.9 | 289 | 3 |
| 2010-01-03T23:46 | 956 | 903 | 22.4 | 18.0 | 288 | 3 |
| 2010-01-03T23:46 | 962 | 903 | 22.3 | 18.0 | 286 | 3 |
| 2010-01-03T23:46 | 967 | 902 | 22.3 | 18.0 | 285 | 3 |
| 2010-01-03T23:46 | 973 | 901 | 22.3 | 18.1 | 284 | 3 |
| 2010-01-03T23:46 | 978 | 901 | 22.2 | 18.1 | 283 | 3 |
| 2010-01-03T23:46 | 983 | 900 | 22.2 | 18.0 | 282 | 3 |
| 2010-01-03T23:46 | 988 | 900 | 22.2 | 18.0 | 281 | 3 |
| 2010-01-03T23:46 | 993 | 899 | 22.1 | 18.0 | 281 | 3 |
| 2010-01-03T23:46 | 999 | 899 | 22.1 | 18.0 | 280 | 3 |
| 2010-01-03T23:46 | 1004 | 898 | 22.0 | 18.2 | 279 | 3 |
| 2010-01-03T23:46 | 1009 | 898 | 21.9 | 18.3 | 278 | 3 |
| 2010-01-03T23:46 | 1014 | 897 | 21.9 | 18.5 | 278 | 3 |
| 2010-01-03T23:46 | 1019 | 897 | 21.8 | 18.5 | 277 | 3 |
| 2010-01-03T23:46 | 1024 | 896 | 21.8 | 18.6 | 277 | 3 |
| 2010-01-03T23:46 | 1030 | 896 | 21.8 | 18.6 | 276 | 3 |
| 2010-01-03T23:46 | 1035 | 895 | 21.7 | 18.6 | 276 | 3 |
| 2010-01-03T23:46 | 1040 | 894 | 21.7 | 18.5 | 275 | 3 |
| 2010-01-03T23:46 | 1046 | 894 | 21.6 | 18.2 | 275 | 3 |
| 2010-01-03T23:46 | 1051 | 893 | 21.6 | 18.1 | 275 | 3 |
| 2010-01-03T23:46 | 1056 | 893 | 21.6 | 18.0 | 275 | 3 |
| 2010-01-03T23:47 | 1061 | 892 | 21.5 | 18.0 | 275 | 3 |
| 2010-01-03T23:47 | 1067 | 892 | 21.5 | 18.0 | 275 | 3 |
| 2010-01-03T23:47 | 1072 | 891 | 21.4 | 18.0 | 275 | 3 |
| 2010-01-03T23:47 | 1077 | 891 | 21.4 | 17.9 | 275 | 3 |
| 2010-01-03T23:47 | 1083 | 890 | 21.4 | 17.9 | 275 | 3 |
| 2010-01-03T23:47 | 1087 | 890 | 21.4 | 17.8 | 276 | 3 |
| 2010-01-03T23:47 | 1093 | 889 | 21.3 | 17.7 | 276 | 3 |
| 2010-01-03T23:47 | 1099 | 888 | 21.3 | 17.6 | 276 | 3 |
| 2010-01-03T23:47 | 1104 | 888 | 21.2 | 17.5 | 277 | 3 |
| 2010-01-03T23:47 | 1109 | 887 | 21.2 | 17.5 | 277 | 3 |
| 2010-01-03T23:47 | 1114 | 887 | 21.1 | 17.5 | 277 | 3 |
| 2010-01-03T23:47 | 1119 | 886 | 21.1 | 17.5 | 278 | 3 |
| 2010-01-03T23:47 | 1125 | 886 | 21.1 | 17.5 | 278 | 3 |
| 2010-01-03T23:47 | 1130 | 885 | 21.1 | 17.4 | 278 | 3 |
| 2010-01-03T23:47 | 1136 | 885 | 21.0 | 17.3 | 279 | 3 |
| 2010-01-03T23:47 | 1141 | 884 | 21.0 | 17.3 | 279 | 3 |
| 2010-01-03T23:47 | 1146 | 884 | 21.0 | 17.2 | 279 | 3 |
| 2010-01-03T23:47 | 1151 | 883 | 20.9 | 17.2 | 279 | 3 |
| 2010-01-03T23:47 | 1156 | 883 | 20.9 | 17.1 | 279 | 3 |
| 2010-01-03T23:47 | 1161 | 882 | 20.8 | 17.1 | 279 | 3 |
| 2010-01-03T23:47 | 1167 | 882 | 20.8 | 17.1 | 279 | 3 |
| 2010-01-03T23:47 | 1173 | 881 | 20.7 | 17.0 | 279 | 3 |
| 2010-01-03T23:47 | 1178 | 880 | 20.7 | 17.0 | 279 | 3 |
| 2010-01-03T23:47 | 1183 | 880 | 20.7 | 17.0 | 279 | 3 |
| 2010-01-03T23:47 | 1188 | 879 | 20.6 | 16.9 | 279 | 3 |
| 2010-01-03T23:47 | 1194 | 879 | 20.6 | 16.5 | 279 | 3 |
| 2010-01-03T23:47 | 1199 | 878 | 20.6 | 16.6 | 279 | 3 |
| 2010-01-03T23:47 | 1204 | 878 | 20.5 | 16.6 | 279 | 3 |
| 2010-01-03T23:47 | 1209 | 877 | 20.5 | 16.7 | 278 | 3 |
| 2010-01-03T23:47 | 1215 | 877 | 20.4 | 16.8 | 278 | 3 |
| 2010-01-03T23:48 | 1220 | 876 | 20.4 | 16.8 | 277 | 3 |
| 2010-01-03T23:48 | 1226 | 876 | 20.4 | 16.9 | 277 | 3 |
| 2010-01-03T23:48 | 1231 | 875 | 20.3 | 16.9 | 276 | 3 |
| 2010-01-03T23:48 | 1237 | 874 | 20.3 | 16.9 | 275 | 3 |
| 2010-01-03T23:48 | 1242 | 874 | 20.3 | 16.9 | 274 | 3 |
| 2010-01-03T23:48 | 1248 | 873 | 20.3 | 16.8 | 273 | 3 |
| 2010-01-03T23:48 | 1253 | 873 | 20.3 | 16.7 | 272 | 3 |
| 2010-01-03T23:48 | 1258 | 872 | 20.3 | 16.6 | 271 | 3 |
| 2010-01-03T23:48 | 1263 | 872 | 20.3 | 16.5 | 271 | 3 |
| 2010-01-03T23:48 | 1269 | 871 | 20.2 | 16.4 | 270 | 3 |
| 2010-01-03T23:48 | 1274 | 871 | 20.2 | 16.4 | 269 | 3 |
| 2010-01-03T23:48 | 1279 | 870 | 20.2 | 16.4 | 268 | 3 |
| 2010-01-03T23:48 | 1285 | 870 | 20.1 | 16.4 | 268 | 3 |
| 2010-01-03T23:48 | 1290 | 869 | 20.1 | 16.4 | 267 | 3 |
| 2010-01-03T23:48 | 1296 | 869 | 20.1 | 16.4 | 267 | 3 |
| 2010-01-03T23:48 | 1301 | 868 | 20.0 | 16.4 | 267 | 3 |
| 2010-01-03T23:48 | 1307 | 867 | 20.0 | 16.5 | 266 | 3 |
| 2010-01-03T23:48 | 1313 | 867 | 19.9 | 16.5 | 266 | 3 |
| 2010-01-03T23:48 | 1319 | 866 | 19.9 | 16.5 | 266 | 3 |
| 2010-01-03T23:48 | 1324 | 866 | 19.8 | 16.5 | 266 | 3 |
| 2010-01-03T23:48 | 1330 | 865 | 19.7 | 16.5 | 265 | 3 |
| 2010-01-03T23:48 | 1335 | 865 | 19.7 | 16.5 | 265 | 3 |
| 2010-01-03T23:48 | 1340 | 864 | 19.6 | 16.3 | 265 | 3 |
| 2010-01-03T23:48 | 1346 | 864 | 19.6 | 16.2 | 265 | 3 |
| 2010-01-03T23:48 | 1351 | 863 | 19.6 | 16.3 | 264 | 3 |
| 2010-01-03T23:48 | 1357 | 862 | 19.5 | 16.4 | 264 | 3 |
| 2010-01-03T23:48 | 1363 | 862 | 19.5 | 16.3 | 264 | 3 |
| 2010-01-03T23:48 | 1369 | 861 | 19.4 | 16.3 | 263 | 3 |
| 2010-01-03T23:48 | 1376 | 861 | 19.4 | 16.3 | 263 | 3 |
| 2010-01-03T23:48 | 1382 | 860 | 19.4 | 16.3 | 262 | 3 |
| 2010-01-03T23:49 | 1388 | 859 | 19.3 | 16.2 | 262 | 3 |
| 2010-01-03T23:49 | 1394 | 859 | 19.3 | 16.2 | 262 | 3 |
| 2010-01-03T23:49 | 1399 | 858 | 19.3 | 16.1 | 261 | 3 |
| 2010-01-03T23:49 | 1405 | 858 | 19.2 | 16.3 | 261 | 3 |
| 2010-01-03T23:49 | 1411 | 857 | 19.2 | 16.3 | 261 | 3 |
| 2010-01-03T23:49 | 1416 | 856 | 19.2 | 16.2 | 261 | 3 |
| 2010-01-03T23:49 | 1422 | 856 | 19.2 | 16.1 | 260 | 3 |
| 2010-01-03T23:49 | 1428 | 855 | 19.2 | 15.9 | 260 | 3 |
| 2010-01-03T23:49 | 1434 | 855 | 19.2 | 15.8 | 260 | 3 |
| 2010-01-03T23:49 | 1440 | 854 | 19.1 | 15.6 | 260 | 3 |
| 2010-01-03T23:49 | 1445 | 854 | 19.1 | 15.4 | 259 | 3 |
| 2010-01-03T23:49 | 1451 | 853 | 19.1 | 15.2 | 259 | 3 |
| 2010-01-03T23:49 | 1457 | 852 | 19.1 | 15.1 | 258 | 3 |
| 2010-01-03T23:49 | 1463 | 852 | 19.1 | 15.2 | 258 | 3 |
| 2010-01-03T23:49 | 1470 | 851 | 19.1 | 15.2 | 258 | 3 |
| 2010-01-03T23:49 | 1476 | 851 | 19.0 | 15.3 | 258 | 3 |
| 2010-01-03T23:49 | 1481 | 850 | 19.0 | 15.4 | 258 | 3 |
| 2010-01-03T23:49 | 1488 | 849 | 18.9 | 15.5 | 258 | 3 |
| 2010-01-03T23:49 | 1494 | 849 | 18.9 | 15.7 | 258 | 3 |
| 2010-01-03T23:49 | 1500 | 848 | 18.8 | 15.5 | 258 | 3 |
| 2010-01-03T23:49 | 1507 | 848 | 18.8 | 15.2 | 258 | 3 |
| 2010-01-03T23:49 | 1513 | 847 | 18.7 | 15.2 | 259 | 4 |
| 2010-01-03T23:49 | 1519 | 846 | 18.7 | 15.2 | 260 | 4 |
| 2010-01-03T23:49 | 1525 | 846 | 18.7 | 15.1 | 261 | 4 |
| 2010-01-03T23:49 | 1531 | 845 | 18.7 | 15.0 | 261 | 4 |
| 2010-01-03T23:49 | 1538 | 844 | 18.7 | 14.8 | 262 | 4 |
| 2010-01-03T23:49 | 1545 | 844 | 18.7 | 14.8 | 263 | 4 |
| 2010-01-03T23:49 | 1551 | 843 | 18.6 | 14.4 | 264 | 4 |
| 2010-01-03T23:49 | 1558 | 843 | 18.7 | 14.2 | 265 | 4 |
| 2010-01-03T23:49 | 1564 | 842 | 18.7 | 14.2 | 265 | 4 |
| 2010-01-03T23:50 | 1571 | 841 | 18.6 | 14.2 | 266 | 4 |
| 2010-01-03T23:50 | 1579 | 840 | 18.6 | 14.2 | 267 | 4 |
| 2010-01-03T23:50 | 1586 | 840 | 18.5 | 14.1 | 267 | 5 |
| 2010-01-03T23:50 | 1593 | 839 | 18.5 | 14.1 | 267 | 5 |
| 2010-01-03T23:50 | 1598 | 839 | 18.4 | 14.1 | 267 | 5 |
| 2010-01-03T23:50 | 1604 | 838 | 18.4 | 14.0 | 267 | 5 |
| 2010-01-03T23:50 | 1610 | 837 | 18.3 | 14.0 | 267 | 5 |
| 2010-01-03T23:50 | 1616 | 837 | 18.3 | 14.0 | 267 | 5 |
| 2010-01-03T23:50 | 1621 | 836 | 18.2 | 14.0 | 267 | 5 |
| 2010-01-03T23:50 | 1627 | 836 | 18.2 | 14.2 | 267 | 5 |
| 2010-01-03T23:50 | 1633 | 835 | 18.1 | 14.2 | 266 | 5 |
| 2010-01-03T23:50 | 1639 | 835 | 18.0 | 14.1 | 266 | 5 |
| 2010-01-03T23:50 | 1645 | 834 | 18.0 | 14.1 | 266 | 5 |
| 2010-01-03T23:50 | 1651 | 833 | 18.0 | 14.1 | 265 | 5 |
| 2010-01-03T23:50 | 1658 | 833 | 17.9 | 14.1 | 265 | 5 |
| 2010-01-03T23:50 | 1663 | 832 | 17.9 | 14.1 | 265 | 5 |
| 2010-01-03T23:50 | 1669 | 832 | 17.8 | 14.2 | 264 | 5 |
| 2010-01-03T23:50 | 1675 | 831 | 17.8 | 14.1 | 264 | 5 |
| 2010-01-03T23:50 | 1681 | 831 | 17.7 | 14.2 | 264 | 5 |
| 2010-01-03T23:50 | 1687 | 830 | 17.7 | 14.4 | 263 | 5 |
| 2010-01-03T23:50 | 1692 | 830 | 17.7 | 14.5 | 263 | 5 |
| 2010-01-03T23:50 | 1698 | 829 | 17.6 | 14.5 | 263 | 5 |
| 2010-01-03T23:50 | 1703 | 828 | 17.6 | 14.4 | 263 | 5 |
| 2010-01-03T23:50 | 1709 | 828 | 17.6 | 14.3 | 263 | 5 |
| 2010-01-03T23:50 | 1714 | 827 | 17.5 | 14.4 | 263 | 5 |
| 2010-01-03T23:50 | 1720 | 827 | 17.5 | 14.4 | 263 | 5 |
| 2010-01-03T23:50 | 1727 | 826 | 17.4 | 14.5 | 263 | 5 |
| 2010-01-03T23:50 | 1733 | 826 | 17.4 | 14.4 | 263 | 5 |
| 2010-01-03T23:50 | 1739 | 825 | 17.3 | 14.4 | 264 | 5 |
| 2010-01-03T23:50 | 1744 | 824 | 17.3 | 14.3 | 264 | 5 |
| 2010-01-03T23:51 | 1750 | 824 | 17.4 | 14.1 | 264 | 5 |
| 2010-01-03T23:51 | 1756 | 823 | 17.3 | 13.8 | 264 | 5 |
| 2010-01-03T23:51 | 1762 | 823 | 17.3 | 13.7 | 265 | 5 |
| 2010-01-03T23:51 | 1768 | 822 | 17.3 | 13.7 | 265 | 5 |
| 2010-01-03T23:51 | 1774 | 822 | 17.3 | 13.7 | 265 | 5 |
| 2010-01-03T23:51 | 1780 | 821 | 17.3 | 13.7 | 265 | 5 |
| 2010-01-03T23:51 | 1786 | 820 | 17.2 | 13.7 | 265 | 5 |
| 2010-01-03T23:51 | 1792 | 820 | 17.2 | 13.8 | 265 | 5 |
| 2010-01-03T23:51 | 1798 | 819 | 17.2 | 13.7 | 265 | 5 |
| 2010-01-03T23:51 | 1804 | 819 | 17.2 | 13.3 | 265 | 5 |
| 2010-01-03T23:51 | 1810 | 818 | 17.3 | 12.7 | 265 | 5 |
| 2010-01-03T23:51 | 1816 | 818 | 17.3 | 12.3 | 264 | 5 |
| 2010-01-03T23:51 | 1821 | 817 | 17.3 | 12.1 | 264 | 5 |
| 2010-01-03T23:51 | 1827 | 817 | 17.3 | 12.0 | 263 | 5 |
| 2010-01-03T23:51 | 1832 | 816 | 17.3 | 11.8 | 263 | 5 |
| 2010-01-03T23:51 | 1838 | 815 | 17.3 | 11.7 | 262 | 5 |
| 2010-01-03T23:51 | 1844 | 815 | 17.2 | 12.0 | 262 | 5 |
| 2010-01-03T23:51 | 1849 | 814 | 17.1 | 12.2 | 261 | 5 |
| 2010-01-03T23:51 | 1855 | 814 | 17.1 | 12.4 | 261 | 5 |
| 2010-01-03T23:51 | 1861 | 813 | 17.0 | 12.6 | 261 | 5 |
| 2010-01-03T23:51 | 1867 | 813 | 17.0 | 12.8 | 261 | 5 |
| 2010-01-03T23:51 | 1873 | 812 | 17.0 | 12.9 | 261 | 5 |
| 2010-01-03T23:51 | 1878 | 812 | 17.0 | 13.0 | 260 | 5 |
| 2010-01-03T23:51 | 1884 | 811 | 16.9 | 13.0 | 261 | 5 |
| 2010-01-03T23:51 | 1890 | 811 | 16.8 | 13.1 | 261 | 6 |
| 2010-01-03T23:51 | 1896 | 810 | 16.8 | 13.2 | 261 | 6 |
| 2010-01-03T23:51 | 1902 | 809 | 16.8 | 13.2 | 261 | 6 |
| 2010-01-03T23:51 | 1907 | 809 | 16.7 | 13.3 | 261 | 6 |
| 2010-01-03T23:51 | 1913 | 808 | 16.7 | 13.4 | 261 | 6 |
| 2010-01-03T23:51 | 1919 | 808 | 16.6 | 13.5 | 261 | 6 |
| 2010-01-03T23:52 | 1924 | 807 | 16.6 | 13.6 | 261 | 6 |
| 2010-01-03T23:52 | 1930 | 807 | 16.6 | 13.6 | 260 | 6 |
| 2010-01-03T23:52 | 1937 | 806 | 16.5 | 13.6 | 260 | 6 |
| 2010-01-03T23:52 | 1943 | 806 | 16.5 | 13.6 | 260 | 6 |
| 2010-01-03T23:52 | 1949 | 805 | 16.4 | 13.6 | 260 | 6 |
| 2010-01-03T23:52 | 1956 | 804 | 16.4 | 13.6 | 260 | 6 |
| 2010-01-03T23:52 | 1963 | 804 | 16.3 | 13.6 | 260 | 6 |
| 2010-01-03T23:52 | 1969 | 803 | 16.3 | 13.6 | 260 | 5 |
| 2010-01-03T23:52 | 1975 | 803 | 16.3 | 13.5 | 260 | 5 |
| 2010-01-03T23:52 | 1980 | 802 | 16.3 | 13.5 | 260 | 5 |
| 2010-01-03T23:52 | 1986 | 802 | 16.3 | 13.5 | 259 | 5 |
| 2010-01-03T23:52 | 1991 | 801 | 16.2 | 13.4 | 259 | 5 |
| 2010-01-03T23:52 | 1996 | 800 | 16.2 | 13.2 | 259 | 5 |
| 2010-01-03T23:52 | 2015 | 799 | 16.1 | 13.3 | 260 | 5 |
| 2010-01-03T23:52 | 2046 | 796 | 15.8 | 13.4 | 261 | 6 |
| 2010-01-03T23:52 | 2077 | 793 | 15.7 | 13.3 | 263 | 6 |
| 2010-01-03T23:53 | 2104 | 790 | 15.5 | 13.2 | 264 | 6 |
| 2010-01-03T23:53 | 2132 | 788 | 15.4 | 12.9 | 263 | 6 |
| 2010-01-03T23:53 | 2159 | 785 | 15.4 | 12.4 | 262 | 6 |
| 2010-01-03T23:53 | 2187 | 783 | 15.3 | 12.5 | 261 | 6 |
| 2010-01-03T23:53 | 2214 | 780 | 15.3 | 11.9 | 260 | 6 |
| 2010-01-03T23:53 | 2242 | 778 | 15.1 | 11.8 | 261 | 5 |
| 2010-01-03T23:54 | 2269 | 775 | 14.9 | 11.8 | 262 | 5 |
| 2010-01-03T23:54 | 2296 | 773 | 14.7 | 11.7 | 265 | 5 |
| 2010-01-03T23:54 | 2325 | 770 | 14.5 | 11.3 | 267 | 5 |
| 2010-01-03T23:54 | 2353 | 768 | 14.3 | 11.4 | 268 | 4 |
| 2010-01-03T23:54 | 2383 | 765 | 14.1 | 11.0 | 268 | 4 |
| 2010-01-03T23:54 | 2410 | 762 | 14.0 | 11.3 | 269 | 4 |
| 2010-01-03T23:55 | 2438 | 760 | 13.8 | 11.3 | 271 | 3 |
| 2010-01-03T23:55 | 2465 | 758 | 13.6 | 10.7 | 272 | 3 |
| 2010-01-03T23:55 | 2493 | 755 | 13.4 | 10.9 | 269 | 3 |
| 2010-01-03T23:55 | 2519 | 753 | 13.2 | 10.9 | 266 | 3 |
| 2010-01-03T23:55 | 2546 | 750 | 13.2 | 10.4 | 268 | 2 |
| 2010-01-03T23:55 | 2571 | 748 | 13.2 | 10.0 | 273 | 2 |
| 2010-01-03T23:56 | 2595 | 746 | 13.1 | 10.3 | 275 | 2 |
| 2010-01-03T23:56 | 2623 | 744 | 13.0 | 10.0 | 271 | 3 |
| 2010-01-03T23:56 | 2649 | 741 | 12.8 | 10.0 | 266 | 3 |
| 2010-01-03T23:56 | 2677 | 739 | 12.7 | 10.0 | 262 | 3 |
| 2010-01-03T23:56 | 2703 | 736 | 12.6 | 9.7 | 261 | 3 |
| 2010-01-03T23:56 | 2728 | 734 | 12.6 | 9.1 | 259 | 3 |
| 2010-01-03T23:57 | 2754 | 732 | 12.6 | 8.1 | 255 | 2 |
| 2010-01-03T23:57 | 2782 | 730 | 12.5 | 8.1 | 250 | 3 |
| 2010-01-03T23:57 | 2809 | 727 | 12.4 | 8.3 | 244 | 3 |
| 2010-01-03T23:57 | 2836 | 725 | 12.3 | 7.9 | 239 | 3 |
| 2010-01-03T23:57 | 2862 | 723 | 12.3 | 7.6 | 235 | 3 |
| 2010-01-03T23:57 | 2889 | 720 | 12.2 | 7.6 | 232 | 3 |
| 2010-01-03T23:58 | 2916 | 718 | 12.0 | 7.1 | 230 | 3 |
| 2010-01-03T23:58 | 2944 | 716 | 11.8 | 7.2 | 230 | 3 |
| 2010-01-03T23:58 | 2972 | 713 | 11.6 | 7.1 | 232 | 3 |
| 2010-01-03T23:58 | 2999 | 711 | 11.5 | 7.1 | 235 | 3 |
| 2010-01-03T23:58 | 3026 | 709 | 11.3 | 6.9 | 240 | 3 |
| 2010-01-03T23:58 | 3054 | 706 | 11.2 | 6.1 | 243 | 3 |
| 2010-01-03T23:59 | 3083 | 704 | 11.0 | 6.7 | 245 | 3 |
| 2010-01-03T23:59 | 3112 | 701 | 10.9 | 6.4 | 247 | 3 |
| 2010-01-03T23:59 | 3139 | 699 | 10.9 | 6.0 | 249 | 3 |
| 2010-01-03T23:59 | 3166 | 697 | 10.8 | 5.9 | 249 | 4 |
| 2010-01-03T23:59 | 3193 | 695 | 10.8 | 5.7 | 249 | 4 |
| 2010-01-03T23:59 | 3219 | 692 | 10.7 | 5.2 | 248 | 4 |
| 2010-01-04T00:00 | 3247 | 690 | 10.6 | 5.6 | 248 | 4 |
| 2010-01-04T00:00 | 3274 | 688 | 10.3 | 5.8 | 249 | 4 |
| 2010-01-04T00:00 | 3301 | 686 | 10.0 | 5.9 | 249 | 4 |
| 2010-01-04T00:00 | 3328 | 683 | 9.8 | 6.0 | 248 | 4 |
| 2010-01-04T00:00 | 3356 | 681 | 9.6 | 5.4 | 245 | 4 |
| 2010-01-04T00:00 | 3384 | 679 | 9.5 | 5.6 | 243 | 4 |
| 2010-01-04T00:01 | 3410 | 677 | 9.4 | 5.5 | 244 | 4 |
| 2010-01-04T00:01 | 3438 | 675 | 9.4 | 5.3 | 249 | 4 |
| 2010-01-04T00:01 | 3466 | 672 | 9.3 | 4.9 | 254 | 4 |
| 2010-01-04T00:01 | 3494 | 670 | 9.2 | 5.0 | 257 | 4 |
| 2010-01-04T00:01 | 3521 | 668 | 9.0 | 4.6 | 258 | 4 |
| 2010-01-04T00:01 | 3549 | 666 | 8.8 | 4.8 | 259 | 4 |
| 2010-01-04T00:02 | 3576 | 663 | 8.6 | 4.2 | 259 | 4 |
| 2010-01-04T00:02 | 3605 | 661 | 8.4 | 4.4 | 258 | 4 |
| 2010-01-04T00:02 | 3632 | 659 | 8.1 | 4.6 | 256 | 4 |
| 2010-01-04T00:02 | 3662 | 657 | 7.9 | 4.1 | 254 | 4 |
| 2010-01-04T00:02 | 3692 | 654 | 7.7 | 3.8 | 251 | 4 |
| 2010-01-04T00:02 | 3725 | 652 | 7.5 | 3.7 | 247 | 4 |
| 2010-01-04T00:03 | 3769 | 648 | 7.3 | 4.1 | 243 | 4 |
| 2010-01-04T00:03 | 3817 | 644 | 7.1 | 3.7 | 242 | 3 |
| 2010-01-04T00:03 | 3867 | 640 | 7.0 | 3.3 | 244 | 3 |
| 2010-01-04T00:03 | 3915 | 637 | 6.9 | 2.6 | 248 | 3 |
| 2010-01-04T00:03 | 3965 | 633 | 6.6 | 2.6 | 250 | 3 |
| 2010-01-04T00:03 | 4016 | 629 | 6.3 | 2.4 | 253 | 3 |
| 2010-01-04T00:04 | 4063 | 625 | 5.9 | 2.4 | 257 | 3 |
| 2010-01-04T00:04 | 4111 | 622 | 5.7 | 2.5 | 261 | 3 |
| 2010-01-04T00:04 | 4165 | 618 | 5.5 | 2.0 | 261 | 2 |
| 2010-01-04T00:04 | 4216 | 614 | 5.2 | 1.7 | 256 | 1 |
| 2010-01-04T00:04 | 4273 | 609 | 4.7 | 1.5 | 247 | 0 |
| 2010-01-04T00:04 | 4323 | 606 | 4.3 | 1.3 | 81 | 0 |
| 2010-01-04T00:05 | 4369 | 602 | 4.2 | 0.9 | 73 | 1 |
| 2010-01-04T00:05 | 4413 | 599 | 4.1 | 0.4 | 68 | 1 |
| 2010-01-04T00:05 | 4455 | 596 | 3.7 | 0.1 | 61 | 1 |
| 2010-01-04T00:05 | 4502 | 593 | 3.3 | -0.1 | 53 | 1 |
| 2010-01-04T00:05 | 4547 | 589 | 2.9 | -0.2 | 44 | 1 |
| 2010-01-04T00:05 | 4590 | 586 | 2.5 | -0.3 | 36 | 1 |
| 2010-01-04T00:06 | 4634 | 583 | 2.1 | -0.4 | 35 | 1 |
| 2010-01-04T00:06 | 4674 | 580 | 1.7 | -0.7 | 39 | 2 |
| 2010-01-04T00:06 | 4716 | 577 | 1.4 | -0.6 | 46 | 2 |
| 2010-01-04T00:06 | 4759 | 574 | 1.0 | -0.5 | 56 | 2 |
| 2010-01-04T00:06 | 4801 | 571 | 0.7 | -0.5 | 67 | 2 |
| 2010-01-04T00:06 | 4848 | 568 | 0.5 | -0.3 | 74 | 2 |
| 2010-01-04T00:07 | 4899 | 564 | 0.3 | -0.4 | 79 | 2 |
| 2010-01-04T00:07 | 4946 | 561 | 0.1 | -0.6 | 82 | 2 |
| 2010-01-04T00:07 | 4995 | 557 | -0.2 | -1.0 | 82 | 3 |
| 2010-01-04T00:07 | 5048 | 554 | -0.5 | -1.3 | 78 | 3 |
| 2010-01-04T00:07 | 5107 | 550 | -0.8 | -1.5 | 73 | 4 |
| 2010-01-04T00:07 | 5157 | 546 | -1.3 | -2.3 | 68 | 4 |
| 2010-01-04T00:08 | 5204 | 543 | -1.3 | -2.3 | 61 | 3 |
| 2010-01-04T00:08 | 5251 | 540 | -1.4 | -2.4 | 52 | 4 |
| 2010-01-04T00:08 | 5304 | 536 | -1.6 | -2.7 | 48 | 5 |
| 2010-01-04T00:08 | 5357 | 533 | -1.9 | -3.0 | 48 | 6 |
| 2010-01-04T00:08 | 5408 | 529 | -2.1 | -3.2 | 50 | 6 |
| 2010-01-04T00:08 | 5463 | 526 | -2.4 | -3.6 | 53 | 7 |
| 2010-01-04T00:09 | 5503 | 523 | -2.6 | -3.8 | 55 | 7 |
| 2010-01-04T00:09 | 5535 | 521 | -2.8 | -4.1 | 55 | 8 |
| 2010-01-04T00:09 | 5566 | 519 | -3.0 | -4.4 | 54 | 8 |
| 2010-01-04T00:09 | 5597 | 517 | -3.2 | -4.5 | 53 | 8 |
| 2010-01-04T00:09 | 5622 | 515 | -3.3 | -5.2 | 53 | 8 |
| 2010-01-04T00:09 | 5648 | 514 | -3.5 | -6.3 | 53 | 8 |
| 2010-01-04T00:10 | 5673 | 512 | -3.7 | -6.1 | 52 | 8 |
| 2010-01-04T00:10 | 5700 | 510 | -3.8 | -6.1 | 52 | 8 |
| 2010-01-04T00:10 | 5728 | 508 | -4.0 | -6.2 | 53 | 8 |
| 2010-01-04T00:10 | 5756 | 507 | -4.2 | -6.3 | 53 | 8 |
| 2010-01-04T00:10 | 5789 | 505 | -4.3 | -6.2 | 54 | 9 |
| 2010-01-04T00:10 | 5817 | 503 | -4.5 | -6.6 | 53 | 9 |
| 2010-01-04T00:11 | 5846 | 501 | -4.6 | -6.5 | 52 | 9 |
| 2010-01-04T00:11 | 5874 | 499 | -4.7 | -6.6 | 52 | 9 |
| 2010-01-04T00:11 | 5903 | 497 | -4.9 | -6.7 | 52 | 9 |
| 2010-01-04T00:11 | 5931 | 496 | -5.1 | -6.8 | 53 | 9 |
| 2010-01-04T00:11 | 5960 | 494 | -5.2 | -7.6 | 53 | 10 |
| 2010-01-04T00:11 | 5988 | 492 | -5.3 | -7.3 | 52 | 10 |
| 2010-01-04T00:12 | 6017 | 490 | -5.5 | -7.3 | 51 | 10 |
| 2010-01-04T00:12 | 6048 | 488 | -5.7 | -7.3 | 52 | 10 |
| 2010-01-04T00:12 | 6075 | 487 | -5.9 | -7.5 | 53 | 10 |
| 2010-01-04T00:12 | 6102 | 485 | -6.0 | -7.6 | 54 | 10 |
| 2010-01-04T00:12 | 6131 | 483 | -6.2 | -7.7 | 57 | 10 |
| 2010-01-04T00:12 | 6159 | 481 | -6.3 | -7.7 | 58 | 10 |
| 2010-01-04T00:13 | 6189 | 480 | -6.5 | -8.1 | 60 | 10 |
| 2010-01-04T00:13 | 6217 | 478 | -6.7 | -8.5 | 62 | 10 |
| 2010-01-04T00:13 | 6245 | 476 | -6.7 | -9.2 | 64 | 10 |
| 2010-01-04T00:13 | 6273 | 474 | -6.8 | -9.5 | 64 | 10 |
| 2010-01-04T00:13 | 6301 | 473 | -7.0 | -10.1 | 64 | 9 |
| 2010-01-04T00:13 | 6327 | 471 | -7.2 | -10.0 | 64 | 9 |
| 2010-01-04T00:14 | 6352 | 470 | -7.3 | -9.7 | 64 | 10 |
| 2010-01-04T00:14 | 6378 | 468 | -7.4 | -9.8 | 62 | 10 |
| 2010-01-04T00:14 | 6404 | 467 | -7.5 | -10.0 | 59 | 10 |
| 2010-01-04T00:14 | 6432 | 465 | -7.4 | -10.1 | 58 | 11 |
| 2010-01-04T00:14 | 6466 | 463 | -7.5 | -10.7 | 59 | 11 |
| 2010-01-04T00:14 | 6504 | 461 | -7.9 | -10.6 | 59 | 11 |
| 2010-01-04T00:15 | 6539 | 458 | -8.2 | -10.7 | 59 | 11 |
| 2010-01-04T00:15 | 6570 | 457 | -8.4 | -10.9 | 61 | 12 |
| 2010-01-04T00:15 | 6602 | 455 | -8.7 | -10.8 | 63 | 12 |
| 2010-01-04T00:15 | 6643 | 452 | -9.0 | -10.8 | 66 | 12 |
| 2010-01-04T00:15 | 6673 | 451 | -9.3 | -11.2 | 68 | 12 |
| 2010-01-04T00:15 | 6703 | 449 | -9.4 | -11.2 | 69 | 12 |
| 2010-01-04T00:16 | 6734 | 447 | -9.6 | -11.4 | 69 | 12 |
| 2010-01-04T00:16 | 6765 | 445 | -9.9 | -11.6 | 69 | 12 |
| 2010-01-04T00:16 | 6793 | 444 | -10.0 | -12.0 | 70 | 13 |
| 2010-01-04T00:16 | 6822 | 442 | -10.2 | -12.1 | 70 | 13 |
| 2010-01-04T00:16 | 6851 | 440 | -10.4 | -12.4 | 71 | 13 |
| 2010-01-04T00:16 | 6887 | 438 | -10.5 | -11.9 | 73 | 13 |
| 2010-01-04T00:17 | 6921 | 436 | -10.7 | -12.2 | 74 | 14 |
| 2010-01-04T00:17 | 6952 | 435 | -10.9 | -12.4 | 74 | 14 |
| 2010-01-04T00:17 | 6983 | 433 | -11.1 | -12.4 | 73 | 14 |
| 2010-01-04T00:17 | 7017 | 431 | -11.3 | -12.5 | 72 | 14 |
| 2010-01-04T00:17 | 7050 | 429 | -11.4 | -13.1 | 71 | 14 |
| 2010-01-04T00:17 | 7081 | 427 | -11.6 | -13.2 | 71 | 14 |
| 2010-01-04T00:18 | 7115 | 425 | -11.8 | -13.3 | 72 | 13 |
| 2010-01-04T00:18 | 7148 | 424 | -12.0 | -13.6 | 74 | 13 |
| 2010-01-04T00:18 | 7179 | 422 | -12.1 | -13.6 | 75 | 12 |
| 2010-01-04T00:18 | 7206 | 420 | -12.3 | -13.8 | 75 | 11 |
| 2010-01-04T00:18 | 7232 | 419 | -12.4 | -14.3 | 75 | 11 |
| 2010-01-04T00:18 | 7259 | 418 | -12.6 | -14.3 | 76 | 10 |
| 2010-01-04T00:19 | 7285 | 416 | -12.6 | -14.4 | 78 | 10 |
| 2010-01-04T00:19 | 7311 | 415 | -12.7 | -14.8 | 81 | 10 |
| 2010-01-04T00:19 | 7338 | 413 | -12.9 | -15.3 | 83 | 9 |
| 2010-01-04T00:19 | 7365 | 412 | -13.0 | -15.7 | 86 | 8 |
| 2010-01-04T00:19 | 7393 | 410 | -12.9 | -17.0 | 90 | 8 |
| 2010-01-04T00:19 | 7423 | 409 | -13.0 | -17.2 | 95 | 7 |
| 2010-01-04T00:20 | 7454 | 407 | -13.1 | -17.4 | 102 | 7 |
| 2010-01-04T00:20 | 7482 | 406 | -13.2 | -17.6 | 108 | 7 |
| 2010-01-04T00:20 | 7520 | 404 | -13.5 | -17.7 | 111 | 8 |
| 2010-01-04T00:20 | 7555 | 402 | -13.7 | -17.8 | 113 | 8 |
| 2010-01-04T00:20 | 7585 | 400 | -13.8 | -18.3 | 116 | 9 |
| 2010-01-04T00:20 | 7613 | 399 | -14.0 | -18.5 | 118 | 9 |
| 2010-01-04T00:21 | 7641 | 397 | -14.2 | -18.7 | 119 | 9 |
| 2010-01-04T00:21 | 7669 | 396 | -14.4 | -18.6 | 120 | 10 |
| 2010-01-04T00:21 | 7697 | 394 | -14.5 | -19.1 | 121 | 10 |
| 2010-01-04T00:21 | 7725 | 393 | -14.8 | -19.1 | 121 | 10 |
| 2010-01-04T00:21 | 7753 | 391 | -15.0 | -19.6 | 121 | 10 |
| 2010-01-04T00:21 | 7784 | 390 | -15.2 | -19.4 | 122 | 10 |
| 2010-01-04T00:22 | 7815 | 388 | -15.4 | -19.4 | 122 | 10 |
| 2010-01-04T00:22 | 7848 | 386 | -15.7 | -19.5 | 123 | 10 |
| 2010-01-04T00:22 | 7881 | 385 | -15.9 | -19.5 | 124 | 10 |
| 2010-01-04T00:22 | 7914 | 383 | -16.2 | -19.8 | 125 | 10 |
| 2010-01-04T00:22 | 7947 | 381 | -16.5 | -20.3 | 124 | 10 |
| 2010-01-04T00:22 | 7982 | 380 | -16.8 | -20.4 | 124 | 10 |
| 2010-01-04T00:23 | 8018 | 378 | -17.0 | -20.7 | 123 | 10 |
| 2010-01-04T00:23 | 8055 | 376 | -17.3 | -20.9 | 122 | 10 |
| 2010-01-04T00:23 | 8095 | 374 | -17.7 | -21.4 | 123 | 10 |
| 2010-01-04T00:23 | 8131 | 372 | -18.0 | -21.3 | 125 | 10 |
| 2010-01-04T00:23 | 8166 | 370 | -18.3 | -21.7 | 127 | 10 |
| 2010-01-04T00:23 | 8207 | 368 | -18.6 | -21.2 | 127 | 10 |
| 2010-01-04T00:24 | 8252 | 366 | -19.0 | -21.5 | 128 | 10 |
| 2010-01-04T00:24 | 8287 | 364 | -19.3 | -21.3 | 130 | 10 |
| 2010-01-04T00:24 | 8321 | 363 | -19.5 | -21.2 | 129 | 9 |
| 2010-01-04T00:24 | 8357 | 361 | -19.8 | -21.4 | 129 | 9 |
| 2010-01-04T00:24 | 8396 | 359 | -20.2 | -21.6 | 130 | 10 |
| 2010-01-04T00:24 | 8438 | 357 | -20.6 | -22.0 | 130 | 10 |
| 2010-01-04T00:25 | 8474 | 355 | -20.6 | -22.5 | 127 | 11 |
| 2010-01-04T00:25 | 8513 | 354 | -20.9 | -23.1 | 123 | 11 |
| 2010-01-04T00:25 | 8551 | 352 | -21.0 | -23.6 | 118 | 11 |
| 2010-01-04T00:25 | 8580 | 350 | -21.0 | -24.4 | 115 | 11 |
| 2010-01-04T00:25 | 8610 | 349 | -21.2 | -25.7 | 116 | 11 |
| 2010-01-04T00:25 | 8640 | 347 | -21.4 | -27.5 | 117 | 11 |
| 2010-01-04T00:26 | 8671 | 346 | -21.6 | -27.2 | 118 | 11 |
| 2010-01-04T00:26 | 8702 | 345 | -21.8 | -27.1 | 119 | 11 |
| 2010-01-04T00:26 | 8734 | 343 | -22.0 | -27.3 | 121 | 11 |
| 2010-01-04T00:26 | 8767 | 342 | -22.2 | -27.4 | 124 | 10 |
| 2010-01-04T00:26 | 8800 | 340 | -22.4 | -27.6 | 127 | 10 |
| 2010-01-04T00:26 | 8833 | 338 | -22.5 | -28.9 | 129 | 9 |
| 2010-01-04T00:27 | 8863 | 337 | -22.5 | -28.1 | 130 | 10 |
| 2010-01-04T00:27 | 8895 | 336 | -22.6 | -27.8 | 131 | 10 |
| 2010-01-04T00:27 | 8926 | 334 | -22.8 | -28.3 | 131 | 10 |
| 2010-01-04T00:27 | 8956 | 333 | -23.1 | -29.4 | 132 | 10 |
| 2010-01-04T00:27 | 8989 | 331 | -23.5 | -30.0 | 133 | 10 |
| 2010-01-04T00:27 | 9021 | 330 | -23.7 | -30.0 | 134 | 11 |
| 2010-01-04T00:28 | 9053 | 328 | -23.9 | -30.9 | 134 | 11 |
| 2010-01-04T00:28 | 9085 | 327 | -24.1 | -30.8 | 134 | 11 |
| 2010-01-04T00:28 | 9116 | 326 | -24.4 | -31.7 | 133 | 11 |
| 2010-01-04T00:28 | 9146 | 324 | -24.6 | -32.0 | 133 | 12 |
| 2010-01-04T00:28 | 9177 | 323 | -25.0 | -33.8 | 133 | 12 |
| 2010-01-04T00:28 | 9208 | 322 | -25.0 | -31.9 | 133 | 12 |
| 2010-01-04T00:29 | 9237 | 320 | -25.2 | -31.5 | 134 | 12 |
| 2010-01-04T00:29 | 9267 | 319 | -25.3 | -31.2 | 135 | 13 |
| 2010-01-04T00:29 | 9297 | 318 | -25.5 | -31.0 | 136 | 13 |
| 2010-01-04T00:29 | 9327 | 316 | -25.7 | -31.0 | 138 | 13 |
| 2010-01-04T00:29 | 9356 | 315 | -25.9 | -31.1 | 138 | 13 |
| 2010-01-04T00:29 | 9386 | 314 | -26.1 | -31.3 | 139 | 13 |
| 2010-01-04T00:30 | 9417 | 312 | -26.4 | -31.4 | 139 | 13 |
| 2010-01-04T00:30 | 9447 | 311 | -26.6 | -31.9 | 140 | 13 |
| 2010-01-04T00:30 | 9477 | 310 | -26.9 | -31.8 | 141 | 13 |
| 2010-01-04T00:30 | 9506 | 309 | -27.1 | -32.0 | 141 | 13 |
| 2010-01-04T00:30 | 9536 | 307 | -27.3 | -32.4 | 141 | 14 |
| 2010-01-04T00:30 | 9562 | 306 | -27.5 | -32.6 | 141 | 14 |
| 2010-01-04T00:31 | 9587 | 305 | -27.7 | -32.7 | 142 | 14 |
| 2010-01-04T00:31 | 9615 | 304 | -27.9 | -32.8 | 143 | 14 |
| 2010-01-04T00:31 | 9641 | 303 | -28.1 | -32.4 | 144 | 14 |
| 2010-01-04T00:31 | 9667 | 302 | -28.2 | -32.4 | 145 | 14 |
| 2010-01-04T00:31 | 9692 | 301 | -28.5 | -32.3 | 146 | 14 |
| 2010-01-04T00:31 | 9717 | 300 | -28.7 | -32.5 | 147 | 14 |
| 2010-01-04T00:32 | 9740 | 299 | -28.9 | -32.5 | 148 | 14 |
| 2010-01-04T00:32 | 9765 | 298 | -29.1 | -32.5 | 150 | 14 |
| 2010-01-04T00:32 | 9788 | 297 | -29.1 | -33.7 | 151 | 14 |
| 2010-01-04T00:32 | 9811 | 296 | -29.3 | -33.8 | 151 | 14 |
| 2010-01-04T00:32 | 9833 | 295 | -29.4 | -33.9 | 152 | 14 |
| 2010-01-04T00:32 | 9856 | 294 | -29.6 | -33.8 | 152 | 14 |
| 2010-01-04T00:33 | 9879 | 293 | -29.8 | -33.7 | 153 | 14 |
| 2010-01-04T00:33 | 9902 | 292 | -30.0 | -33.8 | 153 | 14 |
| 2010-01-04T00:33 | 9926 | 291 | -30.2 | -34.5 | 154 | 14 |
| 2010-01-04T00:33 | 9949 | 290 | -30.3 | -34.7 | 155 | 14 |
| 2010-01-04T00:33 | 9974 | 289 | -30.5 | -35.4 | 156 | 14 |
| 2010-01-04T00:33 | 9997 | 288 | -30.7 | -35.9 | 157 | 14 |
| 2010-01-04T00:34 | 10020 | 287 | -30.9 | -36.0 | 158 | 14 |
| 2010-01-04T00:34 | 10044 | 286 | -31.0 | -36.0 | 158 | 14 |
| 2010-01-04T00:34 | 10068 | 285 | -31.2 | -36.4 | 158 | 14 |
| 2010-01-04T00:34 | 10092 | 284 | -31.4 | -37.0 | 158 | 14 |
| 2010-01-04T00:34 | 10115 | 283 | -31.6 | -37.0 | 158 | 14 |
| 2010-01-04T00:34 | 10139 | 282 | -31.8 | -36.9 | 157 | 14 |
| 2010-01-04T00:35 | 10163 | 281 | -32.0 | -37.2 | 157 | 14 |
| 2010-01-04T00:35 | 10188 | 280 | -32.2 | -37.7 | 157 | 14 |
| 2010-01-04T00:35 | 10212 | 279 | -32.4 | -38.1 | 156 | 14 |
| 2010-01-04T00:35 | 10235 | 279 | -32.6 | -38.4 | 154 | 14 |
| 2010-01-04T00:35 | 10259 | 278 | -32.8 | -38.8 | 153 | 14 |
| 2010-01-04T00:35 | 10284 | 277 | -32.9 | -39.7 | 152 | 14 |
| 2010-01-04T00:36 | 10308 | 276 | -33.1 | -40.2 | 151 | 15 |
| 2010-01-04T00:36 | 10336 | 275 | -33.4 | -40.5 | 150 | 15 |
| 2010-01-04T00:36 | 10368 | 273 | -33.7 | -41.5 | 149 | 15 |
| 2010-01-04T00:36 | 10396 | 272 | -34.0 | -41.9 | 148 | 15 |
| 2010-01-04T00:36 | 10421 | 271 | -34.2 | -42.2 | 148 | 14 |
| 2010-01-04T00:36 | 10447 | 270 | -34.3 | -42.4 | 148 | 14 |
| 2010-01-04T00:37 | 10473 | 269 | -34.6 | -42.2 | 148 | 14 |
| 2010-01-04T00:37 | 10500 | 268 | -34.9 | -42.2 | 148 | 14 |
| 2010-01-04T00:37 | 10526 | 267 | -35.2 | -42.3 | 148 | 14 |
| 2010-01-04T00:37 | 10553 | 266 | -35.3 | -42.3 | 149 | 14 |
| 2010-01-04T00:37 | 10579 | 265 | -35.6 | -42.6 | 149 | 14 |
| 2010-01-04T00:37 | 10607 | 264 | -35.9 | -42.7 | 149 | 15 |
| 2010-01-04T00:38 | 10636 | 263 | -36.1 | -43.0 | 148 | 15 |
| 2010-01-04T00:38 | 10663 | 262 | -36.4 | -43.1 | 148 | 15 |
| 2010-01-04T00:38 | 10689 | 261 | -36.5 | -43.4 | 147 | 15 |
| 2010-01-04T00:38 | 10716 | 260 | -36.8 | -43.9 | 147 | 15 |
| 2010-01-04T00:38 | 10744 | 259 | -37.0 | -44.2 | 146 | 15 |
| 2010-01-04T00:38 | 10773 | 258 | -37.3 | -44.1 | 146 | 15 |
| 2010-01-04T00:39 | 10801 | 257 | -37.5 | -44.3 | 146 | 15 |
| 2010-01-04T00:39 | 10829 | 256 | -37.8 | -45.1 | 145 | 15 |
| 2010-01-04T00:39 | 10856 | 255 | -38.1 | -45.0 | 145 | 15 |
| 2010-01-04T00:39 | 10883 | 254 | -38.3 | -45.1 | 146 | 15 |
| 2010-01-04T00:39 | 10910 | 253 | -38.5 | -45.1 | 146 | 15 |
| 2010-01-04T00:39 | 10935 | 252 | -38.8 | -45.0 | 146 | 15 |
| 2010-01-04T00:40 | 10959 | 251 | -39.0 | -45.3 | 146 | 15 |
| 2010-01-04T00:40 | 10982 | 250 | -39.2 | -45.6 | 146 | 14 |
| 2010-01-04T00:40 | 11006 | 249 | -39.4 | -46.5 | 146 | 14 |
| 2010-01-04T00:40 | 11032 | 248 | -39.5 | -46.9 | 147 | 15 |
| 2010-01-04T00:40 | 11057 | 247 | -39.7 | -47.2 | 147 | 15 |
| 2010-01-04T00:40 | 11081 | 247 | -39.8 | -48.1 | 147 | 15 |
| 2010-01-04T00:41 | 11105 | 246 | -40.1 | -48.3 | 147 | 15 |
| 2010-01-04T00:41 | 11130 | 245 | -40.3 | -48.0 | 148 | 15 |
| 2010-01-04T00:41 | 11156 | 244 | -40.4 | -46.7 | 149 | 15 |
| 2010-01-04T00:41 | 11182 | 243 | -40.5 | -47.3 | 150 | 15 |
| 2010-01-04T00:41 | 11208 | 242 | -40.8 | -47.5 | 150 | 15 |
| 2010-01-04T00:41 | 11235 | 241 | -41.1 | -47.8 | 150 | 15 |
| 2010-01-04T00:42 | 11263 | 240 | -41.3 | -47.8 | 150 | 15 |
| 2010-01-04T00:42 | 11291 | 239 | -41.6 | -48.1 | 150 | 15 |
| 2010-01-04T00:42 | 11319 | 238 | -41.8 | -48.4 | 149 | 15 |
| 2010-01-04T00:42 | 11349 | 237 | -42.0 | -48.2 | 149 | 15 |
| 2010-01-04T00:42 | 11378 | 236 | -42.2 | -48.4 | 148 | 15 |
| 2010-01-04T00:42 | 11405 | 235 | -42.5 | -49.6 | 148 | 15 |
| 2010-01-04T00:43 | 11433 | 234 | -42.7 | -50.0 | 148 | 15 |
| 2010-01-04T00:43 | 11459 | 233 | -42.9 | -50.3 | 148 | 16 |
| 2010-01-04T00:43 | 11486 | 232 | -43.1 | -50.6 | 147 | 16 |
| 2010-01-04T00:43 | 11515 | 231 | -43.4 | -50.8 | 146 | 16 |
| 2010-01-04T00:43 | 11543 | 230 | -43.8 | -51.3 | 145 | 16 |
| 2010-01-04T00:43 | 11571 | 229 | -44.0 | -51.5 | 144 | 16 |
| 2010-01-04T00:44 | 11600 | 228 | -44.2 | -52.1 | 143 | 16 |
| 2010-01-04T00:44 | 11631 | 227 | -44.5 | -52.3 | 143 | 17 |
| 2010-01-04T00:44 | 11659 | 226 | -44.8 | -52.5 | 142 | 17 |
| 2010-01-04T00:44 | 11688 | 225 | -45.0 | -52.6 | 141 | 17 |
| 2010-01-04T00:44 | 11715 | 224 | -45.2 | -52.8 | 140 | 17 |
| 2010-01-04T00:44 | 11742 | 224 | -45.4 | -52.8 | 139 | 17 |
| 2010-01-04T00:45 | 11769 | 223 | -45.7 | -53.6 | 139 | 17 |
| 2010-01-04T00:45 | 11796 | 222 | -45.9 | -54.2 | 139 | 17 |
| 2010-01-04T00:45 | 11822 | 221 | -46.2 | -54.5 | 139 | 17 |
| 2010-01-04T00:45 | 11850 | 220 | -46.4 | -54.7 | 140 | 17 |
| 2010-01-04T00:45 | 11879 | 219 | -46.6 | -54.7 | 141 | 17 |
| 2010-01-04T00:45 | 11906 | 218 | -46.7 | -54.8 | 141 | 17 |
| 2010-01-04T00:46 | 11933 | 217 | -47.1 | -55.4 | 142 | 17 |
| 2010-01-04T00:46 | 11961 | 216 | -47.3 | -55.5 | 142 | 17 |
| 2010-01-04T00:46 | 11991 | 215 | -47.6 | -55.6 | 143 | 17 |
| 2010-01-04T00:46 | 12019 | 214 | -47.8 | -55.4 | 143 | 17 |
| 2010-01-04T00:46 | 12045 | 214 | -48.0 | -55.7 | 143 | 17 |
| 2010-01-04T00:46 | 12072 | 213 | -48.4 | -56.0 | 143 | 17 |
| 2010-01-04T00:47 | 12100 | 212 | -48.6 | -56.1 | 142 | 17 |
| 2010-01-04T00:47 | 12131 | 211 | -48.9 | -56.5 | 142 | 17 |
| 2010-01-04T00:47 | 12161 | 210 | -49.1 | -56.6 | 142 | 17 |
| 2010-01-04T00:47 | 12192 | 209 | -49.5 | -57.2 | 142 | 17 |
| 2010-01-04T00:47 | 12220 | 208 | -49.7 | -57.4 | 141 | 17 |
| 2010-01-04T00:47 | 12250 | 207 | -49.9 | -57.7 | 141 | 17 |
| 2010-01-04T00:48 | 12280 | 206 | -50.2 | -57.9 | 140 | 17 |
| 2010-01-04T00:48 | 12307 | 205 | -50.5 | -58.3 | 140 | 17 |
| 2010-01-04T00:48 | 12333 | 204 | -50.8 | -58.8 | 139 | 17 |
| 2010-01-04T00:48 | 12359 | 204 | -51.0 | -59.1 | 139 | 17 |
| 2010-01-04T00:48 | 12386 | 203 | -51.3 | -58.9 | 138 | 17 |
| 2010-01-04T00:48 | 12413 | 202 | -51.5 | -59.0 | 138 | 17 |
| 2010-01-04T00:49 | 12440 | 201 | -51.8 | -59.6 | 138 | 17 |
| 2010-01-04T00:49 | 12469 | 200 | -51.9 | -59.9 | 137 | 17 |
| 2010-01-04T00:49 | 12499 | 199 | -52.3 | -60.5 | 137 | 17 |
| 2010-01-04T00:49 | 12529 | 198 | -52.6 | -60.6 | 137 | 17 |
| 2010-01-04T00:49 | 12559 | 197 | -52.9 | -60.7 | 137 | 17 |
| 2010-01-04T00:49 | 12590 | 196 | -53.2 | -60.9 | 137 | 17 |
| 2010-01-04T00:50 | 12619 | 196 | -53.5 | -61.1 | 137 | 17 |
| 2010-01-04T00:50 | 12648 | 195 | -53.7 | -61.4 | 138 | 17 |
| 2010-01-04T00:50 | 12677 | 194 | -54.1 | -61.8 | 138 | 17 |
| 2010-01-04T00:50 | 12706 | 193 | -54.3 | -62.2 | 138 | 17 |
| 2010-01-04T00:50 | 12736 | 192 | -54.5 | -62.3 | 137 | 17 |
| 2010-01-04T00:50 | 12765 | 191 | -54.9 | -62.6 | 137 | 17 |
| 2010-01-04T00:51 | 12796 | 190 | -55.1 | -62.7 | 137 | 17 |
| 2010-01-04T00:51 | 12824 | 189 | -55.5 | -63.0 | 136 | 17 |
| 2010-01-04T00:51 | 12852 | 189 | -55.7 | -63.3 | 135 | 17 |
| 2010-01-04T00:51 | 12881 | 188 | -55.9 | -64.2 | 135 | 18 |
| 2010-01-04T00:51 | 12909 | 187 | -56.2 | -65.2 | 135 | 18 |
| 2010-01-04T00:51 | 12937 | 186 | -56.5 | -65.9 | 135 | 18 |
| 2010-01-04T00:52 | 12965 | 185 | -56.8 | -66.4 | 135 | 18 |
| 2010-01-04T00:52 | 12992 | 184 | -57.0 | -66.6 | 135 | 18 |
| 2010-01-04T00:52 | 13021 | 184 | -57.3 | -66.8 | 134 | 18 |
| 2010-01-04T00:52 | 13048 | 183 | -57.6 | -67.2 | 134 | 18 |
| 2010-01-04T00:52 | 13075 | 182 | -57.8 | -67.5 | 134 | 18 |
| 2010-01-04T00:52 | 13102 | 181 | -58.0 | -67.8 | 134 | 18 |
| 2010-01-04T00:53 | 13129 | 180 | -58.2 | -67.9 | 134 | 18 |
| 2010-01-04T00:53 | 13156 | 180 | -58.5 | -68.1 | 134 | 18 |
| 2010-01-04T00:53 | 13182 | 179 | -58.7 | -68.5 | 134 | 18 |
| 2010-01-04T00:53 | 13212 | 178 | -59.0 | -68.9 | 133 | 18 |
| 2010-01-04T00:53 | 13241 | 177 | -59.3 | -69.8 | 134 | 18 |
| 2010-01-04T00:53 | 13269 | 177 | -59.6 | -70.5 | 135 | 19 |
| 2010-01-04T00:54 | 13299 | 176 | -59.7 | -71.8 | 136 | 19 |
| 2010-01-04T00:54 | 13328 | 175 | -59.9 | -73.5 | 137 | 19 |
| 2010-01-04T00:54 | 13354 | 174 | -60.1 | -74.8 | 138 | 19 |
| 2010-01-04T00:54 | 13381 | 173 | -60.3 | -75.9 | 139 | 19 |
| 2010-01-04T00:54 | 13409 | 173 | -60.5 | -76.7 | 141 | 20 |
| 2010-01-04T00:54 | 13436 | 172 | -60.5 | -77.4 | 142 | 20 |
| 2010-01-04T00:55 | 13463 | 171 | -60.8 | -78.3 | 144 | 20 |
| 2010-01-04T00:55 | 13488 | 170 | -60.9 | -79.0 | 145 | 20 |
| 2010-01-04T00:55 | 13514 | 170 | -61.2 | -79.7 | 144 | 20 |
| 2010-01-04T00:55 | 13540 | 169 | -61.0 | -80.1 | 141 | 20 |
| 2010-01-04T00:55 | 13566 | 168 | -61.0 | -80.5 | 139 | 20 |
| 2010-01-04T00:55 | 13595 | 167 | -61.2 | -81.3 | 137 | 20 |
| 2010-01-04T00:56 | 13632 | 167 | -61.4 | -81.8 | 135 | 20 |
| 2010-01-04T00:56 | 13663 | 166 | -61.7 | -82.3 | 133 | 19 |
| 2010-01-04T00:56 | 13694 | 165 | -61.9 | -82.8 | 131 | 19 |
| 2010-01-04T00:56 | 13731 | 164 | -62.3 | -83.2 | 129 | 19 |
| 2010-01-04T00:56 | 13774 | 163 | -62.5 | -83.4 | 126 | 19 |
| 2010-01-04T00:56 | 13810 | 162 | -62.8 | -83.5 | 123 | 19 |
| 2010-01-04T00:57 | 13841 | 161 | -62.8 | -83.4 | 121 | 18 |
| 2010-01-04T00:57 | 13869 | 160 | -63.0 | -83.5 | 119 | 18 |
| 2010-01-04T00:57 | 13899 | 159 | -63.4 | -83.8 | 118 | 18 |
| 2010-01-04T00:57 | 13929 | 159 | -63.6 | -83.8 | 116 | 18 |
| 2010-01-04T00:57 | 13957 | 158 | -63.6 | -83.8 | 115 | 18 |
| 2010-01-04T00:57 | 13987 | 157 | -64.0 | -84.0 | 114 | 18 |
| 2010-01-04T00:58 | 14019 | 156 | -64.1 | -84.0 | 113 | 19 |
| 2010-01-04T00:58 | 14049 | 156 | -64.5 | -84.3 | 112 | 19 |
| 2010-01-04T00:58 | 14078 | 155 | -64.7 | -84.4 | 111 | 19 |
| 2010-01-04T00:58 | 14107 | 154 | -65.1 | -84.6 | 110 | 19 |
| 2010-01-04T00:58 | 14141 | 153 | -65.4 | -84.7 | 110 | 19 |
| 2010-01-04T00:58 | 14173 | 152 | -65.7 | -84.8 | 109 | 19 |
| 2010-01-04T00:59 | 14204 | 152 | -66.0 | -84.9 | 108 | 19 |
| 2010-01-04T00:59 | 14237 | 151 | -66.3 | -84.9 | 107 | 20 |
| 2010-01-04T00:59 | 14267 | 150 | -66.5 | -84.9 | 106 | 20 |
| 2010-01-04T00:59 | 14300 | 149 | -66.8 | -84.8 | 105 | 20 |
| 2010-01-04T00:59 | 14334 | 148 | -67.1 | -84.8 | 105 | 20 |
| 2010-01-04T00:59 | 14366 | 148 | -67.3 | -84.8 | 105 | 20 |
| 2010-01-04T01:00 | 14399 | 147 | -67.7 | -85.0 | 104 | 20 |
| 2010-01-04T01:00 | 14432 | 146 | -68.0 | -85.0 | 104 | 20 |
| 2010-01-04T01:00 | 14463 | 145 | -68.2 | -84.8 | 103 | 20 |
| 2010-01-04T01:00 | 14495 | 145 | -68.6 | -85.0 | 103 | 20 |
| 2010-01-04T01:00 | 14528 | 144 | -68.9 | -85.1 | 102 | 20 |
| 2010-01-04T01:00 | 14563 | 143 | -69.2 | -85.1 | 101 | 20 |
| 2010-01-04T01:01 | 14595 | 142 | -69.4 | -85.1 | 101 | 20 |
| 2010-01-04T01:01 | 14629 | 141 | -69.7 | -85.3 | 100 | 20 |
| 2010-01-04T01:01 | 14663 | 141 | -70.0 | -85.4 | 100 | 20 |
| 2010-01-04T01:01 | 14698 | 140 | -70.4 | -85.6 | 99 | 20 |
| 2010-01-04T01:01 | 14734 | 139 | -70.7 | -85.8 | 99 | 20 |
| 2010-01-04T01:01 | 14769 | 138 | -71.1 | -86.0 | 99 | 20 |
| 2010-01-04T01:02 | 14804 | 137 | -71.4 | -86.1 | 98 | 21 |
| 2010-01-04T01:02 | 14837 | 136 | -71.6 | -86.0 | 98 | 21 |
| 2010-01-04T01:02 | 14867 | 136 | -71.9 | -86.1 | 98 | 21 |
| 2010-01-04T01:02 | 14898 | 135 | -72.3 | -86.2 | 97 | 22 |
| 2010-01-04T01:02 | 14931 | 134 | -72.4 | -86.1 | 97 | 22 |
| 2010-01-04T01:02 | 14964 | 134 | -72.8 | -86.1 | 96 | 23 |
| 2010-01-04T01:03 | 14995 | 133 | -73.1 | -86.1 | 96 | 23 |
| 2010-01-04T01:03 | 15027 | 132 | -73.3 | -86.2 | 96 | 23 |
| 2010-01-04T01:03 | 15057 | 131 | -73.7 | -86.2 | 96 | 23 |
| 2010-01-04T01:03 | 15089 | 131 | -74.0 | -86.3 | 95 | 24 |
| 2010-01-04T01:03 | 15122 | 130 | -74.2 | -86.3 | 94 | 25 |
| 2010-01-04T01:03 | 15154 | 129 | -74.6 | -86.3 | 94 | 25 |
| 2010-01-04T01:04 | 15188 | 129 | -74.8 | -86.3 | 94 | 25 |
| 2010-01-04T01:04 | 15222 | 128 | -75.2 | -86.5 | 95 | 25 |
| 2010-01-04T01:04 | 15254 | 127 | -75.4 | -86.5 | 96 | 26 |
| 2010-01-04T01:04 | 15286 | 126 | -75.6 | -86.4 | 97 | 26 |
| 2010-01-04T01:04 | 15316 | 126 | -75.9 | -86.5 | 97 | 26 |
| 2010-01-04T01:04 | 15345 | 125 | -76.1 | -86.6 | 97 | 26 |
| 2010-01-04T01:05 | 15374 | 124 | -76.2 | -86.6 | 97 | 26 |
| 2010-01-04T01:05 | 15405 | 124 | -76.5 | -86.8 | 96 | 27 |
| 2010-01-04T01:05 | 15436 | 123 | -76.7 | -86.9 | 95 | 27 |
| 2010-01-04T01:05 | 15469 | 122 | -77.1 | -87.2 | 94 | 27 |
| 2010-01-04T01:05 | 15503 | 122 | -77.4 | -87.4 | 93 | 27 |
| 2010-01-04T01:05 | 15537 | 121 | -77.6 | -87.5 | 92 | 27 |
| 2010-01-04T01:06 | 15568 | 120 | -77.8 | -87.7 | 92 | 27 |
| 2010-01-04T01:06 | 15600 | 120 | -78.3 | -88.1 | 92 | 27 |
| 2010-01-04T01:06 | 15632 | 119 | -78.6 | -88.4 | 92 | 27 |
| 2010-01-04T01:06 | 15664 | 118 | -78.7 | -88.4 | 91 | 27 |
| 2010-01-04T01:06 | 15697 | 118 | -79.2 | -88.9 | 91 | 27 |
| 2010-01-04T01:06 | 15732 | 117 | -79.5 | -89.2 | 91 | 27 |
| 2010-01-04T01:07 | 15766 | 116 | -79.7 | -89.4 | 91 | 27 |
| 2010-01-04T01:07 | 15799 | 116 | -80.0 | -89.6 | 91 | 26 |
| 2010-01-04T01:07 | 15831 | 115 | -80.4 | -90.0 | 91 | 26 |
| 2010-01-04T01:07 | 15863 | 114 | -80.7 | -90.2 | 91 | 26 |
| 2010-01-04T01:07 | 15896 | 114 | -81.0 | -90.5 | 91 | 26 |
| 2010-01-04T01:07 | 15930 | 113 | -81.4 | -90.8 | 90 | 26 |
| 2010-01-04T01:08 | 15963 | 112 | -81.7 | -91.1 | 90 | 26 |
| 2010-01-04T01:08 | 15998 | 111 | -82.0 | -91.4 | 89 | 26 |
| 2010-01-04T01:08 | 16032 | 111 | -82.3 | -91.6 | 89 | 27 |
| 2010-01-04T01:08 | 16065 | 110 | -82.4 | -91.7 | 89 | 27 |
| 2010-01-04T01:08 | 16098 | 110 | -82.8 | -92.1 | 90 | 27 |
| 2010-01-04T01:08 | 16132 | 109 | -82.9 | -92.1 | 91 | 27 |
| 2010-01-04T01:09 | 16165 | 108 | -83.0 | -92.2 | 92 | 27 |
| 2010-01-04T01:09 | 16198 | 108 | -83.3 | -92.4 | 93 | 27 |
| 2010-01-04T01:09 | 16230 | 107 | -83.6 | -92.6 | 94 | 28 |
| 2010-01-04T01:09 | 16262 | 106 | -83.6 | -92.6 | 95 | 28 |
| 2010-01-04T01:09 | 16294 | 106 | -83.9 | -92.9 | 95 | 28 |
| 2010-01-04T01:09 | 16327 | 105 | -84.0 | -92.9 | 95 | 28 |
| 2010-01-04T01:10 | 16359 | 104 | -84.3 | -93.2 | 95 | 28 |
| 2010-01-04T01:10 | 16391 | 104 | -84.6 | -93.5 | 94 | 28 |
| 2010-01-04T01:10 | 16423 | 103 | -84.7 | -93.7 | 93 | 28 |
| 2010-01-04T01:10 | 16457 | 103 | -84.7 | -93.7 | 92 | 28 |
| 2010-01-04T01:10 | 16491 | 102 | -84.7 | -93.6 | 92 | 28 |
| 2010-01-04T01:10 | 16526 | 101 | -85.0 | -93.9 | 92 | 29 |
| 2010-01-04T01:11 | 16560 | 101 | -84.7 | -93.6 | 94 | 29 |
| 2010-01-04T01:11 | 16595 | 100 | -84.5 | -93.4 | 96 | 29 |
| 2010-01-04T01:11 | 16630 | 99 | -84.4 | -93.3 | 98 | 29 |
| 2010-01-04T01:11 | 16665 | 99 | -84.5 | -93.4 | 99 | 28 |
| 2010-01-04T01:11 | 16700 | 98 | -84.7 | -93.6 | 100 | 28 |
| 2010-01-04T01:11 | 16735 | 98 | -85.0 | -93.9 | 101 | 27 |
| 2010-01-04T01:12 | 16770 | 97 | -85.2 | -94.0 | 102 | 27 |
| 2010-01-04T01:12 | 16805 | 96 | -85.3 | -94.2 | 104 | 27 |
| 2010-01-04T01:12 | 16839 | 96 | -85.8 | -94.6 | 105 | 27 |
| 2010-01-04T01:12 | 16874 | 95 | -86.1 | -94.9 | 106 | 26 |
| 2010-01-04T01:12 | 16907 | 95 | -85.9 | -94.7 | 107 | 25 |
| 2010-01-04T01:12 | 16941 | 94 | -85.6 | -94.4 | 108 | 24 |
| 2010-01-04T01:13 | 16974 | 93 | -85.0 | -93.9 | 107 | 23 |
| 2010-01-04T01:13 | 17006 | 93 | -84.9 | -93.8 | 107 | 22 |
| 2010-01-04T01:13 | 17037 | 92 | -84.8 | -93.8 | 106 | 20 |
| 2010-01-04T01:13 | 17068 | 92 | -84.1 | -93.3 | 106 | 18 |
| 2010-01-04T01:13 | 17098 | 91 | -83.7 | -92.9 | 106 | 17 |
| 2010-01-04T01:13 | 17128 | 91 | -83.4 | -92.7 | 107 | 15 |
| 2010-01-04T01:14 | 17158 | 90 | -83.1 | -92.5 | 107 | 14 |
| 2010-01-04T01:14 | 17188 | 90 | -83.3 | -92.7 | 107 | 13 |
| 2010-01-04T01:14 | 17218 | 89 | -83.4 | -92.8 | 107 | 12 |
| 2010-01-04T01:14 | 17250 | 89 | -83.3 | -92.8 | 106 | 11 |
| 2010-01-04T01:14 | 17281 | 88 | -83.4 | -92.9 | 106 | 11 |
| 2010-01-04T01:14 | 17313 | 88 | -82.6 | -92.3 | 107 | 11 |
| 2010-01-04T01:15 | 17344 | 87 | -82.8 | -92.5 | 108 | 10 |
| 2010-01-04T01:15 | 17377 | 87 | -83.1 | -92.8 | 108 | 8 |
| 2010-01-04T01:15 | 17415 | 86 | -80.6 | -90.9 | 109 | 6 |
| 2010-01-04T01:15 | 17464 | 86 | -78.9 | -89.4 | 118 | 2 |
| 2010-01-04T01:15 | 17504 | 85 | -78.7 | -89.3 | 193 | 1 |
| 2010-01-04T01:15 | 17550 | 84 | -78.2 | -88.9 | 238 | 3 |
| 2010-01-04T01:16 | 17604 | 83 | -78.3 | -89.2 | 248 | 6 |
| 2010-01-04T01:16 | 17659 | 83 | -78.5 | -89.5 | 254 | 8 |
| 2010-01-04T01:16 | 17690 | 82 | -76.3 | -87.9 | 259 | 10 |
| 2010-01-04T01:16 | 17723 | 82 | -76.2 | -87.8 | 262 | 12 |
| 2010-01-04T01:16 | 17755 | 81 | -76.3 | -88.0 | 264 | 13 |
| 2010-01-04T01:16 | 17783 | 81 | -76.2 | -88.1 | 266 | 14 |
| 2010-01-04T01:17 | 17813 | 81 | -76.2 | -88.2 | 268 | 14 |
| 2010-01-04T01:17 | 17843 | 80 | -76.2 | -88.4 | 269 | 15 |
| 2010-01-04T01:17 | 17872 | 80 | -75.6 | -88.2 | 269 | 16 |
| 2010-01-04T01:17 | 17902 | 79 | -75.1 | -88.0 | 269 | 16 |
| 2010-01-04T01:17 | 17933 | 79 | -75.1 | -88.2 | 269 | 16 |
| 2010-01-04T01:17 | 17964 | 78 | -75.2 | -88.4 | 269 | 17 |
| 2010-01-04T01:18 | 17997 | 78 | -75.4 | -88.8 | 269 | 17 |
| 2010-01-04T01:18 | 18032 | 78 | -75.5 | -89.1 | 269 | 17 |
| 2010-01-04T01:18 | 18069 | 77 | -75.7 | -89.5 | 270 | 17 |
| 2010-01-04T01:18 | 18105 | 77 | -75.9 | -89.8 | 271 | 17 |
| 2010-01-04T01:18 | 18141 | 76 | -76.1 | -90.1 | 271 | 17 |
| 2010-01-04T01:18 | 18176 | 76 | -76.1 | -90.3 | 271 | 16 |
| 2010-01-04T01:19 | 18208 | 75 | -76.5 | -90.7 | 272 | 16 |
| 2010-01-04T01:19 | 18241 | 75 | -76.5 | -90.9 | 272 | 16 |
| 2010-01-04T01:19 | 18273 | 74 | -76.9 | -91.3 | 273 | 15 |
| 2010-01-04T01:19 | 18306 | 74 | -76.5 | -91.1 | 273 | 15 |
| 2010-01-04T01:19 | 18339 | 73 | -76.9 | -91.5 | 272 | 15 |
| 2010-01-04T01:19 | 18371 | 73 | -76.8 | -91.4 | 270 | 15 |
| 2010-01-04T01:20 | 18405 | 73 | -76.6 | -91.3 | 267 | 15 |
| 2010-01-04T01:20 | 18438 | 72 | -76.2 | -91.1 | 263 | 14 |
| 2010-01-04T01:20 | 18472 | 72 | -76.0 | -91.1 | 260 | 14 |
| 2010-01-04T01:20 | 18506 | 71 | -75.9 | -91.1 | 259 | 13 |
| 2010-01-04T01:20 | 18541 | 71 | -75.6 | -90.9 | 259 | 12 |
| 2010-01-04T01:20 | 18576 | 71 | -75.4 | -90.8 | 259 | 12 |
| 2010-01-04T01:21 | 18611 | 70 | -75.1 | -90.6 | 260 | 13 |
| 2010-01-04T01:21 | 18646 | 70 | -75.1 | -90.6 | 260 | 12 |
| 2010-01-04T01:21 | 18683 | 69 | -75.3 | -90.8 | 259 | 12 |
| 2010-01-04T01:21 | 18719 | 69 | -75.1 | -90.8 | 258 | 11 |
| 2010-01-04T01:21 | 18754 | 68 | -75.2 | -91.0 | 258 | 11 |
| 2010-01-04T01:21 | 18790 | 68 | -74.7 | -90.7 | 260 | 11 |
| 2010-01-04T01:22 | 18825 | 68 | -74.5 | -90.6 | 263 | 11 |
| 2010-01-04T01:22 | 18859 | 67 | -74.0 | -90.3 | 268 | 11 |
| 2010-01-04T01:22 | 18892 | 67 | -73.7 | -90.2 | 272 | 11 |
| 2010-01-04T01:22 | 18926 | 66 | -73.5 | -90.0 | 276 | 11 |
| 2010-01-04T01:22 | 18959 | 66 | -73.4 | -90.2 | 278 | 11 |
| 2010-01-04T01:22 | 18993 | 66 | -73.7 | -90.5 | 280 | 12 |
| 2010-01-04T01:23 | 19026 | 65 | -73.4 | -90.4 | 280 | 12 |
| 2010-01-04T01:23 | 19057 | 65 | -73.6 | -90.6 | 280 | 13 |
| 2010-01-04T01:23 | 19090 | 65 | -73.0 | -90.3 | 280 | 13 |
| 2010-01-04T01:23 | 19121 | 64 | -73.1 | -90.4 | 280 | 13 |
| 2010-01-04T01:23 | 19154 | 64 | -73.1 | -90.6 | 281 | 13 |
| 2010-01-04T01:23 | 19185 | 64 | -73.1 | -90.6 | 282 | 13 |
| 2010-01-04T01:24 | 19217 | 63 | -72.8 | -90.4 | 282 | 13 |
| 2010-01-04T01:24 | 19249 | 63 | -72.8 | -90.6 | 282 | 12 |
| 2010-01-04T01:24 | 19282 | 62 | -72.6 | -90.4 | 283 | 12 |
| 2010-01-04T01:24 | 19315 | 62 | -72.8 | -90.7 | 286 | 11 |
| 2010-01-04T01:24 | 19347 | 62 | -72.9 | -90.8 | 288 | 11 |
| 2010-01-04T01:24 | 19379 | 61 | -73.3 | -91.2 | 287 | 11 |
| 2010-01-04T01:25 | 19413 | 61 | -73.2 | -91.4 | 283 | 10 |
| 2010-01-04T01:25 | 19447 | 61 | -72.9 | -91.2 | 277 | 10 |
| 2010-01-04T01:25 | 19481 | 60 | -72.7 | -91.1 | 270 | 9 |
| 2010-01-04T01:25 | 19514 | 60 | -72.4 | -91.0 | 263 | 9 |
| 2010-01-04T01:25 | 19547 | 60 | -72.4 | -90.9 | 257 | 9 |
| 2010-01-04T01:25 | 19580 | 59 | -72.7 | -91.2 | 252 | 9 |
| 2010-01-04T01:26 | 19616 | 59 | -72.8 | -91.3 | 248 | 10 |
| 2010-01-04T01:26 | 19650 | 59 | -72.9 | -91.6 | 245 | 10 |
| 2010-01-04T01:26 | 19685 | 58 | -73.3 | -91.9 | 242 | 11 |
| 2010-01-04T01:26 | 19719 | 58 | -73.2 | -92.0 | 241 | 12 |
| 2010-01-04T01:26 | 19752 | 58 | -73.2 | -92.0 | 242 | 12 |
| 2010-01-04T01:26 | 19788 | 57 | -73.4 | -92.1 | 243 | 12 |
| 2010-01-04T01:27 | 19822 | 57 | -73.6 | -92.2 | 244 | 12 |
| 2010-01-04T01:27 | 19857 | 57 | -73.6 | -92.3 | 243 | 12 |
| 2010-01-04T01:27 | 19892 | 56 | -73.9 | -92.5 | 242 | 12 |
| 2010-01-04T01:27 | 19927 | 56 | -73.8 | -92.5 | 240 | 12 |
| 2010-01-04T01:27 | 19961 | 56 | -74.2 | -92.8 | 238 | 12 |
| 2010-01-04T01:27 | 19995 | 55 | -74.2 | -92.8 | 237 | 12 |
| 2010-01-04T01:28 | 20029 | 55 | -74.4 | -93.0 | 236 | 12 |
| 2010-01-04T01:28 | 20064 | 55 | -74.5 | -93.1 | 236 | 12 |
| 2010-01-04T01:28 | 20099 | 54 | -74.5 | -93.0 | 235 | 11 |
| 2010-01-04T01:28 | 20133 | 54 | -74.6 | -93.1 | 234 | 10 |
| 2010-01-04T01:28 | 20168 | 54 | -74.5 | -93.0 | 232 | 9 |
| 2010-01-04T01:28 | 20203 | 53 | -74.6 | -93.0 | 232 | 9 |
| 2010-01-04T01:29 | 20237 | 53 | -74.4 | -92.9 | 236 | 8 |
| 2010-01-04T01:29 | 20271 | 53 | -74.0 | -92.7 | 243 | 7 |
| 2010-01-04T01:29 | 20307 | 52 | -73.1 | -92.1 | 250 | 6 |
| 2010-01-04T01:29 | 20342 | 52 | -72.3 | -91.5 | 257 | 7 |
| 2010-01-04T01:29 | 20376 | 52 | -71.7 | -91.1 | 265 | 7 |
| 2010-01-04T01:29 | 20410 | 52 | -71.4 | -90.8 | 272 | 6 |
| 2010-01-04T01:30 | 20445 | 51 | -71.2 | -90.9 | 277 | 6 |
| 2010-01-04T01:30 | 20479 | 51 | -71.2 | -90.9 | 280 | 6 |
| 2010-01-04T01:30 | 20515 | 51 | -71.3 | -91.1 | 280 | 5 |
| 2010-01-04T01:30 | 20548 | 50 | -71.1 | -91.1 | 278 | 5 |
| 2010-01-04T01:30 | 20584 | 50 | -71.3 | -91.4 | 278 | 5 |
| 2010-01-04T01:30 | 20619 | 50 | -71.6 | -91.8 | 281 | 4 |
| 2010-01-04T01:31 | 20654 | 49 | -71.8 | -92.0 | 287 | 4 |
| 2010-01-04T01:31 | 20688 | 49 | -72.1 | -92.1 | 296 | 4 |
| 2010-01-04T01:31 | 20725 | 49 | -72.0 | -92.3 | 306 | 3 |
| 2010-01-04T01:31 | 20761 | 49 | -71.2 | -91.9 | 314 | 3 |
| 2010-01-04T01:31 | 20796 | 48 | -70.0 | -91.3 | 323 | 2 |
| 2010-01-04T01:31 | 20831 | 48 | -69.9 | -91.2 | 334 | 1 |
| 2010-01-04T01:32 | 20866 | 48 | -69.7 | -91.2 | 339 | 1 |
| 2010-01-04T01:32 | 20901 | 47 | -69.6 | -91.2 | 337 | 2 |
| 2010-01-04T01:32 | 20936 | 47 | -69.4 | -91.1 | 334 | 2 |
| 2010-01-04T01:32 | 20969 | 47 | -69.3 | -91.1 | 329 | 2 |
| 2010-01-04T01:32 | 21004 | 47 | -69.3 | -91.2 | 323 | 2 |
| 2010-01-04T01:32 | 21038 | 46 | -69.1 | -91.2 | 324 | 2 |
| 2010-01-04T01:33 | 21073 | 46 | -69.0 | -91.2 | 330 | 3 |
| 2010-01-04T01:33 | 21108 | 46 | -69.1 | -91.4 | 341 | 3 |
| 2010-01-04T01:33 | 21143 | 46 | -69.0 | -91.5 | 355 | 2 |
| 2010-01-04T01:33 | 21178 | 45 | -69.0 | -91.5 | 9 | 3 |
| 2010-01-04T01:33 | 21210 | 45 | -69.1 | -91.7 | 17 | 3 |
| 2010-01-04T01:33 | 21246 | 45 | -69.1 | -91.9 | 20 | 3 |
| 2010-01-04T01:34 | 21278 | 45 | -69.2 | -92.0 | 23 | 3 |
| 2010-01-04T01:34 | 21313 | 44 | -68.7 | -91.7 | 29 | 4 |
| 2010-01-04T01:34 | 21349 | 44 | -68.3 | -91.3 | 36 | 4 |
| 2010-01-04T01:34 | 21381 | 44 | -68.2 | -91.0 | 39 | 5 |
| 2010-01-04T01:34 | 21416 | 44 | -68.0 | -91.1 | 40 | 4 |
| 2010-01-04T01:34 | 21451 | 43 | -68.4 | -91.3 | 42 | 4 |
| 2010-01-04T01:35 | 21486 | 43 | -68.5 | -91.4 | 45 | 3 |
| 2010-01-04T01:35 | 21521 | 43 | -68.8 | -91.6 | 54 | 2 |
| 2010-01-04T01:35 | 21557 | 43 | -68.8 | -91.9 | 72 | 2 |
| 2010-01-04T01:35 | 21591 | 42 | -69.0 | -92.2 | 89 | 3 |
| 2010-01-04T01:35 | 21626 | 42 | -68.4 | -91.9 | 99 | 5 |
| 2010-01-04T01:35 | 21661 | 42 | -66.7 | -90.9 | 105 | 7 |
| 2010-01-04T01:36 | 21696 | 42 | -66.5 | -90.8 | 107 | 8 |
| 2010-01-04T01:36 | 21732 | 41 | -66.4 | -90.7 | 108 | 8 |
| 2010-01-04T01:36 | 21767 | 41 | -66.8 | -91.0 | 108 | 9 |
| 2010-01-04T01:36 | 21801 | 41 | -67.1 | -91.2 | 108 | 9 |
| 2010-01-04T01:36 | 21835 | 41 | -67.2 | -91.3 | 108 | 9 |
| 2010-01-04T01:36 | 21870 | 40 | -67.3 | -91.3 | 108 | 9 |
| 2010-01-04T01:37 | 21904 | 40 | -67.6 | -91.5 | 108 | 9 |
| 2010-01-04T01:37 | 21937 | 40 | -67.9 | -91.6 | 106 | 10 |
| 2010-01-04T01:37 | 21970 | 40 | -67.8 | -91.5 | 105 | 10 |
| 2010-01-04T01:37 | 22002 | 39 | -68.1 | -91.6 | 102 | 11 |
| 2010-01-04T01:37 | 22036 | 39 | -68.0 | -91.8 | 100 | 11 |
| 2010-01-04T01:37 | 22068 | 39 | -68.1 | -91.9 | 99 | 11 |
| 2010-01-04T01:38 | 22102 | 39 | -68.2 | -92.0 | 98 | 12 |
| 2010-01-04T01:38 | 22135 | 39 | -68.0 | -92.1 | 97 | 14 |
| 2010-01-04T01:38 | 22168 | 38 | -67.4 | -91.5 | 96 | 15 |
| 2010-01-04T01:38 | 22203 | 38 | -67.4 | -91.7 | 95 | 16 |
| 2010-01-04T01:38 | 22238 | 38 | -67.0 | -91.3 | 96 | 18 |
| 2010-01-04T01:38 | 22273 | 38 | -66.8 | -91.3 | 98 | 19 |
| 2010-01-04T01:39 | 22309 | 38 | -65.9 | -91.1 | 101 | 20 |
| 2010-01-04T01:39 | 22345 | 37 | -65.2 | -90.8 | 105 | 20 |
| 2010-01-04T01:39 | 22381 | 37 | -65.4 | -90.6 | 108 | 20 |
| 2010-01-04T01:39 | 22416 | 37 | -65.4 | -90.6 | 110 | 20 |
| 2010-01-04T01:39 | 22453 | 37 | -65.4 | -90.6 | 111 | 20 |
| 2010-01-04T01:39 | 22490 | 36 | -65.6 | -90.5 | 111 | 20 |
| 2010-01-04T01:40 | 22526 | 36 | -65.8 | -90.6 | 109 | 20 |
| 2010-01-04T01:40 | 22564 | 36 | -65.8 | -90.8 | 105 | 20 |
| 2010-01-04T01:40 | 22602 | 36 | -65.0 | -90.5 | 101 | 20 |
| 2010-01-04T01:40 | 22642 | 36 | -64.4 | -90.2 | 97 | 21 |
| 2010-01-04T01:40 | 22678 | 35 | -63.9 | -89.9 | 94 | 21 |
| 2010-01-04T01:40 | 22716 | 35 | -63.7 | -89.8 | 94 | 21 |
| 2010-01-04T01:41 | 22754 | 35 | -63.4 | -89.6 | 94 | 22 |
| 2010-01-04T01:41 | 22790 | 35 | -63.0 | -89.4 | 94 | 23 |
| 2010-01-04T01:41 | 22826 | 34 | -63.0 | -89.2 | 94 | 24 |
| 2010-01-04T01:41 | 22861 | 34 | -62.8 | -89.2 | 93 | 24 |
| 2010-01-04T01:41 | 22896 | 34 | -63.0 | -89.1 | 93 | 25 |
| 2010-01-04T01:41 | 22932 | 34 | -63.0 | -89.2 | 91 | 25 |
| 2010-01-04T01:42 | 22966 | 34 | -62.9 | -89.1 | 90 | 26 |
| 2010-01-04T01:42 | 23000 | 34 | -62.5 | -89.0 | 87 | 27 |
| 2010-01-04T01:42 | 23035 | 33 | -62.4 | -89.0 | 85 | 28 |
| 2010-01-04T01:42 | 23067 | 33 | -62.7 | -88.9 | 83 | 29 |
| 2010-01-04T01:42 | 23101 | 33 | -62.5 | -88.9 | 82 | 29 |
| 2010-01-04T01:42 | 23135 | 33 | -62.8 | -89.2 | 81 | 29 |
| 2010-01-04T01:43 | 23167 | 33 | -63.0 | -89.3 | 81 | 28 |
| 2010-01-04T01:43 | 23202 | 32 | -63.1 | -89.4 | 81 | 28 |
| 2010-01-04T01:43 | 23235 | 32 | -63.2 | -89.4 | 81 | 27 |
| 2010-01-04T01:43 | 23269 | 32 | -63.3 | -89.5 | 79 | 25 |
| 2010-01-04T01:43 | 23304 | 32 | -62.9 | -89.4 | 78 | 25 |
| 2010-01-04T01:43 | 23337 | 32 | -62.5 | -89.3 | 77 | 24 |
| 2010-01-04T01:44 | 23373 | 32 | -62.7 | -89.2 | 78 | 25 |
| 2010-01-04T01:44 | 23408 | 31 | -62.6 | -89.2 | 80 | 25 |
| 2010-01-04T01:44 | 23445 | 31 | -62.4 | -89.0 | 82 | 26 |
| 2010-01-04T01:44 | 23480 | 31 | -62.4 | -88.9 | 83 | 26 |
| 2010-01-04T01:44 | 23518 | 31 | -62.0 | -88.8 | 84 | 25 |
| 2010-01-04T01:44 | 23552 | 31 | -61.7 | -88.7 | 87 | 24 |
| 2010-01-04T01:45 | 23591 | 30 | -61.2 | -88.5 | 90 | 24 |
| 2010-01-04T01:45 | 23626 | 30 | -61.1 | -88.3 | 92 | 24 |
| 2010-01-04T01:45 | 23664 | 30 | -61.1 | -88.3 | 92 | 24 |
| 2010-01-04T01:45 | 23700 | 30 | -60.9 | -88.1 | 92 | 24 |
| 2010-01-04T01:45 | 23734 | 30 | -60.6 | -88.0 | 91 | 25 |
| 2010-01-04T01:45 | 23769 | 30 | -60.1 | -87.7 | 88 | 25 |
| 2010-01-04T01:46 | 23801 | 29 | -58.6 | -87.0 | 86 | 25 |
| 2010-01-04T01:46 | 23834 | 29 | -57.5 | -86.5 | 83 | 24 |
| 2010-01-04T01:46 | 23867 | 29 | -57.2 | -86.2 | 82 | 24 |
| 2010-01-04T01:46 | 23898 | 29 | -56.9 | -85.7 | 81 | 23 |
| 2010-01-04T01:46 | 23932 | 29 | -56.1 | -85.2 | 81 | 23 |
| 2010-01-04T01:46 | 23965 | 29 | -56.3 | -85.1 | 81 | 22 |
| 2010-01-04T01:47 | 23997 | 29 | -56.1 | -84.8 | 81 | 22 |
| 2010-01-04T01:47 | 24030 | 28 | -56.0 | -84.7 | 81 | 22 |
| 2010-01-04T01:47 | 24061 | 28 | -55.8 | -84.5 | 82 | 22 |
| 2010-01-04T01:47 | 24095 | 28 | -55.8 | -84.3 | 82 | 22 |
| 2010-01-04T01:47 | 24131 | 28 | -55.8 | -84.4 | 82 | 23 |
| 2010-01-04T01:47 | 24164 | 28 | -55.8 | -84.5 | 82 | 23 |
| 2010-01-04T01:48 | 24198 | 28 | -55.6 | -84.3 | 82 | 23 |
| 2010-01-04T01:48 | 24236 | 27 | -55.5 | -84.2 | 82 | 23 |
| 2010-01-04T01:48 | 24270 | 27 | -55.3 | -84.1 | 83 | 22 |
| 2010-01-04T01:48 | 24307 | 27 | -55.2 | -83.9 | 83 | 22 |
| 2010-01-04T01:48 | 24344 | 27 | -55.2 | -83.8 | 83 | 22 |
| 2010-01-04T01:48 | 24382 | 27 | -55.1 | -83.8 | 83 | 22 |
| 2010-01-04T01:49 | 24420 | 27 | -55.2 | -84.0 | 83 | 22 |
| 2010-01-04T01:49 | 24457 | 27 | -55.2 | -84.0 | 84 | 22 |
| 2010-01-04T01:49 | 24493 | 26 | -55.0 | -83.9 | 84 | 22 |
| 2010-01-04T01:49 | 24532 | 26 | -54.9 | -83.8 | 84 | 23 |
| 2010-01-04T01:49 | 24571 | 26 | -54.9 | -83.8 | 83 | 23 |
| 2010-01-04T01:49 | 24607 | 26 | -54.9 | -83.8 | 83 | 23 |
| 2010-01-04T01:50 | 24643 | 26 | -55.0 | -83.8 | 82 | 23 |
| 2010-01-04T01:50 | 24680 | 26 | -55.0 | -83.9 | 82 | 24 |
| 2010-01-04T01:50 | 24714 | 26 | -54.9 | -83.7 | 82 | 24 |
| 2010-01-04T01:50 | 24749 | 25 | -54.4 | -83.6 | 81 | 24 |
| 2010-01-04T01:50 | 24782 | 25 | -53.6 | -83.2 | 81 | 24 |
| 2010-01-04T01:50 | 24815 | 25 | -53.4 | -83.1 | 81 | 24 |
| 2010-01-04T01:51 | 24847 | 25 | -53.3 | -82.9 | 82 | 25 |
| 2010-01-04T01:51 | 24878 | 25 | -53.3 | -82.9 | 82 | 25 |
| 2010-01-04T01:51 | 24912 | 25 | -53.2 | -82.9 | 80 | 25 |
| 2010-01-04T01:51 | 24943 | 25 | -52.8 | -82.6 | 80 | 26 |
| 2010-01-04T01:51 | 24974 | 24 | -52.7 | -82.5 | 80 | 26 |
| 2010-01-04T01:51 | 25008 | 24 | -52.6 | -82.4 | 81 | 26 |
| 2010-01-04T01:52 | 25037 | 24 | -52.6 | -82.3 | 82 | 26 |
| 2010-01-04T01:52 | 25071 | 24 | -52.5 | -82.2 | 83 | 26 |
| 2010-01-04T01:52 | 25103 | 24 | -52.5 | -82.2 | 83 | 26 |
| 2010-01-04T01:52 | 25138 | 24 | -52.5 | -82.3 | 83 | 26 |
| 2010-01-04T01:52 | 25174 | 24 | -52.6 | -82.4 | 83 | 27 |
| 2010-01-04T01:52 | 25206 | 24 | -52.8 | -82.5 | 84 | 27 |
| 2010-01-04T01:53 | 25241 | 23 | -52.9 | -82.6 | 85 | 27 |
| 2010-01-04T01:53 | 25278 | 23 | -53.0 | -82.6 | 86 | 27 |
| 2010-01-04T01:53 | 25313 | 23 | -53.0 | -82.6 | 86 | 27 |
| 2010-01-04T01:53 | 25350 | 23 | -52.9 | -82.5 | 85 | 27 |
| 2010-01-04T01:53 | 25384 | 23 | -53.0 | -82.5 | 83 | 27 |
| 2010-01-04T01:53 | 25422 | 23 | -52.8 | -82.6 | 82 | 27 |
| 2010-01-04T01:54 | 25457 | 23 | -52.6 | -82.6 | 82 | 27 |
| 2010-01-04T01:54 | 25493 | 23 | -52.6 | -82.6 | 81 | 28 |
| 2010-01-04T01:54 | 25527 | 22 | -52.6 | -82.6 | 80 | 28 |
| 2010-01-04T01:54 | 25564 | 22 | -52.5 | -82.5 | 79 | 28 |
| 2010-01-04T01:54 | 25598 | 22 | -52.2 | -82.4 | 78 | 27 |
| 2010-01-04T01:54 | 25633 | 22 | -51.4 | -82.0 | 77 | 27 |
| 2010-01-04T01:55 | 25669 | 22 | -51.0 | -81.7 | 77 | 28 |
| 2010-01-04T01:55 | 25704 | 22 | -51.1 | -81.7 | 78 | 28 |
| 2010-01-04T01:55 | 25740 | 22 | -51.2 | -81.8 | 78 | 28 |
| 2010-01-04T01:55 | 25776 | 22 | -51.4 | -81.8 | 78 | 28 |
| 2010-01-04T01:55 | 25810 | 22 | -51.6 | -81.8 | 78 | 28 |
| 2010-01-04T01:55 | 25845 | 21 | -51.8 | -82.0 | 78 | 28 |
| 2010-01-04T01:56 | 25877 | 21 | -52.0 | -82.1 | 77 | 28 |
| 2010-01-04T01:56 | 25912 | 21 | -52.2 | -82.2 | 76 | 28 |
| 2010-01-04T01:56 | 25950 | 21 | -52.3 | -82.2 | 76 | 28 |
| 2010-01-04T01:56 | 25986 | 21 | -52.3 | -82.3 | 76 | 28 |
| 2010-01-04T01:56 | 26022 | 21 | -52.3 | -82.3 | 76 | 29 |
| 2010-01-04T01:56 | 26059 | 21 | -52.5 | -82.4 | 77 | 30 |
| 2010-01-04T01:57 | 26098 | 21 | -52.3 | -82.4 | 77 | 30 |
| 2010-01-04T01:57 | 26131 | 20 | -51.9 | -82.2 | 76 | 30 |
| 2010-01-04T01:57 | 26170 | 20 | -51.9 | -82.2 | 76 | 31 |
| 2010-01-04T01:57 | 26207 | 20 | -51.8 | -82.2 | 76 | 31 |
| 2010-01-04T01:57 | 26244 | 20 | -51.9 | -82.2 | 76 | 31 |
| 2010-01-04T01:57 | 26284 | 20 | -52.2 | -82.3 | 76 | 31 |
| 2010-01-04T01:58 | 26323 | 20 | -52.4 | -82.4 | 76 | 31 |
| 2010-01-04T01:58 | 26365 | 20 | -52.8 | -82.6 | 76 | 31 |
| 2010-01-04T01:58 | 26398 | 20 | -53.0 | -82.7 | 76 | 31 |
| 2010-01-04T01:58 | 26438 | 20 | -53.1 | -82.8 | 76 | 32 |
| 2010-01-04T01:58 | 26475 | 19 | -52.8 | -82.7 | 77 | 34 |
| 2010-01-04T01:58 | 26515 | 19 | -53.0 | -82.8 | 77 | 34 |
| 2010-01-04T01:59 | 26552 | 19 | -52.9 | -82.8 | 76 | 34 |
| 2010-01-04T01:59 | 26591 | 19 | -51.7 | -82.3 | 73 | 33 |
| 2010-01-04T01:59 | 26626 | 19 | -51.0 | -81.9 | 71 | 33 |
| 2010-01-04T01:59 | 26661 | 19 | -50.9 | -81.8 | 69 | 33 |
| 2010-01-04T01:59 | 26697 | 19 | -50.9 | -81.7 | 68 | 34 |
| 2010-01-04T01:59 | 26727 | 19 | -50.8 | -81.7 | 68 | 34 |
| 2010-01-04T02:00 | 26766 | 19 | -51.0 | -81.7 | 69 | 34 |
| 2010-01-04T02:00 | 26797 | 18 | -51.2 | -81.8 | 70 | 33 |
| 2010-01-04T02:00 | 26830 | 18 | -51.4 | -81.8 | 72 | 33 |
| 2010-01-04T02:00 | 26863 | 18 | -51.5 | -81.9 | 74 | 32 |
| 2010-01-04T02:00 | 26900 | 18 | -51.6 | -81.9 | 76 | 31 |
| 2010-01-04T02:00 | 26932 | 18 | -51.5 | -82.1 | 78 | 30 |
| 2010-01-04T02:01 | 26970 | 18 | -51.1 | -81.8 | 79 | 30 |
| 2010-01-04T02:01 | 27002 | 18 | -51.3 | -81.8 | 80 | 29 |
| 2010-01-04T02:01 | 27038 | 18 | -51.6 | -81.8 | 81 | 29 |
| 2010-01-04T02:01 | 27072 | 18 | -52.0 | -82.1 | 82 | 29 |
| 2010-01-04T02:01 | 27109 | 18 | -52.3 | -82.2 | 83 | 29 |
| 2010-01-04T02:01 | 27144 | 18 | -52.5 | -82.3 | 83 | 30 |
| 2010-01-04T02:02 | 27179 | 17 | -52.6 | -82.7 | 83 | 30 |
| 2010-01-04T02:02 | 27219 | 17 | -52.9 | -82.7 | 83 | 30 |
| 2010-01-04T02:02 | 27253 | 17 | -53.1 | -82.8 | 83 | 30 |
| 2010-01-04T02:02 | 27289 | 17 | -53.3 | -83.0 | 84 | 29 |
| 2010-01-04T02:02 | 27324 | 17 | -53.3 | -82.7 | 85 | 28 |
| 2010-01-04T02:02 | 27356 | 17 | -53.2 | -83.0 | 85 | 27 |
| 2010-01-04T02:03 | 27396 | 17 | -53.0 | -83.0 | 86 | 27 |
| 2010-01-04T02:03 | 27429 | 17 | -53.2 | -83.0 | 86 | 28 |
| 2010-01-04T02:03 | 27462 | 17 | -53.2 | -83.1 | 86 | 28 |
| 2010-01-04T02:03 | 27497 | 17 | -53.4 | -83.2 | 86 | 28 |
| 2010-01-04T02:03 | 27527 | 17 | -53.4 | -83.2 | 86 | 29 |
| 2010-01-04T02:03 | 27561 | 16 | -53.5 | -83.0 | 86 | 29 |
| 2010-01-04T02:04 | 27590 | 16 | -53.7 | -83.2 | 86 | 29 |
| 2010-01-04T02:04 | 27625 | 16 | -53.8 | -83.1 | 85 | 29 |
| 2010-01-04T02:04 | 27657 | 16 | -53.5 | -83.2 | 85 | 29 |
| 2010-01-04T02:04 | 27686 | 16 | -53.5 | -83.2 | 84 | 29 |
| 2010-01-04T02:04 | 27718 | 16 | -53.2 | -83.0 | 84 | 28 |
| 2010-01-04T02:04 | 27749 | 16 | -53.3 | -83.1 | 84 | 28 |
| 2010-01-04T02:05 | 27781 | 16 | -53.6 | -83.0 | 84 | 28 |
| 2010-01-04T02:05 | 27810 | 16 | -53.2 | -83.0 | 84 | 29 |
| 2010-01-04T02:05 | 27842 | 16 | -53.3 | -82.8 | 85 | 30 |
| 2010-01-04T02:05 | 27875 | 16 | -53.5 | -83.0 | 85 | 32 |
| 2010-01-04T02:05 | 27904 | 16 | -53.2 | -82.9 | 85 | 33 |
| 2010-01-04T02:05 | 27934 | 15 | -52.8 | -83.1 | 86 | 34 |
| 2010-01-04T02:06 | 27963 | 15 | -52.8 | -83.0 | 88 | 35 |
| 2010-01-04T02:06 | 27993 | 15 | -52.9 | -82.8 | 88 | 36 |
| 2010-01-04T02:06 | 28025 | 15 | -52.7 | -82.8 | 88 | 36 |
| 2010-01-04T02:06 | 28053 | 15 | -52.7 | -82.5 | 88 | 37 |
| 2010-01-04T02:06 | 28088 | 15 | -52.7 | -82.8 | 88 | 37 |
| 2010-01-04T02:06 | 28118 | 15 | -52.6 | -82.6 | 88 | 37 |
| 2010-01-04T02:07 | 28150 | 15 | -52.5 | -82.4 | 88 | 37 |
| 2010-01-04T02:07 | 28177 | 15 | -52.4 | -82.5 | 88 | 36 |
| 2010-01-04T02:07 | 28215 | 15 | -51.7 | -82.3 | 88 | 36 |
| 2010-01-04T02:07 | 28245 | 15 | -51.9 | -82.2 | 88 | 36 |
| 2010-01-04T02:07 | 28279 | 15 | -51.8 | -82.3 | 88 | 35 |
| 2010-01-04T02:07 | 28311 | 15 | -51.9 | -82.1 | 88 | 34 |
| 2010-01-04T02:08 | 28341 | 15 | -51.8 | -82.4 | 88 | 34 |
| 2010-01-04T02:08 | 28378 | 14 | -51.8 | -81.8 | 88 | 34 |
| 2010-01-04T02:08 | 28411 | 14 | -50.6 | -81.4 | 89 | 34 |
| 2010-01-04T02:08 | 28447 | 14 | -50.9 | -81.5 | 89 | 34 |
| 2010-01-04T02:08 | 28476 | 14 | -50.8 | -81.3 | 90 | 35 |
| 2010-01-04T02:08 | 28512 | 14 | -50.6 | -81.1 | 90 | 36 |
| 2010-01-04T02:09 | 28548 | 14 | -50.7 | -81.4 | 90 | 36 |
| 2010-01-04T02:09 | 28577 | 14 | -50.3 | -81.0 | 90 | 36 |
| 2010-01-04T02:09 | 28614 | 14 | -50.2 | -81.0 | 90 | 36 |
| 2010-01-04T02:09 | 28640 | 14 | -50.1 | -81.0 | 90 | 36 |
| 2010-01-04T02:09 | 28671 | 14 | -49.5 | -80.8 | 90 | 36 |
| 2010-01-04T02:09 | 28704 | 14 | -49.6 | -80.6 | 89 | 36 |
| 2010-01-04T02:10 | 28732 | 14 | -49.5 | -80.9 | 89 | 37 |
| 2010-01-04T02:10 | 28764 | 14 | -49.6 | -80.5 | 88 | 38 |
| 2010-01-04T02:10 | 28801 | 14 | -49.5 | -80.5 | 88 | 39 |
| 2010-01-04T02:10 | 28829 | 13 | -49.4 | -80.4 | 88 | 39 |
| 2010-01-04T02:10 | 28860 | 13 | -49.4 | -80.6 | 88 | 39 |
| 2010-01-04T02:10 | 28887 | 13 | -49.2 | -80.3 | 88 | 39 |
| 2010-01-04T02:11 | 28919 | 13 | -49.3 | -80.3 | 87 | 39 |
| 2010-01-04T02:11 | 28945 | 13 | -49.0 | -80.4 | 86 | 38 |
| 2010-01-04T02:11 | 28978 | 13 | -48.8 | -80.1 | 86 | 37 |
| 2010-01-04T02:11 | 29006 | 13 | -48.3 | -79.9 | 86 | 35 |
| 2010-01-04T02:11 | 29031 | 13 | -47.9 | -79.7 | 85 | 33 |
| 2010-01-04T02:11 | 29058 | 13 | -47.8 | -79.6 | 85 | 32 |
| 2010-01-04T02:12 | 29085 | 13 | -47.5 | -79.4 | 85 | 30 |
| 2010-01-04T02:12 | 29111 | 13 | -47.3 | -79.3 | 85 | 29 |
| 2010-01-04T02:12 | 29138 | 13 | -47.1 | -79.2 | 85 | 30 |
| 2010-01-04T23:37 | 4 | 1006 | 31.9 | 25.0 | 170 | 3 |
| 2010-01-04T23:37 | 16 | 1005 | 29.2 | 22.7 | 204 | 1 |
| 2010-01-04T23:37 | 27 | 1004 | 28.6 | 22.7 | 207 | 1 |
| 2010-01-04T23:37 | 37 | 1003 | 28.5 | 23.0 | 203 | 1 |
| 2010-01-04T23:37 | 48 | 1001 | 28.4 | 23.4 | 202 | 1 |
| 2010-01-04T23:37 | 60 | 1000 | 28.4 | 23.6 | 201 | 1 |
| 2010-01-04T23:37 | 70 | 999 | 28.2 | 23.6 | 201 | 1 |
| 2010-01-04T23:37 | 82 | 998 | 28.0 | 23.5 | 200 | 1 |
| 2010-01-04T23:37 | 94 | 996 | 27.9 | 23.5 | 200 | 2 |
| 2010-01-04T23:37 | 107 | 995 | 27.8 | 23.5 | 200 | 2 |
| 2010-01-04T23:37 | 118 | 994 | 27.7 | 23.6 | 201 | 2 |
| 2010-01-04T23:37 | 128 | 992 | 27.6 | 23.7 | 203 | 2 |
| 2010-01-04T23:37 | 139 | 991 | 27.5 | 23.6 | 205 | 2 |
| 2010-01-04T23:37 | 149 | 990 | 27.4 | 23.6 | 207 | 2 |
| 2010-01-04T23:37 | 160 | 989 | 27.3 | 23.6 | 210 | 2 |
| 2010-01-04T23:37 | 172 | 987 | 27.1 | 23.7 | 214 | 2 |
| 2010-01-04T23:37 | 185 | 986 | 27.0 | 23.6 | 219 | 2 |
| 2010-01-04T23:37 | 198 | 985 | 26.9 | 23.6 | 223 | 2 |
| 2010-01-04T23:37 | 211 | 983 | 26.8 | 23.5 | 229 | 2 |
| 2010-01-04T23:37 | 223 | 982 | 26.6 | 23.5 | 234 | 2 |
| 2010-01-04T23:37 | 234 | 981 | 26.5 | 23.5 | 239 | 2 |
| 2010-01-04T23:37 | 245 | 979 | 26.4 | 23.5 | 243 | 2 |
| 2010-01-04T23:37 | 257 | 978 | 26.3 | 23.5 | 248 | 2 |
| 2010-01-04T23:37 | 269 | 977 | 26.3 | 23.5 | 252 | 3 |
| 2010-01-04T23:37 | 280 | 976 | 26.2 | 23.5 | 255 | 3 |
| 2010-01-04T23:37 | 291 | 974 | 26.1 | 23.5 | 258 | 3 |
| 2010-01-04T23:37 | 304 | 973 | 26.0 | 23.5 | 261 | 3 |
| 2010-01-04T23:37 | 317 | 972 | 26.0 | 23.4 | 263 | 3 |
| 2010-01-04T23:37 | 329 | 970 | 25.9 | 23.3 | 265 | 3 |
| 2010-01-04T23:37 | 341 | 969 | 25.8 | 23.2 | 267 | 2 |
| 2010-01-04T23:38 | 353 | 968 | 25.6 | 23.2 | 268 | 2 |
| 2010-01-04T23:38 | 364 | 966 | 25.6 | 23.1 | 270 | 2 |
| 2010-01-04T23:38 | 374 | 965 | 25.5 | 23.0 | 271 | 2 |
| 2010-01-04T23:38 | 385 | 964 | 25.3 | 23.0 | 272 | 2 |
| 2010-01-04T23:38 | 396 | 963 | 25.3 | 22.9 | 273 | 2 |
| 2010-01-04T23:38 | 407 | 962 | 25.2 | 22.9 | 273 | 2 |
| 2010-01-04T23:38 | 418 | 960 | 25.1 | 22.8 | 273 | 2 |
| 2010-01-04T23:38 | 429 | 959 | 25.0 | 22.8 | 272 | 2 |
| 2010-01-04T23:38 | 441 | 958 | 24.9 | 22.8 | 272 | 2 |
| 2010-01-04T23:38 | 452 | 957 | 24.8 | 22.8 | 270 | 2 |
| 2010-01-04T23:38 | 464 | 955 | 24.7 | 22.7 | 268 | 2 |
| 2010-01-04T23:38 | 477 | 954 | 24.8 | 22.4 | 266 | 2 |
| 2010-01-04T23:38 | 489 | 953 | 24.7 | 22.2 | 264 | 3 |
| 2010-01-04T23:38 | 501 | 951 | 24.6 | 22.0 | 262 | 3 |
| 2010-01-04T23:38 | 514 | 950 | 24.5 | 22.0 | 261 | 3 |
| 2010-01-04T23:38 | 528 | 949 | 24.4 | 21.9 | 259 | 3 |
| 2010-01-04T23:38 | 541 | 947 | 24.3 | 21.8 | 257 | 3 |
| 2010-01-04T23:38 | 553 | 946 | 24.1 | 21.9 | 256 | 4 |
| 2010-01-04T23:38 | 565 | 945 | 24.0 | 21.9 | 255 | 4 |
| 2010-01-04T23:38 | 578 | 943 | 23.9 | 21.8 | 254 | 4 |
| 2010-01-04T23:38 | 591 | 942 | 23.8 | 21.7 | 254 | 4 |
| 2010-01-04T23:38 | 604 | 940 | 23.7 | 21.6 | 254 | 4 |
| 2010-01-04T23:38 | 616 | 939 | 23.6 | 21.6 | 254 | 4 |
| 2010-01-04T23:38 | 629 | 938 | 23.5 | 21.6 | 255 | 4 |
| 2010-01-04T23:38 | 643 | 936 | 23.3 | 21.5 | 256 | 4 |
| 2010-01-04T23:38 | 655 | 935 | 23.3 | 21.5 | 257 | 4 |
| 2010-01-04T23:38 | 667 | 934 | 23.3 | 21.4 | 258 | 4 |
| 2010-01-04T23:38 | 678 | 932 | 23.2 | 21.2 | 259 | 4 |
| 2010-01-04T23:38 | 690 | 931 | 23.2 | 21.0 | 261 | 4 |
| 2010-01-04T23:38 | 702 | 930 | 23.2 | 20.9 | 262 | 4 |
| 2010-01-04T23:39 | 714 | 929 | 23.2 | 20.8 | 264 | 5 |
| 2010-01-04T23:39 | 726 | 927 | 23.2 | 20.6 | 265 | 5 |
| 2010-01-04T23:39 | 737 | 926 | 23.1 | 20.5 | 266 | 5 |
| 2010-01-04T23:39 | 750 | 925 | 23.1 | 20.3 | 267 | 5 |
| 2010-01-04T23:39 | 762 | 924 | 23.0 | 20.2 | 268 | 5 |
| 2010-01-04T23:39 | 774 | 922 | 22.9 | 20.1 | 269 | 5 |
| 2010-01-04T23:39 | 787 | 921 | 22.8 | 20.0 | 270 | 5 |
| 2010-01-04T23:39 | 799 | 920 | 22.7 | 19.9 | 270 | 5 |
| 2010-01-04T23:39 | 813 | 918 | 22.6 | 19.9 | 271 | 5 |
| 2010-01-04T23:39 | 826 | 917 | 22.4 | 19.8 | 271 | 5 |
| 2010-01-04T23:39 | 838 | 916 | 22.3 | 19.8 | 271 | 5 |
| 2010-01-04T23:39 | 850 | 914 | 22.2 | 19.7 | 271 | 5 |
| 2010-01-04T23:39 | 863 | 913 | 22.1 | 19.6 | 271 | 5 |
| 2010-01-04T23:39 | 874 | 912 | 22.0 | 19.5 | 271 | 5 |
| 2010-01-04T23:39 | 885 | 911 | 22.0 | 19.4 | 270 | 4 |
| 2010-01-04T23:39 | 897 | 909 | 21.9 | 19.3 | 270 | 4 |
| 2010-01-04T23:39 | 909 | 908 | 21.7 | 19.3 | 269 | 4 |
| 2010-01-04T23:39 | 920 | 907 | 21.6 | 19.2 | 269 | 4 |
| 2010-01-04T23:39 | 932 | 906 | 21.5 | 19.2 | 268 | 4 |
| 2010-01-04T23:39 | 943 | 905 | 21.4 | 19.2 | 267 | 4 |
| 2010-01-04T23:39 | 954 | 904 | 21.4 | 19.2 | 266 | 4 |
| 2010-01-04T23:39 | 965 | 902 | 21.4 | 19.1 | 265 | 4 |
| 2010-01-04T23:39 | 977 | 901 | 21.4 | 18.8 | 264 | 4 |
| 2010-01-04T23:39 | 990 | 900 | 21.5 | 18.7 | 263 | 4 |
| 2010-01-04T23:39 | 1004 | 898 | 21.4 | 18.4 | 262 | 4 |
| 2010-01-04T23:39 | 1017 | 897 | 21.4 | 18.0 | 261 | 4 |
| 2010-01-04T23:39 | 1028 | 896 | 21.5 | 17.7 | 260 | 4 |
| 2010-01-04T23:39 | 1039 | 895 | 21.5 | 17.6 | 259 | 4 |
| 2010-01-04T23:39 | 1050 | 894 | 21.5 | 17.4 | 258 | 4 |
| 2010-01-04T23:39 | 1063 | 892 | 21.5 | 17.1 | 257 | 4 |
| 2010-01-04T23:40 | 1076 | 891 | 21.5 | 16.7 | 256 | 5 |
| 2010-01-04T23:40 | 1087 | 890 | 21.5 | 16.6 | 255 | 5 |
| 2010-01-04T23:40 | 1098 | 889 | 21.5 | 16.7 | 254 | 5 |
| 2010-01-04T23:40 | 1110 | 887 | 21.4 | 16.8 | 254 | 5 |
| 2010-01-04T23:40 | 1122 | 886 | 21.3 | 16.7 | 253 | 5 |
| 2010-01-04T23:40 | 1135 | 885 | 21.3 | 16.4 | 253 | 5 |
| 2010-01-04T23:40 | 1147 | 884 | 21.3 | 16.0 | 253 | 5 |
| 2010-01-04T23:40 | 1159 | 882 | 21.3 | 15.9 | 253 | 5 |
| 2010-01-04T23:40 | 1173 | 881 | 21.2 | 15.8 | 253 | 5 |
| 2010-01-04T23:40 | 1185 | 880 | 21.2 | 15.7 | 253 | 5 |
| 2010-01-04T23:40 | 1196 | 879 | 21.1 | 15.6 | 253 | 5 |
| 2010-01-04T23:40 | 1207 | 878 | 21.0 | 15.6 | 253 | 5 |
| 2010-01-04T23:40 | 1219 | 876 | 21.0 | 15.4 | 253 | 5 |
| 2010-01-04T23:40 | 1230 | 875 | 20.9 | 15.4 | 253 | 6 |
| 2010-01-04T23:40 | 1241 | 874 | 20.9 | 15.5 | 253 | 6 |
| 2010-01-04T23:40 | 1253 | 873 | 20.9 | 15.5 | 253 | 6 |
| 2010-01-04T23:40 | 1264 | 872 | 20.9 | 15.4 | 253 | 6 |
| 2010-01-04T23:40 | 1276 | 871 | 20.9 | 15.3 | 253 | 6 |
| 2010-01-04T23:40 | 1287 | 870 | 20.8 | 15.2 | 252 | 6 |
| 2010-01-04T23:40 | 1299 | 868 | 20.7 | 15.2 | 252 | 6 |
| 2010-01-04T23:40 | 1312 | 867 | 20.6 | 15.5 | 252 | 6 |
| 2010-01-04T23:40 | 1325 | 866 | 20.6 | 15.7 | 251 | 6 |
| 2010-01-04T23:40 | 1337 | 865 | 20.5 | 15.6 | 251 | 7 |
| 2010-01-04T23:40 | 1348 | 863 | 20.4 | 15.4 | 250 | 7 |
| 2010-01-04T23:40 | 1360 | 862 | 20.4 | 15.3 | 250 | 7 |
| 2010-01-04T23:40 | 1372 | 861 | 20.3 | 15.2 | 249 | 7 |
| 2010-01-04T23:40 | 1385 | 860 | 20.2 | 15.1 | 249 | 7 |
| 2010-01-04T23:40 | 1397 | 859 | 20.2 | 14.9 | 249 | 7 |
| 2010-01-04T23:40 | 1410 | 857 | 20.2 | 14.7 | 248 | 6 |
| 2010-01-04T23:40 | 1422 | 856 | 20.2 | 14.6 | 248 | 6 |
| 2010-01-04T23:41 | 1433 | 855 | 20.2 | 14.5 | 248 | 6 |
| 2010-01-04T23:41 | 1446 | 854 | 20.2 | 14.5 | 248 | 6 |
| 2010-01-04T23:41 | 1459 | 852 | 20.2 | 14.3 | 248 | 6 |
| 2010-01-04T23:41 | 1473 | 851 | 20.3 | 13.6 | 248 | 6 |
| 2010-01-04T23:41 | 1487 | 850 | 20.2 | 13.2 | 248 | 6 |
| 2010-01-04T23:41 | 1498 | 849 | 20.1 | 13.1 | 248 | 6 |
| 2010-01-04T23:41 | 1508 | 848 | 20.0 | 12.9 | 248 | 6 |
| 2010-01-04T23:41 | 1520 | 846 | 20.0 | 12.5 | 248 | 6 |
| 2010-01-04T23:41 | 1533 | 845 | 20.0 | 12.3 | 248 | 6 |
| 2010-01-04T23:41 | 1547 | 844 | 19.9 | 12.2 | 248 | 6 |
| 2010-01-04T23:41 | 1560 | 842 | 19.8 | 11.9 | 248 | 7 |
| 2010-01-04T23:41 | 1574 | 841 | 19.7 | 11.6 | 248 | 7 |
| 2010-01-04T23:41 | 1586 | 840 | 19.7 | 11.1 | 248 | 7 |
| 2010-01-04T23:41 | 1597 | 839 | 19.6 | 10.7 | 247 | 7 |
| 2010-01-04T23:41 | 1609 | 838 | 19.5 | 10.4 | 247 | 7 |
| 2010-01-04T23:41 | 1621 | 837 | 19.5 | 10.2 | 247 | 7 |
| 2010-01-04T23:41 | 1632 | 835 | 19.4 | 10.0 | 246 | 7 |
| 2010-01-04T23:41 | 1644 | 834 | 19.3 | 10.1 | 246 | 7 |
| 2010-01-04T23:41 | 1657 | 833 | 19.2 | 10.0 | 245 | 7 |
| 2010-01-04T23:41 | 1668 | 832 | 19.1 | 9.9 | 245 | 7 |
| 2010-01-04T23:41 | 1680 | 831 | 19.1 | 9.8 | 244 | 7 |
| 2010-01-04T23:41 | 1693 | 830 | 19.0 | 9.6 | 244 | 7 |
| 2010-01-04T23:41 | 1708 | 828 | 19.0 | 9.6 | 243 | 7 |
| 2010-01-04T23:41 | 1720 | 827 | 18.9 | 9.8 | 243 | 7 |
| 2010-01-04T23:41 | 1732 | 826 | 18.8 | 10.0 | 243 | 7 |
| 2010-01-04T23:41 | 1745 | 825 | 18.7 | 10.0 | 242 | 7 |
| 2010-01-04T23:41 | 1757 | 823 | 18.6 | 10.0 | 242 | 7 |
| 2010-01-04T23:41 | 1767 | 822 | 18.5 | 10.2 | 241 | 7 |
| 2010-01-04T23:41 | 1779 | 821 | 18.4 | 10.6 | 241 | 7 |
| 2010-01-04T23:41 | 1791 | 820 | 18.3 | 10.9 | 241 | 7 |
| 2010-01-04T23:42 | 1804 | 819 | 18.1 | 11.2 | 241 | 7 |
| 2010-01-04T23:42 | 1816 | 818 | 18.0 | 11.5 | 241 | 7 |
| 2010-01-04T23:42 | 1827 | 817 | 17.8 | 11.9 | 240 | 6 |
| 2010-01-04T23:42 | 1840 | 816 | 17.7 | 12.3 | 240 | 6 |
| 2010-01-04T23:42 | 1852 | 814 | 17.6 | 12.8 | 240 | 6 |
| 2010-01-04T23:42 | 1865 | 813 | 17.4 | 13.1 | 239 | 6 |
| 2010-01-04T23:42 | 1877 | 812 | 17.3 | 13.4 | 239 | 6 |
| 2010-01-04T23:42 | 1889 | 811 | 17.2 | 13.5 | 238 | 6 |
| 2010-01-04T23:42 | 1901 | 810 | 17.2 | 13.6 | 237 | 5 |
| 2010-01-04T23:42 | 1913 | 809 | 17.2 | 13.6 | 236 | 5 |
| 2010-01-04T23:42 | 1924 | 808 | 17.1 | 13.6 | 235 | 5 |
| 2010-01-04T23:42 | 1936 | 806 | 17.1 | 13.6 | 234 | 5 |
| 2010-01-04T23:42 | 1948 | 805 | 17.1 | 13.5 | 234 | 5 |
| 2010-01-04T23:42 | 1961 | 804 | 17.1 | 13.3 | 233 | 5 |
| 2010-01-04T23:42 | 1974 | 803 | 17.0 | 13.2 | 232 | 5 |
| 2010-01-04T23:42 | 1985 | 802 | 17.0 | 12.9 | 232 | 5 |
| 2010-01-04T23:42 | 1997 | 801 | 17.0 | 12.6 | 232 | 5 |
| 2010-01-04T23:42 | 2033 | 797 | 16.8 | 12.2 | 234 | 4 |
| 2010-01-04T23:42 | 2076 | 793 | 16.6 | 12.4 | 239 | 4 |
| 2010-01-04T23:43 | 2135 | 788 | 16.3 | 12.5 | 239 | 4 |
| 2010-01-04T23:43 | 2183 | 783 | 16.0 | 12.3 | 237 | 3 |
| 2010-01-04T23:43 | 2240 | 778 | 15.5 | 12.1 | 238 | 3 |
| 2010-01-04T23:43 | 2296 | 773 | 15.2 | 11.8 | 240 | 4 |
| 2010-01-04T23:43 | 2359 | 767 | 14.9 | 11.4 | 241 | 4 |
| 2010-01-04T23:43 | 2421 | 762 | 14.8 | 11.3 | 247 | 4 |
| 2010-01-04T23:44 | 2474 | 757 | 14.5 | 10.6 | 255 | 3 |
| 2010-01-04T23:44 | 2512 | 754 | 14.4 | 10.3 | 259 | 3 |
| 2010-01-04T23:44 | 2552 | 750 | 14.3 | 10.0 | 260 | 3 |
| 2010-01-04T23:44 | 2591 | 747 | 14.2 | 9.8 | 261 | 3 |
| 2010-01-04T23:44 | 2634 | 743 | 14.0 | 9.6 | 262 | 3 |
| 2010-01-04T23:44 | 2674 | 739 | 13.8 | 9.2 | 264 | 3 |
| 2010-01-04T23:45 | 2713 | 736 | 13.6 | 9.3 | 269 | 3 |
| 2010-01-04T23:45 | 2752 | 733 | 13.4 | 8.9 | 274 | 4 |
| 2010-01-04T23:45 | 2791 | 729 | 13.2 | 8.5 | 277 | 4 |
| 2010-01-04T23:45 | 2832 | 726 | 13.1 | 7.9 | 277 | 4 |
| 2010-01-04T23:45 | 2878 | 722 | 12.7 | 7.7 | 279 | 4 |
| 2010-01-04T23:45 | 2926 | 718 | 12.4 | 7.6 | 280 | 4 |
| 2010-01-04T23:46 | 2977 | 713 | 12.0 | 7.7 | 280 | 4 |
| 2010-01-04T23:46 | 3027 | 709 | 11.7 | 7.3 | 281 | 5 |
| 2010-01-04T23:46 | 3067 | 706 | 11.4 | 6.8 | 284 | 5 |
| 2010-01-04T23:46 | 3109 | 702 | 11.1 | 7.1 | 286 | 5 |
| 2010-01-04T23:46 | 3155 | 698 | 10.9 | 7.2 | 288 | 5 |
| 2010-01-04T23:46 | 3197 | 695 | 10.6 | 6.7 | 288 | 5 |
| 2010-01-04T23:47 | 3254 | 690 | 10.3 | 6.7 | 287 | 6 |
| 2010-01-04T23:47 | 3320 | 685 | 9.8 | 6.5 | 285 | 6 |
| 2010-01-04T23:47 | 3366 | 681 | 9.5 | 6.3 | 286 | 6 |
| 2010-01-04T23:47 | 3409 | 677 | 9.1 | 6.3 | 286 | 6 |
| 2010-01-04T23:47 | 3450 | 674 | 8.9 | 6.0 | 286 | 6 |
| 2010-01-04T23:47 | 3490 | 671 | 8.5 | 5.9 | 284 | 6 |
| 2010-01-04T23:48 | 3535 | 667 | 8.1 | 5.8 | 283 | 5 |
| 2010-01-04T23:48 | 3586 | 663 | 7.8 | 5.5 | 282 | 5 |
| 2010-01-04T23:48 | 3639 | 659 | 7.5 | 4.9 | 279 | 5 |
| 2010-01-04T23:48 | 3682 | 655 | 7.3 | 4.4 | 274 | 5 |
| 2010-01-04T23:48 | 3723 | 652 | 7.1 | 4.4 | 272 | 5 |
| 2010-01-04T23:48 | 3763 | 649 | 6.9 | 4.3 | 272 | 5 |
| 2010-01-04T23:49 | 3806 | 646 | 6.6 | 4.6 | 275 | 4 |
| 2010-01-04T23:49 | 3850 | 642 | 6.4 | 3.9 | 280 | 4 |
| 2010-01-04T23:49 | 3891 | 639 | 6.2 | 4.0 | 287 | 3 |
| 2010-01-04T23:49 | 3933 | 636 | 6.0 | 3.5 | 296 | 3 |
| 2010-01-04T23:49 | 3974 | 632 | 5.6 | 3.3 | 302 | 3 |
| 2010-01-04T23:49 | 4015 | 629 | 5.4 | 3.0 | 302 | 3 |
| 2010-01-04T23:50 | 4057 | 626 | 5.1 | 2.5 | 301 | 3 |
| 2010-01-04T23:50 | 4101 | 623 | 4.9 | 2.5 | 305 | 2 |
| 2010-01-04T23:50 | 4152 | 619 | 4.8 | 2.2 | 311 | 2 |
| 2010-01-04T23:50 | 4197 | 616 | 4.5 | 2.4 | 312 | 2 |
| 2010-01-04T23:50 | 4233 | 613 | 4.5 | 2.0 | 306 | 2 |
| 2010-01-04T23:50 | 4273 | 610 | 4.3 | 1.6 | 300 | 2 |
| 2010-01-04T23:51 | 4313 | 607 | 4.1 | 1.5 | 300 | 2 |
| 2010-01-04T23:51 | 4353 | 604 | 3.8 | 1.5 | 306 | 2 |
| 2010-01-04T23:51 | 4397 | 601 | 3.5 | 1.4 | 313 | 2 |
| 2010-01-04T23:51 | 4465 | 596 | 2.9 | 1.4 | 318 | 1 |
| 2010-01-04T23:51 | 4524 | 591 | 2.3 | 1.3 | 2 | 0 |
| 2010-01-04T23:51 | 4584 | 587 | 2.1 | 1.5 | 52 | 1 |
| 2010-01-04T23:52 | 4638 | 583 | 1.8 | 1.3 | 58 | 2 |
| 2010-01-04T23:52 | 4683 | 580 | 1.6 | 0.9 | 55 | 2 |
| 2010-01-04T23:52 | 4735 | 576 | 1.2 | 0.6 | 43 | 2 |
| 2010-01-04T23:52 | 4776 | 573 | 1.0 | 0.5 | 27 | 2 |
| 2010-01-04T23:52 | 4813 | 570 | 0.9 | 0.0 | 22 | 3 |
| 2010-01-04T23:52 | 4851 | 568 | 0.8 | -0.4 | 25 | 3 |
| 2010-01-04T23:53 | 4889 | 565 | 0.6 | -0.7 | 37 | 2 |
| 2010-01-04T23:53 | 4930 | 562 | 0.6 | -1.3 | 61 | 2 |
| 2010-01-04T23:53 | 4982 | 559 | 0.5 | -1.6 | 80 | 3 |
| 2010-01-04T23:53 | 5026 | 556 | 0.4 | -1.9 | 86 | 4 |
| 2010-01-04T23:53 | 5082 | 552 | 0.2 | -2.7 | 90 | 5 |
| 2010-01-04T23:53 | 5129 | 548 | -0.1 | -3.3 | 93 | 6 |
| 2010-01-04T23:54 | 5165 | 546 | 0.2 | -4.2 | 96 | 6 |
| 2010-01-04T23:54 | 5203 | 543 | 0.0 | -4.3 | 99 | 6 |
| 2010-01-04T23:54 | 5242 | 541 | -0.3 | -4.4 | 102 | 6 |
| 2010-01-04T23:54 | 5291 | 537 | -0.6 | -4.6 | 105 | 6 |
| 2010-01-04T23:54 | 5336 | 535 | -0.9 | -4.6 | 108 | 5 |
| 2010-01-04T23:54 | 5377 | 532 | -1.2 | -4.6 | 110 | 5 |
| 2010-01-04T23:55 | 5419 | 529 | -1.3 | -5.0 | 113 | 4 |
| 2010-01-04T23:55 | 5459 | 526 | -1.6 | -5.3 | 116 | 4 |
| 2010-01-04T23:55 | 5501 | 524 | -1.9 | -5.6 | 120 | 4 |
| 2010-01-04T23:55 | 5543 | 521 | -2.3 | -6.0 | 125 | 4 |
| 2010-01-04T23:55 | 5588 | 518 | -2.6 | -6.2 | 131 | 4 |
| 2010-01-04T23:55 | 5627 | 515 | -2.8 | -6.3 | 136 | 4 |
| 2010-01-04T23:56 | 5666 | 513 | -3.1 | -6.4 | 140 | 4 |
| 2010-01-04T23:56 | 5703 | 510 | -3.4 | -6.6 | 143 | 4 |
| 2010-01-04T23:56 | 5741 | 508 | -3.7 | -6.7 | 145 | 4 |
| 2010-01-04T23:56 | 5791 | 505 | -4.0 | -6.8 | 146 | 4 |
| 2010-01-04T23:56 | 5857 | 501 | -4.5 | -7.0 | 143 | 3 |
| 2010-01-04T23:56 | 5923 | 496 | -4.9 | -7.1 | 131 | 2 |
| 2010-01-04T23:57 | 5963 | 494 | -4.9 | -7.0 | 119 | 2 |
| 2010-01-04T23:57 | 6006 | 491 | -4.8 | -7.6 | 118 | 3 |
| 2010-01-04T23:57 | 6045 | 489 | -4.6 | -8.7 | 120 | 3 |
| 2010-01-04T23:57 | 6083 | 486 | -4.7 | -9.2 | 122 | 3 |
| 2010-01-04T23:57 | 6125 | 484 | -5.0 | -9.3 | 124 | 3 |
| 2010-01-04T23:57 | 6165 | 481 | -5.2 | -9.6 | 128 | 3 |
| 2010-01-04T23:58 | 6206 | 479 | -5.3 | -10.1 | 133 | 3 |
| 2010-01-04T23:58 | 6246 | 476 | -5.2 | -10.1 | 135 | 3 |
| 2010-01-04T23:58 | 6287 | 474 | -5.5 | -10.5 | 139 | 3 |
| 2010-01-04T23:58 | 6333 | 471 | -5.8 | -10.5 | 144 | 4 |
| 2010-01-04T23:58 | 6408 | 467 | -6.2 | -11.0 | 148 | 4 |
| 2010-01-04T23:58 | 6466 | 463 | -6.7 | -11.4 | 148 | 4 |
| 2010-01-04T23:59 | 6512 | 461 | -7.2 | -11.6 | 146 | 4 |
| 2010-01-04T23:59 | 6573 | 457 | -7.8 | -11.7 | 149 | 4 |
| 2010-01-04T23:59 | 6613 | 455 | -8.1 | -12.1 | 158 | 4 |
| 2010-01-04T23:59 | 6651 | 452 | -8.6 | -12.1 | 165 | 3 |
| 2010-01-04T23:59 | 6692 | 450 | -8.9 | -12.1 | 164 | 4 |
| 2010-01-04T23:59 | 6734 | 448 | -9.3 | -12.1 | 159 | 4 |
| 2010-01-05T00:00 | 6778 | 445 | -9.6 | -11.7 | 154 | 5 |
| 2010-01-05T00:00 | 6817 | 443 | -9.1 | -12.3 | 149 | 5 |
| 2010-01-05T00:00 | 6856 | 441 | -9.0 | -13.2 | 148 | 5 |
| 2010-01-05T00:00 | 6896 | 438 | -8.7 | -14.2 | 148 | 5 |
| 2010-01-05T00:00 | 6937 | 436 | -8.8 | -14.6 | 147 | 4 |
| 2010-01-05T00:00 | 6978 | 434 | -9.0 | -15.0 | 141 | 4 |
| 2010-01-05T00:01 | 7020 | 431 | -9.2 | -15.3 | 134 | 4 |
| 2010-01-05T00:01 | 7058 | 429 | -9.3 | -15.7 | 127 | 4 |
| 2010-01-05T00:01 | 7096 | 427 | -9.7 | -16.1 | 121 | 4 |
| 2010-01-05T00:01 | 7139 | 425 | -10.1 | -16.4 | 115 | 4 |
| 2010-01-05T00:01 | 7184 | 422 | -10.3 | -16.8 | 109 | 5 |
| 2010-01-05T00:01 | 7230 | 420 | -10.7 | -17.2 | 105 | 5 |
| 2010-01-05T00:02 | 7272 | 417 | -11.1 | -17.3 | 101 | 5 |
| 2010-01-05T00:02 | 7313 | 415 | -11.5 | -17.4 | 99 | 5 |
| 2010-01-05T00:02 | 7354 | 413 | -11.9 | -17.7 | 99 | 5 |
| 2010-01-05T00:02 | 7395 | 411 | -12.3 | -17.7 | 99 | 5 |
| 2010-01-05T00:02 | 7434 | 409 | -12.6 | -17.8 | 99 | 5 |
| 2010-01-05T00:02 | 7473 | 407 | -12.9 | -17.9 | 99 | 5 |
| 2010-01-05T00:03 | 7514 | 404 | -13.2 | -18.2 | 98 | 5 |
| 2010-01-05T00:03 | 7555 | 402 | -13.6 | -18.7 | 97 | 5 |
| 2010-01-05T00:03 | 7593 | 400 | -13.9 | -19.5 | 96 | 6 |
| 2010-01-05T00:03 | 7633 | 398 | -14.2 | -19.5 | 95 | 6 |
| 2010-01-05T00:03 | 7672 | 396 | -14.5 | -20.1 | 94 | 5 |
| 2010-01-05T00:03 | 7711 | 394 | -14.9 | -20.3 | 95 | 5 |
| 2010-01-05T00:04 | 7748 | 392 | -15.0 | -20.9 | 96 | 5 |
| 2010-01-05T00:04 | 7786 | 390 | -15.2 | -21.4 | 97 | 4 |
| 2010-01-05T00:04 | 7826 | 388 | -15.6 | -21.2 | 97 | 4 |
| 2010-01-05T00:04 | 7866 | 386 | -15.8 | -21.8 | 98 | 4 |
| 2010-01-05T00:04 | 7906 | 384 | -16.1 | -21.8 | 100 | 3 |
| 2010-01-05T00:04 | 7945 | 382 | -16.5 | -21.4 | 104 | 3 |
| 2010-01-05T00:05 | 7985 | 380 | -16.8 | -20.6 | 107 | 3 |
| 2010-01-05T00:05 | 8026 | 378 | -16.9 | -20.8 | 104 | 3 |
| 2010-01-05T00:05 | 8068 | 376 | -17.0 | -23.6 | 98 | 4 |
| 2010-01-05T00:05 | 8108 | 374 | -17.1 | -25.1 | 94 | 4 |
| 2010-01-05T00:05 | 8149 | 372 | -17.4 | -25.7 | 95 | 4 |
| 2010-01-05T00:05 | 8190 | 370 | -17.5 | -25.7 | 100 | 4 |
| 2010-01-05T00:06 | 8233 | 368 | -17.7 | -26.6 | 105 | 4 |
| 2010-01-05T00:06 | 8272 | 366 | -18.0 | -27.5 | 107 | 3 |
| 2010-01-05T00:06 | 8312 | 364 | -18.4 | -27.8 | 109 | 3 |
| 2010-01-05T00:06 | 8354 | 362 | -18.6 | -27.4 | 111 | 3 |
| 2010-01-05T00:06 | 8395 | 360 | -19.0 | -27.2 | 111 | 4 |
| 2010-01-05T00:06 | 8435 | 358 | -19.3 | -28.6 | 110 | 4 |
| 2010-01-05T00:07 | 8477 | 356 | -19.6 | -30.4 | 110 | 4 |
| 2010-01-05T00:07 | 8518 | 354 | -19.9 | -30.3 | 112 | 4 |
| 2010-01-05T00:07 | 8559 | 352 | -20.1 | -30.8 | 114 | 4 |
| 2010-01-05T00:07 | 8599 | 350 | -20.5 | -30.5 | 114 | 4 |
| 2010-01-05T00:07 | 8638 | 348 | -20.8 | -30.2 | 114 | 4 |
| 2010-01-05T00:07 | 8678 | 346 | -21.2 | -29.8 | 114 | 4 |
| 2010-01-05T00:08 | 8717 | 344 | -21.5 | -30.0 | 115 | 4 |
| 2010-01-05T00:08 | 8757 | 343 | -21.9 | -30.0 | 115 | 4 |
| 2010-01-05T00:08 | 8798 | 341 | -22.3 | -30.1 | 113 | 4 |
| 2010-01-05T00:08 | 8839 | 339 | -22.7 | -30.4 | 110 | 4 |
| 2010-01-05T00:08 | 8880 | 337 | -23.0 | -30.4 | 105 | 5 |
| 2010-01-05T00:08 | 8920 | 335 | -23.3 | -30.6 | 103 | 5 |
| 2010-01-05T00:09 | 8961 | 333 | -23.6 | -30.5 | 102 | 5 |
| 2010-01-05T00:09 | 9002 | 331 | -24.0 | -31.1 | 102 | 5 |
| 2010-01-05T00:09 | 9043 | 329 | -24.3 | -31.2 | 100 | 5 |
| 2010-01-05T00:09 | 9087 | 328 | -24.5 | -32.2 | 97 | 5 |
| 2010-01-05T00:09 | 9129 | 326 | -24.8 | -32.2 | 94 | 5 |
| 2010-01-05T00:09 | 9170 | 324 | -25.1 | -32.7 | 91 | 6 |
| 2010-01-05T00:10 | 9210 | 322 | -25.1 | -34.7 | 88 | 6 |
| 2010-01-05T00:10 | 9250 | 320 | -25.2 | -36.7 | 87 | 6 |
| 2010-01-05T00:10 | 9289 | 319 | -25.5 | -37.9 | 88 | 6 |
| 2010-01-05T00:10 | 9330 | 317 | -25.9 | -39.5 | 88 | 7 |
| 2010-01-05T00:10 | 9370 | 315 | -26.2 | -40.4 | 88 | 7 |
| 2010-01-05T00:10 | 9411 | 313 | -26.6 | -41.8 | 87 | 8 |
| 2010-01-05T00:11 | 9453 | 311 | -26.8 | -42.6 | 87 | 8 |
| 2010-01-05T00:11 | 9496 | 310 | -27.0 | -42.7 | 87 | 9 |
| 2010-01-05T00:11 | 9536 | 308 | -27.3 | -43.6 | 86 | 9 |
| 2010-01-05T00:11 | 9578 | 306 | -27.6 | -44.8 | 86 | 9 |
| 2010-01-05T00:11 | 9619 | 304 | -28.0 | -45.8 | 86 | 9 |
| 2010-01-05T00:11 | 9660 | 303 | -28.3 | -46.2 | 86 | 9 |
| 2010-01-05T00:12 | 9701 | 301 | -28.6 | -46.0 | 87 | 9 |
| 2010-01-05T00:12 | 9742 | 299 | -28.9 | -46.1 | 90 | 9 |
| 2010-01-05T00:12 | 9786 | 297 | -29.3 | -45.2 | 91 | 8 |
| 2010-01-05T00:12 | 9831 | 295 | -29.6 | -44.6 | 91 | 8 |
| 2010-01-05T00:12 | 9874 | 294 | -30.0 | -45.0 | 90 | 8 |
| 2010-01-05T00:12 | 9918 | 292 | -30.4 | -43.6 | 89 | 7 |
| 2010-01-05T00:13 | 9963 | 290 | -30.8 | -42.9 | 89 | 7 |
| 2010-01-05T00:13 | 10013 | 288 | -31.4 | -42.9 | 88 | 7 |
| 2010-01-05T00:13 | 10065 | 286 | -31.8 | -43.2 | 86 | 7 |
| 2010-01-05T00:13 | 10110 | 284 | -32.3 | -43.1 | 85 | 7 |
| 2010-01-05T00:13 | 10156 | 282 | -32.7 | -43.0 | 84 | 6 |
| 2010-01-05T00:13 | 10203 | 280 | -33.1 | -43.2 | 83 | 6 |
| 2010-01-05T00:14 | 10249 | 278 | -33.6 | -41.9 | 82 | 6 |
| 2010-01-05T00:14 | 10296 | 277 | -34.0 | -41.2 | 80 | 6 |
| 2010-01-05T00:14 | 10340 | 275 | -34.4 | -41.1 | 77 | 6 |
| 2010-01-05T00:14 | 10382 | 273 | -34.8 | -41.4 | 75 | 6 |
| 2010-01-05T00:14 | 10423 | 272 | -35.1 | -41.9 | 75 | 6 |
| 2010-01-05T00:14 | 10465 | 270 | -35.4 | -42.2 | 77 | 6 |
| 2010-01-05T00:15 | 10506 | 268 | -35.8 | -42.3 | 77 | 6 |
| 2010-01-05T00:15 | 10548 | 267 | -36.1 | -42.8 | 76 | 6 |
| 2010-01-05T00:15 | 10590 | 265 | -36.5 | -43.0 | 76 | 6 |
| 2010-01-05T00:15 | 10631 | 264 | -36.8 | -43.0 | 79 | 6 |
| 2010-01-05T00:15 | 10673 | 262 | -37.0 | -43.0 | 82 | 6 |
| 2010-01-05T00:15 | 10714 | 260 | -37.4 | -43.5 | 86 | 7 |
| 2010-01-05T00:16 | 10756 | 259 | -37.7 | -43.8 | 88 | 7 |
| 2010-01-05T00:16 | 10797 | 257 | -38.0 | -44.2 | 91 | 8 |
| 2010-01-05T00:16 | 10838 | 256 | -38.2 | -44.3 | 92 | 8 |
| 2010-01-05T00:16 | 10881 | 254 | -38.5 | -44.4 | 92 | 9 |
| 2010-01-05T00:16 | 10925 | 253 | -38.8 | -44.6 | 94 | 9 |
| 2010-01-05T00:16 | 10970 | 251 | -39.3 | -44.9 | 96 | 10 |
| 2010-01-05T00:17 | 11012 | 249 | -39.5 | -45.3 | 97 | 10 |
| 2010-01-05T00:17 | 11054 | 248 | -39.8 | -45.9 | 96 | 10 |
| 2010-01-05T00:17 | 11096 | 246 | -40.3 | -46.2 | 94 | 11 |
| 2010-01-05T00:17 | 11137 | 245 | -40.6 | -46.5 | 91 | 11 |
| 2010-01-05T00:17 | 11182 | 243 | -41.0 | -46.3 | 90 | 11 |
| 2010-01-05T00:17 | 11225 | 242 | -41.4 | -46.7 | 90 | 11 |
| 2010-01-05T00:18 | 11269 | 240 | -41.8 | -47.0 | 90 | 10 |
| 2010-01-05T00:18 | 11311 | 239 | -42.2 | -47.2 | 90 | 11 |
| 2010-01-05T00:18 | 11354 | 237 | -42.6 | -47.8 | 89 | 11 |
| 2010-01-05T00:18 | 11400 | 236 | -42.9 | -48.4 | 88 | 11 |
| 2010-01-05T00:18 | 11447 | 234 | -43.4 | -49.2 | 87 | 11 |
| 2010-01-05T00:18 | 11491 | 232 | -43.9 | -49.6 | 86 | 11 |
| 2010-01-05T00:19 | 11534 | 231 | -44.2 | -50.0 | 86 | 11 |
| 2010-01-05T00:19 | 11578 | 229 | -44.5 | -50.9 | 86 | 11 |
| 2010-01-05T00:19 | 11621 | 228 | -45.0 | -51.5 | 86 | 11 |
| 2010-01-05T00:19 | 11667 | 226 | -45.3 | -51.7 | 86 | 11 |
| 2010-01-05T00:19 | 11712 | 225 | -45.8 | -52.1 | 86 | 11 |
| 2010-01-05T00:19 | 11759 | 223 | -46.2 | -52.4 | 86 | 11 |
| 2010-01-05T00:20 | 11802 | 222 | -46.6 | -52.9 | 86 | 11 |
| 2010-01-05T00:20 | 11844 | 220 | -46.9 | -53.2 | 86 | 11 |
| 2010-01-05T00:20 | 11890 | 219 | -47.3 | -53.5 | 85 | 10 |
| 2010-01-05T00:20 | 11934 | 217 | -47.7 | -53.7 | 86 | 10 |
| 2010-01-05T00:20 | 11983 | 216 | -48.2 | -54.2 | 88 | 10 |
| 2010-01-05T00:20 | 12035 | 214 | -48.6 | -55.1 | 92 | 10 |
| 2010-01-05T00:21 | 12084 | 213 | -49.1 | -55.6 | 95 | 11 |
| 2010-01-05T00:21 | 12134 | 211 | -49.5 | -55.9 | 99 | 11 |
| 2010-01-05T00:21 | 12177 | 210 | -49.8 | -56.2 | 101 | 12 |
| 2010-01-05T00:21 | 12222 | 208 | -50.3 | -57.0 | 102 | 13 |
| 2010-01-05T00:21 | 12268 | 207 | -50.7 | -57.4 | 102 | 13 |
| 2010-01-05T00:21 | 12314 | 205 | -51.0 | -57.7 | 102 | 14 |
| 2010-01-05T00:22 | 12358 | 204 | -51.5 | -57.9 | 102 | 14 |
| 2010-01-05T00:22 | 12403 | 202 | -51.8 | -57.6 | 103 | 14 |
| 2010-01-05T00:22 | 12446 | 201 | -52.2 | -57.5 | 104 | 14 |
| 2010-01-05T00:22 | 12489 | 200 | -52.4 | -57.4 | 104 | 14 |
| 2010-01-05T00:22 | 12533 | 198 | -52.8 | -57.8 | 105 | 14 |
| 2010-01-05T00:22 | 12576 | 197 | -53.3 | -58.2 | 105 | 14 |
| 2010-01-05T00:23 | 12620 | 196 | -53.7 | -58.5 | 106 | 14 |
| 2010-01-05T00:23 | 12663 | 194 | -54.1 | -58.9 | 106 | 14 |
| 2010-01-05T00:23 | 12707 | 193 | -54.5 | -59.2 | 105 | 14 |
| 2010-01-05T00:23 | 12750 | 192 | -54.9 | -59.5 | 105 | 14 |
| 2010-01-05T00:23 | 12793 | 190 | -55.3 | -60.0 | 104 | 14 |
| 2010-01-05T00:23 | 12836 | 189 | -55.6 | -60.7 | 104 | 14 |
| 2010-01-05T00:24 | 12880 | 188 | -56.0 | -61.6 | 105 | 15 |
| 2010-01-05T00:24 | 12924 | 187 | -56.3 | -62.6 | 106 | 15 |
| 2010-01-05T00:24 | 12969 | 185 | -56.6 | -63.7 | 107 | 16 |
| 2010-01-05T00:24 | 13011 | 184 | -57.1 | -64.9 | 107 | 16 |
| 2010-01-05T00:24 | 13053 | 183 | -57.4 | -65.5 | 107 | 16 |
| 2010-01-05T00:24 | 13095 | 182 | -57.8 | -66.0 | 107 | 16 |
| 2010-01-05T00:25 | 13136 | 180 | -58.3 | -66.4 | 107 | 16 |
| 2010-01-05T00:25 | 13179 | 179 | -58.6 | -66.7 | 107 | 16 |
| 2010-01-05T00:25 | 13219 | 178 | -59.0 | -67.3 | 106 | 17 |
| 2010-01-05T00:25 | 13262 | 177 | -59.1 | -67.8 | 104 | 17 |
| 2010-01-05T00:25 | 13305 | 176 | -59.2 | -68.6 | 102 | 18 |
| 2010-01-05T00:25 | 13346 | 174 | -59.5 | -69.2 | 103 | 18 |
| 2010-01-05T00:26 | 13391 | 173 | -60.0 | -69.6 | 104 | 18 |
| 2010-01-05T00:26 | 13436 | 172 | -60.3 | -69.5 | 106 | 19 |
| 2010-01-05T00:26 | 13484 | 171 | -60.7 | -69.4 | 108 | 20 |
| 2010-01-05T00:26 | 13530 | 169 | -61.0 | -69.3 | 109 | 21 |
| 2010-01-05T00:26 | 13574 | 168 | -61.4 | -69.3 | 111 | 21 |
| 2010-01-05T00:26 | 13620 | 167 | -61.8 | -69.3 | 112 | 21 |
| 2010-01-05T00:27 | 13666 | 166 | -62.0 | -69.2 | 113 | 21 |
| 2010-01-05T00:27 | 13711 | 165 | -62.4 | -69.4 | 114 | 22 |
| 2010-01-05T00:27 | 13757 | 163 | -62.9 | -69.8 | 115 | 22 |
| 2010-01-05T00:27 | 13804 | 162 | -63.3 | -70.2 | 115 | 22 |
| 2010-01-05T00:27 | 13850 | 161 | -63.8 | -70.7 | 116 | 23 |
| 2010-01-05T00:27 | 13895 | 160 | -64.2 | -71.0 | 116 | 23 |
| 2010-01-05T00:28 | 13940 | 158 | -64.6 | -71.3 | 117 | 23 |
| 2010-01-05T00:28 | 13982 | 157 | -64.9 | -71.7 | 117 | 22 |
| 2010-01-05T00:28 | 14026 | 156 | -65.3 | -72.1 | 118 | 22 |
| 2010-01-05T00:28 | 14070 | 155 | -65.7 | -72.5 | 118 | 22 |
| 2010-01-05T00:28 | 14113 | 154 | -66.3 | -73.3 | 118 | 22 |
| 2010-01-05T00:28 | 14155 | 153 | -66.6 | -73.7 | 118 | 22 |
| 2010-01-05T00:29 | 14196 | 152 | -67.0 | -74.2 | 118 | 22 |
| 2010-01-05T00:29 | 14238 | 151 | -67.4 | -74.6 | 118 | 22 |
| 2010-01-05T00:29 | 14280 | 150 | -67.7 | -74.9 | 118 | 22 |
| 2010-01-05T00:29 | 14325 | 149 | -68.2 | -75.5 | 117 | 22 |
| 2010-01-05T00:29 | 14373 | 148 | -68.6 | -75.9 | 116 | 22 |
| 2010-01-05T00:29 | 14420 | 146 | -69.1 | -76.4 | 115 | 22 |
| 2010-01-05T00:30 | 14466 | 145 | -69.6 | -76.8 | 114 | 22 |
| 2010-01-05T00:30 | 14514 | 144 | -70.1 | -77.3 | 113 | 23 |
| 2010-01-05T00:30 | 14557 | 143 | -70.4 | -77.6 | 112 | 22 |
| 2010-01-05T00:30 | 14602 | 142 | -70.8 | -77.9 | 111 | 22 |
| 2010-01-05T00:30 | 14648 | 141 | -71.1 | -78.2 | 110 | 22 |
| 2010-01-05T00:30 | 14693 | 140 | -71.5 | -78.5 | 109 | 22 |
| 2010-01-05T00:31 | 14738 | 139 | -71.9 | -78.9 | 108 | 22 |
| 2010-01-05T00:31 | 14783 | 138 | -72.4 | -79.4 | 107 | 22 |
| 2010-01-05T00:31 | 14827 | 137 | -72.8 | -79.8 | 107 | 22 |
| 2010-01-05T00:31 | 14872 | 136 | -73.2 | -80.2 | 106 | 22 |
| 2010-01-05T00:31 | 14916 | 135 | -73.6 | -80.5 | 105 | 22 |
| 2010-01-05T00:31 | 14962 | 134 | -74.0 | -80.9 | 104 | 22 |
| 2010-01-05T00:32 | 15008 | 132 | -74.3 | -81.3 | 103 | 22 |
| 2010-01-05T00:32 | 15055 | 131 | -74.7 | -81.6 | 103 | 23 |
| 2010-01-05T00:32 | 15101 | 130 | -75.2 | -82.1 | 102 | 23 |
| 2010-01-05T00:32 | 15149 | 129 | -75.4 | -82.3 | 101 | 23 |
| 2010-01-05T00:32 | 15197 | 128 | -76.0 | -82.9 | 100 | 23 |
| 2010-01-05T00:32 | 15246 | 127 | -76.6 | -83.4 | 100 | 23 |
| 2010-01-05T00:33 | 15292 | 126 | -76.8 | -83.7 | 100 | 23 |
| 2010-01-05T00:33 | 15337 | 125 | -77.3 | -84.2 | 100 | 23 |
| 2010-01-05T00:33 | 15381 | 124 | -77.8 | -84.7 | 100 | 23 |
| 2010-01-05T00:33 | 15429 | 123 | -78.2 | -85.1 | 100 | 23 |
| 2010-01-05T00:33 | 15473 | 122 | -78.5 | -85.4 | 99 | 23 |
| 2010-01-05T00:33 | 15518 | 121 | -79.0 | -85.9 | 97 | 24 |
| 2010-01-05T00:34 | 15560 | 120 | -79.5 | -86.4 | 96 | 24 |
| 2010-01-05T00:34 | 15603 | 119 | -79.8 | -86.7 | 96 | 24 |
| 2010-01-05T00:34 | 15648 | 118 | -80.3 | -87.2 | 96 | 24 |
| 2010-01-05T00:34 | 15694 | 118 | -80.8 | -87.7 | 95 | 25 |
| 2010-01-05T00:34 | 15740 | 117 | -81.0 | -87.9 | 95 | 25 |
| 2010-01-05T00:34 | 15783 | 116 | -81.5 | -88.3 | 95 | 25 |
| 2010-01-05T00:35 | 15829 | 115 | -81.8 | -88.6 | 95 | 26 |
| 2010-01-05T00:35 | 15873 | 114 | -82.2 | -89.1 | 95 | 26 |
| 2010-01-05T00:35 | 15918 | 113 | -82.5 | -89.3 | 96 | 27 |
| 2010-01-05T00:35 | 15963 | 112 | -82.8 | -89.7 | 96 | 27 |
| 2010-01-05T00:35 | 16009 | 111 | -83.1 | -89.9 | 96 | 28 |
| 2010-01-05T00:35 | 16057 | 110 | -83.4 | -90.2 | 95 | 28 |
| 2010-01-05T00:36 | 16105 | 109 | -83.7 | -90.5 | 96 | 28 |
| 2010-01-05T00:36 | 16153 | 108 | -84.2 | -91.1 | 96 | 28 |
| 2010-01-05T00:36 | 16202 | 107 | -84.5 | -91.3 | 96 | 27 |
| 2010-01-05T00:36 | 16250 | 106 | -84.9 | -91.7 | 96 | 27 |
| 2010-01-05T00:36 | 16298 | 105 | -85.2 | -92.0 | 95 | 27 |
| 2010-01-05T00:36 | 16342 | 105 | -85.0 | -91.8 | 93 | 27 |
| 2010-01-05T00:37 | 16388 | 104 | -85.0 | -91.8 | 91 | 27 |
| 2010-01-05T00:37 | 16431 | 103 | -85.3 | -92.1 | 89 | 27 |
| 2010-01-05T00:37 | 16473 | 102 | -85.4 | -92.3 | 86 | 27 |
| 2010-01-05T00:37 | 16514 | 101 | -85.1 | -91.9 | 85 | 28 |
| 2010-01-05T00:37 | 16554 | 101 | -84.9 | -91.8 | 84 | 29 |
| 2010-01-05T00:37 | 16596 | 100 | -83.9 | -90.9 | 85 | 29 |
| 2010-01-05T00:38 | 16640 | 99 | -83.7 | -90.7 | 87 | 27 |
| 2010-01-05T00:38 | 16687 | 98 | -82.8 | -89.9 | 87 | 24 |
| 2010-01-05T00:38 | 16738 | 97 | -80.9 | -88.3 | 86 | 20 |
| 2010-01-05T00:38 | 16790 | 96 | -79.3 | -87.0 | 84 | 16 |
| 2010-01-05T00:38 | 16854 | 95 | -78.8 | -86.5 | 80 | 12 |
| 2010-01-05T00:38 | 16932 | 94 | -77.4 | -85.5 | 79 | 8 |
| 2010-01-05T00:39 | 17011 | 93 | -77.2 | -85.4 | 90 | 3 |
| 2010-01-05T00:39 | 17079 | 92 | -77.2 | -85.6 | 146 | 1 |
| 2010-01-05T00:39 | 17140 | 91 | -77.6 | -86.1 | 240 | 2 |
| 2010-01-05T00:39 | 17196 | 90 | -77.5 | -86.3 | 252 | 5 |
| 2010-01-05T00:39 | 17251 | 89 | -77.7 | -86.6 | 252 | 7 |
| 2010-01-05T00:39 | 17301 | 88 | -77.8 | -86.9 | 249 | 8 |
| 2010-01-05T00:40 | 17350 | 87 | -78.2 | -87.3 | 247 | 8 |
| 2010-01-05T00:40 | 17397 | 87 | -78.6 | -87.9 | 247 | 8 |
| 2010-01-05T00:40 | 17443 | 86 | -78.9 | -88.3 | 248 | 9 |
| 2010-01-05T00:40 | 17490 | 85 | -79.3 | -88.8 | 250 | 9 |
| 2010-01-05T00:40 | 17535 | 85 | -79.7 | -89.3 | 253 | 8 |
| 2010-01-05T00:40 | 17581 | 84 | -80.1 | -89.7 | 258 | 8 |
| 2010-01-05T00:41 | 17625 | 83 | -80.4 | -90.2 | 262 | 9 |
| 2010-01-05T00:41 | 17669 | 83 | -80.8 | -90.5 | 267 | 9 |
| 2010-01-05T00:41 | 17711 | 82 | -81.0 | -90.8 | 273 | 10 |
| 2010-01-05T00:41 | 17753 | 81 | -80.2 | -90.2 | 277 | 11 |
| 2010-01-05T00:41 | 17793 | 81 | -79.7 | -89.9 | 276 | 12 |
| 2010-01-05T00:41 | 17836 | 80 | -79.0 | -89.3 | 272 | 13 |
| 2010-01-05T00:42 | 17876 | 80 | -79.0 | -89.3 | 269 | 14 |
| 2010-01-05T00:42 | 17917 | 79 | -79.1 | -89.4 | 268 | 15 |
| 2010-01-05T00:42 | 17960 | 79 | -79.1 | -89.5 | 268 | 14 |
| 2010-01-05T00:42 | 18003 | 78 | -79.1 | -89.6 | 267 | 14 |
| 2010-01-05T00:42 | 18047 | 77 | -79.1 | -89.6 | 263 | 14 |
| 2010-01-05T00:42 | 18095 | 77 | -78.6 | -89.3 | 257 | 14 |
| 2010-01-05T00:43 | 18141 | 76 | -78.3 | -89.1 | 250 | 14 |
| 2010-01-05T00:43 | 18190 | 75 | -77.7 | -88.6 | 243 | 13 |
| 2010-01-05T00:43 | 18237 | 75 | -77.7 | -88.8 | 239 | 13 |
| 2010-01-05T00:43 | 18285 | 74 | -77.6 | -88.7 | 241 | 12 |
| 2010-01-05T00:43 | 18334 | 74 | -77.6 | -88.8 | 245 | 12 |
| 2010-01-05T00:43 | 18379 | 73 | -77.6 | -88.9 | 246 | 11 |
| 2010-01-05T00:44 | 18427 | 72 | -77.9 | -89.1 | 245 | 11 |
| 2010-01-05T00:44 | 18472 | 72 | -78.2 | -89.5 | 242 | 10 |
| 2010-01-05T00:44 | 18516 | 71 | -78.4 | -89.7 | 242 | 9 |
| 2010-01-05T00:44 | 18561 | 71 | -78.5 | -89.9 | 246 | 8 |
| 2010-01-05T00:44 | 18604 | 70 | -78.2 | -89.7 | 253 | 7 |
| 2010-01-05T00:44 | 18650 | 70 | -77.7 | -89.3 | 261 | 7 |
| 2010-01-05T00:45 | 18696 | 69 | -77.0 | -88.9 | 266 | 7 |
| 2010-01-05T00:45 | 18742 | 69 | -76.3 | -88.3 | 268 | 7 |
| 2010-01-05T00:45 | 18791 | 68 | -75.4 | -87.7 | 271 | 7 |
| 2010-01-05T00:45 | 18841 | 67 | -74.0 | -86.6 | 273 | 8 |
| 2010-01-05T00:45 | 18891 | 67 | -74.0 | -86.7 | 274 | 9 |
| 2010-01-05T00:45 | 18944 | 66 | -74.5 | -87.3 | 273 | 10 |
| 2010-01-05T00:46 | 18997 | 66 | -74.9 | -87.8 | 272 | 11 |
| 2010-01-05T00:46 | 19050 | 65 | -75.1 | -88.1 | 271 | 12 |
| 2010-01-05T00:46 | 19102 | 64 | -75.0 | -88.2 | 270 | 12 |
| 2010-01-05T00:46 | 19154 | 64 | -75.2 | -88.5 | 268 | 11 |
| 2010-01-05T00:46 | 19205 | 63 | -75.1 | -88.6 | 267 | 10 |
| 2010-01-05T00:46 | 19252 | 63 | -74.4 | -88.2 | 266 | 8 |
| 2010-01-05T00:47 | 19300 | 62 | -74.5 | -88.3 | 267 | 8 |
| 2010-01-05T00:47 | 19347 | 62 | -74.2 | -88.2 | 269 | 7 |
| 2010-01-05T00:47 | 19392 | 61 | -73.4 | -87.8 | 272 | 8 |
| 2010-01-05T00:47 | 19436 | 61 | -73.1 | -87.7 | 277 | 8 |
| 2010-01-05T00:47 | 19478 | 60 | -72.7 | -87.5 | 280 | 7 |
| 2010-01-05T00:47 | 19522 | 60 | -71.8 | -87.1 | 281 | 7 |
| 2010-01-05T00:48 | 19566 | 59 | -71.9 | -87.3 | 281 | 7 |
| 2010-01-05T00:48 | 19607 | 59 | -72.2 | -87.7 | 280 | 6 |
| 2010-01-05T00:48 | 19650 | 59 | -72.5 | -88.2 | 278 | 6 |
| 2010-01-05T00:48 | 19692 | 58 | -72.7 | -88.5 | 275 | 5 |
| 2010-01-05T00:48 | 19735 | 58 | -71.9 | -88.2 | 271 | 5 |
| 2010-01-05T00:48 | 19776 | 57 | -71.5 | -88.2 | 264 | 4 |
| 2010-01-05T00:49 | 19819 | 57 | -71.2 | -88.0 | 252 | 4 |
| 2010-01-05T00:49 | 19864 | 57 | -71.2 | -88.3 | 234 | 4 |
| 2010-01-05T00:49 | 19910 | 56 | -71.4 | -88.7 | 217 | 4 |
| 2010-01-05T00:49 | 19958 | 56 | -71.6 | -88.9 | 204 | 4 |
| 2010-01-05T00:49 | 20007 | 55 | -72.2 | -89.6 | 192 | 3 |
| 2010-01-05T00:49 | 20054 | 55 | -72.6 | -90.1 | 181 | 3 |
| 2010-01-05T00:50 | 20102 | 54 | -72.9 | -90.6 | 181 | 3 |
| 2010-01-05T00:50 | 20151 | 54 | -72.8 | -90.7 | 200 | 3 |
| 2010-01-05T00:50 | 20199 | 53 | -72.5 | -90.6 | 225 | 3 |
| 2010-01-05T00:50 | 20246 | 53 | -72.9 | -90.8 | 238 | 4 |
| 2010-01-05T00:50 | 20295 | 53 | -72.9 | -91.0 | 247 | 5 |
| 2010-01-05T00:50 | 20344 | 52 | -72.4 | -90.9 | 256 | 5 |
| 2010-01-05T00:51 | 20392 | 52 | -71.8 | -90.5 | 263 | 6 |
| 2010-01-05T00:51 | 20438 | 51 | -71.6 | -90.4 | 266 | 7 |
| 2010-01-05T00:51 | 20486 | 51 | -71.7 | -90.6 | 266 | 8 |
| 2010-01-05T00:51 | 20536 | 50 | -71.8 | -90.8 | 266 | 8 |
| 2010-01-05T00:51 | 20585 | 50 | -71.1 | -90.4 | 273 | 6 |
| 2010-01-05T00:51 | 20634 | 50 | -70.0 | -89.8 | 290 | 5 |
| 2010-01-05T00:52 | 20683 | 49 | -68.0 | -88.6 | 306 | 5 |
| 2010-01-05T00:52 | 20733 | 49 | -67.5 | -88.3 | 311 | 6 |
| 2010-01-05T00:52 | 20781 | 48 | -67.2 | -88.2 | 313 | 7 |
| 2010-01-05T00:52 | 20831 | 48 | -67.4 | -88.6 | 316 | 7 |
| 2010-01-05T00:52 | 20880 | 48 | -67.3 | -88.9 | 319 | 7 |
| 2010-01-05T00:52 | 20930 | 47 | -67.5 | -89.3 | 321 | 7 |
| 2010-01-05T00:53 | 20982 | 47 | -67.7 | -89.8 | 321 | 7 |
| 2010-01-05T00:53 | 21031 | 46 | -67.8 | -90.2 | 319 | 6 |
| 2010-01-05T00:53 | 21080 | 46 | -68.0 | -90.6 | 318 | 5 |
| 2010-01-05T00:53 | 21130 | 46 | -67.6 | -90.6 | 318 | 5 |
| 2010-01-05T00:53 | 21179 | 45 | -67.5 | -90.7 | 325 | 3 |
| 2010-01-05T00:53 | 21229 | 45 | -67.3 | -90.8 | 342 | 2 |
| 2010-01-05T00:54 | 21280 | 45 | -67.4 | -91.0 | 4 | 1 |
| 2010-01-05T00:54 | 21330 | 44 | -67.7 | -91.3 | 2 | 0 |
| 2010-01-05T00:54 | 21380 | 44 | -67.8 | -91.5 | 240 | 0 |
| 2010-01-05T00:54 | 21428 | 43 | -67.8 | -91.7 | 221 | 1 |
| 2010-01-05T00:54 | 21477 | 43 | -67.8 | -91.9 | 196 | 1 |
| 2010-01-05T00:54 | 21526 | 43 | -67.8 | -92.0 | 134 | 1 |
| 2010-01-05T00:55 | 21576 | 42 | -67.5 | -91.9 | 113 | 4 |
| 2010-01-05T00:55 | 21624 | 42 | -65.5 | -91.0 | 110 | 6 |
| 2010-01-05T00:55 | 21674 | 42 | -65.5 | -90.9 | 109 | 7 |
| 2010-01-05T00:55 | 21722 | 41 | -65.1 | -90.6 | 108 | 7 |
| 2010-01-05T00:55 | 21772 | 41 | -65.4 | -90.9 | 105 | 7 |
| 2010-01-05T00:55 | 21821 | 41 | -65.6 | -91.1 | 101 | 7 |
| 2010-01-05T00:56 | 21873 | 40 | -65.6 | -91.3 | 95 | 8 |
| 2010-01-05T00:56 | 21922 | 40 | -65.7 | -91.4 | 89 | 10 |
| 2010-01-05T00:56 | 21971 | 40 | -66.0 | -91.7 | 85 | 11 |
| 2010-01-05T00:56 | 22021 | 39 | -66.2 | -91.9 | 84 | 12 |
| 2010-01-05T00:56 | 22072 | 39 | -66.4 | -92.2 | 86 | 13 |
| 2010-01-05T00:56 | 22122 | 39 | -66.7 | -92.4 | 91 | 14 |
| 2010-01-05T00:57 | 22173 | 38 | -66.4 | -92.4 | 97 | 14 |
| 2010-01-05T00:57 | 22221 | 38 | -66.1 | -92.3 | 103 | 14 |
| 2010-01-05T00:57 | 22273 | 38 | -66.2 | -92.4 | 107 | 14 |
| 2010-01-05T00:57 | 22321 | 38 | -66.5 | -92.6 | 108 | 14 |
| 2010-01-05T00:57 | 22370 | 37 | -66.7 | -92.7 | 105 | 14 |
| 2010-01-05T00:57 | 22418 | 37 | -66.1 | -92.5 | 97 | 15 |
| 2010-01-05T00:58 | 22466 | 37 | -65.3 | -92.2 | 91 | 16 |
| 2010-01-05T00:58 | 22514 | 36 | -65.2 | -92.0 | 86 | 17 |
| 2010-01-05T00:58 | 22564 | 36 | -65.5 | -92.1 | 83 | 17 |
| 2010-01-05T00:58 | 22612 | 36 | -64.7 | -91.7 | 81 | 17 |
| 2010-01-05T00:58 | 22660 | 35 | -64.4 | -91.7 | 82 | 18 |
| 2010-01-05T00:58 | 22709 | 35 | -63.4 | -91.1 | 84 | 18 |
| 2010-01-05T00:59 | 22760 | 35 | -63.0 | -90.8 | 85 | 19 |
| 2010-01-05T00:59 | 22811 | 35 | -62.1 | -90.3 | 85 | 19 |
| 2010-01-05T00:59 | 22862 | 34 | -61.9 | -90.2 | 84 | 19 |
| 2010-01-05T00:59 | 22912 | 34 | -61.3 | -89.8 | 85 | 20 |
| 2010-01-05T00:59 | 22964 | 34 | -60.8 | -89.6 | 88 | 20 |
| 2010-01-05T00:59 | 23013 | 34 | -60.3 | -89.3 | 91 | 21 |
| 2010-01-05T01:00 | 23068 | 33 | -60.1 | -89.1 | 95 | 22 |
| 2010-01-05T01:00 | 23117 | 33 | -60.1 | -89.1 | 98 | 22 |
| 2010-01-05T01:00 | 23170 | 33 | -60.3 | -89.1 | 100 | 22 |
| 2010-01-05T01:00 | 23224 | 32 | -60.7 | -89.3 | 101 | 22 |
| 2010-01-05T01:00 | 23276 | 32 | -61.0 | -89.5 | 98 | 22 |
| 2010-01-05T01:00 | 23330 | 32 | -60.3 | -89.3 | 95 | 22 |
| 2010-01-05T01:01 | 23383 | 32 | -60.1 | -89.2 | 92 | 23 |
| 2010-01-05T01:01 | 23432 | 31 | -60.1 | -89.2 | 91 | 24 |
| 2010-01-05T01:01 | 23485 | 31 | -60.1 | -89.2 | 89 | 24 |
| 2010-01-05T01:01 | 23539 | 31 | -60.0 | -89.1 | 88 | 24 |
| 2010-01-05T01:01 | 23590 | 31 | -59.8 | -89.0 | 87 | 24 |
| 2010-01-05T01:01 | 23642 | 30 | -58.8 | -88.6 | 85 | 24 |
| 2010-01-05T01:02 | 23690 | 30 | -58.6 | -88.3 | 83 | 23 |
| 2010-01-05T01:02 | 23742 | 30 | -58.3 | -88.1 | 80 | 22 |
| 2010-01-05T01:02 | 23790 | 30 | -58.2 | -87.9 | 79 | 22 |
| 2010-01-05T01:02 | 23840 | 29 | -57.4 | -87.6 | 80 | 21 |
| 2010-01-05T01:02 | 23891 | 29 | -57.3 | -87.4 | 82 | 21 |
| 2010-01-05T01:02 | 23943 | 29 | -57.6 | -87.4 | 85 | 21 |
| 2010-01-05T01:03 | 23995 | 29 | -57.8 | -87.5 | 87 | 21 |
| 2010-01-05T01:03 | 24046 | 28 | -57.9 | -87.5 | 89 | 21 |
| 2010-01-05T01:03 | 24096 | 28 | -58.0 | -87.6 | 90 | 21 |
| 2010-01-05T01:03 | 24150 | 28 | -57.9 | -87.5 | 92 | 22 |
| 2010-01-05T01:03 | 24206 | 28 | -58.0 | -87.6 | 92 | 22 |
| 2010-01-05T01:03 | 24255 | 27 | -58.1 | -87.6 | 91 | 22 |
| 2010-01-05T01:04 | 24306 | 27 | -58.1 | -87.6 | 90 | 22 |
| 2010-01-05T01:04 | 24360 | 27 | -58.2 | -87.6 | 90 | 23 |
| 2010-01-05T01:04 | 24413 | 27 | -58.3 | -87.7 | 91 | 23 |
| 2010-01-05T01:04 | 24461 | 27 | -58.1 | -87.6 | 94 | 24 |
| 2010-01-05T01:04 | 24515 | 26 | -58.0 | -87.6 | 96 | 24 |
| 2010-01-05T01:04 | 24564 | 26 | -58.3 | -87.7 | 96 | 25 |
| 2010-01-05T01:05 | 24614 | 26 | -58.3 | -87.7 | 94 | 27 |
| 2010-01-05T01:05 | 24668 | 26 | -58.3 | -87.7 | 93 | 28 |
| 2010-01-05T01:05 | 24716 | 26 | -57.9 | -87.6 | 92 | 28 |
| 2010-01-05T01:05 | 24770 | 25 | -57.4 | -87.3 | 93 | 28 |
| 2010-01-05T01:05 | 24820 | 25 | -57.5 | -87.2 | 93 | 28 |
| 2010-01-05T01:05 | 24873 | 25 | -57.6 | -87.2 | 94 | 28 |
| 2010-01-05T01:06 | 24927 | 25 | -57.6 | -87.3 | 95 | 28 |
| 2010-01-05T01:06 | 24976 | 25 | -57.4 | -87.1 | 95 | 28 |
| 2010-01-05T01:06 | 25032 | 24 | -57.8 | -87.3 | 95 | 29 |
| 2010-01-05T01:06 | 25081 | 24 | -58.0 | -87.3 | 94 | 29 |
| 2010-01-05T01:06 | 25133 | 24 | -57.9 | -87.3 | 93 | 29 |
| 2010-01-05T01:06 | 25187 | 24 | -58.2 | -87.5 | 91 | 29 |
| 2010-01-05T01:07 | 25234 | 24 | -58.0 | -87.4 | 90 | 29 |
| 2010-01-05T01:07 | 25289 | 23 | -57.9 | -87.3 | 89 | 29 |
| 2010-01-05T01:07 | 25338 | 23 | -58.4 | -87.7 | 89 | 29 |
| 2010-01-05T01:07 | 25392 | 23 | -57.6 | -87.2 | 87 | 28 |
| 2010-01-05T01:07 | 25442 | 23 | -57.4 | -87.2 | 86 | 27 |
| 2010-01-05T01:07 | 25492 | 23 | -57.0 | -87.0 | 86 | 27 |
| 2010-01-05T01:08 | 25545 | 22 | -56.9 | -87.1 | 85 | 28 |
| 2010-01-05T01:08 | 25593 | 22 | -56.3 | -86.9 | 84 | 28 |
| 2010-01-05T01:08 | 25644 | 22 | -56.1 | -86.4 | 83 | 29 |
| 2010-01-05T01:08 | 25695 | 22 | -56.5 | -86.7 | 83 | 29 |
| 2010-01-05T01:08 | 25747 | 22 | -56.3 | -86.2 | 84 | 29 |
| 2010-01-05T01:08 | 25799 | 22 | -56.2 | -86.2 | 85 | 29 |
| 2010-01-05T01:09 | 25847 | 21 | -55.9 | -86.0 | 86 | 30 |
| 2010-01-05T01:09 | 25899 | 21 | -55.3 | -85.8 | 88 | 30 |
| 2010-01-05T01:09 | 25952 | 21 | -54.7 | -85.6 | 89 | 29 |
| 2010-01-05T01:09 | 26003 | 21 | -54.1 | -85.0 | 90 | 29 |
| 2010-01-05T01:09 | 26056 | 21 | -53.4 | -84.5 | 92 | 29 |
| 2010-01-05T11:39 | 4 | 1006 | 26.1 | 26.1 | 0 | 0 |
| 2010-01-05T11:39 | 14 | 1005 | 26.7 | 26.3 | 197 | 0 |
| 2010-01-05T11:39 | 25 | 1004 | 27.4 | 26.3 | 177 | 1 |
| 2010-01-05T11:39 | 36 | 1002 | 27.7 | 26.2 | 182 | 1 |
| 2010-01-05T11:39 | 48 | 1001 | 27.9 | 26.0 | 180 | 1 |
| 2010-01-05T11:39 | 59 | 1000 | 28.0 | 25.8 | 179 | 1 |
| 2010-01-05T11:39 | 69 | 999 | 28.0 | 25.6 | 177 | 1 |
| 2010-01-05T11:39 | 80 | 997 | 28.0 | 25.5 | 175 | 1 |
| 2010-01-05T11:39 | 90 | 996 | 27.9 | 25.4 | 173 | 1 |
| 2010-01-05T11:39 | 100 | 995 | 27.8 | 25.2 | 170 | 1 |
| 2010-01-05T11:39 | 111 | 994 | 27.7 | 25.2 | 167 | 1 |
| 2010-01-05T11:39 | 120 | 993 | 27.6 | 25.1 | 165 | 1 |
| 2010-01-05T11:39 | 129 | 992 | 27.5 | 25.1 | 162 | 1 |
| 2010-01-05T11:39 | 138 | 991 | 27.4 | 25.1 | 159 | 1 |
| 2010-01-05T11:39 | 147 | 990 | 27.4 | 25.1 | 157 | 1 |
| 2010-01-05T11:39 | 156 | 989 | 27.3 | 25.0 | 155 | 1 |
| 2010-01-05T11:39 | 166 | 988 | 27.2 | 25.0 | 153 | 1 |
| 2010-01-05T11:39 | 176 | 987 | 27.1 | 24.9 | 152 | 1 |
| 2010-01-05T11:39 | 185 | 986 | 27.0 | 24.9 | 152 | 1 |
| 2010-01-05T11:39 | 198 | 984 | 26.9 | 24.8 | 152 | 1 |
| 2010-01-05T11:39 | 210 | 983 | 26.8 | 24.7 | 153 | 1 |
| 2010-01-05T11:39 | 221 | 982 | 26.7 | 24.6 | 154 | 1 |
| 2010-01-05T11:39 | 233 | 980 | 26.6 | 24.6 | 156 | 1 |
| 2010-01-05T11:39 | 245 | 979 | 26.5 | 24.6 | 159 | 1 |
| 2010-01-05T11:39 | 257 | 978 | 26.4 | 24.5 | 162 | 1 |
| 2010-01-05T11:39 | 268 | 976 | 26.3 | 24.5 | 165 | 1 |
| 2010-01-05T11:39 | 281 | 975 | 26.2 | 24.4 | 169 | 1 |
| 2010-01-05T11:39 | 293 | 974 | 26.1 | 24.3 | 172 | 1 |
| 2010-01-05T11:39 | 306 | 972 | 25.9 | 24.3 | 175 | 1 |
| 2010-01-05T11:39 | 317 | 971 | 25.8 | 24.3 | 177 | 1 |
| 2010-01-05T11:40 | 329 | 970 | 25.7 | 24.3 | 180 | 1 |
| 2010-01-05T11:40 | 341 | 968 | 25.6 | 24.3 | 182 | 1 |
| 2010-01-05T11:40 | 353 | 967 | 25.5 | 24.2 | 183 | 1 |
| 2010-01-05T11:40 | 366 | 966 | 25.4 | 24.3 | 185 | 1 |
| 2010-01-05T11:40 | 379 | 964 | 25.2 | 24.3 | 186 | 1 |
| 2010-01-05T11:40 | 392 | 963 | 25.1 | 24.2 | 188 | 1 |
| 2010-01-05T11:40 | 403 | 962 | 25.0 | 24.2 | 189 | 2 |
| 2010-01-05T11:40 | 415 | 960 | 24.9 | 24.2 | 191 | 2 |
| 2010-01-05T11:40 | 426 | 959 | 24.8 | 24.2 | 193 | 2 |
| 2010-01-05T11:40 | 437 | 958 | 24.7 | 24.1 | 196 | 2 |
| 2010-01-05T11:40 | 450 | 957 | 24.6 | 24.0 | 199 | 2 |
| 2010-01-05T11:40 | 463 | 955 | 24.6 | 23.7 | 202 | 2 |
| 2010-01-05T11:40 | 476 | 954 | 24.5 | 23.6 | 206 | 1 |
| 2010-01-05T11:40 | 489 | 952 | 24.4 | 23.5 | 210 | 1 |
| 2010-01-05T11:40 | 503 | 951 | 24.4 | 23.3 | 214 | 1 |
| 2010-01-05T11:40 | 513 | 950 | 24.3 | 23.1 | 219 | 1 |
| 2010-01-05T11:40 | 523 | 949 | 24.2 | 23.1 | 224 | 1 |
| 2010-01-05T11:40 | 534 | 948 | 24.1 | 23.0 | 228 | 1 |
| 2010-01-05T11:40 | 547 | 946 | 24.1 | 22.9 | 233 | 1 |
| 2010-01-05T11:40 | 560 | 945 | 24.2 | 22.6 | 237 | 1 |
| 2010-01-05T11:40 | 574 | 943 | 24.1 | 22.4 | 241 | 1 |
| 2010-01-05T11:40 | 588 | 942 | 24.0 | 22.3 | 244 | 1 |
| 2010-01-05T11:40 | 600 | 941 | 23.9 | 22.2 | 246 | 1 |
| 2010-01-05T11:40 | 612 | 939 | 23.9 | 22.1 | 247 | 1 |
| 2010-01-05T11:40 | 625 | 938 | 23.9 | 21.9 | 248 | 1 |
| 2010-01-05T11:40 | 638 | 936 | 23.8 | 21.7 | 248 | 1 |
| 2010-01-05T11:40 | 652 | 935 | 23.7 | 21.6 | 248 | 1 |
| 2010-01-05T11:40 | 665 | 934 | 23.6 | 21.4 | 248 | 1 |
| 2010-01-05T11:40 | 678 | 932 | 23.5 | 21.4 | 247 | 1 |
| 2010-01-05T11:40 | 690 | 931 | 23.4 | 21.3 | 246 | 1 |
| 2010-01-05T11:41 | 701 | 930 | 23.4 | 21.1 | 246 | 2 |
| 2010-01-05T11:41 | 712 | 929 | 23.4 | 20.9 | 247 | 2 |
| 2010-01-05T11:41 | 723 | 927 | 23.4 | 20.7 | 247 | 2 |
| 2010-01-05T11:41 | 735 | 926 | 23.4 | 20.5 | 248 | 2 |
| 2010-01-05T11:41 | 746 | 925 | 23.3 | 20.4 | 249 | 2 |
| 2010-01-05T11:41 | 756 | 924 | 23.3 | 20.2 | 251 | 2 |
| 2010-01-05T11:41 | 766 | 923 | 23.3 | 20.1 | 252 | 2 |
| 2010-01-05T11:41 | 777 | 922 | 23.2 | 20.1 | 253 | 2 |
| 2010-01-05T11:41 | 787 | 921 | 23.2 | 20.1 | 254 | 2 |
| 2010-01-05T11:41 | 797 | 920 | 23.2 | 20.0 | 255 | 2 |
| 2010-01-05T11:41 | 807 | 919 | 23.2 | 20.0 | 256 | 2 |
| 2010-01-05T11:41 | 818 | 917 | 23.2 | 19.8 | 255 | 2 |
| 2010-01-05T11:41 | 829 | 916 | 23.2 | 19.5 | 255 | 2 |
| 2010-01-05T11:41 | 841 | 915 | 23.2 | 19.0 | 254 | 3 |
| 2010-01-05T11:41 | 851 | 914 | 23.2 | 18.7 | 253 | 3 |
| 2010-01-05T11:41 | 861 | 913 | 23.1 | 18.6 | 252 | 3 |
| 2010-01-05T11:41 | 871 | 912 | 23.1 | 18.5 | 250 | 3 |
| 2010-01-05T11:41 | 881 | 911 | 23.0 | 18.3 | 249 | 3 |
| 2010-01-05T11:41 | 892 | 910 | 23.0 | 18.1 | 248 | 3 |
| 2010-01-05T11:41 | 901 | 909 | 23.0 | 18.0 | 246 | 3 |
| 2010-01-05T11:41 | 912 | 908 | 22.9 | 17.8 | 245 | 3 |
| 2010-01-05T11:41 | 923 | 906 | 22.9 | 17.7 | 244 | 3 |
| 2010-01-05T11:41 | 935 | 905 | 22.8 | 17.5 | 243 | 3 |
| 2010-01-05T11:41 | 944 | 904 | 22.7 | 17.4 | 242 | 3 |
| 2010-01-05T11:41 | 954 | 903 | 22.7 | 17.4 | 241 | 3 |
| 2010-01-05T11:41 | 965 | 902 | 22.6 | 17.4 | 240 | 3 |
| 2010-01-05T11:41 | 976 | 901 | 22.5 | 17.5 | 239 | 3 |
| 2010-01-05T11:41 | 987 | 900 | 22.5 | 17.5 | 237 | 3 |
| 2010-01-05T11:41 | 998 | 899 | 22.4 | 17.5 | 236 | 4 |
| 2010-01-05T11:41 | 1011 | 897 | 22.4 | 17.5 | 235 | 4 |
| 2010-01-05T11:42 | 1023 | 896 | 22.3 | 17.4 | 233 | 4 |
| 2010-01-05T11:42 | 1033 | 895 | 22.2 | 17.4 | 231 | 4 |
| 2010-01-05T11:42 | 1044 | 894 | 22.1 | 17.4 | 229 | 4 |
| 2010-01-05T11:42 | 1054 | 893 | 22.0 | 17.4 | 226 | 4 |
| 2010-01-05T11:42 | 1065 | 892 | 21.9 | 17.5 | 224 | 4 |
| 2010-01-05T11:42 | 1075 | 891 | 21.9 | 17.6 | 222 | 4 |
| 2010-01-05T11:42 | 1085 | 890 | 21.9 | 17.6 | 220 | 4 |
| 2010-01-05T11:42 | 1095 | 889 | 21.9 | 17.4 | 217 | 4 |
| 2010-01-05T11:42 | 1106 | 888 | 21.9 | 17.2 | 215 | 4 |
| 2010-01-05T11:42 | 1117 | 886 | 21.8 | 17.0 | 214 | 4 |
| 2010-01-05T11:42 | 1127 | 885 | 21.7 | 17.0 | 212 | 4 |
| 2010-01-05T11:42 | 1135 | 885 | 21.6 | 17.0 | 211 | 4 |
| 2010-01-05T11:42 | 1143 | 884 | 21.6 | 17.0 | 209 | 5 |
| 2010-01-05T11:42 | 1152 | 883 | 21.5 | 16.9 | 208 | 5 |
| 2010-01-05T11:42 | 1161 | 882 | 21.4 | 16.9 | 207 | 5 |
| 2010-01-05T11:42 | 1171 | 881 | 21.3 | 16.9 | 206 | 5 |
| 2010-01-05T11:42 | 1183 | 880 | 21.2 | 16.9 | 205 | 5 |
| 2010-01-05T11:42 | 1194 | 879 | 21.1 | 16.8 | 204 | 4 |
| 2010-01-05T11:42 | 1206 | 877 | 21.0 | 16.8 | 203 | 4 |
| 2010-01-05T11:42 | 1219 | 876 | 20.9 | 16.7 | 202 | 4 |
| 2010-01-05T11:42 | 1230 | 875 | 20.8 | 16.7 | 201 | 4 |
| 2010-01-05T11:42 | 1241 | 874 | 20.7 | 16.7 | 201 | 4 |
| 2010-01-05T11:42 | 1252 | 873 | 20.6 | 16.6 | 200 | 4 |
| 2010-01-05T11:42 | 1262 | 872 | 20.5 | 16.6 | 199 | 4 |
| 2010-01-05T11:42 | 1274 | 871 | 20.4 | 16.6 | 199 | 4 |
| 2010-01-05T11:42 | 1286 | 869 | 20.3 | 16.6 | 198 | 4 |
| 2010-01-05T11:42 | 1299 | 868 | 20.2 | 16.5 | 197 | 4 |
| 2010-01-05T11:42 | 1313 | 867 | 20.1 | 16.5 | 196 | 4 |
| 2010-01-05T11:42 | 1326 | 865 | 20.0 | 16.5 | 195 | 4 |
| 2010-01-05T11:42 | 1336 | 864 | 19.9 | 16.4 | 193 | 4 |
| 2010-01-05T11:43 | 1344 | 864 | 19.8 | 16.5 | 192 | 4 |
| 2010-01-05T11:43 | 1353 | 863 | 19.8 | 16.4 | 190 | 3 |
| 2010-01-05T11:43 | 1362 | 862 | 19.7 | 16.4 | 188 | 3 |
| 2010-01-05T11:43 | 1374 | 861 | 19.6 | 16.4 | 186 | 3 |
| 2010-01-05T11:43 | 1385 | 860 | 19.5 | 16.4 | 185 | 3 |
| 2010-01-05T11:43 | 1397 | 858 | 19.4 | 16.3 | 184 | 3 |
| 2010-01-05T11:43 | 1409 | 857 | 19.3 | 16.3 | 183 | 3 |
| 2010-01-05T11:43 | 1422 | 856 | 19.2 | 16.2 | 183 | 3 |
| 2010-01-05T11:43 | 1435 | 855 | 19.2 | 16.1 | 183 | 3 |
| 2010-01-05T11:43 | 1449 | 853 | 19.1 | 16.1 | 184 | 3 |
| 2010-01-05T11:43 | 1463 | 852 | 19.0 | 15.9 | 185 | 4 |
| 2010-01-05T11:43 | 1477 | 850 | 19.0 | 15.6 | 187 | 4 |
| 2010-01-05T11:43 | 1488 | 849 | 19.0 | 15.5 | 189 | 4 |
| 2010-01-05T11:43 | 1497 | 848 | 18.9 | 15.4 | 191 | 4 |
| 2010-01-05T11:43 | 1504 | 848 | 18.8 | 15.4 | 192 | 4 |
| 2010-01-05T11:43 | 1512 | 847 | 18.8 | 15.4 | 194 | 4 |
| 2010-01-05T11:43 | 1522 | 846 | 18.7 | 15.4 | 196 | 4 |
| 2010-01-05T11:43 | 1533 | 845 | 18.6 | 15.3 | 197 | 4 |
| 2010-01-05T11:43 | 1547 | 844 | 18.6 | 15.3 | 199 | 4 |
| 2010-01-05T11:43 | 1560 | 842 | 18.5 | 15.3 | 199 | 4 |
| 2010-01-05T11:43 | 1573 | 841 | 18.4 | 15.3 | 200 | 4 |
| 2010-01-05T11:43 | 1584 | 840 | 18.3 | 15.3 | 200 | 4 |
| 2010-01-05T11:43 | 1595 | 839 | 18.2 | 15.2 | 200 | 4 |
| 2010-01-05T11:43 | 1605 | 838 | 18.2 | 15.1 | 200 | 4 |
| 2010-01-05T11:43 | 1614 | 837 | 18.1 | 15.0 | 199 | 4 |
| 2010-01-05T11:43 | 1621 | 836 | 18.1 | 15.0 | 198 | 3 |
| 2010-01-05T11:43 | 1628 | 836 | 18.1 | 15.0 | 197 | 3 |
| 2010-01-05T11:43 | 1636 | 835 | 18.1 | 14.9 | 196 | 3 |
| 2010-01-05T11:43 | 1643 | 834 | 18.1 | 14.8 | 195 | 3 |
| 2010-01-05T11:43 | 1652 | 833 | 18.1 | 14.6 | 194 | 3 |
| 2010-01-05T11:44 | 1662 | 832 | 18.1 | 14.5 | 193 | 3 |
| 2010-01-05T11:44 | 1675 | 831 | 18.0 | 14.3 | 191 | 3 |
| 2010-01-05T11:44 | 1688 | 830 | 18.0 | 14.2 | 190 | 3 |
| 2010-01-05T11:44 | 1701 | 829 | 17.9 | 14.1 | 189 | 3 |
| 2010-01-05T11:44 | 1714 | 827 | 17.9 | 14.0 | 187 | 3 |
| 2010-01-05T11:44 | 1726 | 826 | 17.8 | 14.0 | 186 | 3 |
| 2010-01-05T11:44 | 1740 | 825 | 17.7 | 13.8 | 184 | 3 |
| 2010-01-05T11:44 | 1753 | 824 | 17.7 | 13.5 | 182 | 3 |
| 2010-01-05T11:44 | 1764 | 823 | 17.6 | 13.3 | 180 | 2 |
| 2010-01-05T11:44 | 1774 | 822 | 17.6 | 13.4 | 177 | 2 |
| 2010-01-05T11:44 | 1785 | 820 | 17.6 | 13.4 | 175 | 2 |
| 2010-01-05T11:44 | 1799 | 819 | 17.6 | 13.2 | 172 | 2 |
| 2010-01-05T11:44 | 1811 | 818 | 17.7 | 13.1 | 170 | 2 |
| 2010-01-05T11:44 | 1822 | 817 | 17.7 | 13.0 | 168 | 2 |
| 2010-01-05T11:44 | 1833 | 816 | 17.7 | 12.9 | 166 | 2 |
| 2010-01-05T11:44 | 1840 | 815 | 17.6 | 12.9 | 165 | 2 |
| 2010-01-05T11:44 | 1848 | 815 | 17.6 | 13.0 | 165 | 2 |
| 2010-01-05T11:44 | 1855 | 814 | 17.5 | 12.9 | 165 | 2 |
| 2010-01-05T11:44 | 1862 | 813 | 17.5 | 13.1 | 165 | 2 |
| 2010-01-05T11:44 | 1870 | 812 | 17.4 | 13.1 | 166 | 2 |
| 2010-01-05T11:44 | 1880 | 811 | 17.3 | 13.3 | 167 | 2 |
| 2010-01-05T11:44 | 1892 | 810 | 17.3 | 13.4 | 168 | 2 |
| 2010-01-05T11:44 | 1906 | 809 | 17.2 | 13.3 | 169 | 2 |
| 2010-01-05T11:44 | 1919 | 808 | 17.1 | 13.3 | 170 | 2 |
| 2010-01-05T11:44 | 1932 | 807 | 17.1 | 13.1 | 171 | 2 |
| 2010-01-05T11:44 | 1944 | 805 | 17.0 | 12.8 | 172 | 2 |
| 2010-01-05T11:44 | 1955 | 804 | 17.1 | 12.1 | 173 | 2 |
| 2010-01-05T11:44 | 1968 | 803 | 17.2 | 11.5 | 173 | 2 |
| 2010-01-05T11:44 | 1980 | 802 | 17.1 | 11.2 | 174 | 2 |
| 2010-01-05T11:44 | 1993 | 801 | 17.1 | 11.1 | 175 | 2 |
| 2010-01-05T11:45 | 2005 | 800 | 17.0 | 11.1 | 176 | 2 |
| 2010-01-05T11:45 | 2063 | 794 | 16.8 | 11.0 | 184 | 2 |
| 2010-01-05T11:45 | 2122 | 789 | 16.5 | 12.7 | 187 | 2 |
| 2010-01-05T11:45 | 2181 | 783 | 16.5 | 11.2 | 182 | 2 |
| 2010-01-05T11:45 | 2238 | 778 | 16.4 | 10.9 | 181 | 1 |
| 2010-01-05T11:45 | 2301 | 772 | 16.0 | 10.2 | 199 | 1 |
| 2010-01-05T11:46 | 2358 | 767 | 15.6 | 9.9 | 221 | 1 |
| 2010-01-05T11:46 | 2408 | 763 | 15.7 | 8.9 | 221 | 2 |
| 2010-01-05T11:46 | 2466 | 758 | 15.5 | 8.5 | 213 | 3 |
| 2010-01-05T11:46 | 2513 | 753 | 15.2 | 9.6 | 209 | 3 |
| 2010-01-05T11:46 | 2549 | 750 | 14.9 | 9.9 | 212 | 3 |
| 2010-01-05T11:46 | 2592 | 746 | 14.7 | 9.9 | 214 | 3 |
| 2010-01-05T11:47 | 2638 | 742 | 14.4 | 10.1 | 219 | 3 |
| 2010-01-05T11:47 | 2678 | 739 | 14.2 | 10.3 | 232 | 3 |
| 2010-01-05T11:47 | 2733 | 734 | 13.9 | 9.8 | 248 | 3 |
| 2010-01-05T11:47 | 2785 | 730 | 13.6 | 9.5 | 260 | 3 |
| 2010-01-05T11:47 | 2851 | 724 | 13.3 | 8.7 | 266 | 4 |
| 2010-01-05T11:47 | 2901 | 720 | 13.4 | 8.3 | 266 | 4 |
| 2010-01-05T11:48 | 2960 | 715 | 13.2 | 8.2 | 268 | 4 |
| 2010-01-05T11:48 | 3015 | 710 | 12.7 | 7.9 | 270 | 5 |
| 2010-01-05T11:48 | 3074 | 705 | 12.3 | 7.3 | 266 | 5 |
| 2010-01-05T11:48 | 3142 | 699 | 12.1 | 6.1 | 263 | 5 |
| 2010-01-05T11:48 | 3179 | 696 | 11.9 | 6.3 | 265 | 6 |
| 2010-01-05T11:48 | 3231 | 692 | 11.4 | 6.8 | 266 | 6 |
| 2010-01-05T11:49 | 3293 | 687 | 10.9 | 6.9 | 262 | 6 |
| 2010-01-05T11:49 | 3341 | 683 | 10.5 | 6.6 | 257 | 6 |
| 2010-01-05T11:49 | 3385 | 679 | 10.2 | 6.4 | 252 | 5 |
| 2010-01-05T11:49 | 3442 | 675 | 10.0 | 5.6 | 248 | 5 |
| 2010-01-05T11:49 | 3488 | 671 | 9.8 | 5.2 | 249 | 5 |
| 2010-01-05T11:49 | 3538 | 667 | 9.5 | 5.0 | 251 | 4 |
| 2010-01-05T11:50 | 3601 | 662 | 9.2 | 4.7 | 253 | 4 |
| 2010-01-05T11:50 | 3655 | 658 | 8.8 | 4.7 | 257 | 4 |
| 2010-01-05T11:50 | 3715 | 653 | 8.4 | 4.6 | 260 | 4 |
| 2010-01-05T11:50 | 3756 | 650 | 8.0 | 4.5 | 259 | 4 |
| 2010-01-05T11:50 | 3797 | 646 | 7.7 | 4.3 | 255 | 5 |
| 2010-01-05T11:50 | 3850 | 642 | 7.3 | 3.9 | 250 | 5 |
| 2010-01-05T11:51 | 3909 | 638 | 6.9 | 3.1 | 251 | 5 |
| 2010-01-05T11:51 | 3962 | 634 | 6.5 | 3.1 | 259 | 4 |
| 2010-01-05T11:51 | 4025 | 629 | 6.0 | 3.6 | 271 | 3 |
| 2010-01-05T11:51 | 4064 | 626 | 5.7 | 3.5 | 277 | 3 |
| 2010-01-05T11:51 | 4103 | 623 | 5.6 | 3.2 | 277 | 3 |
| 2010-01-05T11:51 | 4142 | 620 | 5.4 | 2.8 | 279 | 3 |
| 2010-01-05T11:52 | 4180 | 617 | 5.2 | 2.8 | 282 | 3 |
| 2010-01-05T11:52 | 4228 | 613 | 4.8 | 2.8 | 282 | 3 |
| 2010-01-05T11:52 | 4293 | 608 | 4.3 | 2.5 | 283 | 2 |
| 2010-01-05T11:52 | 4356 | 604 | 3.8 | 2.2 | 286 | 1 |
| 2010-01-05T11:52 | 4416 | 599 | 3.5 | 2.3 | 269 | 1 |
| 2010-01-05T11:52 | 4460 | 596 | 3.2 | 2.1 | 248 | 1 |
| 2010-01-05T11:53 | 4514 | 592 | 2.7 | 1.9 | 242 | 1 |
| 2010-01-05T11:53 | 4562 | 589 | 2.3 | 1.4 | 261 | 1 |
| 2010-01-05T11:53 | 4601 | 586 | 2.3 | 1.2 | 299 | 1 |
| 2010-01-05T11:53 | 4640 | 583 | 2.0 | 0.9 | 319 | 1 |
| 2010-01-05T11:53 | 4679 | 580 | 1.6 | 0.6 | 333 | 0 |
| 2010-01-05T11:53 | 4720 | 577 | 1.3 | 0.7 | 356 | 0 |
| 2010-01-05T11:54 | 4757 | 575 | 1.0 | 0.6 | 0 | 0 |
| 2010-01-05T11:54 | 4796 | 572 | 0.8 | 0.7 | 136 | 0 |
| 2010-01-05T11:54 | 4841 | 569 | 0.7 | 0.7 | 149 | 1 |
| 2010-01-05T11:54 | 4884 | 566 | 0.6 | 0.2 | 144 | 1 |
| 2010-01-05T11:54 | 4929 | 563 | 0.4 | -0.9 | 122 | 1 |
| 2010-01-05T11:54 | 4973 | 559 | 0.1 | -1.0 | 102 | 2 |
| 2010-01-05T11:55 | 5019 | 556 | -0.4 | -1.2 | 93 | 2 |
| 2010-01-05T11:55 | 5062 | 553 | -0.7 | -1.4 | 102 | 1 |
| 2010-01-05T11:55 | 5108 | 550 | -1.1 | -1.3 | 156 | 1 |
| 2010-01-05T11:55 | 5150 | 547 | -1.4 | -1.5 | 182 | 1 |
| 2010-01-05T11:55 | 5197 | 544 | -1.8 | -1.8 | 177 | 1 |
| 2010-01-05T11:55 | 5245 | 541 | -2.0 | -2.0 | 172 | 1 |
| 2010-01-05T11:56 | 5292 | 538 | -2.4 | -2.4 | 163 | 1 |
| 2010-01-05T11:56 | 5350 | 534 | -2.4 | -2.5 | 136 | 1 |
| 2010-01-05T11:56 | 5389 | 531 | -2.3 | -3.1 | 117 | 2 |
| 2010-01-05T11:56 | 5434 | 528 | -2.6 | -4.3 | 113 | 2 |
| 2010-01-05T11:56 | 5482 | 525 | -2.9 | -4.5 | 121 | 1 |
| 2010-01-05T11:56 | 5531 | 522 | -3.1 | -4.8 | 130 | 2 |
| 2010-01-05T11:57 | 5582 | 518 | -3.4 | -4.9 | 131 | 2 |
| 2010-01-05T11:57 | 5634 | 515 | -3.6 | -5.4 | 131 | 3 |
| 2010-01-05T11:57 | 5677 | 512 | -3.9 | -5.8 | 133 | 3 |
| 2010-01-05T11:57 | 5717 | 510 | -4.2 | -5.8 | 136 | 3 |
| 2010-01-05T11:57 | 5753 | 507 | -4.5 | -5.8 | 136 | 3 |
| 2010-01-05T11:57 | 5792 | 505 | -4.7 | -5.7 | 135 | 3 |
| 2010-01-05T11:58 | 5833 | 502 | -4.6 | -5.9 | 134 | 3 |
| 2010-01-05T11:58 | 5877 | 499 | -4.7 | -6.0 | 134 | 3 |
| 2010-01-05T11:58 | 5924 | 496 | -4.9 | -6.3 | 136 | 3 |
| 2010-01-05T11:58 | 5971 | 493 | -5.1 | -6.7 | 138 | 3 |
| 2010-01-05T11:58 | 6011 | 491 | -5.3 | -7.4 | 142 | 3 |
| 2010-01-05T11:58 | 6054 | 488 | -5.5 | -8.2 | 146 | 3 |
| 2010-01-05T11:59 | 6100 | 485 | -5.7 | -8.8 | 146 | 3 |
| 2010-01-05T11:59 | 6148 | 482 | -5.8 | -9.2 | 145 | 3 |
| 2010-01-05T11:59 | 6201 | 479 | -6.1 | -9.4 | 143 | 3 |
| 2010-01-05T11:59 | 6248 | 476 | -6.5 | -9.5 | 145 | 3 |
| 2010-01-05T11:59 | 6298 | 473 | -6.9 | -9.3 | 148 | 2 |
| 2010-01-05T11:59 | 6338 | 471 | -7.3 | -9.3 | 150 | 2 |
| 2010-01-05T12:00 | 6378 | 468 | -7.7 | -9.4 | 151 | 3 |
| 2010-01-05T12:00 | 6418 | 466 | -7.9 | -9.7 | 152 | 3 |
| 2010-01-05T12:00 | 6453 | 464 | -8.2 | -9.7 | 152 | 3 |
| 2010-01-05T12:00 | 6489 | 462 | -8.5 | -9.8 | 150 | 3 |
| 2010-01-05T12:00 | 6526 | 460 | -8.7 | -10.4 | 149 | 3 |
| 2010-01-05T12:00 | 6564 | 457 | -8.9 | -10.5 | 148 | 4 |
| 2010-01-05T12:01 | 6602 | 455 | -9.1 | -10.8 | 143 | 3 |
| 2010-01-05T12:01 | 6643 | 453 | -9.4 | -11.5 | 135 | 3 |
| 2010-01-05T12:01 | 6682 | 450 | -9.6 | -11.6 | 129 | 3 |
| 2010-01-05T12:01 | 6722 | 448 | -9.8 | -11.6 | 129 | 2 |
| 2010-01-05T12:01 | 6769 | 445 | -10.0 | -11.4 | 134 | 2 |
| 2010-01-05T12:01 | 6807 | 443 | -10.2 | -11.5 | 140 | 3 |
| 2010-01-05T12:02 | 6844 | 441 | -10.6 | -11.6 | 145 | 3 |
| 2010-01-05T12:02 | 6880 | 439 | -10.9 | -11.9 | 150 | 3 |
| 2010-01-05T12:02 | 6917 | 437 | -11.3 | -11.9 | 153 | 3 |
| 2010-01-05T12:02 | 6953 | 435 | -11.5 | -12.0 | 149 | 4 |
| 2010-01-05T12:02 | 6991 | 433 | -11.5 | -12.6 | 140 | 3 |
| 2010-01-05T12:02 | 7035 | 430 | -11.4 | -13.1 | 127 | 3 |
| 2010-01-05T12:03 | 7081 | 428 | -11.8 | -13.6 | 115 | 3 |
| 2010-01-05T12:03 | 7124 | 425 | -12.0 | -14.4 | 106 | 4 |
| 2010-01-05T12:03 | 7174 | 422 | -11.9 | -18.8 | 101 | 4 |
| 2010-01-05T12:03 | 7220 | 420 | -12.0 | -19.3 | 101 | 4 |
| 2010-01-05T12:03 | 7259 | 418 | -12.2 | -20.4 | 104 | 4 |
| 2010-01-05T12:03 | 7302 | 415 | -12.3 | -21.6 | 107 | 4 |
| 2010-01-05T12:04 | 7337 | 414 | -12.3 | -21.8 | 107 | 3 |
| 2010-01-05T12:04 | 7375 | 412 | -12.6 | -22.2 | 108 | 3 |
| 2010-01-05T12:04 | 7413 | 409 | -12.8 | -21.5 | 106 | 3 |
| 2010-01-05T12:04 | 7452 | 407 | -13.0 | -22.5 | 102 | 3 |
| 2010-01-05T12:04 | 7492 | 405 | -13.3 | -22.5 | 96 | 4 |
| 2010-01-05T12:04 | 7533 | 403 | -13.6 | -22.6 | 91 | 4 |
| 2010-01-05T12:05 | 7571 | 401 | -13.9 | -22.5 | 88 | 4 |
| 2010-01-05T12:05 | 7612 | 399 | -14.2 | -19.1 | 84 | 4 |
| 2010-01-05T12:05 | 7656 | 397 | -14.5 | -19.2 | 79 | 4 |
| 2010-01-05T12:05 | 7695 | 395 | -14.4 | -21.6 | 75 | 4 |
| 2010-01-05T12:05 | 7735 | 392 | -14.5 | -24.1 | 74 | 4 |
| 2010-01-05T12:05 | 7774 | 390 | -14.7 | -23.8 | 74 | 4 |
| 2010-01-05T12:06 | 7812 | 389 | -14.8 | -28.5 | 74 | 4 |
| 2010-01-05T12:06 | 7851 | 387 | -15.1 | -24.7 | 73 | 4 |
| 2010-01-05T12:06 | 7888 | 385 | -15.4 | -22.1 | 72 | 4 |
| 2010-01-05T12:06 | 7925 | 383 | -15.5 | -26.5 | 73 | 4 |
| 2010-01-05T12:06 | 7963 | 381 | -15.7 | -29.3 | 75 | 4 |
| 2010-01-05T12:06 | 8004 | 379 | -16.0 | -28.2 | 77 | 5 |
| 2010-01-05T12:07 | 8053 | 376 | -16.3 | -28.2 | 76 | 4 |
| 2010-01-05T12:07 | 8096 | 374 | -16.6 | -30.9 | 74 | 4 |
| 2010-01-05T12:07 | 8135 | 372 | -16.8 | -32.1 | 74 | 4 |
| 2010-01-05T12:07 | 8173 | 370 | -17.1 | -30.1 | 74 | 4 |
| 2010-01-05T12:07 | 8210 | 369 | -17.2 | -29.0 | 75 | 4 |
| 2010-01-05T12:07 | 8249 | 367 | -17.4 | -30.4 | 76 | 4 |
| 2010-01-05T12:08 | 8288 | 365 | -17.6 | -32.6 | 78 | 4 |
| 2010-01-05T12:08 | 8332 | 363 | -18.0 | -33.5 | 80 | 4 |
| 2010-01-05T12:08 | 8372 | 361 | -18.3 | -34.5 | 83 | 4 |
| 2010-01-05T12:08 | 8415 | 359 | -18.5 | -35.0 | 86 | 4 |
| 2010-01-05T12:08 | 8455 | 357 | -18.8 | -35.7 | 87 | 4 |
| 2010-01-05T12:08 | 8494 | 355 | -19.1 | -34.7 | 88 | 4 |
| 2010-01-05T12:09 | 8536 | 353 | -19.5 | -34.8 | 88 | 4 |
| 2010-01-05T12:09 | 8577 | 351 | -19.9 | -35.7 | 88 | 4 |
| 2010-01-05T12:09 | 8616 | 349 | -20.1 | -36.3 | 90 | 4 |
| 2010-01-05T12:09 | 8655 | 347 | -20.5 | -36.3 | 92 | 4 |
| 2010-01-05T12:09 | 8695 | 345 | -20.8 | -36.6 | 95 | 4 |
| 2010-01-05T12:09 | 8736 | 343 | -21.1 | -35.3 | 98 | 4 |
| 2010-01-05T12:10 | 8779 | 341 | -21.5 | -34.0 | 100 | 4 |
| 2010-01-05T12:10 | 8818 | 340 | -21.7 | -35.3 | 102 | 4 |
| 2010-01-05T12:10 | 8857 | 338 | -22.0 | -36.9 | 104 | 4 |
| 2010-01-05T12:10 | 8898 | 336 | -22.3 | -37.3 | 105 | 4 |
| 2010-01-05T12:10 | 8941 | 334 | -22.8 | -37.4 | 103 | 4 |
| 2010-01-05T12:10 | 8991 | 332 | -23.1 | -37.0 | 98 | 5 |
| 2010-01-05T12:11 | 9048 | 329 | -23.5 | -35.7 | 92 | 5 |
| 2010-01-05T12:11 | 9101 | 327 | -24.0 | -35.7 | 88 | 5 |
| 2010-01-05T12:11 | 9149 | 325 | -24.4 | -35.2 | 86 | 6 |
| 2010-01-05T12:11 | 9198 | 322 | -24.9 | -35.3 | 85 | 6 |
| 2010-01-05T12:11 | 9242 | 320 | -25.3 | -35.8 | 86 | 5 |
| 2010-01-05T12:11 | 9283 | 319 | -25.6 | -35.7 | 87 | 5 |
| 2010-01-05T12:12 | 9326 | 317 | -26.1 | -35.6 | 88 | 5 |
| 2010-01-05T12:12 | 9369 | 315 | -26.3 | -33.5 | 92 | 5 |
| 2010-01-05T12:12 | 9413 | 313 | -26.7 | -32.9 | 94 | 5 |
| 2010-01-05T12:12 | 9458 | 311 | -27.1 | -32.4 | 92 | 5 |
| 2010-01-05T12:12 | 9500 | 309 | -27.5 | -32.3 | 87 | 6 |
| 2010-01-05T12:12 | 9541 | 307 | -27.9 | -32.2 | 81 | 6 |
| 2010-01-05T12:13 | 9581 | 306 | -28.3 | -31.8 | 78 | 7 |
| 2010-01-05T12:13 | 9623 | 304 | -28.4 | -31.9 | 79 | 7 |
| 2010-01-05T12:13 | 9667 | 302 | -28.8 | -32.3 | 80 | 8 |
| 2010-01-05T12:13 | 9710 | 300 | -29.1 | -32.5 | 80 | 9 |
| 2010-01-05T12:13 | 9747 | 299 | -29.2 | -32.5 | 81 | 10 |
| 2010-01-05T12:13 | 9786 | 297 | -29.5 | -32.7 | 81 | 10 |
| 2010-01-05T12:14 | 9823 | 296 | -29.6 | -33.1 | 80 | 10 |
| 2010-01-05T12:14 | 9862 | 294 | -29.9 | -33.5 | 78 | 10 |
| 2010-01-05T12:14 | 9901 | 292 | -30.1 | -33.7 | 75 | 10 |
| 2010-01-05T12:14 | 9939 | 291 | -30.3 | -33.8 | 73 | 11 |
| 2010-01-05T12:14 | 9980 | 289 | -30.6 | -34.4 | 69 | 11 |
| 2010-01-05T12:14 | 10019 | 288 | -30.9 | -34.5 | 67 | 11 |
| 2010-01-05T12:15 | 10057 | 286 | -31.2 | -34.7 | 65 | 11 |
| 2010-01-05T12:15 | 10096 | 284 | -31.6 | -34.9 | 66 | 11 |
| 2010-01-05T12:15 | 10135 | 283 | -31.9 | -35.2 | 67 | 11 |
| 2010-01-05T12:15 | 10174 | 281 | -32.2 | -35.5 | 68 | 11 |
| 2010-01-05T12:15 | 10215 | 280 | -32.5 | -36.0 | 69 | 11 |
| 2010-01-05T12:15 | 10256 | 278 | -32.8 | -36.5 | 72 | 11 |
| 2010-01-05T12:16 | 10297 | 276 | -33.1 | -36.8 | 75 | 12 |
| 2010-01-05T12:16 | 10341 | 275 | -33.5 | -37.0 | 76 | 12 |
| 2010-01-05T12:16 | 10383 | 273 | -33.8 | -37.2 | 77 | 12 |
| 2010-01-05T12:16 | 10424 | 271 | -34.1 | -37.6 | 78 | 12 |
| 2010-01-05T12:16 | 10466 | 270 | -34.4 | -37.9 | 78 | 13 |
| 2010-01-05T12:16 | 10509 | 268 | -34.7 | -38.3 | 77 | 13 |
| 2010-01-05T12:17 | 10551 | 267 | -35.0 | -38.9 | 77 | 14 |
| 2010-01-05T12:17 | 10593 | 265 | -35.4 | -39.1 | 79 | 14 |
| 2010-01-05T12:17 | 10636 | 263 | -35.7 | -39.5 | 81 | 13 |
| 2010-01-05T12:17 | 10684 | 262 | -36.1 | -39.9 | 82 | 13 |
| 2010-01-05T12:17 | 10731 | 260 | -36.5 | -40.3 | 82 | 12 |
| 2010-01-05T12:17 | 10774 | 258 | -36.9 | -40.7 | 83 | 12 |
| 2010-01-05T12:18 | 10818 | 257 | -37.2 | -41.6 | 83 | 12 |
| 2010-01-05T12:18 | 10862 | 255 | -37.6 | -42.2 | 83 | 12 |
| 2010-01-05T12:18 | 10905 | 253 | -38.0 | -43.0 | 84 | 12 |
| 2010-01-05T12:18 | 10950 | 252 | -38.4 | -43.5 | 84 | 12 |
| 2010-01-05T12:18 | 10991 | 250 | -38.7 | -45.2 | 85 | 12 |
| 2010-01-05T12:18 | 11035 | 249 | -39.0 | -45.8 | 87 | 12 |
| 2010-01-05T12:19 | 11078 | 247 | -39.3 | -46.9 | 89 | 12 |
| 2010-01-05T12:19 | 11121 | 245 | -39.7 | -47.2 | 90 | 12 |
| 2010-01-05T12:19 | 11163 | 244 | -40.1 | -47.5 | 91 | 12 |
| 2010-01-05T12:19 | 11202 | 243 | -40.4 | -48.0 | 92 | 12 |
| 2010-01-05T12:19 | 11244 | 241 | -40.7 | -49.3 | 93 | 12 |
| 2010-01-05T12:19 | 11283 | 240 | -41.1 | -50.1 | 94 | 12 |
| 2010-01-05T12:20 | 11322 | 238 | -41.4 | -50.7 | 95 | 12 |
| 2010-01-05T12:20 | 11363 | 237 | -41.8 | -50.9 | 95 | 12 |
| 2010-01-05T12:20 | 11403 | 235 | -42.1 | -51.0 | 94 | 12 |
| 2010-01-05T12:20 | 11445 | 234 | -42.5 | -51.7 | 93 | 13 |
| 2010-01-05T12:20 | 11489 | 232 | -42.9 | -52.1 | 93 | 13 |
| 2010-01-05T12:20 | 11532 | 231 | -43.3 | -52.5 | 94 | 12 |
| 2010-01-05T12:21 | 11576 | 230 | -43.7 | -52.8 | 94 | 12 |
| 2010-01-05T12:21 | 11620 | 228 | -44.1 | -53.0 | 94 | 12 |
| 2010-01-05T12:21 | 11664 | 227 | -44.5 | -53.2 | 94 | 12 |
| 2010-01-05T12:21 | 11708 | 225 | -44.9 | -53.4 | 94 | 13 |
| 2010-01-05T12:21 | 11752 | 224 | -45.3 | -53.0 | 93 | 13 |
| 2010-01-05T12:21 | 11799 | 222 | -45.8 | -53.0 | 92 | 13 |
| 2010-01-05T12:22 | 11846 | 220 | -46.2 | -53.1 | 92 | 13 |
| 2010-01-05T12:22 | 11890 | 219 | -46.6 | -53.2 | 93 | 13 |
| 2010-01-05T12:22 | 11935 | 217 | -47.1 | -53.7 | 92 | 13 |
| 2010-01-05T12:22 | 11982 | 216 | -47.5 | -53.9 | 91 | 14 |
| 2010-01-05T12:22 | 12026 | 215 | -47.9 | -54.2 | 89 | 14 |
| 2010-01-05T12:22 | 12070 | 213 | -48.3 | -54.4 | 89 | 14 |
| 2010-01-05T12:23 | 12114 | 212 | -48.7 | -54.7 | 89 | 14 |
| 2010-01-05T12:23 | 12157 | 210 | -49.1 | -54.8 | 89 | 14 |
| 2010-01-05T12:23 | 12202 | 209 | -49.5 | -55.0 | 88 | 13 |
| 2010-01-05T12:23 | 12246 | 207 | -49.9 | -55.1 | 88 | 13 |
| 2010-01-05T12:23 | 12290 | 206 | -50.4 | -55.2 | 88 | 13 |
| 2010-01-05T12:23 | 12331 | 205 | -50.7 | -55.3 | 88 | 13 |
| 2010-01-05T12:24 | 12372 | 203 | -51.1 | -55.6 | 87 | 13 |
| 2010-01-05T12:24 | 12413 | 202 | -51.5 | -55.7 | 87 | 13 |
| 2010-01-05T12:24 | 12455 | 201 | -51.9 | -56.0 | 87 | 13 |
| 2010-01-05T12:24 | 12498 | 200 | -52.3 | -56.4 | 86 | 13 |
| 2010-01-05T12:24 | 12542 | 198 | -52.7 | -56.7 | 86 | 13 |
| 2010-01-05T12:24 | 12584 | 197 | -53.1 | -56.9 | 86 | 13 |
| 2010-01-05T12:25 | 12627 | 196 | -53.5 | -56.9 | 86 | 13 |
| 2010-01-05T12:25 | 12669 | 194 | -53.9 | -57.2 | 85 | 13 |
| 2010-01-05T12:25 | 12713 | 193 | -54.3 | -57.6 | 85 | 13 |
| 2010-01-05T12:25 | 12758 | 192 | -54.6 | -58.0 | 85 | 13 |
| 2010-01-05T12:25 | 12802 | 190 | -55.0 | -58.3 | 86 | 13 |
| 2010-01-05T12:25 | 12849 | 189 | -55.4 | -58.6 | 88 | 13 |
| 2010-01-05T12:26 | 12895 | 188 | -55.8 | -59.0 | 90 | 13 |
| 2010-01-05T12:26 | 12943 | 186 | -56.1 | -59.4 | 91 | 13 |
| 2010-01-05T12:26 | 12989 | 185 | -56.5 | -59.8 | 92 | 14 |
| 2010-01-05T12:26 | 13038 | 183 | -56.9 | -60.1 | 94 | 14 |
| 2010-01-05T12:26 | 13083 | 182 | -57.3 | -60.4 | 95 | 14 |
| 2010-01-05T12:26 | 13128 | 181 | -57.7 | -60.8 | 96 | 14 |
| 2010-01-05T12:27 | 13174 | 179 | -58.0 | -61.3 | 97 | 15 |
| 2010-01-05T12:27 | 13220 | 178 | -58.4 | -61.9 | 98 | 15 |
| 2010-01-05T12:27 | 13269 | 177 | -58.8 | -62.6 | 99 | 15 |
| 2010-01-05T12:27 | 13317 | 175 | -59.3 | -63.2 | 101 | 16 |
| 2010-01-05T12:27 | 13367 | 174 | -59.6 | -63.6 | 103 | 16 |
| 2010-01-05T12:27 | 13415 | 173 | -60.0 | -64.2 | 105 | 16 |
| 2010-01-05T12:28 | 13463 | 171 | -60.4 | -64.7 | 105 | 16 |
| 2010-01-05T12:28 | 13511 | 170 | -60.8 | -65.3 | 105 | 16 |
| 2010-01-05T12:28 | 13558 | 169 | -61.3 | -65.8 | 105 | 15 |
| 2010-01-05T12:28 | 13604 | 168 | -61.6 | -66.2 | 104 | 15 |
| 2010-01-05T12:28 | 13651 | 166 | -62.0 | -66.6 | 104 | 15 |
| 2010-01-05T12:28 | 13696 | 165 | -62.3 | -67.0 | 105 | 16 |
| 2010-01-05T12:29 | 13742 | 164 | -62.3 | -67.1 | 106 | 16 |
| 2010-01-05T12:29 | 13787 | 163 | -62.7 | -67.4 | 106 | 16 |
| 2010-01-05T12:29 | 13832 | 161 | -63.1 | -67.9 | 107 | 17 |
| 2010-01-05T12:29 | 13879 | 160 | -63.5 | -68.3 | 107 | 17 |
| 2010-01-05T12:29 | 13925 | 159 | -63.9 | -68.7 | 106 | 17 |
| 2010-01-05T12:29 | 13970 | 158 | -64.4 | -69.0 | 105 | 17 |
| 2010-01-05T12:30 | 14018 | 157 | -64.7 | -69.4 | 104 | 17 |
| 2010-01-05T12:30 | 14064 | 155 | -65.2 | -69.7 | 103 | 17 |
| 2010-01-05T12:30 | 14110 | 154 | -65.6 | -70.1 | 104 | 18 |
| 2010-01-05T12:30 | 14159 | 153 | -66.1 | -70.5 | 105 | 19 |
| 2010-01-05T12:30 | 14209 | 152 | -66.5 | -70.9 | 105 | 19 |
| 2010-01-05T12:30 | 14260 | 151 | -67.0 | -71.4 | 106 | 19 |
| 2010-01-05T12:31 | 14311 | 149 | -67.5 | -71.8 | 106 | 20 |
| 2010-01-05T12:31 | 14360 | 148 | -67.9 | -72.1 | 107 | 20 |
| 2010-01-05T12:31 | 14407 | 147 | -68.3 | -72.4 | 108 | 21 |
| 2010-01-05T12:31 | 14456 | 146 | -68.6 | -72.6 | 108 | 21 |
| 2010-01-05T12:31 | 14509 | 144 | -69.1 | -73.0 | 108 | 22 |
| 2010-01-05T12:31 | 14565 | 143 | -69.6 | -73.3 | 109 | 22 |
| 2010-01-05T12:32 | 14619 | 142 | -70.2 | -73.8 | 110 | 22 |
| 2010-01-05T12:32 | 14675 | 140 | -70.7 | -74.2 | 111 | 22 |
| 2010-01-05T12:32 | 14721 | 139 | -71.1 | -74.6 | 112 | 22 |
| 2010-01-05T12:32 | 14769 | 138 | -71.5 | -75.0 | 112 | 22 |
| 2010-01-05T12:32 | 14817 | 137 | -72.0 | -75.4 | 112 | 22 |
| 2010-01-05T12:32 | 14866 | 136 | -72.4 | -75.9 | 111 | 22 |
| 2010-01-05T12:33 | 14914 | 135 | -72.9 | -76.3 | 111 | 22 |
| 2010-01-05T12:33 | 14962 | 134 | -73.3 | -76.7 | 111 | 22 |
| 2010-01-05T12:33 | 15009 | 133 | -73.7 | -77.1 | 112 | 21 |
| 2010-01-05T12:33 | 15057 | 132 | -74.1 | -77.5 | 112 | 22 |
| 2010-01-05T12:33 | 15105 | 130 | -74.4 | -77.9 | 111 | 22 |
| 2010-01-05T12:33 | 15153 | 129 | -74.8 | -78.3 | 110 | 22 |
| 2010-01-05T12:34 | 15202 | 128 | -75.2 | -78.7 | 109 | 23 |
| 2010-01-05T12:34 | 15251 | 127 | -75.6 | -79.1 | 108 | 23 |
| 2010-01-05T12:34 | 15300 | 126 | -76.1 | -79.5 | 107 | 24 |
| 2010-01-05T12:34 | 15347 | 125 | -76.5 | -80.0 | 107 | 24 |
| 2010-01-05T12:34 | 15394 | 124 | -76.9 | -80.4 | 107 | 25 |
| 2010-01-05T12:34 | 15440 | 123 | -77.3 | -80.8 | 107 | 25 |
| 2010-01-05T12:35 | 15488 | 122 | -77.8 | -81.2 | 108 | 24 |
| 2010-01-05T12:35 | 15534 | 121 | -78.2 | -81.6 | 108 | 24 |
| 2010-01-05T12:35 | 15580 | 120 | -78.6 | -82.0 | 107 | 24 |
| 2010-01-05T12:35 | 15626 | 119 | -79.0 | -82.4 | 107 | 24 |
| 2010-01-05T12:35 | 15672 | 118 | -79.4 | -82.8 | 106 | 24 |
| 2010-01-05T12:35 | 15719 | 117 | -79.8 | -83.1 | 106 | 24 |
| 2010-01-05T12:36 | 15764 | 116 | -80.2 | -83.6 | 105 | 24 |
| 2010-01-05T12:36 | 15810 | 115 | -80.7 | -84.0 | 105 | 24 |
| 2010-01-05T12:36 | 15855 | 114 | -81.1 | -84.4 | 105 | 23 |
| 2010-01-05T12:36 | 15900 | 114 | -81.5 | -84.8 | 105 | 23 |
| 2010-01-05T12:36 | 15944 | 113 | -81.8 | -85.2 | 105 | 23 |
| 2010-01-05T12:36 | 15986 | 112 | -82.2 | -85.6 | 104 | 23 |
| 2010-01-05T12:37 | 16030 | 111 | -82.5 | -85.9 | 104 | 23 |
| 2010-01-05T12:37 | 16074 | 110 | -82.8 | -86.2 | 103 | 23 |
| 2010-01-05T12:37 | 16118 | 109 | -83.3 | -86.7 | 101 | 23 |
| 2010-01-05T12:37 | 16161 | 108 | -83.3 | -86.7 | 99 | 23 |
| 2010-01-05T12:37 | 16206 | 107 | -83.5 | -86.9 | 97 | 23 |
| 2010-01-05T12:37 | 16250 | 107 | -83.8 | -87.3 | 95 | 23 |
| 2010-01-05T12:38 | 16296 | 106 | -84.0 | -87.5 | 93 | 22 |
| 2010-01-05T12:38 | 16340 | 105 | -84.2 | -87.7 | 91 | 22 |
| 2010-01-05T12:38 | 16381 | 104 | -84.4 | -87.9 | 90 | 21 |
| 2010-01-05T12:38 | 16422 | 103 | -84.6 | -88.2 | 89 | 22 |
| 2010-01-05T12:38 | 16463 | 103 | -84.6 | -88.1 | 88 | 23 |
| 2010-01-05T12:38 | 16504 | 102 | -84.6 | -88.2 | 87 | 24 |
| 2010-01-05T12:39 | 16544 | 101 | -84.9 | -88.5 | 87 | 24 |
| 2010-01-05T12:39 | 16585 | 100 | -85.2 | -88.7 | 87 | 25 |
| 2010-01-05T12:39 | 16623 | 100 | -85.4 | -89.0 | 87 | 26 |
| 2010-01-05T12:39 | 16662 | 99 | -85.7 | -89.3 | 88 | 27 |
| 2010-01-05T12:39 | 16706 | 98 | -86.0 | -89.6 | 89 | 27 |
| 2010-01-05T12:39 | 16752 | 97 | -85.6 | -89.3 | 91 | 26 |
| 2010-01-05T12:40 | 16815 | 96 | -84.8 | -88.5 | 92 | 23 |
| 2010-01-05T12:40 | 16887 | 95 | -83.5 | -87.3 | 94 | 20 |
| 2010-01-05T12:40 | 16982 | 93 | -82.5 | -86.3 | 100 | 16 |
| 2010-01-05T12:40 | 17048 | 92 | -82.4 | -86.3 | 109 | 13 |
| 2010-01-05T12:40 | 17080 | 92 | -82.6 | -86.5 | 117 | 12 |
| 2010-01-05T12:40 | 17149 | 91 | -83.0 | -86.9 | 125 | 10 |
| 2010-01-05T12:41 | 17176 | 90 | -82.5 | -86.6 | 133 | 9 |
| 2010-01-05T12:41 | 17210 | 90 | -82.7 | -86.8 | 135 | 8 |
| 2010-01-05T12:41 | 17242 | 89 | -83.0 | -87.2 | 133 | 7 |
| 2010-01-05T12:41 | 17277 | 89 | -82.5 | -86.8 | 128 | 6 |
| 2010-01-05T12:41 | 17312 | 88 | -81.3 | -85.7 | 123 | 4 |
| 2010-01-05T12:41 | 17348 | 87 | -81.2 | -85.6 | 120 | 2 |
| 2010-01-05T12:42 | 17383 | 87 | -81.1 | -85.6 | 118 | 1 |
| 2010-01-05T12:42 | 17420 | 86 | -80.9 | -85.5 | 0 | 0 |
| 2010-01-05T12:42 | 17458 | 86 | -81.0 | -85.7 | 0 | 0 |
| 2010-01-05T12:42 | 17500 | 85 | -81.1 | -85.8 | 287 | 1 |
| 2010-01-05T12:42 | 17543 | 84 | -81.2 | -86.1 | 281 | 3 |
| 2010-01-05T12:42 | 17585 | 84 | -80.8 | -85.8 | 276 | 4 |
| 2010-01-05T12:43 | 17629 | 83 | -80.5 | -85.6 | 274 | 6 |
| 2010-01-05T12:43 | 17673 | 83 | -80.6 | -85.7 | 276 | 8 |
| 2010-01-05T12:43 | 17716 | 82 | -80.1 | -85.3 | 281 | 9 |
| 2010-01-05T12:43 | 17759 | 81 | -79.7 | -85.0 | 286 | 10 |
| 2010-01-05T12:43 | 17802 | 81 | -79.6 | -85.1 | 288 | 12 |
| 2010-01-05T12:43 | 17845 | 80 | -79.3 | -84.8 | 289 | 13 |
| 2010-01-05T12:44 | 17887 | 80 | -79.3 | -84.9 | 290 | 13 |
| 2010-01-05T12:44 | 17927 | 79 | -79.6 | -85.3 | 292 | 13 |
| 2010-01-05T12:44 | 17968 | 78 | -79.9 | -85.7 | 294 | 13 |
| 2010-01-05T12:44 | 18010 | 78 | -80.2 | -86.0 | 293 | 13 |
| 2010-01-05T12:44 | 18051 | 77 | -80.5 | -86.3 | 291 | 13 |
| 2010-01-05T12:44 | 18091 | 77 | -80.2 | -86.2 | 290 | 13 |
| 2010-01-05T12:45 | 18129 | 76 | -80.2 | -86.2 | 290 | 13 |
| 2010-01-05T12:45 | 18169 | 76 | -80.3 | -86.3 | 290 | 13 |
| 2010-01-05T12:45 | 18211 | 75 | -79.9 | -86.1 | 288 | 12 |
| 2010-01-05T12:45 | 18251 | 75 | -79.3 | -85.6 | 285 | 12 |
| 2010-01-05T12:45 | 18294 | 74 | -78.9 | -85.3 | 283 | 11 |
| 2010-01-05T12:45 | 18336 | 73 | -79.0 | -85.4 | 284 | 10 |
| 2010-01-05T12:46 | 18377 | 73 | -78.1 | -84.7 | 286 | 10 |
| 2010-01-05T12:46 | 18419 | 72 | -77.4 | -84.1 | 287 | 9 |
| 2010-01-05T12:46 | 18460 | 72 | -77.1 | -83.9 | 286 | 9 |
| 2010-01-05T12:46 | 18499 | 71 | -76.8 | -83.8 | 281 | 9 |
| 2010-01-05T12:46 | 18534 | 71 | -75.4 | -82.7 | 274 | 10 |
| 2010-01-05T12:46 | 18571 | 70 | -75.3 | -82.7 | 269 | 10 |
| 2010-01-05T12:47 | 18609 | 70 | -75.3 | -82.9 | 265 | 11 |
| 2010-01-05T12:47 | 18648 | 70 | -75.7 | -83.3 | 265 | 11 |
| 2010-01-05T12:47 | 18687 | 69 | -75.4 | -83.3 | 267 | 12 |
| 2010-01-05T12:47 | 18725 | 69 | -75.0 | -83.1 | 270 | 13 |
| 2010-01-05T12:47 | 18765 | 68 | -73.8 | -82.3 | 270 | 14 |
| 2010-01-05T12:47 | 18805 | 68 | -74.1 | -82.7 | 268 | 15 |
| 2010-01-05T12:48 | 18845 | 67 | -74.3 | -83.0 | 266 | 16 |
| 2010-01-05T12:48 | 18885 | 67 | -74.4 | -83.4 | 264 | 17 |
| 2010-01-05T12:48 | 18924 | 66 | -74.5 | -83.7 | 262 | 17 |
| 2010-01-05T12:48 | 18965 | 66 | -74.0 | -83.4 | 259 | 18 |
| 2010-01-05T12:48 | 19010 | 65 | -74.1 | -83.7 | 258 | 19 |
| 2010-01-05T12:48 | 19053 | 65 | -74.1 | -83.9 | 257 | 19 |
| 2010-01-05T12:49 | 19097 | 64 | -74.3 | -84.2 | 257 | 18 |
| 2010-01-05T12:49 | 19140 | 64 | -74.3 | -84.4 | 258 | 17 |
| 2010-01-05T12:49 | 19182 | 63 | -74.4 | -84.7 | 259 | 16 |
| 2010-01-05T12:49 | 19226 | 63 | -74.1 | -84.6 | 260 | 17 |
| 2010-01-05T12:49 | 19270 | 63 | -74.0 | -84.6 | 261 | 17 |
| 2010-01-05T12:49 | 19313 | 62 | -74.0 | -84.8 | 261 | 17 |
| 2010-01-05T12:50 | 19358 | 62 | -74.2 | -85.1 | 262 | 16 |
| 2010-01-05T12:50 | 19401 | 61 | -74.3 | -85.4 | 263 | 16 |
| 2010-01-05T12:50 | 19445 | 61 | -74.1 | -85.3 | 264 | 15 |
| 2010-01-05T12:50 | 19488 | 60 | -74.0 | -85.4 | 264 | 14 |
| 2010-01-05T12:50 | 19531 | 60 | -74.1 | -85.7 | 262 | 14 |
| 2010-01-05T12:50 | 19575 | 59 | -74.2 | -85.9 | 258 | 13 |
| 2010-01-05T12:51 | 19617 | 59 | -74.3 | -86.1 | 254 | 12 |
| 2010-01-05T12:51 | 19661 | 58 | -74.4 | -86.3 | 255 | 11 |
| 2010-01-05T12:51 | 19703 | 58 | -73.9 | -86.0 | 260 | 11 |
| 2010-01-05T12:51 | 19745 | 58 | -73.7 | -85.9 | 264 | 10 |
| 2010-01-05T12:51 | 19786 | 57 | -73.3 | -85.7 | 264 | 9 |
| 2010-01-05T12:51 | 19827 | 57 | -73.1 | -85.7 | 259 | 7 |
| 2010-01-05T12:52 | 19869 | 56 | -72.8 | -85.7 | 255 | 5 |
| 2010-01-05T12:52 | 19911 | 56 | -72.8 | -85.8 | 257 | 5 |
| 2010-01-05T12:52 | 19955 | 56 | -72.9 | -86.0 | 266 | 5 |
| 2010-01-05T12:52 | 19997 | 55 | -72.6 | -85.9 | 274 | 5 |
| 2010-01-05T12:52 | 20040 | 55 | -72.4 | -85.9 | 277 | 5 |
| 2010-01-05T12:52 | 20085 | 54 | -72.4 | -86.1 | 280 | 5 |
| 2010-01-05T12:53 | 20129 | 54 | -72.6 | -86.4 | 284 | 4 |
| 2010-01-05T12:53 | 20173 | 54 | -72.7 | -86.7 | 288 | 4 |
| 2010-01-05T12:53 | 20220 | 53 | -72.9 | -87.0 | 288 | 4 |
| 2010-01-05T12:53 | 20266 | 53 | -72.1 | -86.6 | 284 | 5 |
| 2010-01-05T12:53 | 20313 | 52 | -71.8 | -86.4 | 279 | 6 |
| 2010-01-05T12:53 | 20357 | 52 | -70.9 | -85.9 | 278 | 7 |
| 2010-01-05T12:54 | 20403 | 52 | -70.5 | -85.7 | 278 | 7 |
| 2010-01-05T12:54 | 20450 | 51 | -70.6 | -85.9 | 276 | 8 |
| 2010-01-05T12:54 | 20498 | 51 | -70.4 | -86.1 | 273 | 8 |
| 2010-01-05T12:54 | 20543 | 50 | -70.1 | -86.1 | 272 | 8 |
| 2010-01-05T12:54 | 20589 | 50 | -70.1 | -86.3 | 277 | 7 |
| 2010-01-05T12:54 | 20635 | 50 | -70.1 | -86.6 | 285 | 7 |
| 2010-01-05T12:55 | 20680 | 49 | -70.1 | -86.8 | 294 | 7 |
| 2010-01-05T12:55 | 20725 | 49 | -69.4 | -86.6 | 301 | 7 |
| 2010-01-05T12:55 | 20769 | 48 | -69.3 | -86.7 | 303 | 7 |
| 2010-01-05T12:55 | 20813 | 48 | -69.4 | -86.9 | 303 | 7 |
| 2010-01-05T12:55 | 20857 | 48 | -68.9 | -86.9 | 301 | 7 |
| 2010-01-05T12:55 | 20902 | 47 | -68.7 | -86.9 | 298 | 7 |
| 2010-01-05T12:56 | 20947 | 47 | -68.7 | -87.2 | 290 | 5 |
| 2010-01-05T12:56 | 20992 | 47 | -68.5 | -87.3 | 274 | 4 |
| 2010-01-05T12:56 | 21038 | 46 | -67.9 | -87.2 | 256 | 4 |
| 2010-01-05T12:56 | 21084 | 46 | -67.9 | -87.4 | 247 | 5 |
| 2010-01-05T12:56 | 21130 | 46 | -67.8 | -87.6 | 245 | 5 |
| 2010-01-05T12:56 | 21177 | 45 | -67.8 | -87.8 | 244 | 5 |
| 2010-01-05T12:57 | 21224 | 45 | -67.7 | -88.0 | 239 | 4 |
| 2010-01-05T12:57 | 21271 | 45 | -67.8 | -88.3 | 229 | 4 |
| 2010-01-05T12:57 | 21319 | 44 | -67.9 | -88.7 | 217 | 4 |
| 2010-01-05T12:57 | 21367 | 44 | -67.9 | -88.9 | 211 | 3 |
| 2010-01-05T12:57 | 21414 | 43 | -68.2 | -89.3 | 213 | 4 |
| 2010-01-05T12:57 | 21462 | 43 | -68.2 | -89.5 | 217 | 5 |
| 2010-01-05T12:58 | 21508 | 43 | -68.3 | -89.7 | 217 | 5 |
| 2010-01-05T12:58 | 21554 | 42 | -68.4 | -90.0 | 216 | 3 |
| 2010-01-05T12:58 | 21599 | 42 | -68.1 | -90.0 | 201 | 1 |
| 2010-01-05T12:58 | 21646 | 42 | -67.7 | -89.9 | 68 | 1 |
| 2010-01-05T12:58 | 21690 | 42 | -66.9 | -89.5 | 56 | 4 |
| 2010-01-05T12:58 | 21735 | 41 | -66.5 | -89.3 | 50 | 5 |
| 2010-01-05T12:59 | 21781 | 41 | -65.8 | -89.1 | 43 | 6 |
| 2010-01-05T12:59 | 21826 | 41 | -66.1 | -89.3 | 38 | 6 |
| 2010-01-05T12:59 | 21869 | 40 | -66.2 | -89.6 | 35 | 6 |
| 2010-01-05T12:59 | 21913 | 40 | -66.2 | -89.7 | 38 | 7 |
| 2010-01-05T12:59 | 21958 | 40 | -66.3 | -90.0 | 45 | 8 |
| 2010-01-05T12:59 | 22002 | 39 | -66.3 | -90.2 | 51 | 10 |
| 2010-01-05T13:00 | 22046 | 39 | -66.1 | -90.3 | 58 | 11 |
| 2010-01-05T13:00 | 22089 | 39 | -65.6 | -90.1 | 64 | 12 |
| 2010-01-05T13:00 | 22134 | 39 | -65.0 | -89.9 | 71 | 12 |
| 2010-01-05T13:00 | 22178 | 38 | -65.2 | -90.1 | 78 | 11 |
| 2010-01-05T13:00 | 22223 | 38 | -65.1 | -90.1 | 83 | 12 |
| 2010-01-05T13:00 | 22269 | 38 | -65.1 | -90.3 | 83 | 13 |
| 2010-01-05T13:01 | 22314 | 37 | -64.9 | -90.3 | 81 | 14 |
| 2010-01-05T13:01 | 22360 | 37 | -64.3 | -90.2 | 78 | 16 |
| 2010-01-05T13:01 | 22405 | 37 | -63.5 | -89.8 | 77 | 18 |
| 2010-01-05T13:01 | 22452 | 37 | -61.6 | -88.9 | 77 | 20 |
| 2010-01-05T13:01 | 22497 | 36 | -61.0 | -88.6 | 78 | 21 |
| 2010-01-05T13:01 | 22544 | 36 | -60.9 | -88.6 | 78 | 21 |
| 2010-01-05T13:02 | 22591 | 36 | -60.4 | -88.5 | 78 | 22 |
| 2010-01-05T13:02 | 22641 | 36 | -59.7 | -88.3 | 77 | 23 |
| 2010-01-05T13:02 | 22689 | 35 | -59.5 | -88.3 | 77 | 25 |
| 2010-01-05T13:02 | 22740 | 35 | -59.7 | -88.5 | 77 | 26 |
| 2010-01-05T13:02 | 22790 | 35 | -59.9 | -88.8 | 78 | 26 |
| 2010-01-05T13:02 | 22840 | 34 | -60.4 | -89.2 | 79 | 27 |
| 2010-01-05T13:03 | 22888 | 34 | -60.8 | -89.6 | 80 | 28 |
| 2010-01-05T13:03 | 22940 | 34 | -61.0 | -89.9 | 81 | 27 |
| 2010-01-05T13:03 | 22987 | 34 | -61.0 | -90.2 | 82 | 27 |
| 2010-01-05T13:03 | 23037 | 33 | -61.4 | -90.4 | 83 | 26 |
| 2010-01-05T13:03 | 23088 | 33 | -61.7 | -90.7 | 84 | 25 |
| 2010-01-05T13:03 | 23136 | 33 | -62.0 | -90.9 | 86 | 24 |
| 2010-01-05T13:04 | 23187 | 33 | -61.9 | -91.0 | 90 | 24 |
| 2010-01-05T13:04 | 23234 | 32 | -62.0 | -91.1 | 93 | 25 |
| 2010-01-05T13:04 | 23283 | 32 | -62.3 | -91.3 | 96 | 25 |
| 2010-01-05T13:04 | 23333 | 32 | -62.7 | -91.5 | 98 | 25 |
| 2010-01-05T13:04 | 23380 | 32 | -63.0 | -91.7 | 100 | 25 |
| 2010-01-05T13:04 | 23429 | 31 | -63.4 | -92.0 | 101 | 26 |
| 2010-01-05T13:05 | 23475 | 31 | -63.7 | -92.3 | 100 | 26 |
| 2010-01-05T13:05 | 23521 | 31 | -63.9 | -92.4 | 100 | 27 |
| 2010-01-05T13:05 | 23571 | 31 | -64.0 | -92.5 | 99 | 27 |
| 2010-01-05T13:05 | 23618 | 30 | -64.3 | -92.7 | 99 | 27 |
| 2010-01-05T13:05 | 23666 | 30 | -64.6 | -92.8 | 98 | 27 |
| 2010-01-05T13:05 | 23716 | 30 | -65.0 | -93.1 | 97 | 27 |
| 2010-01-05T13:06 | 23766 | 30 | -65.2 | -93.2 | 96 | 27 |
| 2010-01-05T13:06 | 23815 | 29 | -65.3 | -93.3 | 96 | 27 |
| 2010-01-05T13:06 | 23865 | 29 | -65.4 | -93.4 | 95 | 27 |
| 2010-01-05T13:06 | 23913 | 29 | -65.7 | -93.5 | 95 | 27 |
| 2010-01-05T13:06 | 23962 | 29 | -66.0 | -93.7 | 94 | 26 |
| 2010-01-05T13:06 | 24006 | 28 | -65.2 | -93.5 | 92 | 26 |
| 2010-01-05T13:07 | 24053 | 28 | -64.0 | -92.9 | 90 | 25 |
| 2010-01-05T13:07 | 24100 | 28 | -63.6 | -92.5 | 89 | 24 |
| 2010-01-05T13:07 | 24148 | 28 | -63.5 | -92.3 | 89 | 23 |
| 2010-01-05T13:07 | 24196 | 28 | -62.5 | -91.9 | 91 | 22 |
| 2010-01-05T13:07 | 24242 | 27 | -62.0 | -91.4 | 93 | 22 |
| 2010-01-05T13:07 | 24289 | 27 | -61.6 | -91.1 | 96 | 22 |
| 2010-01-05T13:08 | 24332 | 27 | -61.4 | -91.0 | 99 | 22 |
| 2010-01-05T13:08 | 24379 | 27 | -61.5 | -90.9 | 99 | 22 |
| 2010-01-05T13:08 | 24426 | 27 | -61.4 | -90.9 | 98 | 23 |
| 2010-01-05T13:08 | 24470 | 26 | -60.2 | -90.6 | 98 | 23 |
| 2010-01-05T13:08 | 24518 | 26 | -59.7 | -90.2 | 98 | 23 |
| 2010-01-05T13:08 | 24565 | 26 | -59.4 | -90.0 | 98 | 24 |
| 2010-01-05T13:09 | 24614 | 26 | -58.7 | -89.6 | 98 | 26 |
| 2010-01-05T13:09 | 24660 | 26 | -57.5 | -89.1 | 98 | 27 |
| 2010-01-05T13:09 | 24706 | 25 | -57.2 | -88.8 | 98 | 27 |
| 2010-01-05T13:09 | 24754 | 25 | -56.5 | -88.3 | 97 | 28 |
| 2010-01-05T13:09 | 24801 | 25 | -56.2 | -88.1 | 97 | 28 |
| 2010-01-05T13:09 | 24852 | 25 | -56.0 | -87.9 | 98 | 28 |
| 2010-01-05T13:10 | 24900 | 25 | -55.6 | -87.7 | 100 | 28 |
| 2010-01-05T13:10 | 24950 | 24 | -55.3 | -87.5 | 101 | 27 |
| 2010-01-05T13:10 | 25001 | 24 | -55.2 | -87.4 | 100 | 27 |
| 2010-01-05T13:10 | 25052 | 24 | -55.3 | -87.3 | 99 | 26 |
| 2010-01-05T13:10 | 25104 | 24 | -55.3 | -87.3 | 98 | 26 |
| 2010-01-05T13:10 | 25157 | 24 | -55.1 | -87.2 | 98 | 26 |
| 2010-01-05T13:11 | 25209 | 24 | -55.2 | -87.2 | 99 | 26 |
| 2010-01-05T13:11 | 25260 | 23 | -55.2 | -87.3 | 99 | 26 |
| 2010-01-05T13:11 | 25313 | 23 | -55.5 | -87.3 | 99 | 27 |
| 2010-01-05T13:11 | 25368 | 23 | -55.6 | -87.4 | 98 | 27 |
| 2010-01-05T13:11 | 25422 | 23 | -55.7 | -87.5 | 98 | 27 |
| 2010-01-05T13:11 | 25472 | 23 | -55.7 | -87.6 | 97 | 27 |
| 2010-01-05T13:12 | 25525 | 22 | -55.8 | -87.6 | 97 | 27 |
| 2010-01-05T13:12 | 25579 | 22 | -55.9 | -87.6 | 95 | 27 |
| 2010-01-05T13:12 | 25628 | 22 | -55.8 | -87.7 | 94 | 28 |
| 2010-01-05T13:12 | 25680 | 22 | -55.6 | -87.6 | 93 | 29 |
| 2010-01-05T13:12 | 25731 | 22 | -54.7 | -87.1 | 93 | 30 |
| 2010-01-05T23:28 | 4 | 1007 | 34.4 | 26.8 | 360 | 2 |
| 2010-01-05T23:28 | 14 | 1005 | 31.0 | 24.6 | 14 | 1 |
| 2010-01-05T23:28 | 25 | 1004 | 30.1 | 24.7 | 18 | 1 |
| 2010-01-05T23:28 | 35 | 1003 | 29.8 | 25.0 | 21 | 1 |
| 2010-01-05T23:28 | 43 | 1002 | 29.7 | 25.2 | 24 | 1 |
| 2010-01-05T23:28 | 53 | 1001 | 29.5 | 25.4 | 27 | 2 |
| 2010-01-05T23:28 | 63 | 1000 | 29.4 | 25.4 | 30 | 2 |
| 2010-01-05T23:28 | 73 | 999 | 29.2 | 25.4 | 32 | 2 |
| 2010-01-05T23:28 | 83 | 998 | 29.0 | 25.3 | 35 | 2 |
| 2010-01-05T23:28 | 92 | 997 | 28.9 | 25.4 | 37 | 2 |
| 2010-01-05T23:28 | 101 | 996 | 28.8 | 25.4 | 38 | 2 |
| 2010-01-05T23:28 | 111 | 995 | 28.7 | 25.4 | 40 | 2 |
| 2010-01-05T23:28 | 121 | 994 | 28.6 | 25.4 | 41 | 2 |
| 2010-01-05T23:28 | 131 | 992 | 28.5 | 25.5 | 41 | 2 |
| 2010-01-05T23:28 | 143 | 991 | 28.4 | 25.5 | 42 | 2 |
| 2010-01-05T23:28 | 155 | 990 | 28.3 | 25.5 | 42 | 2 |
| 2010-01-05T23:28 | 165 | 989 | 28.2 | 25.5 | 42 | 2 |
| 2010-01-05T23:28 | 176 | 988 | 28.1 | 25.5 | 42 | 2 |
| 2010-01-05T23:28 | 186 | 986 | 28.1 | 25.4 | 42 | 2 |
| 2010-01-05T23:28 | 197 | 985 | 28.1 | 25.4 | 42 | 2 |
| 2010-01-05T23:28 | 207 | 984 | 28.1 | 25.3 | 42 | 2 |
| 2010-01-05T23:28 | 216 | 983 | 28.1 | 25.3 | 42 | 2 |
| 2010-01-05T23:28 | 228 | 982 | 28.0 | 25.2 | 42 | 2 |
| 2010-01-05T23:28 | 241 | 980 | 27.9 | 25.1 | 41 | 2 |
| 2010-01-05T23:28 | 253 | 979 | 27.8 | 25.1 | 40 | 2 |
| 2010-01-05T23:28 | 266 | 978 | 27.6 | 25.0 | 38 | 2 |
| 2010-01-05T23:28 | 280 | 976 | 27.5 | 25.0 | 36 | 2 |
| 2010-01-05T23:28 | 294 | 975 | 27.4 | 25.0 | 32 | 2 |
| 2010-01-05T23:28 | 309 | 973 | 27.2 | 24.9 | 28 | 2 |
| 2010-01-05T23:28 | 323 | 971 | 27.1 | 24.9 | 22 | 2 |
| 2010-01-05T23:29 | 334 | 970 | 27.0 | 24.8 | 17 | 2 |
| 2010-01-05T23:29 | 344 | 969 | 27.0 | 24.8 | 13 | 2 |
| 2010-01-05T23:29 | 354 | 968 | 26.9 | 24.8 | 9 | 2 |
| 2010-01-05T23:29 | 365 | 967 | 26.8 | 24.7 | 5 | 2 |
| 2010-01-05T23:29 | 375 | 966 | 26.6 | 24.7 | 3 | 2 |
| 2010-01-05T23:29 | 384 | 965 | 26.5 | 24.8 | 0 | 2 |
| 2010-01-05T23:29 | 392 | 964 | 26.4 | 24.8 | 359 | 2 |
| 2010-01-05T23:29 | 400 | 963 | 26.3 | 24.8 | 358 | 2 |
| 2010-01-05T23:29 | 410 | 962 | 26.3 | 24.7 | 358 | 2 |
| 2010-01-05T23:29 | 420 | 961 | 26.3 | 24.4 | 358 | 2 |
| 2010-01-05T23:29 | 429 | 960 | 26.3 | 24.4 | 358 | 1 |
| 2010-01-05T23:29 | 440 | 959 | 26.3 | 24.3 | 360 | 1 |
| 2010-01-05T23:29 | 454 | 957 | 26.1 | 24.3 | 2 | 1 |
| 2010-01-05T23:29 | 466 | 956 | 25.9 | 24.4 | 7 | 0 |
| 2010-01-05T23:29 | 475 | 955 | 25.8 | 24.3 | 13 | 0 |
| 2010-01-05T23:29 | 483 | 954 | 25.7 | 24.3 | 0 | 0 |
| 2010-01-05T23:29 | 490 | 953 | 25.7 | 24.4 | 0 | 0 |
| 2010-01-05T23:29 | 498 | 952 | 25.6 | 24.5 | 0 | 0 |
| 2010-01-05T23:29 | 508 | 951 | 25.5 | 24.4 | 0 | 0 |
| 2010-01-05T23:29 | 518 | 950 | 25.5 | 24.3 | 0 | 0 |
| 2010-01-05T23:29 | 529 | 949 | 25.4 | 24.1 | 0 | 0 |
| 2010-01-05T23:29 | 542 | 948 | 25.3 | 24.1 | 0 | 0 |
| 2010-01-05T23:29 | 553 | 947 | 25.1 | 24.2 | 318 | 0 |
| 2010-01-05T23:29 | 562 | 946 | 25.0 | 24.1 | 314 | 0 |
| 2010-01-05T23:29 | 572 | 944 | 25.0 | 24.0 | 311 | 0 |
| 2010-01-05T23:29 | 583 | 943 | 24.9 | 24.0 | 309 | 0 |
| 2010-01-05T23:29 | 593 | 942 | 24.9 | 23.7 | 306 | 1 |
| 2010-01-05T23:29 | 604 | 941 | 24.9 | 23.4 | 302 | 1 |
| 2010-01-05T23:29 | 616 | 940 | 24.7 | 23.5 | 300 | 1 |
| 2010-01-05T23:29 | 627 | 939 | 24.5 | 23.7 | 297 | 1 |
| 2010-01-05T23:30 | 637 | 938 | 24.4 | 23.7 | 294 | 1 |
| 2010-01-05T23:30 | 649 | 936 | 24.3 | 23.7 | 291 | 1 |
| 2010-01-05T23:30 | 660 | 935 | 24.2 | 23.7 | 287 | 1 |
| 2010-01-05T23:30 | 671 | 934 | 24.1 | 23.7 | 284 | 1 |
| 2010-01-05T23:30 | 683 | 933 | 24.1 | 23.9 | 281 | 1 |
| 2010-01-05T23:30 | 695 | 931 | 24.2 | 24.1 | 277 | 1 |
| 2010-01-05T23:30 | 709 | 930 | 24.1 | 24.0 | 273 | 1 |
| 2010-01-05T23:30 | 722 | 929 | 24.0 | 23.8 | 269 | 1 |
| 2010-01-05T23:30 | 737 | 927 | 23.8 | 23.3 | 265 | 1 |
| 2010-01-05T23:30 | 751 | 925 | 23.6 | 23.2 | 262 | 1 |
| 2010-01-05T23:30 | 765 | 924 | 23.7 | 23.6 | 259 | 1 |
| 2010-01-05T23:30 | 779 | 923 | 23.7 | 23.7 | 256 | 2 |
| 2010-01-05T23:30 | 791 | 921 | 23.6 | 23.6 | 253 | 2 |
| 2010-01-05T23:30 | 801 | 920 | 23.4 | 23.2 | 251 | 2 |
| 2010-01-05T23:30 | 813 | 919 | 23.3 | 22.5 | 249 | 2 |
| 2010-01-05T23:30 | 824 | 918 | 23.3 | 21.9 | 247 | 2 |
| 2010-01-05T23:30 | 833 | 917 | 23.4 | 22.0 | 246 | 3 |
| 2010-01-05T23:30 | 841 | 916 | 23.5 | 22.0 | 244 | 3 |
| 2010-01-05T23:30 | 849 | 915 | 23.5 | 22.0 | 243 | 3 |
| 2010-01-05T23:30 | 855 | 915 | 23.4 | 21.8 | 242 | 3 |
| 2010-01-05T23:30 | 861 | 914 | 23.3 | 21.7 | 241 | 3 |
| 2010-01-05T23:30 | 867 | 913 | 23.2 | 21.2 | 240 | 3 |
| 2010-01-05T23:30 | 875 | 913 | 23.5 | 20.8 | 239 | 3 |
| 2010-01-05T23:30 | 885 | 911 | 23.6 | 20.5 | 238 | 3 |
| 2010-01-05T23:30 | 896 | 910 | 23.5 | 20.4 | 236 | 2 |
| 2010-01-05T23:30 | 905 | 909 | 23.4 | 20.3 | 235 | 2 |
| 2010-01-05T23:30 | 913 | 909 | 23.4 | 20.2 | 233 | 2 |
| 2010-01-05T23:30 | 924 | 907 | 23.3 | 20.2 | 231 | 2 |
| 2010-01-05T23:30 | 934 | 906 | 23.2 | 20.0 | 227 | 2 |
| 2010-01-05T23:30 | 943 | 905 | 23.2 | 19.8 | 223 | 2 |
| 2010-01-05T23:31 | 953 | 904 | 23.1 | 19.6 | 217 | 1 |
| 2010-01-05T23:31 | 963 | 903 | 23.0 | 19.6 | 211 | 1 |
| 2010-01-05T23:31 | 974 | 902 | 23.0 | 19.5 | 203 | 1 |
| 2010-01-05T23:31 | 983 | 901 | 22.9 | 19.3 | 195 | 1 |
| 2010-01-05T23:31 | 992 | 900 | 22.9 | 19.1 | 187 | 1 |
| 2010-01-05T23:31 | 1002 | 899 | 23.0 | 18.9 | 180 | 1 |
| 2010-01-05T23:31 | 1010 | 899 | 23.1 | 18.8 | 173 | 1 |
| 2010-01-05T23:31 | 1016 | 898 | 23.0 | 18.7 | 168 | 1 |
| 2010-01-05T23:31 | 1023 | 897 | 23.0 | 18.6 | 164 | 1 |
| 2010-01-05T23:31 | 1030 | 896 | 22.9 | 18.5 | 161 | 1 |
| 2010-01-05T23:31 | 1037 | 896 | 22.9 | 18.4 | 159 | 1 |
| 2010-01-05T23:31 | 1044 | 895 | 22.8 | 18.3 | 157 | 2 |
| 2010-01-05T23:31 | 1051 | 894 | 22.8 | 18.3 | 157 | 2 |
| 2010-01-05T23:31 | 1059 | 894 | 22.7 | 18.3 | 157 | 2 |
| 2010-01-05T23:31 | 1069 | 893 | 22.6 | 18.2 | 157 | 2 |
| 2010-01-05T23:31 | 1079 | 891 | 22.5 | 18.1 | 158 | 2 |
| 2010-01-05T23:31 | 1090 | 890 | 22.5 | 18.0 | 158 | 2 |
| 2010-01-05T23:31 | 1097 | 890 | 22.4 | 18.0 | 160 | 2 |
| 2010-01-05T23:31 | 1105 | 889 | 22.3 | 18.0 | 161 | 2 |
| 2010-01-05T23:31 | 1113 | 888 | 22.3 | 18.0 | 162 | 2 |
| 2010-01-05T23:31 | 1120 | 887 | 22.2 | 17.9 | 164 | 2 |
| 2010-01-05T23:31 | 1130 | 886 | 22.1 | 17.9 | 165 | 2 |
| 2010-01-05T23:31 | 1141 | 885 | 22.0 | 17.9 | 166 | 2 |
| 2010-01-05T23:31 | 1152 | 884 | 21.9 | 18.0 | 167 | 2 |
| 2010-01-05T23:31 | 1162 | 883 | 21.7 | 18.1 | 168 | 2 |
| 2010-01-05T23:31 | 1173 | 882 | 21.5 | 18.5 | 168 | 2 |
| 2010-01-05T23:31 | 1183 | 881 | 21.3 | 19.3 | 168 | 2 |
| 2010-01-05T23:31 | 1193 | 880 | 21.2 | 19.5 | 167 | 2 |
| 2010-01-05T23:31 | 1204 | 879 | 21.1 | 19.1 | 166 | 2 |
| 2010-01-05T23:31 | 1215 | 878 | 20.8 | 19.3 | 164 | 2 |
| 2010-01-05T23:32 | 1226 | 877 | 20.6 | 19.3 | 161 | 2 |
| 2010-01-05T23:32 | 1235 | 876 | 20.6 | 19.4 | 158 | 2 |
| 2010-01-05T23:32 | 1244 | 875 | 20.6 | 19.4 | 154 | 2 |
| 2010-01-05T23:32 | 1255 | 874 | 20.9 | 18.8 | 151 | 2 |
| 2010-01-05T23:32 | 1266 | 873 | 21.0 | 18.4 | 147 | 2 |
| 2010-01-05T23:32 | 1276 | 872 | 20.9 | 18.2 | 144 | 2 |
| 2010-01-05T23:32 | 1285 | 871 | 20.8 | 18.0 | 142 | 2 |
| 2010-01-05T23:32 | 1294 | 870 | 20.8 | 17.9 | 140 | 2 |
| 2010-01-05T23:32 | 1303 | 869 | 20.7 | 17.9 | 139 | 2 |
| 2010-01-05T23:32 | 1311 | 868 | 20.6 | 17.8 | 139 | 2 |
| 2010-01-05T23:32 | 1318 | 867 | 20.6 | 17.7 | 139 | 2 |
| 2010-01-05T23:32 | 1325 | 867 | 20.5 | 17.7 | 139 | 2 |
| 2010-01-05T23:32 | 1333 | 866 | 20.5 | 17.7 | 140 | 2 |
| 2010-01-05T23:32 | 1342 | 865 | 20.4 | 17.6 | 141 | 2 |
| 2010-01-05T23:32 | 1350 | 864 | 20.4 | 17.6 | 141 | 3 |
| 2010-01-05T23:32 | 1358 | 863 | 20.3 | 17.6 | 142 | 3 |
| 2010-01-05T23:32 | 1365 | 863 | 20.2 | 17.5 | 143 | 3 |
| 2010-01-05T23:32 | 1373 | 862 | 20.2 | 17.6 | 143 | 3 |
| 2010-01-05T23:32 | 1380 | 861 | 20.1 | 17.7 | 143 | 3 |
| 2010-01-05T23:32 | 1387 | 860 | 20.1 | 17.8 | 143 | 3 |
| 2010-01-05T23:32 | 1395 | 860 | 20.0 | 17.8 | 142 | 3 |
| 2010-01-05T23:32 | 1403 | 859 | 20.0 | 17.7 | 142 | 3 |
| 2010-01-05T23:32 | 1410 | 858 | 20.0 | 17.6 | 142 | 3 |
| 2010-01-05T23:32 | 1418 | 857 | 20.0 | 17.4 | 141 | 3 |
| 2010-01-05T23:32 | 1428 | 856 | 20.0 | 17.2 | 141 | 3 |
| 2010-01-05T23:32 | 1439 | 855 | 19.9 | 16.9 | 141 | 3 |
| 2010-01-05T23:32 | 1450 | 854 | 19.9 | 16.8 | 141 | 3 |
| 2010-01-05T23:32 | 1461 | 853 | 19.8 | 16.6 | 141 | 3 |
| 2010-01-05T23:32 | 1471 | 852 | 19.8 | 16.6 | 141 | 4 |
| 2010-01-05T23:32 | 1480 | 851 | 19.8 | 16.5 | 141 | 4 |
| 2010-01-05T23:33 | 1488 | 850 | 19.8 | 16.4 | 141 | 4 |
| 2010-01-05T23:33 | 1495 | 850 | 19.7 | 16.4 | 141 | 4 |
| 2010-01-05T23:33 | 1502 | 849 | 19.7 | 16.3 | 142 | 4 |
| 2010-01-05T23:33 | 1509 | 848 | 19.6 | 16.4 | 141 | 4 |
| 2010-01-05T23:33 | 1515 | 848 | 19.6 | 16.6 | 141 | 4 |
| 2010-01-05T23:33 | 1522 | 847 | 19.6 | 16.7 | 141 | 4 |
| 2010-01-05T23:33 | 1529 | 846 | 19.5 | 16.7 | 141 | 4 |
| 2010-01-05T23:33 | 1536 | 846 | 19.4 | 16.7 | 141 | 4 |
| 2010-01-05T23:33 | 1543 | 845 | 19.4 | 16.8 | 140 | 4 |
| 2010-01-05T23:33 | 1551 | 844 | 19.3 | 16.8 | 140 | 4 |
| 2010-01-05T23:33 | 1558 | 844 | 19.3 | 16.7 | 140 | 4 |
| 2010-01-05T23:33 | 1566 | 843 | 19.2 | 16.6 | 139 | 4 |
| 2010-01-05T23:33 | 1575 | 842 | 19.2 | 16.3 | 139 | 4 |
| 2010-01-05T23:33 | 1584 | 841 | 19.1 | 16.3 | 140 | 4 |
| 2010-01-05T23:33 | 1593 | 840 | 19.1 | 16.5 | 140 | 4 |
| 2010-01-05T23:33 | 1602 | 839 | 19.0 | 16.7 | 140 | 4 |
| 2010-01-05T23:33 | 1612 | 838 | 18.9 | 16.7 | 141 | 4 |
| 2010-01-05T23:33 | 1624 | 837 | 18.9 | 16.6 | 141 | 5 |
| 2010-01-05T23:33 | 1637 | 836 | 18.8 | 16.4 | 141 | 5 |
| 2010-01-05T23:33 | 1648 | 835 | 18.8 | 16.3 | 142 | 5 |
| 2010-01-05T23:33 | 1656 | 834 | 18.8 | 16.3 | 142 | 5 |
| 2010-01-05T23:33 | 1663 | 833 | 18.8 | 16.3 | 142 | 5 |
| 2010-01-05T23:33 | 1669 | 833 | 18.8 | 16.2 | 142 | 5 |
| 2010-01-05T23:33 | 1676 | 832 | 18.8 | 16.1 | 142 | 5 |
| 2010-01-05T23:33 | 1683 | 831 | 18.7 | 16.0 | 142 | 5 |
| 2010-01-05T23:33 | 1691 | 831 | 18.7 | 15.9 | 141 | 5 |
| 2010-01-05T23:33 | 1698 | 830 | 18.7 | 15.7 | 141 | 5 |
| 2010-01-05T23:33 | 1704 | 829 | 18.6 | 15.6 | 141 | 5 |
| 2010-01-05T23:33 | 1711 | 829 | 18.7 | 15.4 | 140 | 5 |
| 2010-01-05T23:33 | 1719 | 828 | 18.7 | 15.2 | 140 | 5 |
| 2010-01-05T23:34 | 1727 | 827 | 18.7 | 15.1 | 140 | 5 |
| 2010-01-05T23:34 | 1735 | 827 | 18.6 | 15.0 | 140 | 5 |
| 2010-01-05T23:34 | 1742 | 826 | 18.6 | 15.0 | 140 | 5 |
| 2010-01-05T23:34 | 1749 | 825 | 18.5 | 14.9 | 140 | 5 |
| 2010-01-05T23:34 | 1758 | 824 | 18.5 | 15.0 | 139 | 5 |
| 2010-01-05T23:34 | 1766 | 824 | 18.4 | 15.0 | 139 | 5 |
| 2010-01-05T23:34 | 1774 | 823 | 18.4 | 15.0 | 139 | 5 |
| 2010-01-05T23:34 | 1782 | 822 | 18.3 | 15.0 | 139 | 5 |
| 2010-01-05T23:34 | 1790 | 821 | 18.2 | 15.0 | 139 | 5 |
| 2010-01-05T23:34 | 1797 | 821 | 18.1 | 15.0 | 139 | 4 |
| 2010-01-05T23:34 | 1804 | 820 | 18.1 | 14.8 | 139 | 4 |
| 2010-01-05T23:34 | 1812 | 819 | 18.0 | 14.7 | 138 | 4 |
| 2010-01-05T23:34 | 1820 | 818 | 17.9 | 14.7 | 138 | 4 |
| 2010-01-05T23:34 | 1828 | 818 | 17.9 | 14.7 | 138 | 4 |
| 2010-01-05T23:34 | 1835 | 817 | 17.9 | 14.6 | 138 | 4 |
| 2010-01-05T23:34 | 1843 | 816 | 17.8 | 14.5 | 137 | 4 |
| 2010-01-05T23:34 | 1850 | 815 | 17.8 | 14.4 | 137 | 4 |
| 2010-01-05T23:34 | 1858 | 815 | 17.7 | 14.3 | 137 | 4 |
| 2010-01-05T23:34 | 1865 | 814 | 17.7 | 14.3 | 136 | 4 |
| 2010-01-05T23:34 | 1873 | 813 | 17.6 | 14.3 | 136 | 4 |
| 2010-01-05T23:34 | 1881 | 813 | 17.5 | 14.3 | 136 | 4 |
| 2010-01-05T23:34 | 1888 | 812 | 17.5 | 14.3 | 136 | 5 |
| 2010-01-05T23:34 | 1895 | 811 | 17.4 | 14.4 | 136 | 5 |
| 2010-01-05T23:34 | 1904 | 810 | 17.3 | 14.8 | 136 | 5 |
| 2010-01-05T23:34 | 1914 | 809 | 17.2 | 15.2 | 136 | 5 |
| 2010-01-05T23:34 | 1924 | 808 | 17.1 | 15.4 | 136 | 5 |
| 2010-01-05T23:34 | 1936 | 807 | 17.0 | 15.4 | 136 | 5 |
| 2010-01-05T23:34 | 1948 | 806 | 17.0 | 15.2 | 137 | 5 |
| 2010-01-05T23:34 | 1958 | 805 | 16.9 | 15.0 | 137 | 5 |
| 2010-01-05T23:34 | 1966 | 805 | 16.9 | 15.0 | 137 | 5 |
| 2010-01-05T23:35 | 1973 | 804 | 16.9 | 14.9 | 137 | 5 |
| 2010-01-05T23:35 | 1979 | 803 | 16.8 | 14.9 | 137 | 5 |
| 2010-01-05T23:35 | 1987 | 803 | 16.8 | 14.9 | 138 | 5 |
| 2010-01-05T23:35 | 1995 | 802 | 16.7 | 14.9 | 138 | 5 |
| 2010-01-05T23:35 | 2014 | 800 | 16.5 | 15.0 | 139 | 5 |
| 2010-01-05T23:35 | 2069 | 795 | 16.4 | 13.8 | 143 | 5 |
| 2010-01-05T23:35 | 2117 | 790 | 16.3 | 13.2 | 153 | 5 |
| 2010-01-05T23:35 | 2156 | 787 | 16.2 | 12.8 | 164 | 5 |
| 2010-01-05T23:35 | 2194 | 783 | 16.0 | 12.5 | 171 | 5 |
| 2010-01-05T23:36 | 2237 | 779 | 15.9 | 12.4 | 172 | 5 |
| 2010-01-05T23:36 | 2277 | 776 | 15.8 | 12.8 | 169 | 5 |
| 2010-01-05T23:36 | 2328 | 771 | 15.6 | 12.2 | 164 | 5 |
| 2010-01-05T23:36 | 2364 | 768 | 15.5 | 12.1 | 159 | 4 |
| 2010-01-05T23:36 | 2403 | 764 | 15.4 | 11.8 | 153 | 4 |
| 2010-01-05T23:36 | 2439 | 761 | 15.1 | 11.7 | 146 | 3 |
| 2010-01-05T23:37 | 2475 | 758 | 15.0 | 11.4 | 134 | 2 |
| 2010-01-05T23:37 | 2513 | 755 | 14.9 | 10.9 | 122 | 2 |
| 2010-01-05T23:37 | 2554 | 751 | 14.7 | 10.6 | 118 | 1 |
| 2010-01-05T23:37 | 2598 | 747 | 14.4 | 9.8 | 129 | 1 |
| 2010-01-05T23:37 | 2640 | 743 | 14.2 | 9.5 | 142 | 1 |
| 2010-01-05T23:37 | 2686 | 739 | 13.8 | 9.8 | 147 | 1 |
| 2010-01-05T23:38 | 2725 | 736 | 13.5 | 9.8 | 154 | 1 |
| 2010-01-05T23:38 | 2761 | 733 | 13.3 | 9.4 | 160 | 2 |
| 2010-01-05T23:38 | 2797 | 730 | 13.0 | 9.4 | 164 | 2 |
| 2010-01-05T23:38 | 2833 | 726 | 12.7 | 9.4 | 167 | 2 |
| 2010-01-05T23:38 | 2871 | 723 | 12.6 | 9.4 | 169 | 2 |
| 2010-01-05T23:38 | 2907 | 720 | 12.4 | 9.4 | 170 | 2 |
| 2010-01-05T23:39 | 2941 | 717 | 12.1 | 9.0 | 174 | 2 |
| 2010-01-05T23:39 | 2980 | 714 | 11.9 | 9.0 | 182 | 2 |
| 2010-01-05T23:39 | 3020 | 710 | 11.6 | 8.8 | 186 | 2 |
| 2010-01-05T23:39 | 3056 | 708 | 11.4 | 8.1 | 186 | 1 |
| 2010-01-05T23:39 | 3092 | 704 | 11.2 | 7.7 | 191 | 1 |
| 2010-01-05T23:39 | 3131 | 701 | 10.9 | 7.4 | 208 | 1 |
| 2010-01-05T23:40 | 3175 | 697 | 10.5 | 7.2 | 240 | 0 |
| 2010-01-05T23:40 | 3231 | 693 | 10.4 | 7.1 | 253 | 0 |
| 2010-01-05T23:40 | 3269 | 690 | 10.1 | 7.3 | 220 | 0 |
| 2010-01-05T23:40 | 3327 | 685 | 9.7 | 7.5 | 200 | 1 |
| 2010-01-05T23:40 | 3361 | 682 | 9.4 | 7.5 | 206 | 1 |
| 2010-01-05T23:40 | 3396 | 679 | 9.2 | 7.8 | 225 | 1 |
| 2010-01-05T23:41 | 3436 | 676 | 9.1 | 7.7 | 235 | 1 |
| 2010-01-05T23:41 | 3482 | 672 | 9.2 | 7.3 | 237 | 1 |
| 2010-01-05T23:41 | 3517 | 669 | 9.1 | 6.9 | 237 | 2 |
| 2010-01-05T23:41 | 3552 | 667 | 9.2 | 6.7 | 235 | 2 |
| 2010-01-05T23:41 | 3587 | 664 | 9.2 | 6.0 | 233 | 1 |
| 2010-01-05T23:41 | 3622 | 661 | 9.1 | 5.4 | 235 | 1 |
| 2010-01-05T23:42 | 3658 | 658 | 8.9 | 5.1 | 239 | 1 |
| 2010-01-05T23:42 | 3691 | 656 | 8.9 | 4.6 | 245 | 2 |
| 2010-01-05T23:42 | 3726 | 653 | 8.6 | 4.9 | 253 | 2 |
| 2010-01-05T23:42 | 3763 | 650 | 8.4 | 4.7 | 261 | 2 |
| 2010-01-05T23:42 | 3798 | 647 | 8.2 | 4.6 | 265 | 2 |
| 2010-01-05T23:42 | 3833 | 644 | 8.1 | 4.1 | 267 | 2 |
| 2010-01-05T23:43 | 3868 | 642 | 7.9 | 4.1 | 268 | 2 |
| 2010-01-05T23:43 | 3906 | 639 | 7.7 | 3.9 | 267 | 3 |
| 2010-01-05T23:43 | 3941 | 636 | 7.5 | 3.8 | 266 | 3 |
| 2010-01-05T23:43 | 3978 | 633 | 7.3 | 3.6 | 267 | 3 |
| 2010-01-05T23:43 | 4012 | 631 | 7.2 | 3.4 | 267 | 3 |
| 2010-01-05T23:43 | 4048 | 628 | 6.9 | 3.3 | 267 | 3 |
| 2010-01-05T23:44 | 4084 | 625 | 6.7 | 3.2 | 264 | 3 |
| 2010-01-05T23:44 | 4122 | 622 | 6.4 | 3.2 | 263 | 3 |
| 2010-01-05T23:44 | 4158 | 619 | 6.1 | 3.3 | 263 | 3 |
| 2010-01-05T23:44 | 4197 | 617 | 5.9 | 3.0 | 264 | 2 |
| 2010-01-05T23:44 | 4236 | 614 | 5.8 | 2.8 | 261 | 2 |
| 2010-01-05T23:44 | 4274 | 611 | 5.7 | 2.5 | 254 | 2 |
| 2010-01-05T23:45 | 4312 | 608 | 5.5 | 2.3 | 247 | 2 |
| 2010-01-05T23:45 | 4352 | 605 | 5.4 | 2.0 | 245 | 1 |
| 2010-01-05T23:45 | 4390 | 602 | 5.1 | 1.6 | 251 | 1 |
| 2010-01-05T23:45 | 4428 | 599 | 4.9 | 1.1 | 257 | 1 |
| 2010-01-05T23:45 | 4466 | 597 | 4.8 | 0.1 | 261 | 1 |
| 2010-01-05T23:45 | 4504 | 594 | 4.5 | 0.1 | 265 | 1 |
| 2010-01-05T23:46 | 4542 | 591 | 4.3 | 0.0 | 269 | 1 |
| 2010-01-05T23:46 | 4580 | 588 | 3.9 | 0.1 | 271 | 1 |
| 2010-01-05T23:46 | 4620 | 585 | 3.6 | -0.7 | 273 | 1 |
| 2010-01-05T23:46 | 4659 | 583 | 3.3 | -0.4 | 275 | 1 |
| 2010-01-05T23:46 | 4705 | 579 | 2.9 | -0.1 | 264 | 0 |
| 2010-01-05T23:46 | 4754 | 576 | 2.5 | -0.4 | 209 | 0 |
| 2010-01-05T23:47 | 4794 | 573 | 2.2 | -0.8 | 169 | 0 |
| 2010-01-05T23:47 | 4833 | 570 | 2.0 | -1.6 | 149 | 1 |
| 2010-01-05T23:47 | 4873 | 567 | 1.8 | -2.1 | 136 | 1 |
| 2010-01-05T23:47 | 4913 | 565 | 1.6 | -2.1 | 132 | 1 |
| 2010-01-05T23:47 | 4955 | 562 | 1.3 | -2.1 | 140 | 1 |
| 2010-01-05T23:47 | 4995 | 559 | 1.2 | -2.3 | 156 | 1 |
| 2010-01-05T23:48 | 5036 | 556 | 1.0 | -2.5 | 169 | 1 |
| 2010-01-05T23:48 | 5077 | 553 | 0.9 | -3.2 | 177 | 1 |
| 2010-01-05T23:48 | 5119 | 550 | 0.7 | -3.2 | 179 | 2 |
| 2010-01-05T23:48 | 5160 | 548 | 0.5 | -3.2 | 177 | 2 |
| 2010-01-05T23:48 | 5202 | 545 | 0.2 | -3.4 | 172 | 2 |
| 2010-01-05T23:48 | 5241 | 542 | -0.1 | -3.5 | 165 | 2 |
| 2010-01-05T23:49 | 5282 | 539 | -0.4 | -4.0 | 158 | 2 |
| 2010-01-05T23:49 | 5322 | 537 | -0.7 | -4.1 | 152 | 2 |
| 2010-01-05T23:49 | 5366 | 534 | -1.1 | -4.1 | 150 | 2 |
| 2010-01-05T23:49 | 5408 | 531 | -1.5 | -4.2 | 152 | 2 |
| 2010-01-05T23:49 | 5449 | 528 | -1.8 | -4.4 | 154 | 3 |
| 2010-01-05T23:49 | 5489 | 526 | -2.0 | -5.0 | 156 | 3 |
| 2010-01-05T23:50 | 5529 | 523 | -2.2 | -5.5 | 159 | 3 |
| 2010-01-05T23:50 | 5569 | 520 | -2.3 | -5.3 | 163 | 3 |
| 2010-01-05T23:50 | 5609 | 518 | -2.5 | -5.1 | 168 | 3 |
| 2010-01-05T23:50 | 5648 | 515 | -2.5 | -5.8 | 176 | 3 |
| 2010-01-05T23:50 | 5687 | 513 | -2.5 | -5.8 | 182 | 3 |
| 2010-01-05T23:50 | 5726 | 510 | -2.6 | -6.6 | 186 | 4 |
| 2010-01-05T23:51 | 5765 | 508 | -2.5 | -6.5 | 187 | 4 |
| 2010-01-05T23:51 | 5804 | 505 | -2.5 | -8.0 | 185 | 4 |
| 2010-01-05T23:51 | 5841 | 503 | -2.7 | -7.9 | 183 | 4 |
| 2010-01-05T23:51 | 5879 | 500 | -2.8 | -8.4 | 181 | 4 |
| 2010-01-05T23:51 | 5917 | 498 | -3.1 | -8.6 | 181 | 4 |
| 2010-01-05T23:51 | 5956 | 496 | -3.3 | -9.3 | 184 | 4 |
| 2010-01-05T23:52 | 5994 | 493 | -3.4 | -9.5 | 189 | 3 |
| 2010-01-05T23:52 | 6032 | 491 | -3.5 | -10.4 | 192 | 3 |
| 2010-01-05T23:52 | 6071 | 488 | -3.6 | -10.5 | 190 | 3 |
| 2010-01-05T23:52 | 6109 | 486 | -4.0 | -10.5 | 182 | 2 |
| 2010-01-05T23:52 | 6146 | 484 | -4.2 | -10.7 | 171 | 2 |
| 2010-01-05T23:52 | 6186 | 481 | -4.4 | -10.8 | 157 | 1 |
| 2010-01-05T23:53 | 6223 | 479 | -4.7 | -10.9 | 142 | 1 |
| 2010-01-05T23:53 | 6262 | 477 | -5.0 | -11.0 | 127 | 1 |
| 2010-01-05T23:53 | 6302 | 474 | -5.3 | -11.1 | 111 | 1 |
| 2010-01-05T23:53 | 6341 | 472 | -5.7 | -11.3 | 95 | 1 |
| 2010-01-05T23:53 | 6378 | 470 | -5.8 | -12.1 | 83 | 1 |
| 2010-01-05T23:53 | 6416 | 467 | -6.1 | -13.4 | 79 | 2 |
| 2010-01-05T23:54 | 6454 | 465 | -6.3 | -13.9 | 82 | 2 |
| 2010-01-05T23:54 | 6492 | 463 | -6.6 | -13.9 | 89 | 2 |
| 2010-01-05T23:54 | 6532 | 461 | -6.8 | -13.5 | 98 | 2 |
| 2010-01-05T23:54 | 6571 | 458 | -6.9 | -13.3 | 109 | 2 |
| 2010-01-05T23:54 | 6611 | 456 | -7.2 | -13.7 | 114 | 2 |
| 2010-01-05T23:54 | 6650 | 454 | -7.3 | -14.6 | 112 | 2 |
| 2010-01-05T23:55 | 6691 | 451 | -7.5 | -15.8 | 111 | 2 |
| 2010-01-05T23:55 | 6732 | 449 | -7.7 | -16.0 | 115 | 2 |
| 2010-01-05T23:55 | 6772 | 447 | -7.9 | -17.5 | 121 | 2 |
| 2010-01-05T23:55 | 6811 | 444 | -8.2 | -15.6 | 124 | 2 |
| 2010-01-05T23:55 | 6851 | 442 | -8.5 | -14.9 | 125 | 2 |
| 2010-01-05T23:55 | 6893 | 440 | -8.8 | -16.7 | 125 | 2 |
| 2010-01-05T23:56 | 6935 | 437 | -9.1 | -17.9 | 123 | 2 |
| 2010-01-05T23:56 | 6977 | 435 | -9.4 | -19.7 | 121 | 2 |
| 2010-01-05T23:56 | 7018 | 433 | -9.7 | -21.2 | 124 | 2 |
| 2010-01-05T23:56 | 7059 | 430 | -9.9 | -21.5 | 125 | 2 |
| 2010-01-05T23:56 | 7101 | 428 | -10.2 | -20.7 | 123 | 3 |
| 2010-01-05T23:56 | 7147 | 425 | -10.3 | -21.8 | 122 | 3 |
| 2010-01-05T23:57 | 7190 | 423 | -10.4 | -22.2 | 122 | 4 |
| 2010-01-05T23:57 | 7235 | 421 | -10.6 | -20.0 | 123 | 4 |
| 2010-01-05T23:57 | 7279 | 418 | -10.8 | -20.0 | 124 | 4 |
| 2010-01-05T23:57 | 7319 | 416 | -11.0 | -20.6 | 125 | 4 |
| 2010-01-05T23:57 | 7361 | 414 | -11.4 | -21.6 | 125 | 4 |
| 2010-01-05T23:57 | 7402 | 412 | -11.7 | -23.3 | 124 | 5 |
| 2010-01-05T23:58 | 7444 | 409 | -11.9 | -24.4 | 125 | 5 |
| 2010-01-05T23:58 | 7487 | 407 | -12.3 | -22.6 | 125 | 5 |
| 2010-01-05T23:58 | 7528 | 405 | -12.5 | -25.1 | 124 | 5 |
| 2010-01-05T23:58 | 7569 | 403 | -12.8 | -25.8 | 124 | 5 |
| 2010-01-05T23:58 | 7609 | 401 | -13.1 | -26.0 | 123 | 6 |
| 2010-01-05T23:58 | 7652 | 398 | -13.4 | -21.3 | 122 | 6 |
| 2010-01-05T23:59 | 7694 | 396 | -13.7 | -22.8 | 120 | 6 |
| 2010-01-05T23:59 | 7735 | 394 | -13.9 | -25.1 | 119 | 6 |
| 2010-01-05T23:59 | 7776 | 392 | -14.2 | -23.2 | 117 | 6 |
| 2010-01-05T23:59 | 7817 | 390 | -14.5 | -25.5 | 114 | 6 |
| 2010-01-05T23:59 | 7858 | 388 | -14.9 | -21.6 | 111 | 5 |
| 2010-01-05T23:59 | 7898 | 386 | -15.2 | -21.8 | 107 | 5 |
| 2010-01-06T00:00 | 7940 | 383 | -15.6 | -22.1 | 104 | 5 |
| 2010-01-06T00:00 | 7980 | 381 | -15.9 | -22.4 | 100 | 5 |
| 2010-01-06T00:00 | 8020 | 379 | -16.3 | -22.6 | 99 | 4 |
| 2010-01-06T00:00 | 8059 | 377 | -16.6 | -22.6 | 99 | 4 |
| 2010-01-06T00:00 | 8098 | 375 | -16.9 | -23.6 | 100 | 4 |
| 2010-01-06T00:00 | 8136 | 374 | -17.2 | -23.0 | 100 | 4 |
| 2010-01-06T00:01 | 8176 | 372 | -17.4 | -22.5 | 101 | 4 |
| 2010-01-06T00:01 | 8215 | 370 | -17.7 | -21.9 | 104 | 4 |
| 2010-01-06T00:01 | 8253 | 368 | -18.0 | -22.9 | 107 | 4 |
| 2010-01-06T00:01 | 8292 | 366 | -18.1 | -23.7 | 108 | 4 |
| 2010-01-06T00:01 | 8329 | 364 | -18.3 | -24.0 | 106 | 5 |
| 2010-01-06T00:01 | 8368 | 362 | -18.6 | -24.2 | 103 | 5 |
| 2010-01-06T00:02 | 8409 | 360 | -18.9 | -24.5 | 99 | 5 |
| 2010-01-06T00:02 | 8450 | 358 | -19.3 | -25.8 | 97 | 5 |
| 2010-01-06T00:02 | 8489 | 356 | -19.6 | -26.1 | 97 | 5 |
| 2010-01-06T00:02 | 8527 | 355 | -19.9 | -27.1 | 101 | 5 |
| 2010-01-06T00:02 | 8569 | 353 | -20.3 | -25.2 | 107 | 4 |
| 2010-01-06T00:02 | 8610 | 351 | -20.6 | -25.2 | 109 | 4 |
| 2010-01-06T00:03 | 8650 | 349 | -21.0 | -25.0 | 109 | 4 |
| 2010-01-06T00:03 | 8686 | 347 | -21.0 | -25.8 | 108 | 4 |
| 2010-01-06T00:03 | 8724 | 345 | -21.2 | -26.2 | 108 | 4 |
| 2010-01-06T00:03 | 8762 | 343 | -21.4 | -26.8 | 107 | 4 |
| 2010-01-06T00:03 | 8801 | 342 | -21.7 | -26.7 | 105 | 4 |
| 2010-01-06T00:03 | 8840 | 340 | -21.8 | -27.4 | 105 | 4 |
| 2010-01-06T00:04 | 8881 | 338 | -22.0 | -28.0 | 107 | 5 |
| 2010-01-06T00:04 | 8918 | 336 | -22.1 | -28.5 | 107 | 5 |
| 2010-01-06T00:04 | 8957 | 334 | -22.4 | -28.9 | 105 | 5 |
| 2010-01-06T00:04 | 8997 | 333 | -22.7 | -29.3 | 102 | 5 |
| 2010-01-06T00:04 | 9036 | 331 | -23.0 | -30.1 | 101 | 5 |
| 2010-01-06T00:04 | 9077 | 329 | -23.2 | -31.3 | 103 | 6 |
| 2010-01-06T00:05 | 9117 | 327 | -23.5 | -31.3 | 105 | 6 |
| 2010-01-06T00:05 | 9158 | 325 | -23.8 | -31.5 | 106 | 7 |
| 2010-01-06T00:05 | 9200 | 324 | -24.2 | -31.4 | 106 | 7 |
| 2010-01-06T00:05 | 9240 | 322 | -24.4 | -31.4 | 105 | 7 |
| 2010-01-06T00:05 | 9280 | 320 | -24.7 | -31.7 | 104 | 6 |
| 2010-01-06T00:05 | 9321 | 318 | -25.1 | -32.2 | 102 | 6 |
| 2010-01-06T00:06 | 9361 | 316 | -25.4 | -32.2 | 99 | 6 |
| 2010-01-06T00:06 | 9401 | 315 | -25.4 | -32.5 | 93 | 6 |
| 2010-01-06T00:06 | 9444 | 313 | -25.6 | -34.1 | 89 | 7 |
| 2010-01-06T00:06 | 9486 | 311 | -26.0 | -34.1 | 87 | 7 |
| 2010-01-06T00:06 | 9527 | 309 | -26.3 | -33.7 | 87 | 8 |
| 2010-01-06T00:06 | 9567 | 308 | -26.7 | -33.7 | 86 | 8 |
| 2010-01-06T00:07 | 9606 | 306 | -27.0 | -33.6 | 86 | 9 |
| 2010-01-06T00:07 | 9647 | 304 | -27.4 | -33.4 | 86 | 9 |
| 2010-01-06T00:07 | 9688 | 302 | -27.7 | -33.5 | 84 | 10 |
| 2010-01-06T00:07 | 9730 | 301 | -28.0 | -33.8 | 82 | 10 |
| 2010-01-06T00:07 | 9770 | 299 | -28.3 | -34.5 | 79 | 10 |
| 2010-01-06T00:07 | 9810 | 297 | -28.5 | -35.6 | 76 | 10 |
| 2010-01-06T00:08 | 9850 | 296 | -28.8 | -36.0 | 75 | 10 |
| 2010-01-06T00:08 | 9890 | 294 | -29.1 | -36.3 | 73 | 11 |
| 2010-01-06T00:08 | 9934 | 292 | -29.5 | -36.1 | 72 | 12 |
| 2010-01-06T00:08 | 9974 | 291 | -29.7 | -36.7 | 72 | 12 |
| 2010-01-06T00:08 | 10015 | 289 | -30.1 | -37.2 | 73 | 12 |
| 2010-01-06T00:08 | 10057 | 287 | -30.5 | -37.4 | 74 | 12 |
| 2010-01-06T00:09 | 10097 | 286 | -30.8 | -38.0 | 75 | 12 |
| 2010-01-06T00:09 | 10137 | 284 | -31.1 | -38.2 | 75 | 12 |
| 2010-01-06T00:09 | 10177 | 282 | -31.5 | -38.4 | 76 | 12 |
| 2010-01-06T00:09 | 10216 | 281 | -31.8 | -38.4 | 76 | 12 |
| 2010-01-06T00:09 | 10256 | 279 | -32.1 | -38.4 | 76 | 12 |
| 2010-01-06T00:09 | 10295 | 278 | -32.4 | -38.4 | 77 | 12 |
| 2010-01-06T00:10 | 10335 | 276 | -32.8 | -38.6 | 78 | 12 |
| 2010-01-06T00:10 | 10375 | 275 | -33.1 | -38.7 | 78 | 12 |
| 2010-01-06T00:10 | 10415 | 273 | -33.4 | -39.2 | 78 | 13 |
| 2010-01-06T00:10 | 10455 | 271 | -33.8 | -39.6 | 77 | 13 |
| 2010-01-06T00:10 | 10496 | 270 | -34.0 | -39.8 | 76 | 13 |
| 2010-01-06T00:10 | 10536 | 268 | -34.4 | -40.0 | 76 | 13 |
| 2010-01-06T00:11 | 10577 | 267 | -34.7 | -40.3 | 76 | 13 |
| 2010-01-06T00:11 | 10618 | 265 | -35.1 | -40.9 | 76 | 13 |
| 2010-01-06T00:11 | 10660 | 264 | -35.4 | -41.2 | 77 | 13 |
| 2010-01-06T00:11 | 10704 | 262 | -35.8 | -41.5 | 77 | 13 |
| 2010-01-06T00:11 | 10746 | 260 | -36.3 | -42.1 | 77 | 13 |
| 2010-01-06T00:11 | 10790 | 259 | -36.5 | -42.2 | 76 | 14 |
| 2010-01-06T00:12 | 10833 | 257 | -37.0 | -42.4 | 75 | 14 |
| 2010-01-06T00:12 | 10877 | 256 | -37.3 | -42.7 | 74 | 14 |
| 2010-01-06T00:12 | 10920 | 254 | -37.6 | -42.8 | 73 | 14 |
| 2010-01-06T00:12 | 10962 | 252 | -38.0 | -43.0 | 73 | 14 |
| 2010-01-06T00:12 | 11004 | 251 | -38.3 | -43.4 | 73 | 14 |
| 2010-01-06T00:12 | 11045 | 249 | -38.6 | -44.0 | 74 | 15 |
| 2010-01-06T00:13 | 11086 | 248 | -39.0 | -44.3 | 75 | 15 |
| 2010-01-06T00:13 | 11127 | 246 | -39.4 | -44.6 | 76 | 14 |
| 2010-01-06T00:13 | 11170 | 245 | -39.6 | -44.8 | 76 | 14 |
| 2010-01-06T00:13 | 11212 | 243 | -39.9 | -45.1 | 75 | 14 |
| 2010-01-06T00:13 | 11255 | 242 | -40.3 | -45.6 | 75 | 15 |
| 2010-01-06T00:13 | 11296 | 240 | -40.5 | -45.8 | 74 | 15 |
| 2010-01-06T00:14 | 11340 | 239 | -40.9 | -46.3 | 73 | 15 |
| 2010-01-06T00:14 | 11383 | 237 | -41.3 | -46.5 | 72 | 15 |
| 2010-01-06T00:14 | 11427 | 236 | -41.7 | -46.8 | 72 | 15 |
| 2010-01-06T00:14 | 11472 | 234 | -42.0 | -47.2 | 72 | 15 |
| 2010-01-06T00:14 | 11516 | 233 | -42.4 | -47.7 | 71 | 16 |
| 2010-01-06T00:14 | 11562 | 231 | -42.8 | -48.0 | 71 | 16 |
| 2010-01-06T00:15 | 11606 | 230 | -43.0 | -48.1 | 70 | 16 |
| 2010-01-06T00:15 | 11654 | 228 | -43.5 | -48.7 | 69 | 16 |
| 2010-01-06T00:15 | 11701 | 226 | -43.9 | -49.1 | 67 | 16 |
| 2010-01-06T00:15 | 11750 | 225 | -44.3 | -49.4 | 66 | 16 |
| 2010-01-06T00:15 | 11801 | 223 | -44.8 | -49.9 | 65 | 16 |
| 2010-01-06T00:15 | 11852 | 221 | -45.3 | -50.3 | 65 | 16 |
| 2010-01-06T00:16 | 11905 | 220 | -45.8 | -50.7 | 65 | 16 |
| 2010-01-06T00:16 | 11950 | 218 | -46.2 | -51.4 | 66 | 16 |
| 2010-01-06T00:16 | 11994 | 217 | -46.6 | -52.3 | 66 | 16 |
| 2010-01-06T00:16 | 12040 | 215 | -47.1 | -52.5 | 66 | 16 |
| 2010-01-06T00:16 | 12083 | 214 | -47.5 | -52.8 | 66 | 16 |
| 2010-01-06T00:16 | 12128 | 212 | -47.9 | -53.3 | 66 | 16 |
| 2010-01-06T00:17 | 12174 | 211 | -48.3 | -53.7 | 66 | 17 |
| 2010-01-06T00:17 | 12219 | 209 | -48.6 | -54.5 | 67 | 17 |
| 2010-01-06T00:17 | 12263 | 208 | -49.0 | -55.1 | 67 | 17 |
| 2010-01-06T00:17 | 12307 | 207 | -49.3 | -55.6 | 67 | 17 |
| 2010-01-06T00:17 | 12352 | 205 | -49.9 | -56.1 | 68 | 17 |
| 2010-01-06T00:17 | 12395 | 204 | -50.2 | -56.6 | 69 | 17 |
| 2010-01-06T00:18 | 12438 | 203 | -50.5 | -57.1 | 70 | 17 |
| 2010-01-06T00:18 | 12482 | 201 | -50.9 | -57.6 | 70 | 17 |
| 2010-01-06T00:18 | 12525 | 200 | -51.2 | -58.0 | 70 | 17 |
| 2010-01-06T00:18 | 12569 | 198 | -51.7 | -58.5 | 70 | 17 |
| 2010-01-06T00:18 | 12613 | 197 | -52.1 | -58.9 | 70 | 17 |
| 2010-01-06T00:18 | 12658 | 196 | -52.6 | -59.3 | 71 | 17 |
| 2010-01-06T00:19 | 12703 | 194 | -52.9 | -59.7 | 71 | 17 |
| 2010-01-06T00:19 | 12753 | 193 | -53.4 | -60.3 | 72 | 17 |
| 2010-01-06T00:19 | 12797 | 192 | -53.9 | -60.6 | 73 | 17 |
| 2010-01-06T00:19 | 12839 | 190 | -54.3 | -60.8 | 73 | 17 |
| 2010-01-06T00:19 | 12883 | 189 | -54.7 | -61.0 | 73 | 17 |
| 2010-01-06T00:19 | 12927 | 188 | -54.9 | -61.7 | 72 | 17 |
| 2010-01-06T00:20 | 12972 | 186 | -55.4 | -62.9 | 72 | 16 |
| 2010-01-06T00:20 | 13014 | 185 | -55.7 | -64.0 | 72 | 16 |
| 2010-01-06T00:20 | 13058 | 184 | -56.2 | -65.3 | 72 | 16 |
| 2010-01-06T00:20 | 13102 | 183 | -56.6 | -66.8 | 73 | 16 |
| 2010-01-06T00:20 | 13151 | 181 | -57.0 | -68.1 | 74 | 16 |
| 2010-01-06T00:20 | 13194 | 180 | -57.5 | -69.1 | 74 | 16 |
| 2010-01-06T00:21 | 13241 | 179 | -57.9 | -69.7 | 73 | 16 |
| 2010-01-06T00:21 | 13282 | 178 | -58.3 | -70.2 | 72 | 16 |
| 2010-01-06T00:21 | 13325 | 176 | -58.8 | -70.4 | 71 | 16 |
| 2010-01-06T00:21 | 13367 | 175 | -59.2 | -70.4 | 71 | 17 |
| 2010-01-06T00:21 | 13415 | 174 | -59.6 | -70.7 | 71 | 17 |
| 2010-01-06T00:21 | 13472 | 172 | -60.1 | -71.1 | 73 | 17 |
| 2010-01-06T00:22 | 13530 | 171 | -60.7 | -71.4 | 74 | 17 |
| 2010-01-06T00:22 | 13577 | 169 | -61.1 | -71.7 | 74 | 17 |
| 2010-01-06T00:22 | 13622 | 168 | -61.5 | -72.1 | 74 | 17 |
| 2010-01-06T00:22 | 13670 | 167 | -62.0 | -72.3 | 74 | 17 |
| 2010-01-06T00:22 | 13724 | 165 | -62.5 | -72.6 | 73 | 17 |
| 2010-01-06T00:22 | 13779 | 164 | -63.0 | -72.8 | 73 | 17 |
| 2010-01-06T00:23 | 13831 | 162 | -63.6 | -72.8 | 73 | 17 |
| 2010-01-06T00:23 | 13882 | 161 | -64.1 | -73.0 | 74 | 17 |
| 2010-01-06T00:23 | 13932 | 160 | -64.6 | -73.2 | 75 | 16 |
| 2010-01-06T00:23 | 13987 | 158 | -65.1 | -73.4 | 77 | 17 |
| 2010-01-06T00:23 | 14042 | 157 | -65.7 | -73.6 | 80 | 17 |
| 2010-01-06T00:23 | 14099 | 156 | -66.2 | -73.8 | 84 | 17 |
| 2010-01-06T00:24 | 14153 | 154 | -66.7 | -74.0 | 90 | 17 |
| 2010-01-06T00:24 | 14217 | 152 | -66.5 | -74.0 | 97 | 17 |
| 2010-01-06T00:24 | 14264 | 151 | -66.5 | -74.4 | 103 | 17 |
| 2010-01-06T00:24 | 14307 | 150 | -66.7 | -75.0 | 106 | 18 |
| 2010-01-06T00:24 | 14352 | 149 | -66.8 | -75.6 | 109 | 18 |
| 2010-01-06T00:24 | 14395 | 148 | -67.2 | -76.5 | 111 | 18 |
| 2010-01-06T00:25 | 14439 | 147 | -67.6 | -77.1 | 112 | 18 |
| 2010-01-06T00:25 | 14483 | 146 | -67.9 | -77.6 | 113 | 19 |
| 2010-01-06T00:25 | 14527 | 145 | -68.2 | -78.0 | 114 | 20 |
| 2010-01-06T00:25 | 14573 | 144 | -68.5 | -78.3 | 115 | 20 |
| 2010-01-06T00:25 | 14617 | 143 | -68.9 | -78.7 | 116 | 20 |
| 2010-01-06T00:25 | 14661 | 142 | -69.2 | -79.0 | 117 | 20 |
| 2010-01-06T00:26 | 14706 | 141 | -69.6 | -79.3 | 118 | 20 |
| 2010-01-06T00:26 | 14751 | 140 | -69.9 | -79.7 | 119 | 21 |
| 2010-01-06T00:26 | 14798 | 138 | -70.4 | -80.2 | 119 | 21 |
| 2010-01-06T00:26 | 14843 | 137 | -70.7 | -80.6 | 119 | 22 |
| 2010-01-06T00:26 | 14886 | 136 | -71.0 | -81.1 | 118 | 22 |
| 2010-01-06T00:26 | 14931 | 135 | -71.4 | -81.6 | 118 | 22 |
| 2010-01-06T00:27 | 14976 | 134 | -71.8 | -82.0 | 119 | 22 |
| 2010-01-06T00:27 | 15021 | 133 | -72.3 | -82.3 | 120 | 22 |
| 2010-01-06T00:27 | 15067 | 132 | -72.6 | -82.4 | 121 | 23 |
| 2010-01-06T00:27 | 15111 | 131 | -73.0 | -82.5 | 120 | 23 |
| 2010-01-06T00:27 | 15160 | 130 | -73.4 | -82.6 | 117 | 23 |
| 2010-01-06T00:27 | 15210 | 129 | -73.4 | -82.8 | 113 | 22 |
| 2010-01-06T00:28 | 15267 | 128 | -73.7 | -83.1 | 110 | 22 |
| 2010-01-06T00:28 | 15349 | 126 | -74.3 | -83.8 | 106 | 21 |
| 2010-01-06T00:28 | 15409 | 125 | -74.7 | -84.3 | 100 | 20 |
| 2010-01-06T00:28 | 15463 | 124 | -75.2 | -84.7 | 97 | 20 |
| 2010-01-06T00:28 | 15523 | 122 | -75.7 | -85.3 | 94 | 20 |
| 2010-01-06T00:28 | 15572 | 121 | -76.1 | -85.7 | 91 | 20 |
| 2010-01-06T00:29 | 15624 | 120 | -76.6 | -86.1 | 88 | 20 |
| 2010-01-06T00:29 | 15673 | 119 | -77.1 | -86.5 | 86 | 21 |
| 2010-01-06T00:29 | 15723 | 118 | -77.6 | -87.0 | 85 | 21 |
| 2010-01-06T00:29 | 15776 | 117 | -78.0 | -87.4 | 84 | 21 |
| 2010-01-06T00:29 | 15826 | 116 | -78.5 | -87.7 | 83 | 22 |
| 2010-01-06T00:29 | 15875 | 115 | -79.0 | -88.2 | 82 | 22 |
| 2010-01-06T00:30 | 15926 | 114 | -79.4 | -88.5 | 81 | 22 |
| 2010-01-06T00:30 | 15977 | 113 | -79.9 | -88.9 | 80 | 22 |
| 2010-01-06T00:30 | 16023 | 112 | -80.3 | -89.2 | 79 | 23 |
| 2010-01-06T00:30 | 16069 | 111 | -80.7 | -89.5 | 79 | 23 |
| 2010-01-06T00:30 | 16114 | 110 | -81.1 | -89.8 | 78 | 23 |
| 2010-01-06T00:30 | 16161 | 109 | -81.6 | -90.2 | 76 | 24 |
| 2010-01-06T00:31 | 16208 | 108 | -82.0 | -90.5 | 75 | 24 |
| 2010-01-06T00:31 | 16253 | 108 | -82.4 | -90.8 | 74 | 24 |
| 2010-01-06T00:31 | 16299 | 107 | -82.9 | -91.2 | 73 | 24 |
| 2010-01-06T00:31 | 16343 | 106 | -83.4 | -91.6 | 72 | 25 |
| 2010-01-06T00:31 | 16388 | 105 | -83.8 | -91.9 | 71 | 25 |
| 2010-01-06T00:31 | 16432 | 104 | -84.0 | -92.1 | 72 | 25 |
| 2010-01-06T00:32 | 16479 | 103 | -84.3 | -92.3 | 72 | 24 |
| 2010-01-06T00:32 | 16524 | 102 | -84.6 | -92.5 | 73 | 24 |
| 2010-01-06T00:32 | 16569 | 102 | -85.0 | -92.9 | 73 | 23 |
| 2010-01-06T00:32 | 16615 | 101 | -85.2 | -93.0 | 73 | 23 |
| 2010-01-06T00:32 | 16658 | 100 | -85.4 | -93.2 | 73 | 22 |
| 2010-01-06T00:32 | 16700 | 99 | -85.8 | -93.5 | 74 | 22 |
| 2010-01-06T00:33 | 16744 | 98 | -86.1 | -93.8 | 76 | 22 |
| 2010-01-06T00:33 | 16788 | 98 | -86.0 | -93.7 | 77 | 23 |
| 2010-01-06T00:33 | 16831 | 97 | -86.3 | -93.9 | 80 | 23 |
| 2010-01-06T00:33 | 16874 | 96 | -86.2 | -93.9 | 82 | 23 |
| 2010-01-06T00:33 | 16915 | 95 | -85.8 | -93.4 | 85 | 22 |
| 2010-01-06T00:33 | 16961 | 95 | -84.2 | -92.0 | 87 | 19 |
| 2010-01-06T00:34 | 17012 | 94 | -83.0 | -91.0 | 91 | 15 |
| 2010-01-06T00:34 | 17057 | 93 | -81.4 | -89.6 | 100 | 11 |
| 2010-01-06T00:34 | 17105 | 92 | -79.9 | -88.4 | 112 | 8 |
| 2010-01-06T00:34 | 17148 | 91 | -79.3 | -87.8 | 127 | 7 |
| 2010-01-06T00:34 | 17192 | 91 | -79.2 | -87.9 | 143 | 6 |
| 2010-01-06T00:34 | 17236 | 90 | -78.5 | -87.5 | 166 | 5 |
| 2010-01-06T00:35 | 17280 | 89 | -77.8 | -87.0 | 195 | 4 |
| 2010-01-06T00:35 | 17325 | 89 | -77.3 | -86.8 | 218 | 5 |
| 2010-01-06T00:35 | 17371 | 88 | -77.2 | -86.8 | 230 | 6 |
| 2010-01-06T00:35 | 17418 | 87 | -77.5 | -87.4 | 241 | 7 |
| 2010-01-06T00:35 | 17461 | 87 | -77.7 | -87.7 | 251 | 8 |
| 2010-01-06T00:35 | 17507 | 86 | -77.4 | -87.7 | 259 | 9 |
| 2010-01-06T00:36 | 17553 | 85 | -77.4 | -87.9 | 265 | 10 |
| 2010-01-06T00:36 | 17601 | 85 | -77.1 | -87.8 | 266 | 11 |
| 2010-01-06T00:36 | 17655 | 84 | -77.2 | -88.0 | 263 | 12 |
| 2010-01-06T00:36 | 17703 | 83 | -77.5 | -88.5 | 258 | 12 |
| 2010-01-06T00:36 | 17755 | 82 | -78.0 | -89.1 | 255 | 13 |
| 2010-01-06T00:36 | 17802 | 82 | -78.0 | -89.2 | 254 | 13 |
| 2010-01-06T00:37 | 17846 | 81 | -77.6 | -89.0 | 257 | 12 |
| 2010-01-06T00:37 | 17891 | 80 | -77.8 | -89.3 | 263 | 11 |
| 2010-01-06T00:37 | 17938 | 80 | -77.7 | -89.4 | 272 | 11 |
| 2010-01-06T00:37 | 17982 | 79 | -77.6 | -89.3 | 282 | 10 |
| 2010-01-06T00:37 | 18026 | 78 | -75.7 | -88.0 | 290 | 10 |
| 2010-01-06T00:37 | 18069 | 78 | -74.8 | -87.3 | 292 | 10 |
| 2010-01-06T00:38 | 18111 | 77 | -74.4 | -87.1 | 292 | 11 |
| 2010-01-06T00:38 | 18152 | 77 | -74.3 | -87.2 | 293 | 11 |
| 2010-01-06T00:38 | 18194 | 76 | -74.4 | -87.4 | 293 | 11 |
| 2010-01-06T00:38 | 18236 | 76 | -74.5 | -87.8 | 293 | 10 |
| 2010-01-06T00:38 | 18279 | 75 | -74.3 | -87.8 | 290 | 9 |
| 2010-01-06T00:38 | 18321 | 75 | -73.7 | -87.5 | 283 | 8 |
| 2010-01-06T00:39 | 18366 | 74 | -73.4 | -87.5 | 275 | 8 |
| 2010-01-06T00:39 | 18409 | 73 | -73.4 | -87.6 | 269 | 9 |
| 2010-01-06T00:39 | 18458 | 73 | -73.2 | -87.7 | 264 | 11 |
| 2010-01-06T00:39 | 18505 | 72 | -73.4 | -88.0 | 261 | 12 |
| 2010-01-06T00:39 | 18548 | 72 | -73.2 | -88.2 | 259 | 13 |
| 2010-01-06T00:39 | 18592 | 71 | -73.3 | -88.4 | 258 | 13 |
| 2010-01-06T00:40 | 18639 | 71 | -73.8 | -88.9 | 258 | 13 |
| 2010-01-06T00:40 | 18685 | 70 | -74.1 | -89.3 | 259 | 13 |
| 2010-01-06T00:40 | 18731 | 70 | -74.4 | -89.7 | 260 | 12 |
| 2010-01-06T00:40 | 18776 | 69 | -74.6 | -89.9 | 262 | 12 |
| 2010-01-06T00:40 | 18824 | 68 | -74.9 | -90.3 | 264 | 12 |
| 2010-01-06T00:40 | 18871 | 68 | -75.2 | -90.6 | 266 | 11 |
| 2010-01-06T00:41 | 18917 | 67 | -75.7 | -91.0 | 268 | 11 |
| 2010-01-06T00:41 | 18965 | 67 | -76.1 | -91.3 | 269 | 10 |
| 2010-01-06T00:41 | 19012 | 66 | -76.4 | -91.7 | 270 | 10 |
| 2010-01-06T00:41 | 19060 | 66 | -76.9 | -92.1 | 270 | 10 |
| 2010-01-06T00:41 | 19107 | 65 | -77.4 | -92.5 | 269 | 9 |
| 2010-01-06T00:41 | 19154 | 65 | -77.8 | -92.8 | 270 | 9 |
| 2010-01-06T00:42 | 19203 | 64 | -77.0 | -92.2 | 276 | 10 |
| 2010-01-06T00:42 | 19248 | 64 | -76.7 | -91.8 | 279 | 11 |
| 2010-01-06T00:42 | 19295 | 63 | -76.7 | -91.8 | 279 | 11 |
| 2010-01-06T00:42 | 19341 | 63 | -76.6 | -91.5 | 276 | 11 |
| 2010-01-06T00:42 | 19387 | 62 | -76.4 | -91.4 | 274 | 10 |
| 2010-01-06T00:42 | 19431 | 62 | -76.0 | -91.1 | 274 | 10 |
| 2010-01-06T00:43 | 19476 | 61 | -76.2 | -91.3 | 277 | 9 |
| 2010-01-06T00:43 | 19523 | 61 | -76.0 | -91.1 | 281 | 9 |
| 2010-01-06T00:43 | 19568 | 60 | -75.5 | -90.8 | 288 | 8 |
| 2010-01-06T00:43 | 19612 | 60 | -74.5 | -90.1 | 294 | 7 |
| 2010-01-06T00:43 | 19657 | 59 | -73.3 | -89.1 | 298 | 7 |
| 2010-01-06T00:43 | 19701 | 59 | -71.7 | -88.1 | 300 | 8 |
| 2010-01-06T00:44 | 19745 | 58 | -71.7 | -88.1 | 302 | 9 |
| 2010-01-06T00:44 | 19792 | 58 | -70.5 | -87.4 | 302 | 9 |
| 2010-01-06T00:44 | 19839 | 57 | -68.9 | -86.5 | 300 | 9 |
| 2010-01-06T00:44 | 19886 | 57 | -68.4 | -86.3 | 298 | 9 |
| 2010-01-06T00:44 | 19934 | 57 | -68.3 | -86.6 | 296 | 9 |
| 2010-01-06T00:44 | 19983 | 56 | -66.8 | -86.0 | 295 | 10 |
| 2010-01-06T00:45 | 20029 | 56 | -66.7 | -86.3 | 294 | 10 |
| 2010-01-06T00:45 | 20077 | 55 | -67.1 | -87.0 | 293 | 11 |
| 2010-01-06T00:45 | 20126 | 55 | -67.5 | -87.7 | 294 | 11 |
| 2010-01-06T00:45 | 20172 | 54 | -67.9 | -88.4 | 295 | 11 |
| 2010-01-06T00:45 | 20220 | 54 | -68.3 | -89.0 | 296 | 11 |
| 2010-01-06T00:45 | 20270 | 53 | -68.2 | -89.3 | 293 | 11 |
| 2010-01-06T00:46 | 20322 | 53 | -68.5 | -89.7 | 285 | 10 |
| 2010-01-06T00:46 | 20374 | 53 | -68.7 | -90.1 | 273 | 9 |
| 2010-01-06T00:46 | 20420 | 52 | -68.6 | -90.2 | 261 | 9 |
| 2010-01-06T00:46 | 20466 | 52 | -68.7 | -90.4 | 250 | 10 |
| 2010-01-06T00:46 | 20515 | 51 | -68.8 | -90.6 | 244 | 10 |
| 2010-01-06T00:46 | 20560 | 51 | -68.7 | -90.7 | 242 | 10 |
| 2010-01-06T00:47 | 20606 | 51 | -68.9 | -90.9 | 243 | 10 |
| 2010-01-06T00:47 | 20651 | 50 | -69.4 | -91.3 | 246 | 10 |
| 2010-01-06T00:47 | 20697 | 50 | -69.6 | -91.5 | 248 | 10 |
| 2010-01-06T00:47 | 20744 | 49 | -69.7 | -91.7 | 249 | 10 |
| 2010-01-06T00:47 | 20794 | 49 | -70.1 | -91.9 | 250 | 10 |
| 2010-01-06T00:47 | 20842 | 49 | -70.5 | -92.2 | 253 | 10 |
| 2010-01-06T00:48 | 20889 | 48 | -70.7 | -92.4 | 255 | 10 |
| 2010-01-06T00:48 | 20937 | 48 | -70.5 | -92.3 | 256 | 10 |
| 2010-01-06T00:48 | 20986 | 47 | -70.5 | -92.4 | 256 | 10 |
| 2010-01-06T00:48 | 21037 | 47 | -70.6 | -92.5 | 254 | 10 |
| 2010-01-06T00:48 | 21090 | 47 | -70.6 | -92.4 | 251 | 9 |
| 2010-01-06T00:48 | 21139 | 46 | -70.2 | -92.2 | 244 | 9 |
| 2010-01-06T00:49 | 21189 | 46 | -69.6 | -91.7 | 236 | 9 |
| 2010-01-06T00:49 | 21241 | 45 | -69.6 | -91.9 | 228 | 9 |
| 2010-01-06T00:49 | 21293 | 45 | -69.5 | -91.8 | 221 | 9 |
| 2010-01-06T00:49 | 21344 | 45 | -69.4 | -91.8 | 215 | 9 |
| 2010-01-06T00:49 | 21396 | 44 | -69.6 | -92.0 | 211 | 8 |
| 2010-01-06T00:49 | 21445 | 44 | -69.8 | -92.2 | 210 | 8 |
| 2010-01-06T00:50 | 21497 | 44 | -69.7 | -92.2 | 213 | 7 |
| 2010-01-06T00:50 | 21545 | 43 | -69.6 | -92.4 | 217 | 7 |
| 2010-01-06T00:50 | 21595 | 43 | -69.4 | -92.3 | 217 | 5 |
| 2010-01-06T00:50 | 21641 | 42 | -68.4 | -91.8 | 211 | 4 |
| 2010-01-06T00:50 | 21687 | 42 | -67.7 | -91.4 | 200 | 1 |
| 2010-01-06T00:50 | 21734 | 42 | -67.6 | -91.3 | 0 | 0 |
| 2010-01-06T00:51 | 21781 | 41 | -67.5 | -91.3 | 26 | 2 |
| 2010-01-06T00:51 | 21826 | 41 | -67.2 | -91.2 | 22 | 3 |
| 2010-01-06T00:51 | 21873 | 41 | -67.2 | -91.3 | 21 | 4 |
| 2010-01-06T00:51 | 21918 | 41 | -67.2 | -91.4 | 23 | 4 |
| 2010-01-06T00:51 | 21964 | 40 | -67.3 | -91.5 | 28 | 4 |
| 2010-01-06T00:51 | 22010 | 40 | -67.2 | -91.6 | 38 | 5 |
| 2010-01-06T00:52 | 22057 | 40 | -67.1 | -91.6 | 49 | 5 |
| 2010-01-06T00:52 | 22106 | 39 | -67.2 | -91.7 | 60 | 7 |
| 2010-01-06T00:52 | 22155 | 39 | -67.2 | -91.8 | 69 | 8 |
| 2010-01-06T00:52 | 22204 | 39 | -67.2 | -91.8 | 76 | 10 |
| 2010-01-06T00:52 | 22255 | 38 | -67.3 | -91.9 | 83 | 11 |
| 2010-01-06T00:52 | 22305 | 38 | -67.3 | -92.0 | 89 | 11 |
| 2010-01-06T00:53 | 22357 | 38 | -67.1 | -92.0 | 95 | 12 |
| 2010-01-06T00:53 | 22409 | 37 | -67.3 | -92.1 | 96 | 12 |
| 2010-01-06T00:53 | 22460 | 37 | -67.3 | -92.1 | 94 | 14 |
| 2010-01-06T00:53 | 22513 | 37 | -67.1 | -92.1 | 90 | 15 |
| 2010-01-06T00:53 | 22567 | 36 | -67.3 | -92.2 | 87 | 16 |
| 2010-01-06T00:53 | 22620 | 36 | -67.5 | -92.3 | 86 | 17 |
| 2010-01-06T00:54 | 22675 | 36 | -67.9 | -92.5 | 84 | 18 |
| 2010-01-06T00:54 | 22729 | 35 | -68.0 | -92.7 | 82 | 18 |
| 2010-01-06T00:54 | 22780 | 35 | -67.6 | -92.5 | 80 | 18 |
| 2010-01-06T00:54 | 22833 | 35 | -67.0 | -92.2 | 79 | 17 |
| 2010-01-06T00:54 | 22884 | 35 | -66.4 | -91.8 | 81 | 17 |
| 2010-01-06T00:54 | 22934 | 34 | -66.0 | -91.6 | 83 | 17 |
| 2010-01-06T00:55 | 22984 | 34 | -65.8 | -91.5 | 85 | 16 |
| 2010-01-06T00:55 | 23032 | 34 | -64.9 | -91.1 | 87 | 16 |
| 2010-01-06T00:55 | 23080 | 33 | -64.2 | -90.7 | 89 | 16 |
| 2010-01-06T00:55 | 23130 | 33 | -64.0 | -90.5 | 91 | 17 |
| 2010-01-06T00:55 | 23177 | 33 | -63.8 | -90.4 | 94 | 17 |
| 2010-01-06T00:55 | 23224 | 33 | -63.7 | -90.3 | 97 | 18 |
| 2010-01-06T00:56 | 23273 | 32 | -63.6 | -90.3 | 101 | 18 |
| 2010-01-06T00:56 | 23323 | 32 | -63.9 | -90.4 | 103 | 19 |
| 2010-01-06T00:56 | 23375 | 32 | -64.0 | -90.5 | 104 | 20 |
| 2010-01-06T00:56 | 23423 | 32 | -64.2 | -90.7 | 103 | 21 |
| 2010-01-06T00:56 | 23472 | 31 | -63.8 | -90.6 | 99 | 22 |
| 2010-01-06T00:56 | 23520 | 31 | -62.5 | -90.1 | 96 | 24 |
| 2010-01-06T00:57 | 23572 | 31 | -62.5 | -89.9 | 94 | 25 |
| 2010-01-06T00:57 | 23621 | 31 | -62.9 | -90.0 | 93 | 25 |
| 2010-01-06T00:57 | 23671 | 30 | -62.5 | -89.8 | 93 | 24 |
| 2010-01-06T00:57 | 23725 | 30 | -61.5 | -89.4 | 91 | 23 |
| 2010-01-06T00:57 | 23775 | 30 | -60.0 | -88.7 | 90 | 22 |
| 2010-01-06T00:57 | 23832 | 30 | -59.8 | -88.4 | 89 | 21 |
| 2010-01-06T00:58 | 23883 | 29 | -59.6 | -88.2 | 90 | 21 |
| 2010-01-06T00:58 | 23939 | 29 | -59.1 | -87.8 | 92 | 21 |
| 2010-01-06T00:58 | 23993 | 29 | -58.4 | -87.4 | 94 | 21 |
| 2010-01-06T00:58 | 24047 | 29 | -57.9 | -87.1 | 96 | 22 |
| 2010-01-06T00:58 | 24102 | 28 | -57.5 | -86.9 | 95 | 23 |
| 2010-01-06T00:58 | 24154 | 28 | -57.6 | -86.8 | 95 | 24 |
| 2010-01-06T00:59 | 24208 | 28 | -57.8 | -86.8 | 94 | 24 |
| 2010-01-06T00:59 | 24262 | 28 | -57.8 | -86.8 | 94 | 25 |
| 2010-01-06T00:59 | 24316 | 27 | -57.8 | -86.7 | 94 | 25 |
| 2010-01-06T00:59 | 24368 | 27 | -58.0 | -86.7 | 93 | 25 |
| 2010-01-06T00:59 | 24420 | 27 | -58.1 | -86.8 | 92 | 26 |
| 2010-01-06T00:59 | 24471 | 27 | -58.0 | -86.8 | 91 | 28 |
| 2010-01-06T01:00 | 24523 | 27 | -57.7 | -86.7 | 90 | 30 |
| 2010-01-06T01:00 | 24574 | 26 | -57.4 | -86.5 | 89 | 31 |
| 2010-01-06T01:00 | 24625 | 26 | -57.1 | -86.4 | 87 | 31 |
| 2010-01-06T01:00 | 24676 | 26 | -57.3 | -86.3 | 86 | 30 |
| 2010-01-06T01:00 | 24725 | 26 | -57.6 | -86.4 | 84 | 30 |
| 2010-01-06T01:00 | 24774 | 26 | -57.4 | -86.4 | 82 | 30 |
| 2010-01-06T01:01 | 24827 | 25 | -57.4 | -86.3 | 81 | 30 |
| 2010-01-06T01:01 | 24879 | 25 | -57.0 | -86.1 | 81 | 30 |
| 2010-01-06T01:01 | 24927 | 25 | -57.0 | -86.1 | 80 | 30 |
| 2010-01-06T01:01 | 24980 | 25 | -56.8 | -86.0 | 79 | 29 |
| 2010-01-06T01:01 | 25031 | 24 | -56.7 | -85.9 | 79 | 29 |
| 2010-01-06T01:01 | 25079 | 24 | -56.9 | -85.9 | 79 | 28 |
| 2010-01-06T01:02 | 25132 | 24 | -57.1 | -86.1 | 79 | 28 |
| 2010-01-06T01:02 | 25183 | 24 | -57.2 | -86.1 | 80 | 28 |
| 2010-01-06T01:02 | 25235 | 24 | -57.4 | -86.2 | 81 | 28 |
| 2010-01-06T01:02 | 25282 | 24 | -57.5 | -86.2 | 81 | 28 |
| 2010-01-06T11:28 | 4 | 1006 | 27.0 | 25.5 | 0 | 0 |
| 2010-01-06T11:28 | 14 | 1005 | 27.3 | 25.8 | 251 | 1 |
| 2010-01-06T11:28 | 25 | 1003 | 27.6 | 25.8 | 249 | 2 |
| 2010-01-06T11:28 | 35 | 1002 | 27.7 | 25.7 | 256 | 2 |
| 2010-01-06T11:28 | 46 | 1001 | 27.8 | 25.6 | 259 | 2 |
| 2010-01-06T11:28 | 57 | 1000 | 27.8 | 25.5 | 261 | 2 |
| 2010-01-06T11:28 | 68 | 999 | 27.8 | 25.4 | 264 | 3 |
| 2010-01-06T11:28 | 77 | 998 | 27.8 | 25.3 | 266 | 3 |
| 2010-01-06T11:28 | 86 | 997 | 27.8 | 25.2 | 269 | 3 |
| 2010-01-06T11:28 | 97 | 995 | 27.7 | 25.1 | 271 | 4 |
| 2010-01-06T11:28 | 107 | 994 | 27.6 | 25.0 | 273 | 4 |
| 2010-01-06T11:28 | 116 | 993 | 27.5 | 24.9 | 274 | 4 |
| 2010-01-06T11:28 | 127 | 992 | 27.5 | 24.8 | 276 | 4 |
| 2010-01-06T11:28 | 138 | 991 | 27.4 | 24.6 | 277 | 4 |
| 2010-01-06T11:28 | 148 | 990 | 27.4 | 24.4 | 278 | 5 |
| 2010-01-06T11:28 | 158 | 989 | 27.3 | 24.3 | 278 | 5 |
| 2010-01-06T11:28 | 169 | 987 | 27.2 | 24.2 | 278 | 5 |
| 2010-01-06T11:28 | 178 | 986 | 27.1 | 24.1 | 278 | 5 |
| 2010-01-06T11:28 | 186 | 985 | 27.1 | 24.0 | 278 | 5 |
| 2010-01-06T11:28 | 196 | 984 | 27.0 | 24.0 | 278 | 5 |
| 2010-01-06T11:28 | 205 | 983 | 27.0 | 23.9 | 277 | 5 |
| 2010-01-06T11:28 | 215 | 982 | 26.9 | 23.8 | 277 | 5 |
| 2010-01-06T11:28 | 226 | 981 | 26.8 | 23.7 | 276 | 5 |
| 2010-01-06T11:28 | 236 | 980 | 26.8 | 23.6 | 276 | 5 |
| 2010-01-06T11:28 | 247 | 979 | 26.7 | 23.5 | 275 | 5 |
| 2010-01-06T11:28 | 257 | 978 | 26.6 | 23.4 | 275 | 5 |
| 2010-01-06T11:28 | 266 | 977 | 26.6 | 23.3 | 275 | 5 |
| 2010-01-06T11:28 | 276 | 976 | 26.6 | 23.2 | 275 | 5 |
| 2010-01-06T11:28 | 287 | 974 | 26.6 | 23.0 | 276 | 5 |
| 2010-01-06T11:28 | 298 | 973 | 26.5 | 22.9 | 276 | 5 |
| 2010-01-06T11:29 | 308 | 972 | 26.4 | 22.8 | 276 | 5 |
| 2010-01-06T11:29 | 316 | 971 | 26.4 | 22.7 | 277 | 5 |
| 2010-01-06T11:29 | 323 | 970 | 26.3 | 22.6 | 277 | 4 |
| 2010-01-06T11:29 | 332 | 969 | 26.3 | 22.5 | 277 | 4 |
| 2010-01-06T11:29 | 341 | 968 | 26.3 | 22.3 | 277 | 4 |
| 2010-01-06T11:29 | 352 | 967 | 26.2 | 22.2 | 277 | 4 |
| 2010-01-06T11:29 | 364 | 966 | 26.1 | 22.0 | 277 | 4 |
| 2010-01-06T11:29 | 376 | 965 | 26.0 | 21.8 | 276 | 4 |
| 2010-01-06T11:29 | 387 | 963 | 25.9 | 21.7 | 276 | 4 |
| 2010-01-06T11:29 | 398 | 962 | 25.8 | 21.7 | 276 | 4 |
| 2010-01-06T11:29 | 410 | 961 | 25.7 | 21.6 | 275 | 4 |
| 2010-01-06T11:29 | 423 | 959 | 25.6 | 21.6 | 275 | 4 |
| 2010-01-06T11:29 | 432 | 958 | 25.5 | 21.6 | 275 | 4 |
| 2010-01-06T11:29 | 441 | 957 | 25.4 | 21.6 | 274 | 4 |
| 2010-01-06T11:29 | 452 | 956 | 25.3 | 21.7 | 274 | 4 |
| 2010-01-06T11:29 | 463 | 955 | 25.2 | 21.6 | 274 | 4 |
| 2010-01-06T11:29 | 474 | 954 | 25.1 | 21.6 | 273 | 4 |
| 2010-01-06T11:29 | 485 | 953 | 25.0 | 21.6 | 272 | 4 |
| 2010-01-06T11:29 | 495 | 952 | 24.9 | 21.6 | 272 | 4 |
| 2010-01-06T11:29 | 504 | 951 | 24.8 | 21.6 | 271 | 4 |
| 2010-01-06T11:29 | 514 | 950 | 24.7 | 21.6 | 270 | 4 |
| 2010-01-06T11:29 | 524 | 949 | 24.6 | 21.6 | 268 | 4 |
| 2010-01-06T11:29 | 536 | 947 | 24.6 | 21.6 | 267 | 4 |
| 2010-01-06T11:29 | 548 | 946 | 24.4 | 21.5 | 266 | 4 |
| 2010-01-06T11:29 | 558 | 945 | 24.4 | 21.5 | 265 | 4 |
| 2010-01-06T11:29 | 568 | 944 | 24.3 | 21.5 | 264 | 4 |
| 2010-01-06T11:29 | 579 | 943 | 24.2 | 21.5 | 263 | 4 |
| 2010-01-06T11:29 | 589 | 942 | 24.1 | 21.5 | 263 | 4 |
| 2010-01-06T11:29 | 600 | 940 | 24.0 | 21.5 | 262 | 4 |
| 2010-01-06T11:29 | 610 | 939 | 23.9 | 21.5 | 262 | 4 |
| 2010-01-06T11:30 | 620 | 938 | 23.8 | 21.4 | 261 | 4 |
| 2010-01-06T11:30 | 630 | 937 | 23.7 | 21.4 | 261 | 4 |
| 2010-01-06T11:30 | 639 | 936 | 23.7 | 21.3 | 261 | 4 |
| 2010-01-06T11:30 | 649 | 935 | 23.6 | 21.3 | 260 | 4 |
| 2010-01-06T11:30 | 659 | 934 | 23.5 | 21.3 | 259 | 4 |
| 2010-01-06T11:30 | 668 | 933 | 23.4 | 21.2 | 258 | 4 |
| 2010-01-06T11:30 | 680 | 932 | 23.3 | 21.1 | 257 | 3 |
| 2010-01-06T11:30 | 693 | 931 | 23.2 | 21.0 | 255 | 3 |
| 2010-01-06T11:30 | 704 | 929 | 23.1 | 21.0 | 254 | 3 |
| 2010-01-06T11:30 | 712 | 928 | 23.0 | 20.9 | 253 | 3 |
| 2010-01-06T11:30 | 720 | 928 | 23.0 | 20.9 | 252 | 3 |
| 2010-01-06T11:30 | 730 | 927 | 22.9 | 20.8 | 251 | 3 |
| 2010-01-06T11:30 | 740 | 925 | 22.8 | 20.8 | 250 | 3 |
| 2010-01-06T11:30 | 751 | 924 | 22.7 | 20.7 | 250 | 3 |
| 2010-01-06T11:30 | 762 | 923 | 22.7 | 20.7 | 250 | 3 |
| 2010-01-06T11:30 | 773 | 922 | 22.5 | 20.9 | 251 | 3 |
| 2010-01-06T11:30 | 783 | 921 | 22.4 | 21.0 | 251 | 3 |
| 2010-01-06T11:30 | 794 | 920 | 22.3 | 21.0 | 252 | 3 |
| 2010-01-06T11:30 | 805 | 919 | 22.2 | 20.9 | 253 | 3 |
| 2010-01-06T11:30 | 813 | 918 | 22.2 | 20.9 | 254 | 3 |
| 2010-01-06T11:30 | 820 | 917 | 22.1 | 20.8 | 255 | 3 |
| 2010-01-06T11:30 | 828 | 916 | 22.1 | 20.6 | 256 | 3 |
| 2010-01-06T11:30 | 835 | 915 | 22.1 | 20.5 | 256 | 3 |
| 2010-01-06T11:30 | 842 | 915 | 22.0 | 20.3 | 257 | 3 |
| 2010-01-06T11:30 | 850 | 914 | 22.0 | 20.2 | 258 | 3 |
| 2010-01-06T11:30 | 857 | 913 | 21.9 | 20.2 | 258 | 2 |
| 2010-01-06T11:30 | 865 | 912 | 21.9 | 20.3 | 258 | 2 |
| 2010-01-06T11:30 | 872 | 912 | 21.8 | 20.4 | 259 | 2 |
| 2010-01-06T11:30 | 880 | 911 | 21.7 | 20.4 | 259 | 2 |
| 2010-01-06T11:30 | 889 | 910 | 21.7 | 20.3 | 258 | 2 |
| 2010-01-06T11:31 | 900 | 909 | 21.6 | 20.3 | 258 | 2 |
| 2010-01-06T11:31 | 911 | 908 | 21.5 | 20.3 | 258 | 2 |
| 2010-01-06T11:31 | 922 | 906 | 21.4 | 20.3 | 257 | 2 |
| 2010-01-06T11:31 | 933 | 905 | 21.3 | 20.4 | 256 | 2 |
| 2010-01-06T11:31 | 942 | 904 | 21.3 | 20.4 | 255 | 2 |
| 2010-01-06T11:31 | 950 | 904 | 21.2 | 20.4 | 253 | 2 |
| 2010-01-06T11:31 | 959 | 903 | 21.2 | 20.3 | 250 | 2 |
| 2010-01-06T11:31 | 969 | 901 | 21.1 | 20.2 | 247 | 2 |
| 2010-01-06T11:31 | 980 | 900 | 21.0 | 20.2 | 243 | 2 |
| 2010-01-06T11:31 | 990 | 899 | 21.0 | 20.3 | 238 | 2 |
| 2010-01-06T11:31 | 1001 | 898 | 21.0 | 20.3 | 233 | 1 |
| 2010-01-06T11:31 | 1010 | 897 | 20.9 | 20.3 | 228 | 1 |
| 2010-01-06T11:31 | 1019 | 896 | 20.9 | 20.3 | 224 | 1 |
| 2010-01-06T11:31 | 1029 | 895 | 20.8 | 20.3 | 221 | 1 |
| 2010-01-06T11:31 | 1038 | 894 | 20.8 | 20.3 | 218 | 1 |
| 2010-01-06T11:31 | 1045 | 894 | 20.7 | 20.2 | 217 | 1 |
| 2010-01-06T11:31 | 1053 | 893 | 20.7 | 20.2 | 216 | 1 |
| 2010-01-06T11:31 | 1063 | 892 | 20.6 | 20.1 | 215 | 1 |
| 2010-01-06T11:31 | 1073 | 891 | 20.6 | 19.9 | 215 | 1 |
| 2010-01-06T11:31 | 1082 | 890 | 20.6 | 19.8 | 215 | 1 |
| 2010-01-06T11:31 | 1091 | 889 | 20.5 | 19.8 | 215 | 1 |
| 2010-01-06T11:31 | 1098 | 888 | 20.5 | 19.9 | 215 | 1 |
| 2010-01-06T11:31 | 1106 | 887 | 20.5 | 19.9 | 215 | 1 |
| 2010-01-06T11:31 | 1114 | 887 | 20.5 | 19.7 | 214 | 1 |
| 2010-01-06T11:31 | 1122 | 886 | 20.5 | 19.6 | 214 | 1 |
| 2010-01-06T11:31 | 1130 | 885 | 20.5 | 19.5 | 213 | 1 |
| 2010-01-06T11:31 | 1138 | 884 | 20.5 | 19.5 | 213 | 1 |
| 2010-01-06T11:31 | 1147 | 883 | 20.4 | 19.4 | 212 | 1 |
| 2010-01-06T11:31 | 1156 | 882 | 20.3 | 19.3 | 213 | 1 |
| 2010-01-06T11:31 | 1163 | 882 | 20.3 | 19.2 | 213 | 1 |
| 2010-01-06T11:32 | 1170 | 881 | 20.2 | 19.2 | 214 | 1 |
| 2010-01-06T11:32 | 1177 | 880 | 20.2 | 19.2 | 215 | 1 |
| 2010-01-06T11:32 | 1186 | 879 | 20.2 | 19.1 | 216 | 1 |
| 2010-01-06T11:32 | 1194 | 878 | 20.2 | 19.0 | 217 | 1 |
| 2010-01-06T11:32 | 1203 | 878 | 20.1 | 18.9 | 218 | 1 |
| 2010-01-06T11:32 | 1211 | 877 | 20.1 | 18.9 | 219 | 1 |
| 2010-01-06T11:32 | 1220 | 876 | 20.0 | 18.8 | 219 | 1 |
| 2010-01-06T11:32 | 1229 | 875 | 19.9 | 18.8 | 219 | 1 |
| 2010-01-06T11:32 | 1237 | 874 | 19.9 | 18.6 | 218 | 1 |
| 2010-01-06T11:32 | 1247 | 873 | 19.8 | 18.5 | 216 | 1 |
| 2010-01-06T11:32 | 1258 | 872 | 19.8 | 18.1 | 215 | 1 |
| 2010-01-06T11:32 | 1268 | 871 | 19.8 | 17.6 | 212 | 1 |
| 2010-01-06T11:32 | 1276 | 870 | 19.8 | 17.5 | 209 | 1 |
| 2010-01-06T11:32 | 1283 | 869 | 19.7 | 17.6 | 205 | 1 |
| 2010-01-06T11:32 | 1292 | 869 | 19.6 | 17.8 | 200 | 1 |
| 2010-01-06T11:32 | 1302 | 868 | 19.5 | 17.8 | 194 | 1 |
| 2010-01-06T11:32 | 1312 | 867 | 19.4 | 17.7 | 186 | 1 |
| 2010-01-06T11:32 | 1322 | 866 | 19.3 | 17.8 | 178 | 1 |
| 2010-01-06T11:32 | 1329 | 865 | 19.3 | 17.9 | 168 | 1 |
| 2010-01-06T11:32 | 1334 | 864 | 19.3 | 17.8 | 158 | 1 |
| 2010-01-06T11:32 | 1341 | 864 | 19.3 | 17.7 | 148 | 1 |
| 2010-01-06T11:32 | 1351 | 863 | 19.2 | 17.8 | 140 | 1 |
| 2010-01-06T11:32 | 1362 | 862 | 19.3 | 17.7 | 133 | 1 |
| 2010-01-06T11:32 | 1374 | 860 | 19.3 | 17.5 | 128 | 1 |
| 2010-01-06T11:32 | 1384 | 859 | 19.3 | 17.4 | 124 | 1 |
| 2010-01-06T11:32 | 1393 | 859 | 19.2 | 17.2 | 121 | 1 |
| 2010-01-06T11:32 | 1401 | 858 | 19.2 | 16.9 | 119 | 1 |
| 2010-01-06T11:32 | 1409 | 857 | 19.2 | 16.7 | 118 | 2 |
| 2010-01-06T11:32 | 1418 | 856 | 19.2 | 16.7 | 117 | 2 |
| 2010-01-06T11:32 | 1429 | 855 | 19.1 | 16.7 | 116 | 2 |
| 2010-01-06T11:33 | 1440 | 854 | 19.0 | 16.7 | 116 | 2 |
| 2010-01-06T11:33 | 1450 | 853 | 19.0 | 16.6 | 116 | 2 |
| 2010-01-06T11:33 | 1460 | 852 | 18.9 | 16.6 | 116 | 2 |
| 2010-01-06T11:33 | 1469 | 851 | 18.8 | 16.5 | 116 | 2 |
| 2010-01-06T11:33 | 1477 | 850 | 18.8 | 16.6 | 116 | 2 |
| 2010-01-06T11:33 | 1484 | 850 | 18.7 | 16.6 | 116 | 2 |
| 2010-01-06T11:33 | 1492 | 849 | 18.6 | 16.5 | 117 | 2 |
| 2010-01-06T11:33 | 1500 | 848 | 18.6 | 16.5 | 117 | 2 |
| 2010-01-06T11:33 | 1507 | 847 | 18.6 | 16.3 | 117 | 2 |
| 2010-01-06T11:33 | 1513 | 847 | 18.6 | 16.1 | 117 | 2 |
| 2010-01-06T11:33 | 1521 | 846 | 18.6 | 15.9 | 117 | 2 |
| 2010-01-06T11:33 | 1529 | 845 | 18.6 | 16.0 | 116 | 2 |
| 2010-01-06T11:33 | 1537 | 844 | 18.7 | 16.4 | 116 | 2 |
| 2010-01-06T11:33 | 1544 | 844 | 18.8 | 16.5 | 116 | 2 |
| 2010-01-06T11:33 | 1552 | 843 | 18.8 | 16.6 | 115 | 2 |
| 2010-01-06T11:33 | 1559 | 842 | 18.8 | 16.7 | 115 | 2 |
| 2010-01-06T11:33 | 1566 | 841 | 18.8 | 16.7 | 114 | 2 |
| 2010-01-06T11:33 | 1574 | 841 | 18.8 | 16.6 | 113 | 3 |
| 2010-01-06T11:33 | 1582 | 840 | 18.8 | 16.5 | 112 | 3 |
| 2010-01-06T11:33 | 1591 | 839 | 18.9 | 16.3 | 111 | 3 |
| 2010-01-06T11:33 | 1605 | 838 | 18.9 | 16.0 | 110 | 3 |
| 2010-01-06T11:33 | 1618 | 836 | 18.8 | 15.9 | 109 | 3 |
| 2010-01-06T11:33 | 1628 | 835 | 18.7 | 15.7 | 107 | 3 |
| 2010-01-06T11:33 | 1638 | 834 | 18.7 | 15.5 | 105 | 3 |
| 2010-01-06T11:33 | 1647 | 834 | 18.6 | 15.4 | 102 | 3 |
| 2010-01-06T11:33 | 1656 | 833 | 18.6 | 15.3 | 100 | 3 |
| 2010-01-06T11:33 | 1665 | 832 | 18.5 | 15.2 | 97 | 3 |
| 2010-01-06T11:33 | 1673 | 831 | 18.5 | 15.1 | 95 | 3 |
| 2010-01-06T11:33 | 1680 | 830 | 18.4 | 15.0 | 92 | 3 |
| 2010-01-06T11:33 | 1690 | 829 | 18.4 | 14.9 | 89 | 3 |
| 2010-01-06T11:34 | 1700 | 828 | 18.3 | 14.8 | 87 | 3 |
| 2010-01-06T11:34 | 1709 | 828 | 18.3 | 14.7 | 85 | 3 |
| 2010-01-06T11:34 | 1718 | 827 | 18.2 | 14.6 | 84 | 3 |
| 2010-01-06T11:34 | 1730 | 826 | 18.2 | 14.6 | 83 | 3 |
| 2010-01-06T11:34 | 1741 | 825 | 18.1 | 14.5 | 83 | 3 |
| 2010-01-06T11:34 | 1752 | 823 | 18.1 | 14.4 | 83 | 3 |
| 2010-01-06T11:34 | 1764 | 822 | 18.1 | 14.4 | 84 | 3 |
| 2010-01-06T11:34 | 1775 | 821 | 18.1 | 14.4 | 85 | 3 |
| 2010-01-06T11:34 | 1786 | 820 | 18.3 | 14.1 | 87 | 3 |
| 2010-01-06T11:34 | 1798 | 819 | 18.3 | 13.8 | 89 | 3 |
| 2010-01-06T11:34 | 1809 | 818 | 18.3 | 13.6 | 91 | 3 |
| 2010-01-06T11:34 | 1820 | 817 | 18.3 | 13.5 | 94 | 3 |
| 2010-01-06T11:34 | 1830 | 816 | 18.2 | 13.4 | 96 | 3 |
| 2010-01-06T11:34 | 1839 | 815 | 18.3 | 13.3 | 99 | 3 |
| 2010-01-06T11:34 | 1848 | 814 | 18.2 | 13.2 | 101 | 3 |
| 2010-01-06T11:34 | 1856 | 814 | 18.1 | 13.1 | 104 | 3 |
| 2010-01-06T11:34 | 1865 | 813 | 18.1 | 13.0 | 107 | 3 |
| 2010-01-06T11:34 | 1873 | 812 | 18.0 | 12.9 | 110 | 2 |
| 2010-01-06T11:34 | 1880 | 811 | 17.9 | 12.9 | 112 | 2 |
| 2010-01-06T11:34 | 1886 | 811 | 17.9 | 12.8 | 115 | 2 |
| 2010-01-06T11:34 | 1893 | 810 | 17.9 | 12.7 | 118 | 2 |
| 2010-01-06T11:34 | 1901 | 809 | 17.8 | 12.6 | 121 | 2 |
| 2010-01-06T11:34 | 1909 | 809 | 17.7 | 12.5 | 124 | 2 |
| 2010-01-06T11:34 | 1917 | 808 | 17.7 | 12.5 | 127 | 2 |
| 2010-01-06T11:34 | 1925 | 807 | 17.6 | 12.5 | 129 | 2 |
| 2010-01-06T11:34 | 1933 | 806 | 17.6 | 12.4 | 132 | 2 |
| 2010-01-06T11:34 | 1941 | 806 | 17.5 | 12.3 | 133 | 2 |
| 2010-01-06T11:34 | 1949 | 805 | 17.5 | 12.3 | 135 | 2 |
| 2010-01-06T11:34 | 1957 | 804 | 17.5 | 12.3 | 136 | 2 |
| 2010-01-06T11:34 | 1965 | 803 | 17.4 | 12.3 | 137 | 2 |
| 2010-01-06T11:35 | 1974 | 802 | 17.3 | 12.3 | 137 | 2 |
| 2010-01-06T11:35 | 1983 | 802 | 17.3 | 12.3 | 137 | 2 |
| 2010-01-06T11:35 | 1991 | 801 | 17.2 | 12.3 | 136 | 2 |
| 2010-01-06T11:35 | 1999 | 800 | 17.2 | 12.3 | 136 | 2 |
| 2010-01-06T11:35 | 2019 | 798 | 17.1 | 12.3 | 135 | 1 |
| 2010-01-06T11:35 | 2061 | 794 | 17.0 | 11.8 | 134 | 0 |
| 2010-01-06T11:35 | 2099 | 791 | 17.0 | 11.5 | 0 | 0 |
| 2010-01-06T11:35 | 2156 | 786 | 16.5 | 11.1 | 0 | 0 |
| 2010-01-06T11:35 | 2205 | 781 | 16.2 | 11.3 | 64 | 0 |
| 2010-01-06T11:36 | 2255 | 776 | 15.9 | 11.4 | 52 | 1 |
| 2010-01-06T11:36 | 2313 | 771 | 15.5 | 11.3 | 47 | 2 |
| 2010-01-06T11:36 | 2363 | 767 | 15.2 | 10.4 | 46 | 3 |
| 2010-01-06T11:36 | 2409 | 762 | 14.9 | 10.2 | 44 | 3 |
| 2010-01-06T11:36 | 2449 | 759 | 14.6 | 9.7 | 42 | 3 |
| 2010-01-06T11:36 | 2494 | 755 | 14.2 | 9.4 | 41 | 2 |
| 2010-01-06T11:37 | 2551 | 750 | 13.8 | 9.3 | 40 | 2 |
| 2010-01-06T11:37 | 2609 | 745 | 13.5 | 10.1 | 44 | 2 |
| 2010-01-06T11:37 | 2645 | 742 | 13.2 | 10.1 | 55 | 2 |
| 2010-01-06T11:37 | 2684 | 738 | 13.0 | 9.2 | 73 | 1 |
| 2010-01-06T11:37 | 2724 | 735 | 12.9 | 9.0 | 85 | 1 |
| 2010-01-06T11:37 | 2765 | 731 | 12.7 | 8.8 | 94 | 1 |
| 2010-01-06T11:38 | 2803 | 728 | 12.5 | 8.5 | 114 | 1 |
| 2010-01-06T11:38 | 2843 | 724 | 12.4 | 8.5 | 137 | 1 |
| 2010-01-06T11:38 | 2879 | 721 | 12.2 | 8.2 | 145 | 1 |
| 2010-01-06T11:38 | 2918 | 718 | 12.0 | 8.3 | 142 | 2 |
| 2010-01-06T11:38 | 2962 | 714 | 11.7 | 8.2 | 140 | 2 |
| 2010-01-06T11:38 | 3013 | 710 | 11.4 | 7.5 | 140 | 2 |
| 2010-01-06T11:39 | 3048 | 707 | 11.3 | 6.8 | 138 | 1 |
| 2010-01-06T11:39 | 3088 | 703 | 11.0 | 6.7 | 134 | 1 |
| 2010-01-06T11:39 | 3127 | 700 | 10.7 | 6.8 | 128 | 1 |
| 2010-01-06T11:39 | 3166 | 697 | 10.4 | 7.4 | 124 | 1 |
| 2010-01-06T11:39 | 3205 | 694 | 10.2 | 7.4 | 123 | 1 |
| 2010-01-06T11:39 | 3246 | 690 | 10.0 | 6.7 | 123 | 1 |
| 2010-01-06T11:40 | 3286 | 687 | 9.8 | 6.5 | 122 | 1 |
| 2010-01-06T11:40 | 3326 | 684 | 9.5 | 6.3 | 114 | 1 |
| 2010-01-06T11:40 | 3368 | 680 | 9.2 | 6.2 | 91 | 1 |
| 2010-01-06T11:40 | 3407 | 677 | 8.9 | 6.7 | 72 | 1 |
| 2010-01-06T11:40 | 3452 | 673 | 8.9 | 6.5 | 63 | 1 |
| 2010-01-06T11:40 | 3503 | 669 | 8.9 | 6.1 | 57 | 1 |
| 2010-01-06T11:41 | 3545 | 666 | 8.7 | 5.5 | 49 | 1 |
| 2010-01-06T11:41 | 3591 | 662 | 8.4 | 5.2 | 0 | 0 |
| 2010-01-06T11:41 | 3634 | 659 | 8.0 | 5.3 | 305 | 0 |
| 2010-01-06T11:41 | 3671 | 656 | 8.0 | 5.2 | 317 | 1 |
| 2010-01-06T11:41 | 3721 | 652 | 7.7 | 5.1 | 339 | 1 |
| 2010-01-06T11:41 | 3776 | 648 | 7.4 | 4.7 | 358 | 2 |
| 2010-01-06T11:42 | 3818 | 644 | 7.1 | 4.5 | 20 | 1 |
| 2010-01-06T11:42 | 3858 | 641 | 6.8 | 4.8 | 49 | 1 |
| 2010-01-06T11:42 | 3894 | 638 | 6.7 | 4.4 | 67 | 1 |
| 2010-01-06T11:42 | 3933 | 635 | 6.5 | 3.6 | 55 | 1 |
| 2010-01-06T11:42 | 3978 | 632 | 6.2 | 3.4 | 25 | 0 |
| 2010-01-06T11:42 | 4029 | 628 | 5.8 | 3.4 | 10 | 1 |
| 2010-01-06T11:43 | 4066 | 625 | 5.7 | 3.1 | 15 | 0 |
| 2010-01-06T11:43 | 4104 | 622 | 5.6 | 2.8 | 44 | 0 |
| 2010-01-06T11:43 | 4140 | 620 | 5.4 | 2.7 | 84 | 0 |
| 2010-01-06T11:43 | 4176 | 617 | 5.2 | 2.6 | 100 | 1 |
| 2010-01-06T11:43 | 4212 | 614 | 5.0 | 2.2 | 106 | 1 |
| 2010-01-06T11:43 | 4247 | 611 | 4.7 | 2.2 | 105 | 1 |
| 2010-01-06T11:44 | 4281 | 609 | 4.4 | 2.0 | 100 | 1 |
| 2010-01-06T11:44 | 4319 | 606 | 4.1 | 2.0 | 98 | 2 |
| 2010-01-06T11:44 | 4359 | 603 | 3.8 | 1.9 | 96 | 2 |
| 2010-01-06T11:44 | 4398 | 600 | 3.6 | 1.6 | 92 | 2 |
| 2010-01-06T11:44 | 4435 | 598 | 3.4 | 1.4 | 85 | 2 |
| 2010-01-06T11:44 | 4471 | 595 | 3.2 | 0.9 | 79 | 2 |
| 2010-01-06T11:45 | 4509 | 592 | 2.9 | 0.9 | 76 | 2 |
| 2010-01-06T11:45 | 4547 | 589 | 2.6 | 0.8 | 75 | 2 |
| 2010-01-06T11:45 | 4586 | 586 | 2.4 | 0.7 | 79 | 2 |
| 2010-01-06T11:45 | 4623 | 584 | 2.2 | 0.5 | 85 | 2 |
| 2010-01-06T11:45 | 4663 | 581 | 1.9 | -0.1 | 89 | 2 |
| 2010-01-06T11:45 | 4700 | 578 | 1.7 | -0.4 | 90 | 2 |
| 2010-01-06T11:46 | 4740 | 575 | 1.4 | -0.9 | 92 | 2 |
| 2010-01-06T11:46 | 4779 | 573 | 1.1 | -1.1 | 96 | 2 |
| 2010-01-06T11:46 | 4819 | 570 | 0.9 | -1.5 | 98 | 2 |
| 2010-01-06T11:46 | 4858 | 567 | 0.7 | -1.6 | 97 | 2 |
| 2010-01-06T11:46 | 4899 | 564 | 0.5 | -2.3 | 96 | 2 |
| 2010-01-06T11:46 | 4940 | 561 | 0.3 | -2.2 | 100 | 2 |
| 2010-01-06T11:47 | 4981 | 558 | 0.1 | -2.7 | 105 | 2 |
| 2010-01-06T11:47 | 5023 | 556 | -0.2 | -2.7 | 107 | 2 |
| 2010-01-06T11:47 | 5063 | 553 | -0.6 | -2.5 | 107 | 2 |
| 2010-01-06T11:47 | 5104 | 550 | -1.0 | -2.5 | 110 | 2 |
| 2010-01-06T11:47 | 5146 | 547 | -1.3 | -3.0 | 113 | 2 |
| 2010-01-06T11:47 | 5189 | 544 | -1.6 | -2.8 | 114 | 2 |
| 2010-01-06T11:48 | 5229 | 541 | -1.7 | -3.4 | 116 | 3 |
| 2010-01-06T11:48 | 5269 | 539 | -1.6 | -4.3 | 119 | 3 |
| 2010-01-06T11:48 | 5310 | 536 | -1.6 | -4.6 | 123 | 3 |
| 2010-01-06T11:48 | 5347 | 533 | -1.8 | -5.3 | 125 | 3 |
| 2010-01-06T11:48 | 5388 | 531 | -2.0 | -5.2 | 125 | 3 |
| 2010-01-06T11:48 | 5426 | 528 | -2.3 | -5.1 | 123 | 3 |
| 2010-01-06T11:49 | 5465 | 526 | -2.6 | -5.3 | 123 | 2 |
| 2010-01-06T11:49 | 5503 | 523 | -2.8 | -5.3 | 123 | 2 |
| 2010-01-06T11:49 | 5540 | 521 | -3.0 | -5.4 | 122 | 2 |
| 2010-01-06T11:49 | 5576 | 518 | -3.3 | -5.7 | 121 | 2 |
| 2010-01-06T11:49 | 5614 | 516 | -3.4 | -5.9 | 123 | 2 |
| 2010-01-06T11:49 | 5650 | 513 | -3.6 | -6.1 | 127 | 2 |
| 2010-01-06T11:50 | 5688 | 511 | -3.7 | -6.3 | 129 | 2 |
| 2010-01-06T11:50 | 5724 | 509 | -3.8 | -6.6 | 131 | 1 |
| 2010-01-06T11:50 | 5760 | 506 | -4.0 | -8.0 | 137 | 2 |
| 2010-01-06T11:50 | 5796 | 504 | -4.0 | -8.1 | 143 | 2 |
| 2010-01-06T11:50 | 5832 | 502 | -4.0 | -8.1 | 148 | 2 |
| 2010-01-06T11:50 | 5868 | 499 | -4.0 | -7.8 | 153 | 2 |
| 2010-01-06T11:51 | 5904 | 497 | -4.2 | -8.5 | 157 | 2 |
| 2010-01-06T11:51 | 5938 | 495 | -4.2 | -8.9 | 157 | 2 |
| 2010-01-06T11:51 | 5974 | 493 | -4.4 | -9.2 | 157 | 2 |
| 2010-01-06T11:51 | 6013 | 490 | -4.7 | -9.5 | 155 | 1 |
| 2010-01-06T11:51 | 6056 | 488 | -4.8 | -10.5 | 149 | 1 |
| 2010-01-06T11:51 | 6097 | 485 | -5.1 | -10.6 | 136 | 1 |
| 2010-01-06T11:52 | 6138 | 483 | -5.4 | -11.0 | 122 | 1 |
| 2010-01-06T11:52 | 6179 | 480 | -5.7 | -11.5 | 114 | 1 |
| 2010-01-06T11:52 | 6217 | 478 | -5.9 | -11.8 | 113 | 2 |
| 2010-01-06T11:52 | 6257 | 475 | -6.2 | -12.0 | 115 | 2 |
| 2010-01-06T11:52 | 6294 | 473 | -6.4 | -12.4 | 116 | 2 |
| 2010-01-06T11:52 | 6334 | 471 | -6.5 | -12.1 | 115 | 2 |
| 2010-01-06T11:53 | 6372 | 468 | -6.5 | -13.0 | 112 | 2 |
| 2010-01-06T11:53 | 6411 | 466 | -6.6 | -12.2 | 111 | 2 |
| 2010-01-06T11:53 | 6451 | 464 | -6.7 | -13.2 | 115 | 2 |
| 2010-01-06T11:53 | 6489 | 461 | -6.6 | -14.1 | 120 | 2 |
| 2010-01-06T11:53 | 6531 | 459 | -6.9 | -13.6 | 125 | 2 |
| 2010-01-06T11:53 | 6571 | 457 | -7.3 | -13.8 | 130 | 2 |
| 2010-01-06T11:54 | 6611 | 454 | -7.5 | -13.9 | 136 | 1 |
| 2010-01-06T11:54 | 6650 | 452 | -7.8 | -14.3 | 137 | 1 |
| 2010-01-06T11:54 | 6691 | 450 | -8.0 | -14.6 | 130 | 1 |
| 2010-01-06T11:54 | 6730 | 447 | -8.3 | -14.9 | 119 | 2 |
| 2010-01-06T11:54 | 6770 | 445 | -8.6 | -15.1 | 112 | 2 |
| 2010-01-06T11:54 | 6807 | 443 | -8.6 | -15.4 | 109 | 2 |
| 2010-01-06T11:55 | 6846 | 441 | -8.7 | -15.9 | 107 | 2 |
| 2010-01-06T11:55 | 6887 | 438 | -9.1 | -15.9 | 104 | 2 |
| 2010-01-06T11:55 | 6926 | 436 | -9.4 | -16.1 | 104 | 1 |
| 2010-01-06T11:55 | 6965 | 434 | -9.4 | -17.2 | 110 | 1 |
| 2010-01-06T11:55 | 7004 | 432 | -9.7 | -17.9 | 115 | 1 |
| 2010-01-06T11:55 | 7040 | 430 | -10.0 | -17.2 | 115 | 1 |
| 2010-01-06T11:56 | 7077 | 428 | -10.4 | -16.7 | 111 | 1 |
| 2010-01-06T11:56 | 7114 | 426 | -10.6 | -16.4 | 110 | 1 |
| 2010-01-06T11:56 | 7152 | 424 | -10.8 | -17.8 | 111 | 2 |
| 2010-01-06T11:56 | 7187 | 422 | -11.0 | -18.1 | 112 | 2 |
| 2010-01-06T11:56 | 7223 | 420 | -11.2 | -18.8 | 113 | 2 |
| 2010-01-06T11:56 | 7258 | 418 | -11.2 | -19.9 | 108 | 2 |
| 2010-01-06T11:57 | 7294 | 416 | -11.4 | -19.6 | 94 | 2 |
| 2010-01-06T11:57 | 7332 | 414 | -11.6 | -19.4 | 76 | 2 |
| 2010-01-06T11:57 | 7368 | 412 | -12.0 | -19.2 | 59 | 2 |
| 2010-01-06T11:57 | 7405 | 410 | -12.1 | -19.0 | 45 | 2 |
| 2010-01-06T11:57 | 7443 | 408 | -12.2 | -20.0 | 39 | 3 |
| 2010-01-06T11:57 | 7482 | 406 | -12.5 | -20.3 | 40 | 3 |
| 2010-01-06T11:58 | 7522 | 404 | -12.6 | -21.8 | 43 | 3 |
| 2010-01-06T11:58 | 7559 | 402 | -12.8 | -23.6 | 45 | 4 |
| 2010-01-06T11:58 | 7597 | 400 | -13.0 | -23.5 | 45 | 4 |
| 2010-01-06T11:58 | 7637 | 398 | -13.2 | -21.9 | 46 | 4 |
| 2010-01-06T11:58 | 7675 | 396 | -13.5 | -22.3 | 47 | 4 |
| 2010-01-06T11:58 | 7711 | 394 | -13.6 | -23.7 | 47 | 4 |
| 2010-01-06T11:59 | 7749 | 392 | -13.5 | -25.3 | 48 | 4 |
| 2010-01-06T11:59 | 7788 | 390 | -13.7 | -24.1 | 52 | 3 |
| 2010-01-06T11:59 | 7827 | 388 | -14.0 | -24.7 | 60 | 3 |
| 2010-01-06T11:59 | 7867 | 386 | -14.3 | -25.2 | 66 | 3 |
| 2010-01-06T11:59 | 7905 | 384 | -14.6 | -25.4 | 66 | 3 |
| 2010-01-06T11:59 | 7948 | 382 | -14.9 | -26.0 | 60 | 3 |
| 2010-01-06T12:00 | 7988 | 380 | -15.3 | -26.4 | 53 | 3 |
| 2010-01-06T12:00 | 8028 | 378 | -15.6 | -26.6 | 47 | 3 |
| 2010-01-06T12:00 | 8068 | 376 | -16.0 | -26.9 | 43 | 4 |
| 2010-01-06T12:00 | 8109 | 374 | -16.3 | -27.4 | 42 | 4 |
| 2010-01-06T12:00 | 8149 | 372 | -16.6 | -28.0 | 43 | 4 |
| 2010-01-06T12:00 | 8188 | 370 | -17.0 | -28.1 | 43 | 4 |
| 2010-01-06T12:01 | 8228 | 368 | -17.4 | -28.2 | 42 | 4 |
| 2010-01-06T12:01 | 8268 | 366 | -17.7 | -28.0 | 42 | 4 |
| 2010-01-06T12:01 | 8309 | 364 | -18.1 | -27.7 | 45 | 5 |
| 2010-01-06T12:01 | 8349 | 362 | -18.4 | -28.3 | 50 | 5 |
| 2010-01-06T12:01 | 8390 | 360 | -18.7 | -29.2 | 54 | 5 |
| 2010-01-06T12:01 | 8429 | 358 | -19.0 | -30.1 | 57 | 4 |
| 2010-01-06T12:02 | 8468 | 356 | -19.3 | -29.8 | 62 | 4 |
| 2010-01-06T12:02 | 8510 | 354 | -19.5 | -29.5 | 69 | 4 |
| 2010-01-06T12:02 | 8551 | 352 | -19.7 | -30.5 | 75 | 4 |
| 2010-01-06T12:02 | 8591 | 350 | -20.0 | -30.3 | 78 | 4 |
| 2010-01-06T12:02 | 8632 | 348 | -20.4 | -29.8 | 79 | 4 |
| 2010-01-06T12:02 | 8672 | 346 | -20.7 | -30.9 | 76 | 4 |
| 2010-01-06T12:03 | 8712 | 345 | -21.0 | -31.4 | 72 | 4 |
| 2010-01-06T12:03 | 8752 | 343 | -21.3 | -31.6 | 69 | 5 |
| 2010-01-06T12:03 | 8794 | 341 | -21.7 | -31.6 | 67 | 5 |
| 2010-01-06T12:03 | 8835 | 339 | -22.1 | -31.1 | 65 | 5 |
| 2010-01-06T12:03 | 8875 | 337 | -22.4 | -30.3 | 62 | 6 |
| 2010-01-06T12:03 | 8919 | 335 | -22.7 | -29.5 | 59 | 7 |
| 2010-01-06T12:04 | 8960 | 333 | -23.0 | -29.9 | 56 | 7 |
| 2010-01-06T12:04 | 9008 | 331 | -23.1 | -31.6 | 51 | 8 |
| 2010-01-06T12:04 | 9053 | 329 | -23.4 | -32.5 | 46 | 9 |
| 2010-01-06T12:04 | 9092 | 327 | -23.7 | -33.1 | 44 | 9 |
| 2010-01-06T12:04 | 9131 | 325 | -24.0 | -33.3 | 44 | 9 |
| 2010-01-06T12:04 | 9169 | 324 | -24.4 | -33.3 | 43 | 9 |
| 2010-01-06T12:05 | 9207 | 322 | -24.7 | -33.4 | 41 | 9 |
| 2010-01-06T12:05 | 9245 | 320 | -25.0 | -33.8 | 39 | 9 |
| 2010-01-06T12:05 | 9286 | 319 | -25.3 | -33.8 | 37 | 8 |
| 2010-01-06T12:05 | 9327 | 317 | -25.7 | -32.9 | 33 | 9 |
| 2010-01-06T12:05 | 9372 | 315 | -26.1 | -32.1 | 29 | 9 |
| 2010-01-06T12:05 | 9410 | 313 | -26.3 | -31.3 | 27 | 8 |
| 2010-01-06T12:06 | 9448 | 312 | -26.4 | -30.3 | 29 | 8 |
| 2010-01-06T12:06 | 9486 | 310 | -26.7 | -30.8 | 32 | 8 |
| 2010-01-06T12:06 | 9522 | 308 | -27.0 | -32.2 | 35 | 8 |
| 2010-01-06T12:06 | 9562 | 307 | -27.3 | -34.3 | 37 | 9 |
| 2010-01-06T12:06 | 9599 | 305 | -27.5 | -37.4 | 37 | 9 |
| 2010-01-06T12:06 | 9637 | 303 | -27.8 | -38.9 | 38 | 9 |
| 2010-01-06T12:07 | 9675 | 302 | -28.1 | -39.5 | 39 | 9 |
| 2010-01-06T12:07 | 9712 | 300 | -28.4 | -40.0 | 40 | 9 |
| 2010-01-06T12:07 | 9750 | 299 | -28.7 | -40.2 | 40 | 9 |
| 2010-01-06T12:07 | 9788 | 297 | -29.1 | -40.5 | 39 | 9 |
| 2010-01-06T12:07 | 9825 | 296 | -29.4 | -40.7 | 37 | 9 |
| 2010-01-06T12:07 | 9864 | 294 | -29.7 | -39.4 | 36 | 9 |
| 2010-01-06T12:08 | 9901 | 292 | -30.0 | -38.0 | 35 | 9 |
| 2010-01-06T12:08 | 9939 | 291 | -30.4 | -35.8 | 33 | 9 |
| 2010-01-06T12:08 | 9977 | 289 | -30.5 | -37.1 | 32 | 9 |
| 2010-01-06T12:08 | 10015 | 288 | -30.7 | -39.5 | 31 | 9 |
| 2010-01-06T12:08 | 10054 | 286 | -31.0 | -41.9 | 32 | 8 |
| 2010-01-06T12:08 | 10091 | 285 | -31.2 | -44.9 | 32 | 8 |
| 2010-01-06T12:09 | 10130 | 283 | -31.5 | -47.1 | 31 | 8 |
| 2010-01-06T12:09 | 10170 | 282 | -31.8 | -47.0 | 31 | 9 |
| 2010-01-06T12:09 | 10210 | 280 | -32.0 | -47.3 | 32 | 8 |
| 2010-01-06T12:09 | 10254 | 278 | -32.4 | -47.2 | 35 | 8 |
| 2010-01-06T12:09 | 10296 | 277 | -32.8 | -47.1 | 38 | 8 |
| 2010-01-06T12:09 | 10334 | 275 | -33.2 | -47.1 | 41 | 8 |
| 2010-01-06T12:10 | 10380 | 273 | -33.6 | -47.5 | 43 | 8 |
| 2010-01-06T12:10 | 10422 | 272 | -34.0 | -47.5 | 46 | 8 |
| 2010-01-06T12:10 | 10466 | 270 | -34.4 | -47.5 | 48 | 8 |
| 2010-01-06T12:10 | 10509 | 268 | -34.8 | -47.3 | 50 | 8 |
| 2010-01-06T12:10 | 10549 | 267 | -35.2 | -47.0 | 49 | 7 |
| 2010-01-06T12:10 | 10588 | 265 | -35.5 | -46.3 | 47 | 7 |
| 2010-01-06T12:11 | 10629 | 264 | -35.7 | -45.3 | 45 | 7 |
| 2010-01-06T12:11 | 10669 | 262 | -35.8 | -46.2 | 44 | 8 |
| 2010-01-06T12:11 | 10709 | 261 | -36.0 | -47.3 | 43 | 8 |
| 2010-01-06T12:11 | 10751 | 259 | -36.3 | -47.7 | 42 | 8 |
| 2010-01-06T12:11 | 10794 | 258 | -36.7 | -47.6 | 41 | 8 |
| 2010-01-06T12:11 | 10839 | 256 | -37.1 | -46.2 | 40 | 7 |
| 2010-01-06T12:12 | 10879 | 254 | -37.4 | -45.7 | 41 | 7 |
| 2010-01-06T12:12 | 10921 | 253 | -37.8 | -45.6 | 42 | 7 |
| 2010-01-06T12:12 | 10967 | 251 | -38.2 | -46.2 | 44 | 7 |
| 2010-01-06T12:12 | 11018 | 249 | -38.7 | -46.2 | 45 | 7 |
| 2010-01-06T12:12 | 11065 | 248 | -39.1 | -46.2 | 46 | 7 |
| 2010-01-06T12:12 | 11114 | 246 | -39.6 | -46.4 | 49 | 6 |
| 2010-01-06T12:13 | 11162 | 244 | -40.0 | -46.4 | 53 | 6 |
| 2010-01-06T12:13 | 11213 | 242 | -40.5 | -46.5 | 54 | 6 |
| 2010-01-06T12:13 | 11255 | 241 | -41.0 | -46.4 | 52 | 6 |
| 2010-01-06T12:13 | 11300 | 239 | -41.4 | -46.4 | 50 | 6 |
| 2010-01-06T12:13 | 11351 | 237 | -41.8 | -46.7 | 52 | 5 |
| 2010-01-06T12:13 | 11397 | 236 | -42.2 | -47.1 | 56 | 5 |
| 2010-01-06T12:14 | 11440 | 234 | -42.5 | -47.7 | 59 | 5 |
| 2010-01-06T12:14 | 11482 | 233 | -42.9 | -48.4 | 62 | 5 |
| 2010-01-06T12:14 | 11520 | 232 | -43.3 | -49.3 | 66 | 5 |
| 2010-01-06T12:14 | 11559 | 230 | -43.7 | -50.0 | 69 | 4 |
| 2010-01-06T12:14 | 11600 | 229 | -44.1 | -50.2 | 70 | 5 |
| 2010-01-06T12:14 | 11639 | 228 | -44.5 | -50.2 | 70 | 5 |
| 2010-01-06T12:15 | 11677 | 226 | -44.8 | -50.6 | 70 | 5 |
| 2010-01-06T12:15 | 11719 | 225 | -45.2 | -50.6 | 70 | 5 |
| 2010-01-06T12:15 | 11762 | 223 | -45.7 | -50.8 | 70 | 4 |
| 2010-01-06T12:15 | 11804 | 222 | -46.1 | -50.7 | 71 | 4 |
| 2010-01-06T12:15 | 11838 | 221 | -46.4 | -50.7 | 70 | 4 |
| 2010-01-06T12:15 | 11879 | 219 | -46.8 | -50.9 | 70 | 4 |
| 2010-01-06T12:16 | 11922 | 218 | -47.2 | -50.8 | 73 | 4 |
| 2010-01-06T12:16 | 11967 | 217 | -47.7 | -51.0 | 78 | 4 |
| 2010-01-06T12:16 | 12011 | 215 | -48.1 | -51.2 | 80 | 4 |
| 2010-01-06T12:16 | 12054 | 214 | -48.5 | -51.8 | 80 | 4 |
| 2010-01-06T12:16 | 12096 | 212 | -48.9 | -52.4 | 79 | 4 |
| 2010-01-06T12:16 | 12137 | 211 | -49.3 | -52.8 | 79 | 4 |
| 2010-01-06T12:17 | 12176 | 210 | -49.6 | -53.5 | 79 | 4 |
| 2010-01-06T12:17 | 12218 | 208 | -50.0 | -53.8 | 77 | 4 |
| 2010-01-06T12:17 | 12262 | 207 | -50.3 | -54.3 | 75 | 3 |
| 2010-01-06T12:17 | 12309 | 206 | -50.7 | -55.0 | 71 | 3 |
| 2010-01-06T12:17 | 12357 | 204 | -51.1 | -55.4 | 68 | 3 |
| 2010-01-06T12:17 | 12404 | 203 | -51.6 | -55.8 | 64 | 3 |
| 2010-01-06T12:18 | 12450 | 201 | -52.0 | -56.1 | 59 | 3 |
| 2010-01-06T12:18 | 12493 | 200 | -52.4 | -56.4 | 55 | 3 |
| 2010-01-06T12:18 | 12537 | 198 | -52.8 | -56.6 | 55 | 3 |
| 2010-01-06T12:18 | 12580 | 197 | -53.3 | -56.8 | 57 | 3 |
| 2010-01-06T12:18 | 12623 | 196 | -53.7 | -57.0 | 59 | 3 |
| 2010-01-06T12:18 | 12666 | 194 | -54.1 | -57.2 | 63 | 3 |
| 2010-01-06T12:19 | 12709 | 193 | -54.4 | -57.6 | 68 | 3 |
| 2010-01-06T12:19 | 12752 | 192 | -54.7 | -58.3 | 71 | 3 |
| 2010-01-06T12:19 | 12794 | 191 | -54.9 | -58.9 | 76 | 3 |
| 2010-01-06T12:19 | 12838 | 189 | -55.1 | -59.3 | 82 | 3 |
| 2010-01-06T12:19 | 12880 | 188 | -55.4 | -60.5 | 87 | 4 |
| 2010-01-06T12:19 | 12923 | 187 | -55.8 | -61.2 | 90 | 4 |
| 2010-01-06T12:20 | 12968 | 185 | -56.2 | -61.7 | 95 | 3 |
| 2010-01-06T12:20 | 13014 | 184 | -56.6 | -61.9 | 102 | 3 |
| 2010-01-06T12:20 | 13057 | 183 | -57.0 | -62.1 | 112 | 3 |
| 2010-01-06T12:20 | 13103 | 182 | -57.4 | -62.3 | 123 | 3 |
| 2010-01-06T12:20 | 13150 | 180 | -57.8 | -62.5 | 130 | 3 |
| 2010-01-06T12:20 | 13194 | 179 | -58.2 | -62.7 | 133 | 3 |
| 2010-01-06T12:21 | 13237 | 178 | -58.6 | -63.0 | 135 | 3 |
| 2010-01-06T12:21 | 13283 | 176 | -59.0 | -63.5 | 137 | 3 |
| 2010-01-06T12:21 | 13328 | 175 | -59.5 | -63.9 | 138 | 3 |
| 2010-01-06T12:21 | 13374 | 174 | -59.9 | -64.2 | 139 | 3 |
| 2010-01-06T12:21 | 13418 | 173 | -60.3 | -64.4 | 137 | 3 |
| 2010-01-06T12:21 | 13463 | 171 | -60.8 | -64.8 | 133 | 3 |
| 2010-01-06T12:22 | 13506 | 170 | -61.2 | -65.2 | 130 | 3 |
| 2010-01-06T12:22 | 13557 | 169 | -61.6 | -65.6 | 130 | 4 |
| 2010-01-06T12:22 | 13608 | 167 | -62.0 | -66.1 | 130 | 4 |
| 2010-01-06T12:22 | 13653 | 166 | -62.5 | -66.6 | 129 | 5 |
| 2010-01-06T12:22 | 13708 | 165 | -62.9 | -67.0 | 128 | 6 |
| 2010-01-06T12:22 | 13774 | 163 | -63.5 | -67.6 | 129 | 7 |
| 2010-01-06T12:23 | 13840 | 161 | -64.2 | -68.2 | 134 | 8 |
| 2010-01-06T12:23 | 13890 | 160 | -64.6 | -68.6 | 138 | 8 |
| 2010-01-06T12:23 | 13939 | 159 | -65.0 | -69.1 | 140 | 8 |
| 2010-01-06T12:23 | 13985 | 157 | -65.5 | -69.6 | 141 | 8 |
| 2010-01-06T12:23 | 14036 | 156 | -66.0 | -70.1 | 143 | 8 |
| 2010-01-06T12:23 | 14093 | 155 | -66.5 | -70.5 | 145 | 9 |
| 2010-01-06T12:24 | 14142 | 153 | -66.9 | -70.9 | 145 | 9 |
| 2010-01-06T12:24 | 14185 | 152 | -67.3 | -71.2 | 143 | 9 |
| 2010-01-06T12:24 | 14237 | 151 | -67.8 | -71.6 | 142 | 10 |
| 2010-01-06T12:24 | 14294 | 150 | -68.3 | -72.0 | 143 | 10 |
| 2010-01-06T12:24 | 14376 | 148 | -69.0 | -72.6 | 146 | 11 |
| 2010-01-06T12:24 | 14457 | 146 | -69.3 | -72.8 | 148 | 12 |
| 2010-01-06T12:25 | 14512 | 144 | -69.9 | -73.3 | 148 | 13 |
| 2010-01-06T12:25 | 14564 | 143 | -69.9 | -73.3 | 147 | 14 |
| 2010-01-06T12:25 | 14618 | 142 | -70.4 | -73.8 | 146 | 15 |
| 2010-01-06T12:25 | 14668 | 141 | -70.8 | -74.3 | 145 | 16 |
| 2010-01-06T12:25 | 14714 | 139 | -71.3 | -74.7 | 145 | 16 |
| 2010-01-06T12:25 | 14760 | 138 | -71.5 | -74.9 | 143 | 17 |
| 2010-01-06T12:26 | 14806 | 137 | -71.7 | -75.1 | 142 | 18 |
| 2010-01-06T12:26 | 14855 | 136 | -72.1 | -75.5 | 141 | 18 |
| 2010-01-06T12:26 | 14904 | 135 | -72.6 | -75.9 | 140 | 18 |
| 2010-01-06T12:26 | 14949 | 134 | -73.0 | -76.4 | 139 | 19 |
| 2010-01-06T12:26 | 14996 | 133 | -73.5 | -76.8 | 138 | 19 |
| 2010-01-06T12:26 | 15042 | 132 | -73.9 | -77.2 | 138 | 19 |
| 2010-01-06T12:27 | 15086 | 131 | -74.2 | -77.5 | 138 | 19 |
| 2010-01-06T12:27 | 15130 | 130 | -74.6 | -77.9 | 139 | 19 |
| 2010-01-06T12:27 | 15174 | 129 | -74.9 | -78.2 | 140 | 19 |
| 2010-01-06T12:27 | 15218 | 128 | -75.2 | -78.5 | 140 | 20 |
| 2010-01-06T12:27 | 15264 | 127 | -75.6 | -78.9 | 141 | 21 |
| 2010-01-06T12:27 | 15307 | 126 | -75.9 | -79.2 | 141 | 21 |
| 2010-01-06T12:28 | 15352 | 125 | -76.3 | -79.6 | 141 | 22 |
| 2010-01-06T12:28 | 15397 | 124 | -76.7 | -80.0 | 141 | 22 |
| 2010-01-06T12:28 | 15442 | 123 | -77.0 | -80.3 | 141 | 23 |
| 2010-01-06T12:28 | 15485 | 122 | -77.3 | -80.6 | 141 | 23 |
| 2010-01-06T12:28 | 15529 | 121 | -77.7 | -81.0 | 140 | 22 |
| 2010-01-06T12:28 | 15576 | 120 | -77.9 | -81.3 | 138 | 21 |
| 2010-01-06T12:29 | 15623 | 119 | -78.1 | -81.5 | 134 | 20 |
| 2010-01-06T12:29 | 15669 | 118 | -78.3 | -81.8 | 131 | 19 |
| 2010-01-06T12:29 | 15718 | 117 | -78.4 | -81.9 | 126 | 18 |
| 2010-01-06T12:29 | 15766 | 116 | -78.5 | -82.1 | 122 | 18 |
| 2010-01-06T12:29 | 15816 | 115 | -78.8 | -82.4 | 117 | 17 |
| 2010-01-06T12:29 | 15858 | 114 | -78.9 | -82.6 | 113 | 17 |
| 2010-01-06T12:30 | 15906 | 113 | -79.2 | -82.9 | 109 | 17 |
| 2010-01-06T12:30 | 15962 | 112 | -79.5 | -83.3 | 107 | 18 |
| 2010-01-06T12:30 | 16017 | 111 | -80.0 | -83.8 | 105 | 18 |
| 2010-01-06T12:30 | 16065 | 110 | -80.5 | -84.3 | 103 | 18 |
| 2010-01-06T12:30 | 16108 | 109 | -80.9 | -84.7 | 100 | 18 |
| 2010-01-06T12:30 | 16153 | 109 | -81.3 | -85.2 | 99 | 18 |
| 2010-01-06T12:31 | 16198 | 108 | -81.7 | -85.6 | 98 | 18 |
| 2010-01-06T12:31 | 16243 | 107 | -82.0 | -85.9 | 99 | 18 |
| 2010-01-06T12:31 | 16288 | 106 | -82.4 | -86.3 | 100 | 18 |
| 2010-01-06T12:31 | 16335 | 105 | -82.9 | -86.7 | 101 | 18 |
| 2010-01-06T12:31 | 16382 | 104 | -83.3 | -87.2 | 100 | 18 |
| 2010-01-06T12:31 | 16429 | 103 | -83.8 | -87.6 | 99 | 18 |
| 2010-01-06T12:32 | 16478 | 102 | -84.2 | -88.0 | 97 | 19 |
| 2010-01-06T12:32 | 16530 | 101 | -84.7 | -88.5 | 96 | 19 |
| 2010-01-06T12:32 | 16579 | 101 | -85.2 | -88.9 | 96 | 19 |
| 2010-01-06T12:32 | 16624 | 100 | -85.6 | -89.3 | 96 | 19 |
| 2010-01-06T12:32 | 16671 | 99 | -86.0 | -89.7 | 95 | 20 |
| 2010-01-06T12:32 | 16713 | 98 | -86.3 | -90.0 | 93 | 20 |
| 2010-01-06T12:33 | 16754 | 97 | -86.4 | -90.1 | 92 | 19 |
| 2010-01-06T12:33 | 16796 | 97 | -85.4 | -89.3 | 94 | 18 |
| 2010-01-06T12:33 | 16836 | 96 | -84.9 | -88.8 | 98 | 17 |
| 2010-01-06T12:33 | 16878 | 95 | -84.1 | -88.0 | 101 | 14 |
| 2010-01-06T12:33 | 16926 | 94 | -82.9 | -86.9 | 104 | 11 |
| 2010-01-06T12:33 | 16972 | 94 | -80.6 | -84.8 | 107 | 7 |
| 2010-01-06T12:34 | 17013 | 93 | -79.2 | -83.6 | 118 | 3 |
| 2010-01-06T12:34 | 17060 | 92 | -78.1 | -82.5 | 186 | 1 |
| 2010-01-06T12:34 | 17109 | 91 | -77.6 | -82.2 | 253 | 2 |
| 2010-01-06T12:34 | 17152 | 91 | -77.6 | -82.2 | 267 | 4 |
| 2010-01-06T12:34 | 17193 | 90 | -77.7 | -82.5 | 270 | 5 |
| 2010-01-06T12:34 | 17237 | 89 | -77.8 | -82.8 | 270 | 6 |
| 2010-01-06T12:35 | 17281 | 89 | -77.6 | -82.8 | 269 | 8 |
| 2010-01-06T12:35 | 17326 | 88 | -77.8 | -83.2 | 273 | 8 |
| 2010-01-06T12:35 | 17369 | 87 | -78.2 | -83.7 | 279 | 8 |
| 2010-01-06T12:35 | 17421 | 87 | -78.3 | -83.9 | 286 | 8 |
| 2010-01-06T12:35 | 17468 | 86 | -78.6 | -84.3 | 291 | 7 |
| 2010-01-06T12:35 | 17519 | 85 | -79.1 | -84.9 | 297 | 7 |
| 2010-01-06T12:36 | 17568 | 84 | -79.5 | -85.4 | 303 | 6 |
| 2010-01-06T12:36 | 17616 | 84 | -79.8 | -85.8 | 310 | 6 |
| 2010-01-06T12:36 | 17662 | 83 | -80.2 | -86.3 | 314 | 6 |
| 2010-01-06T12:36 | 17711 | 82 | -80.2 | -86.3 | 313 | 6 |
| 2010-01-06T12:36 | 17760 | 82 | -80.5 | -86.7 | 307 | 6 |
| 2010-01-06T12:36 | 17808 | 81 | -80.8 | -87.1 | 300 | 6 |
| 2010-01-06T12:37 | 17853 | 80 | -81.2 | -87.5 | 296 | 7 |
| 2010-01-06T12:37 | 17898 | 80 | -81.4 | -87.7 | 293 | 7 |
| 2010-01-06T12:37 | 17941 | 79 | -81.6 | -88.0 | 290 | 7 |
| 2010-01-06T12:37 | 17984 | 78 | -81.7 | -88.1 | 287 | 6 |
| 2010-01-06T12:37 | 18027 | 78 | -79.9 | -86.6 | 282 | 6 |
| 2010-01-06T12:37 | 18067 | 77 | -79.7 | -86.3 | 279 | 7 |
| 2010-01-06T12:38 | 18106 | 77 | -79.9 | -86.5 | 280 | 8 |
| 2010-01-06T12:38 | 18146 | 76 | -80.2 | -86.8 | 285 | 9 |
| 2010-01-06T12:38 | 18183 | 76 | -77.2 | -84.4 | 290 | 10 |
| 2010-01-06T12:38 | 18223 | 75 | -76.4 | -83.6 | 293 | 11 |
| 2010-01-06T12:38 | 18263 | 75 | -76.2 | -83.4 | 294 | 12 |
| 2010-01-06T12:38 | 18304 | 74 | -76.1 | -83.4 | 294 | 12 |
| 2010-01-06T12:39 | 18346 | 74 | -76.3 | -83.7 | 291 | 12 |
| 2010-01-06T12:39 | 18387 | 73 | -76.3 | -83.9 | 287 | 11 |
| 2010-01-06T12:39 | 18431 | 72 | -76.1 | -83.8 | 281 | 10 |
| 2010-01-06T12:39 | 18473 | 72 | -75.7 | -83.6 | 275 | 10 |
| 2010-01-06T12:39 | 18515 | 71 | -75.9 | -83.9 | 270 | 9 |
| 2010-01-06T12:39 | 18559 | 71 | -76.2 | -84.3 | 266 | 9 |
| 2010-01-06T12:40 | 18603 | 70 | -76.5 | -84.8 | 265 | 8 |
| 2010-01-06T12:40 | 18646 | 70 | -76.4 | -84.8 | 267 | 9 |
| 2010-01-06T12:40 | 18692 | 69 | -76.0 | -84.6 | 269 | 11 |
| 2010-01-06T12:40 | 18737 | 69 | -76.1 | -84.8 | 270 | 12 |
| 2010-01-06T12:40 | 18780 | 68 | -76.2 | -85.0 | 269 | 13 |
| 2010-01-06T12:40 | 18826 | 68 | -76.2 | -85.1 | 267 | 14 |
| 2010-01-06T12:41 | 18869 | 67 | -75.5 | -84.6 | 263 | 14 |
| 2010-01-06T12:41 | 18912 | 67 | -74.7 | -84.0 | 259 | 14 |
| 2010-01-06T12:41 | 18956 | 66 | -74.0 | -83.6 | 254 | 14 |
| 2010-01-06T12:41 | 18998 | 66 | -73.9 | -83.6 | 251 | 14 |
| 2010-01-06T12:41 | 19042 | 65 | -73.8 | -83.7 | 248 | 13 |
| 2010-01-06T12:41 | 19086 | 65 | -73.7 | -83.7 | 245 | 11 |
| 2010-01-06T12:42 | 19130 | 64 | -73.7 | -83.9 | 243 | 10 |
| 2010-01-06T12:42 | 19174 | 64 | -73.4 | -83.8 | 245 | 9 |
| 2010-01-06T12:42 | 19218 | 63 | -72.8 | -83.5 | 252 | 9 |
| 2010-01-06T12:42 | 19262 | 63 | -72.9 | -83.7 | 263 | 9 |
| 2010-01-06T12:42 | 19306 | 62 | -72.8 | -83.9 | 273 | 10 |
| 2010-01-06T12:42 | 19350 | 62 | -72.3 | -83.7 | 282 | 10 |
| 2010-01-06T12:43 | 19395 | 61 | -72.0 | -83.6 | 288 | 11 |
| 2010-01-06T12:43 | 19441 | 61 | -71.5 | -83.4 | 291 | 12 |
| 2010-01-06T12:43 | 19488 | 60 | -71.3 | -83.5 | 292 | 13 |
| 2010-01-06T12:43 | 19534 | 60 | -71.5 | -83.9 | 292 | 14 |
| 2010-01-06T12:43 | 19579 | 60 | -71.2 | -83.8 | 291 | 14 |
| 2010-01-06T12:43 | 19624 | 59 | -71.3 | -84.1 | 290 | 14 |
| 2010-01-06T12:44 | 19667 | 59 | -71.5 | -84.6 | 288 | 14 |
| 2010-01-06T12:44 | 19713 | 58 | -71.7 | -84.9 | 287 | 14 |
| 2010-01-06T12:44 | 19758 | 58 | -71.8 | -85.2 | 285 | 14 |
| 2010-01-06T12:44 | 19804 | 57 | -71.7 | -85.3 | 284 | 13 |
| 2010-01-06T12:44 | 19850 | 57 | -71.6 | -85.4 | 284 | 12 |
| 2010-01-06T12:44 | 19898 | 56 | -71.9 | -85.8 | 284 | 12 |
| 2010-01-06T12:45 | 19944 | 56 | -72.0 | -86.1 | 284 | 11 |
| 2010-01-06T12:45 | 19990 | 56 | -72.2 | -86.4 | 283 | 11 |
| 2010-01-06T12:45 | 20037 | 55 | -72.4 | -86.8 | 281 | 11 |
| 2010-01-06T12:45 | 20080 | 55 | -72.7 | -87.0 | 280 | 11 |
| 2010-01-06T12:45 | 20127 | 54 | -72.7 | -87.2 | 280 | 11 |
| 2010-01-06T12:45 | 20174 | 54 | -72.8 | -87.4 | 280 | 10 |
| 2010-01-06T12:46 | 20221 | 53 | -72.3 | -87.1 | 280 | 10 |
| 2010-01-06T12:46 | 20267 | 53 | -72.3 | -87.2 | 279 | 9 |
| 2010-01-06T12:46 | 20312 | 53 | -72.6 | -87.5 | 278 | 9 |
| 2010-01-06T12:46 | 20359 | 52 | -72.8 | -87.8 | 276 | 9 |
| 2010-01-06T12:46 | 20404 | 52 | -72.9 | -87.9 | 274 | 8 |
| 2010-01-06T12:46 | 20451 | 51 | -73.1 | -88.2 | 273 | 7 |
| 2010-01-06T12:47 | 20495 | 51 | -73.3 | -88.4 | 274 | 8 |
| 2010-01-06T12:47 | 20542 | 51 | -73.4 | -88.6 | 275 | 8 |
| 2010-01-06T12:47 | 20587 | 50 | -73.8 | -88.9 | 276 | 8 |
| 2010-01-06T12:47 | 20634 | 50 | -73.9 | -89.1 | 277 | 7 |
| 2010-01-06T12:47 | 20681 | 49 | -73.7 | -89.0 | 277 | 6 |
| 2010-01-06T12:47 | 20728 | 49 | -73.7 | -89.0 | 272 | 6 |
| 2010-01-06T12:48 | 20774 | 49 | -73.3 | -88.8 | 264 | 6 |
| 2010-01-06T12:48 | 20820 | 48 | -73.5 | -88.9 | 258 | 7 |
| 2010-01-06T12:48 | 20869 | 48 | -73.7 | -89.1 | 253 | 7 |
| 2010-01-06T12:48 | 20917 | 47 | -74.1 | -89.4 | 248 | 8 |
| 2010-01-06T12:48 | 20966 | 47 | -74.0 | -89.5 | 244 | 9 |
| 2010-01-06T12:48 | 21013 | 47 | -73.2 | -89.0 | 242 | 9 |
| 2010-01-06T12:49 | 21061 | 46 | -73.4 | -89.1 | 243 | 9 |
| 2010-01-06T12:49 | 21111 | 46 | -73.6 | -89.3 | 244 | 9 |
| 2010-01-06T12:49 | 21159 | 45 | -73.7 | -89.4 | 244 | 9 |
| 2010-01-06T12:49 | 21208 | 45 | -73.9 | -89.6 | 245 | 9 |
| 2010-01-06T12:49 | 21257 | 45 | -73.8 | -89.6 | 244 | 9 |
| 2010-01-06T12:49 | 21306 | 44 | -73.0 | -89.1 | 240 | 8 |
| 2010-01-06T12:50 | 21355 | 44 | -72.9 | -89.1 | 232 | 8 |
| 2010-01-06T12:50 | 21402 | 44 | -72.3 | -88.7 | 225 | 9 |
| 2010-01-06T12:50 | 21450 | 43 | -72.3 | -88.8 | 220 | 9 |
| 2010-01-06T12:50 | 21498 | 43 | -72.2 | -88.8 | 217 | 8 |
| 2010-01-06T12:50 | 21546 | 43 | -72.4 | -88.9 | 212 | 7 |
| 2010-01-06T12:50 | 21593 | 42 | -72.1 | -88.8 | 204 | 6 |
| 2010-01-06T12:51 | 21639 | 42 | -71.8 | -88.8 | 194 | 6 |
| 2010-01-06T12:51 | 21687 | 42 | -71.4 | -88.6 | 185 | 6 |
| 2010-01-06T12:51 | 21734 | 41 | -70.4 | -88.0 | 173 | 6 |
| 2010-01-06T12:51 | 21780 | 41 | -70.1 | -87.8 | 157 | 5 |
| 2010-01-06T12:51 | 21828 | 41 | -69.8 | -87.8 | 134 | 3 |
| 2010-01-06T12:51 | 21874 | 40 | -69.7 | -87.8 | 103 | 2 |
| 2010-01-06T12:52 | 21921 | 40 | -69.4 | -87.8 | 79 | 2 |
| 2010-01-06T12:52 | 21970 | 40 | -69.2 | -87.8 | 80 | 2 |
| 2010-01-06T12:52 | 22017 | 39 | -69.1 | -87.9 | 92 | 3 |
| 2010-01-06T12:52 | 22065 | 39 | -68.9 | -88.0 | 98 | 5 |
| 2010-01-06T12:52 | 22112 | 39 | -68.6 | -87.9 | 101 | 8 |
| 2010-01-06T12:52 | 22161 | 38 | -68.6 | -88.1 | 102 | 9 |
| 2010-01-06T12:53 | 22208 | 38 | -68.8 | -88.4 | 105 | 11 |
| 2010-01-06T12:53 | 22254 | 38 | -68.6 | -88.5 | 108 | 12 |
| 2010-01-06T12:53 | 22303 | 37 | -68.3 | -88.4 | 107 | 13 |
| 2010-01-06T12:53 | 22352 | 37 | -67.2 | -87.9 | 102 | 14 |
| 2010-01-06T12:53 | 22402 | 37 | -66.6 | -87.7 | 95 | 16 |
| 2010-01-06T12:53 | 22446 | 37 | -66.2 | -87.5 | 90 | 18 |
| 2010-01-06T12:54 | 22492 | 36 | -65.8 | -87.4 | 88 | 18 |
| 2010-01-06T12:54 | 22539 | 36 | -65.3 | -87.2 | 89 | 19 |
| 2010-01-06T12:54 | 22584 | 36 | -64.8 | -87.1 | 95 | 19 |
| 2010-01-06T12:54 | 22629 | 36 | -63.0 | -86.2 | 102 | 20 |
| 2010-01-06T12:54 | 22676 | 35 | -62.0 | -85.7 | 106 | 22 |
| 2010-01-06T12:54 | 22722 | 35 | -62.3 | -86.0 | 108 | 23 |
| 2010-01-06T12:55 | 22770 | 35 | -62.4 | -86.3 | 109 | 23 |
| 2010-01-06T12:55 | 22817 | 34 | -62.6 | -86.6 | 110 | 24 |
| 2010-01-06T12:55 | 22865 | 34 | -62.8 | -87.0 | 110 | 24 |
| 2010-01-06T12:55 | 22913 | 34 | -63.1 | -87.4 | 111 | 24 |
| 2010-01-06T12:55 | 22962 | 34 | -63.3 | -87.7 | 112 | 24 |
| 2010-01-06T12:55 | 23012 | 33 | -63.3 | -87.9 | 112 | 24 |
| 2010-01-06T12:56 | 23062 | 33 | -63.5 | -88.2 | 111 | 25 |
| 2010-01-06T12:56 | 23110 | 33 | -63.4 | -88.3 | 110 | 25 |
| 2010-01-06T12:56 | 23161 | 33 | -63.1 | -88.2 | 110 | 26 |
| 2010-01-06T12:56 | 23210 | 32 | -62.7 | -88.1 | 111 | 26 |
| 2010-01-06T12:56 | 23260 | 32 | -63.0 | -88.3 | 111 | 26 |
| 2010-01-06T12:56 | 23310 | 32 | -63.2 | -88.5 | 111 | 27 |
| 2010-01-06T12:57 | 23359 | 32 | -62.8 | -88.4 | 110 | 27 |
| 2010-01-06T12:57 | 23409 | 31 | -62.8 | -88.4 | 108 | 27 |
| 2010-01-06T12:57 | 23461 | 31 | -62.8 | -88.5 | 104 | 27 |
| 2010-01-06T12:57 | 23511 | 31 | -62.6 | -88.4 | 99 | 27 |
| 2010-01-06T12:57 | 23559 | 31 | -62.1 | -88.2 | 96 | 28 |
| 2010-01-06T12:57 | 23612 | 30 | -62.2 | -88.2 | 94 | 28 |
| 2010-01-06T12:58 | 23660 | 30 | -62.6 | -88.4 | 92 | 28 |
| 2010-01-06T12:58 | 23712 | 30 | -62.5 | -88.5 | 91 | 27 |
| 2010-01-06T12:58 | 23760 | 30 | -61.4 | -88.0 | 90 | 25 |
| 2010-01-06T12:58 | 23807 | 29 | -61.3 | -87.8 | 89 | 24 |
| 2010-01-06T12:58 | 23854 | 29 | -61.4 | -87.9 | 89 | 24 |
| 2010-01-06T12:58 | 23903 | 29 | -61.5 | -88.0 | 89 | 24 |
| 2010-01-06T12:59 | 23950 | 29 | -61.7 | -88.1 | 90 | 24 |
| 2010-01-06T12:59 | 23998 | 28 | -61.8 | -88.2 | 90 | 24 |
| 2010-01-06T12:59 | 24045 | 28 | -61.9 | -88.3 | 91 | 24 |
| 2010-01-06T23:54 | 4 | 1006 | 28.3 | 24.6 | 230 | 2 |
| 2010-01-06T23:54 | 14 | 1005 | 27.3 | 24.0 | 237 | 1 |
| 2010-01-06T23:54 | 23 | 1004 | 27.1 | 24.2 | 241 | 1 |
| 2010-01-06T23:54 | 31 | 1003 | 27.0 | 24.4 | 244 | 1 |
| 2010-01-06T23:54 | 41 | 1002 | 26.9 | 24.4 | 247 | 1 |
| 2010-01-06T23:54 | 52 | 1000 | 26.9 | 24.2 | 250 | 1 |
| 2010-01-06T23:54 | 63 | 999 | 26.8 | 23.8 | 253 | 1 |
| 2010-01-06T23:54 | 74 | 998 | 26.7 | 23.8 | 256 | 1 |
| 2010-01-06T23:54 | 84 | 997 | 26.7 | 24.0 | 259 | 1 |
| 2010-01-06T23:54 | 94 | 996 | 26.7 | 24.2 | 263 | 2 |
| 2010-01-06T23:54 | 105 | 994 | 26.6 | 24.2 | 266 | 2 |
| 2010-01-06T23:54 | 114 | 993 | 26.5 | 24.3 | 269 | 2 |
| 2010-01-06T23:54 | 124 | 992 | 26.4 | 24.3 | 272 | 2 |
| 2010-01-06T23:54 | 135 | 991 | 26.3 | 24.3 | 275 | 2 |
| 2010-01-06T23:54 | 144 | 990 | 26.2 | 24.3 | 277 | 2 |
| 2010-01-06T23:54 | 152 | 989 | 26.2 | 24.3 | 280 | 2 |
| 2010-01-06T23:54 | 161 | 988 | 26.2 | 24.3 | 282 | 2 |
| 2010-01-06T23:54 | 170 | 987 | 26.2 | 24.3 | 284 | 2 |
| 2010-01-06T23:54 | 179 | 986 | 26.1 | 24.2 | 286 | 3 |
| 2010-01-06T23:54 | 189 | 985 | 26.1 | 24.2 | 288 | 3 |
| 2010-01-06T23:54 | 197 | 984 | 26.1 | 24.1 | 289 | 3 |
| 2010-01-06T23:54 | 206 | 983 | 26.2 | 24.0 | 290 | 3 |
| 2010-01-06T23:54 | 215 | 982 | 26.1 | 24.0 | 291 | 3 |
| 2010-01-06T23:54 | 224 | 981 | 26.1 | 23.9 | 292 | 3 |
| 2010-01-06T23:54 | 234 | 980 | 26.1 | 23.8 | 292 | 3 |
| 2010-01-06T23:54 | 243 | 979 | 26.1 | 23.6 | 293 | 3 |
| 2010-01-06T23:54 | 253 | 978 | 26.0 | 23.5 | 293 | 3 |
| 2010-01-06T23:54 | 262 | 977 | 26.0 | 23.4 | 294 | 3 |
| 2010-01-06T23:54 | 273 | 976 | 25.9 | 23.3 | 294 | 3 |
| 2010-01-06T23:54 | 284 | 975 | 25.9 | 23.1 | 295 | 3 |
| 2010-01-06T23:55 | 294 | 973 | 25.8 | 22.9 | 296 | 3 |
| 2010-01-06T23:55 | 304 | 972 | 25.8 | 22.8 | 297 | 3 |
| 2010-01-06T23:55 | 314 | 971 | 25.7 | 22.6 | 298 | 3 |
| 2010-01-06T23:55 | 325 | 970 | 25.6 | 22.4 | 300 | 3 |
| 2010-01-06T23:55 | 335 | 969 | 25.6 | 22.3 | 301 | 3 |
| 2010-01-06T23:55 | 346 | 968 | 25.5 | 22.4 | 302 | 3 |
| 2010-01-06T23:55 | 356 | 967 | 25.4 | 22.6 | 303 | 3 |
| 2010-01-06T23:55 | 367 | 965 | 25.3 | 22.7 | 304 | 2 |
| 2010-01-06T23:55 | 376 | 964 | 25.3 | 22.6 | 305 | 2 |
| 2010-01-06T23:55 | 385 | 963 | 25.3 | 22.5 | 306 | 2 |
| 2010-01-06T23:55 | 394 | 962 | 25.3 | 22.5 | 306 | 2 |
| 2010-01-06T23:55 | 404 | 961 | 25.3 | 22.5 | 307 | 2 |
| 2010-01-06T23:55 | 412 | 960 | 25.2 | 22.5 | 307 | 2 |
| 2010-01-06T23:55 | 421 | 960 | 25.1 | 22.4 | 307 | 2 |
| 2010-01-06T23:55 | 428 | 959 | 25.1 | 22.4 | 308 | 2 |
| 2010-01-06T23:55 | 436 | 958 | 25.0 | 22.4 | 308 | 2 |
| 2010-01-06T23:55 | 445 | 957 | 25.0 | 22.3 | 309 | 2 |
| 2010-01-06T23:55 | 454 | 956 | 25.0 | 22.1 | 310 | 2 |
| 2010-01-06T23:55 | 464 | 955 | 25.0 | 21.9 | 311 | 2 |
| 2010-01-06T23:55 | 471 | 954 | 25.0 | 21.8 | 312 | 2 |
| 2010-01-06T23:55 | 479 | 953 | 24.9 | 21.8 | 313 | 2 |
| 2010-01-06T23:55 | 487 | 952 | 24.9 | 21.7 | 315 | 2 |
| 2010-01-06T23:55 | 495 | 951 | 24.8 | 21.8 | 316 | 2 |
| 2010-01-06T23:55 | 504 | 950 | 24.7 | 21.9 | 318 | 2 |
| 2010-01-06T23:55 | 513 | 950 | 24.6 | 21.9 | 319 | 2 |
| 2010-01-06T23:55 | 523 | 948 | 24.5 | 21.9 | 319 | 1 |
| 2010-01-06T23:55 | 532 | 948 | 24.4 | 21.9 | 319 | 1 |
| 2010-01-06T23:55 | 540 | 947 | 24.4 | 21.9 | 319 | 1 |
| 2010-01-06T23:55 | 547 | 946 | 24.3 | 21.9 | 318 | 1 |
| 2010-01-06T23:55 | 555 | 945 | 24.2 | 21.8 | 316 | 1 |
| 2010-01-06T23:56 | 562 | 944 | 24.2 | 21.8 | 314 | 1 |
| 2010-01-06T23:56 | 569 | 944 | 24.1 | 21.6 | 312 | 1 |
| 2010-01-06T23:56 | 577 | 943 | 24.0 | 21.6 | 310 | 1 |
| 2010-01-06T23:56 | 587 | 942 | 23.9 | 21.6 | 307 | 1 |
| 2010-01-06T23:56 | 596 | 941 | 23.9 | 21.6 | 305 | 1 |
| 2010-01-06T23:56 | 605 | 940 | 23.8 | 21.6 | 302 | 1 |
| 2010-01-06T23:56 | 614 | 939 | 23.8 | 21.5 | 300 | 1 |
| 2010-01-06T23:56 | 623 | 938 | 23.7 | 21.4 | 298 | 1 |
| 2010-01-06T23:56 | 631 | 937 | 23.7 | 21.4 | 297 | 1 |
| 2010-01-06T23:56 | 640 | 936 | 23.7 | 21.4 | 296 | 1 |
| 2010-01-06T23:56 | 648 | 935 | 23.6 | 21.4 | 296 | 1 |
| 2010-01-06T23:56 | 659 | 934 | 23.6 | 21.3 | 296 | 1 |
| 2010-01-06T23:56 | 671 | 933 | 23.5 | 21.2 | 296 | 1 |
| 2010-01-06T23:56 | 685 | 931 | 23.4 | 21.1 | 297 | 1 |
| 2010-01-06T23:56 | 700 | 930 | 23.3 | 21.0 | 298 | 1 |
| 2010-01-06T23:56 | 714 | 928 | 23.2 | 21.0 | 299 | 1 |
| 2010-01-06T23:56 | 726 | 927 | 23.2 | 20.9 | 299 | 1 |
| 2010-01-06T23:56 | 737 | 926 | 23.1 | 20.7 | 300 | 1 |
| 2010-01-06T23:56 | 747 | 925 | 23.1 | 20.5 | 300 | 1 |
| 2010-01-06T23:56 | 756 | 924 | 23.0 | 20.4 | 301 | 1 |
| 2010-01-06T23:56 | 765 | 923 | 23.0 | 20.4 | 301 | 1 |
| 2010-01-06T23:56 | 772 | 922 | 22.9 | 20.3 | 301 | 1 |
| 2010-01-06T23:56 | 780 | 921 | 22.9 | 20.3 | 301 | 1 |
| 2010-01-06T23:56 | 787 | 920 | 22.9 | 20.2 | 300 | 1 |
| 2010-01-06T23:56 | 794 | 920 | 23.0 | 20.1 | 299 | 1 |
| 2010-01-06T23:56 | 801 | 919 | 23.0 | 20.0 | 298 | 1 |
| 2010-01-06T23:56 | 808 | 918 | 23.0 | 19.9 | 297 | 1 |
| 2010-01-06T23:56 | 816 | 917 | 23.0 | 19.8 | 296 | 1 |
| 2010-01-06T23:56 | 824 | 917 | 22.9 | 19.7 | 295 | 1 |
| 2010-01-06T23:56 | 832 | 916 | 22.9 | 19.7 | 294 | 1 |
| 2010-01-06T23:57 | 841 | 915 | 22.9 | 19.7 | 292 | 1 |
| 2010-01-06T23:57 | 849 | 914 | 22.8 | 19.7 | 291 | 1 |
| 2010-01-06T23:57 | 857 | 913 | 22.7 | 19.6 | 290 | 1 |
| 2010-01-06T23:57 | 866 | 912 | 22.6 | 19.6 | 288 | 1 |
| 2010-01-06T23:57 | 875 | 911 | 22.5 | 19.6 | 287 | 1 |
| 2010-01-06T23:57 | 885 | 910 | 22.4 | 19.6 | 286 | 1 |
| 2010-01-06T23:57 | 894 | 909 | 22.4 | 19.7 | 285 | 1 |
| 2010-01-06T23:57 | 903 | 908 | 22.3 | 19.7 | 285 | 1 |
| 2010-01-06T23:57 | 911 | 907 | 22.3 | 19.6 | 284 | 1 |
| 2010-01-06T23:57 | 920 | 906 | 22.3 | 19.5 | 284 | 1 |
| 2010-01-06T23:57 | 930 | 905 | 22.2 | 19.5 | 284 | 1 |
| 2010-01-06T23:57 | 941 | 904 | 22.1 | 19.5 | 284 | 1 |
| 2010-01-06T23:57 | 953 | 903 | 22.0 | 19.5 | 285 | 1 |
| 2010-01-06T23:57 | 964 | 902 | 21.9 | 19.4 | 286 | 1 |
| 2010-01-06T23:57 | 974 | 901 | 21.8 | 19.4 | 287 | 1 |
| 2010-01-06T23:57 | 982 | 900 | 21.7 | 19.4 | 289 | 1 |
| 2010-01-06T23:57 | 989 | 899 | 21.7 | 19.4 | 291 | 1 |
| 2010-01-06T23:57 | 996 | 899 | 21.6 | 19.4 | 294 | 1 |
| 2010-01-06T23:57 | 1003 | 898 | 21.5 | 19.4 | 296 | 1 |
| 2010-01-06T23:57 | 1011 | 897 | 21.5 | 19.4 | 298 | 1 |
| 2010-01-06T23:57 | 1019 | 896 | 21.4 | 19.4 | 300 | 1 |
| 2010-01-06T23:57 | 1029 | 895 | 21.3 | 19.5 | 301 | 1 |
| 2010-01-06T23:57 | 1039 | 894 | 21.2 | 19.5 | 301 | 1 |
| 2010-01-06T23:57 | 1050 | 893 | 21.2 | 19.4 | 301 | 1 |
| 2010-01-06T23:57 | 1060 | 892 | 21.1 | 19.4 | 301 | 1 |
| 2010-01-06T23:57 | 1069 | 891 | 21.0 | 19.3 | 299 | 1 |
| 2010-01-06T23:57 | 1079 | 890 | 20.9 | 19.2 | 297 | 1 |
| 2010-01-06T23:57 | 1089 | 889 | 20.9 | 19.2 | 295 | 1 |
| 2010-01-06T23:57 | 1100 | 888 | 20.8 | 19.1 | 293 | 1 |
| 2010-01-06T23:57 | 1112 | 887 | 20.8 | 19.0 | 290 | 1 |
| 2010-01-06T23:58 | 1125 | 885 | 20.7 | 18.9 | 287 | 1 |
| 2010-01-06T23:58 | 1135 | 884 | 20.6 | 18.9 | 285 | 1 |
| 2010-01-06T23:58 | 1142 | 884 | 20.5 | 18.9 | 282 | 1 |
| 2010-01-06T23:58 | 1149 | 883 | 20.5 | 18.9 | 280 | 1 |
| 2010-01-06T23:58 | 1156 | 882 | 20.4 | 18.8 | 279 | 1 |
| 2010-01-06T23:58 | 1165 | 881 | 20.3 | 18.8 | 280 | 1 |
| 2010-01-06T23:58 | 1173 | 880 | 20.2 | 18.8 | 281 | 1 |
| 2010-01-06T23:58 | 1184 | 879 | 20.1 | 18.8 | 283 | 0 |
| 2010-01-06T23:58 | 1196 | 878 | 20.0 | 18.7 | 286 | 0 |
| 2010-01-06T23:58 | 1207 | 877 | 19.9 | 18.7 | 289 | 0 |
| 2010-01-06T23:58 | 1217 | 876 | 19.9 | 18.6 | 293 | 0 |
| 2010-01-06T23:58 | 1227 | 875 | 19.8 | 18.6 | 297 | 0 |
| 2010-01-06T23:58 | 1236 | 874 | 19.7 | 18.6 | 299 | 0 |
| 2010-01-06T23:58 | 1244 | 873 | 19.6 | 18.6 | 300 | 1 |
| 2010-01-06T23:58 | 1252 | 873 | 19.5 | 18.6 | 301 | 1 |
| 2010-01-06T23:58 | 1259 | 872 | 19.5 | 18.6 | 301 | 1 |
| 2010-01-06T23:58 | 1267 | 871 | 19.4 | 18.5 | 301 | 1 |
| 2010-01-06T23:58 | 1275 | 870 | 19.4 | 18.5 | 301 | 1 |
| 2010-01-06T23:58 | 1284 | 869 | 19.4 | 18.5 | 301 | 1 |
| 2010-01-06T23:58 | 1294 | 868 | 19.3 | 18.4 | 301 | 1 |
| 2010-01-06T23:58 | 1305 | 867 | 19.3 | 18.1 | 302 | 1 |
| 2010-01-06T23:58 | 1317 | 866 | 19.3 | 17.9 | 303 | 1 |
| 2010-01-06T23:58 | 1329 | 865 | 19.2 | 17.8 | 304 | 1 |
| 2010-01-06T23:58 | 1339 | 864 | 19.1 | 17.6 | 306 | 1 |
| 2010-01-06T23:58 | 1349 | 863 | 19.0 | 17.5 | 308 | 1 |
| 2010-01-06T23:58 | 1358 | 862 | 19.0 | 17.5 | 310 | 1 |
| 2010-01-06T23:58 | 1368 | 861 | 18.9 | 17.5 | 312 | 1 |
| 2010-01-06T23:58 | 1380 | 860 | 18.9 | 17.4 | 314 | 1 |
| 2010-01-06T23:58 | 1392 | 859 | 18.9 | 17.3 | 316 | 1 |
| 2010-01-06T23:58 | 1403 | 857 | 18.8 | 17.2 | 317 | 1 |
| 2010-01-06T23:59 | 1412 | 856 | 18.8 | 17.2 | 318 | 1 |
| 2010-01-06T23:59 | 1420 | 856 | 18.8 | 17.3 | 319 | 1 |
| 2010-01-06T23:59 | 1427 | 855 | 18.8 | 17.3 | 319 | 1 |
| 2010-01-06T23:59 | 1437 | 854 | 18.9 | 17.3 | 319 | 1 |
| 2010-01-06T23:59 | 1448 | 853 | 19.1 | 17.0 | 318 | 2 |
| 2010-01-06T23:59 | 1459 | 852 | 19.3 | 16.7 | 317 | 2 |
| 2010-01-06T23:59 | 1471 | 851 | 19.3 | 16.5 | 316 | 2 |
| 2010-01-06T23:59 | 1481 | 850 | 19.3 | 16.5 | 315 | 2 |
| 2010-01-06T23:59 | 1491 | 849 | 19.3 | 16.4 | 314 | 2 |
| 2010-01-06T23:59 | 1500 | 848 | 19.2 | 16.3 | 313 | 2 |
| 2010-01-06T23:59 | 1509 | 847 | 19.2 | 16.2 | 311 | 2 |
| 2010-01-06T23:59 | 1519 | 846 | 19.1 | 16.1 | 310 | 2 |
| 2010-01-06T23:59 | 1529 | 845 | 19.1 | 16.1 | 309 | 2 |
| 2010-01-06T23:59 | 1539 | 844 | 19.0 | 16.0 | 308 | 3 |
| 2010-01-06T23:59 | 1550 | 843 | 19.0 | 16.0 | 307 | 3 |
| 2010-01-06T23:59 | 1559 | 842 | 18.9 | 16.0 | 306 | 3 |
| 2010-01-06T23:59 | 1567 | 841 | 18.8 | 15.9 | 306 | 3 |
| 2010-01-06T23:59 | 1577 | 840 | 18.8 | 15.9 | 305 | 3 |
| 2010-01-06T23:59 | 1587 | 839 | 18.8 | 15.9 | 304 | 3 |
| 2010-01-06T23:59 | 1597 | 838 | 18.7 | 15.9 | 304 | 3 |
| 2010-01-06T23:59 | 1605 | 838 | 18.7 | 15.8 | 304 | 3 |
| 2010-01-06T23:59 | 1613 | 837 | 18.6 | 15.7 | 304 | 3 |
| 2010-01-06T23:59 | 1620 | 836 | 18.6 | 15.7 | 303 | 3 |
| 2010-01-06T23:59 | 1629 | 835 | 18.6 | 15.7 | 303 | 3 |
| 2010-01-06T23:59 | 1638 | 834 | 18.6 | 15.7 | 303 | 3 |
| 2010-01-06T23:59 | 1648 | 833 | 18.6 | 15.7 | 303 | 3 |
| 2010-01-06T23:59 | 1658 | 832 | 18.5 | 15.6 | 304 | 3 |
| 2010-01-06T23:59 | 1668 | 831 | 18.5 | 15.6 | 304 | 3 |
| 2010-01-06T23:59 | 1678 | 830 | 18.4 | 15.5 | 304 | 3 |
| 2010-01-06T23:59 | 1688 | 830 | 18.4 | 15.4 | 304 | 3 |
| 2010-01-07T00:00 | 1699 | 828 | 18.3 | 15.3 | 304 | 3 |
| 2010-01-07T00:00 | 1710 | 827 | 18.2 | 15.3 | 304 | 3 |
| 2010-01-07T00:00 | 1720 | 826 | 18.1 | 15.2 | 304 | 3 |
| 2010-01-07T00:00 | 1730 | 826 | 18.1 | 15.2 | 304 | 3 |
| 2010-01-07T00:00 | 1739 | 825 | 18.0 | 15.1 | 304 | 3 |
| 2010-01-07T00:00 | 1750 | 824 | 17.9 | 15.1 | 304 | 3 |
| 2010-01-07T00:00 | 1760 | 823 | 17.8 | 15.1 | 304 | 3 |
| 2010-01-07T00:00 | 1770 | 822 | 17.7 | 15.1 | 304 | 3 |
| 2010-01-07T00:00 | 1780 | 821 | 17.6 | 15.0 | 304 | 3 |
| 2010-01-07T00:00 | 1791 | 820 | 17.5 | 14.9 | 304 | 3 |
| 2010-01-07T00:00 | 1801 | 819 | 17.5 | 14.9 | 303 | 3 |
| 2010-01-07T00:00 | 1812 | 818 | 17.4 | 14.9 | 303 | 3 |
| 2010-01-07T00:00 | 1822 | 817 | 17.3 | 15.0 | 303 | 4 |
| 2010-01-07T00:00 | 1832 | 816 | 17.2 | 15.0 | 303 | 4 |
| 2010-01-07T00:00 | 1841 | 815 | 17.1 | 15.0 | 303 | 4 |
| 2010-01-07T00:00 | 1852 | 814 | 17.0 | 15.0 | 304 | 4 |
| 2010-01-07T00:00 | 1862 | 813 | 16.9 | 14.9 | 304 | 4 |
| 2010-01-07T00:00 | 1870 | 812 | 16.9 | 14.9 | 304 | 4 |
| 2010-01-07T00:00 | 1878 | 811 | 16.8 | 14.8 | 304 | 4 |
| 2010-01-07T00:00 | 1888 | 810 | 16.7 | 14.8 | 305 | 4 |
| 2010-01-07T00:00 | 1899 | 809 | 16.7 | 14.7 | 305 | 4 |
| 2010-01-07T00:00 | 1909 | 808 | 16.6 | 14.6 | 305 | 4 |
| 2010-01-07T00:00 | 1919 | 807 | 16.6 | 14.6 | 305 | 4 |
| 2010-01-07T00:00 | 1928 | 807 | 16.6 | 14.6 | 305 | 4 |
| 2010-01-07T00:00 | 1937 | 806 | 16.5 | 14.5 | 304 | 4 |
| 2010-01-07T00:00 | 1947 | 805 | 16.5 | 14.4 | 304 | 4 |
| 2010-01-07T00:00 | 1957 | 804 | 16.5 | 14.3 | 303 | 4 |
| 2010-01-07T00:00 | 1969 | 803 | 16.5 | 14.2 | 303 | 4 |
| 2010-01-07T00:00 | 1980 | 802 | 16.5 | 14.1 | 303 | 4 |
| 2010-01-07T00:00 | 1993 | 801 | 16.5 | 14.0 | 303 | 4 |
| 2010-01-07T00:01 | 2005 | 799 | 16.4 | 13.8 | 303 | 4 |
| 2010-01-07T00:01 | 2060 | 794 | 16.0 | 13.4 | 306 | 5 |
| 2010-01-07T00:01 | 2109 | 790 | 15.8 | 13.3 | 313 | 5 |
| 2010-01-07T00:01 | 2163 | 785 | 15.5 | 13.0 | 322 | 5 |
| 2010-01-07T00:01 | 2215 | 780 | 15.2 | 12.7 | 329 | 6 |
| 2010-01-07T00:01 | 2265 | 775 | 14.9 | 12.5 | 333 | 7 |
| 2010-01-07T00:02 | 2317 | 771 | 14.9 | 12.6 | 336 | 7 |
| 2010-01-07T00:02 | 2370 | 766 | 14.6 | 12.3 | 340 | 6 |
| 2010-01-07T00:02 | 2416 | 762 | 14.4 | 12.1 | 341 | 6 |
| 2010-01-07T00:02 | 2473 | 757 | 14.1 | 11.7 | 338 | 6 |
| 2010-01-07T00:02 | 2522 | 752 | 13.8 | 11.8 | 334 | 6 |
| 2010-01-07T00:02 | 2569 | 748 | 13.7 | 11.4 | 332 | 6 |
| 2010-01-07T00:03 | 2619 | 744 | 13.6 | 11.2 | 332 | 5 |
| 2010-01-07T00:03 | 2667 | 739 | 13.3 | 10.9 | 331 | 5 |
| 2010-01-07T00:03 | 2715 | 735 | 12.9 | 10.6 | 331 | 5 |
| 2010-01-07T00:03 | 2770 | 730 | 12.7 | 9.9 | 331 | 5 |
| 2010-01-07T00:03 | 2815 | 726 | 12.3 | 9.9 | 331 | 5 |
| 2010-01-07T00:03 | 2864 | 722 | 11.9 | 10.3 | 332 | 5 |
| 2010-01-07T00:04 | 2916 | 718 | 11.6 | 9.6 | 331 | 5 |
| 2010-01-07T00:04 | 2959 | 714 | 11.2 | 9.2 | 330 | 5 |
| 2010-01-07T00:04 | 3006 | 710 | 10.9 | 8.8 | 327 | 6 |
| 2010-01-07T00:04 | 3060 | 706 | 10.7 | 8.7 | 326 | 6 |
| 2010-01-07T00:04 | 3121 | 700 | 10.3 | 8.5 | 327 | 6 |
| 2010-01-07T00:04 | 3171 | 696 | 9.9 | 8.5 | 329 | 6 |
| 2010-01-07T00:05 | 3223 | 692 | 9.7 | 7.8 | 332 | 6 |
| 2010-01-07T00:05 | 3274 | 688 | 9.5 | 6.9 | 335 | 6 |
| 2010-01-07T00:05 | 3327 | 683 | 9.3 | 6.9 | 334 | 6 |
| 2010-01-07T00:05 | 3377 | 679 | 9.1 | 7.1 | 330 | 6 |
| 2010-01-07T00:05 | 3428 | 675 | 9.0 | 6.7 | 328 | 6 |
| 2010-01-07T00:05 | 3479 | 671 | 8.7 | 6.5 | 328 | 7 |
| 2010-01-07T00:06 | 3533 | 667 | 8.3 | 6.4 | 325 | 7 |
| 2010-01-07T00:06 | 3582 | 663 | 7.9 | 6.1 | 324 | 8 |
| 2010-01-07T00:06 | 3634 | 659 | 7.5 | 6.1 | 323 | 8 |
| 2010-01-07T00:06 | 3682 | 655 | 7.2 | 6.0 | 325 | 7 |
| 2010-01-07T00:06 | 3734 | 651 | 6.9 | 5.5 | 328 | 7 |
| 2010-01-07T00:06 | 3782 | 647 | 6.7 | 5.1 | 330 | 7 |
| 2010-01-07T00:07 | 3835 | 643 | 6.3 | 5.0 | 330 | 7 |
| 2010-01-07T00:07 | 3883 | 639 | 6.1 | 5.0 | 331 | 7 |
| 2010-01-07T00:07 | 3932 | 635 | 5.9 | 4.3 | 334 | 7 |
| 2010-01-07T00:07 | 3976 | 632 | 5.6 | 3.6 | 337 | 6 |
| 2010-01-07T00:07 | 4022 | 628 | 5.3 | 3.4 | 341 | 6 |
| 2010-01-07T00:07 | 4069 | 625 | 5.1 | 3.2 | 346 | 6 |
| 2010-01-07T00:08 | 4114 | 621 | 4.8 | 2.1 | 349 | 6 |
| 2010-01-07T00:08 | 4162 | 617 | 4.7 | 1.7 | 350 | 6 |
| 2010-01-07T00:08 | 4207 | 614 | 4.6 | 1.4 | 348 | 7 |
| 2010-01-07T00:08 | 4250 | 611 | 4.3 | 1.1 | 346 | 6 |
| 2010-01-07T00:08 | 4293 | 608 | 4.1 | 1.0 | 343 | 6 |
| 2010-01-07T00:08 | 4336 | 604 | 3.8 | 0.8 | 343 | 6 |
| 2010-01-07T00:09 | 4382 | 601 | 3.5 | 0.7 | 342 | 6 |
| 2010-01-07T00:09 | 4427 | 598 | 3.3 | 0.7 | 340 | 6 |
| 2010-01-07T00:09 | 4473 | 594 | 3.0 | 0.6 | 336 | 5 |
| 2010-01-07T00:09 | 4519 | 591 | 2.7 | 0.5 | 329 | 5 |
| 2010-01-07T00:09 | 4566 | 588 | 2.4 | 0.2 | 321 | 4 |
| 2010-01-07T00:09 | 4611 | 584 | 2.1 | -0.3 | 316 | 4 |
| 2010-01-07T00:10 | 4655 | 581 | 1.7 | -0.3 | 313 | 3 |
| 2010-01-07T00:10 | 4703 | 578 | 1.3 | -0.4 | 307 | 3 |
| 2010-01-07T00:10 | 4752 | 574 | 0.9 | -0.5 | 299 | 3 |
| 2010-01-07T00:10 | 4794 | 571 | 0.6 | -1.0 | 292 | 3 |
| 2010-01-07T00:10 | 4839 | 568 | 0.5 | -1.1 | 284 | 2 |
| 2010-01-07T00:10 | 4881 | 565 | 0.2 | -1.2 | 275 | 2 |
| 2010-01-07T00:11 | 4924 | 562 | 0.0 | -1.3 | 270 | 2 |
| 2010-01-07T00:11 | 4967 | 559 | -0.2 | -1.4 | 267 | 1 |
| 2010-01-07T00:11 | 5006 | 556 | -0.4 | -1.5 | 262 | 1 |
| 2010-01-07T00:11 | 5044 | 554 | -0.5 | -1.4 | 0 | 0 |
| 2010-01-07T00:11 | 5087 | 551 | -0.5 | -1.5 | 34 | 0 |
| 2010-01-07T00:11 | 5132 | 548 | -0.6 | -1.3 | 31 | 1 |
| 2010-01-07T00:12 | 5181 | 544 | -0.9 | -1.5 | 28 | 2 |
| 2010-01-07T00:12 | 5227 | 541 | -1.1 | -1.7 | 24 | 2 |
| 2010-01-07T00:12 | 5274 | 538 | -1.4 | -2.0 | 20 | 2 |
| 2010-01-07T00:12 | 5322 | 535 | -1.6 | -2.3 | 19 | 2 |
| 2010-01-07T00:12 | 5363 | 532 | -1.8 | -2.5 | 21 | 2 |
| 2010-01-07T00:12 | 5401 | 530 | -1.9 | -2.7 | 24 | 2 |
| 2010-01-07T00:13 | 5442 | 527 | -2.1 | -3.0 | 27 | 2 |
| 2010-01-07T00:13 | 5482 | 524 | -2.3 | -3.3 | 26 | 2 |
| 2010-01-07T00:13 | 5519 | 522 | -2.5 | -3.5 | 19 | 2 |
| 2010-01-07T00:13 | 5559 | 519 | -2.7 | -4.1 | 12 | 2 |
| 2010-01-07T00:13 | 5602 | 516 | -2.9 | -4.1 | 9 | 3 |
| 2010-01-07T00:13 | 5641 | 514 | -3.1 | -4.2 | 9 | 3 |
| 2010-01-07T00:14 | 5682 | 511 | -3.3 | -4.4 | 15 | 3 |
| 2010-01-07T00:14 | 5726 | 508 | -3.5 | -4.6 | 20 | 4 |
| 2010-01-07T00:14 | 5771 | 505 | -3.8 | -4.9 | 19 | 4 |
| 2010-01-07T00:14 | 5818 | 502 | -4.0 | -5.1 | 14 | 4 |
| 2010-01-07T00:14 | 5857 | 500 | -4.2 | -5.2 | 10 | 3 |
| 2010-01-07T00:14 | 5895 | 498 | -4.3 | -5.6 | 8 | 4 |
| 2010-01-07T00:15 | 5938 | 495 | -4.5 | -5.8 | 6 | 4 |
| 2010-01-07T00:15 | 5984 | 492 | -4.8 | -6.1 | 4 | 5 |
| 2010-01-07T00:15 | 6029 | 489 | -5.1 | -6.6 | 2 | 5 |
| 2010-01-07T00:15 | 6070 | 487 | -5.3 | -6.8 | 1 | 5 |
| 2010-01-07T00:15 | 6114 | 484 | -5.6 | -7.0 | 3 | 5 |
| 2010-01-07T00:15 | 6159 | 481 | -5.8 | -7.2 | 6 | 5 |
| 2010-01-07T00:16 | 6201 | 479 | -6.0 | -7.5 | 5 | 5 |
| 2010-01-07T00:16 | 6241 | 476 | -6.3 | -7.7 | 4 | 5 |
| 2010-01-07T00:16 | 6284 | 474 | -6.5 | -8.0 | 1 | 5 |
| 2010-01-07T00:16 | 6330 | 471 | -6.7 | -8.2 | 359 | 5 |
| 2010-01-07T00:16 | 6372 | 468 | -7.0 | -8.5 | 358 | 5 |
| 2010-01-07T00:16 | 6420 | 465 | -7.2 | -8.7 | 357 | 5 |
| 2010-01-07T00:17 | 6466 | 463 | -7.5 | -9.0 | 356 | 5 |
| 2010-01-07T00:17 | 6507 | 460 | -7.7 | -9.2 | 356 | 5 |
| 2010-01-07T00:17 | 6548 | 458 | -7.9 | -9.7 | 356 | 4 |
| 2010-01-07T00:17 | 6588 | 455 | -8.1 | -10.0 | 353 | 3 |
| 2010-01-07T00:17 | 6634 | 453 | -8.3 | -10.2 | 350 | 3 |
| 2010-01-07T00:17 | 6682 | 450 | -8.6 | -10.4 | 348 | 3 |
| 2010-01-07T00:18 | 6727 | 447 | -9.1 | -10.7 | 344 | 4 |
| 2010-01-07T00:18 | 6770 | 445 | -9.3 | -10.8 | 344 | 4 |
| 2010-01-07T00:18 | 6813 | 442 | -9.5 | -11.2 | 348 | 4 |
| 2010-01-07T00:18 | 6864 | 439 | -9.8 | -11.4 | 348 | 4 |
| 2010-01-07T00:18 | 6914 | 437 | -10.2 | -11.6 | 343 | 3 |
| 2010-01-07T00:18 | 6959 | 434 | -10.2 | -12.0 | 339 | 2 |
| 2010-01-07T00:19 | 7001 | 432 | -10.5 | -12.4 | 338 | 2 |
| 2010-01-07T00:19 | 7040 | 430 | -10.7 | -12.9 | 335 | 2 |
| 2010-01-07T00:19 | 7074 | 428 | -10.9 | -13.4 | 330 | 2 |
| 2010-01-07T00:19 | 7109 | 426 | -11.1 | -13.6 | 327 | 3 |
| 2010-01-07T00:19 | 7143 | 424 | -11.3 | -13.8 | 323 | 4 |
| 2010-01-07T00:19 | 7183 | 422 | -11.5 | -14.0 | 316 | 4 |
| 2010-01-07T00:20 | 7226 | 419 | -11.8 | -14.3 | 311 | 4 |
| 2010-01-07T00:20 | 7266 | 417 | -11.9 | -14.6 | 310 | 4 |
| 2010-01-07T00:20 | 7302 | 415 | -12.1 | -15.1 | 311 | 4 |
| 2010-01-07T00:20 | 7341 | 413 | -12.3 | -15.3 | 314 | 4 |
| 2010-01-07T00:20 | 7381 | 411 | -12.4 | -15.4 | 317 | 4 |
| 2010-01-07T00:20 | 7415 | 409 | -12.6 | -15.7 | 320 | 3 |
| 2010-01-07T00:21 | 7453 | 407 | -12.8 | -15.8 | 323 | 3 |
| 2010-01-07T00:21 | 7495 | 405 | -13.0 | -16.0 | 331 | 2 |
| 2010-01-07T00:21 | 7537 | 403 | -13.3 | -16.5 | 341 | 1 |
| 2010-01-07T00:21 | 7574 | 401 | -13.5 | -16.6 | 343 | 1 |
| 2010-01-07T00:21 | 7615 | 399 | -13.8 | -16.8 | 340 | 1 |
| 2010-01-07T00:21 | 7648 | 397 | -14.0 | -17.1 | 338 | 1 |
| 2010-01-07T00:22 | 7683 | 395 | -14.2 | -17.3 | 340 | 2 |
| 2010-01-07T00:22 | 7717 | 393 | -14.4 | -17.5 | 349 | 1 |
| 2010-01-07T00:22 | 7751 | 391 | -14.6 | -18.0 | 2 | 1 |
| 2010-01-07T00:22 | 7788 | 389 | -14.8 | -17.9 | 20 | 1 |
| 2010-01-07T00:22 | 7832 | 387 | -15.1 | -18.0 | 36 | 2 |
| 2010-01-07T00:22 | 7871 | 385 | -15.3 | -18.4 | 45 | 2 |
| 2010-01-07T00:23 | 7908 | 383 | -15.5 | -18.5 | 46 | 3 |
| 2010-01-07T00:23 | 7946 | 381 | -15.8 | -18.7 | 48 | 3 |
| 2010-01-07T00:23 | 7984 | 380 | -16.1 | -19.5 | 50 | 3 |
| 2010-01-07T00:23 | 8024 | 378 | -16.3 | -19.9 | 49 | 4 |
| 2010-01-07T00:23 | 8067 | 375 | -16.7 | -20.0 | 43 | 4 |
| 2010-01-07T00:23 | 8113 | 373 | -17.0 | -20.2 | 40 | 5 |
| 2010-01-07T00:24 | 8161 | 371 | -17.3 | -20.8 | 43 | 6 |
| 2010-01-07T00:24 | 8217 | 368 | -17.7 | -21.1 | 46 | 7 |
| 2010-01-07T00:24 | 8261 | 366 | -17.9 | -21.8 | 48 | 7 |
| 2010-01-07T00:24 | 8298 | 364 | -18.2 | -22.0 | 46 | 8 |
| 2010-01-07T00:24 | 8336 | 362 | -18.5 | -22.2 | 45 | 8 |
| 2010-01-07T00:24 | 8372 | 360 | -18.6 | -22.5 | 45 | 8 |
| 2010-01-07T00:25 | 8408 | 359 | -18.8 | -22.8 | 47 | 8 |
| 2010-01-07T00:25 | 8442 | 357 | -19.0 | -23.0 | 47 | 8 |
| 2010-01-07T00:25 | 8474 | 355 | -19.3 | -23.9 | 48 | 8 |
| 2010-01-07T00:25 | 8507 | 354 | -19.4 | -23.9 | 50 | 8 |
| 2010-01-07T00:25 | 8540 | 352 | -19.6 | -24.0 | 52 | 8 |
| 2010-01-07T00:25 | 8575 | 351 | -19.8 | -24.2 | 55 | 8 |
| 2010-01-07T00:26 | 8608 | 349 | -20.0 | -24.5 | 57 | 7 |
| 2010-01-07T00:26 | 8642 | 348 | -20.2 | -24.7 | 57 | 7 |
| 2010-01-07T00:26 | 8674 | 346 | -20.4 | -25.0 | 58 | 6 |
| 2010-01-07T00:26 | 8705 | 345 | -20.6 | -25.3 | 60 | 6 |
| 2010-01-07T00:26 | 8737 | 343 | -20.8 | -25.4 | 61 | 6 |
| 2010-01-07T00:26 | 8768 | 342 | -21.0 | -25.7 | 63 | 5 |
| 2010-01-07T00:27 | 8799 | 340 | -21.1 | -25.9 | 65 | 5 |
| 2010-01-07T00:27 | 8831 | 339 | -21.4 | -26.2 | 67 | 6 |
| 2010-01-07T00:27 | 8862 | 337 | -21.6 | -26.4 | 67 | 6 |
| 2010-01-07T00:27 | 8895 | 336 | -21.8 | -27.1 | 67 | 5 |
| 2010-01-07T00:27 | 8925 | 334 | -22.1 | -27.2 | 66 | 5 |
| 2010-01-07T00:27 | 8957 | 333 | -22.3 | -27.3 | 64 | 5 |
| 2010-01-07T00:28 | 8988 | 332 | -22.5 | -27.5 | 63 | 5 |
| 2010-01-07T00:28 | 9019 | 330 | -22.8 | -27.7 | 63 | 5 |
| 2010-01-07T00:28 | 9051 | 329 | -23.0 | -28.0 | 61 | 6 |
| 2010-01-07T00:28 | 9082 | 327 | -23.3 | -28.3 | 59 | 5 |
| 2010-01-07T00:28 | 9114 | 326 | -23.5 | -28.6 | 58 | 5 |
| 2010-01-07T00:28 | 9145 | 325 | -23.7 | -28.7 | 59 | 5 |
| 2010-01-07T00:29 | 9176 | 323 | -23.9 | -29.0 | 61 | 5 |
| 2010-01-07T00:29 | 9209 | 322 | -24.1 | -29.2 | 63 | 5 |
| 2010-01-07T00:29 | 9240 | 320 | -24.4 | -29.4 | 62 | 5 |
| 2010-01-07T00:29 | 9274 | 319 | -24.6 | -29.7 | 57 | 5 |
| 2010-01-07T00:29 | 9306 | 317 | -24.8 | -30.5 | 50 | 4 |
| 2010-01-07T00:29 | 9338 | 316 | -24.9 | -30.6 | 46 | 4 |
| 2010-01-07T00:30 | 9371 | 315 | -25.1 | -30.8 | 44 | 4 |
| 2010-01-07T00:30 | 9404 | 313 | -25.4 | -31.0 | 44 | 4 |
| 2010-01-07T00:30 | 9439 | 312 | -25.7 | -31.2 | 43 | 3 |
| 2010-01-07T00:30 | 9472 | 310 | -26.0 | -31.4 | 39 | 3 |
| 2010-01-07T00:30 | 9503 | 309 | -26.2 | -31.9 | 38 | 3 |
| 2010-01-07T00:30 | 9535 | 308 | -26.4 | -32.2 | 41 | 3 |
| 2010-01-07T00:31 | 9569 | 306 | -26.7 | -32.2 | 47 | 3 |
| 2010-01-07T00:31 | 9604 | 305 | -27.0 | -32.3 | 53 | 4 |
| 2010-01-07T00:31 | 9639 | 303 | -27.2 | -32.5 | 57 | 4 |
| 2010-01-07T00:31 | 9675 | 302 | -27.4 | -32.6 | 61 | 4 |
| 2010-01-07T00:31 | 9710 | 300 | -27.7 | -32.7 | 63 | 4 |
| 2010-01-07T00:31 | 9750 | 299 | -27.9 | -33.8 | 66 | 3 |
| 2010-01-07T00:32 | 9789 | 297 | -28.2 | -33.8 | 74 | 3 |
| 2010-01-07T00:32 | 9832 | 295 | -28.5 | -33.7 | 86 | 3 |
| 2010-01-07T00:32 | 9873 | 293 | -29.0 | -33.9 | 99 | 3 |
| 2010-01-07T00:32 | 9912 | 292 | -29.3 | -33.9 | 107 | 3 |
| 2010-01-07T00:32 | 9950 | 290 | -29.5 | -34.4 | 112 | 4 |
| 2010-01-07T00:32 | 9987 | 289 | -29.8 | -35.0 | 118 | 4 |
| 2010-01-07T00:33 | 10026 | 287 | -30.1 | -35.5 | 123 | 4 |
| 2010-01-07T00:33 | 10063 | 286 | -30.5 | -35.5 | 127 | 5 |
| 2010-01-07T00:33 | 10098 | 284 | -30.7 | -35.7 | 132 | 5 |
| 2010-01-07T00:33 | 10130 | 283 | -31.0 | -36.0 | 136 | 5 |
| 2010-01-07T00:33 | 10161 | 282 | -31.2 | -36.2 | 137 | 5 |
| 2010-01-07T00:33 | 10193 | 281 | -31.5 | -36.5 | 138 | 4 |
| 2010-01-07T00:34 | 10224 | 279 | -31.6 | -36.9 | 137 | 4 |
| 2010-01-07T00:34 | 10255 | 278 | -31.9 | -37.3 | 133 | 4 |
| 2010-01-07T00:34 | 10286 | 277 | -32.2 | -37.5 | 128 | 4 |
| 2010-01-07T00:34 | 10319 | 276 | -32.4 | -37.9 | 127 | 4 |
| 2010-01-07T00:34 | 10350 | 274 | -32.6 | -38.2 | 129 | 3 |
| 2010-01-07T00:34 | 10381 | 273 | -32.9 | -38.4 | 131 | 3 |
| 2010-01-07T00:35 | 10413 | 272 | -33.2 | -38.7 | 130 | 3 |
| 2010-01-07T00:35 | 10445 | 271 | -33.4 | -39.1 | 130 | 3 |
| 2010-01-07T00:35 | 10476 | 270 | -33.7 | -39.4 | 131 | 3 |
| 2010-01-07T00:35 | 10509 | 268 | -34.0 | -39.5 | 132 | 3 |
| 2010-01-07T00:35 | 10548 | 267 | -34.4 | -39.6 | 133 | 4 |
| 2010-01-07T00:35 | 10584 | 265 | -34.7 | -39.6 | 132 | 4 |
| 2010-01-07T00:36 | 10618 | 264 | -34.9 | -39.8 | 127 | 4 |
| 2010-01-07T00:36 | 10652 | 263 | -35.1 | -39.9 | 121 | 5 |
| 2010-01-07T00:36 | 10687 | 262 | -35.5 | -40.4 | 114 | 5 |
| 2010-01-07T00:36 | 10724 | 260 | -35.6 | -41.2 | 111 | 6 |
| 2010-01-07T00:36 | 10761 | 259 | -35.9 | -41.8 | 112 | 6 |
| 2010-01-07T00:36 | 10798 | 257 | -36.2 | -41.9 | 112 | 7 |
| 2010-01-07T00:37 | 10838 | 256 | -36.5 | -42.5 | 112 | 7 |
| 2010-01-07T00:37 | 10879 | 254 | -36.9 | -43.0 | 111 | 7 |
| 2010-01-07T00:37 | 10920 | 253 | -37.2 | -43.3 | 110 | 6 |
| 2010-01-07T00:37 | 10960 | 251 | -37.7 | -43.4 | 110 | 6 |
| 2010-01-07T00:37 | 10998 | 250 | -37.9 | -43.5 | 111 | 6 |
| 2010-01-07T00:37 | 11038 | 249 | -38.3 | -44.0 | 111 | 6 |
| 2010-01-07T00:38 | 11078 | 247 | -38.7 | -43.9 | 113 | 6 |
| 2010-01-07T00:38 | 11117 | 246 | -39.0 | -44.3 | 116 | 6 |
| 2010-01-07T00:38 | 11158 | 244 | -39.3 | -44.7 | 116 | 6 |
| 2010-01-07T00:38 | 11197 | 243 | -39.6 | -45.4 | 113 | 6 |
| 2010-01-07T00:38 | 11232 | 242 | -39.7 | -46.2 | 111 | 6 |
| 2010-01-07T00:38 | 11273 | 240 | -40.1 | -47.1 | 111 | 6 |
| 2010-01-07T00:39 | 11319 | 239 | -40.5 | -47.5 | 113 | 7 |
| 2010-01-07T00:39 | 11364 | 237 | -40.9 | -47.5 | 115 | 8 |
| 2010-01-07T00:39 | 11402 | 236 | -41.2 | -47.7 | 116 | 8 |
| 2010-01-07T00:39 | 11442 | 234 | -41.3 | -48.2 | 117 | 8 |
| 2010-01-07T00:39 | 11487 | 233 | -41.8 | -48.9 | 120 | 7 |
| 2010-01-07T00:39 | 11526 | 231 | -42.2 | -49.3 | 122 | 7 |
| 2010-01-07T00:40 | 11559 | 230 | -42.5 | -49.6 | 122 | 7 |
| 2010-01-07T00:40 | 11594 | 229 | -42.7 | -50.0 | 120 | 7 |
| 2010-01-07T00:40 | 11632 | 228 | -43.1 | -50.5 | 120 | 7 |
| 2010-01-07T00:40 | 11673 | 226 | -43.5 | -50.7 | 123 | 7 |
| 2010-01-07T00:40 | 11711 | 225 | -43.7 | -51.2 | 126 | 7 |
| 2010-01-07T00:40 | 11750 | 224 | -44.1 | -51.7 | 126 | 8 |
| 2010-01-07T00:41 | 11790 | 223 | -44.5 | -51.8 | 125 | 8 |
| 2010-01-07T00:41 | 11830 | 221 | -44.7 | -52.3 | 125 | 7 |
| 2010-01-07T00:41 | 11868 | 220 | -45.0 | -52.8 | 124 | 7 |
| 2010-01-07T00:41 | 11911 | 219 | -45.5 | -53.0 | 122 | 7 |
| 2010-01-07T00:41 | 11953 | 217 | -45.9 | -53.1 | 121 | 7 |
| 2010-01-07T00:41 | 11993 | 216 | -46.2 | -53.5 | 121 | 7 |
| 2010-01-07T00:42 | 12032 | 215 | -46.6 | -53.8 | 121 | 8 |
| 2010-01-07T00:42 | 12071 | 213 | -47.0 | -54.4 | 120 | 8 |
| 2010-01-07T00:42 | 12110 | 212 | -47.4 | -54.5 | 119 | 8 |
| 2010-01-07T00:42 | 12148 | 211 | -47.5 | -55.1 | 117 | 8 |
| 2010-01-07T00:42 | 12188 | 210 | -47.8 | -55.9 | 117 | 8 |
| 2010-01-07T00:42 | 12227 | 208 | -48.3 | -56.6 | 118 | 8 |
| 2010-01-07T00:43 | 12263 | 207 | -48.6 | -56.9 | 121 | 8 |
| 2010-01-07T00:43 | 12298 | 206 | -48.9 | -57.2 | 122 | 8 |
| 2010-01-07T00:43 | 12334 | 205 | -49.3 | -57.4 | 122 | 8 |
| 2010-01-07T00:43 | 12371 | 204 | -49.5 | -57.8 | 123 | 8 |
| 2010-01-07T00:43 | 12409 | 203 | -49.9 | -58.3 | 124 | 8 |
| 2010-01-07T00:43 | 12445 | 202 | -50.3 | -58.7 | 126 | 8 |
| 2010-01-07T00:44 | 12482 | 200 | -50.6 | -58.9 | 127 | 8 |
| 2010-01-07T00:44 | 12519 | 199 | -50.9 | -59.4 | 126 | 8 |
| 2010-01-07T00:44 | 12557 | 198 | -51.3 | -59.7 | 125 | 9 |
| 2010-01-07T00:44 | 12597 | 197 | -51.7 | -60.0 | 125 | 9 |
| 2010-01-07T00:44 | 12638 | 196 | -52.0 | -60.3 | 126 | 9 |
| 2010-01-07T00:44 | 12679 | 194 | -52.5 | -60.7 | 127 | 9 |
| 2010-01-07T00:45 | 12722 | 193 | -52.9 | -61.2 | 129 | 9 |
| 2010-01-07T00:45 | 12763 | 192 | -53.2 | -61.5 | 132 | 10 |
| 2010-01-07T00:45 | 12806 | 191 | -53.7 | -62.0 | 134 | 10 |
| 2010-01-07T00:45 | 12847 | 189 | -53.9 | -62.1 | 134 | 11 |
| 2010-01-07T00:45 | 12890 | 188 | -54.5 | -62.5 | 133 | 11 |
| 2010-01-07T00:45 | 12927 | 187 | -54.8 | -62.8 | 133 | 11 |
| 2010-01-07T00:46 | 12965 | 186 | -55.1 | -63.2 | 134 | 11 |
| 2010-01-07T00:46 | 12999 | 185 | -55.5 | -63.8 | 136 | 10 |
| 2010-01-07T00:46 | 13034 | 184 | -55.8 | -64.1 | 137 | 10 |
| 2010-01-07T00:46 | 13070 | 183 | -56.0 | -64.5 | 139 | 10 |
| 2010-01-07T00:46 | 13105 | 182 | -56.2 | -65.1 | 142 | 10 |
| 2010-01-07T00:46 | 13138 | 181 | -56.5 | -65.7 | 144 | 9 |
| 2010-01-07T00:47 | 13170 | 180 | -56.7 | -65.9 | 147 | 9 |
| 2010-01-07T00:47 | 13204 | 179 | -57.1 | -66.3 | 149 | 9 |
| 2010-01-07T00:47 | 13240 | 178 | -57.5 | -66.5 | 151 | 9 |
| 2010-01-07T00:47 | 13274 | 177 | -57.7 | -66.7 | 152 | 9 |
| 2010-01-07T00:47 | 13308 | 176 | -58.0 | -67.1 | 152 | 9 |
| 2010-01-07T00:47 | 13344 | 175 | -58.3 | -67.3 | 153 | 9 |
| 2010-01-07T00:48 | 13379 | 174 | -58.6 | -67.5 | 154 | 8 |
| 2010-01-07T00:48 | 13414 | 173 | -58.9 | -67.8 | 155 | 8 |
| 2010-01-07T00:48 | 13448 | 172 | -59.2 | -68.1 | 157 | 8 |
| 2010-01-07T00:48 | 13483 | 171 | -59.6 | -68.5 | 160 | 9 |
| 2010-01-07T00:48 | 13515 | 170 | -59.7 | -68.8 | 161 | 9 |
| 2010-01-07T00:48 | 13549 | 169 | -60.0 | -69.2 | 161 | 9 |
| 2010-01-07T00:49 | 13583 | 169 | -60.4 | -69.7 | 161 | 9 |
| 2010-01-07T00:49 | 13616 | 168 | -60.7 | -70.0 | 159 | 9 |
| 2010-01-07T00:49 | 13649 | 167 | -61.0 | -70.3 | 159 | 9 |
| 2010-01-07T00:49 | 13681 | 166 | -61.3 | -70.7 | 159 | 10 |
| 2010-01-07T00:49 | 13714 | 165 | -61.8 | -71.1 | 159 | 10 |
| 2010-01-07T00:49 | 13746 | 164 | -62.0 | -71.4 | 159 | 10 |
| 2010-01-07T00:50 | 13781 | 163 | -62.3 | -71.7 | 159 | 10 |
| 2010-01-07T00:50 | 13814 | 162 | -62.6 | -72.1 | 158 | 10 |
| 2010-01-07T00:50 | 13848 | 162 | -62.9 | -72.3 | 158 | 10 |
| 2010-01-07T00:50 | 13879 | 161 | -63.2 | -72.7 | 158 | 10 |
| 2010-01-07T00:50 | 13911 | 160 | -63.6 | -73.0 | 157 | 10 |
| 2010-01-07T00:50 | 13944 | 159 | -63.8 | -73.3 | 157 | 10 |
| 2010-01-07T00:51 | 13975 | 158 | -64.1 | -73.6 | 157 | 10 |
| 2010-01-07T00:51 | 14004 | 157 | -64.4 | -73.8 | 157 | 10 |
| 2010-01-07T00:51 | 14034 | 157 | -64.7 | -74.3 | 156 | 10 |
| 2010-01-07T00:51 | 14063 | 156 | -65.1 | -74.6 | 154 | 10 |
| 2010-01-07T00:51 | 14094 | 155 | -65.3 | -74.8 | 153 | 10 |
| 2010-01-07T00:51 | 14127 | 154 | -65.7 | -75.2 | 152 | 10 |
| 2010-01-07T00:52 | 14157 | 154 | -65.8 | -75.3 | 150 | 10 |
| 2010-01-07T00:52 | 14184 | 153 | -66.2 | -75.8 | 149 | 11 |
| 2010-01-07T00:52 | 14213 | 152 | -66.4 | -76.3 | 149 | 11 |
| 2010-01-07T00:52 | 14244 | 151 | -66.8 | -76.6 | 149 | 11 |
| 2010-01-07T00:52 | 14281 | 150 | -67.1 | -76.6 | 149 | 11 |
| 2010-01-07T00:52 | 14319 | 149 | -67.5 | -76.8 | 147 | 12 |
| 2010-01-07T00:53 | 14359 | 148 | -67.9 | -77.2 | 145 | 12 |
| 2010-01-07T00:53 | 14397 | 148 | -68.3 | -77.4 | 146 | 11 |
| 2010-01-07T00:53 | 14435 | 147 | -68.6 | -77.7 | 147 | 11 |
| 2010-01-07T00:53 | 14475 | 146 | -69.0 | -77.9 | 148 | 11 |
| 2010-01-07T00:53 | 14513 | 145 | -69.4 | -78.1 | 149 | 11 |
| 2010-01-07T00:53 | 14555 | 144 | -69.9 | -78.3 | 149 | 12 |
| 2010-01-07T00:54 | 14595 | 143 | -70.1 | -78.5 | 149 | 12 |
| 2010-01-07T00:54 | 14633 | 142 | -70.5 | -78.7 | 149 | 12 |
| 2010-01-07T00:54 | 14671 | 141 | -70.9 | -79.0 | 148 | 12 |
| 2010-01-07T00:54 | 14711 | 140 | -71.2 | -79.3 | 148 | 12 |
| 2010-01-07T00:54 | 14750 | 139 | -71.6 | -79.7 | 147 | 12 |
| 2010-01-07T00:54 | 14789 | 138 | -72.0 | -80.0 | 147 | 13 |
| 2010-01-07T00:55 | 14824 | 137 | -72.3 | -80.2 | 145 | 13 |
| 2010-01-07T00:55 | 14858 | 137 | -72.6 | -80.5 | 144 | 13 |
| 2010-01-07T00:55 | 14892 | 136 | -72.8 | -80.8 | 143 | 13 |
| 2010-01-07T00:55 | 14926 | 135 | -73.1 | -81.0 | 143 | 13 |
| 2010-01-07T00:55 | 14959 | 134 | -73.4 | -81.4 | 143 | 14 |
| 2010-01-07T00:55 | 14992 | 133 | -73.8 | -81.8 | 143 | 14 |
| 2010-01-07T00:56 | 15027 | 133 | -74.1 | -82.1 | 142 | 14 |
| 2010-01-07T00:56 | 15063 | 132 | -74.3 | -82.4 | 142 | 15 |
| 2010-01-07T00:56 | 15098 | 131 | -74.6 | -82.7 | 141 | 15 |
| 2010-01-07T00:56 | 15137 | 130 | -74.8 | -82.9 | 141 | 16 |
| 2010-01-07T00:56 | 15172 | 129 | -75.3 | -83.4 | 141 | 17 |
| 2010-01-07T00:56 | 15205 | 129 | -75.4 | -83.6 | 141 | 18 |
| 2010-01-07T00:57 | 15236 | 128 | -75.6 | -83.8 | 140 | 19 |
| 2010-01-07T00:57 | 15266 | 127 | -75.9 | -84.0 | 139 | 20 |
| 2010-01-07T00:57 | 15297 | 127 | -75.6 | -83.8 | 139 | 21 |
| 2010-01-07T00:57 | 15326 | 126 | -76.0 | -84.2 | 138 | 21 |
| 2010-01-07T00:57 | 15355 | 125 | -76.2 | -84.5 | 138 | 22 |
| 2010-01-07T00:57 | 15384 | 125 | -76.4 | -84.7 | 139 | 23 |
| 2010-01-07T00:58 | 15411 | 124 | -76.3 | -84.6 | 139 | 23 |
| 2010-01-07T00:58 | 15440 | 124 | -76.5 | -84.7 | 139 | 24 |
| 2010-01-07T00:58 | 15468 | 123 | -76.7 | -84.8 | 140 | 24 |
| 2010-01-07T00:58 | 15497 | 122 | -76.9 | -85.1 | 140 | 24 |
| 2010-01-07T00:58 | 15527 | 122 | -77.1 | -85.4 | 139 | 24 |
| 2010-01-07T00:58 | 15559 | 121 | -77.5 | -85.9 | 137 | 24 |
| 2010-01-07T00:59 | 15589 | 120 | -77.6 | -85.9 | 136 | 24 |
| 2010-01-07T00:59 | 15618 | 120 | -77.8 | -86.2 | 135 | 24 |
| 2010-01-07T00:59 | 15647 | 119 | -78.0 | -86.4 | 134 | 23 |
| 2010-01-07T00:59 | 15678 | 118 | -78.2 | -86.7 | 133 | 23 |
| 2010-01-07T00:59 | 15709 | 118 | -78.4 | -86.9 | 132 | 22 |
| 2010-01-07T00:59 | 15739 | 117 | -78.5 | -87.0 | 131 | 22 |
| 2010-01-07T01:00 | 15771 | 117 | -78.8 | -87.3 | 130 | 22 |
| 2010-01-07T01:00 | 15804 | 116 | -79.0 | -87.6 | 129 | 22 |
| 2010-01-07T01:00 | 15836 | 115 | -79.2 | -87.8 | 127 | 22 |
| 2010-01-07T01:00 | 15868 | 115 | -79.3 | -87.9 | 125 | 22 |
| 2010-01-07T01:00 | 15900 | 114 | -79.6 | -88.2 | 124 | 22 |
| 2010-01-07T01:00 | 15934 | 113 | -79.9 | -88.5 | 123 | 22 |
| 2010-01-07T01:01 | 15968 | 113 | -80.2 | -88.8 | 122 | 22 |
| 2010-01-07T01:01 | 16002 | 112 | -80.2 | -88.8 | 120 | 22 |
| 2010-01-07T01:01 | 16036 | 111 | -80.3 | -89.0 | 119 | 21 |
| 2010-01-07T01:01 | 16070 | 111 | -80.6 | -89.3 | 118 | 21 |
| 2010-01-07T01:01 | 16104 | 110 | -80.8 | -89.4 | 117 | 20 |
| 2010-01-07T01:01 | 16138 | 109 | -81.1 | -89.8 | 116 | 20 |
| 2010-01-07T01:02 | 16172 | 109 | -81.3 | -90.0 | 116 | 20 |
| 2010-01-07T01:02 | 16206 | 108 | -81.7 | -90.5 | 117 | 20 |
| 2010-01-07T01:02 | 16242 | 107 | -82.0 | -90.8 | 118 | 19 |
| 2010-01-07T01:02 | 16274 | 107 | -82.2 | -91.1 | 118 | 19 |
| 2010-01-07T01:02 | 16307 | 106 | -82.5 | -91.3 | 118 | 19 |
| 2010-01-07T01:02 | 16340 | 105 | -82.7 | -91.6 | 118 | 19 |
| 2010-01-07T01:03 | 16371 | 105 | -83.0 | -92.0 | 118 | 19 |
| 2010-01-07T01:03 | 16402 | 104 | -82.9 | -91.9 | 119 | 19 |
| 2010-01-07T01:03 | 16435 | 104 | -82.8 | -91.8 | 120 | 19 |
| 2010-01-07T01:03 | 16467 | 103 | -82.9 | -91.9 | 121 | 20 |
| 2010-01-07T01:03 | 16498 | 102 | -82.5 | -91.6 | 122 | 20 |
| 2010-01-07T01:03 | 16527 | 102 | -82.8 | -91.8 | 122 | 20 |
| 2010-01-07T01:04 | 16555 | 101 | -83.0 | -92.1 | 122 | 21 |
| 2010-01-07T01:04 | 16583 | 101 | -83.3 | -92.5 | 121 | 21 |
| 2010-01-07T01:04 | 16610 | 100 | -83.3 | -92.5 | 121 | 21 |
| 2010-01-07T01:04 | 16636 | 100 | -83.5 | -92.8 | 120 | 21 |
| 2010-01-07T01:04 | 16663 | 99 | -83.3 | -92.6 | 119 | 21 |
| 2010-01-07T01:04 | 16690 | 99 | -83.3 | -92.6 | 116 | 21 |
| 2010-01-07T01:05 | 16718 | 98 | -83.0 | -92.5 | 113 | 20 |
| 2010-01-07T01:05 | 16749 | 98 | -82.3 | -91.9 | 111 | 18 |
| 2010-01-07T01:05 | 16781 | 97 | -82.1 | -91.8 | 109 | 15 |
| 2010-01-07T01:05 | 16815 | 97 | -80.9 | -90.8 | 106 | 13 |
| 2010-01-07T01:05 | 16851 | 96 | -80.5 | -90.4 | 104 | 11 |
| 2010-01-07T01:05 | 16892 | 95 | -79.9 | -89.9 | 105 | 8 |
| 2010-01-07T01:06 | 16931 | 95 | -79.3 | -89.6 | 106 | 6 |
| 2010-01-07T01:06 | 16969 | 94 | -79.4 | -89.7 | 106 | 5 |
| 2010-01-07T01:06 | 17002 | 94 | -79.6 | -90.1 | 104 | 5 |
| 2010-01-07T01:06 | 17035 | 93 | -79.7 | -90.3 | 102 | 5 |
| 2010-01-07T01:06 | 17068 | 93 | -80.0 | -90.6 | 102 | 5 |
| 2010-01-07T01:06 | 17103 | 92 | -80.2 | -90.9 | 107 | 5 |
| 2010-01-07T01:07 | 17136 | 91 | -80.6 | -91.4 | 116 | 5 |
| 2010-01-07T01:07 | 17167 | 91 | -80.6 | -91.7 | 124 | 6 |
| 2010-01-07T01:07 | 17197 | 90 | -80.2 | -91.4 | 128 | 6 |
| 2010-01-07T01:07 | 17228 | 90 | -80.1 | -91.4 | 129 | 7 |
| 2010-01-07T01:07 | 17258 | 89 | -80.2 | -91.6 | 129 | 7 |
| 2010-01-07T01:07 | 17288 | 89 | -80.2 | -91.7 | 128 | 7 |
| 2010-01-07T01:08 | 17318 | 89 | -80.4 | -92.0 | 125 | 6 |
| 2010-01-07T01:08 | 17348 | 88 | -79.3 | -91.3 | 120 | 4 |
| 2010-01-07T01:08 | 17376 | 88 | -78.0 | -90.5 | 113 | 2 |
| 2010-01-07T01:08 | 17405 | 87 | -77.6 | -90.1 | 0 | 0 |
| 2010-01-07T01:08 | 17440 | 87 | -76.7 | -89.5 | 298 | 2 |
| 2010-01-07T01:08 | 17478 | 86 | -75.7 | -88.9 | 297 | 4 |
| 2010-01-07T01:09 | 17508 | 86 | -75.5 | -88.8 | 297 | 5 |
| 2010-01-07T01:09 | 17540 | 85 | -75.5 | -88.9 | 296 | 6 |
| 2010-01-07T01:09 | 17571 | 85 | -75.6 | -89.2 | 295 | 6 |
| 2010-01-07T01:09 | 17604 | 84 | -75.8 | -89.5 | 295 | 7 |
| 2010-01-07T01:09 | 17636 | 84 | -75.5 | -89.5 | 296 | 7 |
| 2010-01-07T01:09 | 17667 | 83 | -75.6 | -89.7 | 297 | 7 |
| 2010-01-07T01:10 | 17698 | 83 | -75.9 | -90.2 | 298 | 8 |
| 2010-01-07T01:10 | 17731 | 82 | -76.2 | -90.7 | 300 | 8 |
| 2010-01-07T01:10 | 17763 | 82 | -76.4 | -90.9 | 303 | 8 |
| 2010-01-07T01:10 | 17796 | 81 | -76.8 | -91.4 | 305 | 8 |
| 2010-01-07T01:10 | 17828 | 81 | -76.9 | -91.6 | 308 | 9 |
| 2010-01-07T01:10 | 17861 | 81 | -77.1 | -91.9 | 309 | 9 |
| 2010-01-07T01:11 | 17894 | 80 | -77.5 | -92.2 | 310 | 9 |
| 2010-01-07T01:11 | 17926 | 80 | -77.8 | -92.6 | 311 | 10 |
| 2010-01-07T01:11 | 17959 | 79 | -78.0 | -92.8 | 310 | 10 |
| 2010-01-07T01:11 | 17991 | 79 | -78.2 | -93.1 | 308 | 11 |
| 2010-01-07T01:11 | 18024 | 78 | -78.2 | -93.2 | 304 | 11 |
| 2010-01-07T01:11 | 18057 | 78 | -78.4 | -93.2 | 301 | 12 |
| 2010-01-07T01:12 | 18091 | 77 | -78.4 | -93.3 | 298 | 12 |
| 2010-01-07T01:12 | 18123 | 77 | -78.4 | -93.4 | 296 | 11 |
| 2010-01-07T01:12 | 18157 | 76 | -77.8 | -92.8 | 294 | 11 |
| 2010-01-07T01:12 | 18190 | 76 | -77.6 | -92.6 | 294 | 11 |
| 2010-01-07T01:12 | 18221 | 76 | -77.4 | -92.4 | 293 | 10 |
| 2010-01-07T01:12 | 18253 | 75 | -77.5 | -92.5 | 291 | 10 |
| 2010-01-07T01:13 | 18283 | 75 | -77.2 | -92.3 | 286 | 9 |
| 2010-01-07T01:13 | 18315 | 74 | -76.6 | -92.1 | 280 | 9 |
| 2010-01-07T01:13 | 18347 | 74 | -76.5 | -92.0 | 277 | 10 |
| 2010-01-07T01:13 | 18378 | 74 | -76.6 | -92.1 | 277 | 10 |
| 2010-01-07T01:13 | 18410 | 73 | -76.2 | -91.8 | 275 | 9 |
| 2010-01-07T01:13 | 18442 | 73 | -75.9 | -91.6 | 271 | 9 |
| 2010-01-07T01:14 | 18474 | 72 | -75.9 | -91.8 | 265 | 10 |
| 2010-01-07T01:14 | 18507 | 72 | -75.9 | -91.8 | 262 | 11 |
| 2010-01-07T01:14 | 18541 | 72 | -75.6 | -91.5 | 260 | 12 |
| 2010-01-07T01:14 | 18573 | 71 | -75.9 | -91.8 | 259 | 13 |
| 2010-01-07T01:14 | 18606 | 71 | -75.4 | -91.6 | 259 | 14 |
| 2010-01-07T01:14 | 18640 | 70 | -75.4 | -91.5 | 258 | 15 |
| 2010-01-07T01:15 | 18673 | 70 | -75.8 | -91.9 | 256 | 16 |
| 2010-01-07T01:15 | 18707 | 70 | -75.9 | -92.1 | 255 | 17 |
| 2010-01-07T01:15 | 18740 | 69 | -76.2 | -92.3 | 255 | 17 |
| 2010-01-07T01:15 | 18774 | 69 | -76.3 | -92.5 | 254 | 18 |
| 2010-01-07T01:15 | 18807 | 68 | -76.5 | -92.6 | 253 | 18 |
| 2010-01-07T01:15 | 18840 | 68 | -76.7 | -92.8 | 253 | 18 |
| 2010-01-07T01:16 | 18872 | 68 | -77.1 | -93.1 | 253 | 18 |
| 2010-01-07T01:16 | 18904 | 67 | -77.3 | -93.3 | 253 | 18 |
| 2010-01-07T01:16 | 18937 | 67 | -77.4 | -93.4 | 253 | 18 |
| 2010-01-07T01:16 | 18969 | 66 | -77.3 | -93.3 | 254 | 17 |
| 2010-01-07T01:16 | 19002 | 66 | -76.9 | -93.1 | 256 | 16 |
| 2010-01-07T01:16 | 19034 | 66 | -77.0 | -93.1 | 256 | 16 |
| 2010-01-07T01:17 | 19066 | 65 | -76.7 | -92.8 | 256 | 15 |
| 2010-01-07T01:17 | 19098 | 65 | -76.2 | -92.5 | 255 | 14 |
| 2010-01-07T01:17 | 19129 | 65 | -75.6 | -92.1 | 255 | 13 |
| 2010-01-07T01:17 | 19161 | 64 | -75.1 | -91.8 | 257 | 12 |
| 2010-01-07T01:17 | 19192 | 64 | -73.4 | -90.7 | 259 | 12 |
| 2010-01-07T01:17 | 19223 | 64 | -73.7 | -90.9 | 259 | 12 |
| 2010-01-07T01:18 | 19255 | 63 | -74.1 | -91.1 | 259 | 13 |
| 2010-01-07T01:18 | 19285 | 63 | -74.1 | -91.2 | 260 | 13 |
| 2010-01-07T01:18 | 19318 | 63 | -74.5 | -91.6 | 262 | 13 |
| 2010-01-07T01:18 | 19351 | 62 | -74.6 | -91.8 | 265 | 14 |
| 2010-01-07T01:18 | 19381 | 62 | -74.3 | -91.7 | 266 | 14 |
| 2010-01-07T01:18 | 19412 | 62 | -74.0 | -91.6 | 264 | 13 |
| 2010-01-07T01:19 | 19445 | 61 | -74.3 | -91.8 | 261 | 12 |
| 2010-01-07T01:19 | 19479 | 61 | -74.7 | -92.2 | 257 | 12 |
| 2010-01-07T01:19 | 19512 | 60 | -74.8 | -92.5 | 255 | 12 |
| 2010-01-07T01:19 | 19546 | 60 | -75.1 | -92.6 | 255 | 12 |
| 2010-01-07T01:19 | 19580 | 60 | -75.5 | -93.0 | 257 | 12 |
| 2010-01-07T01:19 | 19614 | 59 | -75.7 | -93.2 | 261 | 11 |
| 2010-01-07T01:20 | 19648 | 59 | -75.8 | -93.3 | 266 | 12 |
| 2010-01-07T01:20 | 19684 | 59 | -74.8 | -92.7 | 273 | 12 |
| 2010-01-07T01:20 | 19719 | 58 | -74.5 | -92.4 | 277 | 13 |
| 2010-01-07T01:20 | 19754 | 58 | -74.6 | -92.4 | 279 | 14 |
| 2010-01-07T01:20 | 19790 | 58 | -75.1 | -92.7 | 281 | 14 |
| 2010-01-07T01:20 | 19828 | 57 | -75.4 | -93.0 | 282 | 15 |
| 2010-01-07T01:21 | 19865 | 57 | -75.6 | -93.1 | 284 | 15 |
| 2010-01-07T01:21 | 19899 | 57 | -75.9 | -93.4 | 285 | 16 |
| 2010-01-07T01:21 | 19936 | 56 | -76.3 | -93.7 | 286 | 16 |
| 2010-01-07T01:21 | 19973 | 56 | -76.7 | -93.8 | 287 | 17 |
| 2010-01-07T01:21 | 20009 | 56 | -76.8 | -94.0 | 288 | 17 |
| 2010-01-07T01:21 | 20044 | 55 | -77.1 | -94.1 | 286 | 17 |
| 2010-01-07T01:22 | 20079 | 55 | -77.1 | -94.1 | 283 | 16 |
| 2010-01-07T01:22 | 20115 | 54 | -77.0 | -94.1 | 277 | 15 |
| 2010-01-07T01:22 | 20148 | 54 | -76.6 | -93.8 | 273 | 14 |
| 2010-01-07T01:22 | 20181 | 54 | -75.9 | -93.3 | 270 | 13 |
| 2010-01-07T01:22 | 20214 | 54 | -76.1 | -93.4 | 268 | 13 |
| 2010-01-07T01:22 | 20247 | 53 | -76.1 | -93.4 | 266 | 14 |
| 2010-01-07T01:23 | 20280 | 53 | -76.2 | -93.5 | 262 | 14 |
| 2010-01-07T01:23 | 20315 | 53 | -76.4 | -93.5 | 258 | 14 |
| 2010-01-07T01:23 | 20347 | 52 | -76.0 | -93.3 | 254 | 14 |
| 2010-01-07T01:23 | 20381 | 52 | -76.3 | -93.6 | 252 | 14 |
| 2010-01-07T01:23 | 20413 | 52 | -76.1 | -93.5 | 251 | 14 |
| 2010-01-07T01:23 | 20445 | 51 | -76.1 | -93.4 | 251 | 14 |
| 2010-01-07T01:24 | 20478 | 51 | -76.1 | -93.4 | 251 | 13 |
| 2010-01-07T01:24 | 20511 | 51 | -75.9 | -93.4 | 250 | 12 |
| 2010-01-07T01:24 | 20544 | 51 | -75.7 | -93.2 | 249 | 11 |
| 2010-01-07T01:24 | 20576 | 50 | -74.3 | -92.2 | 248 | 11 |
| 2010-01-07T01:24 | 20609 | 50 | -73.4 | -91.6 | 247 | 11 |
| 2010-01-07T01:24 | 20642 | 50 | -73.3 | -91.5 | 246 | 11 |
| 2010-01-07T01:25 | 20676 | 49 | -73.2 | -91.7 | 246 | 11 |
| 2010-01-07T01:25 | 20710 | 49 | -73.1 | -91.8 | 247 | 11 |
| 2010-01-07T01:25 | 20745 | 49 | -72.9 | -91.8 | 247 | 11 |
| 2010-01-07T01:25 | 20778 | 49 | -73.2 | -92.1 | 246 | 11 |
| 2010-01-07T01:25 | 20810 | 48 | -72.8 | -92.1 | 246 | 12 |
| 2010-01-07T01:25 | 20844 | 48 | -72.5 | -91.9 | 244 | 11 |
| 2010-01-07T01:26 | 20877 | 48 | -71.9 | -91.6 | 244 | 10 |
| 2010-01-07T01:26 | 20909 | 48 | -71.4 | -91.4 | 243 | 10 |
| 2010-01-07T01:26 | 20941 | 47 | -70.5 | -90.9 | 240 | 9 |
| 2010-01-07T01:26 | 20973 | 47 | -69.3 | -90.3 | 234 | 9 |
| 2010-01-07T01:26 | 21005 | 47 | -69.3 | -90.3 | 228 | 9 |
| 2010-01-07T01:26 | 21038 | 47 | -69.3 | -90.6 | 224 | 10 |
| 2010-01-07T01:27 | 21069 | 46 | -69.4 | -90.7 | 218 | 10 |
| 2010-01-07T01:27 | 21102 | 46 | -69.3 | -90.9 | 211 | 9 |
| 2010-01-07T01:27 | 21133 | 46 | -69.1 | -90.9 | 203 | 9 |
| 2010-01-07T01:27 | 21163 | 46 | -68.6 | -90.8 | 194 | 9 |
| 2010-01-07T01:27 | 21194 | 45 | -68.1 | -90.7 | 186 | 9 |
| 2010-01-07T01:27 | 21225 | 45 | -68.1 | -90.8 | 180 | 9 |
| 2010-01-07T01:28 | 21256 | 45 | -68.3 | -91.1 | 176 | 9 |
| 2010-01-07T01:28 | 21288 | 45 | -68.1 | -91.0 | 173 | 9 |
| 2010-01-07T01:28 | 21317 | 44 | -68.1 | -91.1 | 168 | 9 |
| 2010-01-07T01:28 | 21351 | 44 | -67.9 | -91.1 | 162 | 8 |
| 2010-01-07T01:28 | 21382 | 44 | -68.0 | -91.3 | 156 | 7 |
| 2010-01-07T01:28 | 21414 | 44 | -67.8 | -91.2 | 149 | 7 |
| 2010-01-07T01:29 | 21450 | 43 | -67.0 | -90.9 | 145 | 6 |
| 2010-01-07T01:29 | 21484 | 43 | -66.6 | -90.7 | 141 | 6 |
| 2010-01-07T01:29 | 21517 | 43 | -66.6 | -90.7 | 135 | 4 |
| 2010-01-07T01:29 | 21552 | 43 | -66.2 | -90.6 | 124 | 3 |
| 2010-01-07T01:29 | 21589 | 42 | -66.4 | -90.7 | 113 | 2 |
| 2010-01-07T01:29 | 21623 | 42 | -66.4 | -90.7 | 107 | 2 |
| 2010-01-07T01:30 | 21656 | 42 | -66.4 | -90.8 | 110 | 2 |
| 2010-01-07T01:30 | 21692 | 42 | -66.1 | -90.7 | 110 | 3 |
| 2010-01-07T01:30 | 21726 | 41 | -65.6 | -90.4 | 108 | 5 |
| 2010-01-07T01:30 | 21760 | 41 | -65.7 | -90.5 | 105 | 6 |
| 2010-01-07T01:30 | 21793 | 41 | -65.8 | -90.6 | 102 | 7 |
| 2010-01-07T01:30 | 21829 | 41 | -65.8 | -90.6 | 100 | 8 |
| 2010-01-07T01:31 | 21864 | 41 | -65.8 | -90.5 | 100 | 10 |
| 2010-01-07T01:31 | 21899 | 40 | -66.0 | -90.8 | 101 | 11 |
| 2010-01-07T01:31 | 21936 | 40 | -65.1 | -90.3 | 102 | 12 |
| 2010-01-07T01:31 | 21971 | 40 | -64.5 | -90.0 | 100 | 13 |
| 2010-01-07T01:31 | 22008 | 40 | -64.5 | -89.9 | 97 | 13 |
| 2010-01-07T01:31 | 22044 | 39 | -64.8 | -90.1 | 94 | 14 |
| 2010-01-07T01:32 | 22083 | 39 | -64.9 | -90.2 | 94 | 14 |
| 2010-01-07T01:32 | 22117 | 39 | -65.3 | -90.4 | 93 | 15 |
| 2010-01-07T01:32 | 22155 | 39 | -65.4 | -90.4 | 90 | 16 |
| 2010-01-07T01:32 | 22193 | 38 | -65.8 | -90.8 | 86 | 16 |
| 2010-01-07T01:32 | 22228 | 38 | -66.0 | -90.9 | 84 | 17 |
| 2010-01-07T01:32 | 22263 | 38 | -66.2 | -91.1 | 82 | 17 |
| 2010-01-07T01:33 | 22297 | 38 | -66.5 | -91.2 | 81 | 18 |
| 2010-01-07T01:33 | 22329 | 38 | -66.5 | -91.1 | 81 | 18 |
| 2010-01-07T01:33 | 22360 | 37 | -66.7 | -91.4 | 80 | 18 |
| 2010-01-07T01:33 | 22394 | 37 | -67.0 | -91.3 | 80 | 18 |
| 2010-01-07T01:33 | 22428 | 37 | -67.2 | -91.5 | 79 | 17 |
| 2010-01-07T01:33 | 22457 | 37 | -67.2 | -91.5 | 80 | 17 |
| 2010-01-07T01:34 | 22490 | 37 | -67.0 | -91.6 | 81 | 17 |
| 2010-01-07T01:34 | 22524 | 36 | -67.2 | -91.7 | 83 | 17 |
| 2010-01-07T01:34 | 22558 | 36 | -67.3 | -91.7 | 86 | 17 |
| 2010-01-07T01:34 | 22591 | 36 | -67.4 | -91.8 | 89 | 17 |
| 2010-01-07T01:34 | 22625 | 36 | -67.6 | -91.8 | 91 | 17 |
| 2010-01-07T01:34 | 22658 | 36 | -67.6 | -91.8 | 92 | 17 |
| 2010-01-07T01:35 | 22692 | 35 | -67.4 | -91.7 | 92 | 18 |
| 2010-01-07T01:35 | 22725 | 35 | -67.7 | -91.8 | 92 | 18 |
| 2010-01-07T01:35 | 22758 | 35 | -67.3 | -91.7 | 93 | 19 |
| 2010-01-07T01:35 | 22793 | 35 | -66.9 | -91.4 | 95 | 19 |
| 2010-01-07T01:35 | 22827 | 35 | -66.3 | -91.1 | 97 | 20 |
| 2010-01-07T01:35 | 22860 | 34 | -66.0 | -90.9 | 99 | 20 |
| 2010-01-07T01:36 | 22892 | 34 | -66.1 | -91.0 | 100 | 20 |
| 2010-01-07T01:36 | 22926 | 34 | -66.3 | -90.9 | 101 | 20 |
| 2010-01-07T01:36 | 22959 | 34 | -66.2 | -90.9 | 101 | 20 |
| 2010-01-07T01:36 | 22992 | 34 | -65.9 | -90.8 | 100 | 20 |
| 2010-01-07T01:36 | 23025 | 33 | -65.3 | -90.5 | 99 | 20 |
| 2010-01-07T01:36 | 23058 | 33 | -65.0 | -90.3 | 99 | 20 |
| 2010-01-07T01:37 | 23092 | 33 | -64.4 | -90.0 | 100 | 20 |
| 2010-01-07T01:37 | 23124 | 33 | -64.4 | -89.8 | 100 | 21 |
| 2010-01-07T01:37 | 23159 | 33 | -63.2 | -89.4 | 99 | 22 |
| 2010-01-07T01:37 | 23191 | 33 | -62.5 | -88.9 | 98 | 23 |
| 2010-01-07T01:37 | 23225 | 32 | -62.2 | -88.7 | 97 | 24 |
| 2010-01-07T01:37 | 23259 | 32 | -62.0 | -88.3 | 96 | 25 |
| 2010-01-07T01:38 | 23293 | 32 | -62.1 | -88.5 | 95 | 26 |
| 2010-01-07T01:38 | 23326 | 32 | -61.6 | -88.2 | 92 | 26 |
| 2010-01-07T01:38 | 23361 | 32 | -61.2 | -88.0 | 90 | 27 |
| 2010-01-07T01:38 | 23393 | 32 | -61.5 | -88.1 | 89 | 27 |
| 2010-01-07T01:38 | 23425 | 31 | -61.6 | -88.2 | 87 | 28 |
| 2010-01-07T01:38 | 23455 | 31 | -61.8 | -88.1 | 86 | 28 |
| 2010-01-07T01:39 | 23486 | 31 | -62.0 | -88.3 | 86 | 28 |
| 2010-01-07T01:39 | 23517 | 31 | -62.1 | -88.3 | 85 | 29 |
| 2010-01-07T01:39 | 23549 | 31 | -62.4 | -88.5 | 84 | 29 |
| 2010-01-07T01:39 | 23578 | 31 | -62.6 | -88.6 | 83 | 29 |
| 2010-01-07T01:39 | 23611 | 30 | -62.8 | -88.7 | 83 | 29 |
| 2010-01-07T01:39 | 23640 | 30 | -63.0 | -88.9 | 83 | 29 |
| 2010-01-07T01:40 | 23670 | 30 | -63.0 | -88.9 | 83 | 29 |
| 2010-01-07T01:40 | 23703 | 30 | -62.8 | -88.8 | 83 | 28 |
| 2010-01-07T01:40 | 23738 | 30 | -62.7 | -88.8 | 84 | 27 |
| 2010-01-07T01:40 | 23772 | 30 | -62.5 | -88.6 | 85 | 26 |
| 2010-01-07T01:40 | 23809 | 29 | -62.7 | -88.7 | 86 | 25 |
| 2010-01-07T01:40 | 23846 | 29 | -62.3 | -88.4 | 87 | 24 |
| 2010-01-07T01:41 | 23880 | 29 | -61.6 | -88.2 | 88 | 23 |
| 2010-01-07T01:41 | 23912 | 29 | -61.5 | -88.1 | 90 | 23 |
| 2010-01-07T01:41 | 23950 | 29 | -61.1 | -87.9 | 92 | 22 |
| 2010-01-07T01:41 | 23986 | 29 | -60.8 | -87.7 | 94 | 22 |
| 2010-01-07T01:41 | 24021 | 28 | -60.7 | -87.6 | 95 | 22 |
| 2010-01-07T01:41 | 24055 | 28 | -60.4 | -87.3 | 94 | 23 |
| 2010-01-07T01:42 | 24092 | 28 | -60.1 | -87.2 | 93 | 23 |
| 2010-01-07T01:42 | 24126 | 28 | -59.9 | -87.1 | 92 | 24 |
| 2010-01-07T01:42 | 24161 | 28 | -59.3 | -86.8 | 91 | 25 |
| 2010-01-07T01:42 | 24197 | 28 | -58.5 | -86.2 | 90 | 26 |
| 2010-01-07T01:42 | 24231 | 28 | -58.4 | -86.2 | 90 | 26 |
| 2010-01-07T01:42 | 24264 | 27 | -58.0 | -85.8 | 90 | 26 |
| 2010-01-07T01:43 | 24300 | 27 | -57.9 | -85.8 | 90 | 26 |
| 2010-01-07T01:43 | 24334 | 27 | -57.5 | -85.5 | 90 | 26 |
| 2010-01-07T01:43 | 24369 | 27 | -57.6 | -85.4 | 89 | 26 |
| 2010-01-07T01:43 | 24402 | 27 | -57.9 | -85.6 | 89 | 26 |
| 2010-01-07T01:43 | 24439 | 27 | -58.1 | -85.7 | 89 | 26 |
| 2010-01-07T01:43 | 24470 | 27 | -58.1 | -85.7 | 88 | 25 |
| 2010-01-07T01:44 | 24505 | 26 | -58.1 | -85.7 | 87 | 25 |
| 2010-01-07T01:44 | 24537 | 26 | -58.3 | -85.8 | 86 | 26 |
| 2010-01-07T01:44 | 24575 | 26 | -58.2 | -85.8 | 86 | 26 |
| 2010-01-07T01:44 | 24607 | 26 | -58.0 | -85.7 | 84 | 26 |
| 2010-01-07T01:44 | 24640 | 26 | -58.0 | -85.6 | 83 | 26 |
| 2010-01-07T01:44 | 24673 | 26 | -57.9 | -85.6 | 82 | 26 |
| 2010-01-07T01:45 | 24705 | 26 | -57.9 | -85.6 | 81 | 25 |
| 2010-01-07T01:45 | 24738 | 25 | -58.1 | -85.6 | 81 | 25 |
| 2010-01-07T01:45 | 24772 | 25 | -58.2 | -85.6 | 80 | 25 |
| 2010-01-07T01:45 | 24804 | 25 | -58.4 | -85.8 | 80 | 25 |
| 2010-01-07T01:45 | 24836 | 25 | -58.3 | -85.7 | 82 | 24 |
| 2010-01-07T01:45 | 24871 | 25 | -58.5 | -85.8 | 84 | 25 |
| 2010-01-07T01:46 | 24905 | 25 | -58.4 | -85.8 | 87 | 25 |
| 2010-01-07T01:46 | 24941 | 25 | -58.2 | -85.8 | 89 | 26 |
| 2010-01-07T01:46 | 24974 | 24 | -58.4 | -85.8 | 90 | 26 |
| 2010-01-07T01:46 | 25012 | 24 | -58.3 | -85.8 | 92 | 27 |
| 2010-01-07T01:46 | 25049 | 24 | -58.3 | -85.8 | 92 | 27 |
| 2010-01-07T01:46 | 25087 | 24 | -58.2 | -85.8 | 93 | 26 |
| 2010-01-07T01:47 | 25121 | 24 | -58.3 | -85.7 | 93 | 26 |
| 2010-01-07T01:47 | 25160 | 24 | -58.3 | -85.8 | 93 | 26 |
| 2010-01-07T01:47 | 25196 | 24 | -57.9 | -85.5 | 94 | 27 |
| 2010-01-07T01:47 | 25237 | 23 | -58.5 | -85.8 | 95 | 27 |
| 2010-01-07T01:47 | 25273 | 23 | -58.5 | -85.9 | 95 | 28 |
| 2010-01-07T01:47 | 25311 | 23 | -58.4 | -85.8 | 94 | 30 |
| 2010-01-07T01:48 | 25348 | 23 | -58.4 | -85.9 | 93 | 31 |
| 2010-01-07T01:48 | 25384 | 23 | -58.0 | -85.7 | 92 | 32 |
| 2010-01-07T01:48 | 25420 | 23 | -57.5 | -85.4 | 91 | 32 |
| 2010-01-07T01:48 | 25456 | 23 | -57.1 | -85.1 | 90 | 32 |
| 2010-01-07T01:48 | 25493 | 23 | -56.6 | -84.9 | 89 | 32 |
| 2010-01-07T01:48 | 25525 | 22 | -56.5 | -84.8 | 89 | 32 |
| 2010-01-07T01:49 | 25559 | 22 | -56.4 | -84.8 | 89 | 31 |
| 2010-01-07T01:49 | 25594 | 22 | -56.4 | -84.8 | 89 | 31 |
| 2010-01-07T01:49 | 25628 | 22 | -56.4 | -84.7 | 89 | 31 |
| 2010-01-07T11:42 | 4 | 1006 | 25.9 | 25.6 | 0 | 0 |
| 2010-01-07T11:42 | 12 | 1005 | 26.1 | 25.6 | 309 | 1 |
| 2010-01-07T11:42 | 23 | 1004 | 26.5 | 25.6 | 307 | 2 |
| 2010-01-07T11:42 | 33 | 1003 | 26.6 | 25.5 | 309 | 2 |
| 2010-01-07T11:42 | 42 | 1002 | 26.6 | 25.3 | 310 | 2 |
| 2010-01-07T11:42 | 51 | 1001 | 26.6 | 25.3 | 311 | 3 |
| 2010-01-07T11:42 | 59 | 1000 | 26.6 | 25.1 | 311 | 3 |
| 2010-01-07T11:42 | 70 | 998 | 26.6 | 24.8 | 312 | 3 |
| 2010-01-07T11:42 | 81 | 997 | 26.7 | 24.8 | 312 | 4 |
| 2010-01-07T11:42 | 91 | 996 | 26.8 | 24.8 | 312 | 4 |
| 2010-01-07T11:42 | 101 | 995 | 26.8 | 24.8 | 312 | 4 |
| 2010-01-07T11:42 | 110 | 994 | 26.7 | 24.7 | 312 | 4 |
| 2010-01-07T11:42 | 118 | 993 | 26.7 | 24.7 | 311 | 4 |
| 2010-01-07T11:42 | 127 | 992 | 26.7 | 24.7 | 311 | 4 |
| 2010-01-07T11:42 | 135 | 991 | 26.6 | 24.7 | 310 | 4 |
| 2010-01-07T11:42 | 145 | 990 | 26.6 | 24.6 | 309 | 4 |
| 2010-01-07T11:42 | 155 | 989 | 26.5 | 24.6 | 308 | 4 |
| 2010-01-07T11:42 | 163 | 988 | 26.5 | 24.5 | 307 | 4 |
| 2010-01-07T11:42 | 171 | 987 | 26.4 | 24.5 | 307 | 4 |
| 2010-01-07T11:42 | 180 | 986 | 26.3 | 24.5 | 307 | 4 |
| 2010-01-07T11:42 | 192 | 985 | 26.2 | 24.5 | 307 | 4 |
| 2010-01-07T11:42 | 202 | 984 | 26.1 | 24.5 | 308 | 4 |
| 2010-01-07T11:42 | 211 | 983 | 26.1 | 24.4 | 309 | 4 |
| 2010-01-07T11:42 | 221 | 982 | 26.0 | 24.4 | 311 | 4 |
| 2010-01-07T11:42 | 231 | 981 | 25.9 | 24.4 | 313 | 4 |
| 2010-01-07T11:42 | 241 | 979 | 25.9 | 24.4 | 315 | 4 |
| 2010-01-07T11:42 | 250 | 978 | 25.8 | 24.3 | 316 | 4 |
| 2010-01-07T11:42 | 259 | 977 | 25.7 | 24.3 | 318 | 4 |
| 2010-01-07T11:42 | 269 | 976 | 25.7 | 24.3 | 319 | 4 |
| 2010-01-07T11:42 | 277 | 975 | 25.6 | 24.2 | 320 | 4 |
| 2010-01-07T11:43 | 289 | 974 | 25.5 | 24.2 | 321 | 4 |
| 2010-01-07T11:43 | 301 | 973 | 25.4 | 24.1 | 321 | 4 |
| 2010-01-07T11:43 | 312 | 972 | 25.3 | 24.1 | 320 | 4 |
| 2010-01-07T11:43 | 322 | 970 | 25.3 | 24.0 | 319 | 4 |
| 2010-01-07T11:43 | 333 | 969 | 25.2 | 24.0 | 317 | 4 |
| 2010-01-07T11:43 | 341 | 968 | 25.1 | 24.0 | 316 | 4 |
| 2010-01-07T11:43 | 349 | 967 | 25.0 | 23.9 | 314 | 5 |
| 2010-01-07T11:43 | 360 | 966 | 25.0 | 23.8 | 313 | 5 |
| 2010-01-07T11:43 | 370 | 965 | 24.9 | 23.8 | 312 | 5 |
| 2010-01-07T11:43 | 378 | 964 | 24.9 | 23.7 | 311 | 5 |
| 2010-01-07T11:43 | 387 | 963 | 24.8 | 23.6 | 310 | 6 |
| 2010-01-07T11:43 | 398 | 962 | 24.7 | 23.5 | 310 | 6 |
| 2010-01-07T11:43 | 410 | 961 | 24.6 | 23.3 | 309 | 6 |
| 2010-01-07T11:43 | 419 | 960 | 24.6 | 23.3 | 309 | 6 |
| 2010-01-07T11:43 | 430 | 959 | 24.5 | 23.3 | 309 | 6 |
| 2010-01-07T11:43 | 441 | 957 | 24.4 | 23.3 | 309 | 6 |
| 2010-01-07T11:43 | 451 | 956 | 24.3 | 23.1 | 309 | 7 |
| 2010-01-07T11:43 | 465 | 955 | 24.2 | 23.0 | 309 | 7 |
| 2010-01-07T11:43 | 477 | 954 | 24.2 | 22.7 | 309 | 7 |
| 2010-01-07T11:43 | 487 | 953 | 24.2 | 22.6 | 309 | 7 |
| 2010-01-07T11:43 | 497 | 951 | 24.1 | 22.5 | 309 | 7 |
| 2010-01-07T11:43 | 508 | 950 | 24.1 | 22.3 | 309 | 6 |
| 2010-01-07T11:43 | 520 | 949 | 24.0 | 22.2 | 309 | 6 |
| 2010-01-07T11:43 | 531 | 948 | 23.9 | 22.1 | 310 | 6 |
| 2010-01-07T11:43 | 541 | 947 | 23.8 | 22.0 | 310 | 6 |
| 2010-01-07T11:43 | 552 | 945 | 23.7 | 21.9 | 309 | 6 |
| 2010-01-07T11:43 | 562 | 944 | 23.6 | 21.9 | 309 | 6 |
| 2010-01-07T11:43 | 571 | 943 | 23.6 | 21.8 | 309 | 6 |
| 2010-01-07T11:43 | 579 | 943 | 23.5 | 21.8 | 309 | 6 |
| 2010-01-07T11:43 | 588 | 942 | 23.4 | 21.8 | 308 | 6 |
| 2010-01-07T11:44 | 599 | 940 | 23.3 | 21.8 | 308 | 6 |
| 2010-01-07T11:44 | 608 | 939 | 23.2 | 21.7 | 308 | 5 |
| 2010-01-07T11:44 | 617 | 938 | 23.1 | 21.6 | 308 | 5 |
| 2010-01-07T11:44 | 626 | 938 | 23.1 | 21.6 | 308 | 5 |
| 2010-01-07T11:44 | 636 | 936 | 23.0 | 21.6 | 308 | 5 |
| 2010-01-07T11:44 | 647 | 935 | 23.0 | 21.6 | 308 | 5 |
| 2010-01-07T11:44 | 657 | 934 | 22.9 | 21.5 | 308 | 5 |
| 2010-01-07T11:44 | 666 | 933 | 22.8 | 21.5 | 309 | 5 |
| 2010-01-07T11:44 | 676 | 932 | 22.7 | 21.5 | 309 | 5 |
| 2010-01-07T11:44 | 684 | 931 | 22.6 | 21.5 | 310 | 5 |
| 2010-01-07T11:44 | 695 | 930 | 22.5 | 21.4 | 311 | 5 |
| 2010-01-07T11:44 | 708 | 929 | 22.5 | 21.4 | 312 | 5 |
| 2010-01-07T11:44 | 719 | 928 | 22.4 | 21.4 | 313 | 5 |
| 2010-01-07T11:44 | 729 | 927 | 22.3 | 21.3 | 314 | 5 |
| 2010-01-07T11:44 | 738 | 926 | 22.2 | 21.2 | 315 | 6 |
| 2010-01-07T11:44 | 747 | 925 | 22.2 | 21.0 | 316 | 6 |
| 2010-01-07T11:44 | 757 | 924 | 22.2 | 20.7 | 317 | 6 |
| 2010-01-07T11:44 | 766 | 923 | 22.1 | 20.6 | 318 | 6 |
| 2010-01-07T11:44 | 775 | 922 | 22.1 | 20.7 | 318 | 6 |
| 2010-01-07T11:44 | 784 | 921 | 22.0 | 20.7 | 319 | 6 |
| 2010-01-07T11:44 | 793 | 920 | 22.0 | 20.6 | 320 | 6 |
| 2010-01-07T11:44 | 800 | 919 | 21.9 | 20.6 | 321 | 6 |
| 2010-01-07T11:44 | 807 | 918 | 21.9 | 20.7 | 321 | 6 |
| 2010-01-07T11:44 | 816 | 917 | 21.8 | 20.8 | 321 | 5 |
| 2010-01-07T11:44 | 827 | 916 | 21.7 | 20.8 | 321 | 5 |
| 2010-01-07T11:44 | 838 | 915 | 21.6 | 20.8 | 321 | 5 |
| 2010-01-07T11:44 | 849 | 914 | 21.5 | 20.7 | 321 | 5 |
| 2010-01-07T11:44 | 858 | 913 | 21.4 | 20.7 | 320 | 5 |
| 2010-01-07T11:44 | 867 | 912 | 21.4 | 20.6 | 320 | 5 |
| 2010-01-07T11:44 | 877 | 911 | 21.4 | 20.4 | 319 | 5 |
| 2010-01-07T11:45 | 887 | 910 | 21.4 | 20.1 | 318 | 5 |
| 2010-01-07T11:45 | 897 | 909 | 21.3 | 20.0 | 316 | 5 |
| 2010-01-07T11:45 | 907 | 908 | 21.3 | 19.9 | 315 | 5 |
| 2010-01-07T11:45 | 917 | 907 | 21.2 | 19.7 | 314 | 5 |
| 2010-01-07T11:45 | 926 | 906 | 21.1 | 19.6 | 313 | 5 |
| 2010-01-07T11:45 | 936 | 905 | 21.1 | 19.6 | 312 | 5 |
| 2010-01-07T11:45 | 945 | 904 | 21.0 | 19.6 | 312 | 5 |
| 2010-01-07T11:45 | 954 | 903 | 20.9 | 19.5 | 311 | 5 |
| 2010-01-07T11:45 | 963 | 902 | 20.9 | 19.5 | 310 | 5 |
| 2010-01-07T11:45 | 971 | 901 | 20.8 | 19.5 | 310 | 5 |
| 2010-01-07T11:45 | 979 | 900 | 20.8 | 19.5 | 309 | 5 |
| 2010-01-07T11:45 | 988 | 899 | 20.7 | 19.4 | 308 | 5 |
| 2010-01-07T11:45 | 996 | 899 | 20.7 | 19.4 | 308 | 5 |
| 2010-01-07T11:45 | 1006 | 898 | 20.7 | 19.3 | 308 | 5 |
| 2010-01-07T11:45 | 1016 | 897 | 20.6 | 19.3 | 307 | 5 |
| 2010-01-07T11:45 | 1025 | 896 | 20.5 | 19.3 | 307 | 5 |
| 2010-01-07T11:45 | 1035 | 895 | 20.4 | 19.4 | 307 | 5 |
| 2010-01-07T11:45 | 1045 | 894 | 20.4 | 19.3 | 307 | 5 |
| 2010-01-07T11:45 | 1056 | 892 | 20.3 | 19.3 | 307 | 5 |
| 2010-01-07T11:45 | 1066 | 891 | 20.2 | 19.3 | 307 | 5 |
| 2010-01-07T11:45 | 1076 | 890 | 20.1 | 19.3 | 307 | 5 |
| 2010-01-07T11:45 | 1085 | 889 | 20.1 | 19.3 | 307 | 5 |
| 2010-01-07T11:45 | 1094 | 888 | 20.0 | 19.3 | 307 | 5 |
| 2010-01-07T11:45 | 1104 | 887 | 19.9 | 19.3 | 308 | 5 |
| 2010-01-07T11:45 | 1115 | 886 | 19.9 | 19.3 | 308 | 5 |
| 2010-01-07T11:45 | 1127 | 885 | 19.8 | 19.2 | 308 | 4 |
| 2010-01-07T11:45 | 1136 | 884 | 19.8 | 19.1 | 308 | 4 |
| 2010-01-07T11:45 | 1145 | 883 | 19.8 | 19.0 | 307 | 4 |
| 2010-01-07T11:45 | 1154 | 882 | 19.7 | 19.0 | 307 | 4 |
| 2010-01-07T11:45 | 1162 | 882 | 19.6 | 19.0 | 307 | 4 |
| 2010-01-07T11:46 | 1169 | 881 | 19.6 | 19.0 | 306 | 4 |
| 2010-01-07T11:46 | 1178 | 880 | 19.6 | 19.0 | 306 | 4 |
| 2010-01-07T11:46 | 1186 | 879 | 19.5 | 18.9 | 306 | 4 |
| 2010-01-07T11:46 | 1195 | 878 | 19.4 | 18.9 | 305 | 4 |
| 2010-01-07T11:46 | 1205 | 877 | 19.4 | 18.8 | 305 | 4 |
| 2010-01-07T11:46 | 1214 | 876 | 19.3 | 18.8 | 305 | 4 |
| 2010-01-07T11:46 | 1223 | 875 | 19.2 | 18.7 | 305 | 4 |
| 2010-01-07T11:46 | 1233 | 874 | 19.1 | 18.7 | 305 | 4 |
| 2010-01-07T11:46 | 1243 | 873 | 19.1 | 18.6 | 305 | 4 |
| 2010-01-07T11:46 | 1253 | 872 | 19.1 | 18.6 | 304 | 4 |
| 2010-01-07T11:46 | 1262 | 871 | 19.0 | 18.5 | 304 | 4 |
| 2010-01-07T11:46 | 1271 | 871 | 19.0 | 18.4 | 303 | 4 |
| 2010-01-07T11:46 | 1280 | 870 | 18.9 | 18.4 | 302 | 4 |
| 2010-01-07T11:46 | 1288 | 869 | 18.9 | 18.3 | 300 | 4 |
| 2010-01-07T11:46 | 1296 | 868 | 18.8 | 18.3 | 298 | 4 |
| 2010-01-07T11:46 | 1305 | 867 | 18.8 | 18.1 | 297 | 4 |
| 2010-01-07T11:46 | 1315 | 866 | 18.8 | 18.0 | 295 | 4 |
| 2010-01-07T11:46 | 1326 | 865 | 18.7 | 17.9 | 293 | 4 |
| 2010-01-07T11:46 | 1337 | 864 | 18.6 | 17.8 | 291 | 4 |
| 2010-01-07T11:46 | 1348 | 863 | 18.5 | 17.8 | 289 | 4 |
| 2010-01-07T11:46 | 1357 | 862 | 18.5 | 17.8 | 288 | 4 |
| 2010-01-07T11:46 | 1364 | 861 | 18.5 | 17.7 | 287 | 4 |
| 2010-01-07T11:46 | 1372 | 860 | 18.4 | 17.7 | 286 | 4 |
| 2010-01-07T11:46 | 1380 | 860 | 18.4 | 17.5 | 285 | 4 |
| 2010-01-07T11:46 | 1388 | 859 | 18.3 | 17.4 | 285 | 4 |
| 2010-01-07T11:46 | 1398 | 858 | 18.3 | 17.3 | 286 | 4 |
| 2010-01-07T11:46 | 1409 | 857 | 18.2 | 17.3 | 286 | 4 |
| 2010-01-07T11:46 | 1417 | 856 | 18.2 | 17.4 | 287 | 4 |
| 2010-01-07T11:46 | 1424 | 855 | 18.1 | 17.3 | 288 | 4 |
| 2010-01-07T11:46 | 1433 | 854 | 18.1 | 17.2 | 290 | 4 |
| 2010-01-07T11:47 | 1443 | 853 | 18.2 | 17.1 | 292 | 4 |
| 2010-01-07T11:47 | 1455 | 852 | 18.2 | 17.0 | 293 | 4 |
| 2010-01-07T11:47 | 1469 | 851 | 18.1 | 16.9 | 295 | 4 |
| 2010-01-07T11:47 | 1483 | 849 | 18.1 | 16.8 | 298 | 4 |
| 2010-01-07T11:47 | 1493 | 848 | 18.0 | 16.8 | 300 | 4 |
| 2010-01-07T11:47 | 1501 | 848 | 17.9 | 16.8 | 301 | 4 |
| 2010-01-07T11:47 | 1510 | 847 | 17.9 | 16.9 | 303 | 5 |
| 2010-01-07T11:47 | 1519 | 846 | 17.8 | 17.0 | 305 | 5 |
| 2010-01-07T11:47 | 1529 | 845 | 17.8 | 17.1 | 306 | 5 |
| 2010-01-07T11:47 | 1538 | 844 | 17.7 | 17.1 | 308 | 5 |
| 2010-01-07T11:47 | 1547 | 843 | 17.7 | 17.0 | 309 | 5 |
| 2010-01-07T11:47 | 1556 | 842 | 17.7 | 16.8 | 309 | 4 |
| 2010-01-07T11:47 | 1565 | 841 | 17.7 | 16.8 | 310 | 4 |
| 2010-01-07T11:47 | 1574 | 840 | 17.7 | 16.8 | 311 | 4 |
| 2010-01-07T11:47 | 1580 | 840 | 17.6 | 16.9 | 311 | 4 |
| 2010-01-07T11:47 | 1587 | 839 | 17.5 | 16.8 | 312 | 4 |
| 2010-01-07T11:47 | 1595 | 838 | 17.5 | 16.8 | 312 | 4 |
| 2010-01-07T11:47 | 1603 | 838 | 17.4 | 16.8 | 312 | 4 |
| 2010-01-07T11:47 | 1612 | 837 | 17.4 | 16.7 | 313 | 4 |
| 2010-01-07T11:47 | 1622 | 836 | 17.4 | 16.7 | 313 | 4 |
| 2010-01-07T11:47 | 1632 | 835 | 17.4 | 16.6 | 314 | 4 |
| 2010-01-07T11:47 | 1641 | 834 | 17.4 | 16.5 | 314 | 3 |
| 2010-01-07T11:47 | 1651 | 833 | 17.3 | 16.3 | 315 | 3 |
| 2010-01-07T11:47 | 1661 | 832 | 17.3 | 16.4 | 316 | 3 |
| 2010-01-07T11:47 | 1671 | 831 | 17.2 | 16.3 | 317 | 3 |
| 2010-01-07T11:47 | 1682 | 830 | 17.3 | 16.2 | 318 | 3 |
| 2010-01-07T11:47 | 1693 | 829 | 17.4 | 16.2 | 319 | 3 |
| 2010-01-07T11:47 | 1703 | 828 | 17.4 | 16.1 | 320 | 3 |
| 2010-01-07T11:47 | 1712 | 827 | 17.4 | 16.0 | 321 | 3 |
| 2010-01-07T11:47 | 1721 | 826 | 17.3 | 15.9 | 322 | 3 |
| 2010-01-07T11:48 | 1728 | 825 | 17.3 | 15.8 | 323 | 3 |
| 2010-01-07T11:48 | 1736 | 825 | 17.2 | 15.8 | 323 | 3 |
| 2010-01-07T11:48 | 1744 | 824 | 17.1 | 15.8 | 324 | 3 |
| 2010-01-07T11:48 | 1752 | 823 | 17.1 | 15.8 | 325 | 3 |
| 2010-01-07T11:48 | 1761 | 822 | 17.0 | 15.8 | 325 | 3 |
| 2010-01-07T11:48 | 1772 | 821 | 16.9 | 15.7 | 326 | 3 |
| 2010-01-07T11:48 | 1782 | 820 | 16.8 | 15.8 | 326 | 3 |
| 2010-01-07T11:48 | 1792 | 819 | 16.9 | 16.0 | 327 | 3 |
| 2010-01-07T11:48 | 1802 | 818 | 16.9 | 16.2 | 328 | 3 |
| 2010-01-07T11:48 | 1811 | 818 | 16.9 | 16.1 | 330 | 3 |
| 2010-01-07T11:48 | 1818 | 817 | 16.9 | 16.1 | 332 | 3 |
| 2010-01-07T11:48 | 1825 | 816 | 16.9 | 16.0 | 335 | 3 |
| 2010-01-07T11:48 | 1832 | 815 | 17.0 | 15.9 | 338 | 3 |
| 2010-01-07T11:48 | 1839 | 815 | 17.1 | 15.8 | 341 | 3 |
| 2010-01-07T11:48 | 1848 | 814 | 17.1 | 15.6 | 344 | 3 |
| 2010-01-07T11:48 | 1859 | 813 | 17.1 | 15.4 | 347 | 3 |
| 2010-01-07T11:48 | 1871 | 812 | 17.0 | 15.4 | 351 | 3 |
| 2010-01-07T11:48 | 1882 | 811 | 17.0 | 15.3 | 354 | 3 |
| 2010-01-07T11:48 | 1893 | 810 | 17.0 | 15.3 | 356 | 3 |
| 2010-01-07T11:48 | 1904 | 809 | 16.9 | 15.1 | 358 | 3 |
| 2010-01-07T11:48 | 1914 | 808 | 16.8 | 15.0 | 359 | 3 |
| 2010-01-07T11:48 | 1924 | 807 | 16.9 | 14.9 | 360 | 3 |
| 2010-01-07T11:48 | 1933 | 806 | 16.8 | 14.9 | 0 | 3 |
| 2010-01-07T11:48 | 1941 | 805 | 16.8 | 14.9 | 360 | 3 |
| 2010-01-07T11:48 | 1951 | 804 | 16.7 | 14.8 | 359 | 4 |
| 2010-01-07T11:48 | 1961 | 803 | 16.7 | 14.8 | 358 | 4 |
| 2010-01-07T11:48 | 1973 | 802 | 16.6 | 14.7 | 357 | 4 |
| 2010-01-07T11:48 | 1984 | 801 | 16.6 | 14.5 | 356 | 4 |
| 2010-01-07T11:48 | 1995 | 800 | 16.6 | 14.3 | 354 | 4 |
| 2010-01-07T11:49 | 2014 | 798 | 16.5 | 14.0 | 352 | 4 |
| 2010-01-07T11:49 | 2066 | 794 | 16.2 | 14.0 | 352 | 4 |
| 2010-01-07T11:49 | 2107 | 790 | 15.9 | 14.0 | 358 | 4 |
| 2010-01-07T11:49 | 2151 | 786 | 15.8 | 14.1 | 5 | 4 |
| 2010-01-07T11:49 | 2204 | 781 | 15.7 | 12.6 | 8 | 4 |
| 2010-01-07T11:49 | 2245 | 777 | 15.6 | 12.2 | 3 | 4 |
| 2010-01-07T11:50 | 2289 | 773 | 15.4 | 11.8 | 355 | 3 |
| 2010-01-07T11:50 | 2334 | 769 | 15.1 | 11.6 | 353 | 3 |
| 2010-01-07T11:50 | 2384 | 764 | 14.7 | 12.2 | 2 | 3 |
| 2010-01-07T11:50 | 2436 | 760 | 14.7 | 11.9 | 10 | 4 |
| 2010-01-07T11:50 | 2482 | 756 | 14.6 | 11.6 | 14 | 5 |
| 2010-01-07T11:50 | 2543 | 750 | 14.1 | 11.1 | 11 | 5 |
| 2010-01-07T11:51 | 2596 | 745 | 13.8 | 11.6 | 359 | 4 |
| 2010-01-07T11:51 | 2651 | 741 | 13.3 | 11.5 | 345 | 4 |
| 2010-01-07T11:51 | 2706 | 736 | 13.1 | 10.1 | 344 | 4 |
| 2010-01-07T11:51 | 2751 | 732 | 12.8 | 10.2 | 348 | 3 |
| 2010-01-07T11:51 | 2796 | 728 | 12.4 | 10.6 | 346 | 3 |
| 2010-01-07T11:51 | 2838 | 724 | 12.1 | 11.0 | 345 | 3 |
| 2010-01-07T11:52 | 2881 | 721 | 11.9 | 9.8 | 346 | 4 |
| 2010-01-07T11:52 | 2922 | 717 | 11.8 | 8.9 | 346 | 3 |
| 2010-01-07T11:52 | 2961 | 714 | 11.5 | 8.3 | 345 | 3 |
| 2010-01-07T11:52 | 3002 | 710 | 11.2 | 8.5 | 345 | 3 |
| 2010-01-07T11:52 | 3043 | 707 | 11.0 | 8.2 | 346 | 3 |
| 2010-01-07T11:52 | 3084 | 703 | 10.7 | 7.9 | 349 | 3 |
| 2010-01-07T11:53 | 3122 | 700 | 10.6 | 8.0 | 356 | 3 |
| 2010-01-07T11:53 | 3172 | 696 | 10.4 | 8.1 | 6 | 2 |
| 2010-01-07T11:53 | 3222 | 692 | 10.1 | 7.8 | 10 | 2 |
| 2010-01-07T11:53 | 3264 | 688 | 10.0 | 7.4 | 5 | 2 |
| 2010-01-07T11:53 | 3303 | 685 | 9.8 | 6.6 | 1 | 2 |
| 2010-01-07T11:53 | 3342 | 682 | 9.5 | 6.7 | 1 | 2 |
| 2010-01-07T11:54 | 3379 | 679 | 9.3 | 6.7 | 1 | 2 |
| 2010-01-07T11:54 | 3419 | 676 | 9.0 | 6.2 | 0 | 2 |
| 2010-01-07T11:54 | 3460 | 672 | 8.7 | 6.4 | 360 | 3 |
| 2010-01-07T11:54 | 3500 | 669 | 8.5 | 6.3 | 358 | 3 |
| 2010-01-07T11:54 | 3538 | 666 | 8.5 | 6.0 | 353 | 3 |
| 2010-01-07T11:54 | 3581 | 663 | 8.3 | 5.6 | 347 | 3 |
| 2010-01-07T11:55 | 3624 | 659 | 8.0 | 5.3 | 342 | 3 |
| 2010-01-07T11:55 | 3664 | 656 | 7.7 | 4.9 | 338 | 3 |
| 2010-01-07T11:55 | 3702 | 653 | 7.4 | 4.8 | 336 | 3 |
| 2010-01-07T11:55 | 3740 | 650 | 7.2 | 4.8 | 335 | 3 |
| 2010-01-07T11:55 | 3781 | 647 | 7.0 | 4.7 | 336 | 2 |
| 2010-01-07T11:55 | 3823 | 644 | 6.7 | 4.3 | 339 | 2 |
| 2010-01-07T11:56 | 3860 | 641 | 6.4 | 3.7 | 339 | 2 |
| 2010-01-07T11:56 | 3897 | 638 | 6.4 | 3.7 | 336 | 2 |
| 2010-01-07T11:56 | 3935 | 635 | 6.2 | 3.5 | 335 | 2 |
| 2010-01-07T11:56 | 3973 | 632 | 6.0 | 3.3 | 339 | 2 |
| 2010-01-07T11:56 | 4008 | 629 | 5.8 | 3.2 | 344 | 2 |
| 2010-01-07T11:56 | 4044 | 626 | 5.6 | 3.0 | 349 | 2 |
| 2010-01-07T11:57 | 4081 | 624 | 5.2 | 3.1 | 353 | 2 |
| 2010-01-07T11:57 | 4119 | 621 | 5.1 | 2.4 | 360 | 2 |
| 2010-01-07T11:57 | 4154 | 618 | 4.9 | 2.2 | 2 | 1 |
| 2010-01-07T11:57 | 4191 | 615 | 4.6 | 2.4 | 2 | 2 |
| 2010-01-07T11:57 | 4224 | 613 | 4.4 | 2.3 | 4 | 2 |
| 2010-01-07T11:57 | 4259 | 610 | 4.2 | 1.6 | 4 | 2 |
| 2010-01-07T11:58 | 4296 | 607 | 4.0 | 2.5 | 1 | 3 |
| 2010-01-07T11:58 | 4333 | 605 | 3.9 | 2.2 | 358 | 3 |
| 2010-01-07T11:58 | 4368 | 602 | 3.7 | 2.0 | 357 | 3 |
| 2010-01-07T11:58 | 4403 | 600 | 3.4 | 2.1 | 358 | 3 |
| 2010-01-07T11:58 | 4439 | 597 | 3.3 | 1.9 | 3 | 4 |
| 2010-01-07T11:58 | 4476 | 594 | 3.6 | 0.9 | 7 | 4 |
| 2010-01-07T11:59 | 4510 | 592 | 3.7 | 0.9 | 6 | 4 |
| 2010-01-07T11:59 | 4545 | 589 | 3.9 | 0.7 | 4 | 4 |
| 2010-01-07T11:59 | 4579 | 587 | 3.7 | 0.4 | 4 | 4 |
| 2010-01-07T11:59 | 4614 | 584 | 3.5 | 0.3 | 3 | 4 |
| 2010-01-07T11:59 | 4650 | 582 | 3.2 | -0.1 | 2 | 4 |
| 2010-01-07T11:59 | 4689 | 579 | 2.8 | 0.0 | 4 | 4 |
| 2010-01-07T12:00 | 4726 | 576 | 2.5 | 0.0 | 6 | 4 |
| 2010-01-07T12:00 | 4767 | 573 | 2.1 | -0.1 | 6 | 4 |
| 2010-01-07T12:00 | 4807 | 570 | 1.7 | -0.2 | 8 | 3 |
| 2010-01-07T12:00 | 4855 | 567 | 1.5 | -0.3 | 12 | 3 |
| 2010-01-07T12:00 | 4903 | 564 | 1.1 | -0.6 | 22 | 4 |
| 2010-01-07T12:00 | 4950 | 560 | 0.7 | -0.6 | 33 | 4 |
| 2010-01-07T12:01 | 5004 | 557 | 0.2 | -0.8 | 36 | 5 |
| 2010-01-07T12:01 | 5044 | 554 | -0.2 | -0.8 | 33 | 5 |
| 2010-01-07T12:01 | 5083 | 551 | -0.3 | -0.9 | 28 | 5 |
| 2010-01-07T12:01 | 5122 | 549 | -0.5 | -1.4 | 29 | 5 |
| 2010-01-07T12:01 | 5162 | 546 | -0.7 | -1.2 | 35 | 5 |
| 2010-01-07T12:01 | 5204 | 543 | -0.7 | -1.5 | 40 | 5 |
| 2010-01-07T12:02 | 5249 | 540 | -1.0 | -1.9 | 43 | 5 |
| 2010-01-07T12:02 | 5288 | 537 | -1.3 | -2.0 | 46 | 5 |
| 2010-01-07T12:02 | 5328 | 535 | -1.2 | -2.4 | 50 | 6 |
| 2010-01-07T12:02 | 5365 | 532 | -1.4 | -3.1 | 53 | 5 |
| 2010-01-07T12:02 | 5402 | 530 | -1.5 | -3.3 | 54 | 5 |
| 2010-01-07T12:02 | 5440 | 527 | -1.6 | -3.8 | 55 | 5 |
| 2010-01-07T12:03 | 5477 | 525 | -1.8 | -3.5 | 55 | 5 |
| 2010-01-07T12:03 | 5514 | 522 | -2.1 | -3.5 | 54 | 5 |
| 2010-01-07T12:03 | 5551 | 520 | -2.3 | -3.7 | 52 | 4 |
| 2010-01-07T12:03 | 5589 | 517 | -2.3 | -4.2 | 50 | 5 |
| 2010-01-07T12:03 | 5631 | 515 | -2.4 | -5.5 | 53 | 5 |
| 2010-01-07T12:03 | 5674 | 512 | -2.7 | -6.2 | 57 | 5 |
| 2010-01-07T12:04 | 5714 | 509 | -3.0 | -6.6 | 59 | 5 |
| 2010-01-07T12:04 | 5752 | 507 | -3.3 | -6.3 | 60 | 5 |
| 2010-01-07T12:04 | 5791 | 504 | -3.5 | -6.3 | 62 | 5 |
| 2010-01-07T12:04 | 5830 | 502 | -3.8 | -6.6 | 64 | 5 |
| 2010-01-07T12:04 | 5867 | 500 | -4.1 | -6.8 | 68 | 5 |
| 2010-01-07T12:04 | 5909 | 497 | -4.5 | -6.6 | 73 | 5 |
| 2010-01-07T12:05 | 5951 | 494 | -4.6 | -6.4 | 76 | 5 |
| 2010-01-07T12:05 | 5992 | 492 | -4.9 | -6.9 | 74 | 5 |
| 2010-01-07T12:05 | 6041 | 489 | -5.0 | -7.0 | 73 | 5 |
| 2010-01-07T12:05 | 6093 | 485 | -5.2 | -7.2 | 75 | 5 |
| 2010-01-07T12:05 | 6146 | 482 | -5.2 | -7.9 | 78 | 5 |
| 2010-01-07T12:05 | 6194 | 479 | -5.1 | -8.5 | 81 | 5 |
| 2010-01-07T12:06 | 6250 | 476 | -5.3 | -9.1 | 82 | 5 |
| 2010-01-07T12:06 | 6307 | 472 | -5.7 | -9.5 | 82 | 5 |
| 2010-01-07T12:06 | 6357 | 469 | -5.9 | -9.9 | 81 | 5 |
| 2010-01-07T12:06 | 6410 | 466 | -6.4 | -9.6 | 79 | 5 |
| 2010-01-07T12:06 | 6463 | 463 | -6.6 | -9.4 | 75 | 4 |
| 2010-01-07T12:06 | 6518 | 460 | -7.1 | -9.5 | 74 | 4 |
| 2010-01-07T12:07 | 6571 | 457 | -7.4 | -9.8 | 72 | 4 |
| 2010-01-07T12:07 | 6622 | 454 | -7.7 | -10.0 | 69 | 4 |
| 2010-01-07T12:07 | 6675 | 451 | -7.9 | -10.4 | 70 | 5 |
| 2010-01-07T12:07 | 6728 | 448 | -8.4 | -10.7 | 75 | 5 |
| 2010-01-07T12:07 | 6782 | 444 | -8.8 | -11.1 | 80 | 4 |
| 2010-01-07T12:07 | 6834 | 442 | -9.2 | -11.2 | 84 | 4 |
| 2010-01-07T12:08 | 6888 | 438 | -9.6 | -11.4 | 84 | 4 |
| 2010-01-07T12:08 | 6936 | 436 | -9.9 | -11.7 | 86 | 4 |
| 2010-01-07T12:08 | 6991 | 433 | -10.2 | -11.8 | 93 | 4 |
| 2010-01-07T12:08 | 7046 | 430 | -10.4 | -12.0 | 101 | 3 |
| 2010-01-07T12:08 | 7099 | 427 | -10.7 | -12.3 | 106 | 3 |
| 2010-01-07T12:08 | 7158 | 423 | -11.0 | -12.7 | 110 | 4 |
| 2010-01-07T12:09 | 7218 | 420 | -11.4 | -13.0 | 114 | 4 |
| 2010-01-07T12:09 | 7276 | 417 | -11.8 | -13.4 | 112 | 3 |
| 2010-01-07T12:09 | 7334 | 414 | -12.1 | -13.7 | 106 | 3 |
| 2010-01-07T12:09 | 7395 | 410 | -12.4 | -14.1 | 104 | 2 |
| 2010-01-07T12:09 | 7454 | 407 | -12.8 | -14.4 | 102 | 1 |
| 2010-01-07T12:09 | 7513 | 404 | -13.1 | -14.8 | 81 | 1 |
| 2010-01-07T12:10 | 7574 | 401 | -13.6 | -15.1 | 49 | 1 |
| 2010-01-07T12:10 | 7631 | 398 | -13.9 | -15.7 | 33 | 1 |
| 2010-01-07T12:10 | 7697 | 395 | -14.4 | -15.9 | 25 | 1 |
| 2010-01-07T12:10 | 7757 | 391 | -14.8 | -16.1 | 26 | 1 |
| 2010-01-07T12:10 | 7818 | 388 | -15.1 | -16.6 | 34 | 1 |
| 2010-01-07T12:10 | 7876 | 385 | -15.5 | -16.9 | 47 | 1 |
| 2010-01-07T12:11 | 7941 | 382 | -15.9 | -17.3 | 64 | 1 |
| 2010-01-07T12:11 | 8000 | 379 | -16.3 | -17.8 | 77 | 1 |
| 2010-01-07T12:11 | 8062 | 376 | -16.7 | -18.1 | 77 | 1 |
| 2010-01-07T12:11 | 8118 | 373 | -17.0 | -18.5 | 69 | 1 |
| 2010-01-07T12:11 | 8179 | 370 | -17.4 | -18.8 | 70 | 1 |
| 2010-01-07T12:11 | 8237 | 367 | -17.8 | -19.3 | 67 | 1 |
| 2010-01-07T12:12 | 8293 | 364 | -18.2 | -19.7 | 55 | 1 |
| 2010-01-07T12:12 | 8361 | 361 | -18.6 | -20.5 | 55 | 1 |
| 2010-01-07T12:12 | 8423 | 358 | -19.0 | -20.9 | 80 | 1 |
| 2010-01-07T12:12 | 8480 | 355 | -19.4 | -21.3 | 101 | 1 |
| 2010-01-07T12:12 | 8538 | 353 | -19.8 | -21.6 | 104 | 1 |
| 2010-01-07T12:12 | 8600 | 350 | -20.2 | -22.0 | 103 | 1 |
| 2010-01-07T12:13 | 8654 | 347 | -20.5 | -22.5 | 107 | 1 |
| 2010-01-07T12:13 | 8717 | 344 | -21.0 | -22.9 | 104 | 2 |
| 2010-01-07T12:13 | 8771 | 342 | -21.4 | -23.4 | 97 | 1 |
| 2010-01-07T12:13 | 8828 | 339 | -21.8 | -23.7 | 101 | 1 |
| 2010-01-07T12:13 | 8884 | 337 | -22.2 | -24.1 | 115 | 1 |
| 2010-01-07T12:13 | 8948 | 334 | -22.6 | -24.5 | 121 | 1 |
| 2010-01-07T12:14 | 9012 | 331 | -23.1 | -24.9 | 113 | 1 |
| 2010-01-07T12:14 | 9072 | 328 | -23.6 | -25.4 | 101 | 1 |
| 2010-01-07T12:14 | 9133 | 325 | -24.0 | -25.8 | 102 | 0 |
| 2010-01-07T12:14 | 9196 | 323 | -24.4 | -26.2 | 151 | 0 |
| 2010-01-07T12:14 | 9260 | 320 | -24.9 | -26.6 | 177 | 0 |
| 2010-01-07T12:14 | 9316 | 317 | -25.3 | -27.1 | 159 | 1 |
| 2010-01-07T12:15 | 9378 | 315 | -25.7 | -27.6 | 140 | 0 |
| 2010-01-07T12:15 | 9434 | 312 | -26.2 | -28.1 | 154 | 0 |
| 2010-01-07T12:15 | 9486 | 310 | -26.5 | -28.5 | 177 | 1 |
| 2010-01-07T12:15 | 9534 | 308 | -26.9 | -28.6 | 185 | 1 |
| 2010-01-07T12:15 | 9581 | 306 | -27.3 | -29.0 | 189 | 1 |
| 2010-01-07T12:15 | 9625 | 304 | -27.6 | -29.3 | 186 | 1 |
| 2010-01-07T12:16 | 9671 | 302 | -27.9 | -29.8 | 169 | 1 |
| 2010-01-07T12:16 | 9714 | 300 | -28.3 | -30.3 | 152 | 1 |
| 2010-01-07T12:16 | 9758 | 298 | -28.6 | -30.7 | 153 | 1 |
| 2010-01-07T12:16 | 9802 | 297 | -29.0 | -31.4 | 169 | 1 |
| 2010-01-07T12:16 | 9845 | 295 | -29.3 | -31.6 | 187 | 1 |
| 2010-01-07T12:16 | 9888 | 293 | -29.7 | -32.6 | 193 | 1 |
| 2010-01-07T12:17 | 9932 | 291 | -30.1 | -33.0 | 196 | 1 |
| 2010-01-07T12:17 | 9974 | 289 | -30.4 | -33.3 | 201 | 1 |
| 2010-01-07T12:17 | 10021 | 288 | -30.8 | -33.9 | 206 | 2 |
| 2010-01-07T12:17 | 10064 | 286 | -31.2 | -34.1 | 208 | 2 |
| 2010-01-07T12:17 | 10107 | 284 | -31.6 | -34.7 | 208 | 2 |
| 2010-01-07T12:17 | 10151 | 282 | -31.9 | -35.0 | 208 | 2 |
| 2010-01-07T12:18 | 10196 | 281 | -32.3 | -35.3 | 208 | 2 |
| 2010-01-07T12:18 | 10239 | 279 | -32.7 | -35.5 | 207 | 2 |
| 2010-01-07T12:18 | 10282 | 277 | -33.0 | -35.9 | 205 | 2 |
| 2010-01-07T12:18 | 10324 | 275 | -33.4 | -36.3 | 203 | 2 |
| 2010-01-07T12:18 | 10367 | 274 | -33.7 | -36.7 | 198 | 2 |
| 2010-01-07T12:18 | 10411 | 272 | -34.1 | -37.5 | 193 | 2 |
| 2010-01-07T12:19 | 10454 | 270 | -34.5 | -37.7 | 187 | 2 |
| 2010-01-07T12:19 | 10498 | 269 | -34.8 | -37.9 | 180 | 2 |
| 2010-01-07T12:19 | 10541 | 267 | -35.2 | -38.3 | 177 | 2 |
| 2010-01-07T12:19 | 10583 | 265 | -35.6 | -38.6 | 179 | 2 |
| 2010-01-07T12:19 | 10625 | 264 | -36.0 | -39.2 | 183 | 2 |
| 2010-01-07T12:19 | 10670 | 262 | -36.3 | -39.6 | 186 | 2 |
| 2010-01-07T12:20 | 10712 | 261 | -36.7 | -40.2 | 188 | 3 |
| 2010-01-07T12:20 | 10754 | 259 | -37.1 | -40.4 | 188 | 3 |
| 2010-01-07T12:20 | 10797 | 257 | -37.4 | -40.8 | 188 | 3 |
| 2010-01-07T12:20 | 10840 | 256 | -37.8 | -41.1 | 188 | 2 |
| 2010-01-07T12:20 | 10882 | 254 | -38.2 | -41.5 | 189 | 2 |
| 2010-01-07T12:20 | 10924 | 253 | -38.5 | -41.9 | 191 | 2 |
| 2010-01-07T12:21 | 10966 | 251 | -38.9 | -42.3 | 193 | 2 |
| 2010-01-07T12:21 | 11009 | 250 | -39.2 | -43.2 | 195 | 2 |
| 2010-01-07T12:21 | 11051 | 248 | -39.6 | -43.4 | 194 | 2 |
| 2010-01-07T12:21 | 11092 | 247 | -40.0 | -44.0 | 195 | 1 |
| 2010-01-07T12:21 | 11134 | 245 | -40.3 | -44.4 | 199 | 1 |
| 2010-01-07T12:21 | 11178 | 243 | -40.7 | -44.9 | 202 | 2 |
| 2010-01-07T12:22 | 11219 | 242 | -41.1 | -45.5 | 204 | 2 |
| 2010-01-07T12:22 | 11261 | 241 | -41.5 | -46.0 | 205 | 2 |
| 2010-01-07T12:22 | 11302 | 239 | -41.9 | -46.3 | 206 | 2 |
| 2010-01-07T12:22 | 11344 | 238 | -42.3 | -46.8 | 210 | 2 |
| 2010-01-07T12:22 | 11387 | 236 | -42.7 | -47.1 | 214 | 1 |
| 2010-01-07T12:22 | 11429 | 235 | -43.0 | -47.3 | 215 | 1 |
| 2010-01-07T12:23 | 11470 | 233 | -43.4 | -47.6 | 214 | 1 |
| 2010-01-07T12:23 | 11510 | 232 | -43.7 | -48.1 | 213 | 1 |
| 2010-01-07T12:23 | 11549 | 230 | -44.1 | -48.8 | 214 | 2 |
| 2010-01-07T12:23 | 11590 | 229 | -44.5 | -49.2 | 215 | 2 |
| 2010-01-07T12:23 | 11630 | 228 | -44.8 | -49.5 | 213 | 1 |
| 2010-01-07T12:23 | 11670 | 226 | -45.2 | -50.1 | 209 | 1 |
| 2010-01-07T12:24 | 11710 | 225 | -45.5 | -50.9 | 205 | 1 |
| 2010-01-07T12:24 | 11750 | 224 | -45.9 | -51.6 | 203 | 1 |
| 2010-01-07T12:24 | 11791 | 222 | -46.2 | -52.3 | 199 | 1 |
| 2010-01-07T12:24 | 11833 | 221 | -46.6 | -52.8 | 193 | 1 |
| 2010-01-07T12:24 | 11872 | 220 | -46.9 | -53.3 | 189 | 1 |
| 2010-01-07T12:24 | 11914 | 218 | -47.3 | -54.1 | 183 | 1 |
| 2010-01-07T12:25 | 11956 | 217 | -47.7 | -54.6 | 167 | 1 |
| 2010-01-07T12:25 | 11995 | 215 | -48.0 | -55.3 | 146 | 1 |
| 2010-01-07T12:25 | 12032 | 214 | -48.3 | -55.9 | 139 | 1 |
| 2010-01-07T12:25 | 12081 | 213 | -48.3 | -57.5 | 143 | 3 |
| 2010-01-07T12:25 | 12143 | 211 | -48.5 | -59.1 | 147 | 4 |
| 2010-01-07T12:25 | 12195 | 209 | -48.9 | -59.6 | 151 | 5 |
| 2010-01-07T12:26 | 12242 | 208 | -49.4 | -59.7 | 153 | 5 |
| 2010-01-07T12:26 | 12282 | 206 | -49.8 | -59.6 | 154 | 5 |
| 2010-01-07T12:26 | 12321 | 205 | -50.1 | -59.5 | 154 | 5 |
| 2010-01-07T12:26 | 12363 | 204 | -50.5 | -59.5 | 152 | 5 |
| 2010-01-07T12:26 | 12404 | 202 | -50.8 | -59.8 | 150 | 5 |
| 2010-01-07T12:26 | 12444 | 201 | -51.2 | -60.0 | 148 | 5 |
| 2010-01-07T12:27 | 12486 | 200 | -51.5 | -60.2 | 146 | 5 |
| 2010-01-07T12:27 | 12527 | 199 | -51.9 | -60.3 | 145 | 5 |
| 2010-01-07T12:27 | 12568 | 197 | -52.2 | -60.2 | 145 | 5 |
| 2010-01-07T12:27 | 12609 | 196 | -52.6 | -60.2 | 148 | 5 |
| 2010-01-07T12:27 | 12650 | 195 | -52.9 | -60.3 | 151 | 5 |
| 2010-01-07T12:27 | 12692 | 194 | -53.3 | -60.7 | 154 | 5 |
| 2010-01-07T12:28 | 12734 | 192 | -53.7 | -61.1 | 155 | 5 |
| 2010-01-07T12:28 | 12776 | 191 | -54.0 | -61.5 | 156 | 5 |
| 2010-01-07T12:28 | 12816 | 190 | -54.4 | -61.7 | 157 | 5 |
| 2010-01-07T12:28 | 12860 | 189 | -54.8 | -61.9 | 157 | 5 |
| 2010-01-07T12:28 | 12901 | 187 | -55.2 | -62.3 | 158 | 5 |
| 2010-01-07T12:28 | 12941 | 186 | -55.5 | -62.6 | 161 | 5 |
| 2010-01-07T12:29 | 12982 | 185 | -55.9 | -62.9 | 164 | 5 |
| 2010-01-07T12:29 | 13024 | 184 | -56.3 | -63.0 | 166 | 5 |
| 2010-01-07T12:29 | 13066 | 183 | -56.7 | -63.1 | 164 | 5 |
| 2010-01-07T12:29 | 13108 | 181 | -57.0 | -63.0 | 161 | 5 |
| 2010-01-07T12:29 | 13151 | 180 | -57.4 | -63.2 | 160 | 5 |
| 2010-01-07T12:29 | 13194 | 179 | -57.8 | -63.4 | 158 | 5 |
| 2010-01-07T12:30 | 13239 | 178 | -58.2 | -63.7 | 155 | 5 |
| 2010-01-07T12:30 | 13290 | 176 | -58.7 | -64.1 | 153 | 5 |
| 2010-01-07T12:30 | 13335 | 175 | -59.1 | -64.4 | 151 | 5 |
| 2010-01-07T12:30 | 13377 | 174 | -59.5 | -64.6 | 151 | 5 |
| 2010-01-07T12:30 | 13419 | 173 | -59.9 | -65.0 | 152 | 6 |
| 2010-01-07T12:30 | 13461 | 172 | -60.3 | -65.3 | 152 | 6 |
| 2010-01-07T12:31 | 13505 | 170 | -60.7 | -65.7 | 152 | 6 |
| 2010-01-07T12:31 | 13547 | 169 | -61.0 | -65.9 | 152 | 6 |
| 2010-01-07T12:31 | 13590 | 168 | -61.4 | -66.3 | 152 | 6 |
| 2010-01-07T12:31 | 13634 | 167 | -61.8 | -66.7 | 152 | 6 |
| 2010-01-07T12:31 | 13678 | 166 | -62.2 | -67.0 | 153 | 6 |
| 2010-01-07T12:31 | 13722 | 164 | -62.6 | -67.4 | 154 | 6 |
| 2010-01-07T12:32 | 13766 | 163 | -63.0 | -67.7 | 156 | 6 |
| 2010-01-07T12:32 | 13810 | 162 | -63.4 | -68.1 | 159 | 6 |
| 2010-01-07T12:32 | 13855 | 161 | -63.9 | -68.4 | 161 | 6 |
| 2010-01-07T12:32 | 13898 | 160 | -64.3 | -68.7 | 162 | 7 |
| 2010-01-07T12:32 | 13943 | 159 | -64.7 | -69.0 | 161 | 7 |
| 2010-01-07T12:32 | 13989 | 157 | -65.1 | -69.4 | 159 | 8 |
| 2010-01-07T12:33 | 14033 | 156 | -65.4 | -69.7 | 156 | 9 |
| 2010-01-07T12:33 | 14079 | 155 | -65.8 | -70.0 | 154 | 9 |
| 2010-01-07T12:33 | 14124 | 154 | -66.2 | -70.3 | 153 | 10 |
| 2010-01-07T12:33 | 14167 | 153 | -66.6 | -70.7 | 152 | 10 |
| 2010-01-07T12:33 | 14212 | 152 | -67.0 | -71.2 | 151 | 11 |
| 2010-01-07T12:33 | 14255 | 151 | -67.4 | -71.6 | 149 | 11 |
| 2010-01-07T12:34 | 14300 | 150 | -67.8 | -72.0 | 148 | 12 |
| 2010-01-07T12:34 | 14346 | 148 | -68.2 | -72.4 | 147 | 12 |
| 2010-01-07T12:34 | 14391 | 147 | -68.6 | -72.8 | 146 | 13 |
| 2010-01-07T12:34 | 14433 | 146 | -68.9 | -73.2 | 146 | 13 |
| 2010-01-07T12:34 | 14477 | 145 | -69.3 | -73.6 | 147 | 14 |
| 2010-01-07T12:34 | 14522 | 144 | -69.8 | -74.1 | 149 | 14 |
| 2010-01-07T12:35 | 14565 | 143 | -69.9 | -74.3 | 150 | 15 |
| 2010-01-07T12:35 | 14610 | 142 | -70.3 | -74.6 | 150 | 15 |
| 2010-01-07T12:35 | 14654 | 141 | -70.7 | -75.0 | 151 | 15 |
| 2010-01-07T12:35 | 14697 | 140 | -71.1 | -75.4 | 152 | 15 |
| 2010-01-07T12:35 | 14740 | 139 | -71.5 | -75.7 | 152 | 15 |
| 2010-01-07T12:35 | 14784 | 138 | -72.0 | -76.1 | 153 | 15 |
| 2010-01-07T12:36 | 14829 | 137 | -72.4 | -76.5 | 153 | 15 |
| 2010-01-07T12:36 | 14873 | 136 | -72.8 | -76.8 | 153 | 15 |
| 2010-01-07T12:36 | 14917 | 135 | -73.2 | -77.2 | 154 | 15 |
| 2010-01-07T12:36 | 14963 | 134 | -73.6 | -77.6 | 154 | 15 |
| 2010-01-07T12:36 | 15008 | 133 | -74.1 | -78.0 | 155 | 15 |
| 2010-01-07T12:36 | 15053 | 132 | -74.5 | -78.3 | 155 | 15 |
| 2010-01-07T12:37 | 15099 | 131 | -74.9 | -78.7 | 155 | 15 |
| 2010-01-07T12:37 | 15144 | 130 | -75.3 | -79.1 | 155 | 16 |
| 2010-01-07T12:37 | 15189 | 129 | -75.7 | -79.5 | 155 | 16 |
| 2010-01-07T12:37 | 15233 | 128 | -76.0 | -79.8 | 154 | 16 |
| 2010-01-07T12:37 | 15278 | 127 | -76.4 | -80.1 | 155 | 15 |
| 2010-01-07T12:37 | 15322 | 126 | -76.8 | -80.5 | 155 | 16 |
| 2010-01-07T12:38 | 15367 | 125 | -77.1 | -80.8 | 154 | 16 |
| 2010-01-07T12:38 | 15412 | 124 | -77.5 | -81.2 | 153 | 16 |
| 2010-01-07T12:38 | 15457 | 123 | -77.9 | -81.6 | 152 | 16 |
| 2010-01-07T12:38 | 15502 | 122 | -78.2 | -82.0 | 150 | 16 |
| 2010-01-07T12:38 | 15548 | 121 | -78.5 | -82.2 | 147 | 17 |
| 2010-01-07T12:38 | 15594 | 120 | -78.7 | -82.5 | 143 | 17 |
| 2010-01-07T12:39 | 15639 | 119 | -78.8 | -82.6 | 140 | 18 |
| 2010-01-07T12:39 | 15683 | 118 | -79.0 | -82.8 | 138 | 19 |
| 2010-01-07T12:39 | 15727 | 117 | -79.3 | -83.1 | 136 | 19 |
| 2010-01-07T12:39 | 15769 | 116 | -79.6 | -83.4 | 134 | 20 |
| 2010-01-07T12:39 | 15811 | 115 | -79.8 | -83.6 | 132 | 20 |
| 2010-01-07T12:39 | 15854 | 114 | -80.0 | -83.8 | 130 | 21 |
| 2010-01-07T12:40 | 15896 | 114 | -80.2 | -84.0 | 129 | 21 |
| 2010-01-07T12:40 | 15938 | 113 | -80.5 | -84.4 | 128 | 20 |
| 2010-01-07T12:40 | 15981 | 112 | -80.9 | -84.8 | 128 | 20 |
| 2010-01-07T12:40 | 16025 | 111 | -81.3 | -85.1 | 128 | 19 |
| 2010-01-07T12:40 | 16066 | 110 | -81.5 | -85.4 | 127 | 19 |
| 2010-01-07T12:40 | 16108 | 109 | -81.8 | -85.6 | 127 | 18 |
| 2010-01-07T12:41 | 16149 | 109 | -82.2 | -86.0 | 127 | 18 |
| 2010-01-07T12:41 | 16190 | 108 | -82.5 | -86.3 | 128 | 19 |
| 2010-01-07T12:41 | 16229 | 107 | -82.8 | -86.6 | 128 | 19 |
| 2010-01-07T12:41 | 16268 | 106 | -83.0 | -86.9 | 128 | 19 |
| 2010-01-07T12:41 | 16307 | 106 | -83.0 | -86.8 | 126 | 18 |
| 2010-01-07T12:41 | 16347 | 105 | -83.2 | -87.1 | 125 | 18 |
| 2010-01-07T12:42 | 16388 | 104 | -83.4 | -87.3 | 125 | 19 |
| 2010-01-07T12:42 | 16427 | 103 | -83.5 | -87.4 | 125 | 19 |
| 2010-01-07T12:42 | 16466 | 103 | -83.7 | -87.6 | 125 | 19 |
| 2010-01-07T12:42 | 16506 | 102 | -83.9 | -87.8 | 124 | 19 |
| 2010-01-07T12:42 | 16548 | 101 | -83.8 | -87.6 | 120 | 19 |
| 2010-01-07T12:42 | 16588 | 100 | -83.2 | -87.1 | 114 | 20 |
| 2010-01-07T12:43 | 16632 | 100 | -82.9 | -86.8 | 107 | 20 |
| 2010-01-07T12:43 | 16674 | 99 | -82.4 | -86.4 | 102 | 21 |
| 2010-01-07T12:43 | 16720 | 98 | -82.5 | -86.6 | 97 | 20 |
| 2010-01-07T12:43 | 16763 | 97 | -82.7 | -86.9 | 94 | 20 |
| 2010-01-07T12:43 | 16806 | 97 | -83.0 | -87.2 | 93 | 20 |
| 2010-01-07T12:43 | 16848 | 96 | -83.3 | -87.6 | 93 | 20 |
| 2010-01-07T12:44 | 16892 | 95 | -83.7 | -88.0 | 94 | 20 |
| 2010-01-07T12:44 | 16938 | 94 | -84.1 | -88.4 | 95 | 20 |
| 2010-01-07T12:44 | 16981 | 94 | -84.4 | -88.8 | 95 | 20 |
| 2010-01-07T12:44 | 17023 | 93 | -84.8 | -89.3 | 96 | 20 |
| 2010-01-07T12:44 | 17064 | 92 | -85.2 | -89.7 | 97 | 20 |
| 2010-01-07T12:44 | 17104 | 91 | -85.5 | -90.0 | 98 | 19 |
| 2010-01-07T12:45 | 17147 | 91 | -84.9 | -89.5 | 101 | 18 |
| 2010-01-07T12:45 | 17187 | 90 | -84.5 | -89.2 | 103 | 16 |
| 2010-01-07T12:45 | 17230 | 89 | -84.3 | -89.0 | 106 | 14 |
| 2010-01-07T12:45 | 17273 | 89 | -84.0 | -88.8 | 107 | 12 |
| 2010-01-07T12:45 | 17314 | 88 | -83.6 | -88.4 | 109 | 10 |
| 2010-01-07T12:45 | 17356 | 87 | -83.3 | -88.2 | 112 | 8 |
| 2010-01-07T12:46 | 17398 | 87 | -83.1 | -88.0 | 117 | 7 |
| 2010-01-07T12:46 | 17438 | 86 | -82.9 | -87.9 | 125 | 6 |
| 2010-01-07T12:46 | 17479 | 85 | -82.9 | -87.9 | 132 | 7 |
| 2010-01-07T12:46 | 17517 | 85 | -82.7 | -87.8 | 139 | 8 |
| 2010-01-07T12:46 | 17557 | 84 | -82.3 | -87.5 | 144 | 9 |
| 2010-01-07T12:46 | 17598 | 84 | -82.5 | -87.8 | 145 | 9 |
| 2010-01-07T12:47 | 17640 | 83 | -82.7 | -88.0 | 144 | 8 |
| 2010-01-07T12:47 | 17683 | 82 | -82.4 | -87.8 | 145 | 8 |
| 2010-01-07T12:47 | 17729 | 82 | -82.3 | -87.7 | 153 | 7 |
| 2010-01-07T12:47 | 17773 | 81 | -82.1 | -87.6 | 168 | 7 |
| 2010-01-07T12:47 | 17814 | 81 | -81.1 | -86.7 | 187 | 7 |
| 2010-01-07T12:47 | 17857 | 80 | -80.5 | -86.3 | 210 | 7 |
| 2010-01-07T12:48 | 17908 | 79 | -78.0 | -84.1 | 235 | 8 |
| 2010-01-07T12:48 | 17960 | 78 | -77.3 | -83.4 | 252 | 9 |
| 2010-01-07T12:48 | 18004 | 78 | -76.5 | -82.8 | 260 | 9 |
| 2010-01-07T12:48 | 18047 | 77 | -76.7 | -83.1 | 264 | 10 |
| 2010-01-07T12:48 | 18089 | 77 | -75.0 | -81.8 | 268 | 12 |
| 2010-01-07T12:48 | 18128 | 76 | -73.3 | -80.5 | 270 | 14 |
| 2010-01-07T12:49 | 18171 | 76 | -73.1 | -80.5 | 270 | 15 |
| 2010-01-07T12:49 | 18214 | 75 | -73.3 | -81.0 | 269 | 16 |
| 2010-01-07T12:49 | 18255 | 75 | -73.6 | -81.5 | 267 | 17 |
| 2010-01-07T12:49 | 18295 | 74 | -73.7 | -82.0 | 266 | 17 |
| 2010-01-07T12:49 | 18335 | 74 | -73.7 | -82.3 | 267 | 17 |
| 2010-01-07T12:49 | 18376 | 73 | -73.8 | -82.6 | 269 | 17 |
| 2010-01-07T12:50 | 18416 | 73 | -73.5 | -82.6 | 270 | 17 |
| 2010-01-07T12:50 | 18458 | 72 | -73.9 | -83.2 | 271 | 17 |
| 2010-01-07T12:50 | 18498 | 72 | -74.2 | -83.7 | 272 | 17 |
| 2010-01-07T12:50 | 18540 | 71 | -74.3 | -84.0 | 271 | 18 |
| 2010-01-07T12:50 | 18580 | 71 | -74.5 | -84.4 | 270 | 18 |
| 2010-01-07T12:50 | 18620 | 70 | -74.8 | -84.9 | 271 | 18 |
| 2010-01-07T12:51 | 18659 | 70 | -75.0 | -85.2 | 272 | 18 |
| 2010-01-07T12:51 | 18699 | 69 | -75.0 | -85.3 | 273 | 17 |
| 2010-01-07T12:51 | 18739 | 69 | -75.0 | -85.5 | 273 | 17 |
| 2010-01-07T12:51 | 18778 | 68 | -75.0 | -85.6 | 274 | 16 |
| 2010-01-07T12:51 | 18815 | 68 | -74.7 | -85.5 | 274 | 16 |
| 2010-01-07T12:51 | 18855 | 67 | -74.6 | -85.6 | 275 | 16 |
| 2010-01-07T12:52 | 18894 | 67 | -74.2 | -85.3 | 276 | 16 |
| 2010-01-07T12:52 | 18934 | 66 | -73.4 | -84.8 | 277 | 16 |
| 2010-01-07T12:52 | 18973 | 66 | -73.5 | -85.0 | 277 | 17 |
| 2010-01-07T12:52 | 19013 | 65 | -73.4 | -85.1 | 278 | 17 |
| 2010-01-07T12:52 | 19054 | 65 | -73.5 | -85.3 | 278 | 18 |
| 2010-01-07T12:52 | 19093 | 65 | -73.8 | -85.7 | 278 | 18 |
| 2010-01-07T12:53 | 19134 | 64 | -73.8 | -85.8 | 279 | 18 |
| 2010-01-07T12:53 | 19175 | 64 | -73.7 | -85.8 | 281 | 17 |
| 2010-01-07T12:53 | 19213 | 63 | -73.7 | -86.0 | 283 | 16 |
| 2010-01-07T12:53 | 19254 | 63 | -73.5 | -85.9 | 287 | 15 |
| 2010-01-07T12:53 | 19293 | 62 | -73.5 | -86.0 | 289 | 15 |
| 2010-01-07T12:53 | 19334 | 62 | -73.8 | -86.4 | 292 | 14 |
| 2010-01-07T12:54 | 19376 | 62 | -74.2 | -86.8 | 295 | 14 |
| 2010-01-07T12:54 | 19420 | 61 | -74.5 | -87.2 | 299 | 14 |
| 2010-01-07T12:54 | 19462 | 61 | -74.8 | -87.5 | 301 | 14 |
| 2010-01-07T12:54 | 19503 | 60 | -75.2 | -87.9 | 302 | 14 |
| 2010-01-07T12:54 | 19547 | 60 | -75.5 | -88.2 | 300 | 14 |
| 2010-01-07T12:54 | 19589 | 59 | -75.8 | -88.5 | 296 | 14 |
| 2010-01-07T12:55 | 19629 | 59 | -76.1 | -88.8 | 293 | 14 |
| 2010-01-07T12:55 | 19669 | 58 | -76.3 | -88.9 | 289 | 13 |
| 2010-01-07T12:55 | 19712 | 58 | -76.5 | -89.1 | 285 | 13 |
| 2010-01-07T12:55 | 19754 | 58 | -76.7 | -89.3 | 283 | 14 |
| 2010-01-07T12:55 | 19793 | 57 | -76.8 | -89.3 | 279 | 13 |
| 2010-01-07T12:55 | 19832 | 57 | -76.7 | -89.3 | 274 | 12 |
| 2010-01-07T12:56 | 19871 | 56 | -76.0 | -88.7 | 265 | 12 |
| 2010-01-07T12:56 | 19911 | 56 | -75.6 | -88.3 | 254 | 12 |
| 2010-01-07T12:56 | 19951 | 56 | -74.9 | -87.7 | 244 | 12 |
| 2010-01-07T12:56 | 19994 | 55 | -74.5 | -87.3 | 236 | 13 |
| 2010-01-07T12:56 | 20034 | 55 | -74.1 | -87.1 | 230 | 15 |
| 2010-01-07T12:56 | 20076 | 55 | -74.2 | -87.2 | 226 | 15 |
| 2010-01-07T12:57 | 20118 | 54 | -74.3 | -87.3 | 224 | 15 |
| 2010-01-07T12:57 | 20159 | 54 | -74.6 | -87.7 | 223 | 15 |
| 2010-01-07T12:57 | 20200 | 53 | -74.6 | -87.8 | 223 | 14 |
| 2010-01-07T12:57 | 20243 | 53 | -74.3 | -87.7 | 222 | 14 |
| 2010-01-07T12:57 | 20283 | 53 | -74.1 | -87.6 | 222 | 13 |
| 2010-01-07T12:57 | 20321 | 52 | -73.9 | -87.5 | 221 | 13 |
| 2010-01-07T12:58 | 20359 | 52 | -73.7 | -87.4 | 220 | 12 |
| 2010-01-07T12:58 | 20399 | 52 | -73.7 | -87.5 | 218 | 12 |
| 2010-01-07T12:58 | 20442 | 51 | -73.6 | -87.5 | 217 | 11 |
| 2010-01-07T12:58 | 20483 | 51 | -73.3 | -87.4 | 216 | 10 |
| 2010-01-07T12:58 | 20522 | 50 | -72.9 | -87.2 | 216 | 10 |
| 2010-01-07T12:58 | 20562 | 50 | -72.4 | -86.9 | 217 | 10 |
| 2010-01-07T12:59 | 20603 | 50 | -72.3 | -86.9 | 217 | 11 |
| 2010-01-07T12:59 | 20643 | 49 | -72.3 | -87.1 | 218 | 11 |
| 2010-01-07T12:59 | 20684 | 49 | -72.3 | -87.2 | 219 | 11 |
| 2010-01-07T12:59 | 20725 | 49 | -72.4 | -87.4 | 219 | 10 |
| 2010-01-07T12:59 | 20768 | 48 | -72.3 | -87.5 | 216 | 10 |
| 2010-01-07T12:59 | 20811 | 48 | -72.3 | -87.6 | 213 | 9 |
| 2010-01-07T13:00 | 20856 | 48 | -71.8 | -87.4 | 207 | 8 |
| 2010-01-07T13:00 | 20901 | 47 | -71.8 | -87.5 | 203 | 7 |
| 2010-01-07T13:00 | 20946 | 47 | -71.3 | -87.3 | 199 | 5 |
| 2010-01-07T13:00 | 20992 | 47 | -71.2 | -87.3 | 195 | 4 |
| 2010-01-07T13:00 | 21039 | 46 | -71.3 | -87.6 | 187 | 4 |
| 2010-01-07T13:00 | 21086 | 46 | -71.6 | -88.0 | 177 | 5 |
| 2010-01-07T13:01 | 21135 | 46 | -71.5 | -88.1 | 165 | 5 |
| 2010-01-07T13:01 | 21181 | 45 | -71.5 | -88.3 | 151 | 6 |
| 2010-01-07T13:01 | 21228 | 45 | -71.5 | -88.5 | 138 | 7 |
| 2010-01-07T13:01 | 21275 | 44 | -70.8 | -88.1 | 128 | 7 |
| 2010-01-07T13:01 | 21321 | 44 | -70.6 | -88.1 | 118 | 7 |
| 2010-01-07T13:01 | 21366 | 44 | -70.2 | -88.0 | 106 | 7 |
| 2010-01-07T13:02 | 21408 | 43 | -69.7 | -87.8 | 95 | 6 |
| 2010-01-07T13:02 | 21452 | 43 | -69.5 | -87.7 | 86 | 7 |
| 2010-01-07T13:02 | 21494 | 43 | -69.5 | -87.9 | 78 | 7 |
| 2010-01-07T13:02 | 21536 | 43 | -69.5 | -88.0 | 73 | 8 |
| 2010-01-07T13:02 | 21576 | 42 | -68.8 | -87.7 | 69 | 7 |
| 2010-01-07T13:02 | 21618 | 42 | -68.3 | -87.6 | 66 | 6 |
| 2010-01-07T13:03 | 21658 | 42 | -68.4 | -87.9 | 60 | 5 |
| 2010-01-07T13:03 | 21699 | 41 | -68.5 | -88.2 | 48 | 5 |
| 2010-01-07T13:03 | 21741 | 41 | -68.5 | -88.4 | 34 | 5 |
| 2010-01-07T13:03 | 21781 | 41 | -68.5 | -88.6 | 27 | 5 |
| 2010-01-07T13:03 | 21825 | 41 | -68.8 | -89.1 | 27 | 5 |
| 2010-01-07T13:03 | 21869 | 40 | -68.9 | -89.3 | 36 | 4 |
| 2010-01-07T13:04 | 21913 | 40 | -69.1 | -89.6 | 49 | 4 |
| 2010-01-07T13:04 | 21956 | 40 | -69.1 | -89.8 | 60 | 5 |
| 2010-01-07T13:04 | 21999 | 39 | -69.2 | -90.0 | 69 | 6 |
| 2010-01-07T13:04 | 22042 | 39 | -68.9 | -90.0 | 75 | 8 |
| 2010-01-07T13:04 | 22086 | 39 | -68.6 | -89.8 | 81 | 10 |
| 2010-01-07T13:04 | 22129 | 39 | -67.8 | -89.4 | 85 | 11 |
| 2010-01-07T13:05 | 22175 | 38 | -67.6 | -89.4 | 87 | 12 |
| 2010-01-07T13:05 | 22220 | 38 | -67.7 | -89.5 | 87 | 13 |
| 2010-01-07T13:05 | 22266 | 38 | -68.0 | -89.8 | 86 | 13 |
| 2010-01-07T13:05 | 22311 | 37 | -68.1 | -90.1 | 85 | 13 |
| 2010-01-07T13:05 | 22358 | 37 | -67.8 | -90.1 | 86 | 14 |
| 2010-01-07T13:05 | 22403 | 37 | -68.0 | -90.3 | 87 | 15 |
| 2010-01-07T13:06 | 22448 | 37 | -68.1 | -90.5 | 87 | 16 |
| 2010-01-07T13:06 | 22490 | 36 | -68.1 | -90.6 | 86 | 16 |
| 2010-01-07T13:06 | 22533 | 36 | -68.0 | -90.7 | 85 | 17 |
| 2010-01-07T13:06 | 22576 | 36 | -68.0 | -90.8 | 85 | 17 |
| 2010-01-07T13:06 | 22618 | 36 | -68.2 | -91.0 | 84 | 17 |
| 2010-01-07T13:06 | 22662 | 35 | -68.5 | -91.3 | 84 | 18 |
| 2010-01-07T13:07 | 22705 | 35 | -68.8 | -91.6 | 84 | 19 |
| 2010-01-07T13:07 | 22749 | 35 | -68.1 | -91.3 | 84 | 20 |
| 2010-01-07T13:07 | 22790 | 35 | -67.9 | -91.2 | 84 | 21 |
| 2010-01-07T13:07 | 22832 | 34 | -68.1 | -91.4 | 85 | 21 |
| 2010-01-07T13:07 | 22873 | 34 | -68.1 | -91.4 | 87 | 21 |
| 2010-01-07T13:07 | 22918 | 34 | -68.1 | -91.6 | 89 | 20 |
| 2010-01-07T13:08 | 22958 | 34 | -68.1 | -91.6 | 92 | 19 |
| 2010-01-07T13:08 | 23000 | 33 | -68.2 | -91.8 | 94 | 19 |
| 2010-01-07T13:08 | 23044 | 33 | -68.3 | -91.9 | 93 | 19 |
| 2010-01-07T13:08 | 23086 | 33 | -67.5 | -91.6 | 91 | 20 |
| 2010-01-07T13:08 | 23128 | 33 | -67.1 | -91.3 | 90 | 20 |
| 2010-01-07T13:08 | 23169 | 32 | -66.6 | -91.1 | 90 | 20 |
| 2010-01-07T13:09 | 23211 | 32 | -66.1 | -90.8 | 89 | 21 |
| 2010-01-07T13:09 | 23255 | 32 | -66.1 | -90.8 | 88 | 21 |
| 2010-01-07T13:09 | 23298 | 32 | -65.5 | -90.6 | 86 | 22 |
| 2010-01-07T13:09 | 23340 | 31 | -64.8 | -90.2 | 84 | 24 |
| 2010-01-07T13:09 | 23383 | 31 | -64.8 | -90.2 | 81 | 24 |
| 2010-01-07T13:09 | 23426 | 31 | -64.0 | -89.9 | 79 | 24 |
| 2010-01-07T13:10 | 23470 | 31 | -63.5 | -89.7 | 77 | 24 |
| 2010-01-07T13:10 | 23513 | 31 | -63.1 | -89.6 | 77 | 24 |
| 2010-01-07T13:10 | 23556 | 30 | -62.3 | -89.3 | 79 | 23 |
| 2010-01-07T13:10 | 23601 | 30 | -61.4 | -88.9 | 80 | 23 |
| 2010-01-07T13:10 | 23647 | 30 | -61.1 | -88.8 | 81 | 23 |
| 2010-01-08T11:31 | 4 | 1007 | 26.0 | 25.3 | 220 | 1 |
| 2010-01-08T11:31 | 15 | 1006 | 26.1 | 25.0 | 300 | 1 |
| 2010-01-08T11:31 | 27 | 1004 | 26.8 | 24.5 | 303 | 1 |
| 2010-01-08T11:31 | 37 | 1003 | 27.1 | 24.1 | 300 | 1 |
| 2010-01-08T11:31 | 47 | 1002 | 27.1 | 23.9 | 301 | 2 |
| 2010-01-08T11:31 | 58 | 1001 | 27.2 | 24.0 | 303 | 2 |
| 2010-01-08T11:31 | 70 | 1000 | 27.4 | 24.1 | 304 | 2 |
| 2010-01-08T11:31 | 83 | 998 | 27.4 | 24.2 | 305 | 3 |
| 2010-01-08T11:31 | 96 | 997 | 27.5 | 24.5 | 306 | 3 |
| 2010-01-08T11:31 | 107 | 995 | 27.7 | 24.7 | 307 | 3 |
| 2010-01-08T11:31 | 117 | 994 | 27.8 | 24.6 | 308 | 4 |
| 2010-01-08T11:31 | 125 | 993 | 27.8 | 24.5 | 309 | 4 |
| 2010-01-08T11:31 | 135 | 992 | 27.7 | 24.5 | 309 | 4 |
| 2010-01-08T11:31 | 146 | 991 | 27.6 | 24.6 | 310 | 4 |
| 2010-01-08T11:31 | 158 | 990 | 27.6 | 24.8 | 310 | 5 |
| 2010-01-08T11:31 | 170 | 988 | 27.5 | 24.8 | 311 | 5 |
| 2010-01-08T11:31 | 181 | 987 | 27.4 | 24.9 | 311 | 5 |
| 2010-01-08T11:31 | 191 | 986 | 27.4 | 24.8 | 310 | 5 |
| 2010-01-08T11:31 | 202 | 985 | 27.3 | 24.8 | 310 | 5 |
| 2010-01-08T11:31 | 214 | 983 | 27.3 | 24.6 | 310 | 6 |
| 2010-01-08T11:31 | 227 | 982 | 27.2 | 24.5 | 309 | 6 |
| 2010-01-08T11:31 | 238 | 981 | 27.1 | 24.4 | 309 | 6 |
| 2010-01-08T11:31 | 247 | 980 | 27.0 | 24.4 | 308 | 6 |
| 2010-01-08T11:31 | 258 | 979 | 27.0 | 24.3 | 307 | 6 |
| 2010-01-08T11:31 | 269 | 977 | 26.9 | 24.2 | 307 | 6 |
| 2010-01-08T11:31 | 279 | 976 | 26.8 | 24.2 | 307 | 6 |
| 2010-01-08T11:31 | 290 | 975 | 26.7 | 24.1 | 306 | 7 |
| 2010-01-08T11:31 | 301 | 974 | 26.6 | 24.0 | 306 | 7 |
| 2010-01-08T11:31 | 313 | 973 | 26.5 | 24.0 | 306 | 7 |
| 2010-01-08T11:31 | 325 | 971 | 26.4 | 23.9 | 306 | 7 |
| 2010-01-08T11:32 | 337 | 970 | 26.3 | 23.9 | 306 | 7 |
| 2010-01-08T11:32 | 346 | 969 | 26.2 | 23.9 | 307 | 7 |
| 2010-01-08T11:32 | 356 | 968 | 26.1 | 23.9 | 307 | 7 |
| 2010-01-08T11:32 | 368 | 967 | 26.0 | 23.8 | 307 | 7 |
| 2010-01-08T11:32 | 380 | 965 | 26.0 | 23.5 | 307 | 7 |
| 2010-01-08T11:32 | 392 | 964 | 25.9 | 23.4 | 308 | 7 |
| 2010-01-08T11:32 | 404 | 963 | 25.9 | 23.3 | 308 | 7 |
| 2010-01-08T11:32 | 415 | 962 | 25.8 | 23.1 | 308 | 7 |
| 2010-01-08T11:32 | 426 | 960 | 25.6 | 23.1 | 308 | 7 |
| 2010-01-08T11:32 | 436 | 959 | 25.5 | 23.0 | 307 | 7 |
| 2010-01-08T11:32 | 447 | 958 | 25.5 | 23.0 | 307 | 7 |
| 2010-01-08T11:32 | 457 | 957 | 25.3 | 23.0 | 307 | 7 |
| 2010-01-08T11:32 | 467 | 956 | 25.2 | 23.0 | 307 | 7 |
| 2010-01-08T11:32 | 477 | 955 | 25.1 | 23.0 | 307 | 7 |
| 2010-01-08T11:32 | 489 | 953 | 25.0 | 23.0 | 306 | 7 |
| 2010-01-08T11:32 | 500 | 952 | 25.0 | 22.9 | 306 | 7 |
| 2010-01-08T11:32 | 511 | 951 | 24.9 | 22.8 | 306 | 7 |
| 2010-01-08T11:32 | 522 | 950 | 24.8 | 22.8 | 306 | 7 |
| 2010-01-08T11:32 | 533 | 949 | 24.7 | 22.8 | 307 | 7 |
| 2010-01-08T11:32 | 544 | 948 | 24.6 | 22.8 | 307 | 7 |
| 2010-01-08T11:32 | 555 | 946 | 24.5 | 22.8 | 307 | 7 |
| 2010-01-08T11:32 | 566 | 945 | 24.4 | 22.7 | 308 | 7 |
| 2010-01-08T11:32 | 577 | 944 | 24.4 | 22.6 | 309 | 7 |
| 2010-01-08T11:32 | 589 | 943 | 24.3 | 22.4 | 309 | 7 |
| 2010-01-08T11:32 | 600 | 942 | 24.3 | 22.2 | 310 | 7 |
| 2010-01-08T11:32 | 610 | 940 | 24.2 | 22.1 | 310 | 7 |
| 2010-01-08T11:32 | 619 | 939 | 24.1 | 22.0 | 311 | 7 |
| 2010-01-08T11:32 | 628 | 939 | 24.1 | 21.8 | 311 | 7 |
| 2010-01-08T11:32 | 637 | 938 | 24.1 | 21.6 | 312 | 7 |
| 2010-01-08T11:32 | 646 | 937 | 24.1 | 21.5 | 312 | 7 |
| 2010-01-08T11:33 | 657 | 935 | 24.1 | 21.4 | 312 | 7 |
| 2010-01-08T11:33 | 668 | 934 | 24.0 | 21.3 | 312 | 7 |
| 2010-01-08T11:33 | 679 | 933 | 23.9 | 21.1 | 312 | 7 |
| 2010-01-08T11:33 | 692 | 932 | 23.9 | 21.0 | 312 | 7 |
| 2010-01-08T11:33 | 704 | 930 | 23.9 | 20.8 | 311 | 7 |
| 2010-01-08T11:33 | 716 | 929 | 23.8 | 20.6 | 311 | 7 |
| 2010-01-08T11:33 | 727 | 928 | 23.7 | 20.5 | 311 | 7 |
| 2010-01-08T11:33 | 738 | 927 | 23.6 | 20.4 | 311 | 7 |
| 2010-01-08T11:33 | 749 | 926 | 23.6 | 20.3 | 310 | 7 |
| 2010-01-08T11:33 | 760 | 925 | 23.5 | 20.2 | 310 | 7 |
| 2010-01-08T11:33 | 771 | 923 | 23.4 | 20.1 | 310 | 7 |
| 2010-01-08T11:33 | 782 | 922 | 23.3 | 20.1 | 310 | 7 |
| 2010-01-08T11:33 | 794 | 921 | 23.2 | 20.1 | 310 | 7 |
| 2010-01-08T11:33 | 805 | 920 | 23.2 | 20.0 | 311 | 7 |
| 2010-01-08T11:33 | 816 | 919 | 23.1 | 19.8 | 311 | 7 |
| 2010-01-08T11:33 | 826 | 918 | 23.1 | 19.7 | 311 | 7 |
| 2010-01-08T11:33 | 837 | 917 | 23.0 | 19.7 | 312 | 7 |
| 2010-01-08T11:33 | 847 | 915 | 23.0 | 19.7 | 312 | 7 |
| 2010-01-08T11:33 | 857 | 914 | 23.0 | 19.6 | 313 | 7 |
| 2010-01-08T11:33 | 868 | 913 | 23.0 | 19.3 | 314 | 7 |
| 2010-01-08T11:33 | 881 | 912 | 23.1 | 18.9 | 314 | 7 |
| 2010-01-08T11:33 | 892 | 911 | 23.2 | 18.6 | 315 | 7 |
| 2010-01-08T11:33 | 903 | 910 | 23.1 | 18.5 | 315 | 6 |
| 2010-01-08T11:33 | 915 | 908 | 23.1 | 18.4 | 316 | 6 |
| 2010-01-08T11:33 | 926 | 907 | 23.0 | 18.4 | 316 | 6 |
| 2010-01-08T11:33 | 936 | 906 | 23.0 | 18.3 | 316 | 6 |
| 2010-01-08T11:33 | 947 | 905 | 23.0 | 18.0 | 316 | 6 |
| 2010-01-08T11:33 | 958 | 904 | 22.9 | 17.8 | 316 | 6 |
| 2010-01-08T11:33 | 970 | 903 | 22.8 | 17.7 | 315 | 6 |
| 2010-01-08T11:33 | 983 | 901 | 22.7 | 17.6 | 315 | 6 |
| 2010-01-08T11:34 | 994 | 900 | 22.6 | 17.5 | 315 | 6 |
| 2010-01-08T11:34 | 1006 | 899 | 22.5 | 17.5 | 314 | 6 |
| 2010-01-08T11:34 | 1019 | 898 | 22.5 | 17.5 | 314 | 6 |
| 2010-01-08T11:34 | 1032 | 896 | 22.4 | 17.4 | 314 | 6 |
| 2010-01-08T11:34 | 1045 | 895 | 22.3 | 17.4 | 313 | 5 |
| 2010-01-08T11:34 | 1056 | 894 | 22.2 | 17.3 | 313 | 5 |
| 2010-01-08T11:34 | 1065 | 893 | 22.1 | 17.4 | 313 | 5 |
| 2010-01-08T11:34 | 1076 | 892 | 22.0 | 17.7 | 313 | 5 |
| 2010-01-08T11:34 | 1086 | 891 | 21.9 | 17.8 | 313 | 5 |
| 2010-01-08T11:34 | 1096 | 890 | 21.9 | 17.8 | 314 | 5 |
| 2010-01-08T11:34 | 1107 | 889 | 21.9 | 17.9 | 314 | 5 |
| 2010-01-08T11:34 | 1118 | 887 | 21.8 | 17.7 | 314 | 5 |
| 2010-01-08T11:34 | 1130 | 886 | 21.7 | 17.6 | 314 | 5 |
| 2010-01-08T11:34 | 1142 | 885 | 21.6 | 17.7 | 314 | 5 |
| 2010-01-08T11:34 | 1155 | 884 | 21.5 | 17.8 | 314 | 5 |
| 2010-01-08T11:34 | 1166 | 883 | 21.4 | 17.9 | 314 | 5 |
| 2010-01-08T11:34 | 1177 | 881 | 21.4 | 17.9 | 314 | 5 |
| 2010-01-08T11:34 | 1187 | 880 | 21.3 | 17.8 | 314 | 5 |
| 2010-01-08T11:34 | 1199 | 879 | 21.2 | 17.7 | 313 | 5 |
| 2010-01-08T11:34 | 1211 | 878 | 21.1 | 17.7 | 313 | 5 |
| 2010-01-08T11:34 | 1223 | 877 | 21.0 | 17.8 | 313 | 5 |
| 2010-01-08T11:34 | 1235 | 876 | 20.9 | 17.8 | 313 | 5 |
| 2010-01-08T11:34 | 1247 | 874 | 20.7 | 17.9 | 313 | 5 |
| 2010-01-08T11:34 | 1258 | 873 | 20.6 | 17.9 | 313 | 5 |
| 2010-01-08T11:34 | 1268 | 872 | 20.5 | 18.0 | 313 | 5 |
| 2010-01-08T11:34 | 1281 | 871 | 20.4 | 18.2 | 313 | 5 |
| 2010-01-08T11:34 | 1296 | 869 | 20.3 | 18.2 | 313 | 4 |
| 2010-01-08T11:34 | 1308 | 868 | 20.3 | 18.2 | 314 | 4 |
| 2010-01-08T11:34 | 1317 | 867 | 20.2 | 18.2 | 314 | 4 |
| 2010-01-08T11:34 | 1329 | 866 | 20.1 | 18.1 | 314 | 4 |
| 2010-01-08T11:35 | 1340 | 865 | 20.0 | 18.1 | 314 | 4 |
| 2010-01-08T11:35 | 1350 | 864 | 20.0 | 18.1 | 314 | 4 |
| 2010-01-08T11:35 | 1361 | 863 | 19.9 | 18.1 | 314 | 4 |
| 2010-01-08T11:35 | 1372 | 862 | 19.8 | 18.1 | 313 | 4 |
| 2010-01-08T11:35 | 1384 | 861 | 19.8 | 18.0 | 313 | 4 |
| 2010-01-08T11:35 | 1396 | 860 | 19.7 | 17.9 | 312 | 4 |
| 2010-01-08T11:35 | 1407 | 858 | 19.6 | 17.9 | 311 | 4 |
| 2010-01-08T11:35 | 1417 | 857 | 19.6 | 17.8 | 310 | 4 |
| 2010-01-08T11:35 | 1428 | 856 | 19.5 | 17.8 | 309 | 5 |
| 2010-01-08T11:35 | 1439 | 855 | 19.4 | 17.8 | 308 | 5 |
| 2010-01-08T11:35 | 1450 | 854 | 19.3 | 17.7 | 308 | 5 |
| 2010-01-08T11:35 | 1461 | 853 | 19.3 | 17.6 | 308 | 5 |
| 2010-01-08T11:35 | 1472 | 852 | 19.2 | 17.6 | 308 | 5 |
| 2010-01-08T11:35 | 1483 | 851 | 19.1 | 17.6 | 308 | 5 |
| 2010-01-08T11:35 | 1494 | 850 | 19.0 | 17.5 | 308 | 5 |
| 2010-01-08T11:35 | 1506 | 849 | 18.9 | 17.5 | 308 | 5 |
| 2010-01-08T11:35 | 1517 | 847 | 18.8 | 17.4 | 309 | 5 |
| 2010-01-08T11:35 | 1529 | 846 | 18.7 | 17.4 | 309 | 5 |
| 2010-01-08T11:35 | 1539 | 845 | 18.7 | 17.3 | 309 | 5 |
| 2010-01-08T11:35 | 1552 | 844 | 18.6 | 17.3 | 309 | 5 |
| 2010-01-08T11:35 | 1564 | 843 | 18.5 | 17.2 | 309 | 5 |
| 2010-01-08T11:35 | 1575 | 842 | 18.5 | 17.2 | 309 | 4 |
| 2010-01-08T11:35 | 1585 | 841 | 18.4 | 17.2 | 309 | 4 |
| 2010-01-08T11:35 | 1595 | 840 | 18.3 | 17.2 | 309 | 4 |
| 2010-01-08T11:35 | 1605 | 839 | 18.2 | 17.2 | 309 | 4 |
| 2010-01-08T11:35 | 1617 | 838 | 18.2 | 17.2 | 308 | 4 |
| 2010-01-08T11:35 | 1630 | 837 | 18.1 | 17.2 | 308 | 4 |
| 2010-01-08T11:35 | 1641 | 835 | 18.0 | 17.1 | 308 | 4 |
| 2010-01-08T11:35 | 1653 | 834 | 18.0 | 17.0 | 308 | 4 |
| 2010-01-08T11:35 | 1665 | 833 | 17.9 | 17.0 | 308 | 4 |
| 2010-01-08T11:36 | 1677 | 832 | 17.9 | 16.9 | 309 | 4 |
| 2010-01-08T11:36 | 1688 | 831 | 17.8 | 16.9 | 309 | 4 |
| 2010-01-08T11:36 | 1699 | 830 | 17.8 | 16.7 | 310 | 4 |
| 2010-01-08T11:36 | 1710 | 829 | 17.7 | 16.6 | 311 | 4 |
| 2010-01-08T11:36 | 1720 | 828 | 17.6 | 16.6 | 312 | 4 |
| 2010-01-08T11:36 | 1731 | 827 | 17.6 | 16.5 | 313 | 4 |
| 2010-01-08T11:36 | 1742 | 826 | 17.5 | 16.4 | 314 | 4 |
| 2010-01-08T11:36 | 1753 | 825 | 17.5 | 16.3 | 315 | 4 |
| 2010-01-08T11:36 | 1765 | 823 | 17.4 | 16.2 | 315 | 4 |
| 2010-01-08T11:36 | 1776 | 822 | 17.3 | 16.2 | 315 | 5 |
| 2010-01-08T11:36 | 1786 | 821 | 17.2 | 16.1 | 315 | 5 |
| 2010-01-08T11:36 | 1799 | 820 | 17.2 | 16.1 | 315 | 5 |
| 2010-01-08T11:36 | 1813 | 819 | 17.1 | 16.0 | 315 | 5 |
| 2010-01-08T11:36 | 1827 | 818 | 17.1 | 15.9 | 314 | 5 |
| 2010-01-08T11:36 | 1839 | 816 | 17.0 | 15.8 | 313 | 5 |
| 2010-01-08T11:36 | 1849 | 815 | 17.0 | 15.8 | 312 | 5 |
| 2010-01-08T11:36 | 1860 | 814 | 16.9 | 15.7 | 311 | 5 |
| 2010-01-08T11:36 | 1871 | 813 | 16.9 | 15.6 | 311 | 5 |
| 2010-01-08T11:36 | 1882 | 812 | 16.9 | 15.5 | 310 | 5 |
| 2010-01-08T11:36 | 1892 | 811 | 16.8 | 15.4 | 309 | 5 |
| 2010-01-08T11:36 | 1903 | 810 | 16.8 | 15.3 | 308 | 5 |
| 2010-01-08T11:36 | 1915 | 809 | 16.8 | 15.1 | 307 | 5 |
| 2010-01-08T11:36 | 1927 | 808 | 16.8 | 15.0 | 306 | 5 |
| 2010-01-08T11:36 | 1940 | 807 | 16.7 | 14.9 | 306 | 5 |
| 2010-01-08T11:36 | 1953 | 806 | 16.6 | 14.8 | 305 | 5 |
| 2010-01-08T11:36 | 1965 | 804 | 16.5 | 14.9 | 305 | 5 |
| 2010-01-08T11:36 | 1977 | 803 | 16.5 | 14.9 | 305 | 5 |
| 2010-01-08T11:36 | 1989 | 802 | 16.5 | 14.6 | 305 | 5 |
| 2010-01-08T11:37 | 2023 | 799 | 16.3 | 14.5 | 305 | 5 |
| 2010-01-08T11:37 | 2077 | 794 | 15.9 | 14.3 | 306 | 5 |
| 2010-01-08T11:37 | 2137 | 788 | 15.5 | 14.1 | 306 | 5 |
| 2010-01-08T11:37 | 2196 | 783 | 15.1 | 13.7 | 304 | 5 |
| 2010-01-08T11:37 | 2254 | 778 | 14.6 | 14.1 | 306 | 5 |
| 2010-01-08T11:37 | 2304 | 773 | 14.5 | 13.6 | 312 | 5 |
| 2010-01-08T11:38 | 2359 | 768 | 14.3 | 13.3 | 314 | 5 |
| 2010-01-08T11:38 | 2415 | 763 | 13.9 | 13.9 | 313 | 5 |
| 2010-01-08T11:38 | 2473 | 758 | 13.6 | 13.6 | 313 | 4 |
| 2010-01-08T11:38 | 2538 | 752 | 13.5 | 13.5 | 313 | 4 |
| 2010-01-08T11:38 | 2601 | 746 | 13.3 | 13.3 | 314 | 3 |
| 2010-01-08T11:38 | 2661 | 741 | 13.4 | 12.7 | 320 | 3 |
| 2010-01-08T11:39 | 2717 | 736 | 13.0 | 11.9 | 331 | 2 |
| 2010-01-08T11:39 | 2768 | 732 | 12.6 | 11.5 | 339 | 2 |
| 2010-01-08T11:39 | 2830 | 726 | 12.2 | 10.9 | 340 | 1 |
| 2010-01-08T11:39 | 2885 | 722 | 11.9 | 10.3 | 332 | 1 |
| 2010-01-08T11:39 | 2939 | 717 | 11.6 | 10.6 | 325 | 1 |
| 2010-01-08T11:39 | 2994 | 712 | 11.3 | 11.1 | 331 | 2 |
| 2010-01-08T11:40 | 3046 | 708 | 11.2 | 10.5 | 341 | 2 |
| 2010-01-08T11:40 | 3106 | 703 | 10.9 | 9.8 | 350 | 3 |
| 2010-01-08T11:40 | 3159 | 698 | 10.5 | 9.0 | 356 | 2 |
| 2010-01-08T11:40 | 3197 | 695 | 10.3 | 8.3 | 357 | 2 |
| 2010-01-08T11:40 | 3247 | 691 | 10.1 | 7.2 | 348 | 2 |
| 2010-01-08T11:40 | 3295 | 687 | 9.9 | 7.5 | 336 | 2 |
| 2010-01-08T11:41 | 3343 | 683 | 9.5 | 9.0 | 331 | 3 |
| 2010-01-08T11:41 | 3398 | 679 | 9.6 | 8.6 | 332 | 3 |
| 2010-01-08T11:41 | 3457 | 674 | 9.2 | 8.1 | 336 | 3 |
| 2010-01-08T11:41 | 3498 | 671 | 8.9 | 7.4 | 337 | 3 |
| 2010-01-08T11:41 | 3543 | 667 | 8.6 | 7.1 | 337 | 3 |
| 2010-01-08T11:41 | 3586 | 664 | 8.5 | 5.6 | 340 | 2 |
| 2010-01-08T11:42 | 3644 | 659 | 8.1 | 5.9 | 342 | 2 |
| 2010-01-08T11:42 | 3705 | 654 | 7.9 | 5.7 | 346 | 2 |
| 2010-01-08T11:42 | 3764 | 649 | 7.5 | 5.5 | 359 | 2 |
| 2010-01-08T11:42 | 3821 | 645 | 7.1 | 5.2 | 10 | 3 |
| 2010-01-08T11:42 | 3879 | 640 | 6.8 | 5.0 | 8 | 2 |
| 2010-01-08T11:42 | 3939 | 636 | 6.6 | 4.9 | 350 | 2 |
| 2010-01-08T11:43 | 4000 | 631 | 6.4 | 4.3 | 341 | 1 |
| 2010-01-08T11:43 | 4042 | 628 | 6.3 | 3.7 | 353 | 2 |
| 2010-01-08T11:43 | 4090 | 624 | 5.7 | 5.3 | 1 | 2 |
| 2010-01-08T11:43 | 4131 | 621 | 5.6 | 5.3 | 4 | 2 |
| 2010-01-08T11:43 | 4184 | 617 | 5.6 | 4.5 | 12 | 2 |
| 2010-01-08T11:43 | 4229 | 614 | 5.3 | 3.9 | 20 | 2 |
| 2010-01-08T11:44 | 4270 | 611 | 5.0 | 3.3 | 26 | 2 |
| 2010-01-08T11:44 | 4320 | 607 | 4.8 | 2.7 | 37 | 1 |
| 2010-01-08T11:44 | 4381 | 602 | 4.5 | 3.1 | 56 | 1 |
| 2010-01-08T11:44 | 4427 | 599 | 4.3 | 3.0 | 61 | 1 |
| 2010-01-08T11:44 | 4476 | 595 | 4.1 | 1.8 | 56 | 1 |
| 2010-01-08T11:44 | 4531 | 591 | 3.7 | 1.0 | 51 | 2 |
| 2010-01-08T11:45 | 4585 | 588 | 3.3 | 1.0 | 46 | 2 |
| 2010-01-08T11:45 | 4639 | 584 | 3.0 | 1.0 | 44 | 2 |
| 2010-01-08T11:45 | 4691 | 580 | 2.5 | 0.8 | 51 | 2 |
| 2010-01-08T11:45 | 4753 | 575 | 2.1 | 0.7 | 72 | 1 |
| 2010-01-08T11:45 | 4808 | 572 | 1.7 | 0.6 | 91 | 1 |
| 2010-01-08T11:45 | 4861 | 568 | 1.4 | 0.6 | 99 | 2 |
| 2010-01-08T11:46 | 4909 | 564 | 1.1 | 0.6 | 102 | 2 |
| 2010-01-08T11:46 | 4960 | 561 | 0.9 | 0.2 | 106 | 3 |
| 2010-01-08T11:46 | 5022 | 557 | 0.6 | -0.4 | 111 | 4 |
| 2010-01-08T11:46 | 5069 | 553 | 0.3 | -0.8 | 115 | 4 |
| 2010-01-08T11:46 | 5111 | 550 | 0.0 | -1.3 | 117 | 5 |
| 2010-01-08T11:46 | 5153 | 548 | -0.3 | -1.4 | 118 | 5 |
| 2010-01-08T11:47 | 5206 | 544 | -0.8 | -1.6 | 119 | 5 |
| 2010-01-08T11:47 | 5252 | 541 | -1.2 | -1.7 | 121 | 5 |
| 2010-01-08T11:47 | 5299 | 538 | -1.5 | -1.9 | 122 | 5 |
| 2010-01-08T11:47 | 5343 | 535 | -1.8 | -2.2 | 120 | 5 |
| 2010-01-08T11:47 | 5381 | 532 | -1.9 | -2.6 | 119 | 5 |
| 2010-01-08T11:47 | 5425 | 529 | -1.8 | -3.0 | 121 | 5 |
| 2010-01-08T11:48 | 5465 | 527 | -2.0 | -3.3 | 123 | 6 |
| 2010-01-08T11:48 | 5510 | 524 | -2.3 | -3.6 | 124 | 6 |
| 2010-01-08T11:48 | 5554 | 521 | -2.6 | -3.7 | 123 | 6 |
| 2010-01-08T11:48 | 5604 | 517 | -2.8 | -4.2 | 121 | 5 |
| 2010-01-08T11:48 | 5659 | 514 | -3.0 | -4.7 | 115 | 4 |
| 2010-01-08T11:48 | 5720 | 510 | -3.3 | -5.0 | 103 | 4 |
| 2010-01-08T11:49 | 5774 | 507 | -3.4 | -5.0 | 92 | 4 |
| 2010-01-08T11:49 | 5817 | 504 | -3.7 | -4.9 | 86 | 5 |
| 2010-01-08T11:49 | 5858 | 501 | -4.0 | -4.9 | 84 | 5 |
| 2010-01-08T11:49 | 5897 | 499 | -4.2 | -5.0 | 83 | 5 |
| 2010-01-08T11:49 | 5947 | 496 | -4.4 | -5.2 | 82 | 5 |
| 2010-01-08T11:49 | 6005 | 492 | -4.7 | -5.7 | 81 | 5 |
| 2010-01-08T11:50 | 6060 | 489 | -5.1 | -5.9 | 83 | 6 |
| 2010-01-08T11:50 | 6108 | 485 | -5.4 | -6.1 | 86 | 6 |
| 2010-01-08T11:50 | 6151 | 483 | -5.5 | -6.3 | 89 | 6 |
| 2010-01-08T11:50 | 6192 | 480 | -5.8 | -6.4 | 90 | 6 |
| 2010-01-08T11:50 | 6231 | 478 | -6.0 | -6.6 | 91 | 6 |
| 2010-01-08T11:50 | 6277 | 475 | -6.3 | -6.7 | 91 | 7 |
| 2010-01-08T11:51 | 6320 | 473 | -6.4 | -6.9 | 91 | 7 |
| 2010-01-08T11:51 | 6365 | 470 | -6.7 | -7.3 | 90 | 8 |
| 2010-01-08T11:51 | 6416 | 467 | -7.1 | -8.0 | 87 | 8 |
| 2010-01-08T11:51 | 6473 | 463 | -7.5 | -8.6 | 82 | 8 |
| 2010-01-08T11:51 | 6522 | 461 | -7.5 | -8.6 | 78 | 8 |
| 2010-01-08T11:51 | 6582 | 457 | -7.8 | -8.7 | 74 | 7 |
| 2010-01-08T11:52 | 6644 | 453 | -8.3 | -8.9 | 70 | 7 |
| 2010-01-08T11:52 | 6699 | 450 | -8.6 | -9.2 | 67 | 6 |
| 2010-01-08T11:52 | 6744 | 448 | -9.0 | -9.3 | 65 | 6 |
| 2010-01-08T11:52 | 6788 | 445 | -9.3 | -9.5 | 65 | 7 |
| 2010-01-08T11:52 | 6839 | 442 | -9.6 | -9.7 | 64 | 7 |
| 2010-01-08T11:52 | 6901 | 439 | -10.0 | -10.2 | 65 | 7 |
| 2010-01-08T11:53 | 6969 | 435 | -10.5 | -10.6 | 67 | 7 |
| 2010-01-08T11:53 | 7036 | 431 | -11.0 | -11.0 | 74 | 6 |
| 2010-01-08T11:53 | 7095 | 428 | -11.3 | -11.3 | 81 | 6 |
| 2010-01-08T11:53 | 7157 | 424 | -11.7 | -11.7 | 85 | 6 |
| 2010-01-08T11:53 | 7226 | 420 | -12.2 | -12.2 | 85 | 6 |
| 2010-01-08T11:53 | 7293 | 417 | -12.6 | -12.6 | 86 | 7 |
| 2010-01-08T11:54 | 7339 | 414 | -12.2 | -13.1 | 90 | 7 |
| 2010-01-08T11:54 | 7380 | 412 | -12.1 | -13.3 | 90 | 8 |
| 2010-01-08T11:54 | 7428 | 409 | -12.1 | -13.6 | 87 | 8 |
| 2010-01-08T11:54 | 7474 | 407 | -12.3 | -17.3 | 82 | 9 |
| 2010-01-08T11:54 | 7523 | 404 | -12.5 | -17.2 | 78 | 9 |
| 2010-01-08T11:54 | 7566 | 402 | -12.7 | -17.3 | 76 | 8 |
| 2010-01-08T11:55 | 7607 | 400 | -12.5 | -20.2 | 75 | 7 |
| 2010-01-08T11:55 | 7647 | 398 | -12.4 | -26.3 | 74 | 7 |
| 2010-01-08T11:55 | 7692 | 396 | -12.8 | -25.9 | 75 | 7 |
| 2010-01-08T11:55 | 7737 | 393 | -13.1 | -27.1 | 78 | 6 |
| 2010-01-08T11:55 | 7782 | 391 | -13.5 | -26.9 | 81 | 6 |
| 2010-01-08T11:55 | 7826 | 389 | -13.8 | -26.2 | 82 | 6 |
| 2010-01-08T11:56 | 7870 | 386 | -14.1 | -27.5 | 83 | 5 |
| 2010-01-08T11:56 | 7914 | 384 | -14.6 | -27.3 | 83 | 5 |
| 2010-01-08T11:56 | 7957 | 382 | -15.0 | -26.2 | 81 | 6 |
| 2010-01-08T11:56 | 8000 | 380 | -15.3 | -25.6 | 78 | 6 |
| 2010-01-08T11:56 | 8043 | 378 | -15.6 | -27.1 | 77 | 7 |
| 2010-01-08T11:56 | 8086 | 375 | -15.8 | -30.7 | 76 | 7 |
| 2010-01-08T11:57 | 8129 | 373 | -16.2 | -31.8 | 76 | 7 |
| 2010-01-08T11:57 | 8169 | 371 | -16.5 | -31.7 | 77 | 7 |
| 2010-01-08T11:57 | 8211 | 369 | -16.9 | -29.5 | 80 | 7 |
| 2010-01-08T11:57 | 8251 | 367 | -17.1 | -29.9 | 83 | 7 |
| 2010-01-08T11:57 | 8297 | 365 | -17.5 | -29.4 | 86 | 7 |
| 2010-01-08T11:57 | 8341 | 363 | -17.8 | -28.2 | 92 | 6 |
| 2010-01-08T11:58 | 8384 | 361 | -18.2 | -28.0 | 98 | 6 |
| 2010-01-08T11:58 | 8425 | 359 | -18.4 | -28.8 | 102 | 6 |
| 2010-01-08T11:58 | 8467 | 357 | -18.7 | -28.9 | 102 | 6 |
| 2010-01-08T11:58 | 8512 | 355 | -19.1 | -28.2 | 102 | 6 |
| 2010-01-08T11:58 | 8554 | 353 | -19.5 | -26.6 | 100 | 6 |
| 2010-01-08T11:58 | 8597 | 351 | -19.8 | -29.1 | 99 | 6 |
| 2010-01-08T11:59 | 8637 | 349 | -20.1 | -29.5 | 97 | 6 |
| 2010-01-08T11:59 | 8679 | 347 | -20.5 | -28.2 | 94 | 6 |
| 2010-01-08T11:59 | 8722 | 345 | -20.9 | -28.6 | 92 | 5 |
| 2010-01-08T11:59 | 8765 | 343 | -21.1 | -30.1 | 93 | 5 |
| 2010-01-08T11:59 | 8807 | 341 | -21.4 | -30.2 | 95 | 5 |
| 2010-01-08T11:59 | 8848 | 339 | -21.8 | -30.2 | 95 | 4 |
| 2010-01-08T12:00 | 8888 | 337 | -22.1 | -30.4 | 94 | 4 |
| 2010-01-08T12:00 | 8928 | 335 | -22.5 | -30.5 | 93 | 5 |
| 2010-01-08T12:00 | 8970 | 333 | -22.9 | -30.8 | 94 | 5 |
| 2010-01-08T12:00 | 9012 | 332 | -23.2 | -31.5 | 96 | 5 |
| 2010-01-08T12:00 | 9052 | 330 | -23.6 | -31.8 | 97 | 5 |
| 2010-01-08T12:00 | 9094 | 328 | -23.9 | -32.0 | 100 | 5 |
| 2010-01-08T12:01 | 9132 | 326 | -24.2 | -32.5 | 103 | 6 |
| 2010-01-08T12:01 | 9170 | 324 | -24.5 | -32.8 | 105 | 6 |
| 2010-01-08T12:01 | 9208 | 323 | -24.7 | -33.7 | 105 | 6 |
| 2010-01-08T12:01 | 9247 | 321 | -24.9 | -34.9 | 103 | 6 |
| 2010-01-08T12:01 | 9286 | 319 | -25.1 | -36.1 | 102 | 6 |
| 2010-01-08T12:01 | 9329 | 317 | -25.4 | -36.5 | 104 | 6 |
| 2010-01-08T12:02 | 9373 | 315 | -25.8 | -36.4 | 107 | 6 |
| 2010-01-08T12:02 | 9417 | 314 | -26.2 | -36.4 | 108 | 6 |
| 2010-01-08T12:02 | 9457 | 312 | -26.5 | -36.5 | 108 | 5 |
| 2010-01-08T12:02 | 9498 | 310 | -26.6 | -38.9 | 109 | 4 |
| 2010-01-08T12:02 | 9538 | 308 | -26.7 | -42.7 | 113 | 4 |
| 2010-01-08T12:02 | 9578 | 307 | -27.0 | -42.7 | 117 | 3 |
| 2010-01-08T12:03 | 9619 | 305 | -27.4 | -42.2 | 120 | 4 |
| 2010-01-08T12:03 | 9660 | 303 | -27.8 | -43.4 | 125 | 4 |
| 2010-01-08T12:03 | 9701 | 301 | -28.1 | -44.8 | 130 | 4 |
| 2010-01-08T12:03 | 9744 | 300 | -28.5 | -45.6 | 135 | 3 |
| 2010-01-08T12:03 | 9787 | 298 | -28.8 | -45.5 | 136 | 3 |
| 2010-01-08T12:03 | 9830 | 296 | -29.2 | -45.5 | 133 | 4 |
| 2010-01-08T12:04 | 9875 | 294 | -29.5 | -46.0 | 130 | 4 |
| 2010-01-08T12:04 | 9920 | 292 | -29.9 | -47.2 | 131 | 4 |
| 2010-01-08T12:04 | 9967 | 290 | -30.3 | -46.3 | 135 | 4 |
| 2010-01-08T12:04 | 10010 | 289 | -30.6 | -45.2 | 138 | 5 |
| 2010-01-08T12:04 | 10056 | 287 | -31.1 | -45.0 | 138 | 4 |
| 2010-01-08T12:04 | 10102 | 285 | -31.5 | -45.0 | 137 | 4 |
| 2010-01-08T12:05 | 10147 | 283 | -32.0 | -45.3 | 135 | 4 |
| 2010-01-08T12:05 | 10189 | 281 | -32.4 | -45.3 | 134 | 4 |
| 2010-01-08T12:05 | 10235 | 280 | -32.8 | -45.4 | 133 | 4 |
| 2010-01-08T12:05 | 10277 | 278 | -33.2 | -45.2 | 131 | 4 |
| 2010-01-08T12:05 | 10319 | 276 | -33.4 | -45.4 | 128 | 4 |
| 2010-01-08T12:05 | 10361 | 275 | -33.8 | -46.0 | 124 | 4 |
| 2010-01-08T12:06 | 10402 | 273 | -34.2 | -46.2 | 121 | 4 |
| 2010-01-08T12:06 | 10442 | 271 | -34.4 | -46.8 | 118 | 4 |
| 2010-01-08T12:06 | 10484 | 270 | -34.5 | -48.1 | 120 | 3 |
| 2010-01-08T12:06 | 10526 | 268 | -34.9 | -48.8 | 126 | 3 |
| 2010-01-08T12:06 | 10568 | 267 | -35.3 | -48.9 | 132 | 3 |
| 2010-01-08T12:06 | 10608 | 265 | -35.6 | -48.1 | 134 | 3 |
| 2010-01-08T12:07 | 10647 | 264 | -36.0 | -48.4 | 134 | 3 |
| 2010-01-08T12:07 | 10689 | 262 | -36.3 | -49.4 | 130 | 3 |
| 2010-01-08T12:07 | 10731 | 260 | -36.6 | -50.3 | 125 | 3 |
| 2010-01-08T12:07 | 10773 | 259 | -37.0 | -50.7 | 121 | 4 |
| 2010-01-08T12:07 | 10815 | 257 | -37.3 | -51.3 | 120 | 4 |
| 2010-01-08T12:07 | 10856 | 256 | -37.7 | -51.7 | 120 | 5 |
| 2010-01-08T12:08 | 10895 | 254 | -38.1 | -51.9 | 121 | 5 |
| 2010-01-08T12:08 | 10933 | 253 | -38.4 | -52.1 | 122 | 5 |
| 2010-01-08T12:08 | 10974 | 251 | -38.7 | -53.2 | 122 | 5 |
| 2010-01-08T12:08 | 11012 | 250 | -39.0 | -54.2 | 120 | 5 |
| 2010-01-08T12:08 | 11052 | 249 | -39.3 | -54.0 | 118 | 5 |
| 2010-01-08T12:08 | 11090 | 247 | -39.6 | -54.4 | 117 | 5 |
| 2010-01-08T12:09 | 11130 | 246 | -40.0 | -54.8 | 117 | 5 |
| 2010-01-08T12:09 | 11168 | 244 | -40.3 | -54.5 | 120 | 5 |
| 2010-01-08T12:09 | 11207 | 243 | -40.6 | -55.2 | 124 | 5 |
| 2010-01-08T12:09 | 11246 | 242 | -41.0 | -55.5 | 128 | 5 |
| 2010-01-08T12:09 | 11285 | 240 | -41.3 | -55.5 | 131 | 5 |
| 2010-01-08T12:09 | 11324 | 239 | -41.6 | -55.8 | 132 | 5 |
| 2010-01-08T12:10 | 11364 | 237 | -42.0 | -55.8 | 130 | 5 |
| 2010-01-08T12:10 | 11405 | 236 | -42.4 | -56.0 | 127 | 5 |
| 2010-01-08T12:10 | 11446 | 235 | -42.7 | -56.6 | 125 | 5 |
| 2010-01-08T12:10 | 11486 | 233 | -43.1 | -57.2 | 124 | 5 |
| 2010-01-08T12:10 | 11525 | 232 | -43.4 | -57.6 | 124 | 5 |
| 2010-01-08T12:10 | 11567 | 230 | -43.8 | -58.0 | 125 | 5 |
| 2010-01-08T12:11 | 11606 | 229 | -44.2 | -58.5 | 125 | 5 |
| 2010-01-08T12:11 | 11646 | 228 | -44.5 | -58.7 | 124 | 5 |
| 2010-01-08T12:11 | 11686 | 226 | -44.9 | -58.8 | 126 | 5 |
| 2010-01-08T12:11 | 11730 | 225 | -45.3 | -58.7 | 131 | 6 |
| 2010-01-08T12:11 | 11771 | 223 | -45.6 | -58.8 | 137 | 6 |
| 2010-01-08T12:11 | 11814 | 222 | -45.9 | -59.4 | 140 | 6 |
| 2010-01-08T12:12 | 11854 | 221 | -46.3 | -60.0 | 142 | 7 |
| 2010-01-08T12:12 | 11894 | 219 | -46.6 | -60.4 | 142 | 7 |
| 2010-01-08T12:12 | 11934 | 218 | -47.0 | -60.6 | 141 | 7 |
| 2010-01-08T12:12 | 11975 | 217 | -47.4 | -60.8 | 140 | 6 |
| 2010-01-08T12:12 | 12014 | 215 | -47.7 | -61.0 | 139 | 6 |
| 2010-01-08T12:12 | 12054 | 214 | -48.1 | -61.2 | 137 | 7 |
| 2010-01-08T12:13 | 12094 | 213 | -48.5 | -61.4 | 134 | 7 |
| 2010-01-08T12:13 | 12133 | 212 | -48.8 | -61.5 | 132 | 7 |
| 2010-01-08T12:13 | 12174 | 210 | -49.1 | -61.9 | 130 | 7 |
| 2010-01-08T12:13 | 12214 | 209 | -49.5 | -62.1 | 130 | 7 |
| 2010-01-08T12:13 | 12255 | 208 | -49.9 | -62.3 | 129 | 7 |
| 2010-01-08T12:13 | 12296 | 206 | -50.2 | -62.4 | 127 | 7 |
| 2010-01-08T12:14 | 12336 | 205 | -50.6 | -62.5 | 124 | 8 |
| 2010-01-08T12:14 | 12378 | 204 | -50.8 | -62.7 | 121 | 8 |
| 2010-01-08T12:14 | 12418 | 203 | -51.1 | -63.1 | 120 | 8 |
| 2010-01-08T12:14 | 12460 | 201 | -51.5 | -63.6 | 120 | 8 |
| 2010-01-08T12:14 | 12501 | 200 | -51.8 | -64.1 | 120 | 7 |
| 2010-01-08T12:14 | 12543 | 199 | -52.2 | -64.4 | 119 | 7 |
| 2010-01-08T12:15 | 12586 | 197 | -52.6 | -64.7 | 119 | 7 |
| 2010-01-08T12:15 | 12628 | 196 | -52.9 | -65.0 | 119 | 7 |
| 2010-01-08T12:15 | 12670 | 195 | -53.2 | -65.1 | 119 | 7 |
| 2010-01-08T12:15 | 12712 | 194 | -53.6 | -64.2 | 119 | 6 |
| 2010-01-08T12:15 | 12754 | 192 | -54.0 | -63.4 | 120 | 6 |
| 2010-01-08T12:15 | 12796 | 191 | -54.4 | -62.9 | 119 | 6 |
| 2010-01-08T12:16 | 12844 | 190 | -54.8 | -62.7 | 115 | 6 |
| 2010-01-08T12:16 | 12892 | 188 | -55.2 | -62.8 | 109 | 6 |
| 2010-01-08T12:16 | 12944 | 187 | -55.7 | -62.8 | 105 | 7 |
| 2010-01-08T12:16 | 12990 | 185 | -56.1 | -62.7 | 103 | 7 |
| 2010-01-08T12:16 | 13036 | 184 | -56.5 | -62.5 | 102 | 7 |
| 2010-01-08T12:16 | 13078 | 183 | -56.9 | -62.5 | 103 | 8 |
| 2010-01-08T12:17 | 13121 | 182 | -57.3 | -62.5 | 105 | 8 |
| 2010-01-08T12:17 | 13163 | 180 | -57.6 | -62.6 | 108 | 8 |
| 2010-01-08T12:17 | 13206 | 179 | -58.0 | -62.8 | 110 | 8 |
| 2010-01-08T12:17 | 13248 | 178 | -58.3 | -63.0 | 112 | 8 |
| 2010-01-08T12:17 | 13288 | 177 | -58.7 | -63.2 | 112 | 8 |
| 2010-01-08T12:17 | 13330 | 176 | -59.1 | -63.3 | 112 | 8 |
| 2010-01-08T12:18 | 13372 | 174 | -59.5 | -63.5 | 114 | 8 |
| 2010-01-08T12:18 | 13414 | 173 | -59.8 | -63.9 | 118 | 8 |
| 2010-01-08T12:18 | 13457 | 172 | -60.0 | -64.4 | 120 | 8 |
| 2010-01-08T12:18 | 13502 | 171 | -60.4 | -65.0 | 121 | 7 |
| 2010-01-08T12:18 | 13551 | 169 | -60.7 | -65.5 | 118 | 7 |
| 2010-01-08T12:18 | 13607 | 168 | -61.0 | -66.3 | 110 | 6 |
| 2010-01-08T12:19 | 13672 | 166 | -61.5 | -67.3 | 101 | 6 |
| 2010-01-08T12:19 | 13729 | 165 | -62.0 | -68.4 | 95 | 6 |
| 2010-01-08T12:19 | 13792 | 163 | -62.6 | -69.4 | 94 | 7 |
| 2010-01-08T12:19 | 13847 | 162 | -63.1 | -70.2 | 92 | 7 |
| 2010-01-08T12:19 | 13901 | 160 | -63.6 | -70.8 | 88 | 8 |
| 2010-01-08T12:19 | 13945 | 159 | -64.0 | -71.4 | 85 | 8 |
| 2010-01-08T12:20 | 13989 | 158 | -64.4 | -71.9 | 83 | 8 |
| 2010-01-08T12:20 | 14034 | 157 | -64.8 | -72.4 | 81 | 9 |
| 2010-01-08T12:20 | 14084 | 155 | -65.3 | -72.8 | 77 | 9 |
| 2010-01-08T12:20 | 14127 | 154 | -65.6 | -73.2 | 72 | 9 |
| 2010-01-08T12:20 | 14168 | 153 | -65.8 | -73.7 | 68 | 9 |
| 2010-01-08T12:20 | 14211 | 152 | -66.2 | -74.2 | 65 | 9 |
| 2010-01-08T12:21 | 14254 | 151 | -66.6 | -74.6 | 64 | 9 |
| 2010-01-08T12:21 | 14299 | 150 | -66.9 | -75.1 | 62 | 10 |
| 2010-01-08T12:21 | 14344 | 149 | -67.3 | -75.4 | 62 | 11 |
| 2010-01-08T12:21 | 14387 | 148 | -67.4 | -75.7 | 63 | 12 |
| 2010-01-08T12:21 | 14431 | 147 | -67.8 | -76.1 | 65 | 12 |
| 2010-01-08T12:21 | 14478 | 146 | -68.1 | -76.4 | 66 | 13 |
| 2010-01-08T12:22 | 14523 | 145 | -68.5 | -76.8 | 67 | 14 |
| 2010-01-08T12:22 | 14572 | 143 | -68.9 | -77.2 | 68 | 14 |
| 2010-01-08T12:22 | 14617 | 142 | -69.3 | -77.5 | 69 | 15 |
| 2010-01-08T12:22 | 14663 | 141 | -69.7 | -77.8 | 69 | 16 |
| 2010-01-08T12:22 | 14706 | 140 | -70.0 | -78.0 | 68 | 16 |
| 2010-01-08T12:22 | 14753 | 139 | -70.4 | -78.3 | 67 | 16 |
| 2010-01-08T12:23 | 14797 | 138 | -70.8 | -78.7 | 66 | 16 |
| 2010-01-08T12:23 | 14843 | 137 | -71.1 | -79.0 | 66 | 16 |
| 2010-01-08T12:23 | 14886 | 136 | -71.4 | -79.4 | 68 | 17 |
| 2010-01-08T12:23 | 14931 | 135 | -71.7 | -79.6 | 69 | 17 |
| 2010-01-08T12:23 | 14975 | 134 | -71.9 | -79.8 | 69 | 18 |
| 2010-01-08T12:23 | 15019 | 133 | -72.3 | -80.2 | 69 | 18 |
| 2010-01-08T12:24 | 15062 | 132 | -72.6 | -80.6 | 69 | 19 |
| 2010-01-08T12:24 | 15106 | 131 | -73.0 | -80.9 | 69 | 19 |
| 2010-01-08T12:24 | 15151 | 130 | -73.4 | -81.3 | 69 | 19 |
| 2010-01-08T12:24 | 15195 | 129 | -73.7 | -81.6 | 68 | 19 |
| 2010-01-08T12:24 | 15238 | 128 | -74.0 | -81.9 | 68 | 19 |
| 2010-01-08T12:24 | 15280 | 127 | -74.3 | -82.2 | 68 | 19 |
| 2010-01-08T12:25 | 15325 | 126 | -74.7 | -82.5 | 68 | 19 |
| 2010-01-08T12:25 | 15368 | 125 | -75.1 | -82.8 | 69 | 19 |
| 2010-01-08T12:25 | 15412 | 124 | -75.5 | -83.1 | 70 | 19 |
| 2010-01-08T12:25 | 15454 | 123 | -75.9 | -83.4 | 70 | 18 |
| 2010-01-08T12:25 | 15499 | 122 | -76.3 | -83.7 | 70 | 18 |
| 2010-01-08T12:25 | 15543 | 121 | -76.6 | -84.0 | 70 | 17 |
| 2010-01-08T12:26 | 15587 | 121 | -76.9 | -84.4 | 71 | 17 |
| 2010-01-08T12:26 | 15630 | 120 | -77.3 | -84.7 | 72 | 17 |
| 2010-01-08T12:26 | 15673 | 119 | -77.7 | -85.1 | 73 | 17 |
| 2010-01-08T12:26 | 15718 | 118 | -78.1 | -85.4 | 74 | 16 |
| 2010-01-08T12:26 | 15761 | 117 | -78.5 | -85.8 | 76 | 16 |
| 2010-01-08T12:26 | 15804 | 116 | -78.9 | -86.1 | 77 | 16 |
| 2010-01-08T12:27 | 15847 | 115 | -79.3 | -86.3 | 77 | 15 |
| 2010-01-08T12:27 | 15891 | 114 | -79.6 | -86.6 | 79 | 14 |
| 2010-01-08T12:27 | 15936 | 113 | -80.0 | -86.9 | 81 | 14 |
| 2010-01-08T12:27 | 15980 | 113 | -80.3 | -87.2 | 85 | 13 |
| 2010-01-08T12:27 | 16023 | 112 | -80.6 | -87.5 | 89 | 12 |
| 2010-01-08T12:27 | 16065 | 111 | -80.6 | -87.5 | 91 | 12 |
| 2010-01-08T12:28 | 16108 | 110 | -80.9 | -87.7 | 94 | 12 |
| 2010-01-08T12:28 | 16151 | 109 | -81.2 | -87.9 | 96 | 12 |
| 2010-01-08T12:28 | 16194 | 108 | -81.6 | -88.2 | 97 | 13 |
| 2010-01-08T12:28 | 16238 | 107 | -81.9 | -88.5 | 97 | 13 |
| 2010-01-08T12:28 | 16283 | 107 | -82.3 | -88.9 | 96 | 13 |
| 2010-01-08T12:28 | 16326 | 106 | -82.7 | -89.2 | 95 | 13 |
| 2010-01-08T12:29 | 16369 | 105 | -83.1 | -89.6 | 95 | 13 |
| 2010-01-08T12:29 | 16414 | 104 | -83.4 | -89.9 | 96 | 14 |
| 2010-01-08T12:29 | 16457 | 103 | -83.7 | -90.2 | 96 | 14 |
| 2010-01-08T12:29 | 16500 | 103 | -84.2 | -90.5 | 96 | 14 |
| 2010-01-08T12:29 | 16544 | 102 | -84.5 | -90.8 | 96 | 14 |
| 2010-01-08T12:29 | 16586 | 101 | -84.9 | -91.2 | 96 | 15 |
| 2010-01-08T12:30 | 16629 | 100 | -85.2 | -91.5 | 98 | 15 |
| 2010-01-08T12:30 | 16671 | 99 | -85.5 | -91.8 | 100 | 15 |
| 2010-01-08T12:30 | 16713 | 99 | -85.7 | -91.9 | 104 | 15 |
| 2010-01-08T12:30 | 16754 | 98 | -85.7 | -92.0 | 107 | 15 |
| 2010-01-08T12:30 | 16795 | 97 | -85.8 | -92.1 | 111 | 15 |
| 2010-01-08T12:30 | 16836 | 96 | -85.8 | -92.0 | 116 | 15 |
| 2010-01-08T12:31 | 16877 | 96 | -85.7 | -92.0 | 120 | 15 |
| 2010-01-08T12:31 | 16916 | 95 | -85.7 | -91.9 | 125 | 16 |
| 2010-01-08T12:31 | 16956 | 94 | -85.3 | -91.6 | 130 | 16 |
| 2010-01-08T12:31 | 16996 | 94 | -85.2 | -91.4 | 133 | 16 |
| 2010-01-08T12:31 | 17035 | 93 | -85.3 | -91.5 | 134 | 16 |
| 2010-01-08T12:31 | 17075 | 92 | -85.1 | -91.3 | 132 | 17 |
| 2010-01-08T12:32 | 17115 | 92 | -85.1 | -91.3 | 128 | 18 |
| 2010-01-08T12:32 | 17157 | 91 | -84.1 | -90.4 | 122 | 18 |
| 2010-01-08T12:32 | 17200 | 90 | -83.8 | -90.1 | 115 | 18 |
| 2010-01-08T12:32 | 17242 | 90 | -82.0 | -88.4 | 110 | 18 |
| 2010-01-08T12:32 | 17284 | 89 | -82.1 | -88.4 | 108 | 18 |
| 2010-01-08T12:32 | 17327 | 88 | -81.1 | -87.6 | 109 | 17 |
| 2010-01-08T12:33 | 17371 | 88 | -81.0 | -87.4 | 111 | 15 |
| 2010-01-08T12:33 | 17414 | 87 | -80.2 | -86.7 | 113 | 13 |
| 2010-01-08T12:33 | 17457 | 86 | -79.6 | -86.2 | 116 | 11 |
| 2010-01-08T12:33 | 17500 | 86 | -79.4 | -86.1 | 123 | 9 |
| 2010-01-08T12:33 | 17545 | 85 | -79.3 | -86.2 | 137 | 7 |
| 2010-01-08T12:33 | 17587 | 84 | -77.6 | -84.7 | 153 | 6 |
| 2010-01-08T12:34 | 17631 | 84 | -77.4 | -84.7 | 169 | 5 |
| 2010-01-08T12:34 | 17673 | 83 | -76.7 | -84.1 | 187 | 4 |
| 2010-01-08T12:34 | 17714 | 82 | -76.6 | -84.2 | 205 | 4 |
| 2010-01-08T12:34 | 17756 | 82 | -76.7 | -84.4 | 221 | 4 |
| 2010-01-08T12:34 | 17799 | 81 | -76.9 | -84.8 | 235 | 5 |
| 2010-01-08T12:34 | 17840 | 81 | -76.8 | -84.9 | 246 | 6 |
| 2010-01-08T12:35 | 17882 | 80 | -76.9 | -85.2 | 253 | 7 |
| 2010-01-08T12:35 | 17923 | 79 | -76.8 | -85.2 | 255 | 8 |
| 2010-01-08T12:35 | 17965 | 79 | -77.0 | -85.5 | 253 | 8 |
| 2010-01-08T12:35 | 18008 | 78 | -76.9 | -85.5 | 251 | 9 |
| 2010-01-08T12:35 | 18051 | 78 | -76.5 | -85.4 | 249 | 10 |
| 2010-01-08T12:35 | 18091 | 77 | -76.1 | -85.1 | 248 | 12 |
| 2010-01-08T12:36 | 18133 | 77 | -76.1 | -85.3 | 247 | 13 |
| 2010-01-08T12:36 | 18175 | 76 | -76.2 | -85.5 | 246 | 13 |
| 2010-01-08T12:36 | 18218 | 76 | -76.4 | -85.8 | 244 | 13 |
| 2010-01-08T12:36 | 18259 | 75 | -76.4 | -86.0 | 244 | 12 |
| 2010-01-08T12:36 | 18302 | 74 | -76.5 | -86.1 | 245 | 11 |
| 2010-01-08T12:36 | 18345 | 74 | -76.2 | -86.0 | 247 | 11 |
| 2010-01-08T12:37 | 18389 | 73 | -75.9 | -85.9 | 250 | 11 |
| 2010-01-08T12:37 | 18433 | 73 | -75.6 | -85.7 | 252 | 12 |
| 2010-01-08T12:37 | 18475 | 72 | -75.9 | -86.1 | 255 | 13 |
| 2010-01-08T12:37 | 18518 | 72 | -75.9 | -86.2 | 257 | 13 |
| 2010-01-08T12:37 | 18562 | 71 | -76.3 | -86.6 | 260 | 14 |
| 2010-01-08T12:37 | 18606 | 71 | -76.5 | -87.0 | 263 | 15 |
| 2010-01-08T12:38 | 18649 | 70 | -76.7 | -87.2 | 267 | 15 |
| 2010-01-08T12:38 | 18693 | 70 | -76.8 | -87.3 | 270 | 16 |
| 2010-01-08T12:38 | 18736 | 69 | -77.0 | -87.6 | 273 | 16 |
| 2010-01-08T12:38 | 18779 | 69 | -77.0 | -87.7 | 275 | 17 |
| 2010-01-08T12:38 | 18821 | 68 | -77.3 | -88.0 | 276 | 17 |
| 2010-01-08T12:38 | 18867 | 67 | -77.5 | -88.3 | 276 | 18 |
| 2010-01-08T12:39 | 18910 | 67 | -77.8 | -88.5 | 275 | 18 |
| 2010-01-08T12:39 | 18955 | 66 | -77.9 | -88.7 | 275 | 19 |
| 2010-01-08T12:39 | 18998 | 66 | -78.2 | -89.0 | 274 | 19 |
| 2010-01-08T12:39 | 19042 | 65 | -78.4 | -89.2 | 272 | 19 |
| 2010-01-08T12:39 | 19085 | 65 | -78.5 | -89.3 | 270 | 19 |
| 2010-01-08T12:39 | 19129 | 64 | -78.6 | -89.3 | 269 | 19 |
| 2010-01-08T12:40 | 19172 | 64 | -78.6 | -89.4 | 269 | 18 |
| 2010-01-08T12:40 | 19214 | 63 | -78.1 | -89.0 | 267 | 17 |
| 2010-01-08T12:40 | 19258 | 63 | -78.0 | -88.9 | 264 | 16 |
| 2010-01-08T12:40 | 19301 | 63 | -77.6 | -88.6 | 259 | 16 |
| 2010-01-08T12:40 | 19343 | 62 | -76.9 | -88.0 | 254 | 16 |
| 2010-01-08T12:40 | 19385 | 62 | -76.8 | -87.9 | 251 | 17 |
| 2010-01-08T12:41 | 19427 | 61 | -75.5 | -86.9 | 249 | 17 |
| 2010-01-08T12:41 | 19467 | 61 | -75.7 | -87.1 | 247 | 17 |
| 2010-01-08T12:41 | 19509 | 60 | -75.8 | -87.2 | 245 | 17 |
| 2010-01-08T12:41 | 19551 | 60 | -75.9 | -87.4 | 242 | 16 |
| 2010-01-08T12:41 | 19593 | 59 | -76.0 | -87.6 | 240 | 16 |
| 2010-01-08T12:41 | 19634 | 59 | -76.0 | -87.6 | 240 | 16 |
| 2010-01-08T12:42 | 19677 | 59 | -76.2 | -87.8 | 239 | 16 |
| 2010-01-08T12:42 | 19721 | 58 | -76.5 | -88.2 | 238 | 16 |
| 2010-01-08T12:42 | 19764 | 58 | -76.8 | -88.4 | 238 | 16 |
| 2010-01-08T12:42 | 19809 | 57 | -76.9 | -88.6 | 238 | 16 |
| 2010-01-08T12:42 | 19852 | 57 | -77.0 | -88.8 | 237 | 15 |
| 2010-01-08T12:42 | 19897 | 56 | -76.5 | -88.4 | 235 | 14 |
| 2010-01-08T12:43 | 19941 | 56 | -76.0 | -88.0 | 232 | 12 |
| 2010-01-08T12:43 | 19986 | 56 | -76.0 | -88.0 | 229 | 10 |
| 2010-01-08T12:43 | 20031 | 55 | -76.1 | -88.1 | 223 | 8 |
| 2010-01-08T12:43 | 20075 | 55 | -75.6 | -87.8 | 216 | 6 |
| 2010-01-08T12:43 | 20119 | 54 | -74.2 | -86.8 | 212 | 4 |
| 2010-01-08T12:43 | 20164 | 54 | -73.5 | -86.3 | 221 | 2 |
| 2010-01-08T12:44 | 20208 | 53 | -72.6 | -85.7 | 268 | 1 |
| 2010-01-08T12:44 | 20253 | 53 | -71.3 | -84.8 | 330 | 2 |
| 2010-01-08T12:44 | 20299 | 53 | -70.8 | -84.6 | 347 | 3 |
| 2010-01-08T12:44 | 20342 | 52 | -70.3 | -84.5 | 347 | 4 |
| 2010-01-08T12:44 | 20387 | 52 | -70.4 | -84.8 | 343 | 5 |
| 2010-01-08T12:44 | 20435 | 51 | -70.4 | -85.2 | 339 | 6 |
| 2010-01-08T12:45 | 20481 | 51 | -70.7 | -85.7 | 334 | 6 |
| 2010-01-08T12:45 | 20528 | 51 | -71.0 | -86.2 | 329 | 7 |
| 2010-01-08T12:45 | 20575 | 50 | -71.3 | -86.8 | 324 | 8 |
| 2010-01-08T12:45 | 20620 | 50 | -71.5 | -87.2 | 322 | 8 |
| 2010-01-08T12:45 | 20665 | 49 | -71.7 | -87.6 | 319 | 9 |
| 2010-01-08T12:45 | 20711 | 49 | -71.9 | -88.0 | 317 | 8 |
| 2010-01-08T12:46 | 20757 | 49 | -71.6 | -88.0 | 317 | 8 |
| 2010-01-08T12:46 | 20802 | 48 | -71.8 | -88.3 | 321 | 7 |
| 2010-01-08T12:46 | 20848 | 48 | -71.7 | -88.4 | 329 | 7 |
| 2010-01-08T12:46 | 20893 | 48 | -71.7 | -88.6 | 338 | 7 |
| 2010-01-08T12:46 | 20939 | 47 | -71.6 | -88.7 | 343 | 8 |
| 2010-01-08T12:46 | 20986 | 47 | -70.7 | -88.2 | 343 | 9 |
| 2010-01-08T12:47 | 21029 | 47 | -70.5 | -88.2 | 344 | 10 |
| 2010-01-08T12:47 | 21074 | 46 | -70.5 | -88.4 | 347 | 10 |
| 2010-01-08T12:47 | 21118 | 46 | -70.4 | -88.5 | 351 | 10 |
| 2010-01-08T12:47 | 21164 | 45 | -70.6 | -88.8 | 356 | 10 |
| 2010-01-08T12:47 | 21208 | 45 | -70.7 | -89.1 | 1 | 10 |
| 2010-01-08T12:47 | 21255 | 45 | -70.9 | -89.4 | 7 | 11 |
| 2010-01-08T12:48 | 21300 | 44 | -70.9 | -89.6 | 12 | 11 |
| 2010-01-08T12:48 | 21346 | 44 | -70.3 | -89.4 | 16 | 11 |
| 2010-01-08T12:48 | 21391 | 44 | -69.6 | -89.0 | 20 | 10 |
| 2010-01-08T12:48 | 21435 | 43 | -69.0 | -88.8 | 23 | 10 |
| 2010-01-08T12:48 | 21482 | 43 | -68.8 | -88.8 | 24 | 10 |
| 2010-01-08T12:48 | 21528 | 43 | -68.6 | -88.8 | 23 | 10 |
| 2010-01-08T12:49 | 21574 | 42 | -68.5 | -89.0 | 21 | 10 |
| 2010-01-08T12:49 | 21620 | 42 | -68.5 | -89.2 | 23 | 10 |
| 2010-01-08T12:49 | 21668 | 42 | -68.8 | -89.6 | 29 | 10 |
| 2010-01-08T12:49 | 21715 | 41 | -69.0 | -90.0 | 36 | 10 |
| 2010-01-08T12:49 | 21761 | 41 | -69.3 | -90.4 | 45 | 10 |
| 2010-01-08T12:49 | 21805 | 41 | -69.4 | -90.7 | 55 | 10 |
| 2010-01-08T12:50 | 21854 | 41 | -69.3 | -90.8 | 67 | 10 |
| 2010-01-08T12:50 | 21901 | 40 | -68.8 | -90.7 | 79 | 9 |
| 2010-01-08T12:50 | 21948 | 40 | -68.6 | -90.6 | 86 | 10 |
| 2010-01-08T12:50 | 21994 | 40 | -68.6 | -90.7 | 89 | 10 |
| 2010-01-08T12:50 | 22041 | 39 | -68.6 | -90.8 | 90 | 12 |
| 2010-01-08T12:50 | 22089 | 39 | -68.8 | -91.1 | 90 | 13 |
| 2010-01-08T12:51 | 22138 | 39 | -69.0 | -91.4 | 90 | 13 |
| 2010-01-08T12:51 | 22185 | 38 | -69.2 | -91.6 | 91 | 15 |
| 2010-01-08T12:51 | 22233 | 38 | -68.5 | -91.4 | 90 | 16 |
| 2010-01-08T12:51 | 22280 | 38 | -67.6 | -90.9 | 88 | 18 |
| 2010-01-08T12:51 | 22326 | 37 | -67.3 | -90.8 | 86 | 19 |
| 2010-01-08T12:51 | 22374 | 37 | -67.5 | -91.0 | 84 | 20 |
| 2010-01-08T12:52 | 22424 | 37 | -67.6 | -91.2 | 83 | 22 |
| 2010-01-08T12:52 | 22471 | 37 | -67.4 | -91.2 | 84 | 23 |
| 2010-01-08T12:52 | 22518 | 36 | -67.0 | -91.1 | 87 | 23 |
| 2010-01-08T12:52 | 22568 | 36 | -66.4 | -90.9 | 90 | 22 |
| 2010-01-08T12:52 | 22616 | 36 | -65.8 | -90.7 | 91 | 22 |
| 2010-01-08T12:52 | 22665 | 35 | -65.7 | -90.7 | 90 | 22 |
| 2010-01-08T12:53 | 22715 | 35 | -65.3 | -90.6 | 86 | 22 |
| 2010-01-08T12:53 | 22765 | 35 | -64.4 | -90.2 | 83 | 23 |
| 2010-01-08T12:53 | 22815 | 35 | -63.8 | -90.0 | 82 | 24 |
| 2010-01-08T12:53 | 22864 | 34 | -63.0 | -89.7 | 82 | 25 |
| 2010-01-08T12:53 | 22912 | 34 | -62.9 | -89.7 | 83 | 26 |
| 2010-01-08T12:53 | 22963 | 34 | -62.5 | -89.7 | 85 | 27 |
| 2010-01-08T12:54 | 23012 | 33 | -62.5 | -89.8 | 86 | 27 |
| 2010-01-08T12:54 | 23062 | 33 | -62.7 | -90.1 | 87 | 28 |
| 2010-01-08T12:54 | 23111 | 33 | -63.0 | -90.4 | 88 | 29 |
| 2010-01-08T12:54 | 23161 | 33 | -63.0 | -90.6 | 88 | 30 |
| 2010-01-08T12:54 | 23209 | 32 | -63.0 | -90.8 | 87 | 30 |
| 2010-01-08T12:54 | 23259 | 32 | -63.2 | -91.1 | 88 | 31 |
| 2010-01-08T12:55 | 23306 | 32 | -63.4 | -91.3 | 89 | 31 |
| 2010-01-08T12:55 | 23351 | 32 | -63.7 | -91.6 | 90 | 31 |
| 2010-01-08T12:55 | 23403 | 31 | -64.1 | -91.9 | 90 | 32 |
| 2010-01-08T12:55 | 23450 | 31 | -64.4 | -92.2 | 91 | 32 |
| 2010-01-08T12:55 | 23500 | 31 | -64.7 | -92.4 | 91 | 32 |
| 2010-01-08T12:55 | 23545 | 31 | -64.6 | -92.5 | 92 | 31 |
| 2010-01-08T12:56 | 23593 | 30 | -64.8 | -92.7 | 92 | 31 |
| 2010-01-08T12:56 | 23644 | 30 | -65.1 | -92.9 | 92 | 31 |
| 2010-01-08T12:56 | 23694 | 30 | -65.0 | -92.9 | 91 | 30 |
| 2010-01-08T12:56 | 23744 | 30 | -65.0 | -92.9 | 90 | 30 |
| 2010-01-08T12:56 | 23793 | 29 | -65.1 | -93.0 | 90 | 30 |
| 2010-01-08T12:56 | 23844 | 29 | -64.9 | -92.9 | 92 | 31 |
| 2010-01-08T12:57 | 23894 | 29 | -64.7 | -92.9 | 94 | 30 |
| 2010-01-08T12:57 | 23943 | 29 | -64.6 | -92.8 | 96 | 29 |
| 2010-01-08T12:57 | 23992 | 28 | -64.1 | -92.6 | 97 | 29 |
| 2010-01-08T12:57 | 24040 | 28 | -63.0 | -92.2 | 98 | 28 |
| 2010-01-08T12:57 | 24090 | 28 | -62.0 | -91.6 | 99 | 29 |
| 2010-01-08T12:57 | 24140 | 28 | -61.7 | -91.3 | 101 | 28 |
| 2010-01-08T12:58 | 24192 | 28 | -61.3 | -91.0 | 102 | 28 |
| 2010-01-08T12:58 | 24240 | 27 | -61.4 | -90.9 | 103 | 29 |
| 2010-01-08T12:58 | 24291 | 27 | -61.7 | -91.0 | 103 | 29 |
| 2010-01-08T12:58 | 24342 | 27 | -62.0 | -91.2 | 103 | 28 |
| 2010-01-08T12:58 | 24390 | 27 | -62.3 | -91.4 | 102 | 28 |
| 2010-01-08T12:58 | 24441 | 26 | -62.5 | -91.6 | 101 | 28 |
| 2010-01-08T12:59 | 24492 | 26 | -62.7 | -91.7 | 98 | 28 |
| 2010-01-08T12:59 | 24541 | 26 | -62.0 | -91.6 | 96 | 28 |
| 2010-01-08T12:59 | 24592 | 26 | -60.9 | -91.3 | 95 | 29 |
| 2010-01-08T12:59 | 24642 | 26 | -60.1 | -90.8 | 94 | 29 |
| 2010-01-08T12:59 | 24691 | 25 | -59.5 | -90.5 | 92 | 31 |
| 2010-01-08T12:59 | 24740 | 25 | -59.0 | -90.1 | 91 | 33 |
| 2010-01-08T13:00 | 24792 | 25 | -57.3 | -88.9 | 91 | 34 |
| 2010-01-08T13:00 | 24841 | 25 | -56.8 | -88.6 | 91 | 35 |
| 2010-01-08T13:00 | 24891 | 25 | -56.5 | -88.3 | 91 | 36 |
| 2010-01-08T13:00 | 24943 | 24 | -56.4 | -88.3 | 91 | 37 |
| 2010-01-08T13:00 | 24993 | 24 | -56.6 | -88.3 | 91 | 37 |
| 2010-01-08T13:00 | 25043 | 24 | -56.3 | -88.2 | 90 | 37 |
| 2010-01-08T13:01 | 25089 | 24 | -56.2 | -88.1 | 89 | 37 |
| 2010-01-08T13:01 | 25143 | 24 | -56.3 | -88.1 | 88 | 37 |
| 2010-01-08T13:01 | 25192 | 24 | -55.8 | -87.9 | 88 | 37 |
| 2010-01-08T13:01 | 25245 | 23 | -55.5 | -87.7 | 88 | 38 |
| 2010-01-08T13:01 | 25294 | 23 | -55.4 | -87.6 | 88 | 38 |
| 2010-01-08T13:01 | 25346 | 23 | -55.1 | -87.4 | 88 | 39 |
| 2010-01-08T13:02 | 25398 | 23 | -55.1 | -87.4 | 88 | 38 |
| 2010-01-08T13:02 | 25450 | 23 | -55.0 | -87.3 | 88 | 38 |
| 2010-01-08T13:02 | 25502 | 22 | -54.9 | -87.2 | 87 | 37 |
| 2010-01-08T13:02 | 25553 | 22 | -54.9 | -87.2 | 87 | 37 |
| 2010-01-08T13:02 | 25607 | 22 | -54.9 | -87.1 | 87 | 37 |
| 2010-01-08T13:02 | 25659 | 22 | -54.9 | -87.1 | 87 | 37 |
| 2010-01-08T13:03 | 25710 | 22 | -54.7 | -87.0 | 87 | 37 |
| 2010-01-08T13:03 | 25764 | 21 | -54.6 | -86.9 | 87 | 37 |
| 2010-01-08T13:03 | 25815 | 21 | -54.3 | -86.8 | 87 | 37 |
| 2010-01-08T13:03 | 25868 | 21 | -53.8 | -86.5 | 88 | 37 |
| 2010-01-08T13:03 | 25921 | 21 | -53.0 | -85.9 | 89 | 37 |
| 2010-01-08T13:03 | 25969 | 21 | -52.7 | -85.7 | 89 | 37 |
| 2010-01-08T13:04 | 26019 | 21 | -52.4 | -85.5 | 89 | 37 |
| 2010-01-08T13:04 | 26070 | 20 | -51.3 | -84.7 | 90 | 37 |
| 2010-01-08T13:04 | 26118 | 20 | -50.3 | -84.0 | 90 | 36 |
| 2010-01-08T13:04 | 26166 | 20 | -49.8 | -83.7 | 91 | 36 |
| 2010-01-08T13:04 | 26217 | 20 | -49.6 | -83.5 | 91 | 35 |
| 2010-01-08T13:04 | 26263 | 20 | -49.6 | -83.5 | 92 | 35 |
| 2010-01-08T13:05 | 26316 | 20 | -49.6 | -83.5 | 92 | 36 |
| 2010-01-08T13:05 | 26361 | 20 | -49.5 | -83.4 | 93 | 36 |
| 2010-01-08T13:05 | 26411 | 19 | -49.4 | -83.4 | 93 | 37 |
| 2010-01-08T13:05 | 26460 | 19 | -49.4 | -83.3 | 94 | 37 |
| 2010-01-08T13:05 | 26510 | 19 | -49.4 | -83.3 | 95 | 37 |
| 2010-01-08T13:05 | 26561 | 19 | -49.3 | -83.2 | 96 | 37 |
| 2010-01-08T13:06 | 26606 | 19 | -49.3 | -83.2 | 98 | 37 |
| 2010-01-08T13:06 | 26657 | 19 | -49.0 | -83.1 | 100 | 38 |
| 2010-01-08T13:06 | 26705 | 19 | -49.2 | -83.1 | 100 | 38 |
| 2010-01-08T13:06 | 26752 | 18 | -49.3 | -83.1 | 100 | 39 |
| 2010-01-08T13:06 | 26805 | 18 | -49.1 | -83.1 | 99 | 39 |
| 2010-01-08T13:06 | 26854 | 18 | -48.9 | -83.0 | 97 | 40 |
| 2010-01-08T13:07 | 26902 | 18 | -48.8 | -82.9 | 96 | 40 |
| 2010-01-08T13:07 | 26950 | 18 | -48.3 | -82.6 | 94 | 41 |
| 2010-01-08T13:07 | 27002 | 18 | -47.8 | -82.2 | 93 | 41 |
| 2010-01-08T23:30 | 4 | 1007 | 27.5 | 25.4 | 290 | 4 |
| 2010-01-08T23:30 | 15 | 1005 | 26.7 | 24.6 | 291 | 3 |
| 2010-01-08T23:30 | 28 | 1004 | 26.5 | 24.7 | 292 | 3 |
| 2010-01-08T23:30 | 42 | 1002 | 26.4 | 24.7 | 293 | 4 |
| 2010-01-08T23:30 | 57 | 1001 | 26.2 | 24.6 | 294 | 4 |
| 2010-01-08T23:30 | 72 | 999 | 26.0 | 24.6 | 294 | 5 |
| 2010-01-08T23:30 | 85 | 997 | 25.9 | 24.7 | 295 | 5 |
| 2010-01-08T23:30 | 97 | 996 | 25.8 | 24.6 | 296 | 6 |
| 2010-01-08T23:30 | 109 | 995 | 25.6 | 24.6 | 296 | 7 |
| 2010-01-08T23:30 | 120 | 994 | 25.5 | 24.6 | 297 | 7 |
| 2010-01-08T23:30 | 128 | 993 | 25.4 | 24.6 | 297 | 8 |
| 2010-01-08T23:30 | 136 | 992 | 25.4 | 24.6 | 298 | 8 |
| 2010-01-08T23:30 | 145 | 991 | 25.3 | 24.6 | 298 | 9 |
| 2010-01-08T23:30 | 155 | 990 | 25.2 | 24.6 | 298 | 9 |
| 2010-01-08T23:30 | 166 | 988 | 25.1 | 24.6 | 299 | 9 |
| 2010-01-08T23:30 | 176 | 987 | 25.0 | 24.6 | 299 | 10 |
| 2010-01-08T23:30 | 187 | 986 | 24.9 | 24.6 | 299 | 10 |
| 2010-01-08T23:30 | 199 | 985 | 24.8 | 24.5 | 300 | 10 |
| 2010-01-08T23:30 | 212 | 983 | 24.6 | 24.5 | 300 | 11 |
| 2010-01-08T23:30 | 224 | 982 | 24.5 | 24.5 | 301 | 11 |
| 2010-01-08T23:30 | 235 | 981 | 24.4 | 24.4 | 302 | 11 |
| 2010-01-08T23:30 | 246 | 979 | 24.4 | 24.4 | 303 | 11 |
| 2010-01-08T23:30 | 258 | 978 | 24.3 | 24.3 | 304 | 11 |
| 2010-01-08T23:30 | 269 | 977 | 24.3 | 24.3 | 304 | 11 |
| 2010-01-08T23:30 | 280 | 976 | 24.3 | 24.3 | 305 | 11 |
| 2010-01-08T23:30 | 292 | 974 | 24.2 | 24.2 | 306 | 11 |
| 2010-01-08T23:30 | 304 | 973 | 24.1 | 24.1 | 306 | 11 |
| 2010-01-08T23:30 | 313 | 972 | 24.0 | 24.0 | 306 | 11 |
| 2010-01-08T23:30 | 322 | 971 | 23.9 | 23.9 | 306 | 11 |
| 2010-01-08T23:30 | 331 | 970 | 23.9 | 23.9 | 305 | 11 |
| 2010-01-08T23:31 | 340 | 969 | 23.9 | 23.9 | 304 | 11 |
| 2010-01-08T23:31 | 350 | 968 | 23.8 | 23.8 | 303 | 11 |
| 2010-01-08T23:31 | 360 | 967 | 23.8 | 23.8 | 301 | 11 |
| 2010-01-08T23:31 | 371 | 966 | 23.8 | 23.8 | 300 | 11 |
| 2010-01-08T23:31 | 381 | 965 | 23.7 | 23.7 | 299 | 11 |
| 2010-01-08T23:31 | 392 | 963 | 23.7 | 23.7 | 297 | 11 |
| 2010-01-08T23:31 | 402 | 962 | 23.6 | 23.6 | 296 | 11 |
| 2010-01-08T23:31 | 412 | 961 | 23.5 | 23.5 | 295 | 11 |
| 2010-01-08T23:31 | 421 | 960 | 23.5 | 23.5 | 294 | 11 |
| 2010-01-08T23:31 | 431 | 959 | 23.4 | 23.4 | 293 | 10 |
| 2010-01-08T23:31 | 440 | 958 | 23.3 | 23.3 | 293 | 10 |
| 2010-01-08T23:31 | 448 | 957 | 23.3 | 23.3 | 293 | 10 |
| 2010-01-08T23:31 | 456 | 956 | 23.2 | 23.2 | 293 | 10 |
| 2010-01-08T23:31 | 465 | 955 | 23.2 | 23.2 | 294 | 10 |
| 2010-01-08T23:31 | 474 | 954 | 23.2 | 23.2 | 294 | 10 |
| 2010-01-08T23:31 | 484 | 953 | 23.1 | 23.1 | 295 | 10 |
| 2010-01-08T23:31 | 494 | 952 | 23.1 | 23.1 | 296 | 10 |
| 2010-01-08T23:31 | 506 | 951 | 23.0 | 23.0 | 297 | 10 |
| 2010-01-08T23:31 | 518 | 950 | 23.0 | 23.0 | 297 | 10 |
| 2010-01-08T23:31 | 531 | 948 | 22.9 | 22.9 | 298 | 10 |
| 2010-01-08T23:31 | 544 | 947 | 22.9 | 22.9 | 299 | 10 |
| 2010-01-08T23:31 | 556 | 946 | 22.9 | 22.9 | 299 | 10 |
| 2010-01-08T23:31 | 568 | 944 | 22.8 | 22.8 | 300 | 10 |
| 2010-01-08T23:31 | 582 | 943 | 22.7 | 22.7 | 300 | 10 |
| 2010-01-08T23:31 | 595 | 941 | 22.7 | 22.7 | 301 | 10 |
| 2010-01-08T23:31 | 606 | 940 | 22.6 | 22.6 | 301 | 10 |
| 2010-01-08T23:31 | 616 | 939 | 22.6 | 22.6 | 301 | 10 |
| 2010-01-08T23:31 | 626 | 938 | 22.7 | 22.7 | 301 | 9 |
| 2010-01-08T23:31 | 636 | 937 | 22.7 | 22.7 | 300 | 9 |
| 2010-01-08T23:31 | 647 | 936 | 22.7 | 22.7 | 300 | 9 |
| 2010-01-08T23:32 | 656 | 935 | 22.6 | 22.6 | 299 | 9 |
| 2010-01-08T23:32 | 665 | 934 | 22.5 | 22.5 | 298 | 9 |
| 2010-01-08T23:32 | 674 | 933 | 22.5 | 22.5 | 297 | 9 |
| 2010-01-08T23:32 | 683 | 932 | 22.5 | 22.5 | 295 | 9 |
| 2010-01-08T23:32 | 693 | 931 | 22.5 | 22.5 | 294 | 10 |
| 2010-01-08T23:32 | 702 | 930 | 22.4 | 22.4 | 293 | 10 |
| 2010-01-08T23:32 | 711 | 929 | 22.3 | 22.3 | 292 | 10 |
| 2010-01-08T23:32 | 719 | 928 | 22.3 | 22.3 | 291 | 10 |
| 2010-01-08T23:32 | 728 | 927 | 22.3 | 22.3 | 291 | 10 |
| 2010-01-08T23:32 | 740 | 926 | 22.2 | 22.2 | 290 | 10 |
| 2010-01-08T23:32 | 751 | 925 | 22.1 | 22.1 | 290 | 10 |
| 2010-01-08T23:32 | 760 | 924 | 22.1 | 22.1 | 290 | 10 |
| 2010-01-08T23:32 | 770 | 923 | 22.0 | 22.0 | 290 | 10 |
| 2010-01-08T23:32 | 782 | 921 | 22.0 | 22.0 | 291 | 10 |
| 2010-01-08T23:32 | 794 | 920 | 21.9 | 21.9 | 291 | 10 |
| 2010-01-08T23:32 | 803 | 919 | 21.9 | 21.9 | 292 | 10 |
| 2010-01-08T23:32 | 812 | 918 | 21.8 | 21.8 | 292 | 10 |
| 2010-01-08T23:32 | 819 | 918 | 21.8 | 21.8 | 292 | 10 |
| 2010-01-08T23:32 | 826 | 917 | 21.8 | 21.8 | 292 | 10 |
| 2010-01-08T23:32 | 834 | 916 | 21.7 | 21.7 | 292 | 10 |
| 2010-01-08T23:32 | 842 | 915 | 21.7 | 21.7 | 293 | 10 |
| 2010-01-08T23:32 | 850 | 914 | 21.7 | 21.7 | 293 | 10 |
| 2010-01-08T23:32 | 859 | 913 | 21.6 | 21.6 | 293 | 10 |
| 2010-01-08T23:32 | 868 | 912 | 21.5 | 21.5 | 293 | 10 |
| 2010-01-08T23:32 | 877 | 912 | 21.3 | 21.3 | 294 | 10 |
| 2010-01-08T23:32 | 885 | 911 | 21.3 | 21.3 | 294 | 10 |
| 2010-01-08T23:32 | 894 | 910 | 21.3 | 21.3 | 294 | 10 |
| 2010-01-08T23:32 | 904 | 909 | 21.4 | 21.4 | 295 | 11 |
| 2010-01-08T23:32 | 915 | 908 | 21.4 | 21.4 | 295 | 11 |
| 2010-01-08T23:32 | 926 | 906 | 21.4 | 21.4 | 295 | 11 |
| 2010-01-08T23:33 | 938 | 905 | 21.4 | 21.4 | 295 | 11 |
| 2010-01-08T23:33 | 952 | 904 | 21.3 | 21.3 | 295 | 11 |
| 2010-01-08T23:33 | 966 | 902 | 21.2 | 21.2 | 294 | 11 |
| 2010-01-08T23:33 | 977 | 901 | 21.1 | 21.1 | 294 | 11 |
| 2010-01-08T23:33 | 987 | 900 | 20.9 | 20.9 | 293 | 11 |
| 2010-01-08T23:33 | 996 | 899 | 20.8 | 20.8 | 292 | 11 |
| 2010-01-08T23:33 | 1005 | 898 | 20.7 | 20.7 | 291 | 11 |
| 2010-01-08T23:33 | 1015 | 897 | 20.5 | 20.5 | 291 | 11 |
| 2010-01-08T23:33 | 1025 | 896 | 20.3 | 20.3 | 290 | 11 |
| 2010-01-08T23:33 | 1033 | 895 | 20.3 | 20.3 | 290 | 11 |
| 2010-01-08T23:33 | 1040 | 895 | 20.3 | 20.3 | 289 | 11 |
| 2010-01-08T23:33 | 1048 | 894 | 20.3 | 20.3 | 289 | 11 |
| 2010-01-08T23:33 | 1057 | 893 | 20.3 | 20.3 | 289 | 11 |
| 2010-01-08T23:33 | 1066 | 892 | 20.2 | 20.2 | 289 | 11 |
| 2010-01-08T23:33 | 1077 | 891 | 20.3 | 20.3 | 289 | 10 |
| 2010-01-08T23:33 | 1090 | 889 | 20.4 | 20.4 | 289 | 10 |
| 2010-01-08T23:33 | 1102 | 888 | 20.4 | 20.4 | 289 | 10 |
| 2010-01-08T23:33 | 1113 | 887 | 20.3 | 20.3 | 288 | 10 |
| 2010-01-08T23:33 | 1125 | 886 | 20.1 | 20.1 | 288 | 10 |
| 2010-01-08T23:33 | 1137 | 885 | 20.1 | 20.1 | 287 | 10 |
| 2010-01-08T23:33 | 1147 | 884 | 20.2 | 20.2 | 287 | 10 |
| 2010-01-08T23:33 | 1157 | 883 | 20.2 | 20.2 | 286 | 10 |
| 2010-01-08T23:33 | 1168 | 881 | 20.1 | 20.1 | 286 | 10 |
| 2010-01-08T23:33 | 1182 | 880 | 20.0 | 20.0 | 285 | 10 |
| 2010-01-08T23:33 | 1197 | 879 | 20.1 | 20.1 | 285 | 10 |
| 2010-01-08T23:33 | 1209 | 877 | 20.1 | 20.1 | 285 | 10 |
| 2010-01-08T23:33 | 1220 | 876 | 20.0 | 20.0 | 286 | 11 |
| 2010-01-08T23:33 | 1231 | 875 | 19.9 | 19.9 | 286 | 11 |
| 2010-01-08T23:33 | 1243 | 874 | 20.0 | 20.0 | 287 | 11 |
| 2010-01-08T23:33 | 1255 | 873 | 20.0 | 20.0 | 287 | 11 |
| 2010-01-08T23:34 | 1268 | 871 | 20.0 | 20.0 | 288 | 11 |
| 2010-01-08T23:34 | 1284 | 870 | 19.8 | 19.8 | 289 | 11 |
| 2010-01-08T23:34 | 1302 | 868 | 19.7 | 19.7 | 290 | 11 |
| 2010-01-08T23:34 | 1318 | 866 | 19.7 | 19.7 | 291 | 11 |
| 2010-01-08T23:34 | 1330 | 865 | 19.6 | 19.6 | 292 | 11 |
| 2010-01-08T23:34 | 1340 | 864 | 19.4 | 19.2 | 293 | 11 |
| 2010-01-08T23:34 | 1350 | 863 | 19.1 | 18.3 | 293 | 11 |
| 2010-01-08T23:34 | 1362 | 862 | 18.9 | 17.9 | 294 | 11 |
| 2010-01-08T23:34 | 1372 | 861 | 18.8 | 17.8 | 294 | 10 |
| 2010-01-08T23:34 | 1380 | 860 | 18.7 | 17.6 | 294 | 10 |
| 2010-01-08T23:34 | 1389 | 859 | 18.7 | 17.7 | 293 | 10 |
| 2010-01-08T23:34 | 1400 | 858 | 18.7 | 17.7 | 293 | 10 |
| 2010-01-08T23:34 | 1412 | 857 | 18.6 | 17.8 | 292 | 10 |
| 2010-01-08T23:34 | 1424 | 856 | 18.7 | 18.2 | 291 | 10 |
| 2010-01-08T23:34 | 1436 | 855 | 18.7 | 18.6 | 290 | 10 |
| 2010-01-08T23:34 | 1446 | 854 | 18.7 | 18.6 | 289 | 10 |
| 2010-01-08T23:34 | 1457 | 852 | 18.8 | 18.5 | 288 | 10 |
| 2010-01-08T23:34 | 1470 | 851 | 18.8 | 18.3 | 287 | 10 |
| 2010-01-08T23:34 | 1481 | 850 | 18.8 | 18.2 | 286 | 9 |
| 2010-01-08T23:34 | 1492 | 849 | 18.8 | 18.1 | 285 | 9 |
| 2010-01-08T23:34 | 1505 | 848 | 18.7 | 18.0 | 284 | 9 |
| 2010-01-08T23:34 | 1520 | 846 | 18.5 | 18.1 | 284 | 9 |
| 2010-01-08T23:34 | 1532 | 845 | 18.4 | 18.1 | 284 | 9 |
| 2010-01-08T23:34 | 1544 | 844 | 18.4 | 18.1 | 284 | 9 |
| 2010-01-08T23:34 | 1556 | 843 | 18.4 | 17.8 | 284 | 9 |
| 2010-01-08T23:34 | 1569 | 842 | 18.3 | 17.4 | 285 | 9 |
| 2010-01-08T23:34 | 1582 | 840 | 18.3 | 17.1 | 286 | 9 |
| 2010-01-08T23:34 | 1595 | 839 | 18.2 | 17.0 | 288 | 9 |
| 2010-01-08T23:34 | 1608 | 838 | 18.1 | 16.9 | 289 | 9 |
| 2010-01-08T23:34 | 1618 | 837 | 18.0 | 16.8 | 291 | 9 |
| 2010-01-08T23:35 | 1628 | 836 | 17.9 | 16.7 | 292 | 9 |
| 2010-01-08T23:35 | 1637 | 835 | 17.8 | 16.7 | 294 | 9 |
| 2010-01-08T23:35 | 1646 | 834 | 17.8 | 16.7 | 295 | 8 |
| 2010-01-08T23:35 | 1657 | 833 | 17.8 | 16.7 | 296 | 8 |
| 2010-01-08T23:35 | 1668 | 832 | 17.7 | 16.7 | 297 | 8 |
| 2010-01-08T23:35 | 1679 | 831 | 17.6 | 16.6 | 298 | 8 |
| 2010-01-08T23:35 | 1691 | 830 | 17.5 | 16.6 | 298 | 8 |
| 2010-01-08T23:35 | 1704 | 828 | 17.4 | 16.6 | 298 | 8 |
| 2010-01-08T23:35 | 1719 | 827 | 17.3 | 16.5 | 298 | 8 |
| 2010-01-08T23:35 | 1735 | 825 | 17.2 | 16.4 | 298 | 7 |
| 2010-01-08T23:35 | 1750 | 824 | 17.1 | 16.4 | 298 | 7 |
| 2010-01-08T23:35 | 1763 | 823 | 17.0 | 16.4 | 297 | 7 |
| 2010-01-08T23:35 | 1775 | 822 | 16.9 | 16.3 | 297 | 7 |
| 2010-01-08T23:35 | 1786 | 821 | 16.8 | 16.3 | 296 | 7 |
| 2010-01-08T23:35 | 1799 | 819 | 16.7 | 16.3 | 295 | 6 |
| 2010-01-08T23:35 | 1811 | 818 | 16.6 | 16.2 | 295 | 6 |
| 2010-01-08T23:35 | 1821 | 817 | 16.5 | 16.2 | 295 | 6 |
| 2010-01-08T23:35 | 1832 | 816 | 16.4 | 16.1 | 295 | 6 |
| 2010-01-08T23:35 | 1846 | 815 | 16.4 | 15.9 | 295 | 5 |
| 2010-01-08T23:35 | 1861 | 813 | 16.3 | 15.7 | 295 | 5 |
| 2010-01-08T23:35 | 1875 | 812 | 16.2 | 15.6 | 296 | 5 |
| 2010-01-08T23:35 | 1890 | 811 | 16.1 | 15.6 | 297 | 5 |
| 2010-01-08T23:35 | 1904 | 809 | 16.0 | 15.5 | 299 | 5 |
| 2010-01-08T23:35 | 1918 | 808 | 15.9 | 15.4 | 300 | 5 |
| 2010-01-08T23:35 | 1930 | 807 | 15.8 | 15.2 | 301 | 5 |
| 2010-01-08T23:35 | 1939 | 806 | 15.7 | 15.0 | 301 | 5 |
| 2010-01-08T23:35 | 1948 | 805 | 15.6 | 15.0 | 301 | 5 |
| 2010-01-08T23:35 | 1957 | 804 | 15.6 | 15.0 | 301 | 5 |
| 2010-01-08T23:35 | 1966 | 803 | 15.5 | 15.0 | 301 | 6 |
| 2010-01-08T23:35 | 1974 | 803 | 15.4 | 14.9 | 300 | 6 |
| 2010-01-08T23:36 | 1983 | 802 | 15.4 | 14.9 | 299 | 6 |
| 2010-01-08T23:36 | 1992 | 801 | 15.3 | 14.8 | 298 | 6 |
| 2010-01-08T23:36 | 2031 | 797 | 15.1 | 14.8 | 292 | 7 |
| 2010-01-08T23:36 | 2087 | 792 | 15.1 | 15.0 | 286 | 8 |
| 2010-01-08T23:36 | 2140 | 787 | 14.9 | 14.8 | 282 | 8 |
| 2010-01-08T23:36 | 2193 | 782 | 14.8 | 14.8 | 276 | 7 |
| 2010-01-08T23:36 | 2238 | 778 | 14.7 | 14.7 | 271 | 7 |
| 2010-01-08T23:37 | 2290 | 773 | 14.6 | 14.4 | 271 | 7 |
| 2010-01-08T23:37 | 2346 | 768 | 14.3 | 14.1 | 278 | 7 |
| 2010-01-08T23:37 | 2398 | 764 | 14.0 | 13.5 | 286 | 6 |
| 2010-01-08T23:37 | 2438 | 760 | 13.9 | 13.4 | 293 | 5 |
| 2010-01-08T23:37 | 2490 | 755 | 13.6 | 12.1 | 300 | 5 |
| 2010-01-08T23:37 | 2544 | 751 | 13.3 | 11.6 | 306 | 5 |
| 2010-01-08T23:38 | 2593 | 746 | 12.9 | 11.4 | 308 | 4 |
| 2010-01-08T23:38 | 2659 | 740 | 12.4 | 11.2 | 303 | 4 |
| 2010-01-08T23:38 | 2711 | 736 | 12.1 | 10.6 | 296 | 4 |
| 2010-01-08T23:38 | 2765 | 731 | 11.9 | 10.7 | 293 | 4 |
| 2010-01-08T23:38 | 2810 | 727 | 11.5 | 10.8 | 292 | 4 |
| 2010-01-08T23:38 | 2867 | 722 | 11.6 | 10.6 | 293 | 4 |
| 2010-01-08T23:39 | 2911 | 718 | 11.4 | 10.2 | 287 | 3 |
| 2010-01-08T23:39 | 2964 | 714 | 11.1 | 10.0 | 260 | 2 |
| 2010-01-08T23:39 | 3009 | 710 | 10.8 | 9.9 | 228 | 2 |
| 2010-01-08T23:39 | 3051 | 707 | 10.4 | 9.2 | 222 | 2 |
| 2010-01-08T23:39 | 3084 | 704 | 10.6 | 8.9 | 222 | 2 |
| 2010-01-08T23:39 | 3118 | 701 | 10.5 | 8.7 | 218 | 2 |
| 2010-01-08T23:40 | 3151 | 698 | 10.3 | 8.5 | 211 | 2 |
| 2010-01-08T23:40 | 3184 | 695 | 10.2 | 8.2 | 206 | 2 |
| 2010-01-08T23:40 | 3222 | 692 | 9.9 | 8.0 | 207 | 1 |
| 2010-01-08T23:40 | 3284 | 687 | 9.5 | 7.9 | 221 | 1 |
| 2010-01-08T23:40 | 3323 | 684 | 9.4 | 7.4 | 221 | 1 |
| 2010-01-08T23:40 | 3373 | 680 | 9.1 | 7.2 | 194 | 2 |
| 2010-01-08T23:41 | 3426 | 675 | 8.9 | 7.2 | 176 | 3 |
| 2010-01-08T23:41 | 3472 | 672 | 8.5 | 6.8 | 169 | 3 |
| 2010-01-08T23:41 | 3506 | 669 | 8.5 | 5.7 | 165 | 4 |
| 2010-01-08T23:41 | 3536 | 667 | 8.3 | 5.4 | 158 | 3 |
| 2010-01-08T23:41 | 3580 | 663 | 8.0 | 5.3 | 155 | 4 |
| 2010-01-08T23:41 | 3629 | 659 | 7.8 | 5.2 | 157 | 4 |
| 2010-01-08T23:42 | 3682 | 655 | 7.5 | 5.4 | 156 | 5 |
| 2010-01-08T23:42 | 3734 | 651 | 7.1 | 5.3 | 151 | 5 |
| 2010-01-08T23:42 | 3780 | 647 | 6.8 | 5.4 | 146 | 5 |
| 2010-01-08T23:42 | 3830 | 643 | 6.6 | 5.4 | 143 | 4 |
| 2010-01-08T23:42 | 3872 | 640 | 6.5 | 5.2 | 140 | 4 |
| 2010-01-08T23:42 | 3913 | 637 | 6.3 | 5.2 | 134 | 5 |
| 2010-01-08T23:43 | 3961 | 633 | 6.3 | 5.1 | 129 | 5 |
| 2010-01-08T23:43 | 4004 | 630 | 6.0 | 4.6 | 129 | 5 |
| 2010-01-08T23:43 | 4056 | 626 | 5.8 | 4.4 | 131 | 4 |
| 2010-01-08T23:43 | 4096 | 623 | 5.8 | 4.0 | 130 | 4 |
| 2010-01-08T23:43 | 4151 | 619 | 5.6 | 3.4 | 130 | 5 |
| 2010-01-08T23:43 | 4206 | 614 | 5.3 | 2.9 | 127 | 4 |
| 2010-01-08T23:44 | 4249 | 611 | 5.1 | 2.3 | 118 | 4 |
| 2010-01-08T23:44 | 4297 | 608 | 4.9 | 2.5 | 109 | 4 |
| 2010-01-08T23:44 | 4336 | 605 | 4.6 | 1.8 | 108 | 3 |
| 2010-01-08T23:44 | 4374 | 602 | 4.3 | 1.4 | 111 | 3 |
| 2010-01-08T23:44 | 4414 | 599 | 4.1 | 1.4 | 106 | 3 |
| 2010-01-08T23:44 | 4458 | 596 | 3.8 | 1.6 | 98 | 3 |
| 2010-01-08T23:45 | 4509 | 592 | 3.5 | 1.1 | 96 | 3 |
| 2010-01-08T23:45 | 4560 | 588 | 3.2 | 0.9 | 95 | 2 |
| 2010-01-08T23:45 | 4601 | 585 | 2.9 | 0.6 | 87 | 1 |
| 2010-01-08T23:45 | 4649 | 582 | 2.6 | 0.4 | 85 | 1 |
| 2010-01-08T23:45 | 4708 | 578 | 2.4 | 0.0 | 77 | 1 |
| 2010-01-08T23:45 | 4769 | 573 | 1.9 | -0.3 | 57 | 1 |
| 2010-01-08T23:46 | 4823 | 570 | 1.4 | -0.3 | 58 | 1 |
| 2010-01-08T23:46 | 4870 | 566 | 1.1 | -0.3 | 85 | 2 |
| 2010-01-08T23:46 | 4923 | 563 | 0.7 | 0.0 | 99 | 3 |
| 2010-01-08T23:46 | 4964 | 560 | 0.7 | -0.3 | 102 | 4 |
| 2010-01-08T23:46 | 5012 | 556 | 0.4 | -0.9 | 102 | 4 |
| 2010-01-08T23:46 | 5067 | 553 | 0.1 | -2.1 | 98 | 5 |
| 2010-01-08T23:47 | 5108 | 550 | 0.1 | -2.8 | 93 | 5 |
| 2010-01-08T23:47 | 5168 | 546 | -0.3 | -4.2 | 92 | 6 |
| 2010-01-08T23:47 | 5211 | 543 | -0.7 | -4.9 | 94 | 6 |
| 2010-01-08T23:47 | 5257 | 540 | -0.8 | -5.0 | 95 | 7 |
| 2010-01-08T23:47 | 5307 | 536 | -1.0 | -5.0 | 97 | 7 |
| 2010-01-08T23:47 | 5353 | 533 | -1.3 | -5.5 | 103 | 7 |
| 2010-01-08T23:48 | 5395 | 530 | -1.5 | -6.3 | 109 | 8 |
| 2010-01-08T23:48 | 5444 | 527 | -1.8 | -7.6 | 111 | 9 |
| 2010-01-08T23:48 | 5493 | 524 | -2.0 | -8.5 | 110 | 9 |
| 2010-01-08T23:48 | 5540 | 521 | -2.3 | -7.1 | 108 | 9 |
| 2010-01-08T23:48 | 5585 | 518 | -2.5 | -5.9 | 105 | 8 |
| 2010-01-08T23:48 | 5643 | 514 | -2.6 | -7.3 | 103 | 7 |
| 2010-01-08T23:49 | 5696 | 511 | -2.8 | -8.2 | 106 | 7 |
| 2010-01-08T23:49 | 5761 | 506 | -3.2 | -8.3 | 110 | 8 |
| 2010-01-08T23:49 | 5813 | 503 | -3.4 | -10.2 | 112 | 9 |
| 2010-01-08T23:49 | 5860 | 500 | -3.7 | -11.1 | 113 | 9 |
| 2010-01-08T23:49 | 5920 | 496 | -4.2 | -11.6 | 111 | 9 |
| 2010-01-08T23:49 | 5962 | 494 | -4.6 | -11.4 | 110 | 9 |
| 2010-01-08T23:50 | 6002 | 491 | -5.0 | -10.2 | 110 | 9 |
| 2010-01-08T23:50 | 6042 | 489 | -5.3 | -8.5 | 111 | 8 |
| 2010-01-08T23:50 | 6089 | 486 | -5.4 | -7.9 | 110 | 9 |
| 2010-01-08T23:50 | 6129 | 483 | -5.5 | -8.9 | 109 | 9 |
| 2010-01-08T23:50 | 6168 | 481 | -5.7 | -10.9 | 109 | 10 |
| 2010-01-08T23:50 | 6205 | 479 | -5.8 | -13.4 | 110 | 10 |
| 2010-01-08T23:51 | 6245 | 476 | -6.1 | -14.5 | 111 | 10 |
| 2010-01-08T23:51 | 6281 | 474 | -6.3 | -11.6 | 111 | 10 |
| 2010-01-08T23:51 | 6316 | 472 | -6.7 | -11.3 | 111 | 10 |
| 2010-01-08T23:51 | 6352 | 470 | -6.7 | -15.8 | 109 | 10 |
| 2010-01-08T23:51 | 6390 | 468 | -7.0 | -16.8 | 107 | 10 |
| 2010-01-08T23:51 | 6430 | 465 | -7.3 | -17.7 | 105 | 11 |
| 2010-01-08T23:52 | 6465 | 463 | -7.6 | -18.3 | 105 | 11 |
| 2010-01-08T23:52 | 6502 | 461 | -7.7 | -19.5 | 106 | 10 |
| 2010-01-08T23:52 | 6537 | 459 | -7.9 | -19.6 | 107 | 10 |
| 2010-01-08T23:52 | 6572 | 457 | -8.2 | -18.2 | 107 | 10 |
| 2010-01-08T23:52 | 6606 | 455 | -8.5 | -18.6 | 107 | 10 |
| 2010-01-08T23:52 | 6643 | 453 | -8.7 | -17.8 | 108 | 10 |
| 2010-01-08T23:53 | 6680 | 450 | -8.9 | -18.0 | 109 | 10 |
| 2010-01-08T23:53 | 6718 | 448 | -9.2 | -18.3 | 109 | 10 |
| 2010-01-08T23:53 | 6756 | 446 | -9.6 | -19.2 | 106 | 10 |
| 2010-01-08T23:53 | 6797 | 444 | -10.0 | -19.4 | 100 | 10 |
| 2010-01-08T23:53 | 6840 | 441 | -9.6 | -22.6 | 96 | 10 |
| 2010-01-08T23:53 | 6876 | 439 | -9.9 | -22.3 | 93 | 10 |
| 2010-01-08T23:54 | 6910 | 437 | -10.2 | -19.5 | 91 | 11 |
| 2010-01-08T23:54 | 6944 | 435 | -10.0 | -22.2 | 90 | 11 |
| 2010-01-08T23:54 | 6979 | 433 | -10.0 | -25.3 | 89 | 11 |
| 2010-01-08T23:54 | 7018 | 431 | -10.3 | -20.4 | 90 | 11 |
| 2010-01-08T23:54 | 7055 | 429 | -10.3 | -27.3 | 91 | 10 |
| 2010-01-08T23:54 | 7092 | 427 | -10.5 | -27.2 | 90 | 10 |
| 2010-01-08T23:55 | 7129 | 425 | -10.7 | -25.1 | 90 | 10 |
| 2010-01-08T23:55 | 7169 | 423 | -10.9 | -29.6 | 90 | 10 |
| 2010-01-08T23:55 | 7209 | 421 | -11.1 | -30.1 | 90 | 10 |
| 2010-01-08T23:55 | 7249 | 418 | -11.4 | -31.4 | 91 | 9 |
| 2010-01-08T23:55 | 7290 | 416 | -11.6 | -29.5 | 93 | 9 |
| 2010-01-08T23:55 | 7339 | 413 | -11.9 | -28.9 | 95 | 8 |
| 2010-01-08T23:56 | 7386 | 411 | -12.0 | -29.6 | 98 | 8 |
| 2010-01-08T23:56 | 7431 | 409 | -12.4 | -30.9 | 99 | 8 |
| 2010-01-08T23:56 | 7480 | 406 | -12.8 | -29.0 | 99 | 8 |
| 2010-01-08T23:56 | 7527 | 403 | -13.1 | -29.9 | 98 | 8 |
| 2010-01-08T23:56 | 7572 | 401 | -13.5 | -30.2 | 96 | 8 |
| 2010-01-08T23:56 | 7618 | 399 | -13.9 | -30.5 | 95 | 8 |
| 2010-01-08T23:57 | 7663 | 396 | -14.3 | -31.2 | 95 | 9 |
| 2010-01-08T23:57 | 7710 | 394 | -14.6 | -31.6 | 96 | 9 |
| 2010-01-08T23:57 | 7756 | 391 | -15.0 | -32.1 | 97 | 9 |
| 2010-01-08T23:57 | 7805 | 389 | -15.3 | -32.6 | 99 | 10 |
| 2010-01-08T23:57 | 7854 | 386 | -15.6 | -33.6 | 99 | 10 |
| 2010-01-08T23:57 | 7896 | 384 | -15.9 | -33.9 | 97 | 10 |
| 2010-01-08T23:58 | 7946 | 382 | -16.3 | -33.8 | 95 | 9 |
| 2010-01-08T23:58 | 8009 | 378 | -16.6 | -34.7 | 92 | 9 |
| 2010-01-08T23:58 | 8065 | 376 | -17.0 | -31.0 | 89 | 9 |
| 2010-01-08T23:58 | 8108 | 373 | -16.9 | -36.3 | 88 | 9 |
| 2010-01-08T23:58 | 8154 | 371 | -17.1 | -38.4 | 87 | 9 |
| 2010-01-08T23:58 | 8208 | 369 | -17.3 | -38.7 | 87 | 9 |
| 2010-01-08T23:59 | 8265 | 366 | -17.6 | -37.0 | 87 | 9 |
| 2010-01-08T23:59 | 8306 | 364 | -17.9 | -36.5 | 86 | 9 |
| 2010-01-08T23:59 | 8360 | 361 | -18.1 | -38.9 | 85 | 9 |
| 2010-01-08T23:59 | 8434 | 358 | -18.8 | -39.7 | 86 | 8 |
| 2010-01-08T23:59 | 8473 | 356 | -19.1 | -39.8 | 89 | 8 |
| 2010-01-08T23:59 | 8513 | 354 | -19.5 | -40.3 | 91 | 7 |
| 2010-01-09T00:00 | 8556 | 352 | -19.9 | -40.6 | 92 | 7 |
| 2010-01-09T00:00 | 8597 | 350 | -20.2 | -40.7 | 94 | 7 |
| 2010-01-09T00:00 | 8637 | 348 | -20.6 | -40.3 | 96 | 7 |
| 2010-01-09T00:00 | 8679 | 346 | -21.0 | -38.4 | 98 | 7 |
| 2010-01-09T00:00 | 8718 | 344 | -21.3 | -37.5 | 97 | 8 |
| 2010-01-09T00:00 | 8759 | 342 | -21.5 | -37.1 | 95 | 8 |
| 2010-01-09T00:01 | 8798 | 340 | -21.8 | -37.2 | 94 | 8 |
| 2010-01-09T00:01 | 8836 | 339 | -22.1 | -36.1 | 91 | 9 |
| 2010-01-09T00:01 | 8872 | 337 | -22.4 | -35.3 | 89 | 9 |
| 2010-01-09T00:01 | 8914 | 335 | -22.5 | -35.3 | 87 | 9 |
| 2010-01-09T00:01 | 8950 | 333 | -22.6 | -35.3 | 87 | 9 |
| 2010-01-09T00:01 | 8988 | 332 | -22.9 | -33.3 | 87 | 8 |
| 2010-01-09T00:02 | 9026 | 330 | -23.0 | -33.4 | 86 | 8 |
| 2010-01-09T00:02 | 9064 | 328 | -23.3 | -33.5 | 86 | 8 |
| 2010-01-09T00:02 | 9103 | 327 | -23.5 | -32.1 | 84 | 8 |
| 2010-01-09T00:02 | 9142 | 325 | -23.9 | -32.5 | 83 | 7 |
| 2010-01-09T00:02 | 9180 | 323 | -24.2 | -33.1 | 83 | 7 |
| 2010-01-09T00:02 | 9231 | 321 | -24.4 | -31.5 | 86 | 6 |
| 2010-01-09T00:03 | 9272 | 319 | -24.8 | -31.6 | 87 | 5 |
| 2010-01-09T00:03 | 9311 | 317 | -25.1 | -31.4 | 89 | 5 |
| 2010-01-09T00:03 | 9349 | 316 | -25.4 | -31.1 | 91 | 5 |
| 2010-01-09T00:03 | 9386 | 314 | -25.6 | -30.8 | 91 | 5 |
| 2010-01-09T00:03 | 9426 | 312 | -25.6 | -32.2 | 89 | 5 |
| 2010-01-09T00:03 | 9465 | 311 | -25.8 | -34.4 | 87 | 5 |
| 2010-01-09T00:04 | 9503 | 309 | -26.1 | -36.4 | 87 | 5 |
| 2010-01-09T00:04 | 9545 | 307 | -26.5 | -36.0 | 88 | 5 |
| 2010-01-09T00:04 | 9585 | 306 | -26.9 | -35.8 | 89 | 5 |
| 2010-01-09T00:04 | 9626 | 304 | -27.3 | -35.3 | 90 | 5 |
| 2010-01-09T00:04 | 9666 | 302 | -27.7 | -34.0 | 90 | 5 |
| 2010-01-09T00:04 | 9705 | 301 | -28.0 | -33.6 | 89 | 5 |
| 2010-01-09T00:05 | 9746 | 299 | -28.4 | -34.0 | 88 | 5 |
| 2010-01-09T00:05 | 9785 | 297 | -28.8 | -34.1 | 87 | 5 |
| 2010-01-09T00:05 | 9825 | 296 | -29.0 | -34.8 | 85 | 5 |
| 2010-01-09T00:05 | 9865 | 294 | -29.4 | -35.5 | 83 | 5 |
| 2010-01-09T00:05 | 9905 | 292 | -29.7 | -35.4 | 79 | 5 |
| 2010-01-09T00:05 | 9944 | 291 | -29.8 | -36.0 | 78 | 5 |
| 2010-01-09T00:06 | 9984 | 289 | -30.0 | -36.9 | 78 | 5 |
| 2010-01-09T00:06 | 10023 | 287 | -30.3 | -37.4 | 79 | 5 |
| 2010-01-09T00:06 | 10064 | 286 | -30.6 | -37.9 | 79 | 6 |
| 2010-01-09T00:06 | 10108 | 284 | -31.0 | -38.9 | 80 | 6 |
| 2010-01-09T00:06 | 10150 | 282 | -31.4 | -39.8 | 81 | 6 |
| 2010-01-09T00:06 | 10190 | 281 | -31.8 | -40.1 | 80 | 6 |
| 2010-01-09T00:07 | 10234 | 279 | -32.2 | -40.1 | 79 | 6 |
| 2010-01-09T00:07 | 10277 | 277 | -32.5 | -40.2 | 76 | 6 |
| 2010-01-09T00:07 | 10318 | 276 | -32.9 | -40.5 | 73 | 6 |
| 2010-01-09T00:07 | 10360 | 274 | -33.2 | -39.8 | 72 | 6 |
| 2010-01-09T00:07 | 10401 | 272 | -33.6 | -40.2 | 71 | 6 |
| 2010-01-09T00:07 | 10442 | 271 | -33.8 | -41.8 | 71 | 5 |
| 2010-01-09T00:08 | 10482 | 269 | -34.1 | -43.4 | 72 | 5 |
| 2010-01-09T00:08 | 10523 | 268 | -34.4 | -45.4 | 71 | 5 |
| 2010-01-09T00:08 | 10566 | 266 | -34.7 | -45.1 | 67 | 5 |
| 2010-01-09T00:08 | 10610 | 264 | -35.1 | -44.7 | 62 | 6 |
| 2010-01-09T00:08 | 10656 | 263 | -35.5 | -43.6 | 58 | 6 |
| 2010-01-09T00:08 | 10702 | 261 | -35.9 | -43.2 | 58 | 7 |
| 2010-01-09T00:09 | 10745 | 259 | -36.1 | -44.2 | 58 | 7 |
| 2010-01-09T00:09 | 10789 | 258 | -36.5 | -45.2 | 59 | 7 |
| 2010-01-09T00:09 | 10831 | 256 | -36.8 | -45.4 | 60 | 7 |
| 2010-01-09T00:09 | 10876 | 255 | -37.3 | -45.5 | 62 | 7 |
| 2010-01-09T00:09 | 10916 | 253 | -37.7 | -45.9 | 63 | 7 |
| 2010-01-09T00:09 | 10961 | 251 | -38.1 | -46.0 | 65 | 7 |
| 2010-01-09T00:10 | 11004 | 250 | -38.5 | -46.0 | 67 | 7 |
| 2010-01-09T00:10 | 11053 | 248 | -38.9 | -46.2 | 69 | 7 |
| 2010-01-09T00:10 | 11097 | 246 | -39.2 | -46.5 | 69 | 7 |
| 2010-01-09T00:10 | 11142 | 245 | -39.5 | -48.0 | 66 | 7 |
| 2010-01-09T00:10 | 11189 | 243 | -39.8 | -49.9 | 63 | 7 |
| 2010-01-09T00:10 | 11244 | 241 | -40.3 | -51.9 | 60 | 7 |
| 2010-01-09T00:11 | 11298 | 239 | -40.8 | -53.6 | 58 | 7 |
| 2010-01-09T00:11 | 11345 | 238 | -41.1 | -56.3 | 57 | 8 |
| 2010-01-09T00:11 | 11391 | 236 | -41.5 | -57.3 | 55 | 8 |
| 2010-01-09T00:11 | 11438 | 234 | -41.8 | -56.7 | 54 | 8 |
| 2010-01-09T00:11 | 11486 | 233 | -42.4 | -56.3 | 54 | 8 |
| 2010-01-09T00:11 | 11533 | 231 | -42.9 | -55.8 | 54 | 8 |
| 2010-01-09T00:12 | 11579 | 230 | -43.3 | -55.5 | 53 | 8 |
| 2010-01-09T00:12 | 11626 | 228 | -43.8 | -55.3 | 54 | 8 |
| 2010-01-09T00:12 | 11672 | 226 | -44.2 | -54.8 | 54 | 8 |
| 2010-01-09T00:12 | 11718 | 225 | -44.7 | -54.1 | 54 | 8 |
| 2010-01-09T00:12 | 11763 | 223 | -45.0 | -53.6 | 53 | 8 |
| 2010-01-09T00:12 | 11807 | 222 | -45.4 | -53.5 | 51 | 8 |
| 2010-01-09T00:13 | 11853 | 220 | -45.8 | -53.6 | 48 | 8 |
| 2010-01-09T00:13 | 11900 | 219 | -46.1 | -53.6 | 45 | 9 |
| 2010-01-09T00:13 | 11947 | 217 | -46.5 | -53.8 | 42 | 9 |
| 2010-01-09T00:13 | 11992 | 216 | -46.8 | -54.0 | 41 | 9 |
| 2010-01-09T00:13 | 12040 | 214 | -47.3 | -54.5 | 41 | 10 |
| 2010-01-09T00:13 | 12091 | 213 | -47.8 | -54.6 | 41 | 10 |
| 2010-01-09T00:14 | 12142 | 211 | -48.2 | -54.8 | 40 | 10 |
| 2010-01-09T00:14 | 12200 | 209 | -48.8 | -55.1 | 38 | 10 |
| 2010-01-09T00:14 | 12272 | 207 | -49.5 | -55.4 | 37 | 10 |
| 2010-01-09T00:14 | 12324 | 205 | -49.9 | -55.4 | 39 | 10 |
| 2010-01-09T00:14 | 12400 | 203 | -50.7 | -55.9 | 37 | 10 |
| 2010-01-09T00:14 | 12459 | 201 | -51.2 | -55.8 | 30 | 10 |
| 2010-01-09T00:15 | 12516 | 199 | -51.6 | -56.5 | 24 | 9 |
| 2010-01-09T00:15 | 12572 | 197 | -52.1 | -57.3 | 23 | 9 |
| 2010-01-09T00:15 | 12632 | 196 | -52.6 | -58.3 | 24 | 10 |
| 2010-01-09T00:15 | 12695 | 194 | -53.2 | -58.7 | 23 | 10 |
| 2010-01-09T00:15 | 12768 | 192 | -53.9 | -59.3 | 25 | 11 |
| 2010-01-09T00:15 | 12851 | 189 | -54.7 | -60.0 | 28 | 12 |
| 2010-01-09T00:16 | 12902 | 188 | -55.2 | -60.5 | 29 | 13 |
| 2010-01-09T00:16 | 12952 | 186 | -55.6 | -61.5 | 29 | 13 |
| 2010-01-09T00:16 | 13004 | 185 | -55.9 | -62.3 | 29 | 13 |
| 2010-01-09T00:16 | 13054 | 183 | -56.5 | -63.2 | 29 | 13 |
| 2010-01-09T00:16 | 13098 | 182 | -56.9 | -63.9 | 28 | 13 |
| 2010-01-09T00:16 | 13143 | 181 | -57.2 | -64.3 | 28 | 13 |
| 2010-01-09T00:17 | 13184 | 179 | -57.6 | -65.0 | 28 | 13 |
| 2010-01-09T00:17 | 13228 | 178 | -58.0 | -65.5 | 28 | 13 |
| 2010-01-09T00:17 | 13272 | 177 | -58.5 | -65.8 | 28 | 13 |
| 2010-01-09T00:17 | 13319 | 176 | -58.9 | -66.2 | 27 | 13 |
| 2010-01-09T00:17 | 13368 | 174 | -59.3 | -66.6 | 27 | 13 |
| 2010-01-09T00:17 | 13416 | 173 | -59.8 | -67.0 | 27 | 13 |
| 2010-01-09T00:18 | 13482 | 171 | -60.3 | -67.6 | 28 | 13 |
| 2010-01-09T00:18 | 13532 | 170 | -60.7 | -67.8 | 30 | 13 |
| 2010-01-09T00:18 | 13579 | 168 | -61.1 | -68.3 | 32 | 13 |
| 2010-01-09T00:18 | 13627 | 167 | -61.5 | -68.6 | 34 | 13 |
| 2010-01-09T00:18 | 13675 | 166 | -62.0 | -69.2 | 35 | 13 |
| 2010-01-09T00:18 | 13723 | 165 | -62.5 | -69.7 | 35 | 14 |
| 2010-01-09T00:19 | 13772 | 163 | -62.9 | -70.0 | 36 | 14 |
| 2010-01-09T00:19 | 13820 | 162 | -63.4 | -70.6 | 37 | 14 |
| 2010-01-09T00:19 | 13870 | 161 | -63.9 | -71.0 | 38 | 13 |
| 2010-01-09T00:19 | 13918 | 159 | -64.3 | -71.5 | 38 | 13 |
| 2010-01-09T00:19 | 13967 | 158 | -64.8 | -71.8 | 38 | 13 |
| 2010-01-09T00:19 | 14017 | 157 | -65.1 | -72.1 | 39 | 13 |
| 2010-01-09T00:20 | 14067 | 156 | -65.7 | -72.7 | 39 | 13 |
| 2010-01-09T00:20 | 14120 | 154 | -66.2 | -73.2 | 39 | 13 |
| 2010-01-09T00:20 | 14170 | 153 | -66.7 | -73.6 | 39 | 13 |
| 2010-01-09T00:20 | 14223 | 152 | -67.2 | -74.0 | 40 | 12 |
| 2010-01-09T00:20 | 14275 | 150 | -67.8 | -74.4 | 40 | 12 |
| 2010-01-09T00:20 | 14330 | 149 | -68.3 | -74.8 | 40 | 12 |
| 2010-01-09T00:21 | 14381 | 148 | -68.9 | -75.3 | 41 | 12 |
| 2010-01-09T00:21 | 14436 | 146 | -69.3 | -75.6 | 43 | 13 |
| 2010-01-09T00:21 | 14502 | 145 | -70.0 | -76.2 | 46 | 15 |
| 2010-01-09T00:21 | 14581 | 143 | -70.6 | -76.9 | 47 | 15 |
| 2010-01-09T00:21 | 14673 | 141 | -71.6 | -77.8 | 49 | 14 |
| 2010-01-09T00:21 | 14738 | 139 | -72.2 | -78.5 | 53 | 14 |
| 2010-01-09T00:22 | 14786 | 138 | -72.6 | -78.8 | 56 | 15 |
| 2010-01-09T00:22 | 14839 | 137 | -73.0 | -79.2 | 57 | 16 |
| 2010-01-09T00:22 | 14889 | 136 | -73.4 | -79.7 | 58 | 15 |
| 2010-01-09T00:22 | 14940 | 134 | -73.9 | -80.2 | 58 | 15 |
| 2010-01-09T00:22 | 14988 | 133 | -74.3 | -80.7 | 59 | 15 |
| 2010-01-09T00:22 | 15042 | 132 | -74.6 | -81.0 | 60 | 16 |
| 2010-01-09T00:23 | 15106 | 131 | -74.5 | -81.0 | 63 | 17 |
| 2010-01-09T00:23 | 15158 | 129 | -74.8 | -81.4 | 68 | 17 |
| 2010-01-09T00:23 | 15212 | 128 | -75.0 | -81.7 | 72 | 17 |
| 2010-01-09T00:23 | 15262 | 127 | -75.4 | -82.1 | 76 | 17 |
| 2010-01-09T00:23 | 15314 | 126 | -75.9 | -82.7 | 78 | 17 |
| 2010-01-09T00:23 | 15371 | 125 | -76.4 | -83.3 | 80 | 17 |
| 2010-01-09T00:24 | 15418 | 124 | -76.7 | -83.7 | 80 | 17 |
| 2010-01-09T00:24 | 15464 | 123 | -77.0 | -84.1 | 81 | 17 |
| 2010-01-09T00:24 | 15508 | 122 | -77.3 | -84.5 | 82 | 17 |
| 2010-01-09T00:24 | 15555 | 121 | -77.6 | -84.9 | 82 | 17 |
| 2010-01-09T00:24 | 15600 | 120 | -78.0 | -85.2 | 82 | 17 |
| 2010-01-09T00:24 | 15643 | 119 | -78.2 | -85.4 | 83 | 17 |
| 2010-01-09T00:25 | 15687 | 118 | -78.4 | -85.6 | 85 | 17 |
| 2010-01-09T00:25 | 15734 | 117 | -78.7 | -85.9 | 89 | 17 |
| 2010-01-09T00:25 | 15781 | 116 | -78.8 | -86.1 | 94 | 17 |
| 2010-01-09T00:25 | 15827 | 115 | -78.9 | -86.3 | 99 | 17 |
| 2010-01-09T00:25 | 15873 | 114 | -79.1 | -86.5 | 103 | 17 |
| 2010-01-09T00:25 | 15919 | 113 | -79.4 | -86.8 | 106 | 17 |
| 2010-01-09T00:26 | 15963 | 112 | -79.9 | -87.3 | 107 | 17 |
| 2010-01-09T00:26 | 16008 | 112 | -80.0 | -87.4 | 108 | 17 |
| 2010-01-09T00:26 | 16052 | 111 | -80.5 | -87.9 | 109 | 18 |
| 2010-01-09T00:26 | 16098 | 110 | -80.8 | -88.2 | 109 | 18 |
| 2010-01-09T00:26 | 16142 | 109 | -81.0 | -88.5 | 113 | 17 |
| 2010-01-09T00:26 | 16190 | 108 | -81.1 | -88.7 | 119 | 17 |
| 2010-01-09T00:27 | 16252 | 107 | -81.1 | -88.9 | 125 | 18 |
| 2010-01-09T00:27 | 16302 | 106 | -81.3 | -89.1 | 129 | 19 |
| 2010-01-09T00:27 | 16348 | 105 | -81.4 | -89.3 | 133 | 19 |
| 2010-01-09T00:27 | 16392 | 104 | -81.7 | -89.6 | 135 | 19 |
| 2010-01-09T00:27 | 16436 | 103 | -82.0 | -90.0 | 136 | 20 |
| 2010-01-09T00:27 | 16482 | 103 | -82.1 | -90.1 | 136 | 20 |
| 2010-01-09T00:28 | 16527 | 102 | -82.6 | -90.5 | 136 | 21 |
| 2010-01-09T00:28 | 16573 | 101 | -82.9 | -90.9 | 136 | 21 |
| 2010-01-09T00:28 | 16617 | 100 | -83.3 | -91.3 | 135 | 21 |
| 2010-01-09T00:28 | 16660 | 99 | -83.6 | -91.7 | 135 | 21 |
| 2010-01-09T00:28 | 16705 | 99 | -83.9 | -92.0 | 134 | 22 |
| 2010-01-09T00:28 | 16748 | 98 | -83.9 | -92.0 | 133 | 23 |
| 2010-01-09T00:29 | 16790 | 97 | -84.0 | -92.1 | 130 | 24 |
| 2010-01-09T00:29 | 16832 | 96 | -82.8 | -91.2 | 126 | 25 |
| 2010-01-09T00:29 | 16872 | 96 | -82.7 | -91.1 | 122 | 25 |
| 2010-01-09T00:29 | 16915 | 95 | -81.2 | -89.8 | 117 | 26 |
| 2010-01-09T00:29 | 16956 | 94 | -80.7 | -89.4 | 112 | 26 |
| 2010-01-09T00:29 | 16997 | 93 | -80.9 | -89.6 | 109 | 27 |
| 2010-01-09T00:30 | 17037 | 93 | -80.7 | -89.5 | 106 | 27 |
| 2010-01-09T00:30 | 17079 | 92 | -80.9 | -89.8 | 105 | 27 |
| 2010-01-09T00:30 | 17121 | 91 | -81.0 | -90.0 | 105 | 26 |
| 2010-01-09T00:30 | 17166 | 91 | -81.0 | -90.1 | 104 | 25 |
| 2010-01-09T00:30 | 17210 | 90 | -81.0 | -90.2 | 104 | 23 |
| 2010-01-09T00:30 | 17257 | 89 | -80.3 | -89.7 | 104 | 21 |
| 2010-01-09T00:31 | 17303 | 89 | -79.7 | -89.1 | 104 | 19 |
| 2010-01-09T00:31 | 17348 | 88 | -79.1 | -88.7 | 103 | 16 |
| 2010-01-09T00:31 | 17392 | 87 | -78.2 | -88.1 | 103 | 13 |
| 2010-01-09T00:31 | 17472 | 86 | -76.6 | -86.9 | 103 | 8 |
| 2010-01-09T00:31 | 17544 | 85 | -75.6 | -86.2 | 103 | 4 |
| 2010-01-09T00:31 | 17600 | 84 | -75.2 | -86.0 | 121 | 1 |
| 2010-01-09T00:32 | 17646 | 83 | -75.2 | -86.3 | 244 | 1 |
| 2010-01-09T00:32 | 17696 | 83 | -75.2 | -86.6 | 255 | 3 |
| 2010-01-09T00:32 | 17743 | 82 | -75.4 | -87.0 | 258 | 4 |
| 2010-01-09T00:32 | 17789 | 81 | -75.3 | -87.2 | 260 | 5 |
| 2010-01-09T00:32 | 17835 | 81 | -75.6 | -87.8 | 262 | 6 |
| 2010-01-09T00:32 | 17880 | 80 | -75.9 | -88.3 | 261 | 6 |
| 2010-01-09T00:33 | 17924 | 79 | -76.2 | -88.8 | 261 | 6 |
| 2010-01-09T00:33 | 17968 | 79 | -76.4 | -89.2 | 266 | 6 |
| 2010-01-09T00:33 | 18016 | 78 | -76.1 | -89.1 | 274 | 6 |
| 2010-01-09T00:33 | 18061 | 78 | -75.9 | -89.1 | 279 | 7 |
| 2010-01-09T00:33 | 18106 | 77 | -75.6 | -89.0 | 282 | 8 |
| 2010-01-09T00:33 | 18156 | 76 | -75.5 | -89.1 | 284 | 9 |
| 2010-01-09T00:34 | 18203 | 76 | -75.8 | -89.5 | 286 | 10 |
| 2010-01-09T00:34 | 18249 | 75 | -75.9 | -89.8 | 287 | 11 |
| 2010-01-09T00:34 | 18297 | 75 | -76.4 | -90.3 | 287 | 12 |
| 2010-01-09T00:34 | 18345 | 74 | -76.5 | -90.5 | 285 | 13 |
| 2010-01-09T00:34 | 18392 | 73 | -76.8 | -90.9 | 282 | 13 |
| 2010-01-09T00:34 | 18439 | 73 | -77.2 | -91.3 | 278 | 13 |
| 2010-01-09T00:35 | 18486 | 72 | -77.3 | -91.4 | 276 | 13 |
| 2010-01-09T00:35 | 18534 | 72 | -77.7 | -91.8 | 275 | 13 |
| 2010-01-09T00:35 | 18582 | 71 | -77.8 | -92.0 | 275 | 13 |
| 2010-01-09T00:35 | 18630 | 70 | -78.0 | -92.2 | 276 | 13 |
| 2010-01-09T00:35 | 18679 | 70 | -77.8 | -92.2 | 276 | 14 |
| 2010-01-09T00:35 | 18727 | 69 | -78.3 | -92.5 | 278 | 15 |
| 2010-01-09T00:36 | 18776 | 69 | -78.1 | -92.4 | 281 | 16 |
| 2010-01-09T00:36 | 18825 | 68 | -78.0 | -92.3 | 282 | 17 |
| 2010-01-09T00:36 | 18874 | 67 | -78.3 | -92.5 | 283 | 18 |
| 2010-01-09T00:36 | 18921 | 67 | -78.5 | -92.7 | 284 | 19 |
| 2010-01-09T00:36 | 18969 | 66 | -79.0 | -93.1 | 285 | 19 |
| 2010-01-09T00:36 | 19017 | 66 | -79.1 | -93.2 | 286 | 19 |
| 2010-01-09T00:37 | 19067 | 65 | -79.5 | -93.5 | 286 | 19 |
| 2010-01-09T00:37 | 19115 | 65 | -79.5 | -93.5 | 285 | 19 |
| 2010-01-09T00:37 | 19164 | 64 | -79.9 | -93.8 | 282 | 19 |
| 2010-01-09T00:37 | 19210 | 64 | -79.8 | -93.8 | 279 | 19 |
| 2010-01-09T00:37 | 19258 | 63 | -79.9 | -93.7 | 275 | 19 |
| 2010-01-09T00:37 | 19305 | 62 | -80.0 | -93.8 | 272 | 18 |
| 2010-01-09T00:38 | 19352 | 62 | -80.0 | -93.9 | 269 | 18 |
| 2010-01-09T00:38 | 19397 | 61 | -80.0 | -93.9 | 267 | 17 |
| 2010-01-09T00:38 | 19443 | 61 | -80.2 | -94.0 | 265 | 16 |
| 2010-01-09T00:38 | 19491 | 60 | -80.5 | -94.1 | 263 | 16 |
| 2010-01-09T00:38 | 19535 | 60 | -79.7 | -93.5 | 260 | 16 |
| 2010-01-09T00:38 | 19579 | 59 | -79.9 | -93.6 | 259 | 16 |
| 2010-01-09T00:39 | 19622 | 59 | -79.9 | -93.5 | 260 | 16 |
| 2010-01-09T00:39 | 19664 | 59 | -79.3 | -93.1 | 262 | 15 |
| 2010-01-09T00:39 | 19707 | 58 | -78.4 | -92.4 | 264 | 14 |
| 2010-01-09T00:39 | 19750 | 58 | -78.0 | -92.0 | 265 | 14 |
| 2010-01-09T00:39 | 19791 | 57 | -78.3 | -92.2 | 267 | 14 |
| 2010-01-09T00:39 | 19835 | 57 | -78.1 | -92.1 | 268 | 14 |
| 2010-01-09T00:40 | 19877 | 56 | -77.9 | -92.0 | 271 | 13 |
| 2010-01-09T00:40 | 19920 | 56 | -77.8 | -92.0 | 275 | 11 |
| 2010-01-09T00:40 | 19965 | 56 | -76.7 | -91.1 | 280 | 9 |
| 2010-01-09T00:40 | 20007 | 55 | -75.2 | -90.0 | 289 | 7 |
| 2010-01-09T00:40 | 20052 | 55 | -74.3 | -89.4 | 301 | 6 |
| 2010-01-09T00:40 | 20096 | 54 | -74.1 | -89.4 | 313 | 6 |
| 2010-01-09T00:41 | 20141 | 54 | -73.9 | -89.5 | 321 | 7 |
| 2010-01-09T00:41 | 20189 | 53 | -73.5 | -89.4 | 324 | 8 |
| 2010-01-09T00:41 | 20239 | 53 | -73.7 | -89.8 | 325 | 7 |
| 2010-01-09T00:41 | 20288 | 53 | -73.4 | -89.8 | 323 | 7 |
| 2010-01-09T00:41 | 20336 | 52 | -71.6 | -88.8 | 317 | 7 |
| 2010-01-09T00:41 | 20388 | 52 | -71.3 | -88.7 | 314 | 7 |
| 2010-01-09T00:42 | 20437 | 51 | -71.2 | -88.9 | 313 | 8 |
| 2010-01-09T00:42 | 20487 | 51 | -70.6 | -88.8 | 312 | 8 |
| 2010-01-09T00:42 | 20535 | 50 | -70.7 | -89.2 | 310 | 8 |
| 2010-01-09T00:42 | 20584 | 50 | -70.9 | -89.6 | 309 | 7 |
| 2010-01-09T00:42 | 20631 | 50 | -71.1 | -90.2 | 310 | 6 |
| 2010-01-09T00:42 | 20678 | 49 | -70.4 | -89.9 | 317 | 6 |
| 2010-01-09T00:43 | 20726 | 49 | -69.8 | -89.7 | 325 | 7 |
| 2010-01-09T00:43 | 20772 | 48 | -70.1 | -90.1 | 330 | 8 |
| 2010-01-09T00:43 | 20820 | 48 | -70.3 | -90.5 | 332 | 8 |
| 2010-01-09T00:43 | 20866 | 48 | -70.5 | -90.8 | 337 | 8 |
| 2010-01-09T00:43 | 20913 | 47 | -70.6 | -91.1 | 342 | 7 |
| 2010-01-09T00:43 | 20958 | 47 | -70.4 | -91.2 | 344 | 6 |
| 2010-01-09T00:44 | 21003 | 47 | -69.8 | -91.1 | 341 | 5 |
| 2010-01-09T00:44 | 21051 | 46 | -70.0 | -91.4 | 337 | 4 |
| 2010-01-09T00:44 | 21096 | 46 | -69.4 | -91.1 | 330 | 2 |
| 2010-01-09T00:44 | 21143 | 46 | -69.8 | -91.5 | 315 | 1 |
| 2010-01-09T00:44 | 21190 | 45 | -69.1 | -91.2 | 287 | 1 |
| 2010-01-09T00:44 | 21237 | 45 | -69.5 | -91.7 | 278 | 1 |
| 2010-01-09T00:45 | 21285 | 44 | -69.7 | -91.9 | 306 | 0 |
| 2010-01-09T00:45 | 21335 | 44 | -69.7 | -92.1 | 9 | 1 |
| 2010-01-09T00:45 | 21385 | 44 | -69.8 | -92.3 | 35 | 2 |
| 2010-01-09T00:45 | 21435 | 43 | -69.0 | -91.9 | 50 | 4 |
| 2010-01-09T00:45 | 21486 | 43 | -68.3 | -91.6 | 63 | 5 |
| 2010-01-09T00:45 | 21536 | 43 | -68.0 | -91.3 | 75 | 6 |
| 2010-01-09T00:46 | 21588 | 42 | -68.4 | -91.8 | 87 | 7 |
| 2010-01-09T00:46 | 21640 | 42 | -68.1 | -91.8 | 98 | 8 |
| 2010-01-09T00:46 | 21692 | 42 | -68.3 | -92.1 | 108 | 8 |
| 2010-01-09T00:46 | 21744 | 41 | -68.5 | -92.3 | 116 | 9 |
| 2010-01-09T00:46 | 21795 | 41 | -68.7 | -92.3 | 120 | 9 |
| 2010-01-09T00:46 | 21846 | 40 | -69.3 | -92.6 | 122 | 10 |
| 2010-01-09T00:47 | 21897 | 40 | -69.3 | -92.6 | 120 | 11 |
| 2010-01-09T00:47 | 21951 | 40 | -68.0 | -92.1 | 117 | 13 |
| 2010-01-09T00:47 | 22002 | 39 | -67.7 | -91.9 | 111 | 14 |
| 2010-01-09T00:47 | 22050 | 39 | -67.9 | -92.1 | 106 | 16 |
| 2010-01-09T00:47 | 22101 | 39 | -68.0 | -92.3 | 102 | 17 |
| 2010-01-09T00:47 | 22152 | 38 | -67.8 | -92.1 | 98 | 19 |
| 2010-01-09T00:48 | 22207 | 38 | -68.2 | -92.5 | 94 | 20 |
| 2010-01-09T00:48 | 22256 | 38 | -68.2 | -92.5 | 91 | 21 |
| 2010-01-09T00:48 | 22310 | 37 | -68.6 | -92.8 | 90 | 22 |
| 2010-01-09T00:48 | 22364 | 37 | -68.9 | -93.1 | 89 | 24 |
| 2010-01-09T00:48 | 22409 | 37 | -69.1 | -93.4 | 89 | 25 |
| 2010-01-09T00:48 | 22459 | 37 | -69.3 | -93.2 | 89 | 25 |
| 2010-01-09T00:49 | 22510 | 36 | -69.8 | -93.5 | 88 | 25 |
| 2010-01-09T00:49 | 22561 | 36 | -70.2 | -93.8 | 89 | 25 |
| 2010-01-09T00:49 | 22613 | 36 | -70.3 | -94.0 | 92 | 25 |
| 2010-01-09T00:49 | 22664 | 35 | -69.4 | -93.5 | 97 | 25 |
| 2010-01-09T00:49 | 22715 | 35 | -68.1 | -92.9 | 101 | 24 |
| 2010-01-09T00:49 | 22766 | 35 | -68.0 | -92.6 | 102 | 24 |
| 2010-01-09T00:50 | 22815 | 34 | -67.5 | -92.3 | 100 | 25 |
| 2010-01-09T00:50 | 22867 | 34 | -66.7 | -91.7 | 96 | 26 |
| 2010-01-09T00:50 | 22914 | 34 | -65.8 | -91.3 | 93 | 26 |
| 2010-01-09T00:50 | 22961 | 34 | -65.8 | -91.0 | 93 | 26 |
| 2010-01-09T00:50 | 23008 | 33 | -65.3 | -91.0 | 93 | 25 |
| 2010-01-09T00:50 | 23054 | 33 | -65.2 | -90.8 | 95 | 25 |
| 2010-01-09T00:51 | 23102 | 33 | -65.0 | -90.9 | 98 | 25 |
| 2010-01-09T00:51 | 23148 | 33 | -65.3 | -91.0 | 99 | 24 |
| 2010-01-09T00:51 | 23194 | 32 | -65.0 | -90.9 | 99 | 25 |
| 2010-01-09T00:51 | 23240 | 32 | -65.1 | -91.0 | 99 | 25 |
| 2010-01-09T00:51 | 23286 | 32 | -64.9 | -91.0 | 99 | 26 |
| 2010-01-09T00:51 | 23333 | 32 | -64.4 | -90.7 | 99 | 28 |
| 2010-01-09T00:52 | 23381 | 31 | -63.4 | -90.2 | 100 | 28 |
| 2010-01-09T00:52 | 23426 | 31 | -62.2 | -89.5 | 100 | 28 |
| 2010-01-09T00:52 | 23474 | 31 | -62.0 | -89.2 | 99 | 28 |
| 2010-01-09T00:52 | 23521 | 31 | -61.9 | -89.0 | 100 | 28 |
| 2010-01-09T00:52 | 23570 | 30 | -61.4 | -88.7 | 102 | 28 |
| 2010-01-09T00:52 | 23621 | 30 | -61.1 | -88.6 | 103 | 29 |
| 2010-01-09T00:53 | 23676 | 30 | -60.2 | -88.1 | 103 | 30 |
| 2010-01-09T00:53 | 23729 | 30 | -59.4 | -87.6 | 102 | 30 |
| 2010-01-09T00:53 | 23782 | 29 | -58.4 | -87.1 | 103 | 30 |
| 2010-01-09T00:53 | 23837 | 29 | -58.3 | -86.8 | 103 | 30 |
| 2010-01-09T00:53 | 23891 | 29 | -58.5 | -86.9 | 102 | 31 |
| 2010-01-09T00:53 | 23942 | 29 | -58.5 | -86.8 | 101 | 32 |
| 2010-01-09T00:54 | 23999 | 28 | -58.5 | -86.7 | 100 | 33 |
| 2010-01-09T00:54 | 24052 | 28 | -58.2 | -86.6 | 99 | 34 |
| 2010-01-09T00:54 | 24105 | 28 | -57.8 | -86.3 | 99 | 35 |
| 2010-01-09T00:54 | 24158 | 28 | -57.4 | -86.1 | 99 | 36 |
| 2010-01-09T00:54 | 24209 | 27 | -56.9 | -85.8 | 99 | 37 |
| 2010-01-09T00:54 | 24260 | 27 | -56.5 | -85.6 | 99 | 37 |
| 2010-01-09T00:55 | 24308 | 27 | -56.6 | -85.5 | 98 | 37 |
| 2010-01-09T00:55 | 24357 | 27 | -56.8 | -85.5 | 97 | 37 |
| 2010-01-09T00:55 | 24405 | 27 | -56.8 | -85.5 | 95 | 37 |
| 2010-01-09T00:55 | 24453 | 26 | -56.3 | -85.3 | 93 | 37 |
| 2010-01-09T00:55 | 24502 | 26 | -55.9 | -85.0 | 91 | 37 |
| 2010-01-09T00:55 | 24548 | 26 | -55.6 | -84.8 | 89 | 37 |
| 2010-01-09T00:56 | 24598 | 26 | -55.5 | -84.7 | 86 | 37 |
| 2010-01-09T00:56 | 24644 | 26 | -55.4 | -84.7 | 85 | 37 |
| 2010-01-09T00:56 | 24696 | 25 | -55.3 | -84.5 | 84 | 36 |
| 2010-01-09T00:56 | 24744 | 25 | -55.1 | -84.4 | 83 | 35 |
| 2010-01-09T00:56 | 24795 | 25 | -55.4 | -84.5 | 83 | 35 |
| 2010-01-09T00:56 | 24845 | 25 | -55.2 | -84.3 | 82 | 35 |
| 2010-01-09T00:57 | 24896 | 25 | -55.1 | -84.3 | 81 | 35 |
| 2010-01-09T00:57 | 24950 | 24 | -54.8 | -84.1 | 80 | 34 |
| 2010-01-09T00:57 | 25003 | 24 | -54.6 | -84.0 | 79 | 34 |
| 2010-01-09T00:57 | 25057 | 24 | -54.1 | -83.7 | 77 | 35 |
| 2010-01-09T00:57 | 25111 | 24 | -54.2 | -83.7 | 76 | 35 |
| 2010-01-09T00:57 | 25164 | 24 | -54.5 | -83.8 | 75 | 35 |
| 2010-01-09T00:58 | 25218 | 23 | -54.8 | -84.0 | 74 | 36 |
| 2010-01-09T00:58 | 25271 | 23 | -54.9 | -84.0 | 74 | 36 |
| 2010-01-09T00:58 | 25322 | 23 | -55.0 | -84.0 | 75 | 36 |
| 2010-01-09T00:58 | 25377 | 23 | -55.1 | -84.1 | 77 | 35 |
| 2010-01-09T00:58 | 25430 | 23 | -54.8 | -84.0 | 78 | 35 |
| 2010-01-09T00:58 | 25481 | 23 | -55.0 | -84.0 | 78 | 35 |
| 2010-01-09T00:59 | 25533 | 22 | -55.0 | -84.0 | 79 | 35 |
| 2010-01-09T00:59 | 25584 | 22 | -54.8 | -84.0 | 79 | 35 |
| 2010-01-09T00:59 | 25636 | 22 | -54.5 | -83.8 | 79 | 34 |
| 2010-01-09T00:59 | 25686 | 22 | -54.2 | -83.7 | 79 | 34 |
| 2010-01-09T00:59 | 25737 | 22 | -54.2 | -83.6 | 80 | 33 |
| 2010-01-09T00:59 | 25783 | 21 | -54.3 | -83.6 | 81 | 33 |
| 2010-01-09T01:00 | 25834 | 21 | -54.2 | -83.6 | 82 | 34 |
| 2010-01-09T01:00 | 25881 | 21 | -53.7 | -83.4 | 83 | 35 |
| 2010-01-09T01:00 | 25928 | 21 | -52.8 | -82.9 | 83 | 35 |
| 2010-01-09T01:00 | 25980 | 21 | -51.8 | -82.4 | 83 | 35 |
| 2010-01-09T01:00 | 26031 | 21 | -51.4 | -82.0 | 82 | 34 |
| 2010-01-09T01:00 | 26079 | 21 | -51.3 | -81.9 | 82 | 34 |
| 2010-01-09T01:01 | 26128 | 20 | -51.0 | -81.7 | 81 | 34 |
| 2010-01-09T01:01 | 26178 | 20 | -51.3 | -81.6 | 81 | 33 |
| 2010-01-09T01:01 | 26234 | 20 | -51.2 | -81.6 | 81 | 34 |
| 2010-01-09T01:01 | 26284 | 20 | -51.1 | -81.5 | 82 | 34 |
| 2010-01-09T01:01 | 26335 | 20 | -50.9 | -81.4 | 84 | 34 |
| 2010-01-09T01:01 | 26388 | 20 | -50.9 | -81.4 | 85 | 34 |
| 2010-01-09T01:02 | 26438 | 19 | -50.8 | -81.3 | 87 | 34 |
| 2010-01-09T01:02 | 26493 | 19 | -50.9 | -81.3 | 87 | 34 |
| 2010-01-09T01:02 | 26550 | 19 | -51.1 | -81.4 | 88 | 34 |
| 2010-01-09T01:02 | 26602 | 19 | -51.5 | -81.6 | 88 | 35 |
| 2010-01-09T11:28 | 4 | 1006 | 23.9 | 23.6 | 270 | 3 |
| 2010-01-09T11:28 | 14 | 1005 | 24.3 | 23.7 | 278 | 2 |
| 2010-01-09T11:28 | 24 | 1004 | 24.4 | 23.6 | 279 | 2 |
| 2010-01-09T11:28 | 34 | 1003 | 24.4 | 23.5 | 279 | 3 |
| 2010-01-09T11:28 | 44 | 1002 | 24.5 | 23.5 | 280 | 3 |
| 2010-01-09T11:28 | 55 | 1001 | 24.7 | 23.5 | 281 | 4 |
| 2010-01-09T11:28 | 66 | 999 | 24.7 | 23.5 | 282 | 4 |
| 2010-01-09T11:28 | 74 | 998 | 24.7 | 23.4 | 283 | 5 |
| 2010-01-09T11:28 | 82 | 998 | 24.7 | 23.3 | 284 | 5 |
| 2010-01-09T11:28 | 90 | 997 | 24.6 | 23.2 | 285 | 6 |
| 2010-01-09T11:28 | 99 | 996 | 24.6 | 23.2 | 286 | 6 |
| 2010-01-09T11:28 | 108 | 995 | 24.6 | 23.3 | 287 | 7 |
| 2010-01-09T11:28 | 117 | 994 | 24.7 | 23.3 | 288 | 7 |
| 2010-01-09T11:28 | 127 | 992 | 24.7 | 23.3 | 288 | 7 |
| 2010-01-09T11:28 | 138 | 991 | 24.7 | 23.1 | 289 | 8 |
| 2010-01-09T11:28 | 147 | 990 | 24.6 | 23.0 | 290 | 8 |
| 2010-01-09T11:28 | 157 | 989 | 24.6 | 23.0 | 290 | 8 |
| 2010-01-09T11:28 | 168 | 988 | 24.5 | 23.0 | 291 | 9 |
| 2010-01-09T11:28 | 179 | 987 | 24.5 | 23.0 | 291 | 9 |
| 2010-01-09T11:28 | 190 | 985 | 24.4 | 23.0 | 291 | 9 |
| 2010-01-09T11:28 | 204 | 984 | 24.3 | 22.9 | 292 | 9 |
| 2010-01-09T11:28 | 218 | 982 | 24.2 | 22.9 | 292 | 9 |
| 2010-01-09T11:28 | 231 | 981 | 24.1 | 22.8 | 293 | 10 |
| 2010-01-09T11:28 | 242 | 979 | 24.0 | 22.8 | 293 | 10 |
| 2010-01-09T11:28 | 256 | 978 | 23.9 | 22.8 | 293 | 10 |
| 2010-01-09T11:28 | 268 | 977 | 23.8 | 22.8 | 293 | 10 |
| 2010-01-09T11:28 | 281 | 975 | 23.8 | 22.8 | 294 | 10 |
| 2010-01-09T11:28 | 295 | 974 | 23.6 | 22.7 | 294 | 10 |
| 2010-01-09T11:28 | 308 | 972 | 23.5 | 22.7 | 294 | 10 |
| 2010-01-09T11:28 | 323 | 971 | 23.4 | 22.6 | 294 | 10 |
| 2010-01-09T11:29 | 336 | 969 | 23.4 | 22.6 | 293 | 10 |
| 2010-01-09T11:29 | 349 | 968 | 23.3 | 22.6 | 293 | 10 |
| 2010-01-09T11:29 | 361 | 966 | 23.1 | 22.5 | 293 | 10 |
| 2010-01-09T11:29 | 373 | 965 | 23.1 | 22.5 | 292 | 11 |
| 2010-01-09T11:29 | 383 | 964 | 23.1 | 22.3 | 292 | 11 |
| 2010-01-09T11:29 | 394 | 963 | 23.1 | 22.3 | 292 | 11 |
| 2010-01-09T11:29 | 404 | 962 | 23.0 | 22.2 | 291 | 11 |
| 2010-01-09T11:29 | 414 | 960 | 22.9 | 22.1 | 291 | 11 |
| 2010-01-09T11:29 | 424 | 959 | 22.8 | 22.0 | 291 | 11 |
| 2010-01-09T11:29 | 434 | 958 | 22.7 | 22.0 | 291 | 11 |
| 2010-01-09T11:29 | 446 | 957 | 22.6 | 22.0 | 291 | 11 |
| 2010-01-09T11:29 | 458 | 956 | 22.5 | 21.9 | 291 | 11 |
| 2010-01-09T11:29 | 470 | 954 | 22.5 | 21.9 | 291 | 11 |
| 2010-01-09T11:29 | 480 | 953 | 22.4 | 21.9 | 291 | 11 |
| 2010-01-09T11:29 | 490 | 952 | 22.3 | 21.8 | 292 | 11 |
| 2010-01-09T11:29 | 500 | 951 | 22.2 | 21.7 | 292 | 11 |
| 2010-01-09T11:29 | 511 | 950 | 22.1 | 21.7 | 292 | 11 |
| 2010-01-09T11:29 | 522 | 949 | 22.1 | 21.6 | 292 | 11 |
| 2010-01-09T11:29 | 533 | 947 | 22.0 | 21.6 | 292 | 11 |
| 2010-01-09T11:29 | 546 | 946 | 21.9 | 21.5 | 292 | 12 |
| 2010-01-09T11:29 | 556 | 945 | 21.8 | 21.5 | 292 | 12 |
| 2010-01-09T11:29 | 566 | 944 | 21.7 | 21.4 | 291 | 12 |
| 2010-01-09T11:29 | 577 | 943 | 21.7 | 21.4 | 291 | 12 |
| 2010-01-09T11:29 | 588 | 942 | 21.6 | 21.3 | 291 | 12 |
| 2010-01-09T11:29 | 600 | 940 | 21.6 | 21.2 | 291 | 12 |
| 2010-01-09T11:29 | 613 | 939 | 21.5 | 21.1 | 291 | 13 |
| 2010-01-09T11:29 | 624 | 938 | 21.5 | 21.0 | 290 | 13 |
| 2010-01-09T11:29 | 634 | 937 | 21.5 | 21.0 | 290 | 13 |
| 2010-01-09T11:29 | 644 | 936 | 21.4 | 21.0 | 290 | 13 |
| 2010-01-09T11:29 | 653 | 935 | 21.3 | 20.9 | 290 | 13 |
| 2010-01-09T11:30 | 663 | 934 | 21.3 | 20.8 | 290 | 13 |
| 2010-01-09T11:30 | 674 | 932 | 21.3 | 20.7 | 289 | 13 |
| 2010-01-09T11:30 | 685 | 931 | 21.3 | 20.6 | 289 | 14 |
| 2010-01-09T11:30 | 696 | 930 | 21.3 | 20.5 | 289 | 14 |
| 2010-01-09T11:30 | 707 | 929 | 21.2 | 20.4 | 289 | 14 |
| 2010-01-09T11:30 | 718 | 928 | 21.1 | 20.3 | 289 | 14 |
| 2010-01-09T11:30 | 729 | 926 | 21.0 | 20.3 | 289 | 14 |
| 2010-01-09T11:30 | 741 | 925 | 20.9 | 20.2 | 289 | 14 |
| 2010-01-09T11:30 | 751 | 924 | 20.8 | 20.2 | 289 | 14 |
| 2010-01-09T11:30 | 762 | 923 | 20.8 | 20.0 | 289 | 14 |
| 2010-01-09T11:30 | 773 | 922 | 20.8 | 19.8 | 289 | 14 |
| 2010-01-09T11:30 | 783 | 921 | 20.8 | 19.7 | 289 | 14 |
| 2010-01-09T11:30 | 794 | 920 | 20.8 | 19.7 | 289 | 14 |
| 2010-01-09T11:30 | 805 | 918 | 20.6 | 19.6 | 289 | 14 |
| 2010-01-09T11:30 | 817 | 917 | 20.5 | 19.6 | 289 | 14 |
| 2010-01-09T11:30 | 828 | 916 | 20.5 | 19.6 | 289 | 14 |
| 2010-01-09T11:30 | 840 | 915 | 20.4 | 19.5 | 290 | 14 |
| 2010-01-09T11:30 | 853 | 913 | 20.3 | 19.4 | 290 | 14 |
| 2010-01-09T11:30 | 866 | 912 | 20.3 | 19.3 | 290 | 14 |
| 2010-01-09T11:30 | 877 | 911 | 20.2 | 19.3 | 291 | 14 |
| 2010-01-09T11:30 | 888 | 910 | 20.2 | 19.1 | 291 | 14 |
| 2010-01-09T11:30 | 899 | 908 | 20.3 | 18.9 | 292 | 14 |
| 2010-01-09T11:30 | 910 | 907 | 20.2 | 18.9 | 293 | 14 |
| 2010-01-09T11:30 | 921 | 906 | 20.2 | 18.8 | 293 | 14 |
| 2010-01-09T11:30 | 932 | 905 | 20.1 | 18.7 | 294 | 14 |
| 2010-01-09T11:30 | 945 | 904 | 20.1 | 18.6 | 295 | 14 |
| 2010-01-09T11:30 | 957 | 902 | 20.0 | 18.6 | 296 | 14 |
| 2010-01-09T11:30 | 969 | 901 | 20.0 | 18.6 | 296 | 14 |
| 2010-01-09T11:30 | 980 | 900 | 20.1 | 18.4 | 297 | 14 |
| 2010-01-09T11:30 | 990 | 899 | 20.3 | 17.9 | 298 | 14 |
| 2010-01-09T11:31 | 1000 | 898 | 20.3 | 17.6 | 298 | 13 |
| 2010-01-09T11:31 | 1012 | 897 | 20.3 | 17.5 | 298 | 13 |
| 2010-01-09T11:31 | 1024 | 895 | 20.3 | 17.4 | 299 | 13 |
| 2010-01-09T11:31 | 1036 | 894 | 20.3 | 17.3 | 299 | 13 |
| 2010-01-09T11:31 | 1046 | 893 | 20.3 | 17.2 | 299 | 13 |
| 2010-01-09T11:31 | 1056 | 892 | 20.3 | 17.1 | 299 | 13 |
| 2010-01-09T11:31 | 1065 | 891 | 20.3 | 17.0 | 299 | 13 |
| 2010-01-09T11:31 | 1075 | 890 | 20.4 | 16.9 | 299 | 13 |
| 2010-01-09T11:31 | 1087 | 889 | 20.5 | 16.9 | 299 | 13 |
| 2010-01-09T11:31 | 1097 | 888 | 20.6 | 16.8 | 299 | 13 |
| 2010-01-09T11:31 | 1108 | 887 | 20.6 | 16.7 | 299 | 13 |
| 2010-01-09T11:31 | 1119 | 886 | 20.6 | 16.6 | 299 | 13 |
| 2010-01-09T11:31 | 1131 | 885 | 20.5 | 16.6 | 299 | 13 |
| 2010-01-09T11:31 | 1142 | 883 | 20.5 | 16.6 | 299 | 13 |
| 2010-01-09T11:31 | 1154 | 882 | 20.5 | 16.5 | 299 | 14 |
| 2010-01-09T11:31 | 1166 | 881 | 20.4 | 16.5 | 300 | 14 |
| 2010-01-09T11:31 | 1177 | 880 | 20.4 | 16.5 | 300 | 14 |
| 2010-01-09T11:31 | 1188 | 879 | 20.3 | 16.5 | 300 | 14 |
| 2010-01-09T11:31 | 1198 | 878 | 20.2 | 16.5 | 300 | 14 |
| 2010-01-09T11:31 | 1208 | 877 | 20.1 | 16.5 | 300 | 14 |
| 2010-01-09T11:31 | 1220 | 875 | 20.1 | 16.5 | 300 | 14 |
| 2010-01-09T11:31 | 1231 | 874 | 20.1 | 16.4 | 300 | 14 |
| 2010-01-09T11:31 | 1242 | 873 | 20.1 | 16.4 | 300 | 14 |
| 2010-01-09T11:31 | 1253 | 872 | 20.0 | 16.4 | 299 | 13 |
| 2010-01-09T11:31 | 1264 | 871 | 20.0 | 16.4 | 299 | 13 |
| 2010-01-09T11:31 | 1275 | 870 | 19.9 | 16.4 | 299 | 13 |
| 2010-01-09T11:31 | 1287 | 869 | 20.0 | 16.4 | 299 | 13 |
| 2010-01-09T11:31 | 1298 | 868 | 20.1 | 16.3 | 299 | 13 |
| 2010-01-09T11:31 | 1309 | 866 | 20.1 | 16.3 | 298 | 13 |
| 2010-01-09T11:31 | 1321 | 865 | 20.2 | 16.2 | 298 | 13 |
| 2010-01-09T11:32 | 1332 | 864 | 20.2 | 16.2 | 298 | 13 |
| 2010-01-09T11:32 | 1343 | 863 | 20.2 | 16.2 | 299 | 12 |
| 2010-01-09T11:32 | 1353 | 862 | 20.1 | 16.1 | 299 | 12 |
| 2010-01-09T11:32 | 1363 | 861 | 20.1 | 16.0 | 299 | 12 |
| 2010-01-09T11:32 | 1374 | 860 | 20.0 | 15.8 | 299 | 12 |
| 2010-01-09T11:32 | 1385 | 859 | 20.0 | 15.7 | 300 | 12 |
| 2010-01-09T11:32 | 1396 | 858 | 19.9 | 15.7 | 300 | 12 |
| 2010-01-09T11:32 | 1406 | 857 | 19.9 | 15.6 | 300 | 11 |
| 2010-01-09T11:32 | 1418 | 856 | 19.9 | 15.6 | 300 | 11 |
| 2010-01-09T11:32 | 1430 | 854 | 19.9 | 15.5 | 301 | 11 |
| 2010-01-09T11:32 | 1441 | 853 | 20.0 | 15.4 | 301 | 11 |
| 2010-01-09T11:32 | 1452 | 852 | 20.1 | 15.3 | 301 | 11 |
| 2010-01-09T11:32 | 1463 | 851 | 20.1 | 15.2 | 301 | 11 |
| 2010-01-09T11:32 | 1473 | 850 | 20.0 | 15.1 | 301 | 11 |
| 2010-01-09T11:32 | 1484 | 849 | 20.0 | 15.0 | 302 | 11 |
| 2010-01-09T11:32 | 1494 | 848 | 20.0 | 14.9 | 302 | 11 |
| 2010-01-09T11:32 | 1504 | 847 | 19.9 | 14.9 | 302 | 11 |
| 2010-01-09T11:32 | 1514 | 846 | 19.9 | 14.8 | 303 | 10 |
| 2010-01-09T11:32 | 1522 | 845 | 19.8 | 14.8 | 303 | 10 |
| 2010-01-09T11:32 | 1531 | 845 | 19.8 | 14.9 | 304 | 10 |
| 2010-01-09T11:32 | 1541 | 844 | 19.7 | 15.0 | 305 | 10 |
| 2010-01-09T11:32 | 1553 | 842 | 19.7 | 15.0 | 305 | 10 |
| 2010-01-09T11:32 | 1564 | 841 | 19.8 | 15.0 | 306 | 10 |
| 2010-01-09T11:32 | 1574 | 840 | 19.9 | 14.9 | 307 | 10 |
| 2010-01-09T11:32 | 1584 | 839 | 19.9 | 14.7 | 308 | 10 |
| 2010-01-09T11:32 | 1595 | 838 | 19.9 | 14.6 | 308 | 10 |
| 2010-01-09T11:32 | 1605 | 837 | 19.9 | 14.5 | 309 | 9 |
| 2010-01-09T11:32 | 1615 | 836 | 19.8 | 14.4 | 310 | 9 |
| 2010-01-09T11:32 | 1626 | 835 | 19.8 | 14.3 | 311 | 9 |
| 2010-01-09T11:32 | 1638 | 834 | 19.7 | 14.2 | 311 | 9 |
| 2010-01-09T11:33 | 1649 | 833 | 19.6 | 14.1 | 312 | 9 |
| 2010-01-09T11:33 | 1661 | 832 | 19.5 | 14.0 | 313 | 9 |
| 2010-01-09T11:33 | 1672 | 831 | 19.5 | 14.0 | 314 | 8 |
| 2010-01-09T11:33 | 1683 | 830 | 19.4 | 13.9 | 314 | 8 |
| 2010-01-09T11:33 | 1694 | 829 | 19.3 | 13.7 | 315 | 8 |
| 2010-01-09T11:33 | 1704 | 828 | 19.3 | 13.6 | 316 | 8 |
| 2010-01-09T11:33 | 1715 | 827 | 19.2 | 13.6 | 316 | 8 |
| 2010-01-09T11:33 | 1726 | 826 | 19.1 | 13.5 | 317 | 8 |
| 2010-01-09T11:33 | 1737 | 825 | 19.0 | 13.5 | 318 | 8 |
| 2010-01-09T11:33 | 1748 | 824 | 18.9 | 13.5 | 319 | 8 |
| 2010-01-09T11:33 | 1760 | 822 | 18.8 | 13.5 | 320 | 8 |
| 2010-01-09T11:33 | 1772 | 821 | 18.6 | 13.5 | 321 | 7 |
| 2010-01-09T11:33 | 1784 | 820 | 18.5 | 13.5 | 322 | 7 |
| 2010-01-09T11:33 | 1796 | 819 | 18.4 | 13.4 | 322 | 7 |
| 2010-01-09T11:33 | 1807 | 818 | 18.3 | 13.4 | 323 | 7 |
| 2010-01-09T11:33 | 1818 | 817 | 18.2 | 13.3 | 324 | 7 |
| 2010-01-09T11:33 | 1829 | 816 | 18.1 | 13.1 | 325 | 7 |
| 2010-01-09T11:33 | 1839 | 815 | 18.1 | 13.0 | 325 | 7 |
| 2010-01-09T11:33 | 1849 | 814 | 18.0 | 12.9 | 326 | 7 |
| 2010-01-09T11:33 | 1860 | 813 | 18.0 | 12.7 | 326 | 7 |
| 2010-01-09T11:33 | 1870 | 812 | 18.0 | 12.5 | 327 | 7 |
| 2010-01-09T11:33 | 1881 | 811 | 17.9 | 12.4 | 327 | 7 |
| 2010-01-09T11:33 | 1892 | 810 | 17.8 | 12.4 | 327 | 7 |
| 2010-01-09T11:33 | 1903 | 809 | 17.7 | 12.3 | 328 | 6 |
| 2010-01-09T11:33 | 1914 | 808 | 17.6 | 12.3 | 328 | 6 |
| 2010-01-09T11:33 | 1924 | 807 | 17.5 | 12.2 | 327 | 6 |
| 2010-01-09T11:33 | 1935 | 806 | 17.5 | 12.1 | 327 | 6 |
| 2010-01-09T11:33 | 1945 | 805 | 17.4 | 12.0 | 327 | 6 |
| 2010-01-09T11:33 | 1955 | 804 | 17.4 | 12.0 | 326 | 6 |
| 2010-01-09T11:33 | 1965 | 803 | 17.3 | 11.9 | 326 | 7 |
| 2010-01-09T11:34 | 1975 | 802 | 17.2 | 11.8 | 325 | 7 |
| 2010-01-09T11:34 | 1986 | 801 | 17.1 | 11.9 | 324 | 7 |
| 2010-01-09T11:34 | 1998 | 800 | 17.1 | 11.9 | 324 | 7 |
| 2010-01-09T11:34 | 2033 | 797 | 16.8 | 11.8 | 320 | 7 |
| 2010-01-09T11:34 | 2096 | 791 | 16.2 | 12.0 | 312 | 6 |
| 2010-01-09T11:34 | 2153 | 786 | 15.7 | 12.6 | 302 | 5 |
| 2010-01-09T11:34 | 2200 | 781 | 15.3 | 12.6 | 296 | 5 |
| 2010-01-09T11:34 | 2248 | 777 | 15.0 | 12.2 | 295 | 5 |
| 2010-01-09T11:35 | 2301 | 772 | 14.9 | 11.8 | 297 | 4 |
| 2010-01-09T11:35 | 2362 | 766 | 14.9 | 11.3 | 300 | 4 |
| 2010-01-09T11:35 | 2424 | 761 | 14.8 | 10.4 | 305 | 4 |
| 2010-01-09T11:35 | 2481 | 756 | 14.4 | 10.1 | 309 | 4 |
| 2010-01-09T11:35 | 2540 | 750 | 13.9 | 10.0 | 311 | 4 |
| 2010-01-09T11:35 | 2592 | 746 | 13.5 | 9.8 | 312 | 4 |
| 2010-01-09T11:36 | 2645 | 741 | 13.1 | 9.7 | 316 | 4 |
| 2010-01-09T11:36 | 2699 | 737 | 12.6 | 9.6 | 320 | 5 |
| 2010-01-09T11:36 | 2752 | 732 | 12.2 | 9.5 | 321 | 4 |
| 2010-01-09T11:36 | 2804 | 727 | 11.8 | 9.4 | 319 | 4 |
| 2010-01-09T11:36 | 2858 | 723 | 11.4 | 9.1 | 314 | 5 |
| 2010-01-09T11:36 | 2908 | 718 | 11.1 | 9.0 | 310 | 6 |
| 2010-01-09T11:37 | 2964 | 714 | 10.7 | 8.6 | 309 | 6 |
| 2010-01-09T11:37 | 3019 | 709 | 10.2 | 8.4 | 309 | 6 |
| 2010-01-09T11:37 | 3070 | 705 | 9.7 | 8.5 | 310 | 7 |
| 2010-01-09T11:37 | 3121 | 700 | 9.3 | 8.5 | 308 | 7 |
| 2010-01-09T11:37 | 3179 | 695 | 9.2 | 7.7 | 306 | 7 |
| 2010-01-09T11:37 | 3241 | 690 | 8.9 | 7.5 | 306 | 6 |
| 2010-01-09T11:38 | 3302 | 685 | 8.5 | 7.3 | 308 | 6 |
| 2010-01-09T11:38 | 3364 | 680 | 8.0 | 7.1 | 309 | 6 |
| 2010-01-09T11:38 | 3417 | 676 | 8.0 | 7.0 | 306 | 6 |
| 2010-01-09T11:38 | 3470 | 671 | 7.9 | 6.6 | 301 | 6 |
| 2010-01-09T11:38 | 3527 | 667 | 8.4 | 5.8 | 296 | 6 |
| 2010-01-09T11:38 | 3580 | 663 | 8.3 | 4.7 | 294 | 6 |
| 2010-01-09T11:39 | 3631 | 658 | 7.9 | 4.4 | 290 | 6 |
| 2010-01-09T11:39 | 3683 | 654 | 7.5 | 4.1 | 282 | 8 |
| 2010-01-09T11:39 | 3734 | 650 | 7.3 | 3.5 | 276 | 9 |
| 2010-01-09T11:39 | 3793 | 646 | 7.2 | 3.2 | 273 | 8 |
| 2010-01-09T11:39 | 3857 | 641 | 6.8 | 2.9 | 274 | 8 |
| 2010-01-09T11:39 | 3915 | 636 | 6.3 | 2.7 | 277 | 6 |
| 2010-01-09T11:40 | 3974 | 632 | 5.8 | 2.9 | 276 | 6 |
| 2010-01-09T11:40 | 4028 | 628 | 5.4 | 2.9 | 273 | 6 |
| 2010-01-09T11:40 | 4075 | 624 | 5.1 | 2.7 | 278 | 6 |
| 2010-01-09T11:40 | 4127 | 620 | 4.6 | 2.5 | 286 | 5 |
| 2010-01-09T11:40 | 4178 | 616 | 4.2 | 2.5 | 292 | 4 |
| 2010-01-09T11:40 | 4240 | 611 | 4.1 | 2.8 | 299 | 2 |
| 2010-01-09T11:41 | 4292 | 608 | 4.0 | 2.7 | 313 | 1 |
| 2010-01-09T11:41 | 4341 | 604 | 3.5 | 2.4 | 329 | 2 |
| 2010-01-09T11:41 | 4396 | 600 | 3.1 | 2.0 | 355 | 1 |
| 2010-01-09T11:41 | 4452 | 596 | 2.9 | 1.8 | 37 | 1 |
| 2010-01-09T11:41 | 4507 | 592 | 2.4 | 1.7 | 57 | 2 |
| 2010-01-09T11:41 | 4558 | 588 | 2.0 | 1.6 | 60 | 2 |
| 2010-01-09T11:42 | 4612 | 584 | 1.6 | 1.3 | 57 | 2 |
| 2010-01-09T11:42 | 4673 | 580 | 1.2 | 0.9 | 55 | 2 |
| 2010-01-09T11:42 | 4731 | 576 | 0.7 | 0.6 | 62 | 2 |
| 2010-01-09T11:42 | 4785 | 572 | 0.6 | 0.5 | 68 | 2 |
| 2010-01-09T11:42 | 4842 | 568 | 0.4 | 0.0 | 71 | 2 |
| 2010-01-09T11:42 | 4895 | 564 | 0.3 | -0.5 | 80 | 2 |
| 2010-01-09T11:43 | 4958 | 559 | 0.2 | -1.1 | 96 | 3 |
| 2010-01-09T11:43 | 5010 | 556 | 0.1 | -1.8 | 104 | 4 |
| 2010-01-09T11:43 | 5063 | 552 | -0.3 | -2.2 | 106 | 5 |
| 2010-01-09T11:43 | 5118 | 548 | -0.8 | -2.5 | 106 | 6 |
| 2010-01-09T11:43 | 5176 | 544 | -1.3 | -2.7 | 103 | 6 |
| 2010-01-09T11:43 | 5240 | 540 | -1.9 | -2.8 | 99 | 6 |
| 2010-01-09T11:44 | 5295 | 536 | -2.3 | -3.1 | 100 | 5 |
| 2010-01-09T11:44 | 5360 | 532 | -2.2 | -3.3 | 104 | 6 |
| 2010-01-09T11:44 | 5421 | 528 | -2.1 | -4.7 | 106 | 8 |
| 2010-01-09T11:44 | 5477 | 524 | -1.9 | -5.1 | 107 | 8 |
| 2010-01-09T11:44 | 5534 | 521 | -2.2 | -6.2 | 109 | 8 |
| 2010-01-09T11:44 | 5594 | 517 | -2.6 | -6.5 | 113 | 8 |
| 2010-01-09T11:45 | 5659 | 512 | -3.2 | -7.3 | 114 | 7 |
| 2010-01-09T11:45 | 5713 | 509 | -3.5 | -7.2 | 115 | 6 |
| 2010-01-09T11:45 | 5769 | 505 | -3.5 | -7.3 | 114 | 5 |
| 2010-01-09T11:45 | 5810 | 503 | -3.5 | -7.9 | 109 | 5 |
| 2010-01-09T11:45 | 5857 | 500 | -3.7 | -10.2 | 104 | 5 |
| 2010-01-09T11:45 | 5906 | 497 | -4.2 | -10.5 | 104 | 5 |
| 2010-01-09T11:46 | 5958 | 493 | -4.6 | -9.3 | 104 | 5 |
| 2010-01-09T11:46 | 6014 | 490 | -5.1 | -9.1 | 102 | 5 |
| 2010-01-09T11:46 | 6066 | 487 | -5.6 | -9.4 | 101 | 6 |
| 2010-01-09T11:46 | 6107 | 484 | -6.0 | -8.8 | 104 | 6 |
| 2010-01-09T11:46 | 6152 | 481 | -6.5 | -7.9 | 108 | 6 |
| 2010-01-09T11:46 | 6215 | 477 | -7.0 | -7.9 | 111 | 6 |
| 2010-01-09T11:47 | 6269 | 474 | -7.4 | -8.1 | 112 | 5 |
| 2010-01-09T11:47 | 6310 | 472 | -7.8 | -8.3 | 109 | 5 |
| 2010-01-09T11:47 | 6360 | 469 | -8.1 | -8.6 | 105 | 5 |
| 2010-01-09T11:47 | 6412 | 466 | -8.0 | -9.3 | 103 | 5 |
| 2010-01-09T11:47 | 6462 | 463 | -8.0 | -9.6 | 100 | 5 |
| 2010-01-09T11:47 | 6523 | 459 | -8.3 | -10.8 | 93 | 5 |
| 2010-01-09T11:48 | 6594 | 455 | -8.7 | -12.7 | 85 | 6 |
| 2010-01-09T11:48 | 6637 | 452 | -9.0 | -12.4 | 79 | 7 |
| 2010-01-09T11:48 | 6683 | 450 | -9.2 | -11.1 | 76 | 7 |
| 2010-01-09T11:48 | 6726 | 447 | -9.5 | -10.2 | 73 | 7 |
| 2010-01-09T11:48 | 6770 | 445 | -9.4 | -11.6 | 73 | 7 |
| 2010-01-09T11:48 | 6817 | 442 | -9.6 | -12.0 | 73 | 6 |
| 2010-01-09T11:49 | 6862 | 439 | -9.3 | -14.4 | 73 | 6 |
| 2010-01-09T11:49 | 6906 | 437 | -9.6 | -14.1 | 68 | 5 |
| 2010-01-09T11:49 | 6952 | 434 | -9.8 | -11.9 | 63 | 5 |
| 2010-01-09T11:49 | 7000 | 431 | -10.2 | -12.3 | 61 | 5 |
| 2010-01-09T11:49 | 7045 | 429 | -10.6 | -12.6 | 65 | 5 |
| 2010-01-09T11:49 | 7094 | 426 | -10.7 | -14.3 | 73 | 6 |
| 2010-01-09T11:50 | 7138 | 424 | -10.8 | -23.2 | 79 | 6 |
| 2010-01-09T11:50 | 7179 | 422 | -11.0 | -25.2 | 82 | 6 |
| 2010-01-09T11:50 | 7229 | 419 | -11.3 | -18.4 | 84 | 7 |
| 2010-01-09T11:50 | 7284 | 416 | -11.7 | -17.3 | 86 | 7 |
| 2010-01-09T11:50 | 7335 | 413 | -12.1 | -16.8 | 87 | 8 |
| 2010-01-09T11:50 | 7376 | 411 | -12.3 | -15.9 | 88 | 8 |
| 2010-01-09T11:51 | 7422 | 408 | -12.5 | -16.3 | 88 | 8 |
| 2010-01-09T11:51 | 7469 | 406 | -12.9 | -16.8 | 88 | 8 |
| 2010-01-09T11:51 | 7518 | 403 | -13.2 | -17.2 | 86 | 8 |
| 2010-01-09T11:51 | 7570 | 401 | -13.7 | -17.3 | 83 | 9 |
| 2010-01-09T11:51 | 7620 | 398 | -14.0 | -17.3 | 84 | 10 |
| 2010-01-09T11:51 | 7671 | 395 | -14.2 | -18.6 | 85 | 10 |
| 2010-01-09T11:52 | 7717 | 393 | -14.4 | -18.6 | 85 | 10 |
| 2010-01-09T11:52 | 7761 | 391 | -14.8 | -18.5 | 85 | 10 |
| 2010-01-09T11:52 | 7803 | 388 | -14.9 | -18.7 | 84 | 10 |
| 2010-01-09T11:52 | 7850 | 386 | -14.4 | -26.1 | 80 | 10 |
| 2010-01-09T11:52 | 7907 | 383 | -14.5 | -22.9 | 76 | 9 |
| 2010-01-09T11:52 | 7950 | 381 | -14.9 | -22.1 | 76 | 9 |
| 2010-01-09T11:53 | 7999 | 379 | -15.3 | -22.8 | 76 | 9 |
| 2010-01-09T11:53 | 8042 | 376 | -15.7 | -23.0 | 73 | 9 |
| 2010-01-09T11:53 | 8088 | 374 | -16.2 | -23.1 | 71 | 9 |
| 2010-01-09T11:53 | 8136 | 372 | -16.6 | -23.4 | 69 | 9 |
| 2010-01-09T11:53 | 8184 | 369 | -17.1 | -23.9 | 68 | 9 |
| 2010-01-09T11:53 | 8239 | 367 | -17.5 | -24.6 | 66 | 9 |
| 2010-01-09T11:54 | 8285 | 364 | -17.7 | -25.7 | 65 | 10 |
| 2010-01-09T11:54 | 8327 | 362 | -17.7 | -27.7 | 64 | 10 |
| 2010-01-09T11:54 | 8371 | 360 | -18.0 | -27.6 | 66 | 9 |
| 2010-01-09T11:54 | 8411 | 358 | -18.3 | -28.8 | 69 | 9 |
| 2010-01-09T11:54 | 8453 | 356 | -18.5 | -30.7 | 72 | 10 |
| 2010-01-09T11:54 | 8494 | 354 | -18.8 | -29.9 | 73 | 10 |
| 2010-01-09T11:55 | 8538 | 352 | -19.2 | -30.7 | 73 | 9 |
| 2010-01-09T11:55 | 8585 | 350 | -19.7 | -31.1 | 72 | 9 |
| 2010-01-09T11:55 | 8627 | 348 | -20.1 | -31.3 | 71 | 9 |
| 2010-01-09T11:55 | 8673 | 346 | -20.5 | -31.0 | 69 | 9 |
| 2010-01-09T11:55 | 8716 | 344 | -20.9 | -30.0 | 69 | 9 |
| 2010-01-09T11:55 | 8766 | 342 | -21.4 | -31.4 | 69 | 9 |
| 2010-01-09T11:56 | 8817 | 339 | -21.9 | -30.8 | 71 | 9 |
| 2010-01-09T11:56 | 8861 | 337 | -22.2 | -28.9 | 74 | 9 |
| 2010-01-09T11:56 | 8911 | 335 | -22.6 | -28.8 | 77 | 8 |
| 2010-01-09T11:56 | 8962 | 333 | -22.9 | -28.6 | 80 | 8 |
| 2010-01-09T11:56 | 9012 | 330 | -23.2 | -27.9 | 85 | 8 |
| 2010-01-09T11:56 | 9067 | 328 | -23.7 | -27.7 | 88 | 8 |
| 2010-01-09T11:57 | 9126 | 325 | -24.2 | -28.1 | 86 | 8 |
| 2010-01-09T11:57 | 9181 | 323 | -24.6 | -28.4 | 83 | 8 |
| 2010-01-09T11:57 | 9236 | 320 | -25.0 | -28.7 | 81 | 8 |
| 2010-01-09T11:57 | 9291 | 318 | -25.5 | -28.8 | 78 | 7 |
| 2010-01-09T11:57 | 9337 | 316 | -25.8 | -28.8 | 75 | 7 |
| 2010-01-09T11:57 | 9384 | 314 | -26.0 | -29.4 | 73 | 7 |
| 2010-01-09T11:58 | 9426 | 312 | -26.4 | -30.0 | 72 | 6 |
| 2010-01-09T11:58 | 9468 | 310 | -26.7 | -30.5 | 72 | 6 |
| 2010-01-09T11:58 | 9510 | 308 | -27.0 | -30.5 | 73 | 6 |
| 2010-01-09T11:58 | 9554 | 307 | -27.2 | -30.5 | 75 | 6 |
| 2010-01-09T11:58 | 9598 | 305 | -27.5 | -30.7 | 77 | 6 |
| 2010-01-09T11:58 | 9643 | 303 | -27.8 | -31.0 | 76 | 6 |
| 2010-01-09T11:59 | 9689 | 301 | -28.0 | -31.1 | 72 | 6 |
| 2010-01-09T11:59 | 9733 | 299 | -28.4 | -31.6 | 68 | 5 |
| 2010-01-09T11:59 | 9779 | 297 | -28.7 | -32.3 | 68 | 5 |
| 2010-01-09T11:59 | 9823 | 295 | -29.1 | -32.6 | 70 | 6 |
| 2010-01-09T11:59 | 9869 | 293 | -29.5 | -32.3 | 72 | 6 |
| 2010-01-09T11:59 | 9915 | 291 | -29.8 | -32.6 | 72 | 6 |
| 2010-01-09T12:00 | 9968 | 289 | -30.3 | -33.6 | 72 | 5 |
| 2010-01-09T12:00 | 10014 | 287 | -30.7 | -33.7 | 73 | 5 |
| 2010-01-09T12:00 | 10060 | 286 | -31.1 | -34.2 | 75 | 5 |
| 2010-01-09T12:00 | 10104 | 284 | -31.5 | -34.5 | 75 | 4 |
| 2010-01-09T12:00 | 10148 | 282 | -31.9 | -34.6 | 73 | 4 |
| 2010-01-09T12:00 | 10194 | 280 | -32.2 | -34.9 | 72 | 4 |
| 2010-01-09T12:01 | 10240 | 278 | -32.5 | -35.2 | 71 | 4 |
| 2010-01-09T12:01 | 10286 | 277 | -32.9 | -35.6 | 73 | 4 |
| 2010-01-09T12:01 | 10332 | 275 | -33.3 | -36.0 | 75 | 5 |
| 2010-01-09T12:01 | 10378 | 273 | -33.6 | -36.4 | 77 | 5 |
| 2010-01-09T12:01 | 10423 | 271 | -33.9 | -37.0 | 77 | 6 |
| 2010-01-09T12:01 | 10468 | 270 | -34.3 | -37.5 | 77 | 6 |
| 2010-01-09T12:02 | 10516 | 268 | -34.7 | -37.9 | 76 | 6 |
| 2010-01-09T12:02 | 10561 | 266 | -35.1 | -38.2 | 76 | 6 |
| 2010-01-09T12:02 | 10606 | 264 | -35.5 | -38.5 | 78 | 6 |
| 2010-01-09T12:02 | 10650 | 263 | -35.8 | -38.9 | 80 | 6 |
| 2010-01-09T12:02 | 10696 | 261 | -36.1 | -39.4 | 83 | 6 |
| 2010-01-09T12:02 | 10741 | 259 | -36.5 | -40.2 | 85 | 6 |
| 2010-01-09T12:03 | 10785 | 258 | -36.8 | -40.9 | 87 | 6 |
| 2010-01-09T12:03 | 10829 | 256 | -37.2 | -41.5 | 89 | 6 |
| 2010-01-09T12:03 | 10874 | 254 | -37.6 | -42.0 | 91 | 6 |
| 2010-01-09T12:03 | 10919 | 253 | -38.0 | -42.5 | 93 | 6 |
| 2010-01-09T12:03 | 10963 | 251 | -38.4 | -43.2 | 95 | 6 |
| 2010-01-09T12:03 | 11008 | 249 | -38.8 | -43.4 | 95 | 6 |
| 2010-01-09T12:04 | 11050 | 248 | -39.2 | -43.9 | 94 | 6 |
| 2010-01-09T12:04 | 11092 | 246 | -39.6 | -44.1 | 92 | 6 |
| 2010-01-09T12:04 | 11136 | 245 | -40.0 | -44.4 | 89 | 6 |
| 2010-01-09T12:04 | 11174 | 243 | -40.4 | -44.5 | 87 | 6 |
| 2010-01-09T12:04 | 11214 | 242 | -40.8 | -44.5 | 87 | 7 |
| 2010-01-09T12:04 | 11253 | 241 | -41.1 | -44.5 | 87 | 7 |
| 2010-01-09T12:05 | 11294 | 239 | -41.5 | -44.6 | 87 | 7 |
| 2010-01-09T12:05 | 11332 | 238 | -41.9 | -44.6 | 87 | 7 |
| 2010-01-09T12:05 | 11373 | 236 | -42.2 | -45.2 | 88 | 8 |
| 2010-01-09T12:05 | 11411 | 235 | -42.5 | -45.8 | 88 | 8 |
| 2010-01-09T12:05 | 11450 | 234 | -42.9 | -46.3 | 88 | 8 |
| 2010-01-09T12:05 | 11490 | 232 | -43.2 | -46.5 | 88 | 8 |
| 2010-01-09T12:06 | 11527 | 231 | -43.6 | -46.3 | 88 | 8 |
| 2010-01-09T12:06 | 11565 | 230 | -43.9 | -46.5 | 88 | 9 |
| 2010-01-09T12:06 | 11603 | 228 | -44.3 | -46.6 | 88 | 9 |
| 2010-01-09T12:06 | 11641 | 227 | -44.6 | -46.8 | 88 | 9 |
| 2010-01-09T12:06 | 11679 | 226 | -44.9 | -47.0 | 88 | 9 |
| 2010-01-09T12:06 | 11717 | 225 | -45.3 | -47.4 | 88 | 9 |
| 2010-01-09T12:07 | 11755 | 223 | -45.6 | -47.9 | 87 | 9 |
| 2010-01-09T12:07 | 11792 | 222 | -45.9 | -48.3 | 87 | 10 |
| 2010-01-09T12:07 | 11828 | 221 | -46.2 | -49.0 | 86 | 10 |
| 2010-01-09T12:07 | 11865 | 220 | -46.5 | -49.4 | 87 | 10 |
| 2010-01-09T12:07 | 11902 | 218 | -46.8 | -49.9 | 86 | 10 |
| 2010-01-09T12:07 | 11940 | 217 | -47.2 | -50.3 | 85 | 10 |
| 2010-01-09T12:08 | 11981 | 216 | -47.5 | -51.1 | 84 | 10 |
| 2010-01-09T12:08 | 12020 | 214 | -47.8 | -52.3 | 84 | 10 |
| 2010-01-09T12:08 | 12058 | 213 | -48.1 | -53.7 | 84 | 10 |
| 2010-01-09T12:08 | 12096 | 212 | -48.4 | -54.6 | 84 | 10 |
| 2010-01-09T12:08 | 12133 | 211 | -48.7 | -55.6 | 83 | 10 |
| 2010-01-09T12:08 | 12171 | 210 | -48.9 | -56.7 | 81 | 10 |
| 2010-01-09T12:09 | 12209 | 208 | -49.2 | -57.7 | 81 | 9 |
| 2010-01-09T12:09 | 12246 | 207 | -49.5 | -58.5 | 83 | 9 |
| 2010-01-09T12:09 | 12288 | 206 | -49.6 | -59.2 | 86 | 9 |
| 2010-01-09T12:09 | 12331 | 205 | -49.9 | -59.9 | 89 | 9 |
| 2010-01-09T12:09 | 12374 | 203 | -50.3 | -60.4 | 91 | 9 |
| 2010-01-09T12:09 | 12418 | 202 | -50.7 | -60.8 | 92 | 8 |
| 2010-01-09T12:10 | 12466 | 200 | -51.1 | -61.1 | 95 | 8 |
| 2010-01-09T12:10 | 12507 | 199 | -51.6 | -61.2 | 98 | 8 |
| 2010-01-09T12:10 | 12547 | 198 | -51.9 | -61.5 | 99 | 8 |
| 2010-01-09T12:10 | 12587 | 197 | -52.2 | -62.0 | 100 | 8 |
| 2010-01-09T12:10 | 12627 | 195 | -52.5 | -62.5 | 100 | 9 |
| 2010-01-09T12:10 | 12668 | 194 | -52.8 | -62.7 | 101 | 8 |
| 2010-01-09T12:11 | 12709 | 193 | -53.1 | -63.0 | 102 | 8 |
| 2010-01-09T12:11 | 12752 | 192 | -53.5 | -63.4 | 103 | 9 |
| 2010-01-09T12:11 | 12797 | 190 | -53.9 | -63.8 | 103 | 9 |
| 2010-01-09T12:11 | 12845 | 189 | -54.3 | -64.1 | 100 | 9 |
| 2010-01-09T12:11 | 12895 | 187 | -54.7 | -64.3 | 96 | 10 |
| 2010-01-09T12:11 | 12943 | 186 | -55.1 | -64.6 | 93 | 10 |
| 2010-01-09T12:12 | 12991 | 185 | -55.6 | -65.0 | 91 | 10 |
| 2010-01-09T12:12 | 13038 | 183 | -56.0 | -65.4 | 88 | 10 |
| 2010-01-09T12:12 | 13084 | 182 | -56.4 | -65.9 | 85 | 10 |
| 2010-01-09T12:12 | 13130 | 181 | -56.8 | -66.3 | 82 | 11 |
| 2010-01-09T12:12 | 13175 | 179 | -57.2 | -66.3 | 81 | 11 |
| 2010-01-09T12:12 | 13219 | 178 | -57.6 | -66.5 | 81 | 11 |
| 2010-01-09T12:13 | 13266 | 177 | -58.0 | -67.4 | 81 | 12 |
| 2010-01-09T12:13 | 13311 | 176 | -58.4 | -68.6 | 81 | 12 |
| 2010-01-09T12:13 | 13358 | 174 | -58.8 | -69.3 | 81 | 12 |
| 2010-01-09T12:13 | 13405 | 173 | -59.3 | -69.7 | 81 | 13 |
| 2010-01-09T12:13 | 13451 | 172 | -59.7 | -69.8 | 81 | 13 |
| 2010-01-09T12:13 | 13496 | 170 | -60.2 | -69.7 | 80 | 13 |
| 2010-01-09T12:14 | 13545 | 169 | -60.6 | -69.4 | 78 | 14 |
| 2010-01-09T12:14 | 13592 | 168 | -61.0 | -69.0 | 76 | 14 |
| 2010-01-09T12:14 | 13640 | 167 | -61.5 | -68.8 | 75 | 15 |
| 2010-01-09T12:14 | 13689 | 165 | -61.8 | -69.0 | 74 | 15 |
| 2010-01-09T12:14 | 13737 | 164 | -62.3 | -69.4 | 74 | 16 |
| 2010-01-09T12:14 | 13785 | 163 | -62.7 | -69.8 | 75 | 16 |
| 2010-01-09T12:15 | 13833 | 161 | -63.1 | -70.2 | 75 | 16 |
| 2010-01-09T12:15 | 13881 | 160 | -63.5 | -70.4 | 76 | 16 |
| 2010-01-09T12:15 | 13927 | 159 | -64.0 | -70.7 | 76 | 16 |
| 2010-01-09T12:15 | 13975 | 158 | -64.4 | -70.9 | 77 | 16 |
| 2010-01-09T12:15 | 14023 | 157 | -64.8 | -71.1 | 78 | 16 |
| 2010-01-09T12:15 | 14070 | 155 | -65.2 | -71.4 | 78 | 17 |
| 2010-01-09T12:16 | 14117 | 154 | -65.7 | -71.7 | 79 | 17 |
| 2010-01-09T12:16 | 14162 | 153 | -66.1 | -72.0 | 79 | 17 |
| 2010-01-09T12:16 | 14208 | 152 | -66.5 | -72.3 | 79 | 17 |
| 2010-01-09T12:16 | 14253 | 151 | -66.9 | -72.6 | 79 | 18 |
| 2010-01-09T12:16 | 14299 | 150 | -67.3 | -73.0 | 79 | 18 |
| 2010-01-09T12:16 | 14344 | 148 | -67.7 | -73.4 | 79 | 18 |
| 2010-01-09T12:17 | 14390 | 147 | -68.2 | -73.9 | 79 | 18 |
| 2010-01-09T12:17 | 14435 | 146 | -68.6 | -74.2 | 78 | 18 |
| 2010-01-09T12:17 | 14484 | 145 | -69.0 | -74.7 | 78 | 18 |
| 2010-01-09T12:17 | 14533 | 144 | -69.5 | -75.1 | 79 | 19 |
| 2010-01-09T12:17 | 14581 | 143 | -69.8 | -75.4 | 79 | 19 |
| 2010-01-09T12:17 | 14627 | 142 | -70.2 | -75.7 | 79 | 19 |
| 2010-01-09T12:18 | 14673 | 140 | -70.6 | -76.1 | 79 | 19 |
| 2010-01-09T12:18 | 14720 | 139 | -71.0 | -76.5 | 79 | 19 |
| 2010-01-09T12:18 | 14765 | 138 | -71.4 | -76.8 | 79 | 19 |
| 2010-01-09T12:18 | 14812 | 137 | -71.8 | -77.1 | 79 | 20 |
| 2010-01-09T12:18 | 14858 | 136 | -72.2 | -77.5 | 79 | 20 |
| 2010-01-09T12:18 | 14903 | 135 | -72.6 | -77.8 | 79 | 20 |
| 2010-01-09T12:19 | 14948 | 134 | -73.0 | -78.2 | 79 | 20 |
| 2010-01-09T12:19 | 14992 | 133 | -73.2 | -78.4 | 78 | 20 |
| 2010-01-09T12:19 | 15038 | 132 | -73.6 | -78.7 | 78 | 20 |
| 2010-01-09T12:19 | 15083 | 131 | -74.0 | -79.0 | 79 | 20 |
| 2010-01-09T12:19 | 15131 | 130 | -74.3 | -79.3 | 80 | 20 |
| 2010-01-09T12:19 | 15181 | 129 | -74.6 | -79.6 | 82 | 20 |
| 2010-01-09T12:20 | 15231 | 128 | -75.1 | -80.0 | 83 | 20 |
| 2010-01-09T12:20 | 15281 | 127 | -75.6 | -80.4 | 85 | 19 |
| 2010-01-09T12:20 | 15329 | 126 | -76.0 | -80.8 | 87 | 19 |
| 2010-01-09T12:20 | 15380 | 124 | -76.4 | -81.2 | 89 | 19 |
| 2010-01-09T12:20 | 15431 | 123 | -76.9 | -81.6 | 90 | 18 |
| 2010-01-09T12:20 | 15480 | 122 | -77.4 | -82.0 | 92 | 18 |
| 2010-01-09T12:21 | 15528 | 121 | -77.8 | -82.3 | 94 | 18 |
| 2010-01-09T12:21 | 15574 | 120 | -78.2 | -82.7 | 96 | 17 |
| 2010-01-09T12:21 | 15622 | 119 | -78.6 | -83.1 | 99 | 18 |
| 2010-01-09T12:21 | 15668 | 118 | -78.7 | -83.2 | 101 | 18 |
| 2010-01-09T12:21 | 15714 | 117 | -79.0 | -83.4 | 102 | 19 |
| 2010-01-09T12:21 | 15760 | 116 | -79.4 | -83.8 | 104 | 19 |
| 2010-01-09T12:22 | 15807 | 115 | -79.8 | -84.1 | 105 | 19 |
| 2010-01-09T12:22 | 15852 | 115 | -80.2 | -84.4 | 107 | 19 |
| 2010-01-09T12:22 | 15896 | 114 | -80.5 | -84.8 | 109 | 19 |
| 2010-01-09T12:22 | 15943 | 113 | -80.9 | -85.2 | 111 | 19 |
| 2010-01-09T12:22 | 16006 | 111 | -81.3 | -85.7 | 113 | 19 |
| 2010-01-09T12:22 | 16059 | 110 | -81.8 | -86.1 | 115 | 19 |
| 2010-01-09T12:23 | 16119 | 109 | -82.3 | -86.6 | 117 | 19 |
| 2010-01-09T12:23 | 16170 | 108 | -82.7 | -87.0 | 120 | 19 |
| 2010-01-09T12:23 | 16218 | 107 | -83.0 | -87.3 | 122 | 19 |
| 2010-01-09T12:23 | 16265 | 106 | -83.4 | -87.7 | 123 | 18 |
| 2010-01-09T12:23 | 16309 | 106 | -83.8 | -88.0 | 125 | 19 |
| 2010-01-09T12:23 | 16355 | 105 | -84.2 | -88.4 | 126 | 19 |
| 2010-01-09T12:24 | 16398 | 104 | -84.5 | -88.7 | 127 | 20 |
| 2010-01-09T12:24 | 16440 | 103 | -84.3 | -88.5 | 127 | 20 |
| 2010-01-09T12:24 | 16482 | 102 | -84.6 | -88.8 | 127 | 20 |
| 2010-01-09T12:24 | 16525 | 102 | -85.0 | -89.2 | 127 | 21 |
| 2010-01-09T12:24 | 16567 | 101 | -85.3 | -89.5 | 129 | 21 |
| 2010-01-09T12:24 | 16609 | 100 | -85.5 | -89.7 | 130 | 22 |
| 2010-01-09T12:25 | 16651 | 99 | -85.7 | -89.9 | 132 | 22 |
| 2010-01-09T12:25 | 16691 | 99 | -85.8 | -90.0 | 134 | 23 |
| 2010-01-09T12:25 | 16732 | 98 | -86.0 | -90.3 | 135 | 23 |
| 2010-01-09T12:25 | 16773 | 97 | -86.3 | -90.5 | 136 | 23 |
| 2010-01-09T12:25 | 16815 | 96 | -86.7 | -90.9 | 136 | 23 |
| 2010-01-09T12:25 | 16858 | 96 | -86.9 | -91.1 | 137 | 24 |
| 2010-01-09T12:26 | 16902 | 95 | -86.8 | -91.0 | 138 | 25 |
| 2010-01-09T12:26 | 16945 | 94 | -86.8 | -91.1 | 138 | 25 |
| 2010-01-09T12:26 | 16991 | 93 | -86.8 | -91.1 | 137 | 24 |
| 2010-01-09T12:26 | 17038 | 92 | -85.3 | -89.7 | 134 | 21 |
| 2010-01-09T12:26 | 17086 | 92 | -84.0 | -88.5 | 132 | 18 |
| 2010-01-09T12:26 | 17133 | 91 | -83.2 | -87.7 | 132 | 16 |
| 2010-01-09T12:27 | 17178 | 90 | -82.3 | -86.8 | 130 | 14 |
| 2010-01-09T12:27 | 17226 | 89 | -82.0 | -86.5 | 128 | 12 |
| 2010-01-09T12:27 | 17272 | 89 | -81.6 | -86.2 | 123 | 11 |
| 2010-01-09T12:27 | 17318 | 88 | -81.9 | -86.5 | 117 | 11 |
| 2010-01-09T12:27 | 17364 | 87 | -81.7 | -86.4 | 111 | 10 |
| 2010-01-09T12:27 | 17409 | 87 | -81.8 | -86.5 | 105 | 10 |
| 2010-01-09T12:28 | 17449 | 86 | -81.9 | -86.7 | 101 | 10 |
| 2010-01-09T12:28 | 17492 | 85 | -81.3 | -86.2 | 97 | 8 |
| 2010-01-09T12:28 | 17542 | 84 | -79.6 | -84.8 | 89 | 5 |
| 2010-01-09T12:28 | 17591 | 84 | -78.3 | -83.6 | 71 | 3 |
| 2010-01-09T12:28 | 17642 | 83 | -78.5 | -83.8 | 359 | 1 |
| 2010-01-09T12:28 | 17699 | 82 | -78.5 | -84.0 | 296 | 4 |
| 2010-01-09T12:29 | 17758 | 81 | -77.5 | -83.3 | 287 | 8 |
| 2010-01-09T12:29 | 17807 | 81 | -76.5 | -82.6 | 287 | 11 |
| 2010-01-09T12:29 | 17850 | 80 | -75.6 | -81.9 | 290 | 14 |
| 2010-01-09T12:29 | 17893 | 79 | -75.3 | -81.8 | 291 | 16 |
| 2010-01-09T12:29 | 17936 | 79 | -75.1 | -81.8 | 291 | 18 |
| 2010-01-09T12:29 | 17979 | 78 | -75.2 | -82.2 | 290 | 19 |
| 2010-01-09T12:30 | 18023 | 78 | -75.6 | -82.8 | 290 | 20 |
| 2010-01-09T12:30 | 18067 | 77 | -75.9 | -83.3 | 289 | 20 |
| 2010-01-09T12:30 | 18111 | 77 | -76.3 | -83.8 | 289 | 21 |
| 2010-01-09T12:30 | 18156 | 76 | -76.7 | -84.4 | 289 | 21 |
| 2010-01-09T12:30 | 18201 | 75 | -77.0 | -84.9 | 289 | 22 |
| 2010-01-09T12:30 | 18245 | 75 | -77.3 | -85.3 | 290 | 22 |
| 2010-01-09T12:31 | 18289 | 74 | -77.3 | -85.6 | 290 | 21 |
| 2010-01-09T12:31 | 18333 | 74 | -77.3 | -85.7 | 289 | 21 |
| 2010-01-09T12:31 | 18376 | 73 | -77.3 | -85.7 | 288 | 20 |
| 2010-01-09T12:31 | 18420 | 73 | -77.4 | -86.0 | 287 | 20 |
| 2010-01-09T12:31 | 18463 | 72 | -77.6 | -86.2 | 287 | 19 |
| 2010-01-09T12:31 | 18507 | 71 | -77.8 | -86.5 | 286 | 19 |
| 2010-01-09T12:32 | 18551 | 71 | -77.7 | -86.6 | 287 | 18 |
| 2010-01-09T12:32 | 18595 | 70 | -77.8 | -86.7 | 288 | 18 |
| 2010-01-09T12:32 | 18639 | 70 | -77.9 | -86.9 | 289 | 18 |
| 2010-01-09T12:32 | 18683 | 69 | -78.1 | -87.1 | 290 | 18 |
| 2010-01-09T12:32 | 18728 | 69 | -78.2 | -87.3 | 290 | 18 |
| 2010-01-09T12:32 | 18773 | 68 | -78.5 | -87.6 | 290 | 18 |
| 2010-01-09T12:33 | 18817 | 68 | -78.7 | -87.9 | 290 | 18 |
| 2010-01-09T12:33 | 18863 | 67 | -78.9 | -88.1 | 291 | 18 |
| 2010-01-09T12:33 | 18909 | 67 | -78.9 | -88.2 | 293 | 18 |
| 2010-01-09T12:33 | 18952 | 66 | -78.9 | -88.2 | 294 | 17 |
| 2010-01-09T12:33 | 18997 | 66 | -78.6 | -88.0 | 292 | 16 |
| 2010-01-09T12:33 | 19041 | 65 | -78.4 | -87.9 | 288 | 14 |
| 2010-01-09T12:34 | 19086 | 65 | -78.3 | -87.7 | 280 | 13 |
| 2010-01-09T12:34 | 19131 | 64 | -78.1 | -87.7 | 273 | 13 |
| 2010-01-09T12:34 | 19177 | 64 | -78.2 | -87.8 | 266 | 14 |
| 2010-01-09T12:34 | 19223 | 63 | -78.4 | -87.9 | 261 | 14 |
| 2010-01-09T12:34 | 19266 | 63 | -78.0 | -87.7 | 259 | 14 |
| 2010-01-09T12:34 | 19309 | 62 | -78.0 | -87.8 | 258 | 13 |
| 2010-01-09T12:35 | 19354 | 62 | -78.1 | -87.9 | 257 | 14 |
| 2010-01-09T12:35 | 19397 | 61 | -78.2 | -87.9 | 255 | 14 |
| 2010-01-09T12:35 | 19442 | 61 | -78.2 | -88.0 | 253 | 14 |
| 2010-01-09T12:35 | 19484 | 60 | -78.0 | -87.9 | 252 | 14 |
| 2010-01-09T12:35 | 19529 | 60 | -78.2 | -88.1 | 252 | 13 |
| 2010-01-09T12:35 | 19574 | 59 | -78.1 | -88.1 | 251 | 12 |
| 2010-01-09T12:36 | 19619 | 59 | -77.5 | -87.6 | 249 | 11 |
| 2010-01-09T12:36 | 19662 | 58 | -77.5 | -87.6 | 247 | 10 |
| 2010-01-09T12:36 | 19708 | 58 | -77.6 | -87.8 | 246 | 10 |
| 2010-01-09T12:36 | 19752 | 57 | -77.9 | -88.1 | 245 | 9 |
| 2010-01-09T12:36 | 19797 | 57 | -78.3 | -88.4 | 245 | 9 |
| 2010-01-09T12:36 | 19843 | 57 | -78.3 | -88.5 | 246 | 9 |
| 2010-01-09T12:37 | 19889 | 56 | -77.9 | -88.2 | 244 | 8 |
| 2010-01-09T12:37 | 19933 | 56 | -77.1 | -87.5 | 239 | 7 |
| 2010-01-09T12:37 | 19978 | 55 | -76.7 | -87.2 | 234 | 6 |
| 2010-01-09T12:37 | 20023 | 55 | -76.2 | -86.9 | 237 | 5 |
| 2010-01-09T12:37 | 20068 | 54 | -76.2 | -86.9 | 248 | 4 |
| 2010-01-09T12:37 | 20113 | 54 | -75.3 | -86.3 | 265 | 3 |
| 2010-01-09T12:38 | 20159 | 53 | -74.7 | -85.9 | 282 | 4 |
| 2010-01-09T12:38 | 20202 | 53 | -74.6 | -85.8 | 298 | 4 |
| 2010-01-09T12:38 | 20251 | 53 | -73.8 | -85.3 | 313 | 4 |
| 2010-01-09T12:38 | 20297 | 52 | -72.6 | -84.6 | 317 | 5 |
| 2010-01-09T12:38 | 20346 | 52 | -72.5 | -84.6 | 314 | 5 |
| 2010-01-09T12:38 | 20392 | 51 | -72.5 | -84.8 | 316 | 5 |
| 2010-01-09T12:39 | 20438 | 51 | -72.4 | -85.0 | 324 | 6 |
| 2010-01-09T12:39 | 20483 | 51 | -72.3 | -85.2 | 331 | 6 |
| 2010-01-09T12:39 | 20532 | 50 | -72.2 | -85.4 | 334 | 7 |
| 2010-01-09T12:39 | 20580 | 50 | -72.4 | -85.8 | 336 | 7 |
| 2010-01-09T12:39 | 20626 | 49 | -72.8 | -86.3 | 338 | 7 |
| 2010-01-09T12:39 | 20674 | 49 | -73.1 | -86.8 | 339 | 7 |
| 2010-01-09T12:40 | 20721 | 49 | -73.4 | -87.3 | 341 | 6 |
| 2010-01-09T12:40 | 20768 | 48 | -73.7 | -87.8 | 339 | 6 |
| 2010-01-09T12:40 | 20816 | 48 | -73.7 | -88.0 | 330 | 5 |
| 2010-01-09T12:40 | 20861 | 47 | -73.6 | -88.1 | 319 | 4 |
| 2010-01-09T12:40 | 20910 | 47 | -73.8 | -88.3 | 311 | 3 |
| 2010-01-09T12:40 | 20957 | 47 | -73.9 | -88.6 | 306 | 2 |
| 2010-01-09T12:41 | 21005 | 46 | -74.2 | -88.9 | 305 | 2 |
| 2010-01-09T12:41 | 21053 | 46 | -74.3 | -89.2 | 308 | 1 |
| 2010-01-09T12:41 | 21102 | 46 | -74.5 | -89.4 | 0 | 0 |
| 2010-01-09T12:41 | 21149 | 45 | -74.1 | -89.3 | 125 | 1 |
| 2010-01-09T12:41 | 21195 | 45 | -72.8 | -88.4 | 143 | 2 |
| 2010-01-09T12:41 | 21242 | 44 | -71.9 | -87.8 | 158 | 3 |
| 2010-01-09T12:42 | 21288 | 44 | -71.7 | -87.7 | 162 | 4 |
| 2010-01-09T12:42 | 21335 | 44 | -71.3 | -87.6 | 156 | 4 |
| 2010-01-09T12:42 | 21381 | 43 | -71.3 | -87.7 | 150 | 5 |
| 2010-01-09T12:42 | 21427 | 43 | -70.9 | -87.7 | 146 | 5 |
| 2010-01-09T12:42 | 21474 | 43 | -70.8 | -87.8 | 140 | 5 |
| 2010-01-09T12:42 | 21520 | 42 | -70.4 | -87.8 | 132 | 5 |
| 2010-01-09T12:43 | 21568 | 42 | -69.8 | -87.6 | 123 | 5 |
| 2010-01-09T12:43 | 21617 | 42 | -69.6 | -87.7 | 119 | 6 |
| 2010-01-09T12:43 | 21665 | 41 | -69.4 | -87.8 | 118 | 7 |
| 2010-01-09T12:43 | 21712 | 41 | -68.7 | -87.6 | 120 | 9 |
| 2010-01-09T12:43 | 21761 | 41 | -68.5 | -87.8 | 121 | 11 |
| 2010-01-09T12:43 | 21809 | 40 | -68.4 | -88.0 | 123 | 12 |
| 2010-01-09T12:44 | 21860 | 40 | -68.6 | -88.5 | 126 | 12 |
| 2010-01-09T12:44 | 21909 | 40 | -69.1 | -89.1 | 128 | 12 |
| 2010-01-09T12:44 | 21959 | 39 | -69.4 | -89.7 | 127 | 13 |
| 2010-01-09T12:44 | 22009 | 39 | -69.0 | -89.8 | 121 | 13 |
| 2010-01-09T12:44 | 22059 | 39 | -68.9 | -90.0 | 113 | 14 |
| 2010-01-09T12:44 | 22109 | 38 | -69.0 | -90.3 | 106 | 14 |
| 2010-01-09T12:45 | 22158 | 38 | -69.0 | -90.6 | 99 | 15 |
| 2010-01-09T12:45 | 22207 | 38 | -68.6 | -90.6 | 94 | 16 |
| 2010-01-09T12:45 | 22257 | 37 | -68.5 | -90.7 | 92 | 17 |
| 2010-01-09T12:45 | 22306 | 37 | -68.6 | -90.9 | 94 | 18 |
| 2010-01-09T12:45 | 22355 | 37 | -68.7 | -91.2 | 96 | 19 |
| 2010-01-09T12:45 | 22405 | 37 | -69.2 | -91.7 | 97 | 19 |
| 2010-01-09T12:46 | 22454 | 36 | -69.6 | -92.2 | 97 | 19 |
| 2010-01-09T12:46 | 22502 | 36 | -69.7 | -92.6 | 97 | 20 |
| 2010-01-09T12:46 | 22549 | 36 | -69.7 | -92.7 | 97 | 20 |
| 2010-01-09T12:46 | 22600 | 35 | -69.7 | -92.9 | 96 | 20 |
| 2010-01-09T12:46 | 22651 | 35 | -69.5 | -92.9 | 95 | 21 |
| 2010-01-09T12:46 | 22702 | 35 | -68.3 | -92.4 | 95 | 23 |
| 2010-01-09T12:47 | 22753 | 35 | -66.9 | -91.6 | 93 | 24 |
| 2010-01-09T12:47 | 22805 | 34 | -66.1 | -91.1 | 92 | 24 |
| 2010-01-09T12:47 | 22855 | 34 | -65.5 | -90.7 | 93 | 24 |
| 2010-01-09T12:47 | 22905 | 34 | -65.2 | -90.7 | 94 | 25 |
| 2010-01-09T12:47 | 22955 | 33 | -64.8 | -90.7 | 95 | 25 |
| 2010-01-09T12:47 | 23007 | 33 | -63.8 | -90.4 | 94 | 26 |
| 2010-01-09T12:48 | 23058 | 33 | -63.3 | -90.3 | 93 | 27 |
| 2010-01-09T12:48 | 23110 | 33 | -63.1 | -90.4 | 92 | 28 |
| 2010-01-09T12:48 | 23159 | 32 | -63.0 | -90.7 | 93 | 27 |
| 2010-01-09T12:48 | 23209 | 32 | -61.4 | -90.4 | 95 | 27 |
| 2010-01-09T12:48 | 23259 | 32 | -60.1 | -89.9 | 98 | 27 |
| 2010-01-09T12:48 | 23310 | 32 | -60.4 | -90.1 | 100 | 27 |
| 2010-01-09T12:49 | 23357 | 31 | -60.6 | -90.5 | 100 | 27 |
| 2010-01-09T12:49 | 23408 | 31 | -60.8 | -90.9 | 101 | 28 |
| 2010-01-09T12:49 | 23459 | 31 | -60.9 | -91.3 | 102 | 28 |
| 2010-01-09T12:49 | 23508 | 31 | -61.1 | -91.7 | 103 | 29 |
| 2010-01-09T12:49 | 23557 | 30 | -61.2 | -91.7 | 102 | 30 |
| 2010-01-09T12:49 | 23610 | 30 | -61.1 | -91.6 | 100 | 31 |
| 2010-01-09T12:50 | 23662 | 30 | -61.3 | -91.8 | 98 | 32 |
| 2010-01-09T12:50 | 23711 | 30 | -61.4 | -91.8 | 96 | 33 |
| 2010-01-09T12:50 | 23764 | 29 | -61.6 | -92.0 | 94 | 34 |
| 2010-01-09T12:50 | 23812 | 29 | -60.5 | -91.2 | 92 | 34 |
| 2010-01-09T12:50 | 23863 | 29 | -60.4 | -91.1 | 90 | 35 |
| 2010-01-09T12:50 | 23916 | 29 | -60.0 | -90.8 | 89 | 35 |
| 2010-01-09T12:51 | 23967 | 28 | -60.1 | -90.9 | 89 | 35 |
| 2010-01-09T12:51 | 24018 | 28 | -60.1 | -90.9 | 89 | 35 |
| 2010-01-09T12:51 | 24066 | 28 | -58.8 | -90.0 | 90 | 35 |
| 2010-01-09T12:51 | 24114 | 28 | -58.7 | -89.9 | 90 | 35 |
| 2010-01-09T12:51 | 24165 | 27 | -58.9 | -90.1 | 89 | 34 |
| 2010-01-09T12:51 | 24214 | 27 | -58.5 | -89.8 | 89 | 34 |
| 2010-01-09T12:52 | 24267 | 27 | -58.2 | -89.6 | 88 | 35 |
| 2010-01-09T12:52 | 24317 | 27 | -57.5 | -89.1 | 88 | 35 |
| 2010-01-09T12:52 | 24373 | 27 | -57.4 | -89.0 | 88 | 35 |
| 2010-01-09T12:52 | 24424 | 26 | -57.5 | -89.0 | 88 | 35 |
| 2010-01-09T12:52 | 24478 | 26 | -57.7 | -89.2 | 87 | 34 |
| 2010-01-09T12:52 | 24530 | 26 | -57.9 | -89.4 | 87 | 34 |
| 2010-01-09T12:53 | 24586 | 26 | -58.1 | -89.5 | 87 | 33 |
| 2010-01-09T12:53 | 24636 | 25 | -58.0 | -89.4 | 87 | 33 |
| 2010-01-09T12:53 | 24687 | 25 | -57.9 | -89.3 | 86 | 32 |
| 2010-01-09T12:53 | 24740 | 25 | -57.9 | -89.4 | 86 | 32 |
| 2010-01-09T12:53 | 24794 | 25 | -58.2 | -89.5 | 87 | 31 |
| 2010-01-09T12:53 | 24845 | 25 | -58.3 | -89.7 | 88 | 31 |
| 2010-01-09T12:54 | 24898 | 24 | -58.1 | -89.5 | 90 | 31 |
| 2010-01-09T12:54 | 24951 | 24 | -57.6 | -89.2 | 91 | 32 |
| 2010-01-09T12:54 | 25001 | 24 | -57.3 | -88.9 | 91 | 33 |
| 2010-01-09T12:54 | 25056 | 24 | -56.8 | -88.6 | 89 | 33 |
| 2010-01-09T12:54 | 25111 | 24 | -56.2 | -88.2 | 89 | 33 |
| 2010-01-09T12:54 | 25165 | 23 | -55.9 | -87.9 | 88 | 33 |
| 2010-01-09T12:55 | 25219 | 23 | -55.2 | -87.5 | 89 | 33 |
| 2010-01-09T12:55 | 25273 | 23 | -55.1 | -87.3 | 88 | 33 |
| 2010-01-09T12:55 | 25328 | 23 | -55.0 | -87.3 | 88 | 33 |
| 2010-01-09T12:55 | 25383 | 23 | -54.9 | -87.2 | 87 | 33 |
| 2010-01-09T12:55 | 25434 | 22 | -55.0 | -87.3 | 88 | 33 |
| 2010-01-09T12:55 | 25488 | 22 | -54.8 | -87.2 | 88 | 33 |
| 2010-01-09T12:56 | 25542 | 22 | -54.7 | -87.1 | 89 | 33 |
| 2010-01-09T12:56 | 25589 | 22 | -54.4 | -86.8 | 89 | 33 |
| 2010-01-09T12:56 | 25640 | 22 | -54.0 | -86.6 | 87 | 34 |
| 2010-01-09T12:56 | 25692 | 22 | -52.1 | -85.3 | 86 | 35 |
| 2010-01-09T12:56 | 25743 | 21 | -51.7 | -84.9 | 85 | 35 |
| 2010-01-09T12:56 | 25794 | 21 | -51.6 | -84.9 | 86 | 34 |
| 2010-01-09T12:57 | 25842 | 21 | -51.4 | -84.8 | 86 | 33 |
| 2010-01-09T12:57 | 25896 | 21 | -51.5 | -84.8 | 85 | 33 |
| 2010-01-09T12:57 | 25947 | 21 | -51.6 | -84.9 | 83 | 33 |
| 2010-01-09T12:57 | 25998 | 21 | -51.5 | -84.9 | 82 | 33 |
| 2010-01-09T12:57 | 26051 | 20 | -51.5 | -84.8 | 82 | 34 |
| 2010-01-09T12:57 | 26106 | 20 | -51.6 | -84.9 | 82 | 33 |
| 2010-01-09T12:58 | 26159 | 20 | -51.6 | -84.9 | 83 | 33 |
| 2010-01-09T12:58 | 26217 | 20 | -51.3 | -84.7 | 84 | 33 |
| 2010-01-09T12:58 | 26275 | 20 | -51.0 | -84.5 | 85 | 32 |
| 2010-01-09T12:58 | 26327 | 20 | -50.8 | -84.3 | 86 | 31 |
| 2010-01-09T12:58 | 26389 | 19 | -50.0 | -83.8 | 86 | 31 |
| 2010-01-09T12:58 | 26442 | 19 | -49.0 | -83.1 | 87 | 32 |
| 2010-01-09T12:59 | 26505 | 19 | -48.0 | -82.4 | 87 | 33 |
| 2010-01-09T23:28 | 4 | 1006 | 33.1 | 25.5 | 310 | 5 |
| 2010-01-09T23:28 | 13 | 1005 | 32.3 | 24.8 | 309 | 2 |
| 2010-01-09T23:28 | 23 | 1004 | 31.4 | 24.6 | 309 | 3 |
| 2010-01-09T23:28 | 33 | 1002 | 31.1 | 25.0 | 308 | 3 |
| 2010-01-09T23:28 | 43 | 1001 | 31.0 | 25.3 | 308 | 3 |
| 2010-01-09T23:28 | 53 | 1000 | 30.8 | 25.3 | 307 | 4 |
| 2010-01-09T23:28 | 63 | 999 | 30.6 | 25.3 | 307 | 4 |
| 2010-01-09T23:28 | 71 | 998 | 30.4 | 25.3 | 307 | 5 |
| 2010-01-09T23:28 | 79 | 997 | 30.3 | 25.4 | 307 | 5 |
| 2010-01-09T23:28 | 88 | 996 | 30.2 | 25.5 | 307 | 5 |
| 2010-01-09T23:28 | 99 | 995 | 30.1 | 25.6 | 307 | 6 |
| 2010-01-09T23:28 | 113 | 994 | 30.0 | 25.6 | 307 | 6 |
| 2010-01-09T23:28 | 124 | 992 | 29.8 | 25.5 | 308 | 6 |
| 2010-01-09T23:28 | 133 | 991 | 29.8 | 25.6 | 309 | 6 |
| 2010-01-09T23:28 | 142 | 990 | 29.6 | 25.5 | 310 | 6 |
| 2010-01-09T23:28 | 150 | 990 | 29.5 | 25.4 | 311 | 6 |
| 2010-01-09T23:28 | 158 | 989 | 29.5 | 25.5 | 312 | 6 |
| 2010-01-09T23:28 | 166 | 988 | 29.4 | 25.3 | 313 | 6 |
| 2010-01-09T23:28 | 174 | 987 | 29.2 | 25.2 | 314 | 7 |
| 2010-01-09T23:28 | 184 | 986 | 29.1 | 25.3 | 315 | 7 |
| 2010-01-09T23:28 | 193 | 985 | 29.0 | 25.3 | 315 | 7 |
| 2010-01-09T23:28 | 201 | 984 | 28.9 | 25.3 | 315 | 7 |
| 2010-01-09T23:28 | 209 | 983 | 28.8 | 25.2 | 315 | 7 |
| 2010-01-09T23:28 | 220 | 982 | 28.7 | 25.2 | 315 | 7 |
| 2010-01-09T23:28 | 229 | 981 | 28.6 | 25.1 | 314 | 7 |
| 2010-01-09T23:28 | 240 | 980 | 28.5 | 25.0 | 313 | 7 |
| 2010-01-09T23:28 | 249 | 979 | 28.4 | 25.0 | 311 | 7 |
| 2010-01-09T23:28 | 259 | 978 | 28.3 | 25.0 | 310 | 7 |
| 2010-01-09T23:28 | 271 | 976 | 28.2 | 25.0 | 308 | 7 |
| 2010-01-09T23:28 | 284 | 975 | 28.1 | 24.9 | 307 | 8 |
| 2010-01-09T23:29 | 294 | 974 | 28.0 | 24.8 | 306 | 8 |
| 2010-01-09T23:29 | 302 | 973 | 27.9 | 24.8 | 305 | 8 |
| 2010-01-09T23:29 | 311 | 972 | 27.9 | 24.8 | 304 | 8 |
| 2010-01-09T23:29 | 320 | 971 | 27.8 | 24.6 | 304 | 8 |
| 2010-01-09T23:29 | 327 | 970 | 27.7 | 24.6 | 303 | 8 |
| 2010-01-09T23:29 | 335 | 969 | 27.6 | 24.6 | 303 | 8 |
| 2010-01-09T23:29 | 344 | 968 | 27.5 | 24.6 | 304 | 8 |
| 2010-01-09T23:29 | 353 | 967 | 27.4 | 24.6 | 304 | 8 |
| 2010-01-09T23:29 | 363 | 966 | 27.3 | 24.6 | 305 | 8 |
| 2010-01-09T23:29 | 372 | 965 | 27.2 | 24.5 | 306 | 8 |
| 2010-01-09T23:29 | 380 | 964 | 27.2 | 24.5 | 307 | 8 |
| 2010-01-09T23:29 | 388 | 963 | 27.0 | 24.6 | 308 | 8 |
| 2010-01-09T23:29 | 396 | 963 | 27.0 | 24.6 | 310 | 8 |
| 2010-01-09T23:29 | 405 | 962 | 26.9 | 24.5 | 311 | 8 |
| 2010-01-09T23:29 | 414 | 961 | 26.8 | 24.3 | 312 | 8 |
| 2010-01-09T23:29 | 424 | 960 | 26.8 | 24.3 | 313 | 8 |
| 2010-01-09T23:29 | 435 | 958 | 26.6 | 24.4 | 314 | 8 |
| 2010-01-09T23:29 | 446 | 957 | 26.5 | 24.4 | 315 | 8 |
| 2010-01-09T23:29 | 454 | 956 | 26.4 | 24.3 | 315 | 8 |
| 2010-01-09T23:29 | 463 | 955 | 26.3 | 24.2 | 316 | 8 |
| 2010-01-09T23:29 | 472 | 954 | 26.2 | 24.1 | 316 | 8 |
| 2010-01-09T23:29 | 482 | 953 | 26.1 | 24.1 | 316 | 8 |
| 2010-01-09T23:29 | 492 | 952 | 26.0 | 24.1 | 315 | 8 |
| 2010-01-09T23:29 | 503 | 951 | 25.9 | 24.0 | 315 | 8 |
| 2010-01-09T23:29 | 514 | 950 | 25.8 | 23.9 | 315 | 8 |
| 2010-01-09T23:29 | 523 | 949 | 25.7 | 24.0 | 314 | 8 |
| 2010-01-09T23:29 | 532 | 948 | 25.6 | 24.0 | 313 | 8 |
| 2010-01-09T23:29 | 541 | 947 | 25.5 | 23.9 | 312 | 8 |
| 2010-01-09T23:29 | 552 | 946 | 25.4 | 23.8 | 311 | 8 |
| 2010-01-09T23:29 | 560 | 945 | 25.3 | 23.8 | 311 | 8 |
| 2010-01-09T23:30 | 569 | 944 | 25.3 | 23.7 | 310 | 7 |
| 2010-01-09T23:30 | 580 | 943 | 25.1 | 23.6 | 310 | 7 |
| 2010-01-09T23:30 | 590 | 942 | 25.0 | 23.6 | 310 | 7 |
| 2010-01-09T23:30 | 598 | 941 | 25.0 | 23.6 | 310 | 8 |
| 2010-01-09T23:30 | 609 | 940 | 24.8 | 23.5 | 310 | 8 |
| 2010-01-09T23:30 | 619 | 939 | 24.8 | 23.3 | 311 | 8 |
| 2010-01-09T23:30 | 629 | 938 | 24.7 | 23.3 | 311 | 8 |
| 2010-01-09T23:30 | 639 | 937 | 24.6 | 23.2 | 311 | 8 |
| 2010-01-09T23:30 | 652 | 935 | 24.5 | 23.2 | 311 | 9 |
| 2010-01-09T23:30 | 667 | 934 | 24.2 | 23.1 | 311 | 9 |
| 2010-01-09T23:30 | 679 | 932 | 24.0 | 23.0 | 311 | 9 |
| 2010-01-09T23:30 | 688 | 931 | 23.9 | 22.9 | 310 | 10 |
| 2010-01-09T23:30 | 697 | 930 | 23.8 | 22.8 | 310 | 10 |
| 2010-01-09T23:30 | 706 | 929 | 23.8 | 22.8 | 310 | 10 |
| 2010-01-09T23:30 | 717 | 928 | 23.7 | 22.8 | 309 | 10 |
| 2010-01-09T23:30 | 727 | 927 | 23.5 | 22.6 | 309 | 11 |
| 2010-01-09T23:30 | 737 | 926 | 23.6 | 22.5 | 308 | 11 |
| 2010-01-09T23:30 | 746 | 925 | 23.6 | 22.5 | 308 | 11 |
| 2010-01-09T23:30 | 754 | 924 | 23.6 | 22.5 | 307 | 11 |
| 2010-01-09T23:30 | 765 | 923 | 23.6 | 22.4 | 307 | 11 |
| 2010-01-09T23:30 | 775 | 922 | 23.5 | 22.2 | 307 | 11 |
| 2010-01-09T23:30 | 782 | 922 | 23.4 | 22.1 | 307 | 11 |
| 2010-01-09T23:30 | 789 | 921 | 23.1 | 22.1 | 307 | 11 |
| 2010-01-09T23:30 | 799 | 920 | 23.2 | 22.0 | 307 | 11 |
| 2010-01-09T23:30 | 810 | 919 | 23.6 | 21.9 | 307 | 11 |
| 2010-01-09T23:30 | 820 | 918 | 23.8 | 21.7 | 306 | 11 |
| 2010-01-09T23:30 | 828 | 917 | 23.7 | 21.6 | 306 | 11 |
| 2010-01-09T23:30 | 836 | 916 | 23.6 | 21.5 | 306 | 11 |
| 2010-01-09T23:30 | 844 | 915 | 23.6 | 21.5 | 306 | 11 |
| 2010-01-09T23:30 | 851 | 914 | 23.5 | 21.4 | 306 | 11 |
| 2010-01-09T23:31 | 859 | 913 | 23.5 | 21.4 | 306 | 11 |
| 2010-01-09T23:31 | 866 | 913 | 23.4 | 21.3 | 306 | 11 |
| 2010-01-09T23:31 | 873 | 912 | 23.3 | 21.3 | 305 | 11 |
| 2010-01-09T23:31 | 882 | 911 | 23.2 | 21.2 | 305 | 11 |
| 2010-01-09T23:31 | 892 | 910 | 23.1 | 21.2 | 305 | 11 |
| 2010-01-09T23:31 | 903 | 909 | 23.0 | 21.2 | 305 | 11 |
| 2010-01-09T23:31 | 914 | 908 | 23.1 | 21.1 | 305 | 11 |
| 2010-01-09T23:31 | 927 | 906 | 23.1 | 21.1 | 305 | 11 |
| 2010-01-09T23:31 | 936 | 905 | 23.0 | 21.0 | 305 | 11 |
| 2010-01-09T23:31 | 944 | 905 | 23.0 | 20.9 | 305 | 11 |
| 2010-01-09T23:31 | 951 | 904 | 23.0 | 20.8 | 305 | 12 |
| 2010-01-09T23:31 | 959 | 903 | 22.9 | 20.8 | 304 | 12 |
| 2010-01-09T23:31 | 967 | 902 | 22.9 | 20.7 | 304 | 12 |
| 2010-01-09T23:31 | 974 | 902 | 22.8 | 20.6 | 304 | 12 |
| 2010-01-09T23:31 | 980 | 901 | 22.7 | 20.6 | 303 | 12 |
| 2010-01-09T23:31 | 988 | 900 | 22.7 | 20.5 | 303 | 12 |
| 2010-01-09T23:31 | 996 | 899 | 22.6 | 20.5 | 303 | 12 |
| 2010-01-09T23:31 | 1004 | 898 | 22.6 | 20.4 | 302 | 12 |
| 2010-01-09T23:31 | 1011 | 898 | 22.5 | 20.3 | 302 | 12 |
| 2010-01-09T23:31 | 1019 | 897 | 22.5 | 20.2 | 301 | 12 |
| 2010-01-09T23:31 | 1029 | 896 | 22.5 | 20.2 | 301 | 12 |
| 2010-01-09T23:31 | 1041 | 895 | 22.4 | 20.2 | 300 | 12 |
| 2010-01-09T23:31 | 1051 | 894 | 22.3 | 20.1 | 300 | 12 |
| 2010-01-09T23:31 | 1060 | 893 | 22.2 | 20.0 | 300 | 12 |
| 2010-01-09T23:31 | 1069 | 892 | 22.1 | 20.0 | 299 | 12 |
| 2010-01-09T23:31 | 1079 | 891 | 22.1 | 19.9 | 299 | 12 |
| 2010-01-09T23:31 | 1089 | 890 | 22.0 | 19.8 | 299 | 12 |
| 2010-01-09T23:31 | 1098 | 889 | 21.9 | 19.8 | 299 | 12 |
| 2010-01-09T23:31 | 1105 | 888 | 21.9 | 19.8 | 299 | 12 |
| 2010-01-09T23:31 | 1114 | 887 | 21.9 | 19.7 | 298 | 12 |
| 2010-01-09T23:32 | 1123 | 886 | 21.8 | 19.6 | 298 | 12 |
| 2010-01-09T23:32 | 1132 | 885 | 21.8 | 19.6 | 298 | 12 |
| 2010-01-09T23:32 | 1141 | 884 | 21.7 | 19.5 | 297 | 12 |
| 2010-01-09T23:32 | 1153 | 883 | 21.7 | 19.5 | 297 | 13 |
| 2010-01-09T23:32 | 1162 | 882 | 21.6 | 19.4 | 297 | 13 |
| 2010-01-09T23:32 | 1170 | 881 | 21.6 | 19.4 | 296 | 13 |
| 2010-01-09T23:32 | 1179 | 881 | 21.6 | 19.3 | 296 | 13 |
| 2010-01-09T23:32 | 1188 | 880 | 21.6 | 19.2 | 295 | 13 |
| 2010-01-09T23:32 | 1197 | 879 | 21.6 | 19.0 | 295 | 13 |
| 2010-01-09T23:32 | 1203 | 878 | 21.6 | 19.0 | 295 | 13 |
| 2010-01-09T23:32 | 1210 | 878 | 21.6 | 18.9 | 295 | 13 |
| 2010-01-09T23:32 | 1217 | 877 | 21.7 | 18.6 | 295 | 14 |
| 2010-01-09T23:32 | 1226 | 876 | 21.8 | 18.3 | 295 | 14 |
| 2010-01-09T23:32 | 1234 | 875 | 21.8 | 18.1 | 295 | 14 |
| 2010-01-09T23:32 | 1242 | 874 | 21.9 | 17.8 | 295 | 14 |
| 2010-01-09T23:32 | 1251 | 873 | 21.8 | 17.5 | 294 | 14 |
| 2010-01-09T23:32 | 1262 | 872 | 21.8 | 17.3 | 294 | 15 |
| 2010-01-09T23:32 | 1274 | 871 | 21.7 | 17.1 | 294 | 15 |
| 2010-01-09T23:32 | 1287 | 870 | 21.7 | 16.9 | 294 | 15 |
| 2010-01-09T23:32 | 1300 | 868 | 21.7 | 16.8 | 294 | 15 |
| 2010-01-09T23:32 | 1310 | 867 | 21.7 | 16.9 | 294 | 15 |
| 2010-01-09T23:32 | 1317 | 867 | 21.7 | 16.9 | 293 | 15 |
| 2010-01-09T23:32 | 1322 | 866 | 21.7 | 16.9 | 293 | 16 |
| 2010-01-09T23:32 | 1328 | 866 | 21.6 | 17.0 | 293 | 16 |
| 2010-01-09T23:32 | 1336 | 865 | 21.6 | 17.0 | 293 | 16 |
| 2010-01-09T23:32 | 1343 | 864 | 21.5 | 17.0 | 293 | 16 |
| 2010-01-09T23:32 | 1350 | 863 | 21.5 | 17.0 | 292 | 16 |
| 2010-01-09T23:32 | 1358 | 863 | 21.4 | 16.9 | 292 | 16 |
| 2010-01-09T23:32 | 1364 | 862 | 21.4 | 16.7 | 293 | 16 |
| 2010-01-09T23:32 | 1370 | 861 | 21.4 | 16.6 | 293 | 16 |
| 2010-01-09T23:33 | 1377 | 861 | 21.4 | 16.4 | 293 | 16 |
| 2010-01-09T23:33 | 1384 | 860 | 21.4 | 16.3 | 293 | 16 |
| 2010-01-09T23:33 | 1392 | 859 | 21.3 | 16.5 | 293 | 16 |
| 2010-01-09T23:33 | 1400 | 858 | 21.3 | 16.5 | 293 | 16 |
| 2010-01-09T23:33 | 1409 | 858 | 21.2 | 16.3 | 293 | 16 |
| 2010-01-09T23:33 | 1418 | 857 | 21.2 | 16.3 | 293 | 16 |
| 2010-01-09T23:33 | 1425 | 856 | 21.2 | 16.3 | 293 | 16 |
| 2010-01-09T23:33 | 1432 | 855 | 21.2 | 16.1 | 293 | 16 |
| 2010-01-09T23:33 | 1439 | 855 | 21.2 | 15.9 | 293 | 16 |
| 2010-01-09T23:33 | 1446 | 854 | 21.2 | 15.7 | 292 | 17 |
| 2010-01-09T23:33 | 1453 | 853 | 21.2 | 15.6 | 292 | 17 |
| 2010-01-09T23:33 | 1460 | 853 | 21.2 | 15.5 | 292 | 17 |
| 2010-01-09T23:33 | 1465 | 852 | 21.1 | 15.3 | 292 | 17 |
| 2010-01-09T23:33 | 1473 | 851 | 21.1 | 15.2 | 292 | 17 |
| 2010-01-09T23:33 | 1484 | 850 | 21.1 | 15.2 | 291 | 17 |
| 2010-01-09T23:33 | 1495 | 849 | 21.1 | 15.2 | 291 | 18 |
| 2010-01-09T23:33 | 1504 | 848 | 21.1 | 15.1 | 291 | 18 |
| 2010-01-09T23:33 | 1513 | 847 | 21.1 | 15.1 | 291 | 18 |
| 2010-01-09T23:33 | 1520 | 847 | 21.0 | 15.0 | 291 | 18 |
| 2010-01-09T23:33 | 1528 | 846 | 21.0 | 14.9 | 291 | 18 |
| 2010-01-09T23:33 | 1535 | 845 | 20.9 | 14.9 | 291 | 18 |
| 2010-01-09T23:33 | 1542 | 845 | 20.9 | 14.8 | 291 | 18 |
| 2010-01-09T23:33 | 1550 | 844 | 20.8 | 14.7 | 291 | 18 |
| 2010-01-09T23:33 | 1558 | 843 | 20.8 | 14.6 | 290 | 18 |
| 2010-01-09T23:33 | 1565 | 842 | 20.8 | 14.6 | 290 | 18 |
| 2010-01-09T23:33 | 1573 | 842 | 20.8 | 14.6 | 290 | 18 |
| 2010-01-09T23:33 | 1582 | 841 | 20.7 | 14.6 | 289 | 18 |
| 2010-01-09T23:33 | 1592 | 840 | 20.6 | 14.6 | 289 | 19 |
| 2010-01-09T23:33 | 1602 | 839 | 20.5 | 14.5 | 288 | 19 |
| 2010-01-09T23:33 | 1612 | 838 | 20.5 | 14.5 | 288 | 19 |
| 2010-01-09T23:34 | 1622 | 837 | 20.5 | 14.4 | 287 | 19 |
| 2010-01-09T23:34 | 1631 | 836 | 20.4 | 14.3 | 287 | 19 |
| 2010-01-09T23:34 | 1639 | 835 | 20.4 | 14.1 | 286 | 19 |
| 2010-01-09T23:34 | 1647 | 834 | 20.4 | 13.9 | 286 | 19 |
| 2010-01-09T23:34 | 1657 | 833 | 20.4 | 13.8 | 285 | 19 |
| 2010-01-09T23:34 | 1667 | 833 | 20.3 | 13.6 | 285 | 19 |
| 2010-01-09T23:34 | 1678 | 831 | 20.3 | 13.5 | 285 | 19 |
| 2010-01-09T23:34 | 1689 | 830 | 20.2 | 13.3 | 285 | 19 |
| 2010-01-09T23:34 | 1699 | 829 | 20.2 | 13.0 | 285 | 19 |
| 2010-01-09T23:34 | 1707 | 829 | 20.2 | 12.9 | 285 | 19 |
| 2010-01-09T23:34 | 1714 | 828 | 20.2 | 12.9 | 285 | 19 |
| 2010-01-09T23:34 | 1721 | 827 | 20.2 | 12.8 | 285 | 19 |
| 2010-01-09T23:34 | 1727 | 827 | 20.2 | 12.8 | 286 | 19 |
| 2010-01-09T23:34 | 1734 | 826 | 20.2 | 12.8 | 286 | 19 |
| 2010-01-09T23:34 | 1741 | 825 | 20.2 | 12.8 | 286 | 19 |
| 2010-01-09T23:34 | 1748 | 825 | 20.1 | 12.7 | 286 | 19 |
| 2010-01-09T23:34 | 1756 | 824 | 20.1 | 12.5 | 287 | 19 |
| 2010-01-09T23:34 | 1764 | 823 | 20.1 | 12.4 | 287 | 18 |
| 2010-01-09T23:34 | 1772 | 822 | 20.2 | 12.2 | 287 | 18 |
| 2010-01-09T23:34 | 1780 | 822 | 20.2 | 11.9 | 287 | 18 |
| 2010-01-09T23:34 | 1788 | 821 | 20.2 | 11.8 | 287 | 18 |
| 2010-01-09T23:34 | 1795 | 820 | 20.1 | 11.8 | 287 | 18 |
| 2010-01-09T23:34 | 1803 | 820 | 20.1 | 11.9 | 287 | 18 |
| 2010-01-09T23:34 | 1810 | 819 | 20.1 | 12.0 | 287 | 18 |
| 2010-01-09T23:34 | 1818 | 818 | 20.0 | 12.0 | 287 | 18 |
| 2010-01-09T23:34 | 1825 | 817 | 20.0 | 12.0 | 287 | 18 |
| 2010-01-09T23:34 | 1832 | 817 | 19.9 | 11.9 | 287 | 18 |
| 2010-01-09T23:34 | 1840 | 816 | 19.9 | 11.9 | 287 | 18 |
| 2010-01-09T23:34 | 1848 | 815 | 19.9 | 11.9 | 288 | 18 |
| 2010-01-09T23:34 | 1857 | 814 | 19.8 | 11.8 | 288 | 18 |
| 2010-01-09T23:35 | 1865 | 814 | 19.7 | 11.7 | 288 | 18 |
| 2010-01-09T23:35 | 1874 | 813 | 19.7 | 11.6 | 288 | 18 |
| 2010-01-09T23:35 | 1883 | 812 | 19.6 | 11.6 | 289 | 18 |
| 2010-01-09T23:35 | 1891 | 811 | 19.6 | 11.5 | 289 | 18 |
| 2010-01-09T23:35 | 1899 | 810 | 19.7 | 11.4 | 290 | 18 |
| 2010-01-09T23:35 | 1907 | 810 | 19.7 | 11.4 | 290 | 18 |
| 2010-01-09T23:35 | 1915 | 809 | 19.7 | 11.3 | 291 | 18 |
| 2010-01-09T23:35 | 1925 | 808 | 19.6 | 11.3 | 291 | 18 |
| 2010-01-09T23:35 | 1939 | 807 | 19.5 | 11.3 | 292 | 18 |
| 2010-01-09T23:35 | 1952 | 805 | 19.5 | 11.5 | 292 | 17 |
| 2010-01-09T23:35 | 1961 | 805 | 19.4 | 11.6 | 292 | 17 |
| 2010-01-09T23:35 | 1968 | 804 | 19.3 | 11.7 | 293 | 17 |
| 2010-01-09T23:35 | 1976 | 803 | 19.4 | 11.7 | 293 | 17 |
| 2010-01-09T23:35 | 1983 | 803 | 19.3 | 11.7 | 293 | 17 |
| 2010-01-09T23:35 | 1991 | 802 | 19.3 | 11.7 | 293 | 17 |
| 2010-01-09T23:35 | 1999 | 801 | 19.4 | 11.7 | 293 | 17 |
| 2010-01-09T23:35 | 2039 | 797 | 19.2 | 11.5 | 291 | 17 |
| 2010-01-09T23:35 | 2079 | 794 | 19.1 | 11.3 | 289 | 17 |
| 2010-01-09T23:36 | 2122 | 790 | 19.1 | 11.0 | 288 | 17 |
| 2010-01-09T23:36 | 2165 | 786 | 19.1 | 10.5 | 287 | 17 |
| 2010-01-09T23:36 | 2208 | 782 | 18.8 | 10.5 | 287 | 17 |
| 2010-01-09T23:36 | 2250 | 778 | 18.5 | 10.8 | 288 | 16 |
| 2010-01-09T23:36 | 2290 | 774 | 18.1 | 10.7 | 289 | 16 |
| 2010-01-09T23:36 | 2334 | 770 | 17.7 | 10.6 | 289 | 16 |
| 2010-01-09T23:37 | 2375 | 767 | 17.4 | 10.4 | 288 | 16 |
| 2010-01-09T23:37 | 2418 | 763 | 17.1 | 9.9 | 287 | 16 |
| 2010-01-09T23:37 | 2458 | 759 | 16.8 | 9.9 | 286 | 16 |
| 2010-01-09T23:37 | 2499 | 756 | 16.5 | 9.6 | 285 | 16 |
| 2010-01-09T23:37 | 2540 | 752 | 16.2 | 9.6 | 284 | 16 |
| 2010-01-09T23:37 | 2582 | 748 | 15.9 | 9.5 | 285 | 15 |
| 2010-01-09T23:38 | 2629 | 744 | 15.4 | 9.5 | 284 | 15 |
| 2010-01-09T23:38 | 2670 | 741 | 15.2 | 9.6 | 282 | 14 |
| 2010-01-09T23:38 | 2724 | 736 | 14.9 | 9.4 | 281 | 14 |
| 2010-01-09T23:38 | 2772 | 732 | 14.4 | 9.3 | 280 | 14 |
| 2010-01-09T23:38 | 2812 | 728 | 14.1 | 9.2 | 279 | 14 |
| 2010-01-09T23:38 | 2852 | 725 | 13.7 | 9.0 | 279 | 14 |
| 2010-01-09T23:39 | 2893 | 721 | 13.4 | 8.8 | 279 | 14 |
| 2010-01-09T23:39 | 2932 | 718 | 13.1 | 8.7 | 279 | 14 |
| 2010-01-09T23:39 | 2974 | 715 | 12.7 | 8.7 | 279 | 14 |
| 2010-01-09T23:39 | 3011 | 711 | 12.5 | 8.5 | 280 | 13 |
| 2010-01-09T23:39 | 3049 | 708 | 12.3 | 8.1 | 280 | 13 |
| 2010-01-09T23:39 | 3086 | 705 | 12.1 | 7.7 | 280 | 13 |
| 2010-01-09T23:40 | 3127 | 702 | 11.7 | 7.7 | 280 | 12 |
| 2010-01-09T23:40 | 3167 | 698 | 11.4 | 8.0 | 280 | 12 |
| 2010-01-09T23:40 | 3206 | 695 | 11.1 | 8.0 | 281 | 12 |
| 2010-01-09T23:40 | 3254 | 691 | 10.7 | 8.1 | 281 | 12 |
| 2010-01-09T23:40 | 3297 | 688 | 10.5 | 7.8 | 282 | 11 |
| 2010-01-09T23:40 | 3339 | 684 | 10.2 | 7.6 | 284 | 11 |
| 2010-01-09T23:41 | 3378 | 681 | 9.9 | 7.5 | 288 | 10 |
| 2010-01-09T23:41 | 3418 | 678 | 9.9 | 7.5 | 293 | 10 |
| 2010-01-09T23:41 | 3459 | 674 | 9.7 | 7.3 | 297 | 10 |
| 2010-01-09T23:41 | 3498 | 671 | 9.6 | 7.0 | 299 | 11 |
| 2010-01-09T23:41 | 3535 | 668 | 9.7 | 6.0 | 300 | 10 |
| 2010-01-09T23:41 | 3574 | 665 | 9.8 | 5.8 | 300 | 10 |
| 2010-01-09T23:42 | 3630 | 661 | 9.7 | 5.4 | 300 | 10 |
| 2010-01-09T23:42 | 3688 | 656 | 9.2 | 5.4 | 301 | 9 |
| 2010-01-09T23:42 | 3726 | 653 | 9.1 | 5.3 | 302 | 8 |
| 2010-01-09T23:42 | 3763 | 650 | 8.8 | 5.2 | 302 | 8 |
| 2010-01-09T23:42 | 3806 | 647 | 8.5 | 5.1 | 302 | 8 |
| 2010-01-09T23:42 | 3844 | 644 | 8.2 | 5.0 | 300 | 8 |
| 2010-01-09T23:43 | 3886 | 641 | 7.9 | 4.9 | 297 | 8 |
| 2010-01-09T23:43 | 3923 | 638 | 7.7 | 4.8 | 294 | 8 |
| 2010-01-09T23:43 | 3962 | 635 | 7.5 | 4.6 | 292 | 8 |
| 2010-01-09T23:43 | 4000 | 632 | 7.2 | 4.2 | 289 | 8 |
| 2010-01-09T23:43 | 4056 | 628 | 7.3 | 3.7 | 282 | 8 |
| 2010-01-09T23:43 | 4093 | 625 | 7.6 | 3.4 | 275 | 7 |
| 2010-01-09T23:44 | 4135 | 622 | 7.2 | 3.2 | 272 | 6 |
| 2010-01-09T23:44 | 4171 | 619 | 7.0 | 2.9 | 272 | 6 |
| 2010-01-09T23:44 | 4206 | 616 | 6.8 | 2.8 | 273 | 6 |
| 2010-01-09T23:44 | 4247 | 613 | 6.7 | 2.5 | 276 | 5 |
| 2010-01-09T23:44 | 4303 | 609 | 6.3 | 2.5 | 282 | 4 |
| 2010-01-09T23:44 | 4351 | 605 | 6.1 | 2.3 | 278 | 3 |
| 2010-01-09T23:45 | 4389 | 603 | 5.8 | 1.8 | 265 | 3 |
| 2010-01-09T23:45 | 4425 | 600 | 5.5 | 1.7 | 258 | 3 |
| 2010-01-09T23:45 | 4460 | 597 | 5.3 | 1.3 | 259 | 2 |
| 2010-01-09T23:45 | 4499 | 595 | 5.0 | 1.3 | 265 | 2 |
| 2010-01-09T23:45 | 4539 | 592 | 4.7 | 1.2 | 269 | 2 |
| 2010-01-09T23:45 | 4579 | 589 | 4.9 | 0.1 | 269 | 1 |
| 2010-01-09T23:46 | 4616 | 586 | 4.7 | -1.1 | 271 | 1 |
| 2010-01-09T23:46 | 4654 | 583 | 4.4 | -1.8 | 277 | 1 |
| 2010-01-09T23:46 | 4692 | 581 | 4.1 | -2.0 | 282 | 1 |
| 2010-01-09T23:46 | 4731 | 578 | 3.8 | -3.1 | 300 | 0 |
| 2010-01-09T23:46 | 4774 | 575 | 3.5 | -2.2 | 335 | 0 |
| 2010-01-09T23:46 | 4830 | 571 | 3.1 | -1.6 | 351 | 0 |
| 2010-01-09T23:47 | 4869 | 568 | 2.8 | -1.7 | 343 | 0 |
| 2010-01-09T23:47 | 4907 | 566 | 2.7 | -3.1 | 335 | 1 |
| 2010-01-09T23:47 | 4944 | 563 | 2.5 | -3.6 | 341 | 0 |
| 2010-01-09T23:47 | 4983 | 560 | 2.3 | -4.1 | 360 | 0 |
| 2010-01-09T23:47 | 5020 | 558 | 2.0 | -4.7 | 0 | 0 |
| 2010-01-09T23:47 | 5057 | 555 | 1.9 | -5.7 | 0 | 0 |
| 2010-01-09T23:48 | 5096 | 552 | 1.7 | -7.5 | 75 | 0 |
| 2010-01-09T23:48 | 5133 | 550 | 1.5 | -7.1 | 77 | 1 |
| 2010-01-09T23:48 | 5171 | 547 | 1.4 | -8.9 | 80 | 1 |
| 2010-01-09T23:48 | 5209 | 545 | 1.2 | -9.3 | 86 | 2 |
| 2010-01-09T23:48 | 5250 | 542 | 0.8 | -9.8 | 97 | 2 |
| 2010-01-09T23:48 | 5289 | 539 | 0.5 | -8.7 | 105 | 2 |
| 2010-01-09T23:49 | 5329 | 537 | 0.3 | -9.0 | 106 | 2 |
| 2010-01-09T23:49 | 5372 | 534 | 0.0 | -8.3 | 100 | 3 |
| 2010-01-09T23:49 | 5416 | 531 | -0.4 | -7.7 | 93 | 3 |
| 2010-01-09T23:49 | 5457 | 528 | -0.8 | -7.3 | 86 | 3 |
| 2010-01-09T23:49 | 5495 | 526 | -1.1 | -7.4 | 82 | 4 |
| 2010-01-09T23:49 | 5534 | 523 | -1.3 | -7.4 | 84 | 4 |
| 2010-01-09T23:50 | 5576 | 520 | -1.6 | -8.0 | 91 | 4 |
| 2010-01-09T23:50 | 5615 | 518 | -1.7 | -8.0 | 98 | 4 |
| 2010-01-09T23:50 | 5657 | 515 | -1.8 | -8.0 | 102 | 4 |
| 2010-01-09T23:50 | 5698 | 512 | -1.9 | -9.6 | 101 | 4 |
| 2010-01-09T23:50 | 5737 | 510 | -2.2 | -9.2 | 98 | 4 |
| 2010-01-09T23:50 | 5778 | 507 | -2.2 | -10.5 | 97 | 4 |
| 2010-01-09T23:51 | 5817 | 505 | -2.5 | -10.4 | 95 | 4 |
| 2010-01-09T23:51 | 5857 | 502 | -2.7 | -11.5 | 94 | 4 |
| 2010-01-09T23:51 | 5897 | 500 | -3.0 | -11.0 | 93 | 4 |
| 2010-01-09T23:51 | 5937 | 497 | -3.3 | -11.4 | 93 | 4 |
| 2010-01-09T23:51 | 5975 | 495 | -3.7 | -10.7 | 92 | 3 |
| 2010-01-09T23:51 | 6016 | 492 | -3.6 | -11.8 | 89 | 3 |
| 2010-01-09T23:52 | 6053 | 490 | -3.9 | -12.1 | 84 | 4 |
| 2010-01-09T23:52 | 6093 | 488 | -4.2 | -13.3 | 75 | 4 |
| 2010-01-09T23:52 | 6131 | 485 | -4.2 | -10.8 | 62 | 4 |
| 2010-01-09T23:52 | 6172 | 483 | -4.3 | -10.4 | 50 | 4 |
| 2010-01-09T23:52 | 6210 | 480 | -4.6 | -11.1 | 43 | 4 |
| 2010-01-09T23:52 | 6250 | 478 | -4.9 | -10.8 | 42 | 4 |
| 2010-01-09T23:53 | 6290 | 476 | -5.3 | -10.6 | 44 | 4 |
| 2010-01-09T23:53 | 6330 | 473 | -5.7 | -10.4 | 48 | 4 |
| 2010-01-09T23:53 | 6370 | 471 | -6.0 | -9.5 | 52 | 4 |
| 2010-01-09T23:53 | 6410 | 468 | -6.2 | -9.0 | 56 | 4 |
| 2010-01-09T23:53 | 6449 | 466 | -6.3 | -9.9 | 57 | 4 |
| 2010-01-09T23:53 | 6489 | 464 | -6.5 | -10.0 | 56 | 4 |
| 2010-01-09T23:54 | 6527 | 461 | -6.8 | -10.2 | 54 | 4 |
| 2010-01-09T23:54 | 6565 | 459 | -6.8 | -10.7 | 55 | 4 |
| 2010-01-09T23:54 | 6605 | 457 | -7.1 | -11.2 | 60 | 4 |
| 2010-01-09T23:54 | 6646 | 454 | -7.3 | -11.4 | 68 | 4 |
| 2010-01-09T23:54 | 6687 | 452 | -7.5 | -12.1 | 73 | 3 |
| 2010-01-09T23:54 | 6727 | 450 | -7.6 | -12.2 | 75 | 4 |
| 2010-01-09T23:55 | 6767 | 447 | -8.0 | -12.3 | 76 | 4 |
| 2010-01-09T23:55 | 6807 | 445 | -8.3 | -12.7 | 78 | 4 |
| 2010-01-09T23:55 | 6846 | 443 | -8.6 | -13.0 | 79 | 4 |
| 2010-01-09T23:55 | 6885 | 441 | -9.0 | -13.2 | 77 | 5 |
| 2010-01-09T23:55 | 6925 | 438 | -9.2 | -13.2 | 72 | 5 |
| 2010-01-09T23:55 | 6965 | 436 | -9.0 | -13.2 | 67 | 5 |
| 2010-01-09T23:56 | 7004 | 434 | -9.1 | -13.5 | 63 | 5 |
| 2010-01-09T23:56 | 7043 | 432 | -9.2 | -14.5 | 61 | 5 |
| 2010-01-09T23:56 | 7083 | 429 | -9.5 | -13.7 | 61 | 6 |
| 2010-01-09T23:56 | 7125 | 427 | -9.6 | -13.7 | 62 | 6 |
| 2010-01-09T23:56 | 7167 | 425 | -9.8 | -13.9 | 63 | 6 |
| 2010-01-09T23:56 | 7208 | 423 | -10.1 | -13.7 | 62 | 6 |
| 2010-01-09T23:57 | 7250 | 420 | -10.4 | -13.7 | 62 | 6 |
| 2010-01-09T23:57 | 7290 | 418 | -10.9 | -13.8 | 64 | 7 |
| 2010-01-09T23:57 | 7338 | 416 | -11.4 | -13.3 | 68 | 7 |
| 2010-01-09T23:57 | 7377 | 413 | -11.1 | -13.2 | 69 | 8 |
| 2010-01-09T23:57 | 7418 | 411 | -11.1 | -14.0 | 69 | 8 |
| 2010-01-09T23:57 | 7458 | 409 | -11.5 | -13.9 | 68 | 8 |
| 2010-01-09T23:58 | 7500 | 407 | -11.6 | -14.3 | 67 | 8 |
| 2010-01-09T23:58 | 7540 | 405 | -12.1 | -14.5 | 68 | 8 |
| 2010-01-09T23:58 | 7584 | 402 | -12.5 | -14.6 | 68 | 8 |
| 2010-01-09T23:58 | 7624 | 400 | -12.8 | -14.8 | 70 | 8 |
| 2010-01-09T23:58 | 7665 | 398 | -13.1 | -15.4 | 71 | 8 |
| 2010-01-09T23:58 | 7705 | 396 | -13.3 | -15.4 | 71 | 8 |
| 2010-01-09T23:59 | 7747 | 394 | -13.5 | -15.7 | 72 | 8 |
| 2010-01-09T23:59 | 7787 | 392 | -13.9 | -15.9 | 74 | 8 |
| 2010-01-09T23:59 | 7831 | 390 | -14.1 | -16.1 | 76 | 9 |
| 2010-01-09T23:59 | 7871 | 388 | -14.4 | -16.2 | 77 | 9 |
| 2010-01-09T23:59 | 7911 | 385 | -14.6 | -16.7 | 78 | 8 |
| 2010-01-09T23:59 | 7956 | 383 | -14.8 | -17.2 | 82 | 8 |
| 2010-01-10T00:00 | 7998 | 381 | -15.0 | -17.9 | 85 | 7 |
| 2010-01-10T00:00 | 8037 | 379 | -15.0 | -19.7 | 88 | 7 |
| 2010-01-10T00:00 | 8075 | 377 | -15.4 | -19.2 | 90 | 7 |
| 2010-01-10T00:00 | 8116 | 375 | -15.6 | -19.2 | 90 | 7 |
| 2010-01-10T00:00 | 8156 | 373 | -16.0 | -19.8 | 88 | 6 |
| 2010-01-10T00:00 | 8196 | 371 | -16.4 | -19.8 | 85 | 6 |
| 2010-01-10T00:01 | 8238 | 369 | -16.7 | -20.1 | 81 | 6 |
| 2010-01-10T00:01 | 8280 | 367 | -17.1 | -20.4 | 78 | 5 |
| 2010-01-10T00:01 | 8323 | 365 | -17.3 | -24.0 | 78 | 5 |
| 2010-01-10T00:01 | 8365 | 363 | -17.6 | -25.1 | 82 | 5 |
| 2010-01-10T00:01 | 8404 | 361 | -17.7 | -28.7 | 87 | 5 |
| 2010-01-10T00:01 | 8444 | 359 | -17.9 | -27.6 | 90 | 6 |
| 2010-01-10T00:02 | 8485 | 357 | -18.1 | -29.6 | 93 | 5 |
| 2010-01-10T00:02 | 8525 | 355 | -18.3 | -29.2 | 95 | 5 |
| 2010-01-10T00:02 | 8565 | 353 | -18.5 | -33.2 | 97 | 5 |
| 2010-01-10T00:02 | 8604 | 352 | -18.8 | -32.7 | 97 | 5 |
| 2010-01-10T00:02 | 8646 | 350 | -19.2 | -32.0 | 95 | 5 |
| 2010-01-10T00:02 | 8686 | 348 | -19.6 | -30.2 | 91 | 5 |
| 2010-01-10T00:03 | 8730 | 346 | -20.1 | -27.2 | 86 | 4 |
| 2010-01-10T00:03 | 8773 | 344 | -20.4 | -24.4 | 81 | 4 |
| 2010-01-10T00:03 | 8816 | 342 | -20.7 | -25.0 | 81 | 4 |
| 2010-01-10T00:03 | 8860 | 340 | -21.0 | -25.3 | 82 | 4 |
| 2010-01-10T00:03 | 8903 | 338 | -21.4 | -26.0 | 82 | 4 |
| 2010-01-10T00:03 | 8946 | 336 | -21.8 | -24.9 | 81 | 4 |
| 2010-01-10T00:04 | 8989 | 334 | -21.9 | -25.6 | 80 | 4 |
| 2010-01-10T00:04 | 9032 | 332 | -22.3 | -26.1 | 79 | 4 |
| 2010-01-10T00:04 | 9074 | 330 | -22.5 | -26.3 | 81 | 5 |
| 2010-01-10T00:04 | 9134 | 327 | -22.9 | -26.2 | 85 | 6 |
| 2010-01-10T00:04 | 9178 | 325 | -23.1 | -26.5 | 88 | 6 |
| 2010-01-10T00:04 | 9232 | 323 | -23.7 | -26.9 | 89 | 7 |
| 2010-01-10T00:05 | 9286 | 320 | -24.1 | -27.0 | 89 | 8 |
| 2010-01-10T00:05 | 9335 | 318 | -24.5 | -27.2 | 89 | 9 |
| 2010-01-10T00:05 | 9375 | 317 | -24.5 | -27.7 | 87 | 9 |
| 2010-01-10T00:05 | 9417 | 315 | -24.8 | -28.0 | 84 | 10 |
| 2010-01-10T00:05 | 9464 | 313 | -25.1 | -28.3 | 79 | 10 |
| 2010-01-10T00:05 | 9509 | 311 | -25.4 | -28.7 | 76 | 10 |
| 2010-01-10T00:06 | 9552 | 309 | -25.6 | -29.5 | 75 | 11 |
| 2010-01-10T00:06 | 9593 | 307 | -26.0 | -29.6 | 76 | 11 |
| 2010-01-10T00:06 | 9631 | 306 | -26.3 | -30.0 | 77 | 11 |
| 2010-01-10T00:06 | 9670 | 304 | -26.5 | -30.3 | 78 | 11 |
| 2010-01-10T00:06 | 9709 | 302 | -26.8 | -30.8 | 79 | 11 |
| 2010-01-10T00:06 | 9749 | 301 | -27.2 | -31.2 | 81 | 11 |
| 2010-01-10T00:07 | 9789 | 299 | -27.4 | -32.2 | 82 | 10 |
| 2010-01-10T00:07 | 9828 | 297 | -27.7 | -32.5 | 81 | 10 |
| 2010-01-10T00:07 | 9868 | 296 | -28.0 | -32.9 | 80 | 10 |
| 2010-01-10T00:07 | 9911 | 294 | -28.4 | -33.3 | 79 | 10 |
| 2010-01-10T00:07 | 9950 | 292 | -28.7 | -33.3 | 79 | 10 |
| 2010-01-10T00:07 | 9991 | 291 | -29.1 | -33.8 | 80 | 10 |
| 2010-01-10T00:08 | 10032 | 289 | -29.4 | -34.1 | 81 | 10 |
| 2010-01-10T00:08 | 10072 | 287 | -29.7 | -34.5 | 81 | 10 |
| 2010-01-10T00:08 | 10112 | 286 | -30.0 | -34.6 | 81 | 10 |
| 2010-01-10T00:08 | 10153 | 284 | -30.5 | -34.7 | 82 | 11 |
| 2010-01-10T00:08 | 10196 | 282 | -30.6 | -35.5 | 85 | 11 |
| 2010-01-10T00:08 | 10236 | 281 | -30.8 | -36.4 | 87 | 11 |
| 2010-01-10T00:09 | 10279 | 279 | -31.2 | -36.7 | 86 | 12 |
| 2010-01-10T00:09 | 10319 | 278 | -31.5 | -37.0 | 84 | 12 |
| 2010-01-10T00:09 | 10360 | 276 | -31.9 | -37.5 | 82 | 12 |
| 2010-01-10T00:09 | 10400 | 274 | -32.2 | -37.5 | 80 | 11 |
| 2010-01-10T00:09 | 10439 | 273 | -32.5 | -37.6 | 79 | 11 |
| 2010-01-10T00:09 | 10478 | 271 | -32.8 | -38.0 | 78 | 12 |
| 2010-01-10T00:10 | 10519 | 270 | -33.1 | -39.3 | 79 | 12 |
| 2010-01-10T00:10 | 10558 | 268 | -33.4 | -39.7 | 80 | 11 |
| 2010-01-10T00:10 | 10598 | 267 | -33.8 | -40.0 | 81 | 11 |
| 2010-01-10T00:10 | 10637 | 265 | -34.1 | -40.3 | 80 | 11 |
| 2010-01-10T00:10 | 10676 | 264 | -34.5 | -40.4 | 79 | 11 |
| 2010-01-10T00:10 | 10716 | 262 | -34.8 | -40.6 | 79 | 11 |
| 2010-01-10T00:11 | 10756 | 261 | -35.1 | -41.1 | 79 | 11 |
| 2010-01-10T00:11 | 10794 | 259 | -35.5 | -41.5 | 80 | 11 |
| 2010-01-10T00:11 | 10835 | 258 | -35.9 | -41.7 | 81 | 11 |
| 2010-01-10T00:11 | 10873 | 256 | -36.2 | -42.1 | 80 | 11 |
| 2010-01-10T00:11 | 10911 | 255 | -36.5 | -43.4 | 80 | 11 |
| 2010-01-10T00:11 | 10950 | 254 | -36.9 | -43.6 | 80 | 11 |
| 2010-01-10T00:12 | 10989 | 252 | -37.2 | -43.9 | 80 | 11 |
| 2010-01-10T00:12 | 11027 | 251 | -37.5 | -44.2 | 81 | 11 |
| 2010-01-10T00:12 | 11068 | 249 | -38.0 | -44.7 | 83 | 11 |
| 2010-01-10T00:12 | 11106 | 248 | -38.3 | -45.4 | 85 | 11 |
| 2010-01-10T00:12 | 11145 | 247 | -38.6 | -46.2 | 87 | 11 |
| 2010-01-10T00:12 | 11187 | 245 | -39.0 | -46.8 | 89 | 11 |
| 2010-01-10T00:13 | 11230 | 244 | -39.4 | -47.3 | 91 | 11 |
| 2010-01-10T00:13 | 11273 | 242 | -39.6 | -47.7 | 94 | 11 |
| 2010-01-10T00:13 | 11313 | 241 | -40.1 | -48.6 | 95 | 11 |
| 2010-01-10T00:13 | 11354 | 239 | -40.5 | -49.0 | 96 | 11 |
| 2010-01-10T00:13 | 11393 | 238 | -40.9 | -49.0 | 95 | 11 |
| 2010-01-10T00:13 | 11434 | 236 | -41.3 | -49.0 | 94 | 11 |
| 2010-01-10T00:14 | 11475 | 235 | -41.6 | -48.6 | 94 | 11 |
| 2010-01-10T00:14 | 11515 | 234 | -41.8 | -49.2 | 93 | 11 |
| 2010-01-10T00:14 | 11553 | 232 | -42.3 | -50.4 | 92 | 11 |
| 2010-01-10T00:14 | 11593 | 231 | -42.7 | -50.8 | 92 | 11 |
| 2010-01-10T00:14 | 11633 | 229 | -43.0 | -51.0 | 92 | 11 |
| 2010-01-10T00:14 | 11675 | 228 | -43.5 | -51.3 | 92 | 11 |
| 2010-01-10T00:15 | 11716 | 227 | -43.8 | -51.4 | 92 | 11 |
| 2010-01-10T00:15 | 11755 | 225 | -44.3 | -51.6 | 91 | 11 |
| 2010-01-10T00:15 | 11797 | 224 | -44.5 | -51.6 | 90 | 11 |
| 2010-01-10T00:15 | 11838 | 223 | -44.9 | -52.2 | 89 | 11 |
| 2010-01-10T00:15 | 11877 | 221 | -45.1 | -53.5 | 90 | 11 |
| 2010-01-10T00:15 | 11920 | 220 | -45.5 | -54.8 | 92 | 12 |
| 2010-01-10T00:16 | 11963 | 218 | -45.9 | -55.3 | 94 | 12 |
| 2010-01-10T00:16 | 12005 | 217 | -46.2 | -54.3 | 96 | 12 |
| 2010-01-10T00:16 | 12044 | 216 | -46.3 | -53.8 | 98 | 12 |
| 2010-01-10T00:16 | 12085 | 214 | -46.7 | -53.8 | 100 | 12 |
| 2010-01-10T00:16 | 12126 | 213 | -47.1 | -54.2 | 103 | 13 |
| 2010-01-10T00:16 | 12167 | 212 | -47.5 | -54.9 | 104 | 13 |
| 2010-01-10T00:17 | 12208 | 211 | -47.9 | -55.9 | 106 | 13 |
| 2010-01-10T00:17 | 12251 | 209 | -48.2 | -56.6 | 107 | 14 |
| 2010-01-10T00:17 | 12291 | 208 | -48.6 | -57.4 | 107 | 14 |
| 2010-01-10T00:17 | 12332 | 207 | -49.0 | -58.0 | 107 | 14 |
| 2010-01-10T00:17 | 12373 | 205 | -49.3 | -58.4 | 107 | 14 |
| 2010-01-10T00:17 | 12414 | 204 | -49.8 | -59.0 | 106 | 14 |
| 2010-01-10T00:18 | 12457 | 203 | -50.0 | -59.5 | 105 | 14 |
| 2010-01-10T00:18 | 12500 | 201 | -50.4 | -60.5 | 104 | 14 |
| 2010-01-10T00:18 | 12543 | 200 | -50.8 | -61.7 | 104 | 14 |
| 2010-01-10T00:18 | 12586 | 199 | -51.3 | -62.3 | 104 | 14 |
| 2010-01-10T00:18 | 12629 | 197 | -51.6 | -62.7 | 104 | 15 |
| 2010-01-10T00:18 | 12674 | 196 | -52.0 | -63.0 | 105 | 15 |
| 2010-01-10T00:19 | 12718 | 195 | -52.5 | -63.4 | 105 | 15 |
| 2010-01-10T00:19 | 12765 | 193 | -53.0 | -63.4 | 106 | 15 |
| 2010-01-10T00:19 | 12809 | 192 | -53.4 | -63.6 | 106 | 15 |
| 2010-01-10T00:19 | 12850 | 191 | -53.9 | -63.7 | 106 | 15 |
| 2010-01-10T00:19 | 12894 | 189 | -54.0 | -63.5 | 106 | 15 |
| 2010-01-10T00:19 | 12939 | 188 | -54.7 | -64.4 | 107 | 15 |
| 2010-01-10T00:20 | 12985 | 187 | -55.1 | -65.0 | 107 | 16 |
| 2010-01-10T00:20 | 13031 | 185 | -55.6 | -65.3 | 108 | 16 |
| 2010-01-10T00:20 | 13077 | 184 | -55.8 | -65.4 | 109 | 16 |
| 2010-01-10T00:20 | 13120 | 183 | -56.4 | -66.6 | 111 | 16 |
| 2010-01-10T00:20 | 13163 | 182 | -56.6 | -67.5 | 111 | 16 |
| 2010-01-10T00:20 | 13207 | 180 | -57.0 | -68.8 | 111 | 16 |
| 2010-01-10T00:21 | 13253 | 179 | -57.1 | -69.7 | 111 | 16 |
| 2010-01-10T00:21 | 13297 | 178 | -57.5 | -71.0 | 112 | 16 |
| 2010-01-10T00:21 | 13339 | 177 | -58.0 | -72.1 | 112 | 16 |
| 2010-01-10T00:21 | 13384 | 175 | -58.5 | -72.7 | 112 | 16 |
| 2010-01-10T00:21 | 13428 | 174 | -58.8 | -73.0 | 114 | 17 |
| 2010-01-10T00:21 | 13473 | 173 | -59.0 | -73.8 | 115 | 17 |
| 2010-01-10T00:22 | 13513 | 172 | -59.3 | -74.5 | 116 | 17 |
| 2010-01-10T00:22 | 13551 | 171 | -59.8 | -75.3 | 116 | 18 |
| 2010-01-10T00:22 | 13591 | 170 | -60.0 | -75.8 | 116 | 18 |
| 2010-01-10T00:22 | 13638 | 168 | -59.8 | -76.4 | 115 | 18 |
| 2010-01-10T00:22 | 13687 | 167 | -60.1 | -77.2 | 116 | 17 |
| 2010-01-10T00:22 | 13738 | 166 | -60.6 | -77.9 | 118 | 17 |
| 2010-01-10T00:23 | 13791 | 164 | -61.0 | -78.6 | 120 | 17 |
| 2010-01-10T00:23 | 13852 | 163 | -61.7 | -79.1 | 121 | 17 |
| 2010-01-10T00:23 | 13912 | 161 | -62.3 | -79.5 | 123 | 17 |
| 2010-01-10T00:23 | 13976 | 159 | -62.9 | -79.9 | 124 | 17 |
| 2010-01-10T00:23 | 14029 | 158 | -63.4 | -80.1 | 124 | 17 |
| 2010-01-10T00:23 | 14076 | 157 | -63.8 | -80.2 | 122 | 17 |
| 2010-01-10T00:24 | 14132 | 155 | -64.4 | -80.4 | 121 | 17 |
| 2010-01-10T00:24 | 14187 | 154 | -64.8 | -80.5 | 121 | 18 |
| 2010-01-10T00:24 | 14239 | 153 | -65.4 | -80.7 | 121 | 18 |
| 2010-01-10T00:24 | 14286 | 152 | -65.8 | -80.8 | 121 | 18 |
| 2010-01-10T00:24 | 14333 | 150 | -66.5 | -81.2 | 121 | 18 |
| 2010-01-10T00:24 | 14376 | 149 | -66.8 | -81.1 | 122 | 18 |
| 2010-01-10T00:25 | 14419 | 148 | -67.2 | -81.1 | 122 | 18 |
| 2010-01-10T00:25 | 14464 | 147 | -67.6 | -81.1 | 120 | 18 |
| 2010-01-10T00:25 | 14510 | 146 | -67.9 | -81.2 | 119 | 18 |
| 2010-01-10T00:25 | 14552 | 145 | -68.3 | -81.3 | 118 | 18 |
| 2010-01-10T00:25 | 14595 | 144 | -68.8 | -81.4 | 118 | 19 |
| 2010-01-10T00:25 | 14639 | 143 | -69.2 | -81.4 | 119 | 19 |
| 2010-01-10T00:26 | 14684 | 142 | -69.5 | -81.5 | 121 | 20 |
| 2010-01-10T00:26 | 14728 | 141 | -69.7 | -81.3 | 123 | 20 |
| 2010-01-10T00:26 | 14769 | 140 | -69.6 | -80.9 | 125 | 21 |
| 2010-01-10T00:26 | 14810 | 139 | -69.8 | -80.8 | 127 | 21 |
| 2010-01-10T00:26 | 14850 | 138 | -70.2 | -80.9 | 128 | 21 |
| 2010-01-10T00:26 | 14891 | 137 | -70.5 | -81.2 | 130 | 20 |
| 2010-01-10T00:27 | 14932 | 136 | -70.9 | -81.5 | 130 | 20 |
| 2010-01-10T00:27 | 14972 | 135 | -71.2 | -81.7 | 131 | 19 |
| 2010-01-10T00:27 | 15014 | 134 | -71.6 | -81.9 | 134 | 19 |
| 2010-01-10T00:27 | 15056 | 133 | -71.9 | -82.0 | 137 | 18 |
| 2010-01-10T00:27 | 15097 | 132 | -72.2 | -82.2 | 139 | 18 |
| 2010-01-10T00:27 | 15140 | 131 | -72.5 | -82.3 | 141 | 18 |
| 2010-01-10T00:28 | 15183 | 130 | -72.7 | -82.3 | 143 | 17 |
| 2010-01-10T00:28 | 15228 | 129 | -73.2 | -82.6 | 144 | 17 |
| 2010-01-10T00:28 | 15278 | 128 | -73.7 | -83.0 | 146 | 17 |
| 2010-01-10T00:28 | 15327 | 127 | -74.0 | -83.2 | 146 | 17 |
| 2010-01-10T00:28 | 15375 | 126 | -74.6 | -83.6 | 146 | 17 |
| 2010-01-10T00:28 | 15419 | 125 | -74.9 | -83.8 | 146 | 17 |
| 2010-01-10T00:29 | 15465 | 124 | -75.5 | -84.3 | 147 | 17 |
| 2010-01-10T00:29 | 15509 | 123 | -75.9 | -84.6 | 147 | 17 |
| 2010-01-10T00:29 | 15556 | 122 | -76.4 | -85.0 | 147 | 17 |
| 2010-01-10T00:29 | 15603 | 121 | -76.9 | -85.4 | 148 | 17 |
| 2010-01-10T00:29 | 15653 | 120 | -77.3 | -85.8 | 149 | 17 |
| 2010-01-10T00:29 | 15704 | 119 | -77.8 | -86.2 | 151 | 18 |
| 2010-01-10T00:30 | 15750 | 118 | -78.3 | -86.6 | 152 | 19 |
| 2010-01-10T00:30 | 15793 | 117 | -78.2 | -86.5 | 153 | 19 |
| 2010-01-10T00:30 | 15837 | 116 | -78.3 | -86.6 | 153 | 20 |
| 2010-01-10T00:30 | 15881 | 116 | -78.7 | -87.0 | 153 | 20 |
| 2010-01-10T00:30 | 15926 | 115 | -79.1 | -87.3 | 152 | 20 |
| 2010-01-10T00:30 | 15971 | 114 | -79.1 | -87.4 | 149 | 21 |
| 2010-01-10T00:31 | 16015 | 113 | -79.1 | -87.3 | 146 | 21 |
| 2010-01-10T00:31 | 16060 | 112 | -79.6 | -87.7 | 145 | 21 |
| 2010-01-10T00:31 | 16104 | 111 | -79.7 | -87.8 | 143 | 20 |
| 2010-01-10T00:31 | 16149 | 110 | -80.1 | -88.1 | 143 | 20 |
| 2010-01-10T00:31 | 16194 | 109 | -80.3 | -88.3 | 142 | 20 |
| 2010-01-10T00:31 | 16240 | 108 | -80.8 | -88.7 | 142 | 19 |
| 2010-01-10T00:32 | 16286 | 108 | -81.3 | -89.2 | 142 | 19 |
| 2010-01-10T00:32 | 16335 | 107 | -81.6 | -89.5 | 140 | 19 |
| 2010-01-10T00:32 | 16386 | 106 | -82.0 | -89.8 | 138 | 19 |
| 2010-01-10T00:32 | 16437 | 105 | -82.6 | -90.4 | 137 | 19 |
| 2010-01-10T00:32 | 16485 | 104 | -82.6 | -90.4 | 138 | 20 |
| 2010-01-10T00:32 | 16532 | 103 | -82.7 | -90.4 | 140 | 20 |
| 2010-01-10T00:33 | 16577 | 102 | -82.9 | -90.7 | 142 | 21 |
| 2010-01-10T00:33 | 16622 | 101 | -82.9 | -90.7 | 144 | 22 |
| 2010-01-10T00:33 | 16668 | 100 | -83.4 | -91.2 | 145 | 23 |
| 2010-01-10T00:33 | 16713 | 100 | -83.6 | -91.3 | 145 | 23 |
| 2010-01-10T00:33 | 16760 | 99 | -83.9 | -91.8 | 146 | 24 |
| 2010-01-10T00:33 | 16807 | 98 | -84.4 | -92.3 | 145 | 24 |
| 2010-01-10T00:34 | 16856 | 97 | -84.8 | -92.7 | 144 | 23 |
| 2010-01-10T00:34 | 16904 | 96 | -85.3 | -93.2 | 143 | 23 |
| 2010-01-10T00:34 | 16952 | 95 | -85.3 | -93.3 | 141 | 22 |
| 2010-01-10T00:34 | 17002 | 95 | -85.4 | -93.4 | 137 | 20 |
| 2010-01-10T00:34 | 17060 | 94 | -85.2 | -93.2 | 132 | 18 |
| 2010-01-10T00:34 | 17108 | 93 | -84.2 | -92.4 | 126 | 17 |
| 2010-01-10T00:35 | 17161 | 92 | -83.8 | -92.1 | 120 | 15 |
| 2010-01-10T00:35 | 17206 | 91 | -83.3 | -91.6 | 114 | 14 |
| 2010-01-10T00:35 | 17256 | 90 | -83.1 | -91.4 | 109 | 13 |
| 2010-01-10T00:35 | 17301 | 90 | -82.7 | -91.1 | 104 | 12 |
| 2010-01-10T00:35 | 17345 | 89 | -82.8 | -91.2 | 101 | 11 |
| 2010-01-10T00:35 | 17389 | 88 | -82.6 | -91.1 | 99 | 10 |
| 2010-01-10T00:36 | 17438 | 87 | -82.0 | -90.6 | 100 | 7 |
| 2010-01-10T00:36 | 17483 | 87 | -81.0 | -89.8 | 105 | 3 |
| 2010-01-10T00:36 | 17525 | 86 | -79.8 | -88.7 | 135 | 0 |
| 2010-01-10T00:36 | 17570 | 85 | -79.1 | -88.2 | 269 | 2 |
| 2010-01-10T00:36 | 17619 | 85 | -78.0 | -87.3 | 275 | 5 |
| 2010-01-10T00:36 | 17666 | 84 | -76.9 | -86.5 | 278 | 8 |
| 2010-01-10T00:37 | 17708 | 83 | -76.4 | -86.2 | 281 | 10 |
| 2010-01-10T00:37 | 17756 | 83 | -76.8 | -86.7 | 284 | 12 |
| 2010-01-10T00:37 | 17802 | 82 | -76.5 | -86.6 | 287 | 14 |
| 2010-01-10T00:37 | 17849 | 81 | -76.7 | -87.0 | 291 | 16 |
| 2010-01-10T00:37 | 17900 | 81 | -76.9 | -87.5 | 294 | 18 |
| 2010-01-10T00:37 | 17945 | 80 | -76.9 | -87.7 | 297 | 18 |
| 2010-01-10T00:38 | 17992 | 79 | -77.4 | -88.2 | 299 | 17 |
| 2010-01-10T00:38 | 18037 | 79 | -76.9 | -87.9 | 299 | 16 |
| 2010-01-10T00:38 | 18084 | 78 | -77.0 | -88.2 | 296 | 15 |
| 2010-01-10T00:38 | 18137 | 77 | -76.7 | -88.2 | 291 | 16 |
| 2010-01-10T00:38 | 18187 | 77 | -76.6 | -88.2 | 286 | 17 |
| 2010-01-10T00:38 | 18230 | 76 | -77.0 | -88.7 | 283 | 17 |
| 2010-01-10T00:39 | 18276 | 76 | -77.4 | -89.1 | 281 | 18 |
| 2010-01-10T00:39 | 18321 | 75 | -77.7 | -89.6 | 280 | 19 |
| 2010-01-10T00:39 | 18367 | 74 | -78.1 | -90.0 | 279 | 20 |
| 2010-01-10T00:39 | 18411 | 74 | -78.0 | -90.0 | 279 | 19 |
| 2010-01-10T00:39 | 18455 | 73 | -77.7 | -90.0 | 279 | 18 |
| 2010-01-10T00:39 | 18500 | 73 | -77.7 | -90.0 | 280 | 17 |
| 2010-01-10T00:40 | 18545 | 72 | -77.3 | -89.8 | 279 | 15 |
| 2010-01-10T00:40 | 18591 | 71 | -77.1 | -89.7 | 277 | 14 |
| 2010-01-10T00:40 | 18637 | 71 | -76.8 | -89.5 | 274 | 14 |
| 2010-01-10T00:40 | 18681 | 70 | -77.2 | -90.0 | 271 | 14 |
| 2010-01-10T00:40 | 18727 | 70 | -77.1 | -90.0 | 267 | 14 |
| 2010-01-10T00:40 | 18775 | 69 | -76.8 | -89.8 | 264 | 14 |
| 2010-01-10T00:41 | 18822 | 69 | -76.7 | -89.9 | 262 | 14 |
| 2010-01-10T00:41 | 18872 | 68 | -77.1 | -90.2 | 259 | 14 |
| 2010-01-10T00:41 | 18921 | 67 | -76.8 | -90.1 | 256 | 14 |
| 2010-01-10T00:41 | 18970 | 67 | -76.6 | -90.1 | 254 | 14 |
| 2010-01-10T00:41 | 19021 | 66 | -76.8 | -90.2 | 254 | 13 |
| 2010-01-10T00:41 | 19071 | 66 | -77.1 | -90.6 | 253 | 12 |
| 2010-01-10T00:42 | 19122 | 65 | -77.2 | -90.7 | 251 | 12 |
| 2010-01-10T00:42 | 19172 | 65 | -76.9 | -90.6 | 248 | 13 |
| 2010-01-10T00:42 | 19222 | 64 | -76.9 | -90.6 | 247 | 13 |
| 2010-01-10T00:42 | 19272 | 63 | -77.3 | -91.0 | 246 | 14 |
| 2010-01-10T00:42 | 19320 | 63 | -77.4 | -91.1 | 248 | 13 |
| 2010-01-10T00:42 | 19369 | 62 | -77.2 | -91.0 | 251 | 13 |
| 2010-01-10T00:43 | 19419 | 62 | -76.9 | -90.8 | 253 | 13 |
| 2010-01-10T00:43 | 19468 | 61 | -77.1 | -91.0 | 253 | 13 |
| 2010-01-10T00:43 | 19518 | 61 | -77.3 | -91.2 | 252 | 13 |
| 2010-01-10T00:43 | 19564 | 60 | -77.5 | -91.4 | 251 | 12 |
| 2010-01-10T00:43 | 19613 | 60 | -77.6 | -91.6 | 248 | 11 |
| 2010-01-10T00:43 | 19660 | 59 | -78.0 | -91.9 | 246 | 10 |
| 2010-01-10T00:44 | 19710 | 59 | -77.8 | -91.9 | 248 | 10 |
| 2010-01-10T00:44 | 19759 | 58 | -78.0 | -92.0 | 255 | 10 |
| 2010-01-10T00:44 | 19805 | 58 | -78.1 | -92.1 | 261 | 11 |
| 2010-01-10T00:44 | 19855 | 57 | -78.2 | -92.2 | 265 | 11 |
| 2010-01-10T00:44 | 19903 | 57 | -78.5 | -92.5 | 267 | 10 |
| 2010-01-10T00:44 | 19951 | 56 | -78.5 | -92.5 | 269 | 10 |
| 2010-01-10T00:45 | 19999 | 56 | -78.9 | -92.8 | 273 | 9 |
| 2010-01-10T00:45 | 20048 | 55 | -78.8 | -92.7 | 278 | 9 |
| 2010-01-10T00:45 | 20097 | 55 | -78.8 | -92.8 | 283 | 8 |
| 2010-01-10T00:45 | 20143 | 54 | -78.0 | -92.1 | 288 | 7 |
| 2010-01-10T00:45 | 20189 | 54 | -77.7 | -91.8 | 296 | 6 |
| 2010-01-10T00:45 | 20234 | 54 | -77.0 | -91.3 | 308 | 6 |
| 2010-01-10T00:46 | 20278 | 53 | -75.6 | -90.2 | 316 | 7 |
| 2010-01-10T00:46 | 20323 | 53 | -74.9 | -89.7 | 320 | 9 |
| 2010-01-10T00:46 | 20366 | 52 | -74.5 | -89.4 | 325 | 9 |
| 2010-01-10T00:46 | 20410 | 52 | -74.1 | -89.2 | 330 | 10 |
| 2010-01-10T00:46 | 20455 | 52 | -74.2 | -89.4 | 333 | 10 |
| 2010-01-10T00:46 | 20501 | 51 | -74.3 | -89.7 | 336 | 10 |
| 2010-01-10T00:47 | 20548 | 51 | -74.3 | -89.8 | 338 | 9 |
| 2010-01-10T00:47 | 20595 | 50 | -74.2 | -89.9 | 340 | 9 |
| 2010-01-10T00:47 | 20645 | 50 | -73.9 | -89.9 | 342 | 8 |
| 2010-01-10T00:47 | 20695 | 50 | -73.8 | -90.0 | 348 | 7 |
| 2010-01-10T00:47 | 20743 | 49 | -73.9 | -90.2 | 360 | 7 |
| 2010-01-10T00:47 | 20794 | 49 | -73.2 | -89.9 | 13 | 6 |
| 2010-01-10T00:48 | 20844 | 48 | -73.0 | -89.8 | 25 | 5 |
| 2010-01-10T00:48 | 20893 | 48 | -73.1 | -90.1 | 35 | 5 |
| 2010-01-10T00:48 | 20943 | 47 | -73.4 | -90.5 | 45 | 4 |
| 2010-01-10T00:48 | 20993 | 47 | -73.3 | -90.6 | 65 | 2 |
| 2010-01-10T00:48 | 21040 | 47 | -72.5 | -90.2 | 96 | 3 |
| 2010-01-10T00:48 | 21088 | 46 | -72.1 | -90.1 | 107 | 4 |
| 2010-01-10T00:49 | 21136 | 46 | -71.8 | -90.0 | 102 | 5 |
| 2010-01-10T00:49 | 21182 | 46 | -71.9 | -90.3 | 97 | 6 |
| 2010-01-10T00:49 | 21228 | 45 | -71.6 | -90.3 | 102 | 6 |
| 2010-01-10T00:49 | 21276 | 45 | -71.4 | -90.4 | 114 | 6 |
| 2010-01-10T00:49 | 21322 | 45 | -71.4 | -90.6 | 121 | 6 |
| 2010-01-10T00:49 | 21369 | 44 | -70.5 | -90.2 | 119 | 7 |
| 2010-01-10T00:50 | 21416 | 44 | -70.0 | -90.0 | 113 | 8 |
| 2010-01-10T00:50 | 21463 | 43 | -69.6 | -89.9 | 112 | 9 |
| 2010-01-10T00:50 | 21512 | 43 | -68.5 | -89.4 | 115 | 9 |
| 2010-01-10T00:50 | 21559 | 43 | -67.8 | -89.2 | 119 | 10 |
| 2010-01-10T00:50 | 21609 | 42 | -68.0 | -89.5 | 124 | 11 |
| 2010-01-10T00:50 | 21658 | 42 | -68.0 | -89.8 | 128 | 12 |
| 2010-01-10T00:51 | 21706 | 42 | -68.3 | -90.3 | 129 | 12 |
| 2010-01-10T00:51 | 21757 | 41 | -68.6 | -90.7 | 129 | 13 |
| 2010-01-10T00:51 | 21806 | 41 | -68.9 | -91.2 | 127 | 14 |
| 2010-01-10T00:51 | 21857 | 41 | -69.3 | -91.6 | 125 | 15 |
| 2010-01-10T00:51 | 21907 | 40 | -69.6 | -92.0 | 122 | 16 |
| 2010-01-10T00:51 | 21954 | 40 | -69.7 | -92.3 | 119 | 17 |
| 2010-01-10T00:52 | 22005 | 40 | -69.2 | -92.1 | 117 | 18 |
| 2010-01-10T00:52 | 22053 | 39 | -69.0 | -92.1 | 117 | 19 |
| 2010-01-10T00:52 | 22102 | 39 | -68.8 | -92.1 | 116 | 19 |
| 2010-01-10T00:52 | 22152 | 39 | -68.3 | -91.9 | 116 | 19 |
| 2010-01-10T00:52 | 22199 | 38 | -68.6 | -92.0 | 114 | 18 |
| 2010-01-10T00:52 | 22247 | 38 | -68.8 | -92.3 | 111 | 18 |
| 2010-01-10T00:53 | 22296 | 38 | -69.0 | -92.5 | 109 | 17 |
| 2010-01-10T00:53 | 22344 | 38 | -69.2 | -92.7 | 105 | 17 |
| 2010-01-10T00:53 | 22394 | 37 | -69.3 | -92.8 | 100 | 17 |
| 2010-01-10T00:53 | 22443 | 37 | -68.8 | -92.7 | 95 | 18 |
| 2010-01-10T00:53 | 22494 | 37 | -67.3 | -92.0 | 91 | 20 |
| 2010-01-10T00:53 | 22544 | 36 | -67.1 | -91.8 | 88 | 21 |
| 2010-01-10T00:54 | 22596 | 36 | -67.2 | -91.8 | 86 | 22 |
| 2010-01-10T00:54 | 22646 | 36 | -66.9 | -91.7 | 83 | 22 |
| 2010-01-10T00:54 | 22697 | 35 | -66.3 | -91.5 | 83 | 22 |
| 2010-01-10T00:54 | 22749 | 35 | -65.9 | -91.3 | 85 | 21 |
| 2010-01-10T00:54 | 22800 | 35 | -64.3 | -90.6 | 89 | 21 |
| 2010-01-10T00:54 | 22851 | 35 | -63.4 | -90.0 | 93 | 21 |
| 2010-01-10T00:55 | 22904 | 34 | -62.8 | -89.8 | 96 | 22 |
| 2010-01-10T00:55 | 22954 | 34 | -62.3 | -89.5 | 98 | 23 |
| 2010-01-10T00:55 | 23007 | 34 | -61.7 | -89.2 | 98 | 24 |
| 2010-01-10T00:55 | 23058 | 33 | -61.5 | -89.1 | 97 | 25 |
| 2010-01-10T00:55 | 23107 | 33 | -61.4 | -89.1 | 96 | 25 |
| 2010-01-10T00:55 | 23161 | 33 | -61.4 | -89.1 | 95 | 25 |
| 2010-01-10T00:56 | 23212 | 33 | -61.0 | -89.0 | 95 | 26 |
| 2010-01-10T00:56 | 23261 | 32 | -59.7 | -88.5 | 96 | 27 |
| 2010-01-10T00:56 | 23310 | 32 | -59.3 | -88.2 | 95 | 28 |
| 2010-01-10T00:56 | 23360 | 32 | -59.4 | -88.2 | 93 | 29 |
| 2010-01-10T00:56 | 23409 | 32 | -59.1 | -88.1 | 91 | 29 |
| 2010-01-10T00:56 | 23459 | 31 | -59.4 | -88.2 | 88 | 30 |
| 2010-01-10T00:57 | 23508 | 31 | -59.5 | -88.3 | 86 | 31 |
| 2010-01-10T00:57 | 23555 | 31 | -59.7 | -88.3 | 85 | 32 |
| 2010-01-10T00:57 | 23605 | 31 | -59.3 | -88.2 | 85 | 32 |
| 2010-01-10T00:57 | 23653 | 30 | -58.8 | -88.0 | 84 | 32 |
| 2010-01-10T00:57 | 23704 | 30 | -58.8 | -87.9 | 84 | 32 |
| 2010-01-10T00:57 | 23753 | 30 | -58.8 | -87.9 | 82 | 32 |
| 2010-01-10T00:58 | 23806 | 30 | -58.7 | -87.8 | 81 | 32 |
| 2010-01-10T00:58 | 23858 | 29 | -58.9 | -87.9 | 81 | 31 |
| 2010-01-10T00:58 | 23910 | 29 | -57.7 | -87.4 | 82 | 31 |
| 2010-01-10T00:58 | 23965 | 29 | -57.0 | -87.1 | 83 | 30 |
| 2010-01-10T00:58 | 24020 | 29 | -56.5 | -86.7 | 83 | 31 |
| 2010-01-10T00:58 | 24071 | 28 | -56.2 | -86.4 | 82 | 31 |
| 2010-01-10T00:59 | 24125 | 28 | -56.1 | -86.3 | 81 | 32 |
| 2010-01-10T00:59 | 24179 | 28 | -55.8 | -86.1 | 79 | 32 |
| 2010-01-10T00:59 | 24231 | 28 | -55.7 | -86.0 | 78 | 31 |
| 2010-01-10T00:59 | 24283 | 27 | -55.4 | -85.8 | 77 | 30 |
| 2010-01-10T00:59 | 24333 | 27 | -54.9 | -85.5 | 77 | 29 |
| 2010-01-10T00:59 | 24383 | 27 | -54.6 | -85.3 | 79 | 29 |
| 2010-01-10T01:00 | 24432 | 27 | -54.3 | -85.0 | 80 | 28 |
| 2010-01-10T01:00 | 24480 | 27 | -54.0 | -84.8 | 82 | 28 |
| 2010-01-10T01:00 | 24531 | 26 | -54.0 | -84.7 | 82 | 28 |
| 2010-01-10T01:00 | 24576 | 26 | -53.8 | -84.6 | 83 | 28 |
| 2010-01-10T01:00 | 24624 | 26 | -52.9 | -84.2 | 84 | 29 |
| 2010-01-10T01:00 | 24670 | 26 | -52.1 | -83.8 | 86 | 30 |
| 2010-01-10T11:29 | 4 | 1006 | 27.1 | 24.9 | 320 | 3 |
| 2010-01-10T11:29 | 17 | 1004 | 27.3 | 25.0 | 318 | 2 |
| 2010-01-10T11:29 | 31 | 1003 | 27.3 | 25.0 | 317 | 2 |
| 2010-01-10T11:29 | 44 | 1001 | 27.2 | 24.9 | 316 | 3 |
| 2010-01-10T11:29 | 54 | 1000 | 27.1 | 24.8 | 315 | 3 |
| 2010-01-10T11:29 | 65 | 999 | 27.1 | 24.8 | 314 | 3 |
| 2010-01-10T11:29 | 80 | 997 | 26.9 | 24.6 | 314 | 4 |
| 2010-01-10T11:29 | 95 | 996 | 26.8 | 24.5 | 313 | 4 |
| 2010-01-10T11:29 | 109 | 994 | 26.7 | 24.5 | 313 | 4 |
| 2010-01-10T11:29 | 121 | 993 | 26.6 | 24.4 | 313 | 4 |
| 2010-01-10T11:29 | 132 | 991 | 26.5 | 24.4 | 313 | 4 |
| 2010-01-10T11:29 | 144 | 990 | 26.4 | 24.3 | 313 | 5 |
| 2010-01-10T11:29 | 159 | 988 | 26.3 | 24.2 | 314 | 5 |
| 2010-01-10T11:29 | 173 | 987 | 26.1 | 24.2 | 315 | 5 |
| 2010-01-10T11:29 | 187 | 985 | 26.0 | 24.2 | 316 | 5 |
| 2010-01-10T11:29 | 201 | 984 | 25.9 | 24.2 | 317 | 5 |
| 2010-01-10T11:29 | 213 | 982 | 25.8 | 24.1 | 319 | 5 |
| 2010-01-10T11:29 | 225 | 981 | 25.6 | 24.2 | 320 | 5 |
| 2010-01-10T11:29 | 239 | 979 | 25.5 | 24.2 | 321 | 5 |
| 2010-01-10T11:29 | 251 | 978 | 25.4 | 24.2 | 322 | 5 |
| 2010-01-10T11:29 | 263 | 977 | 25.3 | 24.2 | 323 | 5 |
| 2010-01-10T11:29 | 278 | 975 | 25.1 | 24.1 | 324 | 5 |
| 2010-01-10T11:29 | 293 | 974 | 25.0 | 24.1 | 324 | 6 |
| 2010-01-10T11:29 | 307 | 972 | 24.9 | 24.1 | 323 | 6 |
| 2010-01-10T11:29 | 321 | 970 | 24.7 | 24.0 | 323 | 6 |
| 2010-01-10T11:29 | 333 | 969 | 24.6 | 24.0 | 322 | 6 |
| 2010-01-10T11:29 | 343 | 968 | 24.5 | 24.0 | 320 | 6 |
| 2010-01-10T11:29 | 353 | 967 | 24.4 | 23.9 | 319 | 7 |
| 2010-01-10T11:29 | 367 | 965 | 24.4 | 23.8 | 317 | 7 |
| 2010-01-10T11:29 | 382 | 964 | 24.3 | 23.7 | 316 | 7 |
| 2010-01-10T11:30 | 397 | 962 | 24.2 | 23.5 | 314 | 7 |
| 2010-01-10T11:30 | 408 | 961 | 24.2 | 23.1 | 313 | 8 |
| 2010-01-10T11:30 | 420 | 960 | 24.2 | 22.9 | 312 | 8 |
| 2010-01-10T11:30 | 433 | 958 | 24.1 | 22.8 | 311 | 8 |
| 2010-01-10T11:30 | 448 | 956 | 24.0 | 22.6 | 310 | 8 |
| 2010-01-10T11:30 | 460 | 955 | 24.0 | 22.5 | 309 | 8 |
| 2010-01-10T11:30 | 473 | 954 | 24.0 | 22.2 | 308 | 9 |
| 2010-01-10T11:30 | 487 | 952 | 24.0 | 21.9 | 307 | 9 |
| 2010-01-10T11:30 | 499 | 951 | 24.0 | 21.7 | 307 | 9 |
| 2010-01-10T11:30 | 510 | 950 | 24.0 | 21.6 | 306 | 8 |
| 2010-01-10T11:30 | 522 | 948 | 23.9 | 21.6 | 306 | 8 |
| 2010-01-10T11:30 | 532 | 947 | 23.8 | 21.5 | 305 | 8 |
| 2010-01-10T11:30 | 541 | 946 | 23.8 | 21.5 | 305 | 8 |
| 2010-01-10T11:30 | 552 | 945 | 23.7 | 21.6 | 304 | 8 |
| 2010-01-10T11:30 | 564 | 944 | 23.6 | 21.7 | 304 | 8 |
| 2010-01-10T11:30 | 577 | 943 | 23.5 | 21.9 | 303 | 8 |
| 2010-01-10T11:30 | 590 | 941 | 23.4 | 22.1 | 303 | 8 |
| 2010-01-10T11:30 | 602 | 940 | 23.3 | 22.1 | 302 | 8 |
| 2010-01-10T11:30 | 615 | 938 | 23.2 | 22.3 | 302 | 8 |
| 2010-01-10T11:30 | 628 | 937 | 23.2 | 22.3 | 302 | 8 |
| 2010-01-10T11:30 | 640 | 936 | 23.4 | 21.9 | 301 | 8 |
| 2010-01-10T11:30 | 651 | 935 | 23.5 | 21.3 | 301 | 9 |
| 2010-01-10T11:30 | 662 | 933 | 23.5 | 21.0 | 301 | 9 |
| 2010-01-10T11:30 | 675 | 932 | 23.5 | 20.7 | 301 | 9 |
| 2010-01-10T11:30 | 691 | 930 | 23.5 | 20.4 | 301 | 9 |
| 2010-01-10T11:30 | 707 | 929 | 23.5 | 20.1 | 301 | 10 |
| 2010-01-10T11:30 | 720 | 927 | 23.5 | 19.9 | 301 | 10 |
| 2010-01-10T11:30 | 733 | 926 | 23.4 | 19.8 | 301 | 10 |
| 2010-01-10T11:30 | 745 | 925 | 23.3 | 19.7 | 301 | 11 |
| 2010-01-10T11:30 | 757 | 923 | 23.2 | 19.6 | 302 | 11 |
| 2010-01-10T11:31 | 770 | 922 | 23.1 | 19.5 | 302 | 11 |
| 2010-01-10T11:31 | 781 | 921 | 23.1 | 19.5 | 303 | 11 |
| 2010-01-10T11:31 | 792 | 920 | 23.0 | 19.4 | 304 | 11 |
| 2010-01-10T11:31 | 805 | 918 | 22.9 | 19.4 | 305 | 11 |
| 2010-01-10T11:31 | 818 | 917 | 22.8 | 19.3 | 306 | 11 |
| 2010-01-10T11:31 | 830 | 916 | 22.7 | 19.2 | 307 | 11 |
| 2010-01-10T11:31 | 841 | 915 | 22.6 | 19.1 | 308 | 11 |
| 2010-01-10T11:31 | 853 | 913 | 22.5 | 19.1 | 309 | 11 |
| 2010-01-10T11:31 | 865 | 912 | 22.5 | 19.0 | 310 | 11 |
| 2010-01-10T11:31 | 877 | 911 | 22.4 | 19.0 | 312 | 11 |
| 2010-01-10T11:31 | 889 | 910 | 22.4 | 19.0 | 313 | 11 |
| 2010-01-10T11:31 | 901 | 908 | 22.5 | 18.9 | 314 | 11 |
| 2010-01-10T11:31 | 913 | 907 | 22.8 | 18.8 | 314 | 11 |
| 2010-01-10T11:31 | 927 | 906 | 22.9 | 18.7 | 315 | 11 |
| 2010-01-10T11:31 | 938 | 904 | 23.0 | 18.6 | 316 | 10 |
| 2010-01-10T11:31 | 949 | 903 | 23.0 | 18.5 | 316 | 10 |
| 2010-01-10T11:31 | 962 | 902 | 23.2 | 18.6 | 317 | 10 |
| 2010-01-10T11:31 | 974 | 901 | 23.2 | 18.7 | 317 | 10 |
| 2010-01-10T11:31 | 987 | 899 | 23.1 | 18.8 | 317 | 10 |
| 2010-01-10T11:31 | 1000 | 898 | 23.1 | 18.9 | 317 | 9 |
| 2010-01-10T11:31 | 1013 | 897 | 23.0 | 18.8 | 317 | 9 |
| 2010-01-10T11:31 | 1024 | 896 | 22.9 | 18.7 | 317 | 9 |
| 2010-01-10T11:31 | 1035 | 894 | 22.8 | 18.6 | 317 | 9 |
| 2010-01-10T11:31 | 1047 | 893 | 22.7 | 18.6 | 317 | 9 |
| 2010-01-10T11:31 | 1060 | 892 | 22.6 | 18.5 | 316 | 9 |
| 2010-01-10T11:31 | 1075 | 890 | 22.5 | 18.4 | 316 | 9 |
| 2010-01-10T11:31 | 1088 | 889 | 22.4 | 18.3 | 316 | 9 |
| 2010-01-10T11:31 | 1099 | 888 | 22.3 | 18.3 | 315 | 9 |
| 2010-01-10T11:31 | 1112 | 887 | 22.2 | 18.3 | 315 | 9 |
| 2010-01-10T11:31 | 1126 | 885 | 22.2 | 18.1 | 315 | 9 |
| 2010-01-10T11:32 | 1138 | 884 | 22.1 | 18.0 | 314 | 9 |
| 2010-01-10T11:32 | 1151 | 883 | 22.0 | 17.9 | 314 | 9 |
| 2010-01-10T11:32 | 1165 | 881 | 22.0 | 17.8 | 314 | 9 |
| 2010-01-10T11:32 | 1181 | 880 | 21.9 | 17.8 | 314 | 9 |
| 2010-01-10T11:32 | 1196 | 878 | 21.8 | 18.0 | 313 | 9 |
| 2010-01-10T11:32 | 1207 | 877 | 21.7 | 18.0 | 313 | 9 |
| 2010-01-10T11:32 | 1218 | 876 | 21.7 | 17.9 | 313 | 9 |
| 2010-01-10T11:32 | 1230 | 875 | 21.7 | 17.8 | 313 | 9 |
| 2010-01-10T11:32 | 1243 | 873 | 21.7 | 17.7 | 313 | 9 |
| 2010-01-10T11:32 | 1255 | 872 | 21.7 | 17.5 | 313 | 9 |
| 2010-01-10T11:32 | 1267 | 871 | 21.7 | 17.3 | 313 | 9 |
| 2010-01-10T11:32 | 1276 | 870 | 21.7 | 17.1 | 312 | 9 |
| 2010-01-10T11:32 | 1282 | 869 | 21.6 | 17.0 | 312 | 10 |
| 2010-01-10T11:32 | 1292 | 869 | 21.6 | 17.0 | 312 | 10 |
| 2010-01-10T11:32 | 1302 | 868 | 21.5 | 17.0 | 311 | 10 |
| 2010-01-10T11:32 | 1314 | 866 | 21.4 | 17.0 | 311 | 10 |
| 2010-01-10T11:32 | 1328 | 865 | 21.4 | 17.0 | 311 | 10 |
| 2010-01-10T11:32 | 1339 | 864 | 21.3 | 17.1 | 310 | 10 |
| 2010-01-10T11:32 | 1353 | 862 | 21.3 | 17.0 | 309 | 10 |
| 2010-01-10T11:32 | 1368 | 861 | 21.2 | 16.7 | 309 | 10 |
| 2010-01-10T11:32 | 1382 | 860 | 21.2 | 16.3 | 308 | 10 |
| 2010-01-10T11:32 | 1395 | 858 | 21.1 | 15.9 | 307 | 10 |
| 2010-01-10T11:32 | 1408 | 857 | 21.1 | 15.4 | 307 | 10 |
| 2010-01-10T11:32 | 1423 | 856 | 21.1 | 14.8 | 306 | 11 |
| 2010-01-10T11:32 | 1437 | 854 | 21.2 | 14.2 | 305 | 11 |
| 2010-01-10T11:32 | 1446 | 853 | 21.2 | 14.0 | 304 | 11 |
| 2010-01-10T11:32 | 1454 | 852 | 21.2 | 14.0 | 304 | 11 |
| 2010-01-10T11:32 | 1464 | 852 | 21.3 | 14.1 | 303 | 11 |
| 2010-01-10T11:32 | 1474 | 851 | 21.2 | 14.2 | 302 | 11 |
| 2010-01-10T11:32 | 1483 | 850 | 21.2 | 14.2 | 302 | 11 |
| 2010-01-10T11:33 | 1493 | 849 | 21.1 | 14.1 | 302 | 11 |
| 2010-01-10T11:33 | 1505 | 848 | 21.0 | 14.0 | 301 | 11 |
| 2010-01-10T11:33 | 1516 | 846 | 20.9 | 14.0 | 301 | 11 |
| 2010-01-10T11:33 | 1527 | 845 | 20.8 | 14.0 | 301 | 11 |
| 2010-01-10T11:33 | 1538 | 844 | 20.7 | 14.0 | 301 | 11 |
| 2010-01-10T11:33 | 1551 | 843 | 20.6 | 13.9 | 301 | 11 |
| 2010-01-10T11:33 | 1564 | 842 | 20.5 | 13.9 | 301 | 12 |
| 2010-01-10T11:33 | 1578 | 840 | 20.4 | 13.8 | 301 | 12 |
| 2010-01-10T11:33 | 1591 | 839 | 20.3 | 13.8 | 301 | 12 |
| 2010-01-10T11:33 | 1602 | 838 | 20.2 | 13.7 | 301 | 12 |
| 2010-01-10T11:33 | 1609 | 837 | 20.1 | 13.7 | 301 | 12 |
| 2010-01-10T11:33 | 1618 | 837 | 20.0 | 13.7 | 301 | 12 |
| 2010-01-10T11:33 | 1628 | 836 | 20.0 | 13.7 | 301 | 12 |
| 2010-01-10T11:33 | 1639 | 835 | 19.9 | 13.6 | 300 | 12 |
| 2010-01-10T11:33 | 1650 | 833 | 19.8 | 13.6 | 300 | 12 |
| 2010-01-10T11:33 | 1661 | 832 | 19.7 | 13.5 | 300 | 12 |
| 2010-01-10T11:33 | 1672 | 831 | 19.6 | 13.4 | 300 | 12 |
| 2010-01-10T11:33 | 1685 | 830 | 19.5 | 13.4 | 300 | 12 |
| 2010-01-10T11:33 | 1697 | 829 | 19.4 | 13.3 | 300 | 12 |
| 2010-01-10T11:33 | 1707 | 828 | 19.4 | 13.2 | 300 | 12 |
| 2010-01-10T11:33 | 1717 | 827 | 19.3 | 13.1 | 300 | 12 |
| 2010-01-10T11:33 | 1727 | 826 | 19.2 | 13.1 | 300 | 12 |
| 2010-01-10T11:33 | 1739 | 825 | 19.2 | 13.0 | 301 | 12 |
| 2010-01-10T11:33 | 1750 | 824 | 19.2 | 12.8 | 301 | 12 |
| 2010-01-10T11:33 | 1763 | 823 | 19.1 | 12.5 | 302 | 11 |
| 2010-01-10T11:33 | 1777 | 821 | 19.1 | 12.4 | 302 | 11 |
| 2010-01-10T11:33 | 1788 | 820 | 19.0 | 12.4 | 303 | 11 |
| 2010-01-10T11:33 | 1800 | 819 | 19.0 | 12.3 | 303 | 11 |
| 2010-01-10T11:33 | 1811 | 818 | 18.9 | 12.2 | 303 | 11 |
| 2010-01-10T11:33 | 1821 | 817 | 18.8 | 12.2 | 303 | 11 |
| 2010-01-10T11:34 | 1830 | 816 | 18.7 | 12.2 | 303 | 11 |
| 2010-01-10T11:34 | 1840 | 815 | 18.6 | 12.2 | 302 | 11 |
| 2010-01-10T11:34 | 1852 | 814 | 18.6 | 12.1 | 302 | 11 |
| 2010-01-10T11:34 | 1867 | 813 | 18.5 | 11.9 | 301 | 11 |
| 2010-01-10T11:34 | 1881 | 811 | 18.4 | 11.8 | 300 | 11 |
| 2010-01-10T11:34 | 1895 | 810 | 18.4 | 11.8 | 299 | 11 |
| 2010-01-10T11:34 | 1908 | 809 | 18.3 | 11.7 | 298 | 11 |
| 2010-01-10T11:34 | 1921 | 808 | 18.2 | 11.8 | 297 | 11 |
| 2010-01-10T11:34 | 1933 | 806 | 18.1 | 11.9 | 296 | 11 |
| 2010-01-10T11:34 | 1945 | 805 | 18.0 | 12.0 | 295 | 12 |
| 2010-01-10T11:34 | 1956 | 804 | 17.9 | 12.0 | 294 | 12 |
| 2010-01-10T11:34 | 1967 | 803 | 17.8 | 11.9 | 294 | 12 |
| 2010-01-10T11:34 | 1980 | 802 | 17.8 | 11.8 | 293 | 12 |
| 2010-01-10T11:34 | 1995 | 801 | 17.7 | 11.7 | 292 | 12 |
| 2010-01-10T11:34 | 2019 | 798 | 17.5 | 11.6 | 292 | 13 |
| 2010-01-10T11:34 | 2076 | 793 | 17.1 | 11.5 | 291 | 13 |
| 2010-01-10T11:34 | 2131 | 788 | 16.6 | 11.9 | 290 | 13 |
| 2010-01-10T11:35 | 2166 | 785 | 16.4 | 11.3 | 289 | 13 |
| 2010-01-10T11:35 | 2206 | 781 | 16.3 | 10.9 | 289 | 12 |
| 2010-01-10T11:35 | 2243 | 778 | 16.1 | 10.2 | 289 | 12 |
| 2010-01-10T11:35 | 2282 | 774 | 15.9 | 10.2 | 290 | 12 |
| 2010-01-10T11:35 | 2321 | 771 | 15.8 | 10.1 | 291 | 13 |
| 2010-01-10T11:35 | 2363 | 767 | 15.5 | 9.8 | 291 | 13 |
| 2010-01-10T11:36 | 2422 | 762 | 15.2 | 9.6 | 290 | 14 |
| 2010-01-10T11:36 | 2483 | 756 | 14.8 | 9.6 | 290 | 15 |
| 2010-01-10T11:36 | 2541 | 751 | 14.5 | 9.1 | 291 | 15 |
| 2010-01-10T11:36 | 2597 | 746 | 14.1 | 8.4 | 292 | 14 |
| 2010-01-10T11:36 | 2666 | 740 | 13.6 | 8.4 | 290 | 14 |
| 2010-01-10T11:36 | 2716 | 736 | 13.2 | 8.4 | 287 | 14 |
| 2010-01-10T11:37 | 2772 | 731 | 12.9 | 8.3 | 286 | 14 |
| 2010-01-10T11:37 | 2822 | 726 | 12.7 | 8.1 | 289 | 14 |
| 2010-01-10T11:37 | 2876 | 722 | 12.3 | 8.0 | 293 | 14 |
| 2010-01-10T11:37 | 2937 | 716 | 11.9 | 8.0 | 294 | 15 |
| 2010-01-10T11:37 | 2999 | 711 | 11.3 | 8.1 | 292 | 15 |
| 2010-01-10T11:37 | 3057 | 706 | 10.8 | 7.8 | 291 | 15 |
| 2010-01-10T11:38 | 3112 | 702 | 10.6 | 7.6 | 290 | 15 |
| 2010-01-10T11:38 | 3171 | 697 | 10.3 | 7.6 | 290 | 15 |
| 2010-01-10T11:38 | 3228 | 692 | 9.9 | 7.2 | 291 | 16 |
| 2010-01-10T11:38 | 3283 | 687 | 9.5 | 6.8 | 292 | 16 |
| 2010-01-10T11:38 | 3342 | 683 | 9.1 | 6.8 | 292 | 15 |
| 2010-01-10T11:38 | 3403 | 678 | 8.6 | 6.2 | 291 | 15 |
| 2010-01-10T11:39 | 3463 | 673 | 8.3 | 6.0 | 291 | 14 |
| 2010-01-10T11:39 | 3505 | 669 | 8.0 | 5.8 | 290 | 14 |
| 2010-01-10T11:39 | 3550 | 666 | 7.7 | 5.8 | 289 | 14 |
| 2010-01-10T11:39 | 3594 | 662 | 7.4 | 6.1 | 288 | 14 |
| 2010-01-10T11:39 | 3638 | 659 | 7.1 | 5.7 | 289 | 14 |
| 2010-01-10T11:39 | 3680 | 655 | 6.7 | 5.5 | 290 | 14 |
| 2010-01-10T11:40 | 3721 | 652 | 6.5 | 5.5 | 291 | 13 |
| 2010-01-10T11:40 | 3768 | 648 | 6.1 | 5.2 | 293 | 12 |
| 2010-01-10T11:40 | 3828 | 644 | 5.9 | 5.3 | 296 | 12 |
| 2010-01-10T11:40 | 3879 | 640 | 5.6 | 5.4 | 298 | 11 |
| 2010-01-10T11:40 | 3924 | 636 | 5.4 | 5.2 | 297 | 11 |
| 2010-01-10T11:40 | 3982 | 632 | 5.2 | 5.1 | 294 | 11 |
| 2010-01-10T11:41 | 4024 | 628 | 5.3 | 4.4 | 292 | 10 |
| 2010-01-10T11:41 | 4068 | 625 | 5.1 | 4.1 | 290 | 10 |
| 2010-01-10T11:41 | 4116 | 621 | 4.9 | 4.0 | 287 | 10 |
| 2010-01-10T11:41 | 4182 | 616 | 4.6 | 3.5 | 282 | 10 |
| 2010-01-10T11:41 | 4237 | 612 | 4.5 | 2.7 | 278 | 9 |
| 2010-01-10T11:41 | 4277 | 609 | 4.2 | 2.6 | 275 | 8 |
| 2010-01-10T11:42 | 4331 | 605 | 3.8 | 2.5 | 275 | 8 |
| 2010-01-10T11:42 | 4393 | 601 | 3.4 | 2.4 | 274 | 7 |
| 2010-01-10T11:42 | 4455 | 596 | 2.8 | 2.2 | 271 | 6 |
| 2010-01-10T11:42 | 4511 | 592 | 2.3 | 2.1 | 264 | 5 |
| 2010-01-10T11:42 | 4564 | 588 | 2.2 | 1.7 | 254 | 4 |
| 2010-01-10T11:42 | 4619 | 584 | 1.8 | 1.4 | 250 | 4 |
| 2010-01-10T11:43 | 4680 | 580 | 1.3 | 1.3 | 250 | 3 |
| 2010-01-10T11:43 | 4733 | 576 | 1.0 | 0.6 | 253 | 3 |
| 2010-01-10T11:43 | 4797 | 571 | 0.7 | 0.4 | 262 | 3 |
| 2010-01-10T11:43 | 4861 | 567 | 0.2 | -0.1 | 276 | 3 |
| 2010-01-10T11:43 | 4926 | 562 | 0.3 | 0.3 | 286 | 3 |
| 2010-01-10T11:43 | 4985 | 558 | 0.1 | 0.1 | 291 | 4 |
| 2010-01-10T11:44 | 5050 | 554 | -0.4 | -0.4 | 291 | 3 |
| 2010-01-10T11:44 | 5106 | 550 | -0.9 | -1.1 | 286 | 3 |
| 2010-01-10T11:44 | 5163 | 546 | -1.0 | -2.0 | 276 | 3 |
| 2010-01-10T11:44 | 5214 | 542 | -1.2 | -2.4 | 268 | 3 |
| 2010-01-10T11:44 | 5266 | 539 | -1.5 | -3.0 | 267 | 3 |
| 2010-01-10T11:44 | 5318 | 535 | -2.0 | -3.2 | 273 | 2 |
| 2010-01-10T11:45 | 5381 | 531 | -2.6 | -3.3 | 268 | 1 |
| 2010-01-10T11:45 | 5448 | 527 | -2.9 | -3.6 | 248 | 1 |
| 2010-01-10T11:45 | 5502 | 523 | -3.4 | -4.0 | 234 | 1 |
| 2010-01-10T11:45 | 5554 | 520 | -3.7 | -4.3 | 0 | 0 |
| 2010-01-10T11:45 | 5615 | 516 | -3.9 | -4.4 | 21 | 0 |
| 2010-01-10T11:45 | 5680 | 511 | -3.9 | -3.9 | 10 | 1 |
| 2010-01-10T11:46 | 5740 | 508 | -3.8 | -3.8 | 351 | 1 |
| 2010-01-10T11:46 | 5791 | 504 | -4.1 | -4.2 | 329 | 2 |
| 2010-01-10T11:46 | 5845 | 501 | -4.4 | -4.4 | 319 | 3 |
| 2010-01-10T11:46 | 5896 | 498 | -4.6 | -4.7 | 322 | 4 |
| 2010-01-10T11:46 | 5938 | 495 | -4.8 | -4.8 | 331 | 4 |
| 2010-01-10T11:46 | 6002 | 491 | -4.9 | -5.4 | 337 | 4 |
| 2010-01-10T11:47 | 6052 | 488 | -5.3 | -5.8 | 339 | 4 |
| 2010-01-10T11:47 | 6121 | 484 | -5.8 | -6.0 | 342 | 3 |
| 2010-01-10T11:47 | 6184 | 480 | -6.1 | -6.1 | 346 | 4 |
| 2010-01-10T11:47 | 6240 | 476 | -6.3 | -6.3 | 346 | 5 |
| 2010-01-10T11:47 | 6303 | 473 | -6.5 | -6.5 | 344 | 6 |
| 2010-01-10T11:47 | 6350 | 470 | -6.7 | -6.8 | 343 | 6 |
| 2010-01-10T11:48 | 6391 | 467 | -6.8 | -7.1 | 342 | 5 |
| 2010-01-10T11:48 | 6453 | 464 | -7.1 | -7.5 | 341 | 5 |
| 2010-01-10T11:48 | 6509 | 460 | -7.6 | -7.9 | 340 | 5 |
| 2010-01-10T11:48 | 6557 | 457 | -7.8 | -7.9 | 339 | 6 |
| 2010-01-10T11:48 | 6601 | 455 | -8.1 | -8.2 | 340 | 6 |
| 2010-01-10T11:48 | 6646 | 452 | -8.3 | -8.4 | 343 | 6 |
| 2010-01-10T11:49 | 6689 | 450 | -8.6 | -8.6 | 346 | 6 |
| 2010-01-10T11:49 | 6752 | 446 | -9.0 | -9.1 | 346 | 6 |
| 2010-01-10T11:49 | 6801 | 443 | -9.3 | -9.3 | 347 | 6 |
| 2010-01-10T11:49 | 6871 | 439 | -9.7 | -9.9 | 352 | 6 |
| 2010-01-10T11:49 | 6911 | 437 | -9.8 | -10.0 | 0 | 6 |
| 2010-01-10T11:49 | 6971 | 434 | -10.4 | -11.8 | 7 | 6 |
| 2010-01-10T11:50 | 7035 | 430 | -10.9 | -12.3 | 11 | 5 |
| 2010-01-10T11:50 | 7094 | 427 | -11.4 | -12.7 | 14 | 5 |
| 2010-01-10T11:50 | 7148 | 424 | -11.9 | -13.4 | 21 | 5 |
| 2010-01-10T11:50 | 7209 | 420 | -12.6 | -13.8 | 38 | 5 |
| 2010-01-10T11:50 | 7268 | 417 | -13.4 | -14.7 | 56 | 5 |
| 2010-01-10T11:50 | 7320 | 414 | -14.0 | -20.2 | 59 | 6 |
| 2010-01-10T11:51 | 7360 | 412 | -14.4 | -19.6 | 55 | 6 |
| 2010-01-10T11:51 | 7402 | 410 | -14.4 | -19.0 | 54 | 6 |
| 2010-01-10T11:51 | 7446 | 407 | -14.1 | -17.6 | 55 | 6 |
| 2010-01-10T11:51 | 7486 | 405 | -14.6 | -18.9 | 58 | 7 |
| 2010-01-10T11:51 | 7525 | 403 | -14.9 | -20.1 | 60 | 7 |
| 2010-01-10T11:51 | 7564 | 401 | -15.5 | -25.1 | 60 | 7 |
| 2010-01-10T11:52 | 7604 | 399 | -15.6 | -24.8 | 58 | 6 |
| 2010-01-10T11:52 | 7645 | 397 | -15.6 | -25.2 | 58 | 6 |
| 2010-01-10T11:52 | 7686 | 395 | -15.6 | -25.9 | 59 | 5 |
| 2010-01-10T11:52 | 7726 | 393 | -16.0 | -30.6 | 58 | 5 |
| 2010-01-10T11:52 | 7766 | 391 | -15.3 | -22.1 | 56 | 4 |
| 2010-01-10T11:52 | 7806 | 388 | -15.6 | -22.8 | 55 | 4 |
| 2010-01-10T11:53 | 7848 | 386 | -15.9 | -26.5 | 54 | 4 |
| 2010-01-10T11:53 | 7888 | 384 | -16.0 | -27.4 | 49 | 4 |
| 2010-01-10T11:53 | 7933 | 382 | -16.0 | -23.2 | 42 | 4 |
| 2010-01-10T11:53 | 7977 | 380 | -16.2 | -24.1 | 39 | 4 |
| 2010-01-10T11:53 | 8025 | 377 | -16.5 | -26.9 | 42 | 4 |
| 2010-01-10T11:53 | 8073 | 375 | -16.9 | -26.7 | 45 | 5 |
| 2010-01-10T11:54 | 8114 | 373 | -17.2 | -32.4 | 48 | 5 |
| 2010-01-10T11:54 | 8156 | 371 | -17.3 | -37.0 | 50 | 6 |
| 2010-01-10T11:54 | 8199 | 369 | -17.5 | -38.5 | 51 | 6 |
| 2010-01-10T11:54 | 8241 | 367 | -17.9 | -38.7 | 54 | 6 |
| 2010-01-10T11:54 | 8287 | 364 | -18.2 | -38.9 | 57 | 6 |
| 2010-01-10T11:54 | 8332 | 362 | -18.6 | -39.0 | 60 | 7 |
| 2010-01-10T11:55 | 8377 | 360 | -18.9 | -40.4 | 62 | 7 |
| 2010-01-10T11:55 | 8421 | 358 | -19.1 | -42.8 | 62 | 7 |
| 2010-01-10T11:55 | 8466 | 356 | -19.5 | -43.5 | 62 | 7 |
| 2010-01-10T11:55 | 8512 | 354 | -19.8 | -44.7 | 59 | 7 |
| 2010-01-10T11:55 | 8560 | 351 | -20.1 | -42.8 | 56 | 7 |
| 2010-01-10T11:55 | 8605 | 349 | -20.5 | -42.7 | 52 | 7 |
| 2010-01-10T11:56 | 8650 | 347 | -20.8 | -41.5 | 48 | 7 |
| 2010-01-10T11:56 | 8695 | 345 | -21.1 | -37.7 | 46 | 7 |
| 2010-01-10T11:56 | 8741 | 343 | -21.5 | -36.8 | 47 | 7 |
| 2010-01-10T11:56 | 8785 | 341 | -21.9 | -37.5 | 49 | 7 |
| 2010-01-10T11:56 | 8830 | 339 | -22.3 | -37.9 | 51 | 8 |
| 2010-01-10T11:56 | 8880 | 336 | -22.8 | -37.1 | 52 | 8 |
| 2010-01-10T11:57 | 8925 | 334 | -23.2 | -36.3 | 53 | 8 |
| 2010-01-10T11:57 | 8968 | 332 | -23.6 | -36.0 | 55 | 8 |
| 2010-01-10T11:57 | 9013 | 330 | -24.1 | -33.8 | 56 | 7 |
| 2010-01-10T11:57 | 9059 | 328 | -24.5 | -31.4 | 58 | 7 |
| 2010-01-10T11:57 | 9107 | 326 | -24.9 | -28.7 | 63 | 7 |
| 2010-01-10T11:57 | 9156 | 324 | -25.3 | -27.5 | 72 | 7 |
| 2010-01-10T11:58 | 9203 | 322 | -25.7 | -27.6 | 79 | 7 |
| 2010-01-10T11:58 | 9250 | 320 | -26.1 | -27.3 | 84 | 8 |
| 2010-01-10T11:58 | 9320 | 317 | -26.4 | -26.9 | 90 | 8 |
| 2010-01-10T11:58 | 9383 | 314 | -26.7 | -27.8 | 95 | 8 |
| 2010-01-10T11:58 | 9444 | 311 | -27.3 | -28.1 | 96 | 9 |
| 2010-01-10T11:58 | 9502 | 309 | -27.8 | -28.2 | 94 | 9 |
| 2010-01-10T11:59 | 9575 | 306 | -28.4 | -28.8 | 89 | 9 |
| 2010-01-10T11:59 | 9624 | 303 | -28.9 | -29.3 | 85 | 9 |
| 2010-01-10T11:59 | 9678 | 301 | -29.4 | -29.6 | 87 | 9 |
| 2010-01-10T11:59 | 9720 | 299 | -29.7 | -30.0 | 92 | 8 |
| 2010-01-10T11:59 | 9772 | 297 | -30.2 | -30.4 | 94 | 8 |
| 2010-01-10T11:59 | 9839 | 294 | -30.7 | -30.9 | 93 | 8 |
| 2010-01-10T12:00 | 9903 | 292 | -31.2 | -32.1 | 91 | 9 |
| 2010-01-10T12:00 | 9958 | 290 | -31.5 | -32.9 | 90 | 11 |
| 2010-01-10T12:00 | 10020 | 287 | -31.6 | -34.7 | 91 | 11 |
| 2010-01-10T12:00 | 10059 | 286 | -31.7 | -35.2 | 93 | 11 |
| 2010-01-10T12:00 | 10097 | 284 | -32.0 | -35.3 | 94 | 11 |
| 2010-01-10T12:00 | 10136 | 282 | -32.3 | -36.3 | 94 | 11 |
| 2010-01-10T12:01 | 10173 | 281 | -32.4 | -38.2 | 94 | 11 |
| 2010-01-10T12:01 | 10210 | 279 | -32.7 | -41.4 | 94 | 11 |
| 2010-01-10T12:01 | 10243 | 278 | -32.9 | -41.2 | 93 | 11 |
| 2010-01-10T12:01 | 10276 | 277 | -33.0 | -41.3 | 92 | 11 |
| 2010-01-10T12:01 | 10307 | 276 | -33.3 | -43.1 | 93 | 11 |
| 2010-01-10T12:01 | 10339 | 274 | -33.3 | -44.6 | 94 | 12 |
| 2010-01-10T12:02 | 10365 | 273 | -33.4 | -45.5 | 95 | 12 |
| 2010-01-10T12:02 | 10393 | 272 | -33.5 | -47.2 | 95 | 12 |
| 2010-01-10T12:02 | 10421 | 271 | -33.7 | -48.2 | 95 | 12 |
| 2010-01-10T12:02 | 10450 | 270 | -34.0 | -47.7 | 95 | 12 |
| 2010-01-10T12:02 | 10480 | 269 | -34.2 | -47.7 | 95 | 12 |
| 2010-01-10T12:02 | 10510 | 268 | -34.5 | -45.6 | 95 | 12 |
| 2010-01-10T12:03 | 10542 | 267 | -34.7 | -45.2 | 95 | 13 |
| 2010-01-10T12:03 | 10573 | 265 | -35.0 | -45.4 | 94 | 13 |
| 2010-01-10T12:03 | 10605 | 264 | -35.2 | -44.8 | 94 | 14 |
| 2010-01-10T12:03 | 10636 | 263 | -35.1 | -42.0 | 94 | 14 |
| 2010-01-10T12:03 | 10667 | 262 | -35.3 | -42.2 | 93 | 14 |
| 2010-01-10T12:03 | 10700 | 261 | -35.5 | -42.8 | 93 | 13 |
| 2010-01-10T12:04 | 10734 | 259 | -35.8 | -43.1 | 92 | 13 |
| 2010-01-10T12:04 | 10767 | 258 | -36.0 | -43.3 | 92 | 13 |
| 2010-01-10T12:04 | 10802 | 257 | -36.3 | -44.3 | 91 | 13 |
| 2010-01-10T12:04 | 10836 | 256 | -36.6 | -44.5 | 91 | 13 |
| 2010-01-10T12:04 | 10874 | 254 | -36.8 | -46.0 | 91 | 13 |
| 2010-01-10T12:04 | 10913 | 253 | -37.1 | -47.1 | 91 | 12 |
| 2010-01-10T12:05 | 10950 | 251 | -37.5 | -46.9 | 92 | 12 |
| 2010-01-10T12:05 | 10989 | 250 | -37.8 | -47.3 | 91 | 12 |
| 2010-01-10T12:05 | 11030 | 248 | -38.2 | -47.7 | 91 | 13 |
| 2010-01-10T12:05 | 11069 | 247 | -38.5 | -47.8 | 91 | 13 |
| 2010-01-10T12:05 | 11108 | 246 | -38.8 | -48.4 | 90 | 13 |
| 2010-01-10T12:05 | 11148 | 244 | -39.2 | -49.2 | 90 | 13 |
| 2010-01-10T12:06 | 11189 | 243 | -39.6 | -49.1 | 90 | 13 |
| 2010-01-10T12:06 | 11232 | 241 | -40.0 | -48.4 | 89 | 13 |
| 2010-01-10T12:06 | 11279 | 240 | -40.5 | -48.5 | 89 | 13 |
| 2010-01-10T12:06 | 11326 | 238 | -40.9 | -48.2 | 88 | 12 |
| 2010-01-10T12:06 | 11375 | 236 | -41.4 | -47.9 | 87 | 13 |
| 2010-01-10T12:06 | 11424 | 234 | -41.8 | -47.2 | 85 | 13 |
| 2010-01-10T12:07 | 11466 | 233 | -42.2 | -46.8 | 85 | 13 |
| 2010-01-10T12:07 | 11509 | 232 | -42.4 | -46.8 | 84 | 12 |
| 2010-01-10T12:07 | 11554 | 230 | -42.8 | -47.6 | 84 | 12 |
| 2010-01-10T12:07 | 11603 | 228 | -43.2 | -48.1 | 85 | 12 |
| 2010-01-10T12:07 | 11649 | 227 | -43.7 | -48.4 | 86 | 12 |
| 2010-01-10T12:07 | 11701 | 225 | -44.1 | -48.7 | 87 | 11 |
| 2010-01-10T12:08 | 11752 | 223 | -44.5 | -49.2 | 88 | 11 |
| 2010-01-10T12:08 | 11794 | 222 | -44.8 | -49.6 | 88 | 11 |
| 2010-01-10T12:08 | 11837 | 221 | -45.2 | -50.1 | 87 | 11 |
| 2010-01-10T12:08 | 11882 | 219 | -45.6 | -50.5 | 86 | 11 |
| 2010-01-10T12:08 | 11926 | 218 | -46.0 | -50.8 | 87 | 11 |
| 2010-01-10T12:08 | 11972 | 216 | -46.5 | -51.2 | 87 | 11 |
| 2010-01-10T12:09 | 12018 | 215 | -46.9 | -51.5 | 88 | 10 |
| 2010-01-10T12:09 | 12062 | 213 | -47.3 | -51.8 | 90 | 10 |
| 2010-01-10T12:09 | 12107 | 212 | -47.8 | -52.3 | 92 | 10 |
| 2010-01-10T12:09 | 12154 | 210 | -48.2 | -52.9 | 93 | 11 |
| 2010-01-10T12:09 | 12199 | 209 | -48.5 | -54.0 | 94 | 11 |
| 2010-01-10T12:09 | 12242 | 207 | -48.9 | -54.7 | 94 | 11 |
| 2010-01-10T12:10 | 12285 | 206 | -49.3 | -55.3 | 94 | 12 |
| 2010-01-10T12:10 | 12327 | 205 | -49.7 | -55.8 | 95 | 12 |
| 2010-01-10T12:10 | 12371 | 203 | -50.1 | -56.3 | 96 | 11 |
| 2010-01-10T12:10 | 12412 | 202 | -50.5 | -56.7 | 97 | 11 |
| 2010-01-10T12:10 | 12455 | 201 | -50.9 | -57.0 | 97 | 11 |
| 2010-01-10T12:10 | 12497 | 199 | -51.2 | -57.3 | 98 | 11 |
| 2010-01-10T12:11 | 12540 | 198 | -51.7 | -57.6 | 99 | 12 |
| 2010-01-10T12:11 | 12582 | 197 | -52.0 | -57.8 | 100 | 12 |
| 2010-01-10T12:11 | 12623 | 196 | -52.4 | -57.7 | 102 | 12 |
| 2010-01-10T12:11 | 12666 | 194 | -52.8 | -57.6 | 103 | 12 |
| 2010-01-10T12:11 | 12708 | 193 | -53.1 | -57.6 | 102 | 12 |
| 2010-01-10T12:11 | 12751 | 192 | -53.5 | -57.8 | 102 | 13 |
| 2010-01-10T12:12 | 12792 | 191 | -53.8 | -58.3 | 102 | 13 |
| 2010-01-10T12:12 | 12833 | 189 | -54.2 | -58.8 | 103 | 13 |
| 2010-01-10T12:12 | 12875 | 188 | -54.6 | -59.1 | 102 | 13 |
| 2010-01-10T12:12 | 12920 | 187 | -55.0 | -59.5 | 101 | 13 |
| 2010-01-10T12:12 | 12963 | 186 | -55.5 | -59.8 | 99 | 13 |
| 2010-01-10T12:12 | 13010 | 184 | -55.8 | -60.1 | 98 | 12 |
| 2010-01-10T12:13 | 13059 | 183 | -56.3 | -60.6 | 97 | 12 |
| 2010-01-10T12:13 | 13105 | 181 | -56.7 | -60.9 | 96 | 12 |
| 2010-01-10T12:13 | 13150 | 180 | -57.2 | -61.2 | 96 | 12 |
| 2010-01-10T12:13 | 13196 | 179 | -57.6 | -61.5 | 95 | 12 |
| 2010-01-10T12:13 | 13243 | 178 | -58.0 | -61.8 | 93 | 12 |
| 2010-01-10T12:13 | 13290 | 176 | -58.5 | -62.3 | 92 | 12 |
| 2010-01-10T12:14 | 13335 | 175 | -58.9 | -62.7 | 92 | 12 |
| 2010-01-10T12:14 | 13380 | 174 | -59.3 | -63.1 | 92 | 12 |
| 2010-01-10T12:14 | 13425 | 172 | -59.7 | -63.4 | 92 | 12 |
| 2010-01-10T12:14 | 13468 | 171 | -60.1 | -63.8 | 92 | 12 |
| 2010-01-10T12:14 | 13512 | 170 | -60.5 | -64.1 | 92 | 12 |
| 2010-01-10T12:14 | 13556 | 169 | -60.9 | -64.4 | 93 | 13 |
| 2010-01-10T12:15 | 13601 | 168 | -61.3 | -64.8 | 95 | 13 |
| 2010-01-10T12:15 | 13644 | 166 | -61.7 | -65.0 | 97 | 13 |
| 2010-01-10T12:15 | 13684 | 165 | -62.0 | -65.1 | 98 | 13 |
| 2010-01-10T12:15 | 13726 | 164 | -62.4 | -65.4 | 98 | 13 |
| 2010-01-10T12:15 | 13768 | 163 | -62.8 | -65.7 | 98 | 13 |
| 2010-01-10T12:15 | 13808 | 162 | -63.1 | -66.1 | 97 | 13 |
| 2010-01-10T12:16 | 13849 | 161 | -63.5 | -66.4 | 97 | 13 |
| 2010-01-10T12:16 | 13889 | 160 | -63.8 | -66.9 | 98 | 14 |
| 2010-01-10T12:16 | 13929 | 159 | -64.1 | -67.4 | 98 | 14 |
| 2010-01-10T12:16 | 13969 | 158 | -64.4 | -67.8 | 98 | 14 |
| 2010-01-10T12:16 | 14009 | 157 | -64.8 | -68.2 | 97 | 14 |
| 2010-01-10T12:16 | 14050 | 156 | -65.1 | -68.7 | 97 | 14 |
| 2010-01-10T12:17 | 14093 | 155 | -65.3 | -69.2 | 99 | 14 |
| 2010-01-10T12:17 | 14134 | 154 | -65.4 | -69.8 | 101 | 14 |
| 2010-01-10T12:17 | 14176 | 153 | -65.7 | -70.6 | 103 | 15 |
| 2010-01-10T12:17 | 14216 | 152 | -66.1 | -71.3 | 105 | 15 |
| 2010-01-10T12:17 | 14260 | 151 | -66.4 | -72.0 | 109 | 15 |
| 2010-01-10T12:17 | 14304 | 149 | -66.4 | -72.4 | 112 | 16 |
| 2010-01-10T12:18 | 14348 | 148 | -66.9 | -73.1 | 115 | 16 |
| 2010-01-10T12:18 | 14389 | 147 | -67.1 | -73.5 | 119 | 16 |
| 2010-01-10T12:18 | 14442 | 146 | -67.5 | -74.1 | 122 | 16 |
| 2010-01-10T12:18 | 14489 | 145 | -68.0 | -74.6 | 124 | 15 |
| 2010-01-10T12:18 | 14540 | 144 | -68.5 | -75.2 | 124 | 15 |
| 2010-01-10T12:18 | 14586 | 143 | -68.9 | -75.6 | 125 | 16 |
| 2010-01-10T12:19 | 14637 | 141 | -69.4 | -76.1 | 126 | 16 |
| 2010-01-10T12:19 | 14684 | 140 | -69.9 | -76.5 | 127 | 16 |
| 2010-01-10T12:19 | 14735 | 139 | -70.4 | -76.9 | 128 | 17 |
| 2010-01-10T12:19 | 14782 | 138 | -70.8 | -77.3 | 129 | 16 |
| 2010-01-10T12:19 | 14827 | 137 | -71.2 | -77.6 | 131 | 16 |
| 2010-01-10T12:19 | 14871 | 136 | -71.7 | -78.0 | 132 | 16 |
| 2010-01-10T12:20 | 14916 | 135 | -72.1 | -78.3 | 132 | 16 |
| 2010-01-10T12:20 | 14960 | 134 | -72.5 | -78.7 | 133 | 16 |
| 2010-01-10T12:20 | 15006 | 133 | -72.9 | -79.0 | 133 | 16 |
| 2010-01-10T12:20 | 15052 | 132 | -73.4 | -79.4 | 134 | 17 |
| 2010-01-10T12:20 | 15097 | 131 | -73.8 | -79.8 | 136 | 17 |
| 2010-01-10T12:20 | 15142 | 130 | -74.2 | -80.1 | 137 | 17 |
| 2010-01-10T12:21 | 15188 | 129 | -74.6 | -80.5 | 138 | 18 |
| 2010-01-10T12:21 | 15232 | 128 | -74.9 | -80.8 | 138 | 18 |
| 2010-01-10T12:21 | 15276 | 127 | -75.3 | -81.2 | 138 | 18 |
| 2010-01-10T12:21 | 15321 | 126 | -75.6 | -81.5 | 139 | 18 |
| 2010-01-10T12:21 | 15368 | 125 | -76.0 | -81.9 | 140 | 18 |
| 2010-01-10T12:21 | 15412 | 124 | -76.4 | -82.3 | 140 | 19 |
| 2010-01-10T12:22 | 15456 | 123 | -76.8 | -82.7 | 140 | 18 |
| 2010-01-10T12:22 | 15501 | 122 | -77.3 | -83.2 | 140 | 18 |
| 2010-01-10T12:22 | 15545 | 121 | -77.7 | -83.6 | 138 | 18 |
| 2010-01-10T12:22 | 15591 | 120 | -78.0 | -83.8 | 137 | 19 |
| 2010-01-10T12:22 | 15635 | 119 | -78.4 | -84.2 | 137 | 19 |
| 2010-01-10T12:22 | 15682 | 118 | -78.7 | -84.5 | 137 | 20 |
| 2010-01-10T12:23 | 15729 | 117 | -79.1 | -84.9 | 137 | 21 |
| 2010-01-10T12:23 | 15776 | 116 | -79.5 | -85.3 | 137 | 21 |
| 2010-01-10T12:23 | 15823 | 115 | -79.8 | -85.6 | 137 | 22 |
| 2010-01-10T12:23 | 15871 | 114 | -80.3 | -86.0 | 136 | 22 |
| 2010-01-10T12:23 | 15919 | 113 | -80.8 | -86.5 | 136 | 22 |
| 2010-01-10T12:23 | 15966 | 112 | -81.2 | -86.9 | 135 | 22 |
| 2010-01-10T12:24 | 16012 | 111 | -81.7 | -87.4 | 134 | 21 |
| 2010-01-10T12:24 | 16057 | 111 | -82.0 | -87.7 | 133 | 21 |
| 2010-01-10T12:24 | 16102 | 110 | -82.2 | -87.9 | 132 | 21 |
| 2010-01-10T12:24 | 16147 | 109 | -82.6 | -88.3 | 130 | 21 |
| 2010-01-10T12:24 | 16193 | 108 | -82.9 | -88.6 | 129 | 22 |
| 2010-01-10T12:24 | 16237 | 107 | -83.0 | -88.7 | 128 | 22 |
| 2010-01-10T12:25 | 16282 | 106 | -83.2 | -88.8 | 127 | 22 |
| 2010-01-10T12:25 | 16326 | 105 | -83.4 | -89.0 | 126 | 22 |
| 2010-01-10T12:25 | 16369 | 105 | -83.8 | -89.3 | 124 | 22 |
| 2010-01-10T12:25 | 16411 | 104 | -83.9 | -89.4 | 123 | 22 |
| 2010-01-10T12:25 | 16455 | 103 | -84.1 | -89.6 | 122 | 21 |
| 2010-01-10T12:25 | 16497 | 102 | -84.4 | -89.9 | 122 | 21 |
| 2010-01-10T12:26 | 16539 | 101 | -84.6 | -90.0 | 122 | 21 |
| 2010-01-10T12:26 | 16581 | 101 | -84.7 | -90.2 | 123 | 21 |
| 2010-01-10T12:26 | 16623 | 100 | -85.0 | -90.4 | 123 | 21 |
| 2010-01-10T12:26 | 16665 | 99 | -85.2 | -90.6 | 122 | 22 |
| 2010-01-10T12:26 | 16706 | 98 | -85.3 | -90.7 | 122 | 22 |
| 2010-01-10T12:26 | 16747 | 98 | -85.6 | -90.9 | 122 | 22 |
| 2010-01-10T12:27 | 16788 | 97 | -85.9 | -91.3 | 123 | 22 |
| 2010-01-10T12:27 | 16829 | 96 | -86.3 | -91.6 | 124 | 22 |
| 2010-01-10T12:27 | 16870 | 95 | -86.7 | -91.9 | 124 | 21 |
| 2010-01-10T12:27 | 16910 | 95 | -87.0 | -92.3 | 126 | 21 |
| 2010-01-10T12:27 | 16949 | 94 | -87.3 | -92.6 | 128 | 21 |
| 2010-01-10T12:27 | 16987 | 93 | -87.6 | -92.8 | 129 | 21 |
| 2010-01-10T12:28 | 17024 | 93 | -87.8 | -93.1 | 130 | 21 |
| 2010-01-10T12:28 | 17063 | 92 | -87.9 | -93.2 | 128 | 19 |
| 2010-01-10T12:28 | 17105 | 91 | -87.5 | -92.8 | 124 | 16 |
| 2010-01-10T12:28 | 17154 | 91 | -84.1 | -89.7 | 119 | 11 |
| 2010-01-10T12:28 | 17206 | 90 | -81.2 | -86.9 | 118 | 6 |
| 2010-01-10T12:28 | 17261 | 89 | -80.0 | -85.8 | 140 | 1 |
| 2010-01-10T12:29 | 17332 | 88 | -78.9 | -84.7 | 264 | 2 |
| 2010-01-10T12:29 | 17377 | 87 | -78.3 | -84.2 | 276 | 5 |
| 2010-01-10T12:29 | 17414 | 87 | -77.9 | -84.0 | 279 | 7 |
| 2010-01-10T12:29 | 17453 | 86 | -77.8 | -83.9 | 280 | 9 |
| 2010-01-10T12:29 | 17492 | 85 | -77.6 | -83.9 | 280 | 11 |
| 2010-01-10T12:29 | 17532 | 85 | -77.4 | -83.8 | 280 | 12 |
| 2010-01-10T12:30 | 17574 | 84 | -77.2 | -83.8 | 280 | 14 |
| 2010-01-10T12:30 | 17613 | 84 | -77.3 | -83.9 | 281 | 15 |
| 2010-01-10T12:30 | 17654 | 83 | -77.3 | -84.1 | 281 | 16 |
| 2010-01-10T12:30 | 17696 | 82 | -77.5 | -84.4 | 281 | 17 |
| 2010-01-10T12:30 | 17738 | 82 | -77.7 | -84.8 | 282 | 17 |
| 2010-01-10T12:30 | 17780 | 81 | -78.0 | -85.1 | 283 | 17 |
| 2010-01-10T12:31 | 17821 | 81 | -78.2 | -85.4 | 284 | 17 |
| 2010-01-10T12:31 | 17864 | 80 | -78.4 | -85.8 | 285 | 18 |
| 2010-01-10T12:31 | 17906 | 79 | -78.5 | -85.9 | 286 | 18 |
| 2010-01-10T12:31 | 17949 | 79 | -78.9 | -86.3 | 286 | 18 |
| 2010-01-10T12:31 | 17991 | 78 | -79.0 | -86.5 | 286 | 18 |
| 2010-01-10T12:31 | 18031 | 78 | -79.2 | -86.8 | 286 | 18 |
| 2010-01-10T12:32 | 18075 | 77 | -79.4 | -87.1 | 285 | 18 |
| 2010-01-10T12:32 | 18117 | 77 | -79.8 | -87.4 | 285 | 18 |
| 2010-01-10T12:32 | 18157 | 76 | -80.0 | -87.6 | 285 | 18 |
| 2010-01-10T12:32 | 18197 | 75 | -80.2 | -87.9 | 286 | 19 |
| 2010-01-10T12:32 | 18239 | 75 | -80.3 | -88.0 | 286 | 19 |
| 2010-01-10T12:32 | 18280 | 74 | -80.1 | -87.9 | 284 | 20 |
| 2010-01-10T12:33 | 18322 | 74 | -80.0 | -87.8 | 280 | 20 |
| 2010-01-10T12:33 | 18363 | 73 | -79.9 | -87.8 | 275 | 20 |
| 2010-01-10T12:33 | 18405 | 73 | -79.1 | -87.1 | 271 | 20 |
| 2010-01-10T12:33 | 18446 | 72 | -79.2 | -87.2 | 269 | 20 |
| 2010-01-10T12:33 | 18488 | 72 | -79.6 | -87.5 | 268 | 20 |
| 2010-01-10T12:33 | 18532 | 71 | -79.9 | -87.9 | 268 | 19 |
| 2010-01-10T12:34 | 18576 | 71 | -80.3 | -88.3 | 269 | 19 |
| 2010-01-10T12:34 | 18619 | 70 | -80.6 | -88.6 | 269 | 19 |
| 2010-01-10T12:34 | 18662 | 69 | -80.3 | -88.4 | 268 | 18 |
| 2010-01-10T12:34 | 18704 | 69 | -80.0 | -88.1 | 267 | 18 |
| 2010-01-10T12:34 | 18748 | 68 | -80.0 | -88.2 | 267 | 18 |
| 2010-01-10T12:34 | 18792 | 68 | -80.4 | -88.5 | 269 | 18 |
| 2010-01-10T12:35 | 18835 | 67 | -80.4 | -88.6 | 270 | 18 |
| 2010-01-10T12:35 | 18876 | 67 | -80.3 | -88.5 | 271 | 18 |
| 2010-01-10T12:35 | 18916 | 66 | -80.2 | -88.4 | 271 | 17 |
| 2010-01-10T12:35 | 18957 | 66 | -80.1 | -88.3 | 272 | 16 |
| 2010-01-10T12:35 | 19000 | 65 | -80.2 | -88.4 | 273 | 16 |
| 2010-01-10T12:35 | 19038 | 65 | -80.1 | -88.3 | 272 | 16 |
| 2010-01-10T12:36 | 19077 | 65 | -80.1 | -88.3 | 271 | 16 |
| 2010-01-10T12:36 | 19117 | 64 | -79.8 | -88.1 | 270 | 16 |
| 2010-01-10T12:36 | 19160 | 64 | -79.8 | -88.1 | 269 | 15 |
| 2010-01-10T12:36 | 19201 | 63 | -79.7 | -88.1 | 268 | 14 |
| 2010-01-10T12:36 | 19241 | 63 | -79.7 | -88.1 | 266 | 13 |
| 2010-01-10T12:36 | 19281 | 62 | -79.4 | -87.8 | 266 | 13 |
| 2010-01-10T12:37 | 19320 | 62 | -79.4 | -87.8 | 266 | 12 |
| 2010-01-10T12:37 | 19361 | 61 | -79.6 | -88.0 | 265 | 12 |
| 2010-01-10T12:37 | 19401 | 61 | -79.7 | -88.1 | 264 | 12 |
| 2010-01-10T12:37 | 19443 | 61 | -80.1 | -88.4 | 263 | 11 |
| 2010-01-10T12:37 | 19484 | 60 | -80.1 | -88.5 | 262 | 10 |
| 2010-01-10T12:37 | 19523 | 60 | -79.7 | -88.2 | 261 | 9 |
| 2010-01-10T12:38 | 19564 | 59 | -79.6 | -88.1 | 260 | 8 |
| 2010-01-10T12:38 | 19605 | 59 | -79.3 | -87.8 | 260 | 7 |
| 2010-01-10T12:38 | 19646 | 58 | -78.8 | -87.4 | 264 | 6 |
| 2010-01-10T12:38 | 19689 | 58 | -78.1 | -86.8 | 273 | 6 |
| 2010-01-10T12:38 | 19732 | 58 | -77.5 | -86.3 | 287 | 6 |
| 2010-01-10T12:38 | 19772 | 57 | -76.3 | -85.3 | 305 | 5 |
| 2010-01-10T12:39 | 19815 | 57 | -75.8 | -84.9 | 322 | 5 |
| 2010-01-10T12:39 | 19858 | 56 | -75.6 | -84.8 | 336 | 5 |
| 2010-01-10T12:39 | 19899 | 56 | -75.7 | -85.0 | 347 | 6 |
| 2010-01-10T12:39 | 19940 | 55 | -75.8 | -85.2 | 352 | 6 |
| 2010-01-10T12:39 | 19984 | 55 | -76.2 | -85.6 | 351 | 6 |
| 2010-01-10T12:39 | 20026 | 55 | -75.4 | -85.1 | 349 | 7 |
| 2010-01-10T12:40 | 20070 | 54 | -74.7 | -84.6 | 349 | 8 |
| 2010-01-10T12:40 | 20115 | 54 | -74.0 | -84.1 | 352 | 9 |
| 2010-01-10T12:40 | 20156 | 53 | -74.1 | -84.3 | 357 | 9 |
| 2010-01-10T12:40 | 20199 | 53 | -74.1 | -84.4 | 2 | 9 |
| 2010-01-10T12:40 | 20242 | 53 | -73.5 | -84.1 | 8 | 8 |
| 2010-01-10T12:40 | 20285 | 52 | -73.3 | -84.1 | 15 | 7 |
| 2010-01-10T12:41 | 20328 | 52 | -72.8 | -83.8 | 21 | 6 |
| 2010-01-10T12:41 | 20371 | 52 | -72.9 | -84.1 | 26 | 6 |
| 2010-01-10T12:41 | 20415 | 51 | -73.1 | -84.5 | 31 | 6 |
| 2010-01-10T12:41 | 20456 | 51 | -73.3 | -84.8 | 43 | 5 |
| 2010-01-10T12:41 | 20505 | 50 | -73.1 | -84.8 | 68 | 4 |
| 2010-01-10T12:41 | 20550 | 50 | -72.4 | -84.4 | 99 | 4 |
| 2010-01-10T12:42 | 20596 | 50 | -72.2 | -84.4 | 120 | 5 |
| 2010-01-10T12:42 | 20642 | 49 | -72.1 | -84.6 | 132 | 6 |
| 2010-01-10T12:42 | 20688 | 49 | -71.9 | -84.6 | 141 | 7 |
| 2010-01-10T12:42 | 20734 | 48 | -71.7 | -84.7 | 146 | 8 |
| 2010-01-10T12:42 | 20780 | 48 | -71.7 | -84.8 | 149 | 9 |
| 2010-01-10T12:42 | 20826 | 48 | -71.9 | -85.2 | 152 | 10 |
| 2010-01-10T12:43 | 20872 | 47 | -71.8 | -85.3 | 155 | 10 |
| 2010-01-10T12:43 | 20914 | 47 | -72.0 | -85.7 | 157 | 11 |
| 2010-01-10T12:43 | 20960 | 47 | -72.2 | -86.0 | 158 | 11 |
| 2010-01-10T12:43 | 21004 | 46 | -72.3 | -86.3 | 160 | 12 |
| 2010-01-10T12:43 | 21048 | 46 | -72.5 | -86.6 | 162 | 13 |
| 2010-01-10T12:43 | 21092 | 46 | -72.9 | -87.1 | 162 | 13 |
| 2010-01-10T12:44 | 21135 | 45 | -73.1 | -87.4 | 161 | 13 |
| 2010-01-10T12:44 | 21179 | 45 | -73.0 | -87.5 | 161 | 13 |
| 2010-01-10T12:44 | 21222 | 45 | -73.0 | -87.6 | 160 | 13 |
| 2010-01-10T12:44 | 21266 | 44 | -73.3 | -88.0 | 157 | 13 |
| 2010-01-10T12:44 | 21312 | 44 | -73.5 | -88.3 | 152 | 13 |
| 2010-01-10T12:44 | 21358 | 44 | -73.2 | -88.1 | 145 | 12 |
| 2010-01-10T12:45 | 21402 | 43 | -72.3 | -87.6 | 138 | 11 |
| 2010-01-10T12:45 | 21446 | 43 | -71.9 | -87.3 | 129 | 11 |
| 2010-01-10T12:45 | 21493 | 43 | -71.4 | -87.0 | 122 | 11 |
| 2010-01-10T12:45 | 21536 | 42 | -71.4 | -87.1 | 116 | 11 |
| 2010-01-10T12:45 | 21581 | 42 | -71.7 | -87.4 | 111 | 10 |
| 2010-01-10T12:45 | 21623 | 42 | -71.9 | -87.7 | 107 | 10 |
| 2010-01-10T12:46 | 21665 | 41 | -71.5 | -87.5 | 102 | 10 |
| 2010-01-10T12:46 | 21708 | 41 | -71.3 | -87.5 | 95 | 9 |
| 2010-01-10T12:46 | 21752 | 41 | -68.7 | -85.8 | 83 | 9 |
| 2010-01-10T12:46 | 21795 | 40 | -67.1 | -84.6 | 73 | 9 |
| 2010-01-10T12:46 | 21839 | 40 | -66.4 | -84.1 | 67 | 11 |
| 2010-01-11T11:28 | 4 | 1005 | 26.4 | 20.0 | 330 | 0 |
| 2010-01-11T11:28 | 11 | 1004 | 26.5 | 20.9 | 305 | 1 |
| 2010-01-11T11:28 | 20 | 1003 | 26.7 | 22.5 | 305 | 1 |
| 2010-01-11T11:28 | 29 | 1002 | 26.9 | 23.7 | 309 | 2 |
| 2010-01-11T11:28 | 39 | 1001 | 27.4 | 24.4 | 312 | 2 |
| 2010-01-11T11:28 | 49 | 1000 | 27.7 | 24.8 | 316 | 2 |
| 2010-01-11T11:28 | 55 | 999 | 27.8 | 24.9 | 320 | 2 |
| 2010-01-11T11:28 | 61 | 999 | 27.8 | 25.0 | 323 | 3 |
| 2010-01-11T11:28 | 70 | 998 | 27.8 | 25.0 | 327 | 3 |
| 2010-01-11T11:28 | 79 | 997 | 27.7 | 25.0 | 330 | 3 |
| 2010-01-11T11:28 | 87 | 996 | 27.7 | 25.0 | 333 | 4 |
| 2010-01-11T11:28 | 94 | 995 | 27.8 | 25.0 | 336 | 4 |
| 2010-01-11T11:28 | 102 | 994 | 27.8 | 25.0 | 338 | 4 |
| 2010-01-11T11:28 | 110 | 993 | 27.8 | 25.0 | 340 | 4 |
| 2010-01-11T11:28 | 117 | 992 | 27.8 | 24.9 | 341 | 5 |
| 2010-01-11T11:28 | 123 | 992 | 27.7 | 24.9 | 342 | 5 |
| 2010-01-11T11:28 | 129 | 991 | 27.6 | 24.8 | 342 | 5 |
| 2010-01-11T11:28 | 135 | 991 | 27.6 | 24.7 | 342 | 5 |
| 2010-01-11T11:28 | 140 | 990 | 27.6 | 24.7 | 341 | 5 |
| 2010-01-11T11:28 | 146 | 989 | 27.5 | 24.6 | 341 | 5 |
| 2010-01-11T11:28 | 152 | 989 | 27.5 | 24.6 | 339 | 5 |
| 2010-01-11T11:28 | 158 | 988 | 27.4 | 24.6 | 338 | 5 |
| 2010-01-11T11:28 | 164 | 987 | 27.4 | 24.6 | 336 | 5 |
| 2010-01-11T11:28 | 169 | 987 | 27.3 | 24.5 | 334 | 5 |
| 2010-01-11T11:28 | 176 | 986 | 27.3 | 24.5 | 332 | 5 |
| 2010-01-11T11:28 | 184 | 985 | 27.2 | 24.5 | 330 | 5 |
| 2010-01-11T11:28 | 192 | 984 | 27.1 | 24.5 | 328 | 5 |
| 2010-01-11T11:28 | 199 | 983 | 27.0 | 24.5 | 327 | 5 |
| 2010-01-11T11:28 | 206 | 983 | 27.0 | 24.5 | 325 | 5 |
| 2010-01-11T11:28 | 213 | 982 | 26.9 | 24.5 | 324 | 5 |
| 2010-01-11T11:29 | 219 | 981 | 26.9 | 24.4 | 323 | 5 |
| 2010-01-11T11:29 | 224 | 981 | 26.8 | 24.4 | 323 | 6 |
| 2010-01-11T11:29 | 229 | 980 | 26.8 | 24.5 | 322 | 6 |
| 2010-01-11T11:29 | 234 | 980 | 26.7 | 24.5 | 322 | 6 |
| 2010-01-11T11:29 | 239 | 979 | 26.6 | 24.5 | 322 | 6 |
| 2010-01-11T11:29 | 244 | 978 | 26.6 | 24.4 | 322 | 6 |
| 2010-01-11T11:29 | 249 | 978 | 26.6 | 24.4 | 322 | 6 |
| 2010-01-11T11:29 | 254 | 977 | 26.5 | 24.3 | 322 | 6 |
| 2010-01-11T11:29 | 260 | 977 | 26.5 | 24.2 | 322 | 6 |
| 2010-01-11T11:29 | 265 | 976 | 26.5 | 24.2 | 322 | 6 |
| 2010-01-11T11:29 | 271 | 975 | 26.4 | 24.1 | 322 | 6 |
| 2010-01-11T11:29 | 276 | 975 | 26.4 | 24.1 | 322 | 6 |
| 2010-01-11T11:29 | 281 | 974 | 26.3 | 24.1 | 321 | 6 |
| 2010-01-11T11:29 | 286 | 974 | 26.3 | 24.1 | 321 | 6 |
| 2010-01-11T11:29 | 291 | 973 | 26.2 | 24.0 | 321 | 6 |
| 2010-01-11T11:29 | 297 | 973 | 26.2 | 23.9 | 321 | 6 |
| 2010-01-11T11:29 | 302 | 972 | 26.1 | 24.0 | 321 | 6 |
| 2010-01-11T11:29 | 307 | 971 | 26.1 | 24.0 | 321 | 6 |
| 2010-01-11T11:29 | 312 | 971 | 26.1 | 24.0 | 321 | 6 |
| 2010-01-11T11:29 | 317 | 970 | 26.0 | 23.9 | 321 | 6 |
| 2010-01-11T11:29 | 323 | 970 | 26.0 | 23.8 | 322 | 6 |
| 2010-01-11T11:29 | 328 | 969 | 26.0 | 23.7 | 322 | 6 |
| 2010-01-11T11:29 | 334 | 969 | 25.9 | 23.7 | 322 | 6 |
| 2010-01-11T11:29 | 340 | 968 | 25.9 | 23.7 | 323 | 6 |
| 2010-01-11T11:29 | 346 | 967 | 25.8 | 23.7 | 323 | 6 |
| 2010-01-11T11:29 | 350 | 967 | 25.8 | 23.6 | 324 | 6 |
| 2010-01-11T11:29 | 355 | 966 | 25.8 | 23.7 | 324 | 6 |
| 2010-01-11T11:29 | 360 | 966 | 25.7 | 23.6 | 324 | 6 |
| 2010-01-11T11:29 | 365 | 965 | 25.7 | 23.5 | 325 | 6 |
| 2010-01-11T11:29 | 371 | 964 | 25.7 | 23.1 | 325 | 6 |
| 2010-01-11T11:30 | 378 | 964 | 25.7 | 22.9 | 326 | 7 |
| 2010-01-11T11:30 | 384 | 963 | 25.6 | 22.8 | 326 | 7 |
| 2010-01-11T11:30 | 389 | 963 | 25.6 | 22.7 | 326 | 7 |
| 2010-01-11T11:30 | 395 | 962 | 25.6 | 22.6 | 326 | 7 |
| 2010-01-11T11:30 | 400 | 961 | 25.7 | 22.3 | 327 | 7 |
| 2010-01-11T11:30 | 405 | 961 | 25.7 | 22.2 | 327 | 7 |
| 2010-01-11T11:30 | 410 | 960 | 25.6 | 22.1 | 327 | 7 |
| 2010-01-11T11:30 | 415 | 960 | 25.6 | 22.0 | 327 | 7 |
| 2010-01-11T11:30 | 420 | 959 | 25.7 | 21.7 | 327 | 7 |
| 2010-01-11T11:30 | 426 | 959 | 25.7 | 21.6 | 328 | 7 |
| 2010-01-11T11:30 | 431 | 958 | 25.6 | 21.5 | 328 | 7 |
| 2010-01-11T11:30 | 436 | 957 | 25.6 | 21.4 | 328 | 7 |
| 2010-01-11T11:30 | 441 | 957 | 25.6 | 21.4 | 328 | 7 |
| 2010-01-11T11:30 | 446 | 956 | 25.5 | 21.4 | 328 | 7 |
| 2010-01-11T11:30 | 451 | 956 | 25.5 | 21.4 | 328 | 7 |
| 2010-01-11T11:30 | 456 | 955 | 25.5 | 21.4 | 327 | 7 |
| 2010-01-11T11:30 | 461 | 955 | 25.4 | 21.3 | 327 | 7 |
| 2010-01-11T11:30 | 466 | 954 | 25.4 | 21.3 | 327 | 7 |
| 2010-01-11T11:30 | 472 | 954 | 25.4 | 21.2 | 327 | 7 |
| 2010-01-11T11:30 | 477 | 953 | 25.3 | 21.2 | 326 | 7 |
| 2010-01-11T11:30 | 483 | 952 | 25.3 | 21.2 | 326 | 7 |
| 2010-01-11T11:30 | 487 | 952 | 25.2 | 21.2 | 326 | 7 |
| 2010-01-11T11:30 | 493 | 951 | 25.2 | 21.2 | 326 | 7 |
| 2010-01-11T11:30 | 498 | 951 | 25.1 | 21.3 | 326 | 7 |
| 2010-01-11T11:30 | 503 | 950 | 25.1 | 21.5 | 326 | 7 |
| 2010-01-11T11:30 | 508 | 950 | 25.0 | 21.5 | 326 | 7 |
| 2010-01-11T11:30 | 514 | 949 | 24.9 | 21.5 | 326 | 7 |
| 2010-01-11T11:30 | 519 | 948 | 24.9 | 21.3 | 326 | 7 |
| 2010-01-11T11:30 | 524 | 948 | 24.8 | 21.3 | 326 | 7 |
| 2010-01-11T11:30 | 529 | 947 | 24.8 | 21.4 | 326 | 7 |
| 2010-01-11T11:31 | 534 | 947 | 24.7 | 21.5 | 327 | 7 |
| 2010-01-11T11:31 | 540 | 946 | 24.7 | 21.5 | 327 | 7 |
| 2010-01-11T11:31 | 546 | 946 | 24.6 | 21.5 | 327 | 8 |
| 2010-01-11T11:31 | 551 | 945 | 24.6 | 21.5 | 327 | 8 |
| 2010-01-11T11:31 | 556 | 945 | 24.6 | 21.4 | 327 | 8 |
| 2010-01-11T11:31 | 560 | 944 | 24.6 | 21.4 | 328 | 8 |
| 2010-01-11T11:31 | 566 | 943 | 24.5 | 21.4 | 328 | 8 |
| 2010-01-11T11:31 | 571 | 943 | 24.5 | 21.4 | 328 | 8 |
| 2010-01-11T11:31 | 576 | 942 | 24.5 | 21.4 | 328 | 8 |
| 2010-01-11T11:31 | 582 | 942 | 24.5 | 21.2 | 328 | 8 |
| 2010-01-11T11:31 | 587 | 941 | 24.5 | 21.1 | 328 | 8 |
| 2010-01-11T11:31 | 591 | 941 | 24.5 | 21.1 | 328 | 8 |
| 2010-01-11T11:31 | 596 | 940 | 24.5 | 21.0 | 329 | 8 |
| 2010-01-11T11:31 | 602 | 940 | 24.5 | 20.8 | 329 | 8 |
| 2010-01-11T11:31 | 608 | 939 | 24.4 | 20.7 | 329 | 8 |
| 2010-01-11T11:31 | 614 | 938 | 24.4 | 20.7 | 329 | 8 |
| 2010-01-11T11:31 | 619 | 938 | 24.4 | 20.7 | 329 | 8 |
| 2010-01-11T11:31 | 624 | 937 | 24.4 | 20.7 | 329 | 8 |
| 2010-01-11T11:31 | 629 | 937 | 24.4 | 20.7 | 329 | 8 |
| 2010-01-11T11:31 | 635 | 936 | 24.4 | 20.7 | 329 | 8 |
| 2010-01-11T11:31 | 640 | 936 | 24.4 | 20.6 | 329 | 8 |
| 2010-01-11T11:31 | 645 | 935 | 24.4 | 20.7 | 329 | 8 |
| 2010-01-11T11:31 | 650 | 934 | 24.4 | 20.7 | 329 | 8 |
| 2010-01-11T11:31 | 655 | 934 | 24.3 | 20.6 | 329 | 8 |
| 2010-01-11T11:31 | 661 | 933 | 24.3 | 20.4 | 328 | 8 |
| 2010-01-11T11:31 | 666 | 933 | 24.3 | 20.2 | 328 | 8 |
| 2010-01-11T11:31 | 671 | 932 | 24.2 | 20.3 | 328 | 8 |
| 2010-01-11T11:31 | 675 | 932 | 24.2 | 20.4 | 328 | 8 |
| 2010-01-11T11:31 | 680 | 931 | 24.1 | 20.6 | 327 | 8 |
| 2010-01-11T11:31 | 685 | 931 | 24.1 | 20.7 | 327 | 8 |
| 2010-01-11T11:32 | 690 | 930 | 24.1 | 20.6 | 326 | 8 |
| 2010-01-11T11:32 | 696 | 930 | 24.1 | 20.5 | 326 | 8 |
| 2010-01-11T11:32 | 702 | 929 | 24.0 | 20.4 | 326 | 9 |
| 2010-01-11T11:32 | 708 | 928 | 24.0 | 20.4 | 325 | 9 |
| 2010-01-11T11:32 | 713 | 928 | 24.0 | 20.4 | 325 | 9 |
| 2010-01-11T11:32 | 719 | 927 | 24.0 | 20.4 | 325 | 9 |
| 2010-01-11T11:32 | 724 | 927 | 23.9 | 20.4 | 324 | 9 |
| 2010-01-11T11:32 | 729 | 926 | 23.9 | 20.4 | 324 | 9 |
| 2010-01-11T11:32 | 734 | 926 | 23.8 | 20.3 | 324 | 9 |
| 2010-01-11T11:32 | 739 | 925 | 23.8 | 20.3 | 323 | 9 |
| 2010-01-11T11:32 | 745 | 924 | 23.8 | 20.3 | 323 | 9 |
| 2010-01-11T11:32 | 750 | 924 | 23.7 | 20.3 | 323 | 9 |
| 2010-01-11T11:32 | 755 | 923 | 23.7 | 20.3 | 323 | 9 |
| 2010-01-11T11:32 | 760 | 923 | 23.6 | 20.2 | 322 | 9 |
| 2010-01-11T11:32 | 765 | 922 | 23.6 | 20.2 | 322 | 9 |
| 2010-01-11T11:32 | 770 | 922 | 23.5 | 20.2 | 322 | 9 |
| 2010-01-11T11:32 | 774 | 921 | 23.5 | 20.2 | 321 | 9 |
| 2010-01-11T11:32 | 780 | 921 | 23.5 | 20.1 | 321 | 9 |
| 2010-01-11T11:32 | 785 | 920 | 23.4 | 20.1 | 321 | 9 |
| 2010-01-11T11:32 | 789 | 920 | 23.4 | 20.1 | 320 | 9 |
| 2010-01-11T11:32 | 794 | 919 | 23.4 | 20.1 | 320 | 9 |
| 2010-01-11T11:32 | 800 | 919 | 23.3 | 19.9 | 320 | 9 |
| 2010-01-11T11:32 | 805 | 918 | 23.3 | 19.8 | 319 | 9 |
| 2010-01-11T11:32 | 810 | 918 | 23.2 | 19.7 | 319 | 9 |
| 2010-01-11T11:32 | 815 | 917 | 23.2 | 19.8 | 318 | 9 |
| 2010-01-11T11:32 | 820 | 916 | 23.1 | 19.8 | 317 | 9 |
| 2010-01-11T11:32 | 826 | 916 | 23.1 | 19.8 | 317 | 9 |
| 2010-01-11T11:32 | 831 | 915 | 23.1 | 19.8 | 316 | 9 |
| 2010-01-11T11:32 | 835 | 915 | 23.0 | 19.9 | 316 | 9 |
| 2010-01-11T11:32 | 840 | 914 | 23.0 | 19.9 | 315 | 9 |
| 2010-01-11T11:33 | 846 | 914 | 23.0 | 19.9 | 315 | 9 |
| 2010-01-11T11:33 | 851 | 913 | 23.0 | 19.8 | 314 | 9 |
| 2010-01-11T11:33 | 856 | 913 | 23.0 | 19.8 | 314 | 9 |
| 2010-01-11T11:33 | 861 | 912 | 23.0 | 19.8 | 314 | 9 |
| 2010-01-11T11:33 | 866 | 912 | 23.0 | 19.8 | 313 | 9 |
| 2010-01-11T11:33 | 871 | 911 | 22.9 | 19.7 | 313 | 9 |
| 2010-01-11T11:33 | 876 | 911 | 22.9 | 19.7 | 313 | 9 |
| 2010-01-11T11:33 | 881 | 910 | 22.9 | 19.6 | 313 | 10 |
| 2010-01-11T11:33 | 886 | 910 | 22.8 | 19.6 | 312 | 10 |
| 2010-01-11T11:33 | 891 | 909 | 22.8 | 19.5 | 312 | 10 |
| 2010-01-11T11:33 | 896 | 909 | 22.8 | 19.5 | 312 | 10 |
| 2010-01-11T11:33 | 901 | 908 | 22.7 | 19.4 | 312 | 10 |
| 2010-01-11T11:33 | 906 | 908 | 22.7 | 19.4 | 312 | 10 |
| 2010-01-11T11:33 | 911 | 907 | 22.6 | 19.4 | 312 | 10 |
| 2010-01-11T11:33 | 916 | 907 | 22.6 | 19.3 | 312 | 10 |
| 2010-01-11T11:33 | 921 | 906 | 22.6 | 19.2 | 312 | 10 |
| 2010-01-11T11:33 | 925 | 906 | 22.6 | 19.1 | 312 | 10 |
| 2010-01-11T11:33 | 930 | 905 | 22.5 | 19.1 | 312 | 10 |
| 2010-01-11T11:33 | 936 | 905 | 22.5 | 19.0 | 312 | 10 |
| 2010-01-11T11:33 | 940 | 904 | 22.5 | 18.8 | 312 | 10 |
| 2010-01-11T11:33 | 945 | 904 | 22.5 | 18.5 | 312 | 10 |
| 2010-01-11T11:33 | 949 | 903 | 22.5 | 18.5 | 312 | 10 |
| 2010-01-11T11:33 | 954 | 903 | 22.5 | 18.6 | 312 | 10 |
| 2010-01-11T11:33 | 959 | 902 | 22.5 | 18.7 | 312 | 10 |
| 2010-01-11T11:33 | 964 | 902 | 22.5 | 18.8 | 312 | 10 |
| 2010-01-11T11:33 | 969 | 901 | 22.5 | 18.8 | 312 | 10 |
| 2010-01-11T11:33 | 974 | 901 | 22.5 | 18.8 | 312 | 10 |
| 2010-01-11T11:33 | 979 | 900 | 22.5 | 18.7 | 312 | 11 |
| 2010-01-11T11:33 | 984 | 900 | 22.4 | 18.7 | 312 | 11 |
| 2010-01-11T11:33 | 989 | 899 | 22.4 | 18.7 | 312 | 11 |
| 2010-01-11T11:34 | 994 | 899 | 22.4 | 18.6 | 312 | 11 |
| 2010-01-11T11:34 | 998 | 898 | 22.4 | 18.6 | 312 | 11 |
| 2010-01-11T11:34 | 1003 | 898 | 22.4 | 18.6 | 312 | 11 |
| 2010-01-11T11:34 | 1008 | 897 | 22.3 | 18.6 | 312 | 11 |
| 2010-01-11T11:34 | 1014 | 896 | 22.3 | 18.6 | 312 | 11 |
| 2010-01-11T11:34 | 1019 | 896 | 22.3 | 18.5 | 312 | 11 |
| 2010-01-11T11:34 | 1023 | 895 | 22.2 | 18.5 | 312 | 11 |
| 2010-01-11T11:34 | 1028 | 895 | 22.2 | 18.4 | 311 | 11 |
| 2010-01-11T11:34 | 1033 | 894 | 22.2 | 18.3 | 311 | 11 |
| 2010-01-11T11:34 | 1038 | 894 | 22.1 | 18.2 | 311 | 11 |
| 2010-01-11T11:34 | 1042 | 894 | 22.1 | 18.3 | 311 | 11 |
| 2010-01-11T11:34 | 1047 | 893 | 22.1 | 18.4 | 311 | 11 |
| 2010-01-11T11:34 | 1052 | 893 | 22.0 | 18.4 | 311 | 11 |
| 2010-01-11T11:34 | 1057 | 892 | 22.0 | 18.5 | 311 | 11 |
| 2010-01-11T11:34 | 1061 | 892 | 22.0 | 18.5 | 311 | 11 |
| 2010-01-11T11:34 | 1066 | 891 | 22.0 | 18.4 | 312 | 11 |
| 2010-01-11T11:34 | 1070 | 891 | 22.0 | 18.3 | 312 | 11 |
| 2010-01-11T11:34 | 1075 | 890 | 22.0 | 18.1 | 312 | 11 |
| 2010-01-11T11:34 | 1080 | 890 | 22.0 | 18.1 | 312 | 11 |
| 2010-01-11T11:34 | 1084 | 889 | 22.0 | 18.1 | 312 | 11 |
| 2010-01-11T11:34 | 1089 | 889 | 21.9 | 18.2 | 312 | 11 |
| 2010-01-11T11:34 | 1094 | 888 | 21.9 | 18.1 | 312 | 11 |
| 2010-01-11T11:34 | 1099 | 888 | 21.9 | 18.1 | 312 | 11 |
| 2010-01-11T11:34 | 1104 | 887 | 21.8 | 18.1 | 311 | 11 |
| 2010-01-11T11:34 | 1110 | 887 | 21.8 | 18.1 | 311 | 11 |
| 2010-01-11T11:34 | 1115 | 886 | 21.7 | 18.2 | 311 | 11 |
| 2010-01-11T11:34 | 1119 | 886 | 21.7 | 18.3 | 311 | 11 |
| 2010-01-11T11:34 | 1123 | 885 | 21.7 | 18.2 | 311 | 11 |
| 2010-01-11T11:34 | 1129 | 885 | 21.6 | 18.1 | 311 | 11 |
| 2010-01-11T11:34 | 1134 | 884 | 21.6 | 18.0 | 311 | 11 |
| 2010-01-11T11:35 | 1138 | 884 | 21.6 | 18.0 | 311 | 11 |
| 2010-01-11T11:35 | 1143 | 883 | 21.5 | 18.1 | 311 | 11 |
| 2010-01-11T11:35 | 1148 | 883 | 21.5 | 18.1 | 311 | 11 |
| 2010-01-11T11:35 | 1153 | 882 | 21.5 | 18.1 | 311 | 11 |
| 2010-01-11T11:35 | 1158 | 882 | 21.5 | 18.1 | 311 | 11 |
| 2010-01-11T11:35 | 1164 | 881 | 21.5 | 18.1 | 311 | 11 |
| 2010-01-11T11:35 | 1168 | 881 | 21.5 | 18.1 | 311 | 11 |
| 2010-01-11T11:35 | 1173 | 880 | 21.5 | 18.0 | 311 | 11 |
| 2010-01-11T11:35 | 1177 | 880 | 21.4 | 17.9 | 311 | 11 |
| 2010-01-11T11:35 | 1182 | 879 | 21.4 | 17.9 | 312 | 11 |
| 2010-01-11T11:35 | 1188 | 879 | 21.4 | 18.0 | 312 | 11 |
| 2010-01-11T11:35 | 1193 | 878 | 21.4 | 18.0 | 312 | 11 |
| 2010-01-11T11:35 | 1197 | 878 | 21.3 | 18.0 | 312 | 11 |
| 2010-01-11T11:35 | 1202 | 877 | 21.3 | 18.0 | 312 | 11 |
| 2010-01-11T11:35 | 1207 | 877 | 21.3 | 17.7 | 312 | 11 |
| 2010-01-11T11:35 | 1212 | 876 | 21.3 | 17.5 | 312 | 11 |
| 2010-01-11T11:35 | 1216 | 876 | 21.3 | 17.5 | 312 | 11 |
| 2010-01-11T11:35 | 1221 | 875 | 21.3 | 17.5 | 312 | 11 |
| 2010-01-11T11:35 | 1226 | 875 | 21.3 | 17.5 | 312 | 11 |
| 2010-01-11T11:35 | 1230 | 874 | 21.2 | 17.5 | 312 | 11 |
| 2010-01-11T11:35 | 1235 | 874 | 21.2 | 17.5 | 312 | 11 |
| 2010-01-11T11:35 | 1240 | 873 | 21.2 | 17.5 | 312 | 11 |
| 2010-01-11T11:35 | 1246 | 873 | 21.2 | 17.4 | 311 | 11 |
| 2010-01-11T11:35 | 1250 | 872 | 21.2 | 17.4 | 311 | 11 |
| 2010-01-11T11:35 | 1255 | 872 | 21.2 | 17.4 | 311 | 11 |
| 2010-01-11T11:35 | 1260 | 871 | 21.1 | 17.4 | 311 | 11 |
| 2010-01-11T11:35 | 1265 | 871 | 21.1 | 17.4 | 311 | 11 |
| 2010-01-11T11:35 | 1270 | 870 | 21.2 | 17.4 | 311 | 11 |
| 2010-01-11T11:35 | 1275 | 870 | 21.2 | 17.3 | 310 | 11 |
| 2010-01-11T11:35 | 1279 | 869 | 21.2 | 17.1 | 310 | 11 |
| 2010-01-11T11:36 | 1284 | 869 | 21.2 | 16.9 | 310 | 11 |
| 2010-01-11T11:36 | 1289 | 869 | 21.3 | 16.6 | 310 | 11 |
| 2010-01-11T11:36 | 1294 | 868 | 21.3 | 16.4 | 310 | 11 |
| 2010-01-11T11:36 | 1299 | 868 | 21.3 | 16.3 | 309 | 11 |
| 2010-01-11T11:36 | 1305 | 867 | 21.3 | 16.1 | 309 | 11 |
| 2010-01-11T11:36 | 1310 | 866 | 21.2 | 16.0 | 309 | 11 |
| 2010-01-11T11:36 | 1315 | 866 | 21.3 | 16.1 | 309 | 11 |
| 2010-01-11T11:36 | 1320 | 865 | 21.3 | 16.2 | 308 | 11 |
| 2010-01-11T11:36 | 1325 | 865 | 21.2 | 16.2 | 308 | 11 |
| 2010-01-11T11:36 | 1329 | 865 | 21.2 | 16.2 | 308 | 11 |
| 2010-01-11T11:36 | 1334 | 864 | 21.2 | 16.2 | 308 | 11 |
| 2010-01-11T11:36 | 1339 | 864 | 21.1 | 16.2 | 308 | 11 |
| 2010-01-11T11:36 | 1345 | 863 | 21.1 | 16.2 | 308 | 11 |
| 2010-01-11T11:36 | 1349 | 863 | 21.0 | 16.6 | 308 | 11 |
| 2010-01-11T11:36 | 1354 | 862 | 21.0 | 16.8 | 307 | 11 |
| 2010-01-11T11:36 | 1359 | 862 | 21.0 | 16.8 | 307 | 11 |
| 2010-01-11T11:36 | 1363 | 861 | 21.0 | 16.9 | 307 | 11 |
| 2010-01-11T11:36 | 1368 | 861 | 20.9 | 16.9 | 308 | 11 |
| 2010-01-11T11:36 | 1373 | 860 | 20.9 | 17.0 | 308 | 11 |
| 2010-01-11T11:36 | 1378 | 860 | 20.9 | 17.0 | 308 | 11 |
| 2010-01-11T11:36 | 1384 | 859 | 20.8 | 17.0 | 308 | 11 |
| 2010-01-11T11:36 | 1389 | 859 | 20.8 | 17.0 | 308 | 11 |
| 2010-01-11T11:36 | 1394 | 858 | 20.8 | 17.0 | 308 | 11 |
| 2010-01-11T11:36 | 1399 | 858 | 20.8 | 16.8 | 308 | 11 |
| 2010-01-11T11:36 | 1404 | 857 | 20.8 | 16.8 | 308 | 11 |
| 2010-01-11T11:36 | 1409 | 857 | 20.8 | 16.8 | 308 | 11 |
| 2010-01-11T11:36 | 1414 | 856 | 20.8 | 16.9 | 308 | 11 |
| 2010-01-11T11:36 | 1420 | 856 | 20.8 | 16.9 | 307 | 11 |
| 2010-01-11T11:36 | 1425 | 855 | 20.9 | 16.8 | 307 | 11 |
| 2010-01-11T11:36 | 1430 | 855 | 20.9 | 16.7 | 307 | 11 |
| 2010-01-11T11:37 | 1435 | 854 | 20.8 | 16.7 | 307 | 10 |
| 2010-01-11T11:37 | 1441 | 853 | 20.8 | 16.6 | 307 | 10 |
| 2010-01-11T11:37 | 1446 | 853 | 20.8 | 16.6 | 307 | 10 |
| 2010-01-11T11:37 | 1450 | 853 | 20.8 | 16.6 | 308 | 10 |
| 2010-01-11T11:37 | 1456 | 852 | 20.9 | 16.6 | 308 | 10 |
| 2010-01-11T11:37 | 1461 | 852 | 20.8 | 16.6 | 308 | 10 |
| 2010-01-11T11:37 | 1466 | 851 | 20.8 | 16.6 | 308 | 10 |
| 2010-01-11T11:37 | 1471 | 850 | 20.8 | 16.5 | 308 | 10 |
| 2010-01-11T11:37 | 1477 | 850 | 20.8 | 16.3 | 307 | 10 |
| 2010-01-11T11:37 | 1482 | 849 | 20.8 | 15.8 | 307 | 10 |
| 2010-01-11T11:37 | 1487 | 849 | 20.8 | 15.4 | 307 | 10 |
| 2010-01-11T11:37 | 1493 | 848 | 20.8 | 15.3 | 307 | 10 |
| 2010-01-11T11:37 | 1498 | 848 | 20.8 | 15.3 | 306 | 9 |
| 2010-01-11T11:37 | 1504 | 847 | 20.8 | 15.3 | 306 | 9 |
| 2010-01-11T11:37 | 1510 | 847 | 20.8 | 15.3 | 305 | 9 |
| 2010-01-11T11:37 | 1516 | 846 | 20.8 | 15.4 | 305 | 9 |
| 2010-01-11T11:37 | 1521 | 846 | 20.7 | 15.4 | 304 | 9 |
| 2010-01-11T11:37 | 1526 | 845 | 20.7 | 15.4 | 304 | 9 |
| 2010-01-11T11:37 | 1531 | 845 | 20.8 | 15.3 | 303 | 9 |
| 2010-01-11T11:37 | 1536 | 844 | 20.8 | 15.4 | 302 | 9 |
| 2010-01-11T11:37 | 1542 | 844 | 20.9 | 15.4 | 301 | 8 |
| 2010-01-11T11:37 | 1547 | 843 | 21.0 | 15.4 | 301 | 8 |
| 2010-01-11T11:37 | 1552 | 843 | 21.0 | 15.4 | 300 | 8 |
| 2010-01-11T11:37 | 1558 | 842 | 21.0 | 15.3 | 299 | 8 |
| 2010-01-11T11:37 | 1563 | 842 | 21.0 | 15.2 | 299 | 8 |
| 2010-01-11T11:37 | 1568 | 841 | 21.0 | 15.1 | 298 | 8 |
| 2010-01-11T11:37 | 1573 | 841 | 21.0 | 15.0 | 298 | 8 |
| 2010-01-11T11:37 | 1578 | 840 | 21.0 | 14.8 | 298 | 8 |
| 2010-01-11T11:37 | 1583 | 840 | 21.0 | 14.6 | 297 | 8 |
| 2010-01-11T11:37 | 1588 | 839 | 21.0 | 14.4 | 297 | 8 |
| 2010-01-11T11:38 | 1593 | 839 | 21.0 | 14.2 | 297 | 8 |
| 2010-01-11T11:38 | 1599 | 838 | 21.0 | 14.0 | 297 | 8 |
| 2010-01-11T11:38 | 1604 | 838 | 21.0 | 14.0 | 297 | 8 |
| 2010-01-11T11:38 | 1609 | 837 | 20.9 | 14.0 | 296 | 8 |
| 2010-01-11T11:38 | 1614 | 837 | 20.9 | 14.0 | 296 | 8 |
| 2010-01-11T11:38 | 1619 | 836 | 20.9 | 13.9 | 296 | 8 |
| 2010-01-11T11:38 | 1624 | 836 | 20.9 | 13.7 | 296 | 8 |
| 2010-01-11T11:38 | 1629 | 835 | 20.9 | 13.5 | 296 | 8 |
| 2010-01-11T11:38 | 1634 | 835 | 20.8 | 13.5 | 295 | 8 |
| 2010-01-11T11:38 | 1638 | 834 | 20.8 | 13.7 | 295 | 8 |
| 2010-01-11T11:38 | 1643 | 834 | 20.8 | 13.8 | 295 | 8 |
| 2010-01-11T11:38 | 1648 | 833 | 20.8 | 13.9 | 295 | 8 |
| 2010-01-11T11:38 | 1653 | 833 | 20.7 | 13.9 | 294 | 8 |
| 2010-01-11T11:38 | 1658 | 832 | 20.7 | 14.0 | 294 | 8 |
| 2010-01-11T11:38 | 1664 | 832 | 20.7 | 14.1 | 294 | 8 |
| 2010-01-11T11:38 | 1668 | 831 | 20.7 | 14.2 | 294 | 8 |
| 2010-01-11T11:38 | 1673 | 831 | 20.6 | 14.1 | 293 | 8 |
| 2010-01-11T11:38 | 1678 | 830 | 20.6 | 14.1 | 293 | 8 |
| 2010-01-11T11:38 | 1683 | 830 | 20.6 | 14.1 | 293 | 8 |
| 2010-01-11T11:38 | 1688 | 830 | 20.5 | 14.1 | 293 | 8 |
| 2010-01-11T11:38 | 1693 | 829 | 20.5 | 14.1 | 293 | 8 |
| 2010-01-11T11:38 | 1698 | 829 | 20.4 | 14.1 | 293 | 8 |
| 2010-01-11T11:38 | 1702 | 828 | 20.4 | 14.1 | 293 | 8 |
| 2010-01-11T11:38 | 1707 | 828 | 20.4 | 14.1 | 293 | 8 |
| 2010-01-11T11:38 | 1711 | 827 | 20.3 | 14.1 | 293 | 8 |
| 2010-01-11T11:38 | 1717 | 827 | 20.3 | 14.1 | 293 | 8 |
| 2010-01-11T11:38 | 1722 | 826 | 20.2 | 14.1 | 293 | 8 |
| 2010-01-11T11:38 | 1727 | 826 | 20.2 | 14.1 | 293 | 8 |
| 2010-01-11T11:38 | 1731 | 825 | 20.1 | 14.1 | 293 | 8 |
| 2010-01-11T11:38 | 1736 | 825 | 20.1 | 14.1 | 293 | 8 |
| 2010-01-11T11:39 | 1741 | 824 | 20.0 | 14.1 | 293 | 8 |
| 2010-01-11T11:39 | 1746 | 824 | 20.0 | 14.1 | 293 | 8 |
| 2010-01-11T11:39 | 1751 | 824 | 19.9 | 14.1 | 293 | 8 |
| 2010-01-11T11:39 | 1756 | 823 | 19.9 | 14.1 | 293 | 8 |
| 2010-01-11T11:39 | 1761 | 823 | 19.8 | 13.9 | 292 | 8 |
| 2010-01-11T11:39 | 1766 | 822 | 19.8 | 13.8 | 292 | 8 |
| 2010-01-11T11:39 | 1771 | 822 | 19.7 | 13.9 | 292 | 8 |
| 2010-01-11T11:39 | 1776 | 821 | 19.6 | 14.0 | 292 | 8 |
| 2010-01-11T11:39 | 1781 | 821 | 19.6 | 14.1 | 292 | 8 |
| 2010-01-11T11:39 | 1786 | 820 | 19.5 | 14.1 | 292 | 8 |
| 2010-01-11T11:39 | 1791 | 820 | 19.5 | 14.2 | 291 | 8 |
| 2010-01-11T11:39 | 1796 | 819 | 19.5 | 14.2 | 291 | 8 |
| 2010-01-11T11:39 | 1802 | 819 | 19.4 | 14.2 | 291 | 8 |
| 2010-01-11T11:39 | 1807 | 818 | 19.4 | 14.2 | 291 | 8 |
| 2010-01-11T11:39 | 1812 | 818 | 19.3 | 14.3 | 291 | 8 |
| 2010-01-11T11:39 | 1817 | 817 | 19.3 | 14.3 | 291 | 8 |
| 2010-01-11T11:39 | 1822 | 817 | 19.2 | 14.3 | 291 | 8 |
| 2010-01-11T11:39 | 1828 | 816 | 19.2 | 14.3 | 291 | 8 |
| 2010-01-11T11:39 | 1834 | 816 | 19.1 | 14.2 | 290 | 8 |
| 2010-01-11T11:39 | 1839 | 815 | 19.1 | 13.9 | 291 | 8 |
| 2010-01-11T11:39 | 1844 | 815 | 19.1 | 13.8 | 291 | 8 |
| 2010-01-11T11:39 | 1849 | 814 | 19.1 | 13.8 | 291 | 8 |
| 2010-01-11T11:39 | 1854 | 814 | 19.1 | 13.8 | 291 | 8 |
| 2010-01-11T11:39 | 1859 | 813 | 19.1 | 13.8 | 291 | 8 |
| 2010-01-11T11:39 | 1864 | 813 | 19.1 | 13.6 | 291 | 8 |
| 2010-01-11T11:39 | 1869 | 812 | 19.1 | 13.4 | 292 | 8 |
| 2010-01-11T11:39 | 1874 | 812 | 19.1 | 13.4 | 292 | 7 |
| 2010-01-11T11:39 | 1880 | 811 | 19.0 | 13.4 | 292 | 7 |
| 2010-01-11T11:39 | 1885 | 811 | 19.0 | 13.4 | 292 | 7 |
| 2010-01-11T11:39 | 1889 | 810 | 19.0 | 13.4 | 293 | 7 |
| 2010-01-11T11:40 | 1893 | 810 | 18.9 | 13.4 | 293 | 7 |
| 2010-01-11T11:40 | 1898 | 810 | 18.9 | 13.3 | 293 | 7 |
| 2010-01-11T11:40 | 1903 | 809 | 18.9 | 13.1 | 293 | 7 |
| 2010-01-11T11:40 | 1908 | 809 | 18.8 | 13.0 | 294 | 7 |
| 2010-01-11T11:40 | 1914 | 808 | 18.8 | 13.1 | 294 | 7 |
| 2010-01-11T11:40 | 1919 | 808 | 18.7 | 13.3 | 294 | 7 |
| 2010-01-11T11:40 | 1924 | 807 | 18.7 | 13.3 | 294 | 7 |
| 2010-01-11T11:40 | 1929 | 807 | 18.7 | 13.2 | 294 | 7 |
| 2010-01-11T11:40 | 1935 | 806 | 18.6 | 13.1 | 294 | 7 |
| 2010-01-11T11:40 | 1940 | 806 | 18.6 | 13.1 | 294 | 7 |
| 2010-01-11T11:40 | 1945 | 805 | 18.5 | 13.0 | 294 | 7 |
| 2010-01-11T11:40 | 1950 | 805 | 18.5 | 13.0 | 294 | 7 |
| 2010-01-11T11:40 | 1955 | 804 | 18.5 | 12.9 | 294 | 7 |
| 2010-01-11T11:40 | 1961 | 804 | 18.5 | 12.9 | 294 | 7 |
| 2010-01-11T11:40 | 1966 | 803 | 18.5 | 12.8 | 294 | 7 |
| 2010-01-11T11:40 | 1971 | 803 | 18.4 | 12.8 | 294 | 7 |
| 2010-01-11T11:40 | 1976 | 802 | 18.4 | 12.7 | 294 | 7 |
| 2010-01-11T11:40 | 1982 | 802 | 18.4 | 12.6 | 294 | 7 |
| 2010-01-11T11:40 | 1987 | 801 | 18.3 | 12.6 | 294 | 7 |
| 2010-01-11T11:40 | 1992 | 801 | 18.3 | 12.6 | 294 | 7 |
| 2010-01-11T11:40 | 1997 | 800 | 18.3 | 12.6 | 294 | 7 |
| 2010-01-11T11:40 | 2022 | 798 | 18.0 | 12.4 | 295 | 7 |
| 2010-01-11T11:41 | 2047 | 796 | 17.8 | 12.0 | 296 | 7 |
| 2010-01-11T11:41 | 2076 | 793 | 17.6 | 12.0 | 298 | 7 |
| 2010-01-11T11:41 | 2103 | 790 | 17.4 | 12.1 | 301 | 7 |
| 2010-01-11T11:41 | 2129 | 788 | 17.1 | 12.8 | 303 | 7 |
| 2010-01-11T11:41 | 2156 | 786 | 16.8 | 13.0 | 303 | 7 |
| 2010-01-11T11:41 | 2183 | 783 | 16.6 | 13.2 | 304 | 7 |
| 2010-01-11T11:42 | 2211 | 781 | 16.5 | 13.0 | 305 | 7 |
| 2010-01-11T11:42 | 2238 | 778 | 16.4 | 12.8 | 305 | 7 |
| 2010-01-11T11:42 | 2265 | 776 | 16.3 | 12.7 | 304 | 7 |
| 2010-01-11T11:42 | 2293 | 773 | 16.1 | 12.5 | 304 | 8 |
| 2010-01-11T11:42 | 2321 | 771 | 15.9 | 12.4 | 306 | 8 |
| 2010-01-11T11:42 | 2347 | 768 | 15.8 | 11.6 | 307 | 8 |
| 2010-01-11T11:43 | 2375 | 766 | 16.0 | 10.5 | 307 | 8 |
| 2010-01-11T11:43 | 2401 | 763 | 15.7 | 11.2 | 307 | 8 |
| 2010-01-11T11:43 | 2428 | 761 | 15.6 | 10.5 | 307 | 7 |
| 2010-01-11T11:43 | 2456 | 758 | 15.4 | 10.6 | 306 | 7 |
| 2010-01-11T11:43 | 2483 | 756 | 15.3 | 10.4 | 306 | 7 |
| 2010-01-11T11:43 | 2510 | 754 | 15.1 | 9.7 | 307 | 8 |
| 2010-01-11T11:44 | 2537 | 751 | 15.0 | 9.8 | 308 | 8 |
| 2010-01-11T11:44 | 2563 | 749 | 14.8 | 9.9 | 309 | 8 |
| 2010-01-11T11:44 | 2588 | 747 | 14.6 | 10.3 | 310 | 8 |
| 2010-01-11T11:44 | 2615 | 744 | 14.4 | 10.1 | 311 | 8 |
| 2010-01-11T11:44 | 2640 | 742 | 14.2 | 9.3 | 312 | 8 |
| 2010-01-11T11:44 | 2667 | 740 | 14.1 | 9.2 | 311 | 8 |
| 2010-01-11T11:45 | 2694 | 737 | 13.9 | 9.2 | 311 | 8 |
| 2010-01-11T11:45 | 2720 | 735 | 13.8 | 9.0 | 312 | 8 |
| 2010-01-11T11:45 | 2747 | 733 | 13.7 | 9.1 | 314 | 8 |
| 2010-01-11T11:45 | 2772 | 731 | 13.6 | 9.4 | 315 | 7 |
| 2010-01-11T11:45 | 2799 | 728 | 13.5 | 8.8 | 316 | 7 |
| 2010-01-11T11:45 | 2824 | 726 | 13.4 | 8.7 | 315 | 7 |
| 2010-01-11T11:46 | 2850 | 724 | 13.2 | 8.7 | 313 | 8 |
| 2010-01-11T11:46 | 2876 | 722 | 12.9 | 8.8 | 311 | 8 |
| 2010-01-11T11:46 | 2902 | 719 | 12.9 | 8.6 | 310 | 8 |
| 2010-01-11T11:46 | 2930 | 717 | 12.9 | 7.8 | 310 | 8 |
| 2010-01-11T11:46 | 2958 | 715 | 13.0 | 7.7 | 311 | 7 |
| 2010-01-11T11:46 | 2987 | 712 | 12.8 | 7.6 | 310 | 7 |
| 2010-01-11T11:47 | 3015 | 710 | 12.7 | 7.4 | 309 | 7 |
| 2010-01-11T11:47 | 3044 | 707 | 12.5 | 7.5 | 309 | 7 |
| 2010-01-11T11:47 | 3073 | 705 | 12.4 | 7.6 | 309 | 6 |
| 2010-01-11T11:47 | 3102 | 703 | 12.4 | 7.2 | 308 | 6 |
| 2010-01-11T11:47 | 3132 | 700 | 12.4 | 6.8 | 307 | 6 |
| 2010-01-11T11:47 | 3161 | 698 | 12.1 | 6.4 | 308 | 6 |
| 2010-01-11T11:48 | 3191 | 695 | 11.9 | 6.4 | 309 | 7 |
| 2010-01-11T11:48 | 3220 | 693 | 11.7 | 6.4 | 310 | 7 |
| 2010-01-11T11:48 | 3248 | 690 | 11.5 | 5.8 | 309 | 7 |
| 2010-01-11T11:48 | 3276 | 688 | 11.3 | 6.0 | 309 | 7 |
| 2010-01-11T11:48 | 3305 | 686 | 11.1 | 6.1 | 309 | 7 |
| 2010-01-11T11:48 | 3332 | 684 | 10.9 | 6.1 | 309 | 7 |
| 2010-01-11T11:49 | 3360 | 681 | 10.7 | 5.9 | 309 | 6 |
| 2010-01-11T11:49 | 3388 | 679 | 10.4 | 5.8 | 309 | 6 |
| 2010-01-11T11:49 | 3417 | 677 | 10.1 | 5.7 | 309 | 6 |
| 2010-01-11T11:49 | 3446 | 674 | 9.9 | 5.8 | 309 | 6 |
| 2010-01-11T11:49 | 3473 | 672 | 9.7 | 5.8 | 309 | 6 |
| 2010-01-11T11:49 | 3500 | 670 | 9.5 | 5.4 | 307 | 6 |
| 2010-01-11T11:50 | 3525 | 668 | 9.4 | 5.1 | 305 | 6 |
| 2010-01-11T11:50 | 3552 | 666 | 9.3 | 5.3 | 304 | 6 |
| 2010-01-11T11:50 | 3580 | 664 | 9.1 | 5.6 | 302 | 6 |
| 2010-01-11T11:50 | 3608 | 661 | 8.9 | 5.5 | 299 | 6 |
| 2010-01-11T11:50 | 3638 | 659 | 8.7 | 5.5 | 295 | 5 |
| 2010-01-11T11:50 | 3669 | 656 | 8.4 | 5.5 | 288 | 6 |
| 2010-01-11T11:51 | 3697 | 654 | 8.3 | 5.4 | 281 | 6 |
| 2010-01-11T11:51 | 3724 | 652 | 8.2 | 5.1 | 277 | 7 |
| 2010-01-11T11:51 | 3749 | 650 | 8.4 | 4.6 | 276 | 7 |
| 2010-01-11T11:51 | 3775 | 648 | 8.3 | 4.5 | 277 | 7 |
| 2010-01-11T11:51 | 3798 | 646 | 8.1 | 4.3 | 277 | 8 |
| 2010-01-11T11:51 | 3823 | 644 | 8.0 | 4.2 | 276 | 8 |
| 2010-01-11T11:52 | 3849 | 642 | 7.9 | 3.5 | 276 | 9 |
| 2010-01-11T11:52 | 3875 | 640 | 7.9 | 3.4 | 277 | 9 |
| 2010-01-11T11:52 | 3900 | 638 | 8.0 | 3.2 | 277 | 9 |
| 2010-01-11T11:52 | 3926 | 636 | 7.8 | 3.0 | 277 | 9 |
| 2010-01-11T11:52 | 3954 | 634 | 7.7 | 2.9 | 276 | 10 |
| 2010-01-11T11:52 | 3981 | 632 | 7.5 | 2.9 | 276 | 10 |
| 2010-01-11T11:53 | 4006 | 630 | 7.3 | 2.7 | 276 | 10 |
| 2010-01-11T11:53 | 4032 | 628 | 7.1 | 2.6 | 277 | 10 |
| 2010-01-11T11:53 | 4059 | 626 | 6.9 | 2.7 | 277 | 11 |
| 2010-01-11T11:53 | 4086 | 624 | 6.6 | 2.6 | 276 | 11 |
| 2010-01-11T11:53 | 4112 | 622 | 6.4 | 2.5 | 275 | 11 |
| 2010-01-11T11:53 | 4138 | 620 | 6.3 | 2.0 | 274 | 11 |
| 2010-01-11T11:54 | 4163 | 618 | 6.1 | 2.2 | 275 | 11 |
| 2010-01-11T11:54 | 4188 | 616 | 5.9 | 2.3 | 276 | 11 |
| 2010-01-11T11:54 | 4214 | 615 | 5.7 | 2.5 | 277 | 11 |
| 2010-01-11T11:54 | 4238 | 613 | 5.7 | 2.1 | 278 | 11 |
| 2010-01-11T11:54 | 4263 | 611 | 5.5 | 1.9 | 279 | 11 |
| 2010-01-11T11:54 | 4287 | 609 | 5.3 | 1.5 | 280 | 11 |
| 2010-01-11T11:55 | 4313 | 607 | 5.1 | 1.7 | 281 | 11 |
| 2010-01-11T11:55 | 4340 | 605 | 4.9 | 1.7 | 281 | 11 |
| 2010-01-11T11:55 | 4365 | 603 | 4.7 | 1.6 | 282 | 11 |
| 2010-01-11T11:55 | 4394 | 601 | 4.5 | 1.6 | 282 | 11 |
| 2010-01-11T11:55 | 4423 | 599 | 4.3 | 1.1 | 283 | 10 |
| 2010-01-11T11:55 | 4450 | 597 | 4.1 | 1.4 | 284 | 9 |
| 2010-01-11T11:56 | 4477 | 595 | 3.9 | 1.4 | 286 | 9 |
| 2010-01-11T11:56 | 4501 | 593 | 3.8 | 1.3 | 288 | 9 |
| 2010-01-11T11:56 | 4526 | 591 | 3.9 | 1.1 | 289 | 9 |
| 2010-01-11T11:56 | 4551 | 590 | 3.8 | 1.1 | 290 | 9 |
| 2010-01-11T11:56 | 4577 | 588 | 3.7 | 0.6 | 292 | 9 |
| 2010-01-11T11:56 | 4603 | 586 | 3.5 | 0.7 | 293 | 9 |
| 2010-01-11T11:57 | 4629 | 584 | 3.4 | 0.6 | 294 | 9 |
| 2010-01-11T11:57 | 4655 | 582 | 3.2 | 0.4 | 295 | 9 |
| 2010-01-11T11:57 | 4680 | 580 | 3.0 | 0.4 | 297 | 9 |
| 2010-01-11T11:57 | 4706 | 578 | 2.8 | -0.3 | 299 | 9 |
| 2010-01-11T11:57 | 4733 | 577 | 2.7 | 0.0 | 301 | 9 |
| 2010-01-11T11:57 | 4760 | 575 | 2.5 | 0.0 | 302 | 9 |
| 2010-01-11T11:58 | 4786 | 573 | 2.3 | -0.1 | 301 | 9 |
| 2010-01-11T11:58 | 4812 | 571 | 2.1 | -0.2 | 301 | 8 |
| 2010-01-11T11:58 | 4838 | 569 | 1.9 | -0.4 | 301 | 8 |
| 2010-01-11T11:58 | 4863 | 567 | 1.6 | -0.8 | 301 | 8 |
| 2010-01-11T11:58 | 4889 | 566 | 1.5 | -1.5 | 301 | 8 |
| 2010-01-11T11:58 | 4913 | 564 | 1.4 | -2.0 | 300 | 8 |
| 2010-01-11T11:59 | 4937 | 562 | 1.3 | -2.0 | 299 | 8 |
| 2010-01-11T11:59 | 4962 | 560 | 1.2 | -1.2 | 297 | 9 |
| 2010-01-11T11:59 | 4987 | 559 | 1.0 | -1.1 | 295 | 9 |
| 2010-01-11T11:59 | 5013 | 557 | 0.9 | -0.7 | 294 | 9 |
| 2010-01-11T11:59 | 5038 | 555 | 0.9 | -0.8 | 293 | 8 |
| 2010-01-11T11:59 | 5063 | 553 | 0.9 | -1.3 | 292 | 8 |
| 2010-01-11T12:00 | 5089 | 552 | 0.8 | -2.0 | 290 | 8 |
| 2010-01-11T12:00 | 5114 | 550 | 0.6 | -2.3 | 286 | 7 |
| 2010-01-11T12:00 | 5139 | 548 | 0.6 | -3.0 | 284 | 7 |
| 2010-01-11T12:00 | 5164 | 547 | 0.8 | -3.8 | 283 | 7 |
| 2010-01-11T12:00 | 5190 | 545 | 0.6 | -4.1 | 282 | 7 |
| 2010-01-11T12:00 | 5217 | 543 | 0.4 | -4.6 | 280 | 7 |
| 2010-01-11T12:01 | 5243 | 541 | 0.3 | -4.9 | 277 | 7 |
| 2010-01-11T12:01 | 5269 | 539 | 0.1 | -5.5 | 276 | 7 |
| 2010-01-11T12:01 | 5295 | 538 | -0.2 | -5.1 | 276 | 7 |
| 2010-01-11T12:01 | 5323 | 536 | -0.4 | -4.9 | 278 | 7 |
| 2010-01-11T12:01 | 5350 | 534 | -0.6 | -5.0 | 280 | 7 |
| 2010-01-11T12:01 | 5376 | 532 | -0.8 | -5.1 | 281 | 7 |
| 2010-01-11T12:02 | 5403 | 531 | -1.0 | -5.1 | 281 | 7 |
| 2010-01-11T12:02 | 5430 | 529 | -1.3 | -5.4 | 281 | 7 |
| 2010-01-11T12:02 | 5457 | 527 | -1.5 | -4.4 | 280 | 7 |
| 2010-01-11T12:02 | 5484 | 525 | -1.7 | -4.0 | 278 | 7 |
| 2010-01-11T12:02 | 5510 | 523 | -1.8 | -4.2 | 275 | 7 |
| 2010-01-11T12:02 | 5538 | 522 | -2.0 | -4.0 | 274 | 7 |
| 2010-01-11T12:03 | 5566 | 520 | -1.9 | -6.4 | 274 | 7 |
| 2010-01-11T12:03 | 5595 | 518 | -2.0 | -6.1 | 275 | 7 |
| 2010-01-11T12:03 | 5621 | 516 | -2.2 | -6.3 | 276 | 6 |
| 2010-01-11T12:03 | 5648 | 514 | -2.4 | -6.3 | 276 | 6 |
| 2010-01-11T12:03 | 5675 | 513 | -2.7 | -6.2 | 276 | 6 |
| 2010-01-11T12:03 | 5703 | 511 | -2.9 | -6.3 | 276 | 6 |
| 2010-01-11T12:04 | 5732 | 509 | -3.0 | -6.7 | 276 | 5 |
| 2010-01-11T12:04 | 5759 | 507 | -3.0 | -7.1 | 277 | 4 |
| 2010-01-11T12:04 | 5787 | 506 | -3.0 | -7.9 | 278 | 4 |
| 2010-01-11T12:04 | 5814 | 504 | -3.2 | -8.4 | 280 | 4 |
| 2010-01-11T12:04 | 5840 | 502 | -3.1 | -8.5 | 282 | 4 |
| 2010-01-11T12:04 | 5868 | 500 | -3.3 | -9.4 | 285 | 4 |
| 2010-01-11T12:05 | 5896 | 499 | -3.3 | -9.1 | 288 | 5 |
| 2010-01-11T12:05 | 5925 | 497 | -3.5 | -8.4 | 292 | 5 |
| 2010-01-11T12:05 | 5953 | 495 | -3.7 | -7.9 | 296 | 5 |
| 2010-01-11T12:05 | 5982 | 493 | -3.9 | -7.7 | 300 | 6 |
| 2010-01-11T12:05 | 6009 | 492 | -4.1 | -7.6 | 303 | 6 |
| 2010-01-11T12:05 | 6036 | 490 | -4.4 | -7.8 | 303 | 7 |
| 2010-01-11T12:06 | 6063 | 488 | -4.6 | -7.4 | 301 | 7 |
| 2010-01-11T12:06 | 6089 | 487 | -4.6 | -7.4 | 300 | 6 |
| 2010-01-11T12:06 | 6118 | 485 | -4.7 | -7.8 | 299 | 6 |
| 2010-01-11T12:06 | 6145 | 483 | -4.8 | -7.9 | 298 | 6 |
| 2010-01-11T12:06 | 6171 | 482 | -4.9 | -8.5 | 296 | 6 |
| 2010-01-11T12:06 | 6198 | 480 | -5.1 | -8.5 | 293 | 6 |
| 2010-01-11T12:07 | 6226 | 478 | -5.1 | -9.0 | 290 | 5 |
| 2010-01-11T12:07 | 6253 | 477 | -5.2 | -9.3 | 288 | 5 |
| 2010-01-11T12:07 | 6279 | 475 | -5.3 | -10.5 | 285 | 5 |
| 2010-01-11T12:07 | 6307 | 473 | -5.5 | -11.1 | 284 | 5 |
| 2010-01-11T12:07 | 6335 | 472 | -5.7 | -11.7 | 283 | 5 |
| 2010-01-11T12:07 | 6363 | 470 | -5.9 | -11.6 | 283 | 4 |
| 2010-01-11T12:08 | 6392 | 468 | -6.2 | -11.6 | 283 | 5 |
| 2010-01-11T12:08 | 6421 | 466 | -6.4 | -11.7 | 284 | 5 |
| 2010-01-11T12:08 | 6448 | 465 | -6.5 | -12.0 | 286 | 5 |
| 2010-01-11T12:08 | 6474 | 463 | -6.6 | -12.1 | 289 | 5 |
| 2010-01-11T12:08 | 6499 | 462 | -6.8 | -12.2 | 291 | 5 |
| 2010-01-11T12:08 | 6526 | 460 | -6.9 | -12.2 | 292 | 5 |
| 2010-01-11T12:09 | 6553 | 459 | -7.0 | -12.5 | 294 | 5 |
| 2010-01-11T12:09 | 6579 | 457 | -7.2 | -12.4 | 297 | 5 |
| 2010-01-11T12:09 | 6605 | 456 | -7.3 | -12.4 | 298 | 5 |
| 2010-01-11T12:09 | 6630 | 454 | -7.6 | -11.2 | 298 | 5 |
| 2010-01-11T12:09 | 6655 | 453 | -7.7 | -11.9 | 298 | 5 |
| 2010-01-11T12:09 | 6682 | 451 | -7.9 | -11.9 | 300 | 5 |
| 2010-01-11T12:10 | 6709 | 450 | -8.1 | -11.9 | 303 | 5 |
| 2010-01-11T12:10 | 6734 | 448 | -8.4 | -12.0 | 307 | 5 |
| 2010-01-11T12:10 | 6760 | 447 | -8.6 | -11.9 | 309 | 5 |
| 2010-01-11T12:10 | 6786 | 445 | -8.9 | -11.8 | 310 | 5 |
| 2010-01-11T12:10 | 6812 | 444 | -9.1 | -12.2 | 311 | 4 |
| 2010-01-11T12:10 | 6839 | 442 | -9.4 | -11.8 | 312 | 4 |
| 2010-01-11T12:11 | 6867 | 440 | -9.6 | -11.5 | 315 | 4 |
| 2010-01-11T12:11 | 6895 | 439 | -9.8 | -11.4 | 318 | 3 |
| 2010-01-11T12:11 | 6923 | 437 | -9.9 | -11.2 | 320 | 3 |
| 2010-01-11T12:11 | 6949 | 436 | -10.1 | -11.3 | 319 | 2 |
| 2010-01-11T12:11 | 6975 | 434 | -10.2 | -11.6 | 316 | 2 |
| 2010-01-11T12:11 | 7002 | 433 | -10.4 | -11.5 | 312 | 2 |
| 2010-01-11T12:12 | 7030 | 431 | -10.6 | -11.8 | 307 | 2 |
| 2010-01-11T12:12 | 7059 | 430 | -10.8 | -11.9 | 301 | 2 |
| 2010-01-11T12:12 | 7088 | 428 | -11.1 | -11.9 | 297 | 2 |
| 2010-01-11T12:12 | 7116 | 426 | -11.3 | -11.9 | 296 | 3 |
| 2010-01-11T12:12 | 7145 | 425 | -11.5 | -12.5 | 297 | 3 |
| 2010-01-11T12:12 | 7173 | 423 | -11.7 | -12.4 | 300 | 3 |
| 2010-01-11T12:13 | 7202 | 422 | -11.9 | -12.4 | 304 | 3 |
| 2010-01-11T12:13 | 7230 | 420 | -12.1 | -12.6 | 306 | 2 |
| 2010-01-11T12:13 | 7257 | 419 | -12.2 | -12.8 | 306 | 2 |
| 2010-01-11T12:13 | 7284 | 417 | -12.4 | -13.1 | 303 | 2 |
| 2010-01-11T12:13 | 7313 | 416 | -12.7 | -13.6 | 299 | 2 |
| 2010-01-11T12:13 | 7340 | 414 | -12.9 | -13.6 | 296 | 2 |
| 2010-01-11T12:14 | 7369 | 413 | -13.1 | -13.7 | 298 | 2 |
| 2010-01-11T12:14 | 7397 | 411 | -13.3 | -13.9 | 304 | 2 |
| 2010-01-11T12:14 | 7426 | 410 | -13.6 | -14.0 | 311 | 1 |
| 2010-01-11T12:14 | 7452 | 408 | -13.7 | -14.3 | 313 | 1 |
| 2010-01-11T12:14 | 7478 | 407 | -13.9 | -15.0 | 306 | 1 |
| 2010-01-11T12:14 | 7505 | 405 | -14.0 | -14.8 | 296 | 1 |
| 2010-01-11T12:15 | 7531 | 404 | -14.2 | -14.8 | 296 | 1 |
| 2010-01-11T12:15 | 7558 | 402 | -14.3 | -14.9 | 309 | 1 |
| 2010-01-11T12:15 | 7585 | 401 | -14.4 | -14.9 | 328 | 1 |
| 2010-01-11T12:15 | 7613 | 400 | -14.5 | -15.2 | 345 | 2 |
| 2010-01-11T12:15 | 7640 | 398 | -14.5 | -16.4 | 354 | 2 |
| 2010-01-11T12:15 | 7667 | 397 | -14.6 | -16.5 | 0 | 3 |
| 2010-01-11T12:16 | 7694 | 395 | -14.7 | -16.8 | 3 | 3 |
| 2010-01-11T12:16 | 7721 | 394 | -14.6 | -18.3 | 4 | 3 |
| 2010-01-11T12:16 | 7748 | 393 | -14.8 | -18.0 | 5 | 2 |
| 2010-01-11T12:16 | 7777 | 391 | -14.9 | -16.9 | 12 | 2 |
| 2010-01-11T12:16 | 7806 | 390 | -15.1 | -17.7 | 27 | 1 |
| 2010-01-11T12:16 | 7836 | 388 | -15.3 | -17.6 | 49 | 1 |
| 2010-01-11T12:17 | 7866 | 386 | -15.5 | -17.6 | 70 | 1 |
| 2010-01-11T12:17 | 7891 | 385 | -15.5 | -17.4 | 84 | 2 |
| 2010-01-11T12:17 | 7916 | 384 | -15.5 | -17.5 | 96 | 1 |
| 2010-01-11T12:17 | 7943 | 383 | -15.6 | -18.0 | 107 | 1 |
| 2010-01-11T12:17 | 7969 | 381 | -15.8 | -18.6 | 113 | 1 |
| 2010-01-11T12:17 | 7997 | 380 | -16.0 | -18.6 | 115 | 1 |
| 2010-01-11T12:18 | 8026 | 378 | -16.3 | -18.5 | 112 | 1 |
| 2010-01-11T12:18 | 8053 | 377 | -16.5 | -18.6 | 110 | 1 |
| 2010-01-11T12:18 | 8080 | 376 | -16.5 | -18.7 | 113 | 2 |
| 2010-01-11T12:18 | 8107 | 374 | -16.5 | -19.5 | 117 | 2 |
| 2010-01-11T12:18 | 8135 | 373 | -16.7 | -20.6 | 121 | 3 |
| 2010-01-11T12:18 | 8161 | 372 | -16.8 | -21.5 | 123 | 3 |
| 2010-01-11T12:19 | 8189 | 370 | -17.0 | -21.8 | 124 | 3 |
| 2010-01-11T12:19 | 8215 | 369 | -17.2 | -21.8 | 119 | 3 |
| 2010-01-11T12:19 | 8242 | 368 | -17.3 | -22.3 | 114 | 3 |
| 2010-01-11T12:19 | 8269 | 366 | -17.3 | -22.5 | 111 | 3 |
| 2010-01-11T12:19 | 8298 | 365 | -17.5 | -22.9 | 110 | 3 |
| 2010-01-11T12:19 | 8327 | 364 | -17.8 | -22.8 | 107 | 3 |
| 2010-01-11T12:20 | 8356 | 362 | -18.0 | -22.8 | 100 | 2 |
| 2010-01-11T12:20 | 8385 | 361 | -18.3 | -22.0 | 90 | 2 |
| 2010-01-11T12:20 | 8411 | 359 | -18.4 | -22.1 | 81 | 2 |
| 2010-01-11T12:20 | 8437 | 358 | -18.6 | -22.5 | 77 | 3 |
| 2010-01-11T12:20 | 8464 | 357 | -18.6 | -24.8 | 76 | 3 |
| 2010-01-11T12:20 | 8492 | 356 | -18.8 | -24.5 | 75 | 4 |
| 2010-01-11T12:21 | 8520 | 354 | -19.0 | -23.6 | 74 | 4 |
| 2010-01-11T12:21 | 8549 | 353 | -19.2 | -24.0 | 74 | 3 |
| 2010-01-11T12:21 | 8577 | 351 | -19.4 | -26.1 | 77 | 3 |
| 2010-01-11T12:21 | 8607 | 350 | -19.6 | -26.8 | 81 | 3 |
| 2010-01-11T12:21 | 8637 | 349 | -19.8 | -26.8 | 86 | 4 |
| 2010-01-11T12:21 | 8667 | 347 | -20.1 | -25.9 | 92 | 4 |
| 2010-01-11T12:22 | 8696 | 346 | -20.3 | -24.2 | 97 | 4 |
| 2010-01-11T12:22 | 8723 | 345 | -20.5 | -24.4 | 101 | 4 |
| 2010-01-11T12:22 | 8751 | 343 | -20.6 | -24.6 | 104 | 4 |
| 2010-01-11T12:22 | 8778 | 342 | -20.9 | -24.9 | 106 | 4 |
| 2010-01-11T12:22 | 8804 | 341 | -21.1 | -24.9 | 108 | 4 |
| 2010-01-11T12:22 | 8831 | 340 | -21.3 | -24.8 | 112 | 3 |
| 2010-01-11T12:23 | 8859 | 338 | -21.4 | -25.0 | 115 | 3 |
| 2010-01-11T12:23 | 8888 | 337 | -21.6 | -25.6 | 118 | 3 |
| 2010-01-11T12:23 | 8917 | 336 | -21.8 | -26.0 | 118 | 3 |
| 2010-01-11T12:23 | 8943 | 335 | -22.1 | -26.2 | 115 | 3 |
| 2010-01-11T12:23 | 8970 | 333 | -22.3 | -26.6 | 112 | 3 |
| 2010-01-11T12:23 | 8998 | 332 | -22.5 | -27.1 | 109 | 3 |
| 2010-01-11T12:24 | 9025 | 331 | -22.8 | -27.1 | 104 | 4 |
| 2010-01-11T12:24 | 9055 | 329 | -23.0 | -27.3 | 97 | 4 |
| 2010-01-11T12:24 | 9083 | 328 | -23.1 | -28.8 | 92 | 4 |
| 2010-01-11T12:24 | 9109 | 327 | -23.2 | -30.0 | 86 | 4 |
| 2010-01-11T12:24 | 9138 | 326 | -23.5 | -30.6 | 80 | 4 |
| 2010-01-11T12:24 | 9166 | 325 | -23.7 | -31.3 | 76 | 5 |
| 2010-01-11T12:25 | 9196 | 323 | -24.0 | -32.0 | 75 | 5 |
| 2010-01-11T12:25 | 9226 | 322 | -24.2 | -32.3 | 74 | 5 |
| 2010-01-11T12:25 | 9256 | 321 | -24.5 | -32.5 | 74 | 5 |
| 2010-01-11T12:25 | 9285 | 319 | -24.8 | -32.6 | 75 | 5 |
| 2010-01-11T12:25 | 9314 | 318 | -25.0 | -32.9 | 76 | 5 |
| 2010-01-11T12:25 | 9341 | 317 | -25.3 | -32.8 | 77 | 5 |
| 2010-01-11T12:26 | 9369 | 316 | -25.6 | -33.0 | 77 | 6 |
| 2010-01-11T12:26 | 9395 | 314 | -25.9 | -32.9 | 77 | 6 |
| 2010-01-11T12:26 | 9422 | 313 | -26.1 | -32.6 | 77 | 6 |
| 2010-01-11T12:26 | 9449 | 312 | -26.3 | -32.4 | 79 | 5 |
| 2010-01-11T12:26 | 9476 | 311 | -26.6 | -32.8 | 82 | 6 |
| 2010-01-11T12:26 | 9503 | 310 | -26.8 | -32.5 | 84 | 6 |
| 2010-01-11T12:27 | 9530 | 309 | -27.0 | -32.8 | 84 | 6 |
| 2010-01-11T12:27 | 9557 | 307 | -27.2 | -33.0 | 84 | 6 |
| 2010-01-11T12:27 | 9584 | 306 | -27.5 | -33.2 | 83 | 6 |
| 2010-01-11T12:27 | 9610 | 305 | -27.7 | -33.1 | 84 | 6 |
| 2010-01-11T12:27 | 9636 | 304 | -27.9 | -32.3 | 87 | 6 |
| 2010-01-11T12:27 | 9661 | 303 | -28.0 | -32.5 | 90 | 6 |
| 2010-01-11T12:28 | 9688 | 302 | -28.1 | -34.7 | 91 | 7 |
| 2010-01-11T12:28 | 9716 | 301 | -28.3 | -35.8 | 91 | 7 |
| 2010-01-11T12:28 | 9744 | 300 | -28.5 | -35.7 | 91 | 7 |
| 2010-01-11T12:28 | 9771 | 298 | -28.7 | -36.0 | 92 | 7 |
| 2010-01-11T12:28 | 9800 | 297 | -28.9 | -36.7 | 93 | 7 |
| 2010-01-11T12:28 | 9828 | 296 | -29.1 | -37.0 | 93 | 7 |
| 2010-01-11T12:29 | 9856 | 295 | -29.2 | -36.5 | 92 | 7 |
| 2010-01-11T12:29 | 9882 | 294 | -29.3 | -37.5 | 91 | 7 |
| 2010-01-11T12:29 | 9910 | 293 | -29.5 | -38.6 | 90 | 8 |
| 2010-01-11T12:29 | 9939 | 292 | -29.7 | -38.6 | 90 | 8 |
| 2010-01-11T12:29 | 9967 | 290 | -29.9 | -38.9 | 88 | 8 |
| 2010-01-11T12:29 | 9993 | 289 | -30.0 | -39.4 | 86 | 8 |
| 2010-01-11T12:30 | 10022 | 288 | -30.2 | -39.5 | 83 | 7 |
| 2010-01-11T12:30 | 10049 | 287 | -30.5 | -39.4 | 80 | 7 |
| 2010-01-11T12:30 | 10075 | 286 | -30.7 | -39.3 | 78 | 7 |
| 2010-01-11T12:30 | 10102 | 285 | -30.9 | -39.4 | 76 | 7 |
| 2010-01-11T12:30 | 10129 | 284 | -31.1 | -39.7 | 75 | 6 |
| 2010-01-11T12:30 | 10155 | 283 | -31.3 | -39.9 | 75 | 6 |
| 2010-01-11T12:31 | 10182 | 282 | -31.6 | -40.0 | 75 | 6 |
| 2010-01-11T12:31 | 10209 | 281 | -31.8 | -39.7 | 74 | 6 |
| 2010-01-11T12:31 | 10233 | 280 | -32.1 | -39.3 | 73 | 6 |
| 2010-01-11T12:31 | 10259 | 279 | -32.3 | -39.1 | 74 | 6 |
| 2010-01-11T12:31 | 10285 | 278 | -31.9 | -41.8 | 76 | 6 |
| 2010-01-11T12:31 | 10310 | 277 | -32.0 | -43.1 | 79 | 6 |
| 2010-01-11T12:32 | 10337 | 276 | -32.2 | -44.0 | 82 | 7 |
| 2010-01-11T12:32 | 10362 | 275 | -32.4 | -44.7 | 85 | 7 |
| 2010-01-11T12:32 | 10388 | 274 | -32.6 | -45.3 | 86 | 7 |
| 2010-01-11T12:32 | 10414 | 273 | -32.7 | -47.1 | 88 | 8 |
| 2010-01-11T12:32 | 10440 | 272 | -32.9 | -48.2 | 88 | 8 |
| 2010-01-11T12:32 | 10467 | 271 | -33.2 | -49.0 | 88 | 8 |
| 2010-01-11T12:33 | 10493 | 270 | -33.4 | -49.0 | 88 | 8 |
| 2010-01-11T12:33 | 10517 | 269 | -33.6 | -49.2 | 88 | 9 |
| 2010-01-11T12:33 | 10540 | 268 | -33.9 | -49.4 | 89 | 9 |
| 2010-01-11T12:33 | 10564 | 267 | -34.1 | -48.3 | 89 | 9 |
| 2010-01-11T12:33 | 10589 | 266 | -34.3 | -48.1 | 89 | 9 |
| 2010-01-11T12:33 | 10614 | 265 | -34.6 | -48.1 | 89 | 9 |
| 2010-01-11T12:34 | 10639 | 264 | -34.8 | -48.3 | 89 | 9 |
| 2010-01-11T12:34 | 10666 | 263 | -35.0 | -48.2 | 87 | 9 |
| 2010-01-11T12:34 | 10694 | 262 | -35.3 | -48.6 | 85 | 8 |
| 2010-01-11T12:34 | 10722 | 261 | -35.5 | -49.6 | 83 | 8 |
| 2010-01-11T12:34 | 10750 | 260 | -35.8 | -50.0 | 82 | 9 |
| 2010-01-11T12:34 | 10776 | 259 | -36.0 | -50.3 | 82 | 9 |
| 2010-01-11T12:35 | 10803 | 258 | -36.3 | -50.4 | 82 | 9 |
| 2010-01-11T12:35 | 10830 | 257 | -36.6 | -50.5 | 83 | 9 |
| 2010-01-11T12:35 | 10855 | 256 | -36.8 | -50.3 | 83 | 9 |
| 2010-01-11T12:35 | 10882 | 255 | -37.1 | -50.1 | 83 | 9 |
| 2010-01-11T12:35 | 10910 | 254 | -37.3 | -50.1 | 84 | 9 |
| 2010-01-11T12:35 | 10938 | 253 | -37.6 | -50.0 | 84 | 9 |
| 2010-01-11T12:36 | 10965 | 252 | -37.8 | -49.9 | 83 | 9 |
| 2010-01-11T12:36 | 10993 | 251 | -38.1 | -49.8 | 83 | 9 |
| 2010-01-11T12:36 | 11021 | 250 | -38.4 | -50.1 | 83 | 10 |
| 2010-01-11T12:36 | 11047 | 249 | -38.6 | -49.7 | 84 | 10 |
| 2010-01-11T12:36 | 11074 | 248 | -38.8 | -49.3 | 86 | 11 |
| 2010-01-11T12:36 | 11100 | 247 | -39.0 | -48.6 | 87 | 11 |
| 2010-01-11T12:37 | 11127 | 246 | -39.2 | -48.2 | 87 | 11 |
| 2010-01-11T12:37 | 11154 | 245 | -39.4 | -48.0 | 87 | 11 |
| 2010-01-11T12:37 | 11182 | 244 | -39.7 | -48.0 | 87 | 11 |
| 2010-01-11T12:37 | 11213 | 243 | -40.0 | -48.3 | 86 | 12 |
| 2010-01-11T12:37 | 11244 | 242 | -40.2 | -48.7 | 84 | 12 |
| 2010-01-11T12:37 | 11275 | 241 | -40.5 | -48.9 | 83 | 12 |
| 2010-01-11T12:38 | 11304 | 240 | -40.8 | -49.7 | 82 | 12 |
| 2010-01-11T12:38 | 11332 | 239 | -41.0 | -50.9 | 81 | 13 |
| 2010-01-11T12:38 | 11359 | 238 | -41.2 | -51.5 | 81 | 13 |
| 2010-01-11T12:38 | 11387 | 237 | -41.5 | -52.2 | 80 | 13 |
| 2010-01-11T12:38 | 11415 | 236 | -41.7 | -53.1 | 79 | 13 |
| 2010-01-11T12:38 | 11443 | 235 | -41.9 | -53.7 | 78 | 13 |
| 2010-01-11T12:39 | 11469 | 234 | -42.0 | -54.7 | 78 | 14 |
| 2010-01-11T12:39 | 11496 | 233 | -42.3 | -55.8 | 78 | 14 |
| 2010-01-11T12:39 | 11525 | 232 | -42.5 | -56.2 | 79 | 14 |
| 2010-01-11T12:39 | 11551 | 231 | -42.8 | -56.4 | 80 | 14 |
| 2010-01-11T12:39 | 11578 | 230 | -43.0 | -56.7 | 81 | 14 |
| 2010-01-11T12:39 | 11608 | 229 | -43.3 | -57.1 | 82 | 14 |
| 2010-01-11T12:40 | 11637 | 228 | -43.5 | -57.3 | 84 | 14 |
| 2010-01-11T12:40 | 11665 | 227 | -43.8 | -57.6 | 85 | 14 |
| 2010-01-11T12:40 | 11697 | 226 | -44.0 | -58.0 | 86 | 15 |
| 2010-01-11T12:40 | 11726 | 225 | -44.3 | -58.2 | 86 | 15 |
| 2010-01-11T12:40 | 11755 | 224 | -44.6 | -58.4 | 88 | 15 |
| 2010-01-11T12:40 | 11785 | 223 | -44.8 | -58.8 | 89 | 15 |
| 2010-01-11T12:41 | 11815 | 222 | -45.0 | -59.7 | 90 | 15 |
| 2010-01-11T12:41 | 11845 | 221 | -45.2 | -60.7 | 91 | 15 |
| 2010-01-11T12:41 | 11877 | 220 | -45.5 | -61.3 | 92 | 15 |
| 2010-01-11T12:41 | 11910 | 219 | -45.8 | -61.8 | 92 | 16 |
| 2010-01-11T12:41 | 11943 | 218 | -46.1 | -62.6 | 92 | 16 |
| 2010-01-11T12:41 | 11975 | 217 | -46.3 | -63.9 | 93 | 16 |
| 2010-01-11T12:42 | 12006 | 216 | -46.6 | -64.9 | 95 | 16 |
| 2010-01-11T12:42 | 12040 | 215 | -46.8 | -66.0 | 96 | 16 |
| 2010-01-11T12:42 | 12071 | 214 | -47.1 | -66.3 | 98 | 16 |
| 2010-01-11T12:42 | 12102 | 213 | -47.3 | -66.4 | 99 | 16 |
| 2010-01-11T12:42 | 12133 | 212 | -47.6 | -66.1 | 101 | 16 |
| 2010-01-11T12:42 | 12166 | 211 | -47.8 | -65.1 | 103 | 16 |
| 2010-01-11T12:43 | 12196 | 210 | -48.1 | -63.8 | 104 | 16 |
| 2010-01-11T12:43 | 12228 | 209 | -48.3 | -62.6 | 104 | 16 |
| 2010-01-11T12:43 | 12258 | 208 | -48.6 | -61.9 | 104 | 16 |
| 2010-01-11T12:43 | 12290 | 207 | -48.9 | -61.5 | 104 | 16 |
| 2010-01-11T12:43 | 12321 | 206 | -49.2 | -61.1 | 104 | 16 |
| 2010-01-11T12:43 | 12353 | 205 | -49.5 | -60.8 | 104 | 16 |
| 2010-01-11T12:44 | 12384 | 204 | -49.8 | -60.5 | 104 | 15 |
| 2010-01-11T12:44 | 12413 | 203 | -50.1 | -60.4 | 105 | 15 |
| 2010-01-11T12:44 | 12442 | 202 | -50.3 | -60.0 | 106 | 15 |
| 2010-01-11T12:44 | 12470 | 201 | -50.6 | -59.8 | 107 | 15 |
| 2010-01-11T12:44 | 12499 | 200 | -50.8 | -59.7 | 107 | 15 |
| 2010-01-11T12:44 | 12528 | 199 | -51.1 | -59.8 | 108 | 14 |
| 2010-01-11T12:45 | 12558 | 198 | -51.3 | -59.7 | 109 | 14 |
| 2010-01-11T12:45 | 12588 | 198 | -51.5 | -59.6 | 110 | 14 |
| 2010-01-11T12:45 | 12616 | 197 | -51.7 | -59.5 | 111 | 14 |
| 2010-01-11T12:45 | 12644 | 196 | -52.0 | -59.5 | 112 | 14 |
| 2010-01-11T12:45 | 12673 | 195 | -52.3 | -59.7 | 112 | 14 |
| 2010-01-11T12:45 | 12702 | 194 | -52.5 | -59.9 | 113 | 14 |
| 2010-01-11T12:46 | 12731 | 193 | -52.8 | -60.1 | 115 | 14 |
| 2010-01-11T12:46 | 12760 | 192 | -53.0 | -60.4 | 116 | 14 |
| 2010-01-11T12:46 | 12789 | 192 | -53.3 | -60.8 | 116 | 14 |
| 2010-01-11T12:46 | 12818 | 191 | -53.6 | -61.2 | 116 | 14 |
| 2010-01-11T12:46 | 12846 | 190 | -53.8 | -61.7 | 117 | 14 |
| 2010-01-11T12:46 | 12874 | 189 | -54.1 | -62.0 | 118 | 14 |
| 2010-01-11T12:47 | 12903 | 188 | -54.3 | -62.5 | 119 | 14 |
| 2010-01-11T12:47 | 12931 | 187 | -54.6 | -62.9 | 120 | 14 |
| 2010-01-11T12:47 | 12959 | 187 | -54.8 | -63.5 | 122 | 14 |
| 2010-01-11T12:47 | 12987 | 186 | -55.1 | -64.0 | 123 | 14 |
| 2010-01-11T12:47 | 13017 | 185 | -55.3 | -64.5 | 124 | 14 |
| 2010-01-11T12:47 | 13046 | 184 | -55.6 | -64.9 | 124 | 14 |
| 2010-01-11T12:48 | 13074 | 183 | -55.9 | -65.2 | 125 | 14 |
| 2010-01-11T12:48 | 13103 | 182 | -56.2 | -65.5 | 126 | 14 |
| 2010-01-11T12:48 | 13133 | 181 | -56.5 | -65.8 | 127 | 14 |
| 2010-01-11T12:48 | 13161 | 181 | -56.7 | -66.0 | 127 | 14 |
| 2010-01-11T12:48 | 13190 | 180 | -56.9 | -66.4 | 127 | 14 |
| 2010-01-11T12:48 | 13218 | 179 | -57.2 | -66.8 | 126 | 13 |
| 2010-01-11T12:49 | 13247 | 178 | -57.4 | -67.3 | 126 | 13 |
| 2010-01-11T12:49 | 13275 | 177 | -57.6 | -67.7 | 126 | 13 |
| 2010-01-11T12:49 | 13303 | 177 | -57.9 | -68.1 | 125 | 13 |
| 2010-01-11T12:49 | 13331 | 176 | -58.2 | -68.3 | 126 | 13 |
| 2010-01-11T12:49 | 13360 | 175 | -58.4 | -68.5 | 127 | 13 |
| 2010-01-11T12:49 | 13389 | 174 | -58.7 | -68.6 | 128 | 13 |
| 2010-01-11T12:50 | 13418 | 173 | -59.0 | -68.6 | 129 | 13 |
| 2010-01-11T12:50 | 13447 | 173 | -59.3 | -68.5 | 130 | 13 |
| 2010-01-11T12:50 | 13475 | 172 | -59.5 | -68.4 | 131 | 13 |
| 2010-01-11T12:50 | 13503 | 171 | -59.8 | -68.4 | 131 | 13 |
| 2010-01-11T12:50 | 13531 | 170 | -60.0 | -68.4 | 133 | 13 |
| 2010-01-11T12:50 | 13559 | 170 | -60.2 | -68.5 | 134 | 13 |
| 2010-01-11T12:51 | 13587 | 169 | -60.5 | -68.5 | 136 | 13 |
| 2010-01-11T12:51 | 13615 | 168 | -60.7 | -68.7 | 136 | 13 |
| 2010-01-11T12:51 | 13644 | 167 | -61.0 | -68.9 | 137 | 13 |
| 2010-01-11T12:51 | 13673 | 167 | -61.3 | -69.3 | 137 | 13 |
| 2010-01-11T12:51 | 13703 | 166 | -61.5 | -69.8 | 137 | 12 |
| 2010-01-11T12:51 | 13730 | 165 | -61.8 | -70.4 | 137 | 12 |
| 2010-01-11T12:52 | 13758 | 164 | -62.0 | -70.8 | 137 | 12 |
| 2010-01-11T12:52 | 13786 | 164 | -62.3 | -71.1 | 137 | 12 |
| 2010-01-11T12:52 | 13814 | 163 | -62.6 | -71.1 | 137 | 12 |
| 2010-01-11T12:52 | 13845 | 162 | -62.8 | -71.3 | 136 | 12 |
| 2010-01-11T12:52 | 13874 | 161 | -63.1 | -71.6 | 136 | 12 |
| 2010-01-11T12:52 | 13903 | 160 | -63.4 | -71.8 | 135 | 12 |
| 2010-01-11T12:53 | 13933 | 160 | -63.7 | -71.9 | 134 | 11 |
| 2010-01-11T12:53 | 13961 | 159 | -64.0 | -71.9 | 134 | 11 |
| 2010-01-11T12:53 | 13988 | 158 | -64.2 | -72.0 | 135 | 11 |
| 2010-01-11T12:53 | 14018 | 157 | -64.5 | -72.1 | 135 | 11 |
| 2010-01-11T12:53 | 14046 | 157 | -64.7 | -72.4 | 135 | 11 |
| 2010-01-11T12:53 | 14075 | 156 | -65.0 | -72.9 | 136 | 11 |
| 2010-01-11T12:54 | 14105 | 155 | -65.3 | -73.3 | 137 | 11 |
| 2010-01-11T12:54 | 14135 | 154 | -65.5 | -73.8 | 138 | 11 |
| 2010-01-11T12:54 | 14163 | 154 | -65.8 | -74.2 | 139 | 11 |
| 2010-01-11T12:54 | 14193 | 153 | -66.0 | -74.7 | 140 | 11 |
| 2010-01-11T12:54 | 14222 | 152 | -66.2 | -75.4 | 140 | 12 |
| 2010-01-11T12:54 | 14251 | 152 | -66.4 | -76.1 | 141 | 12 |
| 2010-01-11T12:55 | 14281 | 151 | -66.6 | -76.8 | 141 | 12 |
| 2010-01-11T12:55 | 14311 | 150 | -66.8 | -77.4 | 141 | 12 |
| 2010-01-11T12:55 | 14341 | 149 | -67.1 | -78.0 | 140 | 12 |
| 2010-01-11T12:55 | 14373 | 148 | -67.4 | -78.5 | 139 | 13 |
| 2010-01-11T12:55 | 14403 | 148 | -67.7 | -79.0 | 139 | 13 |
| 2010-01-11T12:55 | 14434 | 147 | -68.0 | -79.3 | 139 | 13 |
| 2010-01-11T12:56 | 14464 | 146 | -68.3 | -79.7 | 140 | 13 |
| 2010-01-11T12:56 | 14495 | 146 | -68.5 | -80.0 | 140 | 13 |
| 2010-01-11T12:56 | 14525 | 145 | -68.8 | -80.2 | 141 | 13 |
| 2010-01-11T12:56 | 14555 | 144 | -69.1 | -80.4 | 141 | 13 |
| 2010-01-11T12:56 | 14583 | 143 | -69.4 | -80.6 | 142 | 13 |
| 2010-01-11T12:56 | 14612 | 143 | -69.6 | -80.8 | 142 | 13 |
| 2010-01-11T12:57 | 14641 | 142 | -69.9 | -80.9 | 142 | 13 |
| 2010-01-11T12:57 | 14670 | 141 | -70.2 | -81.0 | 142 | 14 |
| 2010-01-11T12:57 | 14698 | 141 | -70.4 | -81.1 | 141 | 14 |
| 2010-01-11T12:57 | 14728 | 140 | -70.7 | -81.1 | 140 | 14 |
| 2010-01-11T12:57 | 14757 | 139 | -71.0 | -81.2 | 139 | 14 |
| 2010-01-11T12:57 | 14788 | 139 | -71.3 | -81.3 | 138 | 14 |
| 2010-01-11T12:58 | 14817 | 138 | -71.5 | -81.4 | 137 | 14 |
| 2010-01-11T12:58 | 14849 | 137 | -71.8 | -81.5 | 137 | 14 |
| 2010-01-11T12:58 | 14880 | 136 | -71.9 | -81.6 | 137 | 15 |
| 2010-01-11T12:58 | 14910 | 136 | -72.2 | -81.8 | 138 | 15 |
| 2010-01-11T12:58 | 14940 | 135 | -72.4 | -81.9 | 138 | 16 |
| 2010-01-11T12:58 | 14970 | 134 | -72.7 | -82.0 | 138 | 16 |
| 2010-01-11T12:59 | 14999 | 134 | -73.0 | -82.2 | 138 | 17 |
| 2010-01-11T12:59 | 15029 | 133 | -73.2 | -82.4 | 139 | 17 |
| 2010-01-11T12:59 | 15060 | 132 | -73.5 | -82.6 | 139 | 18 |
| 2010-01-11T12:59 | 15088 | 132 | -73.7 | -82.6 | 139 | 18 |
| 2010-01-11T12:59 | 15118 | 131 | -74.0 | -82.8 | 140 | 18 |
| 2010-01-11T12:59 | 15150 | 130 | -74.2 | -82.8 | 140 | 19 |
| 2010-01-11T13:00 | 15181 | 130 | -74.4 | -82.9 | 140 | 19 |
| 2010-01-11T13:00 | 15212 | 129 | -74.7 | -83.0 | 140 | 19 |
| 2010-01-11T13:00 | 15241 | 128 | -75.0 | -83.1 | 140 | 19 |
| 2010-01-11T13:00 | 15272 | 128 | -75.3 | -83.2 | 140 | 19 |
| 2010-01-11T13:00 | 15304 | 127 | -75.5 | -83.3 | 140 | 20 |
| 2010-01-11T13:00 | 15335 | 126 | -75.8 | -83.4 | 140 | 20 |
| 2010-01-11T13:01 | 15366 | 125 | -76.1 | -83.6 | 139 | 19 |
| 2010-01-11T13:01 | 15396 | 125 | -76.3 | -83.8 | 139 | 19 |
| 2010-01-11T13:01 | 15425 | 124 | -76.6 | -84.0 | 139 | 20 |
| 2010-01-11T13:01 | 15457 | 124 | -76.9 | -84.3 | 139 | 19 |
| 2010-01-11T13:01 | 15486 | 123 | -77.2 | -84.6 | 139 | 19 |
| 2010-01-11T13:01 | 15519 | 122 | -77.4 | -84.9 | 138 | 19 |
| 2010-01-11T13:02 | 15549 | 122 | -77.6 | -85.1 | 136 | 19 |
| 2010-01-11T13:02 | 15580 | 121 | -77.9 | -85.4 | 133 | 19 |
| 2010-01-11T13:02 | 15609 | 120 | -78.1 | -85.6 | 130 | 19 |
| 2010-01-11T13:02 | 15637 | 120 | -78.3 | -85.7 | 127 | 20 |
| 2010-01-11T13:02 | 15668 | 119 | -78.1 | -85.6 | 126 | 20 |
| 2010-01-11T13:02 | 15698 | 118 | -78.2 | -85.9 | 125 | 20 |
| 2010-01-11T13:03 | 15729 | 118 | -78.5 | -86.3 | 125 | 20 |
| 2010-01-11T13:03 | 15760 | 117 | -78.8 | -86.7 | 124 | 20 |
| 2010-01-11T13:03 | 15790 | 116 | -79.1 | -87.0 | 124 | 20 |
| 2010-01-11T13:03 | 15820 | 116 | -79.4 | -87.3 | 124 | 20 |
| 2010-01-11T13:03 | 15850 | 115 | -79.7 | -87.7 | 124 | 20 |
| 2010-01-11T13:03 | 15879 | 115 | -80.0 | -87.9 | 124 | 20 |
| 2010-01-11T13:04 | 15910 | 114 | -80.3 | -88.2 | 124 | 20 |
| 2010-01-11T13:04 | 15939 | 113 | -80.5 | -88.5 | 124 | 21 |
| 2010-01-11T13:04 | 15969 | 113 | -80.8 | -88.8 | 124 | 21 |
| 2010-01-11T13:04 | 15999 | 112 | -81.1 | -89.1 | 125 | 21 |
| 2010-01-11T13:04 | 16028 | 112 | -81.3 | -89.3 | 126 | 21 |
| 2010-01-11T13:04 | 16058 | 111 | -81.6 | -89.6 | 126 | 21 |
| 2010-01-11T13:05 | 16087 | 111 | -81.9 | -89.8 | 125 | 21 |
| 2010-01-11T13:05 | 16117 | 110 | -82.1 | -90.1 | 125 | 21 |
| 2010-01-11T13:05 | 16148 | 109 | -82.4 | -90.4 | 124 | 21 |
| 2010-01-11T13:05 | 16181 | 109 | -82.7 | -90.6 | 123 | 21 |
| 2010-01-11T13:05 | 16209 | 108 | -83.0 | -90.9 | 123 | 21 |
| 2010-01-11T13:05 | 16239 | 108 | -83.3 | -91.1 | 121 | 21 |
| 2010-01-11T13:06 | 16269 | 107 | -83.5 | -91.3 | 119 | 21 |
| 2010-01-11T13:06 | 16299 | 106 | -83.8 | -91.5 | 117 | 21 |
| 2010-01-11T13:06 | 16329 | 106 | -83.9 | -91.6 | 116 | 22 |
| 2010-01-11T13:06 | 16359 | 105 | -84.2 | -91.8 | 115 | 22 |
| 2010-01-11T13:06 | 16389 | 105 | -84.4 | -92.0 | 113 | 22 |
| 2010-01-11T13:06 | 16423 | 104 | -84.6 | -92.2 | 110 | 22 |
| 2010-01-11T13:07 | 16456 | 103 | -84.2 | -91.7 | 105 | 21 |
| 2010-01-11T13:07 | 16490 | 103 | -84.0 | -91.5 | 102 | 21 |
| 2010-01-11T13:07 | 16522 | 102 | -83.8 | -91.3 | 99 | 21 |
| 2010-01-11T13:07 | 16555 | 102 | -83.9 | -91.4 | 97 | 21 |
| 2010-01-11T13:07 | 16588 | 101 | -84.0 | -91.4 | 95 | 21 |
| 2010-01-11T13:07 | 16621 | 100 | -84.1 | -91.5 | 93 | 21 |
| 2010-01-11T13:08 | 16655 | 100 | -84.4 | -91.7 | 92 | 21 |
| 2010-01-11T13:08 | 16687 | 99 | -84.6 | -91.8 | 91 | 21 |
| 2010-01-11T13:08 | 16718 | 99 | -84.9 | -92.0 | 89 | 21 |
| 2010-01-11T13:08 | 16748 | 98 | -85.1 | -92.2 | 87 | 21 |
| 2010-01-11T13:08 | 16776 | 98 | -85.3 | -92.4 | 86 | 21 |
| 2010-01-11T13:08 | 16803 | 97 | -85.5 | -92.5 | 84 | 21 |
| 2010-01-11T13:09 | 16831 | 97 | -85.6 | -92.6 | 82 | 21 |
| 2010-01-11T13:09 | 16858 | 96 | -85.5 | -92.5 | 79 | 21 |
| 2010-01-11T13:09 | 16887 | 96 | -85.2 | -92.2 | 74 | 20 |
| 2010-01-11T13:09 | 16914 | 95 | -83.9 | -91.1 | 69 | 19 |
| 2010-01-11T13:09 | 16941 | 95 | -82.8 | -90.0 | 65 | 17 |
| 2010-01-11T13:09 | 16968 | 94 | -82.3 | -89.4 | 62 | 16 |
| 2010-01-11T13:10 | 16997 | 94 | -82.2 | -89.3 | 60 | 15 |
| 2010-01-11T13:10 | 17028 | 93 | -81.9 | -89.2 | 58 | 13 |
| 2010-01-11T13:10 | 17057 | 93 | -82.0 | -89.2 | 57 | 11 |
| 2010-01-11T13:10 | 17087 | 92 | -81.8 | -89.1 | 55 | 10 |
| 2010-01-11T13:10 | 17119 | 92 | -81.8 | -89.1 | 51 | 9 |
| 2010-01-11T13:10 | 17151 | 91 | -81.7 | -89.1 | 47 | 7 |
| 2010-01-11T13:11 | 17180 | 91 | -81.8 | -89.2 | 43 | 7 |
| 2010-01-11T13:11 | 17210 | 90 | -81.6 | -89.1 | 37 | 5 |
| 2010-01-11T13:11 | 17241 | 90 | -81.5 | -89.1 | 30 | 4 |
| 2010-01-11T13:11 | 17273 | 89 | -81.6 | -89.1 | 21 | 3 |
| 2010-01-11T13:11 | 17303 | 89 | -81.7 | -89.3 | 8 | 2 |
| 2010-01-11T13:11 | 17336 | 88 | -81.8 | -89.5 | 346 | 2 |
| 2010-01-11T13:12 | 17367 | 88 | -82.0 | -89.7 | 316 | 2 |
| 2010-01-11T13:12 | 17399 | 87 | -82.2 | -89.9 | 293 | 2 |
| 2010-01-11T13:12 | 17430 | 87 | -82.5 | -90.2 | 284 | 2 |
| 2010-01-11T13:12 | 17462 | 86 | -82.7 | -90.4 | 279 | 2 |
| 2010-01-11T13:12 | 17494 | 86 | -83.0 | -90.7 | 272 | 2 |
| 2010-01-11T13:12 | 17524 | 85 | -83.3 | -91.0 | 267 | 1 |
| 2010-01-11T13:13 | 17553 | 85 | -83.5 | -91.2 | 263 | 1 |
| 2010-01-11T13:13 | 17583 | 84 | -83.8 | -91.5 | 256 | 1 |
| 2010-01-11T13:13 | 17614 | 84 | -84.1 | -91.8 | 248 | 1 |
| 2010-01-11T13:13 | 17643 | 84 | -84.4 | -92.0 | 248 | 1 |
| 2010-01-11T13:13 | 17674 | 83 | -84.6 | -92.3 | 268 | 1 |
| 2010-01-11T13:13 | 17703 | 83 | -84.7 | -92.4 | 289 | 2 |
| 2010-01-11T13:14 | 17732 | 82 | -84.3 | -92.0 | 296 | 2 |
| 2010-01-11T13:14 | 17761 | 82 | -84.1 | -91.8 | 294 | 3 |
| 2010-01-11T13:14 | 17792 | 81 | -84.0 | -91.7 | 287 | 4 |
| 2010-01-11T13:14 | 17820 | 81 | -83.8 | -91.5 | 281 | 6 |
| 2010-01-11T13:14 | 17849 | 80 | -83.2 | -91.0 | 277 | 7 |
| 2010-01-11T13:14 | 17879 | 80 | -82.5 | -90.3 | 275 | 8 |
| 2010-01-11T13:15 | 17910 | 80 | -82.6 | -90.3 | 274 | 8 |
| 2010-01-11T13:15 | 17941 | 79 | -82.9 | -90.5 | 274 | 9 |
| 2010-01-11T13:15 | 17971 | 79 | -83.1 | -90.7 | 276 | 9 |
| 2010-01-11T13:15 | 18002 | 78 | -83.4 | -91.0 | 277 | 9 |
| 2010-01-11T13:15 | 18033 | 78 | -83.6 | -91.2 | 279 | 9 |
| 2010-01-11T13:15 | 18064 | 77 | -83.8 | -91.4 | 280 | 8 |
| 2010-01-11T13:16 | 18095 | 77 | -83.9 | -91.5 | 279 | 9 |
| 2010-01-11T13:16 | 18125 | 77 | -83.7 | -91.3 | 276 | 9 |
| 2010-01-11T13:16 | 18157 | 76 | -83.6 | -91.3 | 273 | 10 |
| 2010-01-11T13:16 | 18187 | 76 | -83.6 | -91.3 | 270 | 11 |
| 2010-01-11T13:16 | 18218 | 75 | -83.6 | -91.2 | 267 | 12 |
| 2010-01-11T13:16 | 18249 | 75 | -83.2 | -90.8 | 264 | 13 |
| 2010-01-11T13:17 | 18280 | 74 | -83.1 | -90.8 | 263 | 14 |
| 2010-01-11T13:17 | 18311 | 74 | -83.2 | -90.9 | 263 | 15 |
| 2010-01-11T13:17 | 18341 | 74 | -83.4 | -91.0 | 264 | 15 |
| 2010-01-11T13:17 | 18370 | 73 | -83.3 | -91.0 | 266 | 14 |
| 2010-01-11T13:17 | 18400 | 73 | -82.4 | -90.2 | 268 | 12 |
| 2010-01-11T13:17 | 18429 | 73 | -81.3 | -89.1 | 269 | 11 |
| 2010-01-11T13:18 | 18458 | 72 | -81.0 | -88.9 | 269 | 10 |
| 2010-01-11T13:18 | 18487 | 72 | -80.7 | -88.6 | 271 | 9 |
| 2010-01-11T13:18 | 18515 | 71 | -79.6 | -87.6 | 272 | 9 |
| 2010-01-11T13:18 | 18543 | 71 | -79.4 | -87.5 | 272 | 9 |
| 2010-01-11T13:18 | 18571 | 71 | -79.3 | -87.4 | 272 | 10 |
| 2010-01-11T13:18 | 18599 | 70 | -78.8 | -87.1 | 272 | 10 |
| 2010-01-11T13:19 | 18628 | 70 | -78.7 | -87.0 | 274 | 10 |
| 2010-01-11T13:19 | 18657 | 70 | -78.7 | -87.1 | 277 | 10 |
| 2010-01-11T13:19 | 18686 | 69 | -78.7 | -87.2 | 279 | 10 |
| 2010-01-11T13:19 | 18713 | 69 | -78.6 | -87.2 | 278 | 9 |
| 2010-01-11T13:19 | 18743 | 69 | -78.2 | -87.0 | 276 | 9 |
| 2010-01-11T13:19 | 18771 | 68 | -78.0 | -86.8 | 275 | 9 |
| 2010-01-11T13:20 | 18800 | 68 | -77.5 | -86.5 | 273 | 8 |
| 2010-01-11T13:20 | 18831 | 68 | -77.5 | -86.6 | 272 | 8 |
| 2010-01-11T13:20 | 18862 | 67 | -77.5 | -86.7 | 272 | 8 |
| 2010-01-11T13:20 | 18892 | 67 | -77.5 | -86.8 | 272 | 8 |
| 2010-01-11T13:20 | 18923 | 66 | -77.5 | -86.9 | 272 | 7 |
| 2010-01-11T13:20 | 18954 | 66 | -77.6 | -87.0 | 270 | 7 |
| 2010-01-11T13:21 | 18985 | 66 | -77.4 | -87.0 | 268 | 6 |
| 2010-01-11T13:21 | 19016 | 65 | -77.3 | -87.0 | 263 | 6 |
| 2010-01-11T13:21 | 19047 | 65 | -76.8 | -86.7 | 257 | 6 |
| 2010-01-11T13:21 | 19078 | 65 | -76.6 | -86.7 | 251 | 6 |
| 2010-01-11T13:21 | 19109 | 64 | -76.7 | -86.8 | 249 | 5 |
| 2010-01-11T13:21 | 19140 | 64 | -76.7 | -86.9 | 249 | 5 |
| 2010-01-11T13:22 | 19171 | 64 | -76.7 | -87.0 | 254 | 4 |
| 2010-01-11T13:22 | 19201 | 63 | -76.6 | -87.0 | 263 | 4 |
| 2010-01-11T13:22 | 19233 | 63 | -76.7 | -87.2 | 273 | 4 |
| 2010-01-11T13:22 | 19264 | 63 | -76.7 | -87.3 | 281 | 4 |
| 2010-01-11T13:22 | 19295 | 62 | -76.8 | -87.5 | 284 | 5 |
| 2010-01-11T13:22 | 19326 | 62 | -77.0 | -87.7 | 286 | 5 |
| 2010-01-11T13:23 | 19358 | 62 | -76.8 | -87.7 | 287 | 5 |
| 2010-01-11T13:23 | 19388 | 61 | -76.8 | -87.8 | 286 | 4 |
| 2010-01-11T13:23 | 19418 | 61 | -76.9 | -87.9 | 285 | 4 |
| 2010-01-11T13:23 | 19448 | 61 | -77.0 | -88.0 | 284 | 3 |
| 2010-01-11T13:23 | 19479 | 60 | -76.8 | -87.9 | 281 | 2 |
| 2010-01-11T13:23 | 19509 | 60 | -76.4 | -87.7 | 260 | 1 |
| 2010-01-11T13:24 | 19541 | 60 | -76.0 | -87.4 | 227 | 1 |
| 2010-01-11T13:24 | 19571 | 59 | -76.0 | -87.5 | 213 | 3 |
| 2010-01-11T13:24 | 19602 | 59 | -75.9 | -87.5 | 212 | 4 |
| 2010-01-11T13:24 | 19633 | 59 | -75.7 | -87.4 | 218 | 4 |
| 2010-01-11T13:24 | 19663 | 58 | -75.6 | -87.3 | 224 | 4 |
| 2010-01-11T13:24 | 19694 | 58 | -75.7 | -87.5 | 226 | 4 |
| 2010-01-11T13:25 | 19724 | 58 | -75.9 | -87.7 | 224 | 4 |
| 2010-01-11T13:25 | 19756 | 58 | -75.9 | -87.9 | 223 | 4 |
| 2010-01-11T13:25 | 19788 | 57 | -76.2 | -88.2 | 226 | 4 |
| 2010-01-11T13:25 | 19819 | 57 | -75.7 | -87.9 | 231 | 3 |
| 2010-01-11T13:25 | 19850 | 57 | -75.6 | -87.8 | 231 | 4 |
| 2010-01-11T13:25 | 19883 | 56 | -75.3 | -87.7 | 230 | 4 |
| 2010-01-11T13:26 | 19915 | 56 | -75.3 | -87.7 | 228 | 4 |
| 2010-01-11T13:26 | 19946 | 56 | -75.2 | -87.7 | 228 | 4 |
| 2010-01-11T13:26 | 19978 | 55 | -75.2 | -87.8 | 227 | 4 |
| 2010-01-11T13:26 | 20010 | 55 | -74.8 | -87.6 | 223 | 4 |
| 2010-01-11T13:26 | 20042 | 55 | -74.8 | -87.6 | 216 | 4 |
| 2010-01-11T13:26 | 20073 | 54 | -74.6 | -87.6 | 213 | 4 |
| 2010-01-11T13:27 | 20104 | 54 | -74.4 | -87.5 | 216 | 4 |
| 2010-01-11T13:27 | 20136 | 54 | -74.3 | -87.5 | 223 | 3 |
| 2010-01-11T13:27 | 20169 | 54 | -74.3 | -87.6 | 227 | 3 |
| 2010-01-11T13:27 | 20201 | 53 | -74.4 | -87.8 | 223 | 2 |
| 2010-01-11T13:27 | 20235 | 53 | -74.5 | -88.0 | 212 | 2 |
| 2010-01-11T13:27 | 20266 | 53 | -74.6 | -88.1 | 199 | 2 |
| 2010-01-11T13:28 | 20300 | 52 | -74.7 | -88.3 | 190 | 3 |
| 2010-01-11T13:28 | 20331 | 52 | -74.3 | -88.1 | 187 | 4 |
| 2010-01-11T13:28 | 20365 | 52 | -73.7 | -87.7 | 188 | 5 |
| 2010-01-11T13:28 | 20398 | 52 | -73.6 | -87.7 | 190 | 6 |
| 2010-01-11T13:28 | 20430 | 51 | -73.5 | -87.8 | 190 | 7 |
| 2010-01-11T13:28 | 20461 | 51 | -73.7 | -88.0 | 187 | 8 |
| 2010-01-11T13:29 | 20492 | 51 | -73.3 | -87.9 | 181 | 8 |
| 2010-01-11T13:29 | 20523 | 50 | -73.3 | -88.0 | 171 | 8 |
| 2010-01-11T13:29 | 20553 | 50 | -73.2 | -88.0 | 160 | 9 |
| 2010-01-11T13:29 | 20584 | 50 | -72.9 | -87.9 | 148 | 9 |
| 2010-01-11T13:29 | 20613 | 50 | -72.7 | -87.9 | 138 | 10 |
| 2010-01-11T13:29 | 20641 | 49 | -72.1 | -87.6 | 130 | 10 |
| 2010-01-11T13:30 | 20673 | 49 | -71.2 | -87.1 | 124 | 10 |
| 2010-01-11T13:30 | 20703 | 49 | -70.6 | -86.8 | 116 | 9 |
| 2010-01-11T13:30 | 20733 | 49 | -69.7 | -86.3 | 106 | 10 |
| 2010-01-11T13:30 | 20763 | 48 | -69.5 | -86.3 | 96 | 10 |
| 2010-01-11T13:30 | 20792 | 48 | -69.1 | -86.3 | 88 | 11 |
| 2010-01-11T13:30 | 20821 | 48 | -68.6 | -86.2 | 83 | 12 |
| 2010-01-11T13:31 | 20850 | 48 | -68.2 | -86.2 | 81 | 11 |
| 2010-01-11T13:31 | 20878 | 47 | -67.3 | -85.9 | 79 | 10 |
| 2010-01-11T13:31 | 20908 | 47 | -66.3 | -85.5 | 73 | 10 |
| 2010-01-11T13:31 | 20938 | 47 | -65.8 | -85.6 | 67 | 10 |
| 2010-01-11T13:31 | 20970 | 47 | -65.7 | -85.9 | 62 | 10 |
| 2010-01-11T13:31 | 21002 | 47 | -65.9 | -86.4 | 56 | 9 |
| 2010-01-11T13:32 | 21034 | 46 | -65.1 | -86.3 | 51 | 8 |
| 2010-01-11T13:32 | 21068 | 46 | -65.0 | -86.6 | 46 | 6 |
| 2010-01-11T13:32 | 21099 | 46 | -64.9 | -87.0 | 42 | 6 |
| 2010-01-11T13:32 | 21134 | 46 | -64.8 | -87.3 | 43 | 5 |
| 2010-01-11T13:32 | 21170 | 45 | -64.7 | -87.6 | 48 | 6 |
| 2010-01-11T13:32 | 21204 | 45 | -64.5 | -87.9 | 52 | 7 |
| 2010-01-11T13:33 | 21239 | 45 | -64.4 | -88.2 | 54 | 7 |
| 2010-01-11T13:33 | 21274 | 44 | -64.4 | -88.5 | 54 | 8 |
| 2010-01-11T13:33 | 21309 | 44 | -64.2 | -88.7 | 52 | 9 |
| 2010-01-11T13:33 | 21344 | 44 | -64.4 | -89.1 | 49 | 10 |
| 2010-01-11T13:33 | 21377 | 44 | -64.2 | -89.2 | 46 | 10 |
| 2010-01-11T13:33 | 21410 | 44 | -63.8 | -89.2 | 43 | 11 |
| 2010-01-11T13:34 | 21442 | 43 | -63.4 | -89.2 | 41 | 12 |
| 2010-01-11T13:34 | 21475 | 43 | -63.3 | -89.3 | 41 | 12 |
| 2010-01-11T13:34 | 21507 | 43 | -63.3 | -89.5 | 45 | 12 |
| 2010-01-11T13:34 | 21540 | 43 | -63.5 | -89.8 | 52 | 12 |
| 2010-01-11T13:34 | 21572 | 42 | -63.1 | -89.8 | 61 | 13 |
| 2010-01-11T13:34 | 21605 | 42 | -62.6 | -89.7 | 67 | 13 |
| 2010-01-11T13:35 | 21637 | 42 | -61.9 | -89.5 | 70 | 14 |
| 2010-01-11T13:35 | 21668 | 42 | -61.9 | -89.5 | 72 | 14 |
| 2010-01-11T13:35 | 21703 | 41 | -62.0 | -89.7 | 73 | 14 |
| 2010-01-11T13:35 | 21738 | 41 | -62.2 | -89.9 | 73 | 15 |
| 2010-01-11T13:35 | 21772 | 41 | -62.4 | -90.1 | 73 | 15 |
| 2010-01-11T13:35 | 21807 | 41 | -62.6 | -90.3 | 75 | 15 |
| 2010-01-11T13:36 | 21842 | 41 | -62.7 | -90.5 | 78 | 15 |
| 2010-01-11T13:36 | 21878 | 40 | -62.6 | -90.6 | 81 | 15 |
| 2010-01-11T13:36 | 21912 | 40 | -62.8 | -90.8 | 85 | 15 |
| 2010-01-11T13:36 | 21948 | 40 | -62.9 | -90.9 | 87 | 15 |
| 2010-01-11T13:36 | 21982 | 40 | -63.1 | -91.1 | 89 | 15 |
| 2010-01-11T13:36 | 22016 | 39 | -63.3 | -91.3 | 91 | 14 |
| 2010-01-11T13:37 | 22050 | 39 | -63.6 | -91.5 | 91 | 15 |
| 2010-01-11T13:37 | 22084 | 39 | -63.6 | -91.5 | 91 | 15 |
| 2010-01-11T13:37 | 22115 | 39 | -63.3 | -91.5 | 92 | 16 |
| 2010-01-11T13:37 | 22148 | 39 | -63.5 | -91.6 | 93 | 17 |
| 2010-01-11T13:37 | 22181 | 38 | -63.5 | -91.6 | 94 | 18 |
| 2010-01-11T13:37 | 22213 | 38 | -63.2 | -91.5 | 95 | 18 |
| 2010-01-11T13:38 | 22244 | 38 | -63.0 | -91.4 | 94 | 18 |
| 2010-01-11T13:38 | 22275 | 38 | -62.8 | -91.3 | 93 | 17 |
| 2010-01-11T13:38 | 22306 | 38 | -62.8 | -91.2 | 92 | 17 |
| 2010-01-11T13:38 | 22335 | 37 | -62.3 | -91.1 | 92 | 18 |
| 2010-01-11T13:38 | 22366 | 37 | -62.2 | -91.0 | 93 | 18 |
| 2010-01-11T13:38 | 22396 | 37 | -62.2 | -91.0 | 93 | 19 |
| 2010-01-11T13:39 | 22428 | 37 | -62.3 | -91.0 | 94 | 19 |
| 2010-01-11T13:39 | 22457 | 37 | -62.3 | -91.1 | 96 | 18 |
| 2010-01-11T13:39 | 22488 | 37 | -62.5 | -91.2 | 98 | 18 |
| 2010-01-11T13:39 | 22520 | 36 | -62.4 | -91.2 | 100 | 17 |
| 2010-01-11T13:39 | 22553 | 36 | -62.4 | -91.2 | 102 | 16 |
| 2010-01-11T13:39 | 22587 | 36 | -62.3 | -91.2 | 103 | 15 |
| 2010-01-11T13:40 | 22620 | 36 | -62.2 | -91.2 | 104 | 15 |
| 2010-01-11T13:40 | 22655 | 36 | -62.0 | -91.1 | 104 | 15 |
| 2010-01-11T13:40 | 22690 | 35 | -61.6 | -91.0 | 103 | 17 |
| 2010-01-11T13:40 | 22724 | 35 | -60.9 | -90.7 | 103 | 18 |
| 2010-01-11T13:40 | 22758 | 35 | -59.4 | -90.0 | 105 | 19 |
| 2010-01-11T13:40 | 22795 | 35 | -59.1 | -89.7 | 106 | 20 |
| 2010-01-11T13:41 | 22828 | 35 | -59.0 | -89.5 | 106 | 20 |
| 2010-01-11T13:41 | 22864 | 34 | -58.6 | -89.3 | 104 | 20 |
| 2010-01-11T13:41 | 22900 | 34 | -58.7 | -89.2 | 102 | 20 |
| 2010-01-11T13:41 | 22934 | 34 | -58.8 | -89.3 | 100 | 20 |
| 2010-01-11T13:41 | 22968 | 34 | -58.6 | -89.3 | 98 | 20 |
| 2010-01-11T13:41 | 23003 | 34 | -58.4 | -89.2 | 98 | 21 |
| 2010-01-11T13:42 | 23039 | 33 | -58.5 | -89.2 | 98 | 21 |
| 2010-01-11T13:42 | 23074 | 33 | -58.5 | -89.3 | 98 | 21 |
| 2010-01-11T13:42 | 23107 | 33 | -58.7 | -89.3 | 98 | 21 |
| 2010-01-11T13:42 | 23140 | 33 | -58.9 | -89.4 | 100 | 21 |
| 2010-01-11T13:42 | 23174 | 33 | -58.8 | -89.5 | 102 | 21 |
| 2010-01-11T13:42 | 23205 | 33 | -58.7 | -89.4 | 104 | 20 |
| 2010-01-11T13:43 | 23240 | 32 | -58.6 | -89.4 | 105 | 20 |
| 2010-01-11T13:43 | 23275 | 32 | -58.7 | -89.4 | 105 | 21 |
| 2010-01-11T13:43 | 23307 | 32 | -58.7 | -89.4 | 105 | 21 |
| 2010-01-11T13:43 | 23338 | 32 | -58.6 | -89.4 | 104 | 20 |
| 2010-01-11T13:43 | 23372 | 32 | -58.4 | -89.4 | 103 | 20 |
| 2010-01-11T13:43 | 23405 | 32 | -58.4 | -89.3 | 102 | 19 |
| 2010-01-11T13:44 | 23439 | 31 | -58.5 | -89.3 | 102 | 18 |
| 2010-01-11T13:44 | 23472 | 31 | -58.4 | -89.3 | 100 | 18 |
| 2010-01-11T13:44 | 23505 | 31 | -58.4 | -89.3 | 99 | 19 |
| 2010-01-11T13:44 | 23540 | 31 | -58.6 | -89.4 | 100 | 20 |
| 2010-01-12T11:51 | 4 | 1006 | 27.3 | 25.1 | 320 | 7 |
| 2010-01-12T11:51 | 16 | 1005 | 27.4 | 25.0 | 306 | 4 |
| 2010-01-12T11:51 | 28 | 1003 | 27.3 | 24.9 | 306 | 5 |
| 2010-01-12T11:51 | 40 | 1002 | 27.3 | 24.8 | 308 | 6 |
| 2010-01-12T11:51 | 51 | 1001 | 27.2 | 24.8 | 309 | 7 |
| 2010-01-12T11:51 | 63 | 1000 | 27.1 | 24.7 | 309 | 7 |
| 2010-01-12T11:51 | 76 | 998 | 27.1 | 24.7 | 310 | 8 |
| 2010-01-12T11:51 | 90 | 996 | 26.9 | 24.6 | 310 | 9 |
| 2010-01-12T11:51 | 105 | 995 | 26.8 | 24.5 | 311 | 10 |
| 2010-01-12T11:51 | 118 | 993 | 26.7 | 24.5 | 311 | 11 |
| 2010-01-12T11:51 | 130 | 992 | 26.6 | 24.4 | 311 | 11 |
| 2010-01-12T11:51 | 141 | 991 | 26.5 | 24.4 | 311 | 12 |
| 2010-01-12T11:51 | 153 | 989 | 26.4 | 24.3 | 311 | 12 |
| 2010-01-12T11:51 | 165 | 988 | 26.3 | 24.2 | 311 | 13 |
| 2010-01-12T11:51 | 175 | 987 | 26.2 | 24.1 | 311 | 13 |
| 2010-01-12T11:51 | 185 | 986 | 26.1 | 24.2 | 310 | 13 |
| 2010-01-12T11:51 | 195 | 985 | 26.0 | 24.2 | 310 | 14 |
| 2010-01-12T11:51 | 205 | 984 | 25.9 | 24.1 | 309 | 14 |
| 2010-01-12T11:51 | 215 | 983 | 25.8 | 24.1 | 309 | 14 |
| 2010-01-12T11:51 | 224 | 982 | 25.7 | 24.1 | 308 | 14 |
| 2010-01-12T11:51 | 235 | 980 | 25.6 | 24.1 | 308 | 14 |
| 2010-01-12T11:51 | 245 | 979 | 25.5 | 24.0 | 308 | 14 |
| 2010-01-12T11:51 | 256 | 978 | 25.4 | 23.9 | 308 | 14 |
| 2010-01-12T11:51 | 266 | 977 | 25.4 | 23.7 | 308 | 14 |
| 2010-01-12T11:51 | 275 | 976 | 25.4 | 23.5 | 308 | 14 |
| 2010-01-12T11:51 | 284 | 975 | 25.3 | 23.4 | 309 | 14 |
| 2010-01-12T11:51 | 294 | 974 | 25.2 | 23.4 | 309 | 14 |
| 2010-01-12T11:51 | 303 | 973 | 25.1 | 23.4 | 310 | 14 |
| 2010-01-12T11:51 | 313 | 972 | 25.0 | 23.4 | 310 | 14 |
| 2010-01-12T11:51 | 323 | 971 | 24.9 | 23.4 | 310 | 14 |
| 2010-01-12T11:52 | 334 | 969 | 24.8 | 23.4 | 311 | 14 |
| 2010-01-12T11:52 | 345 | 968 | 24.7 | 23.4 | 311 | 14 |
| 2010-01-12T11:52 | 357 | 967 | 24.5 | 23.4 | 311 | 14 |
| 2010-01-12T11:52 | 368 | 966 | 24.4 | 23.5 | 311 | 14 |
| 2010-01-12T11:52 | 379 | 964 | 24.3 | 23.5 | 311 | 14 |
| 2010-01-12T11:52 | 390 | 963 | 24.2 | 23.6 | 311 | 14 |
| 2010-01-12T11:52 | 400 | 962 | 24.1 | 23.6 | 312 | 14 |
| 2010-01-12T11:52 | 411 | 961 | 24.0 | 23.5 | 312 | 14 |
| 2010-01-12T11:52 | 423 | 960 | 23.9 | 23.4 | 312 | 15 |
| 2010-01-12T11:52 | 434 | 959 | 23.9 | 23.3 | 312 | 15 |
| 2010-01-12T11:52 | 443 | 957 | 23.8 | 23.2 | 312 | 15 |
| 2010-01-12T11:52 | 452 | 957 | 23.7 | 23.2 | 312 | 15 |
| 2010-01-12T11:52 | 462 | 955 | 23.7 | 23.1 | 312 | 15 |
| 2010-01-12T11:52 | 473 | 954 | 23.7 | 22.8 | 312 | 15 |
| 2010-01-12T11:52 | 485 | 953 | 23.6 | 22.7 | 312 | 15 |
| 2010-01-12T11:52 | 496 | 952 | 23.6 | 22.5 | 312 | 15 |
| 2010-01-12T11:52 | 507 | 951 | 23.6 | 22.4 | 312 | 15 |
| 2010-01-12T11:52 | 519 | 949 | 23.5 | 22.3 | 312 | 15 |
| 2010-01-12T11:52 | 531 | 948 | 23.4 | 22.2 | 312 | 15 |
| 2010-01-12T11:52 | 540 | 947 | 23.4 | 22.2 | 312 | 15 |
| 2010-01-12T11:52 | 550 | 946 | 23.3 | 22.2 | 312 | 15 |
| 2010-01-12T11:52 | 562 | 945 | 23.1 | 22.1 | 312 | 15 |
| 2010-01-12T11:52 | 576 | 943 | 23.1 | 21.9 | 312 | 15 |
| 2010-01-12T11:52 | 589 | 942 | 23.0 | 21.8 | 312 | 15 |
| 2010-01-12T11:52 | 601 | 940 | 22.8 | 21.7 | 312 | 15 |
| 2010-01-12T11:52 | 613 | 939 | 22.8 | 21.5 | 312 | 15 |
| 2010-01-12T11:52 | 625 | 938 | 22.9 | 21.0 | 312 | 15 |
| 2010-01-12T11:52 | 635 | 937 | 23.0 | 20.8 | 312 | 15 |
| 2010-01-12T11:52 | 646 | 936 | 22.9 | 20.7 | 311 | 15 |
| 2010-01-12T11:52 | 657 | 934 | 22.9 | 20.6 | 311 | 15 |
| 2010-01-12T11:53 | 668 | 933 | 22.8 | 20.5 | 311 | 15 |
| 2010-01-12T11:53 | 680 | 932 | 22.8 | 20.5 | 310 | 15 |
| 2010-01-12T11:53 | 692 | 931 | 22.7 | 20.4 | 309 | 15 |
| 2010-01-12T11:53 | 703 | 929 | 22.6 | 20.4 | 309 | 15 |
| 2010-01-12T11:53 | 716 | 928 | 22.5 | 20.4 | 308 | 15 |
| 2010-01-12T11:53 | 729 | 927 | 22.4 | 20.3 | 307 | 15 |
| 2010-01-12T11:53 | 739 | 926 | 22.3 | 20.3 | 306 | 15 |
| 2010-01-12T11:53 | 749 | 925 | 22.2 | 20.3 | 305 | 15 |
| 2010-01-12T11:53 | 759 | 924 | 22.1 | 20.3 | 304 | 15 |
| 2010-01-12T11:53 | 769 | 923 | 22.0 | 20.3 | 303 | 15 |
| 2010-01-12T11:53 | 779 | 921 | 21.9 | 20.2 | 302 | 15 |
| 2010-01-12T11:53 | 789 | 920 | 21.8 | 20.2 | 301 | 15 |
| 2010-01-12T11:53 | 800 | 919 | 21.7 | 20.2 | 301 | 15 |
| 2010-01-12T11:53 | 811 | 918 | 21.6 | 20.1 | 300 | 15 |
| 2010-01-12T11:53 | 822 | 917 | 21.5 | 20.1 | 300 | 15 |
| 2010-01-12T11:53 | 834 | 916 | 21.5 | 20.0 | 299 | 15 |
| 2010-01-12T11:53 | 846 | 914 | 21.4 | 19.9 | 299 | 15 |
| 2010-01-12T11:53 | 858 | 913 | 21.4 | 19.9 | 299 | 15 |
| 2010-01-12T11:53 | 870 | 912 | 21.4 | 19.8 | 299 | 15 |
| 2010-01-12T11:53 | 882 | 911 | 21.4 | 19.7 | 299 | 15 |
| 2010-01-12T11:53 | 893 | 910 | 21.4 | 19.6 | 299 | 15 |
| 2010-01-12T11:53 | 903 | 908 | 21.3 | 19.5 | 300 | 15 |
| 2010-01-12T11:53 | 915 | 907 | 21.3 | 19.4 | 300 | 15 |
| 2010-01-12T11:53 | 927 | 906 | 21.4 | 19.4 | 301 | 15 |
| 2010-01-12T11:53 | 938 | 905 | 21.5 | 19.5 | 302 | 15 |
| 2010-01-12T11:53 | 949 | 904 | 21.7 | 19.3 | 303 | 15 |
| 2010-01-12T11:53 | 964 | 902 | 22.1 | 19.0 | 304 | 15 |
| 2010-01-12T11:53 | 979 | 901 | 22.2 | 18.7 | 305 | 15 |
| 2010-01-12T11:53 | 990 | 899 | 22.2 | 18.5 | 306 | 15 |
| 2010-01-12T11:53 | 999 | 899 | 22.1 | 18.4 | 306 | 15 |
| 2010-01-12T11:54 | 1007 | 898 | 22.0 | 18.3 | 307 | 15 |
| 2010-01-12T11:54 | 1017 | 897 | 22.1 | 18.2 | 308 | 15 |
| 2010-01-12T11:54 | 1026 | 896 | 22.1 | 18.1 | 308 | 15 |
| 2010-01-12T11:54 | 1034 | 895 | 22.1 | 18.1 | 308 | 15 |
| 2010-01-12T11:54 | 1043 | 894 | 22.2 | 18.0 | 309 | 15 |
| 2010-01-12T11:54 | 1052 | 893 | 22.2 | 17.9 | 309 | 15 |
| 2010-01-12T11:54 | 1060 | 892 | 22.3 | 17.9 | 309 | 15 |
| 2010-01-12T11:54 | 1068 | 891 | 22.2 | 17.9 | 309 | 15 |
| 2010-01-12T11:54 | 1077 | 891 | 22.2 | 17.9 | 309 | 15 |
| 2010-01-12T11:54 | 1085 | 890 | 22.1 | 17.9 | 308 | 15 |
| 2010-01-12T11:54 | 1094 | 889 | 22.1 | 17.9 | 308 | 15 |
| 2010-01-12T11:54 | 1106 | 888 | 22.0 | 17.9 | 308 | 15 |
| 2010-01-12T11:54 | 1118 | 886 | 21.9 | 17.9 | 308 | 15 |
| 2010-01-12T11:54 | 1129 | 885 | 21.8 | 17.8 | 308 | 15 |
| 2010-01-12T11:54 | 1138 | 884 | 21.7 | 17.8 | 308 | 15 |
| 2010-01-12T11:54 | 1148 | 883 | 21.6 | 17.7 | 308 | 15 |
| 2010-01-12T11:54 | 1157 | 882 | 21.5 | 17.7 | 307 | 15 |
| 2010-01-12T11:54 | 1166 | 881 | 21.5 | 17.6 | 307 | 15 |
| 2010-01-12T11:54 | 1176 | 880 | 21.4 | 17.5 | 307 | 14 |
| 2010-01-12T11:54 | 1185 | 879 | 21.3 | 17.3 | 307 | 14 |
| 2010-01-12T11:54 | 1195 | 878 | 21.3 | 17.1 | 307 | 14 |
| 2010-01-12T11:54 | 1206 | 877 | 21.4 | 16.8 | 307 | 14 |
| 2010-01-12T11:54 | 1218 | 876 | 21.4 | 16.6 | 307 | 14 |
| 2010-01-12T11:54 | 1228 | 875 | 21.4 | 16.6 | 307 | 14 |
| 2010-01-12T11:54 | 1240 | 874 | 21.4 | 16.6 | 307 | 14 |
| 2010-01-12T11:54 | 1253 | 873 | 21.3 | 16.5 | 307 | 14 |
| 2010-01-12T11:54 | 1266 | 871 | 21.3 | 16.4 | 307 | 14 |
| 2010-01-12T11:54 | 1278 | 870 | 21.2 | 16.3 | 307 | 14 |
| 2010-01-12T11:54 | 1290 | 869 | 21.1 | 16.4 | 308 | 14 |
| 2010-01-12T11:54 | 1301 | 868 | 21.1 | 16.4 | 308 | 14 |
| 2010-01-12T11:55 | 1312 | 867 | 21.0 | 16.5 | 308 | 14 |
| 2010-01-12T11:55 | 1324 | 866 | 21.0 | 16.6 | 308 | 15 |
| 2010-01-12T11:55 | 1336 | 864 | 21.1 | 16.6 | 308 | 15 |
| 2010-01-12T11:55 | 1346 | 863 | 21.1 | 16.6 | 309 | 15 |
| 2010-01-12T11:55 | 1356 | 862 | 21.0 | 16.4 | 309 | 15 |
| 2010-01-12T11:55 | 1368 | 861 | 21.0 | 16.3 | 309 | 15 |
| 2010-01-12T11:55 | 1381 | 860 | 20.9 | 16.2 | 309 | 15 |
| 2010-01-12T11:55 | 1392 | 859 | 20.9 | 16.1 | 309 | 15 |
| 2010-01-12T11:55 | 1402 | 858 | 20.8 | 16.0 | 309 | 15 |
| 2010-01-12T11:55 | 1413 | 857 | 20.8 | 15.9 | 309 | 15 |
| 2010-01-12T11:55 | 1425 | 856 | 20.7 | 15.9 | 309 | 15 |
| 2010-01-12T11:55 | 1436 | 855 | 20.6 | 15.8 | 309 | 15 |
| 2010-01-12T11:55 | 1445 | 854 | 20.6 | 15.7 | 308 | 15 |
| 2010-01-12T11:55 | 1456 | 853 | 20.6 | 15.5 | 308 | 15 |
| 2010-01-12T11:55 | 1467 | 851 | 20.6 | 15.4 | 308 | 15 |
| 2010-01-12T11:55 | 1479 | 850 | 20.5 | 15.3 | 308 | 15 |
| 2010-01-12T11:55 | 1490 | 849 | 20.4 | 15.2 | 307 | 15 |
| 2010-01-12T11:55 | 1501 | 848 | 20.3 | 15.1 | 307 | 15 |
| 2010-01-12T11:55 | 1511 | 847 | 20.2 | 15.0 | 307 | 15 |
| 2010-01-12T11:55 | 1522 | 846 | 20.1 | 15.0 | 306 | 15 |
| 2010-01-12T11:55 | 1534 | 845 | 20.1 | 14.9 | 305 | 15 |
| 2010-01-12T11:55 | 1544 | 844 | 20.0 | 14.8 | 305 | 15 |
| 2010-01-12T11:55 | 1555 | 843 | 19.9 | 14.9 | 304 | 15 |
| 2010-01-12T11:55 | 1566 | 842 | 19.9 | 15.0 | 303 | 15 |
| 2010-01-12T11:55 | 1576 | 841 | 20.0 | 14.9 | 302 | 15 |
| 2010-01-12T11:55 | 1586 | 840 | 20.0 | 14.5 | 301 | 15 |
| 2010-01-12T11:55 | 1596 | 839 | 20.1 | 14.3 | 300 | 15 |
| 2010-01-12T11:55 | 1606 | 838 | 20.0 | 14.2 | 299 | 15 |
| 2010-01-12T11:55 | 1616 | 837 | 20.0 | 14.3 | 298 | 15 |
| 2010-01-12T11:55 | 1626 | 836 | 20.0 | 14.4 | 297 | 15 |
| 2010-01-12T11:56 | 1637 | 835 | 20.0 | 14.5 | 296 | 15 |
| 2010-01-12T11:56 | 1649 | 834 | 20.0 | 14.4 | 295 | 15 |
| 2010-01-12T11:56 | 1661 | 833 | 20.0 | 14.4 | 295 | 14 |
| 2010-01-12T11:56 | 1673 | 831 | 19.9 | 14.4 | 294 | 14 |
| 2010-01-12T11:56 | 1686 | 830 | 19.9 | 14.4 | 293 | 14 |
| 2010-01-12T11:56 | 1698 | 829 | 19.9 | 14.3 | 292 | 14 |
| 2010-01-12T11:56 | 1709 | 828 | 19.9 | 14.2 | 292 | 14 |
| 2010-01-12T11:56 | 1719 | 827 | 19.8 | 14.2 | 291 | 14 |
| 2010-01-12T11:56 | 1730 | 826 | 19.7 | 14.1 | 291 | 14 |
| 2010-01-12T11:56 | 1741 | 825 | 19.6 | 14.1 | 290 | 13 |
| 2010-01-12T11:56 | 1753 | 824 | 19.5 | 14.0 | 290 | 13 |
| 2010-01-12T11:56 | 1764 | 823 | 19.5 | 14.0 | 289 | 13 |
| 2010-01-12T11:56 | 1775 | 822 | 19.5 | 14.0 | 289 | 13 |
| 2010-01-12T11:56 | 1786 | 821 | 19.4 | 13.9 | 288 | 13 |
| 2010-01-12T11:56 | 1796 | 820 | 19.3 | 13.8 | 288 | 13 |
| 2010-01-12T11:56 | 1809 | 818 | 19.2 | 13.7 | 288 | 13 |
| 2010-01-12T11:56 | 1821 | 817 | 19.1 | 13.7 | 287 | 13 |
| 2010-01-12T11:56 | 1833 | 816 | 19.1 | 13.6 | 287 | 13 |
| 2010-01-12T11:56 | 1845 | 815 | 19.1 | 13.6 | 287 | 12 |
| 2010-01-12T11:56 | 1857 | 814 | 19.1 | 13.5 | 286 | 12 |
| 2010-01-12T11:56 | 1869 | 813 | 19.0 | 13.4 | 286 | 12 |
| 2010-01-12T11:56 | 1881 | 812 | 19.0 | 13.3 | 285 | 12 |
| 2010-01-12T11:56 | 1893 | 810 | 18.9 | 13.3 | 285 | 12 |
| 2010-01-12T11:56 | 1902 | 810 | 18.8 | 13.2 | 284 | 12 |
| 2010-01-12T11:56 | 1913 | 809 | 18.7 | 13.2 | 284 | 12 |
| 2010-01-12T11:56 | 1924 | 807 | 18.6 | 13.1 | 283 | 12 |
| 2010-01-12T11:56 | 1935 | 806 | 18.5 | 13.1 | 283 | 12 |
| 2010-01-12T11:56 | 1945 | 806 | 18.4 | 13.1 | 282 | 12 |
| 2010-01-12T11:56 | 1956 | 805 | 18.3 | 13.0 | 281 | 12 |
| 2010-01-12T11:56 | 1967 | 804 | 18.1 | 13.0 | 280 | 12 |
| 2010-01-12T11:57 | 1978 | 803 | 18.0 | 13.0 | 280 | 12 |
| 2010-01-12T11:57 | 1988 | 802 | 17.9 | 13.0 | 279 | 12 |
| 2010-01-12T11:57 | 1999 | 800 | 17.8 | 13.0 | 278 | 12 |
| 2010-01-12T11:57 | 2033 | 797 | 17.5 | 12.9 | 277 | 12 |
| 2010-01-12T11:57 | 2090 | 792 | 17.0 | 12.7 | 277 | 12 |
| 2010-01-12T11:57 | 2144 | 787 | 16.5 | 12.6 | 277 | 12 |
| 2010-01-12T11:57 | 2199 | 782 | 16.0 | 12.5 | 275 | 12 |
| 2010-01-12T11:57 | 2264 | 776 | 15.4 | 12.4 | 273 | 12 |
| 2010-01-12T11:58 | 2317 | 771 | 14.9 | 12.3 | 273 | 12 |
| 2010-01-12T11:58 | 2368 | 767 | 14.5 | 12.3 | 273 | 12 |
| 2010-01-12T11:58 | 2417 | 762 | 14.4 | 12.6 | 274 | 11 |
| 2010-01-12T11:58 | 2470 | 757 | 14.1 | 12.5 | 278 | 11 |
| 2010-01-12T11:58 | 2519 | 753 | 13.9 | 12.4 | 283 | 11 |
| 2010-01-12T11:58 | 2570 | 749 | 13.6 | 12.3 | 285 | 11 |
| 2010-01-12T11:59 | 2606 | 745 | 13.5 | 12.1 | 285 | 11 |
| 2010-01-12T11:59 | 2649 | 742 | 13.4 | 11.9 | 281 | 11 |
| 2010-01-12T11:59 | 2689 | 738 | 13.3 | 11.5 | 278 | 11 |
| 2010-01-12T11:59 | 2738 | 734 | 13.2 | 11.3 | 278 | 11 |
| 2010-01-12T11:59 | 2799 | 729 | 13.3 | 11.1 | 282 | 10 |
| 2010-01-12T11:59 | 2833 | 726 | 13.2 | 11.0 | 286 | 10 |
| 2010-01-12T12:00 | 2868 | 723 | 13.1 | 10.7 | 289 | 10 |
| 2010-01-12T12:00 | 2904 | 719 | 13.0 | 10.3 | 288 | 9 |
| 2010-01-12T12:00 | 2941 | 716 | 12.9 | 10.1 | 288 | 9 |
| 2010-01-12T12:00 | 2977 | 713 | 12.8 | 9.7 | 290 | 9 |
| 2010-01-12T12:00 | 3012 | 710 | 12.6 | 9.2 | 292 | 9 |
| 2010-01-12T12:00 | 3048 | 707 | 12.5 | 8.8 | 293 | 9 |
| 2010-01-12T12:01 | 3087 | 704 | 12.5 | 8.1 | 291 | 9 |
| 2010-01-12T12:01 | 3124 | 701 | 12.3 | 8.0 | 289 | 10 |
| 2010-01-12T12:01 | 3161 | 698 | 12.2 | 7.9 | 287 | 10 |
| 2010-01-12T12:01 | 3199 | 695 | 12.0 | 7.4 | 287 | 10 |
| 2010-01-12T12:01 | 3237 | 692 | 11.8 | 6.9 | 285 | 11 |
| 2010-01-12T12:01 | 3275 | 688 | 11.5 | 6.6 | 285 | 11 |
| 2010-01-12T12:02 | 3315 | 685 | 11.3 | 5.7 | 285 | 11 |
| 2010-01-12T12:02 | 3355 | 682 | 11.0 | 5.7 | 285 | 11 |
| 2010-01-12T12:02 | 3396 | 679 | 10.6 | 5.6 | 284 | 11 |
| 2010-01-12T12:02 | 3450 | 674 | 10.1 | 5.4 | 285 | 12 |
| 2010-01-12T12:02 | 3491 | 671 | 9.8 | 5.3 | 287 | 11 |
| 2010-01-12T12:02 | 3534 | 667 | 9.4 | 5.1 | 288 | 11 |
| 2010-01-12T12:03 | 3583 | 664 | 9.0 | 5.0 | 289 | 11 |
| 2010-01-12T12:03 | 3635 | 659 | 8.6 | 5.6 | 291 | 11 |
| 2010-01-12T12:03 | 3674 | 656 | 8.3 | 5.2 | 292 | 11 |
| 2010-01-12T12:03 | 3715 | 653 | 8.4 | 4.5 | 291 | 12 |
| 2010-01-12T12:03 | 3769 | 649 | 8.2 | 4.2 | 290 | 12 |
| 2010-01-12T12:03 | 3820 | 645 | 7.7 | 4.1 | 290 | 12 |
| 2010-01-12T12:04 | 3877 | 640 | 7.3 | 3.9 | 290 | 12 |
| 2010-01-12T12:04 | 3934 | 636 | 7.2 | 4.0 | 289 | 11 |
| 2010-01-12T12:04 | 3989 | 632 | 6.9 | 3.9 | 286 | 10 |
| 2010-01-12T12:04 | 4046 | 627 | 6.6 | 3.7 | 282 | 9 |
| 2010-01-12T12:04 | 4109 | 623 | 6.0 | 3.5 | 278 | 9 |
| 2010-01-12T12:04 | 4168 | 618 | 5.4 | 3.4 | 273 | 9 |
| 2010-01-12T12:05 | 4221 | 614 | 5.0 | 3.3 | 269 | 9 |
| 2010-01-12T12:05 | 4273 | 610 | 4.5 | 3.2 | 267 | 9 |
| 2010-01-12T12:05 | 4329 | 606 | 4.2 | 2.8 | 268 | 8 |
| 2010-01-12T12:05 | 4380 | 602 | 3.7 | 2.7 | 270 | 8 |
| 2010-01-12T12:05 | 4436 | 598 | 3.4 | 2.5 | 270 | 8 |
| 2010-01-12T12:05 | 4486 | 594 | 3.1 | 2.5 | 273 | 7 |
| 2010-01-12T12:06 | 4543 | 590 | 2.9 | 2.2 | 276 | 7 |
| 2010-01-12T12:06 | 4598 | 586 | 2.5 | 1.8 | 279 | 7 |
| 2010-01-12T12:06 | 4657 | 582 | 2.1 | 1.6 | 282 | 7 |
| 2010-01-12T12:06 | 4708 | 578 | 1.8 | 1.5 | 284 | 8 |
| 2010-01-12T12:06 | 4781 | 573 | 1.4 | 1.1 | 282 | 8 |
| 2010-01-12T12:06 | 4834 | 569 | 1.2 | 1.0 | 281 | 8 |
| 2010-01-12T12:07 | 4882 | 566 | 1.0 | 0.8 | 284 | 8 |
| 2010-01-12T12:07 | 4932 | 563 | 0.8 | 0.7 | 286 | 7 |
| 2010-01-12T12:07 | 4984 | 559 | 0.6 | 0.6 | 285 | 7 |
| 2010-01-12T12:07 | 5035 | 555 | 0.3 | 0.2 | 286 | 7 |
| 2010-01-12T12:07 | 5080 | 552 | 0.1 | 0.0 | 291 | 6 |
| 2010-01-12T12:07 | 5126 | 549 | -0.1 | -0.2 | 300 | 5 |
| 2010-01-12T12:08 | 5183 | 545 | -0.4 | -0.5 | 309 | 4 |
| 2010-01-12T12:08 | 5246 | 541 | -0.8 | -0.8 | 309 | 4 |
| 2010-01-12T12:08 | 5305 | 537 | -1.0 | -1.0 | 304 | 5 |
| 2010-01-12T12:08 | 5354 | 534 | -1.3 | -1.3 | 300 | 5 |
| 2010-01-12T12:08 | 5399 | 531 | -1.5 | -1.5 | 298 | 5 |
| 2010-01-12T12:08 | 5434 | 528 | -1.7 | -1.7 | 299 | 5 |
| 2010-01-12T12:09 | 5482 | 525 | -2.0 | -2.0 | 301 | 6 |
| 2010-01-12T12:09 | 5542 | 521 | -2.1 | -2.1 | 301 | 7 |
| 2010-01-12T12:09 | 5598 | 518 | -2.5 | -2.6 | 299 | 8 |
| 2010-01-12T12:09 | 5653 | 514 | -2.7 | -2.8 | 296 | 8 |
| 2010-01-12T12:09 | 5688 | 512 | -2.8 | -2.9 | 295 | 7 |
| 2010-01-12T12:09 | 5723 | 510 | -2.9 | -3.1 | 295 | 7 |
| 2010-01-12T12:10 | 5768 | 507 | -3.0 | -3.6 | 296 | 7 |
| 2010-01-12T12:10 | 5815 | 504 | -3.4 | -3.9 | 296 | 7 |
| 2010-01-12T12:10 | 5872 | 500 | -3.6 | -4.4 | 298 | 7 |
| 2010-01-12T12:10 | 5907 | 498 | -3.8 | -4.6 | 302 | 6 |
| 2010-01-12T12:10 | 5947 | 495 | -3.9 | -4.9 | 308 | 6 |
| 2010-01-12T12:10 | 5985 | 493 | -4.2 | -5.1 | 311 | 6 |
| 2010-01-12T12:11 | 6019 | 491 | -4.4 | -5.2 | 311 | 6 |
| 2010-01-12T12:11 | 6055 | 489 | -4.8 | -5.6 | 312 | 6 |
| 2010-01-12T12:11 | 6089 | 487 | -5.0 | -5.5 | 314 | 5 |
| 2010-01-12T12:11 | 6124 | 484 | -5.2 | -5.6 | 316 | 5 |
| 2010-01-12T12:11 | 6161 | 482 | -5.4 | -5.7 | 320 | 5 |
| 2010-01-12T12:11 | 6203 | 480 | -5.5 | -6.3 | 325 | 5 |
| 2010-01-12T12:12 | 6262 | 476 | -6.0 | -6.8 | 329 | 4 |
| 2010-01-12T12:12 | 6307 | 473 | -6.5 | -6.9 | 333 | 3 |
| 2010-01-12T12:12 | 6356 | 470 | -7.0 | -7.1 | 334 | 3 |
| 2010-01-12T12:12 | 6395 | 468 | -7.2 | -7.3 | 331 | 3 |
| 2010-01-12T12:12 | 6429 | 466 | -7.1 | -7.4 | 329 | 3 |
| 2010-01-12T12:12 | 6464 | 464 | -7.1 | -7.5 | 338 | 2 |
| 2010-01-12T12:13 | 6500 | 462 | -7.1 | -7.9 | 354 | 2 |
| 2010-01-12T12:13 | 6537 | 459 | -7.1 | -8.8 | 4 | 2 |
| 2010-01-12T12:13 | 6571 | 457 | -7.4 | -8.9 | 3 | 1 |
| 2010-01-12T12:13 | 6608 | 455 | -7.7 | -9.0 | 0 | 2 |
| 2010-01-12T12:13 | 6646 | 453 | -8.0 | -9.2 | 3 | 2 |
| 2010-01-12T12:13 | 6680 | 451 | -8.2 | -9.5 | 10 | 2 |
| 2010-01-12T12:14 | 6713 | 449 | -8.3 | -9.9 | 15 | 2 |
| 2010-01-12T12:14 | 6745 | 447 | -8.5 | -10.3 | 15 | 2 |
| 2010-01-12T12:14 | 6778 | 445 | -8.7 | -10.3 | 13 | 2 |
| 2010-01-12T12:14 | 6813 | 443 | -9.0 | -10.3 | 16 | 2 |
| 2010-01-12T12:14 | 6855 | 441 | -9.3 | -10.4 | 27 | 2 |
| 2010-01-12T12:14 | 6895 | 439 | -9.7 | -10.6 | 36 | 3 |
| 2010-01-12T12:15 | 6934 | 437 | -9.9 | -10.7 | 39 | 3 |
| 2010-01-12T12:15 | 6967 | 435 | -9.9 | -11.2 | 35 | 3 |
| 2010-01-12T12:15 | 7001 | 433 | -9.9 | -11.4 | 31 | 2 |
| 2010-01-12T12:15 | 7036 | 431 | -10.1 | -11.8 | 32 | 2 |
| 2010-01-12T12:15 | 7071 | 429 | -10.4 | -11.9 | 32 | 2 |
| 2010-01-12T12:15 | 7106 | 427 | -10.7 | -12.1 | 32 | 2 |
| 2010-01-12T12:16 | 7143 | 425 | -11.1 | -12.2 | 36 | 2 |
| 2010-01-12T12:16 | 7179 | 423 | -11.1 | -13.3 | 40 | 3 |
| 2010-01-12T12:16 | 7214 | 421 | -11.2 | -13.6 | 41 | 3 |
| 2010-01-12T12:16 | 7250 | 419 | -11.5 | -13.8 | 41 | 4 |
| 2010-01-12T12:16 | 7284 | 417 | -11.8 | -14.2 | 46 | 4 |
| 2010-01-12T12:16 | 7318 | 415 | -11.9 | -14.8 | 52 | 4 |
| 2010-01-12T12:17 | 7351 | 414 | -12.1 | -14.8 | 56 | 4 |
| 2010-01-12T12:17 | 7385 | 412 | -12.1 | -15.4 | 58 | 4 |
| 2010-01-12T12:17 | 7421 | 410 | -12.4 | -15.6 | 59 | 4 |
| 2010-01-12T12:17 | 7456 | 408 | -12.7 | -15.8 | 64 | 4 |
| 2010-01-12T12:17 | 7492 | 406 | -13.0 | -16.1 | 70 | 4 |
| 2010-01-12T12:17 | 7527 | 404 | -13.2 | -15.7 | 74 | 4 |
| 2010-01-12T12:18 | 7560 | 402 | -13.4 | -15.7 | 75 | 4 |
| 2010-01-12T12:18 | 7594 | 401 | -13.6 | -15.6 | 74 | 3 |
| 2010-01-12T12:18 | 7628 | 399 | -13.7 | -15.4 | 71 | 3 |
| 2010-01-12T12:18 | 7663 | 397 | -13.9 | -15.3 | 63 | 3 |
| 2010-01-12T12:18 | 7698 | 395 | -14.2 | -15.5 | 54 | 3 |
| 2010-01-12T12:18 | 7733 | 393 | -14.4 | -15.8 | 46 | 3 |
| 2010-01-12T12:19 | 7769 | 391 | -14.3 | -17.0 | 44 | 3 |
| 2010-01-12T12:19 | 7805 | 390 | -14.6 | -18.1 | 47 | 3 |
| 2010-01-12T12:19 | 7840 | 388 | -14.9 | -18.0 | 52 | 3 |
| 2010-01-12T12:19 | 7877 | 386 | -15.3 | -18.0 | 55 | 3 |
| 2010-01-12T12:19 | 7911 | 384 | -15.6 | -18.3 | 58 | 3 |
| 2010-01-12T12:19 | 7946 | 382 | -15.8 | -18.8 | 60 | 3 |
| 2010-01-12T12:20 | 7981 | 381 | -16.1 | -19.0 | 63 | 4 |
| 2010-01-12T12:20 | 8016 | 379 | -16.5 | -19.6 | 67 | 4 |
| 2010-01-12T12:20 | 8053 | 377 | -16.8 | -19.9 | 72 | 3 |
| 2010-01-12T12:20 | 8088 | 375 | -17.0 | -20.4 | 78 | 3 |
| 2010-01-12T12:20 | 8123 | 374 | -17.2 | -20.4 | 83 | 3 |
| 2010-01-12T12:20 | 8158 | 372 | -17.4 | -21.2 | 88 | 4 |
| 2010-01-12T12:21 | 8191 | 370 | -17.6 | -21.8 | 92 | 4 |
| 2010-01-12T12:21 | 8225 | 368 | -17.7 | -22.2 | 95 | 4 |
| 2010-01-12T12:21 | 8260 | 367 | -18.0 | -22.3 | 98 | 4 |
| 2010-01-12T12:21 | 8295 | 365 | -18.2 | -21.9 | 99 | 4 |
| 2010-01-12T12:21 | 8329 | 363 | -18.5 | -21.9 | 101 | 4 |
| 2010-01-12T12:21 | 8364 | 362 | -18.8 | -22.0 | 105 | 4 |
| 2010-01-12T12:22 | 8400 | 360 | -19.0 | -23.1 | 107 | 4 |
| 2010-01-12T12:22 | 8437 | 358 | -19.2 | -23.7 | 105 | 3 |
| 2010-01-12T12:22 | 8476 | 356 | -19.4 | -22.9 | 97 | 4 |
| 2010-01-12T12:22 | 8514 | 354 | -19.6 | -22.8 | 90 | 4 |
| 2010-01-12T12:22 | 8547 | 353 | -19.8 | -22.6 | 88 | 4 |
| 2010-01-12T12:22 | 8581 | 351 | -20.0 | -22.5 | 88 | 5 |
| 2010-01-12T12:23 | 8624 | 349 | -20.3 | -23.4 | 88 | 6 |
| 2010-01-12T12:23 | 8671 | 347 | -20.4 | -23.3 | 89 | 6 |
| 2010-01-12T12:23 | 8718 | 345 | -20.8 | -23.6 | 87 | 7 |
| 2010-01-12T12:23 | 8767 | 343 | -21.2 | -23.6 | 82 | 7 |
| 2010-01-12T12:23 | 8814 | 340 | -21.6 | -23.6 | 77 | 8 |
| 2010-01-12T12:23 | 8858 | 338 | -22.0 | -23.6 | 76 | 8 |
| 2010-01-12T12:24 | 8903 | 336 | -22.5 | -23.7 | 74 | 8 |
| 2010-01-12T12:24 | 8941 | 335 | -22.7 | -23.7 | 71 | 9 |
| 2010-01-12T12:24 | 8984 | 333 | -23.1 | -23.9 | 69 | 9 |
| 2010-01-12T12:24 | 9025 | 331 | -23.5 | -24.1 | 65 | 10 |
| 2010-01-12T12:24 | 9060 | 329 | -23.5 | -24.5 | 62 | 10 |
| 2010-01-12T12:24 | 9095 | 328 | -23.5 | -25.1 | 58 | 9 |
| 2010-01-12T12:25 | 9131 | 326 | -23.5 | -25.6 | 55 | 9 |
| 2010-01-12T12:25 | 9167 | 324 | -23.8 | -26.0 | 52 | 9 |
| 2010-01-12T12:25 | 9204 | 323 | -23.9 | -26.4 | 50 | 8 |
| 2010-01-12T12:25 | 9243 | 321 | -24.1 | -27.1 | 47 | 8 |
| 2010-01-12T12:25 | 9281 | 319 | -24.4 | -27.7 | 46 | 8 |
| 2010-01-12T12:25 | 9318 | 318 | -24.7 | -28.2 | 47 | 8 |
| 2010-01-12T12:26 | 9357 | 316 | -25.0 | -28.3 | 50 | 7 |
| 2010-01-12T12:26 | 9395 | 314 | -25.2 | -28.3 | 53 | 7 |
| 2010-01-12T12:26 | 9433 | 313 | -25.6 | -28.5 | 55 | 7 |
| 2010-01-12T12:26 | 9470 | 311 | -25.9 | -28.8 | 57 | 7 |
| 2010-01-12T12:26 | 9509 | 309 | -26.2 | -28.6 | 59 | 7 |
| 2010-01-12T12:26 | 9548 | 308 | -26.6 | -28.7 | 59 | 7 |
| 2010-01-12T12:27 | 9585 | 306 | -26.9 | -28.9 | 57 | 7 |
| 2010-01-12T12:27 | 9622 | 305 | -27.3 | -29.2 | 53 | 7 |
| 2010-01-12T12:27 | 9660 | 303 | -27.6 | -29.6 | 49 | 7 |
| 2010-01-12T12:27 | 9698 | 301 | -28.0 | -29.9 | 44 | 7 |
| 2010-01-12T12:27 | 9736 | 300 | -28.3 | -30.2 | 42 | 7 |
| 2010-01-12T12:27 | 9772 | 298 | -28.6 | -30.5 | 41 | 7 |
| 2010-01-12T12:28 | 9808 | 297 | -28.8 | -31.0 | 41 | 7 |
| 2010-01-12T12:28 | 9844 | 295 | -29.1 | -31.3 | 38 | 8 |
| 2010-01-12T12:28 | 9880 | 294 | -29.4 | -31.6 | 37 | 8 |
| 2010-01-12T12:28 | 9914 | 292 | -29.6 | -32.1 | 37 | 8 |
| 2010-01-12T12:28 | 9950 | 291 | -29.8 | -32.7 | 39 | 8 |
| 2010-01-12T12:28 | 9984 | 290 | -30.0 | -33.0 | 42 | 8 |
| 2010-01-12T12:29 | 10022 | 288 | -30.3 | -33.3 | 45 | 7 |
| 2010-01-12T12:29 | 10060 | 287 | -30.7 | -33.4 | 46 | 7 |
| 2010-01-12T12:29 | 10098 | 285 | -31.0 | -33.6 | 46 | 7 |
| 2010-01-12T12:29 | 10135 | 284 | -31.3 | -33.7 | 46 | 7 |
| 2010-01-12T12:29 | 10172 | 282 | -31.6 | -33.7 | 46 | 7 |
| 2010-01-12T12:29 | 10208 | 281 | -32.0 | -34.2 | 46 | 7 |
| 2010-01-12T12:30 | 10244 | 279 | -32.3 | -34.3 | 47 | 7 |
| 2010-01-12T12:30 | 10281 | 278 | -32.6 | -34.4 | 48 | 7 |
| 2010-01-12T12:30 | 10319 | 276 | -33.0 | -34.5 | 48 | 7 |
| 2010-01-12T12:30 | 10358 | 275 | -33.3 | -34.5 | 48 | 8 |
| 2010-01-12T12:30 | 10396 | 273 | -33.6 | -34.8 | 49 | 8 |
| 2010-01-12T12:30 | 10431 | 272 | -33.9 | -35.1 | 51 | 9 |
| 2010-01-12T12:31 | 10467 | 270 | -34.2 | -35.5 | 52 | 9 |
| 2010-01-12T12:31 | 10504 | 269 | -34.6 | -35.6 | 53 | 9 |
| 2010-01-12T12:31 | 10540 | 268 | -34.9 | -35.6 | 51 | 9 |
| 2010-01-12T12:31 | 10576 | 266 | -35.2 | -35.8 | 48 | 9 |
| 2010-01-12T12:31 | 10614 | 265 | -35.4 | -36.3 | 44 | 9 |
| 2010-01-12T12:31 | 10651 | 263 | -35.8 | -36.7 | 44 | 9 |
| 2010-01-12T12:32 | 10685 | 262 | -36.0 | -37.0 | 45 | 9 |
| 2010-01-12T12:32 | 10719 | 261 | -36.3 | -37.7 | 45 | 9 |
| 2010-01-12T12:32 | 10752 | 260 | -36.5 | -38.2 | 45 | 9 |
| 2010-01-12T12:32 | 10783 | 258 | -36.7 | -38.7 | 44 | 9 |
| 2010-01-12T12:32 | 10815 | 257 | -36.9 | -39.2 | 44 | 9 |
| 2010-01-12T12:32 | 10847 | 256 | -37.2 | -39.8 | 44 | 9 |
| 2010-01-12T12:33 | 10879 | 255 | -37.4 | -40.1 | 45 | 9 |
| 2010-01-12T12:33 | 10910 | 254 | -37.7 | -40.5 | 46 | 9 |
| 2010-01-12T12:33 | 10942 | 253 | -37.9 | -41.6 | 46 | 9 |
| 2010-01-12T12:33 | 10976 | 251 | -38.1 | -42.2 | 45 | 9 |
| 2010-01-12T12:33 | 11010 | 250 | -38.5 | -42.5 | 45 | 9 |
| 2010-01-12T12:33 | 11044 | 249 | -38.7 | -42.9 | 46 | 9 |
| 2010-01-12T12:34 | 11077 | 248 | -39.0 | -43.3 | 47 | 9 |
| 2010-01-12T12:34 | 11112 | 246 | -39.2 | -44.0 | 45 | 9 |
| 2010-01-12T12:34 | 11146 | 245 | -39.5 | -44.4 | 44 | 9 |
| 2010-01-12T12:34 | 11180 | 244 | -39.8 | -45.3 | 43 | 9 |
| 2010-01-12T12:34 | 11215 | 243 | -40.1 | -45.2 | 42 | 10 |
| 2010-01-12T12:34 | 11248 | 242 | -40.4 | -45.2 | 41 | 10 |
| 2010-01-12T12:35 | 11284 | 240 | -40.7 | -45.8 | 42 | 10 |
| 2010-01-12T12:35 | 11319 | 239 | -41.0 | -46.2 | 42 | 9 |
| 2010-01-12T12:35 | 11355 | 238 | -41.2 | -46.9 | 44 | 9 |
| 2010-01-12T12:35 | 11392 | 237 | -41.5 | -47.6 | 46 | 9 |
| 2010-01-12T12:35 | 11425 | 235 | -41.8 | -48.5 | 47 | 9 |
| 2010-01-12T12:35 | 11460 | 234 | -42.0 | -49.4 | 47 | 10 |
| 2010-01-12T12:36 | 11495 | 233 | -42.3 | -50.1 | 47 | 10 |
| 2010-01-12T12:36 | 11532 | 232 | -42.5 | -50.8 | 48 | 10 |
| 2010-01-12T12:36 | 11570 | 230 | -42.9 | -51.1 | 50 | 10 |
| 2010-01-12T12:36 | 11607 | 229 | -43.2 | -51.4 | 52 | 10 |
| 2010-01-12T12:36 | 11644 | 228 | -43.5 | -51.9 | 54 | 10 |
| 2010-01-12T12:36 | 11681 | 227 | -43.8 | -52.0 | 56 | 10 |
| 2010-01-12T12:37 | 11723 | 225 | -44.2 | -51.8 | 57 | 10 |
| 2010-01-12T12:37 | 11780 | 223 | -44.7 | -51.9 | 59 | 10 |
| 2010-01-12T12:37 | 11820 | 222 | -45.1 | -51.8 | 62 | 10 |
| 2010-01-12T12:37 | 11859 | 221 | -45.5 | -51.9 | 65 | 10 |
| 2010-01-12T12:37 | 11901 | 219 | -45.9 | -51.9 | 68 | 10 |
| 2010-01-12T12:37 | 11936 | 218 | -46.2 | -51.8 | 69 | 10 |
| 2010-01-12T12:38 | 11978 | 217 | -46.6 | -51.8 | 71 | 11 |
| 2010-01-12T12:38 | 12020 | 215 | -47.0 | -51.9 | 74 | 11 |
| 2010-01-12T12:38 | 12063 | 214 | -47.4 | -52.0 | 75 | 11 |
| 2010-01-12T12:38 | 12105 | 213 | -47.8 | -52.1 | 76 | 11 |
| 2010-01-12T12:38 | 12141 | 211 | -48.1 | -52.0 | 78 | 11 |
| 2010-01-12T12:38 | 12179 | 210 | -48.5 | -52.0 | 80 | 11 |
| 2010-01-12T12:39 | 12218 | 209 | -48.8 | -52.1 | 81 | 12 |
| 2010-01-12T12:39 | 12256 | 208 | -49.2 | -52.2 | 83 | 12 |
| 2010-01-12T12:39 | 12295 | 207 | -49.5 | -52.3 | 84 | 13 |
| 2010-01-12T12:39 | 12335 | 205 | -49.8 | -52.6 | 84 | 13 |
| 2010-01-12T12:39 | 12374 | 204 | -50.2 | -52.8 | 84 | 14 |
| 2010-01-12T12:39 | 12413 | 203 | -50.5 | -53.0 | 85 | 14 |
| 2010-01-12T12:40 | 12449 | 202 | -50.8 | -53.4 | 87 | 14 |
| 2010-01-12T12:40 | 12486 | 201 | -51.1 | -53.9 | 88 | 15 |
| 2010-01-12T12:40 | 12524 | 199 | -51.5 | -54.5 | 89 | 15 |
| 2010-01-12T12:40 | 12559 | 198 | -51.7 | -55.2 | 89 | 15 |
| 2010-01-12T12:40 | 12595 | 197 | -52.0 | -55.8 | 90 | 15 |
| 2010-01-12T12:40 | 12630 | 196 | -52.3 | -56.3 | 91 | 15 |
| 2010-01-12T12:41 | 12665 | 195 | -52.6 | -57.1 | 91 | 15 |
| 2010-01-12T12:41 | 12700 | 194 | -52.9 | -58.4 | 90 | 15 |
| 2010-01-12T12:41 | 12735 | 193 | -53.2 | -59.4 | 89 | 15 |
| 2010-01-12T12:41 | 12770 | 192 | -53.6 | -60.0 | 89 | 15 |
| 2010-01-12T12:41 | 12804 | 191 | -53.8 | -60.3 | 89 | 15 |
| 2010-01-12T12:41 | 12839 | 190 | -54.2 | -60.8 | 89 | 15 |
| 2010-01-12T12:42 | 12872 | 189 | -54.5 | -61.2 | 88 | 15 |
| 2010-01-12T12:42 | 12905 | 188 | -54.8 | -61.5 | 88 | 15 |
| 2010-01-12T12:42 | 12938 | 187 | -55.1 | -61.7 | 88 | 15 |
| 2010-01-12T12:42 | 12970 | 186 | -55.4 | -61.8 | 88 | 14 |
| 2010-01-12T12:42 | 13003 | 185 | -55.7 | -62.0 | 88 | 14 |
| 2010-01-12T12:42 | 13036 | 184 | -56.0 | -62.3 | 87 | 14 |
| 2010-01-12T12:43 | 13071 | 183 | -56.3 | -62.5 | 88 | 14 |
| 2010-01-12T12:43 | 13107 | 182 | -56.7 | -62.7 | 89 | 15 |
| 2010-01-12T12:43 | 13140 | 181 | -56.9 | -62.8 | 91 | 15 |
| 2010-01-12T12:43 | 13173 | 180 | -57.2 | -62.9 | 92 | 15 |
| 2010-01-12T12:43 | 13206 | 179 | -57.5 | -63.5 | 93 | 15 |
| 2010-01-12T12:43 | 13239 | 178 | -57.8 | -63.9 | 93 | 15 |
| 2010-01-12T12:44 | 13273 | 177 | -58.1 | -64.3 | 93 | 16 |
| 2010-01-12T12:44 | 13309 | 176 | -58.4 | -64.7 | 92 | 16 |
| 2010-01-12T12:44 | 13342 | 175 | -58.7 | -64.9 | 92 | 16 |
| 2010-01-12T12:44 | 13377 | 174 | -59.1 | -64.9 | 92 | 17 |
| 2010-01-12T12:44 | 13412 | 173 | -59.4 | -65.0 | 91 | 17 |
| 2010-01-12T12:44 | 13446 | 173 | -59.7 | -65.0 | 89 | 17 |
| 2010-01-12T12:45 | 13480 | 172 | -60.0 | -65.2 | 88 | 17 |
| 2010-01-12T12:45 | 13512 | 171 | -60.3 | -65.5 | 87 | 17 |
| 2010-01-12T12:45 | 13546 | 170 | -60.6 | -65.9 | 87 | 17 |
| 2010-01-12T12:45 | 13579 | 169 | -60.9 | -66.4 | 86 | 17 |
| 2010-01-12T12:45 | 13613 | 168 | -61.2 | -66.9 | 86 | 17 |
| 2010-01-12T12:45 | 13647 | 167 | -61.5 | -67.3 | 86 | 17 |
| 2010-01-12T12:46 | 13680 | 166 | -61.8 | -67.7 | 86 | 17 |
| 2010-01-12T12:46 | 13713 | 165 | -62.2 | -68.1 | 86 | 17 |
| 2010-01-12T12:46 | 13747 | 164 | -62.4 | -68.6 | 87 | 17 |
| 2010-01-12T12:46 | 13782 | 163 | -62.7 | -69.1 | 89 | 16 |
| 2010-01-12T12:46 | 13817 | 163 | -63.0 | -69.7 | 90 | 16 |
| 2010-01-12T12:46 | 13852 | 162 | -63.3 | -70.2 | 91 | 15 |
| 2010-01-12T12:47 | 13888 | 161 | -63.6 | -70.5 | 93 | 15 |
| 2010-01-12T12:47 | 13924 | 160 | -63.9 | -70.9 | 95 | 15 |
| 2010-01-12T12:47 | 13960 | 159 | -64.2 | -71.5 | 96 | 15 |
| 2010-01-12T12:47 | 13994 | 158 | -64.5 | -72.1 | 97 | 15 |
| 2010-01-12T12:47 | 14030 | 157 | -64.8 | -72.6 | 97 | 15 |
| 2010-01-12T12:47 | 14065 | 156 | -65.0 | -73.0 | 97 | 15 |
| 2010-01-12T12:48 | 14101 | 155 | -65.3 | -73.3 | 97 | 14 |
| 2010-01-12T12:48 | 14140 | 154 | -65.7 | -73.6 | 97 | 14 |
| 2010-01-12T12:48 | 14174 | 153 | -66.0 | -73.8 | 98 | 14 |
| 2010-01-12T12:48 | 14209 | 152 | -66.4 | -74.0 | 98 | 14 |
| 2010-01-12T12:48 | 14244 | 152 | -66.7 | -74.2 | 98 | 14 |
| 2010-01-12T12:48 | 14279 | 151 | -67.0 | -74.4 | 98 | 14 |
| 2010-01-12T12:49 | 14315 | 150 | -67.4 | -74.6 | 98 | 14 |
| 2010-01-12T12:49 | 14349 | 149 | -67.7 | -74.8 | 98 | 14 |
| 2010-01-12T12:49 | 14384 | 148 | -68.0 | -75.0 | 99 | 14 |
| 2010-01-12T12:49 | 14418 | 147 | -68.3 | -75.2 | 99 | 14 |
| 2010-01-12T12:49 | 14453 | 146 | -68.7 | -75.4 | 98 | 14 |
| 2010-01-12T12:49 | 14488 | 145 | -69.0 | -75.6 | 97 | 14 |
| 2010-01-12T12:50 | 14523 | 145 | -69.3 | -75.7 | 95 | 14 |
| 2010-01-12T12:50 | 14560 | 144 | -69.6 | -75.9 | 93 | 14 |
| 2010-01-12T12:50 | 14595 | 143 | -69.9 | -76.1 | 93 | 14 |
| 2010-01-12T12:50 | 14631 | 142 | -70.3 | -76.3 | 92 | 14 |
| 2010-01-12T12:50 | 14666 | 141 | -70.6 | -76.5 | 92 | 14 |
| 2010-01-12T12:50 | 14704 | 140 | -70.9 | -76.8 | 91 | 14 |
| 2010-01-12T12:51 | 14740 | 139 | -71.3 | -77.0 | 91 | 14 |
| 2010-01-12T12:51 | 14775 | 139 | -71.6 | -77.3 | 91 | 14 |
| 2010-01-12T12:51 | 14809 | 138 | -71.9 | -77.6 | 91 | 14 |
| 2010-01-12T12:51 | 14843 | 137 | -72.3 | -77.8 | 90 | 15 |
| 2010-01-12T12:51 | 14882 | 136 | -72.5 | -78.0 | 90 | 15 |
| 2010-01-12T12:51 | 14920 | 135 | -72.8 | -78.3 | 90 | 16 |
| 2010-01-12T12:52 | 14959 | 134 | -73.1 | -78.5 | 89 | 16 |
| 2010-01-12T12:52 | 15001 | 133 | -73.5 | -78.8 | 88 | 16 |
| 2010-01-12T12:52 | 15043 | 132 | -73.9 | -79.1 | 87 | 17 |
| 2010-01-12T12:52 | 15082 | 132 | -74.3 | -79.4 | 86 | 17 |
| 2010-01-12T12:52 | 15122 | 131 | -74.6 | -79.7 | 86 | 17 |
| 2010-01-12T12:52 | 15162 | 130 | -75.0 | -79.9 | 86 | 17 |
| 2010-01-12T12:53 | 15199 | 129 | -75.3 | -80.2 | 86 | 18 |
| 2010-01-12T12:53 | 15236 | 128 | -75.7 | -80.5 | 87 | 18 |
| 2010-01-12T12:53 | 15276 | 127 | -76.1 | -80.8 | 87 | 18 |
| 2010-01-12T12:53 | 15315 | 126 | -76.4 | -81.1 | 86 | 18 |
| 2010-01-12T12:53 | 15353 | 126 | -76.8 | -81.4 | 85 | 18 |
| 2010-01-12T12:53 | 15394 | 125 | -77.2 | -81.7 | 84 | 19 |
| 2010-01-12T12:54 | 15435 | 124 | -77.6 | -82.0 | 83 | 19 |
| 2010-01-12T12:54 | 15471 | 123 | -77.9 | -82.3 | 82 | 19 |
| 2010-01-12T12:54 | 15508 | 122 | -78.3 | -82.6 | 82 | 19 |
| 2010-01-12T12:54 | 15545 | 121 | -78.6 | -82.9 | 82 | 19 |
| 2010-01-12T12:54 | 15583 | 121 | -79.0 | -83.2 | 83 | 19 |
| 2010-01-12T12:54 | 15620 | 120 | -79.3 | -83.5 | 84 | 19 |
| 2010-01-12T12:55 | 15656 | 119 | -79.7 | -83.9 | 85 | 19 |
| 2010-01-12T12:55 | 15693 | 118 | -80.0 | -84.2 | 86 | 20 |
| 2010-01-12T12:55 | 15728 | 118 | -80.3 | -84.5 | 87 | 20 |
| 2010-01-12T12:55 | 15764 | 117 | -80.6 | -84.8 | 88 | 20 |
| 2010-01-12T12:55 | 15799 | 116 | -80.8 | -85.0 | 88 | 21 |
| 2010-01-12T12:55 | 15835 | 115 | -81.1 | -85.2 | 88 | 21 |
| 2010-01-12T12:56 | 15871 | 115 | -81.4 | -85.5 | 88 | 21 |
| 2010-01-12T12:56 | 15906 | 114 | -81.7 | -85.8 | 87 | 21 |
| 2010-01-12T12:56 | 15942 | 113 | -82.0 | -86.2 | 87 | 21 |
| 2010-01-12T12:56 | 15976 | 112 | -82.3 | -86.5 | 88 | 21 |
| 2010-01-12T12:56 | 16012 | 112 | -82.7 | -86.8 | 88 | 21 |
| 2010-01-12T12:56 | 16048 | 111 | -82.9 | -87.1 | 87 | 22 |
| 2010-01-12T12:57 | 16085 | 110 | -83.1 | -87.2 | 86 | 23 |
| 2010-01-12T12:57 | 16120 | 110 | -83.2 | -87.4 | 85 | 23 |
| 2010-01-12T12:57 | 16154 | 109 | -83.4 | -87.6 | 84 | 24 |
| 2010-01-12T12:57 | 16188 | 108 | -83.7 | -87.8 | 84 | 24 |
| 2010-01-12T12:57 | 16222 | 108 | -83.9 | -88.1 | 83 | 25 |
| 2010-01-12T12:57 | 16256 | 107 | -84.2 | -88.3 | 82 | 25 |
| 2010-01-12T12:58 | 16292 | 106 | -84.4 | -88.6 | 81 | 26 |
| 2010-01-12T12:58 | 16327 | 106 | -84.5 | -88.7 | 80 | 26 |
| 2010-01-12T12:58 | 16362 | 105 | -84.7 | -88.9 | 78 | 26 |
| 2010-01-12T12:58 | 16396 | 104 | -84.6 | -88.8 | 76 | 26 |
| 2010-01-12T12:58 | 16429 | 104 | -84.5 | -88.8 | 74 | 26 |
| 2010-01-12T12:58 | 16462 | 103 | -84.7 | -88.9 | 72 | 25 |
| 2010-01-12T12:59 | 16496 | 102 | -84.6 | -88.8 | 71 | 25 |
| 2010-01-12T12:59 | 16529 | 102 | -84.6 | -88.8 | 71 | 24 |
| 2010-01-12T12:59 | 16562 | 101 | -84.8 | -89.0 | 71 | 23 |
| 2010-01-12T12:59 | 16593 | 101 | -84.9 | -89.1 | 69 | 22 |
| 2010-01-12T12:59 | 16627 | 100 | -84.7 | -88.9 | 67 | 21 |
| 2010-01-12T12:59 | 16660 | 99 | -84.5 | -88.7 | 66 | 20 |
| 2010-01-12T13:00 | 16695 | 99 | -84.6 | -88.8 | 66 | 19 |
| 2010-01-12T13:00 | 16728 | 98 | -84.9 | -89.1 | 67 | 19 |
| 2010-01-12T13:00 | 16760 | 98 | -85.1 | -89.3 | 68 | 19 |
| 2010-01-12T13:00 | 16795 | 97 | -85.3 | -89.5 | 70 | 19 |
| 2010-01-12T13:00 | 16829 | 96 | -85.4 | -89.6 | 70 | 19 |
| 2010-01-12T13:00 | 16865 | 96 | -85.7 | -89.8 | 68 | 19 |
| 2010-01-12T13:01 | 16905 | 95 | -85.2 | -89.5 | 64 | 20 |
| 2010-01-12T13:01 | 16948 | 94 | -85.3 | -89.6 | 61 | 20 |
| 2010-01-12T13:01 | 16984 | 94 | -85.5 | -89.7 | 59 | 20 |
| 2010-01-12T13:01 | 17020 | 93 | -85.7 | -90.0 | 58 | 20 |
| 2010-01-12T13:01 | 17055 | 92 | -86.1 | -90.3 | 57 | 20 |
| 2010-01-12T13:01 | 17090 | 92 | -86.4 | -90.6 | 57 | 20 |
| 2010-01-12T13:02 | 17124 | 91 | -86.6 | -90.9 | 56 | 20 |
| 2010-01-12T13:02 | 17159 | 91 | -86.8 | -91.1 | 55 | 20 |
| 2010-01-12T13:02 | 17193 | 90 | -86.7 | -91.0 | 53 | 20 |
| 2010-01-12T13:02 | 17229 | 90 | -86.6 | -90.9 | 52 | 19 |
| 2010-01-12T13:02 | 17264 | 89 | -83.5 | -88.1 | 52 | 17 |
| 2010-01-12T13:02 | 17302 | 88 | -82.5 | -87.0 | 53 | 14 |
| 2010-01-12T13:03 | 17337 | 88 | -81.9 | -86.5 | 54 | 12 |
| 2010-01-12T13:03 | 17374 | 87 | -81.3 | -85.9 | 57 | 10 |
| 2010-01-12T13:03 | 17410 | 87 | -81.0 | -85.7 | 61 | 8 |
| 2010-01-12T13:03 | 17443 | 86 | -79.9 | -84.8 | 65 | 6 |
| 2010-01-12T13:03 | 17474 | 86 | -79.3 | -84.3 | 69 | 4 |
| 2010-01-12T13:03 | 17505 | 85 | -79.5 | -84.5 | 74 | 3 |
| 2010-01-12T13:04 | 17537 | 85 | -79.4 | -84.5 | 80 | 2 |
| 2010-01-12T13:04 | 17569 | 84 | -79.3 | -84.6 | 88 | 1 |
| 2010-01-12T13:04 | 17605 | 84 | -79.6 | -84.9 | 111 | 0 |
| 2010-01-12T13:04 | 17639 | 83 | -79.9 | -85.3 | 163 | 0 |
| 2010-01-12T13:04 | 17674 | 83 | -80.1 | -85.6 | 182 | 1 |
| 2010-01-12T13:04 | 17708 | 82 | -80.3 | -85.9 | 184 | 1 |
| 2010-01-12T13:05 | 17743 | 82 | -80.5 | -86.2 | 186 | 2 |
| 2010-01-12T13:05 | 17777 | 81 | -80.8 | -86.6 | 192 | 2 |
| 2010-01-12T13:05 | 17812 | 81 | -81.2 | -87.0 | 200 | 2 |
| 2010-01-12T13:05 | 17846 | 80 | -81.4 | -87.3 | 211 | 3 |
| 2010-01-12T13:05 | 17880 | 80 | -81.7 | -87.6 | 222 | 4 |
| 2010-01-12T13:05 | 17915 | 79 | -81.2 | -87.2 | 226 | 6 |
| 2010-01-12T13:06 | 17949 | 79 | -80.8 | -86.9 | 225 | 6 |
| 2010-01-12T13:06 | 17982 | 78 | -81.0 | -87.1 | 224 | 6 |
| 2010-01-12T13:06 | 18017 | 78 | -81.1 | -87.3 | 222 | 5 |
| 2010-01-12T13:06 | 18050 | 77 | -80.9 | -87.2 | 223 | 5 |
| 2010-01-12T13:06 | 18083 | 77 | -81.1 | -87.4 | 227 | 4 |
| 2010-01-12T13:06 | 18117 | 77 | -81.2 | -87.6 | 234 | 3 |
| 2010-01-12T13:07 | 18152 | 76 | -80.8 | -87.3 | 245 | 3 |
| 2010-01-12T13:07 | 18186 | 76 | -80.2 | -86.8 | 268 | 2 |
| 2010-01-12T13:07 | 18220 | 75 | -79.6 | -86.3 | 288 | 3 |
| 2010-01-12T13:07 | 18254 | 75 | -79.0 | -85.8 | 292 | 4 |
| 2010-01-12T13:07 | 18289 | 74 | -78.4 | -85.4 | 291 | 5 |
| 2010-01-12T13:07 | 18323 | 74 | -78.4 | -85.3 | 291 | 5 |
| 2010-01-12T13:08 | 18357 | 73 | -78.5 | -85.5 | 295 | 6 |
| 2010-01-12T13:08 | 18391 | 73 | -78.2 | -85.4 | 299 | 7 |
| 2010-01-12T13:08 | 18426 | 72 | -78.1 | -85.4 | 302 | 7 |
| 2010-01-12T13:08 | 18459 | 72 | -78.2 | -85.5 | 303 | 7 |
| 2010-01-12T13:08 | 18491 | 72 | -77.7 | -85.3 | 303 | 7 |
| 2010-01-12T13:08 | 18522 | 71 | -77.8 | -85.4 | 303 | 7 |
| 2010-01-12T13:09 | 18555 | 71 | -78.0 | -85.7 | 303 | 7 |
| 2010-01-12T13:09 | 18586 | 70 | -78.1 | -85.9 | 302 | 6 |
| 2010-01-12T13:09 | 18617 | 70 | -78.0 | -85.9 | 298 | 6 |
| 2010-01-12T13:09 | 18649 | 70 | -77.6 | -85.7 | 294 | 5 |
| 2010-01-12T13:09 | 18680 | 69 | -77.6 | -85.7 | 295 | 4 |
| 2010-01-12T13:09 | 18712 | 69 | -77.5 | -85.7 | 299 | 4 |
| 2010-01-12T13:10 | 18744 | 69 | -76.8 | -85.3 | 302 | 4 |
| 2010-01-12T13:10 | 18777 | 68 | -76.8 | -85.3 | 301 | 3 |
| 2010-01-12T13:10 | 18810 | 68 | -75.9 | -84.7 | 298 | 3 |
| 2010-01-12T13:10 | 18844 | 67 | -75.6 | -84.5 | 299 | 3 |
| 2010-01-12T13:10 | 18878 | 67 | -75.8 | -84.8 | 304 | 4 |
| 2010-01-12T13:10 | 18912 | 67 | -75.8 | -84.9 | 305 | 4 |
| 2010-01-12T13:11 | 18948 | 66 | -75.6 | -84.9 | 303 | 4 |
| 2010-01-12T13:11 | 18984 | 66 | -75.6 | -85.1 | 300 | 4 |
| 2010-01-12T13:11 | 19022 | 65 | -75.3 | -84.9 | 298 | 4 |
| 2010-01-12T13:11 | 19057 | 65 | -75.4 | -85.2 | 301 | 3 |
| 2010-01-12T13:11 | 19094 | 65 | -75.5 | -85.3 | 310 | 2 |
| 2010-01-12T13:11 | 19129 | 64 | -75.6 | -85.6 | 320 | 2 |
| 2010-01-12T13:12 | 19164 | 64 | -75.7 | -85.8 | 323 | 2 |
| 2010-01-12T13:12 | 19202 | 63 | -75.4 | -85.7 | 326 | 3 |
| 2010-01-12T13:12 | 19236 | 63 | -75.0 | -85.5 | 337 | 4 |
| 2010-01-12T13:12 | 19271 | 63 | -74.7 | -85.3 | 352 | 5 |
| 2010-01-12T13:12 | 19302 | 62 | -74.3 | -85.1 | 1 | 5 |
| 2010-01-12T23:34 | 4 | 1009 | 26.1 | 24.6 | 300 | 6 |
| 2010-01-12T23:34 | 12 | 1008 | 26.8 | 23.1 | 300 | 7 |
| 2010-01-12T23:34 | 21 | 1007 | 27.5 | 21.3 | 301 | 8 |
| 2010-01-12T23:34 | 30 | 1006 | 28.0 | 22.0 | 301 | 10 |
| 2010-01-12T23:34 | 39 | 1005 | 28.1 | 22.7 | 302 | 11 |
| 2010-01-12T23:34 | 46 | 1004 | 28.1 | 23.1 | 302 | 12 |
| 2010-01-12T23:34 | 53 | 1003 | 28.0 | 23.3 | 302 | 12 |
| 2010-01-12T23:34 | 60 | 1002 | 28.0 | 23.4 | 302 | 13 |
| 2010-01-12T23:34 | 67 | 1001 | 27.9 | 23.5 | 302 | 13 |
| 2010-01-12T23:34 | 77 | 1000 | 27.9 | 23.5 | 302 | 13 |
| 2010-01-12T23:34 | 89 | 999 | 27.8 | 23.5 | 302 | 13 |
| 2010-01-12T23:34 | 101 | 998 | 27.7 | 23.5 | 302 | 13 |
| 2010-01-12T23:34 | 111 | 997 | 27.7 | 23.5 | 302 | 13 |
| 2010-01-12T23:34 | 119 | 996 | 27.7 | 23.3 | 302 | 13 |
| 2010-01-12T23:34 | 127 | 995 | 27.5 | 23.3 | 302 | 13 |
| 2010-01-12T23:34 | 138 | 994 | 27.4 | 23.3 | 302 | 13 |
| 2010-01-12T23:34 | 147 | 993 | 27.3 | 23.3 | 302 | 13 |
| 2010-01-12T23:34 | 155 | 992 | 27.4 | 23.1 | 302 | 13 |
| 2010-01-12T23:34 | 162 | 991 | 27.4 | 23.1 | 302 | 13 |
| 2010-01-12T23:34 | 170 | 990 | 27.3 | 23.1 | 302 | 13 |
| 2010-01-12T23:34 | 179 | 989 | 27.2 | 23.0 | 302 | 13 |
| 2010-01-12T23:34 | 187 | 988 | 27.1 | 23.0 | 302 | 13 |
| 2010-01-12T23:34 | 194 | 987 | 27.1 | 23.0 | 302 | 13 |
| 2010-01-12T23:34 | 202 | 986 | 27.0 | 23.0 | 302 | 13 |
| 2010-01-12T23:34 | 210 | 985 | 26.9 | 23.0 | 302 | 13 |
| 2010-01-12T23:34 | 218 | 985 | 26.8 | 22.9 | 302 | 13 |
| 2010-01-12T23:34 | 226 | 984 | 26.8 | 22.8 | 302 | 13 |
| 2010-01-12T23:34 | 234 | 983 | 26.7 | 22.8 | 302 | 13 |
| 2010-01-12T23:34 | 243 | 982 | 26.6 | 22.8 | 302 | 13 |
| 2010-01-12T23:34 | 252 | 981 | 26.5 | 22.8 | 302 | 12 |
| 2010-01-12T23:35 | 261 | 980 | 26.5 | 22.8 | 302 | 12 |
| 2010-01-12T23:35 | 268 | 979 | 26.4 | 22.8 | 303 | 12 |
| 2010-01-12T23:35 | 276 | 978 | 26.4 | 22.7 | 303 | 12 |
| 2010-01-12T23:35 | 283 | 977 | 26.3 | 22.7 | 303 | 12 |
| 2010-01-12T23:35 | 290 | 977 | 26.2 | 22.7 | 303 | 12 |
| 2010-01-12T23:35 | 297 | 976 | 26.1 | 22.7 | 304 | 12 |
| 2010-01-12T23:35 | 304 | 975 | 26.1 | 22.6 | 304 | 12 |
| 2010-01-12T23:35 | 312 | 974 | 26.0 | 22.6 | 305 | 12 |
| 2010-01-12T23:35 | 321 | 973 | 25.9 | 22.6 | 305 | 12 |
| 2010-01-12T23:35 | 330 | 972 | 25.8 | 22.5 | 305 | 12 |
| 2010-01-12T23:35 | 340 | 971 | 25.7 | 22.5 | 306 | 12 |
| 2010-01-12T23:35 | 350 | 970 | 25.6 | 22.6 | 306 | 13 |
| 2010-01-12T23:35 | 361 | 969 | 25.5 | 22.6 | 306 | 13 |
| 2010-01-12T23:35 | 371 | 968 | 25.4 | 22.6 | 306 | 13 |
| 2010-01-12T23:35 | 380 | 967 | 25.3 | 22.5 | 306 | 13 |
| 2010-01-12T23:35 | 390 | 966 | 25.3 | 22.5 | 306 | 13 |
| 2010-01-12T23:35 | 400 | 965 | 25.2 | 22.5 | 307 | 13 |
| 2010-01-12T23:35 | 411 | 963 | 25.0 | 22.5 | 307 | 13 |
| 2010-01-12T23:35 | 421 | 962 | 25.0 | 22.4 | 307 | 13 |
| 2010-01-12T23:35 | 430 | 961 | 24.9 | 22.3 | 307 | 13 |
| 2010-01-12T23:35 | 441 | 960 | 24.8 | 22.3 | 307 | 13 |
| 2010-01-12T23:35 | 453 | 959 | 24.6 | 22.3 | 307 | 13 |
| 2010-01-12T23:35 | 465 | 957 | 24.5 | 22.4 | 307 | 13 |
| 2010-01-12T23:35 | 475 | 956 | 24.4 | 22.4 | 307 | 13 |
| 2010-01-12T23:35 | 485 | 955 | 24.3 | 22.4 | 307 | 13 |
| 2010-01-12T23:35 | 496 | 954 | 24.2 | 22.4 | 307 | 13 |
| 2010-01-12T23:35 | 508 | 953 | 24.1 | 22.3 | 307 | 13 |
| 2010-01-12T23:35 | 518 | 952 | 24.0 | 22.3 | 307 | 13 |
| 2010-01-12T23:35 | 526 | 951 | 23.9 | 22.3 | 307 | 13 |
| 2010-01-12T23:35 | 535 | 950 | 23.8 | 22.2 | 307 | 13 |
| 2010-01-12T23:36 | 544 | 949 | 23.8 | 22.2 | 307 | 13 |
| 2010-01-12T23:36 | 553 | 948 | 23.7 | 22.1 | 307 | 13 |
| 2010-01-12T23:36 | 563 | 947 | 23.6 | 22.1 | 307 | 13 |
| 2010-01-12T23:36 | 573 | 946 | 23.5 | 22.1 | 306 | 13 |
| 2010-01-12T23:36 | 581 | 945 | 23.4 | 22.2 | 306 | 13 |
| 2010-01-12T23:36 | 590 | 944 | 23.3 | 22.2 | 305 | 13 |
| 2010-01-12T23:36 | 600 | 943 | 23.2 | 22.1 | 304 | 13 |
| 2010-01-12T23:36 | 611 | 942 | 23.1 | 22.1 | 304 | 13 |
| 2010-01-12T23:36 | 621 | 941 | 23.0 | 22.1 | 303 | 13 |
| 2010-01-12T23:36 | 631 | 940 | 22.9 | 22.0 | 302 | 13 |
| 2010-01-12T23:36 | 642 | 938 | 22.8 | 22.0 | 301 | 13 |
| 2010-01-12T23:36 | 652 | 937 | 22.7 | 22.0 | 300 | 13 |
| 2010-01-12T23:36 | 660 | 936 | 22.6 | 22.0 | 299 | 13 |
| 2010-01-12T23:36 | 669 | 935 | 22.6 | 22.0 | 298 | 13 |
| 2010-01-12T23:36 | 678 | 935 | 22.6 | 21.8 | 297 | 13 |
| 2010-01-12T23:36 | 687 | 934 | 22.6 | 21.7 | 296 | 14 |
| 2010-01-12T23:36 | 699 | 932 | 22.5 | 21.5 | 295 | 14 |
| 2010-01-12T23:36 | 709 | 931 | 22.4 | 21.4 | 294 | 14 |
| 2010-01-12T23:36 | 716 | 930 | 22.4 | 21.4 | 293 | 14 |
| 2010-01-12T23:36 | 726 | 929 | 22.3 | 21.4 | 293 | 14 |
| 2010-01-12T23:36 | 737 | 928 | 22.3 | 21.3 | 292 | 15 |
| 2010-01-12T23:36 | 750 | 927 | 22.2 | 21.2 | 292 | 15 |
| 2010-01-12T23:36 | 762 | 926 | 22.2 | 21.1 | 291 | 15 |
| 2010-01-12T23:36 | 772 | 925 | 22.1 | 21.1 | 291 | 15 |
| 2010-01-12T23:36 | 781 | 924 | 22.0 | 21.1 | 291 | 15 |
| 2010-01-12T23:36 | 790 | 923 | 21.9 | 21.0 | 291 | 15 |
| 2010-01-12T23:36 | 800 | 922 | 21.8 | 21.0 | 291 | 15 |
| 2010-01-12T23:36 | 810 | 920 | 21.6 | 21.0 | 291 | 15 |
| 2010-01-12T23:36 | 821 | 919 | 21.6 | 20.9 | 291 | 15 |
| 2010-01-12T23:36 | 834 | 918 | 21.5 | 20.8 | 292 | 16 |
| 2010-01-12T23:37 | 846 | 917 | 21.5 | 20.7 | 292 | 16 |
| 2010-01-12T23:37 | 856 | 916 | 21.5 | 20.6 | 292 | 16 |
| 2010-01-12T23:37 | 866 | 915 | 21.4 | 20.6 | 292 | 16 |
| 2010-01-12T23:37 | 874 | 914 | 21.3 | 20.6 | 292 | 16 |
| 2010-01-12T23:37 | 883 | 913 | 21.2 | 20.6 | 292 | 16 |
| 2010-01-12T23:37 | 893 | 912 | 21.1 | 20.5 | 292 | 16 |
| 2010-01-12T23:37 | 905 | 911 | 21.1 | 20.4 | 292 | 16 |
| 2010-01-12T23:37 | 916 | 909 | 21.0 | 20.4 | 292 | 16 |
| 2010-01-12T23:37 | 927 | 908 | 20.9 | 20.3 | 291 | 16 |
| 2010-01-12T23:37 | 937 | 907 | 20.9 | 20.2 | 291 | 16 |
| 2010-01-12T23:37 | 946 | 906 | 20.8 | 20.2 | 291 | 16 |
| 2010-01-12T23:37 | 956 | 905 | 20.7 | 20.2 | 290 | 16 |
| 2010-01-12T23:37 | 966 | 904 | 20.6 | 20.2 | 290 | 17 |
| 2010-01-12T23:37 | 977 | 903 | 20.5 | 20.1 | 290 | 17 |
| 2010-01-12T23:37 | 989 | 902 | 20.5 | 20.0 | 290 | 17 |
| 2010-01-12T23:37 | 1000 | 901 | 20.4 | 19.9 | 290 | 17 |
| 2010-01-12T23:37 | 1010 | 900 | 20.3 | 19.9 | 290 | 17 |
| 2010-01-12T23:37 | 1020 | 899 | 20.3 | 19.8 | 290 | 18 |
| 2010-01-12T23:37 | 1029 | 898 | 20.3 | 19.8 | 289 | 18 |
| 2010-01-12T23:37 | 1038 | 897 | 20.2 | 19.7 | 289 | 18 |
| 2010-01-12T23:37 | 1047 | 896 | 20.1 | 19.7 | 289 | 18 |
| 2010-01-12T23:37 | 1057 | 895 | 20.0 | 19.7 | 289 | 18 |
| 2010-01-12T23:37 | 1067 | 894 | 20.0 | 19.6 | 289 | 18 |
| 2010-01-12T23:37 | 1076 | 893 | 20.0 | 19.5 | 289 | 18 |
| 2010-01-12T23:37 | 1085 | 892 | 20.0 | 19.4 | 288 | 18 |
| 2010-01-12T23:37 | 1095 | 891 | 19.9 | 19.3 | 288 | 18 |
| 2010-01-12T23:37 | 1106 | 890 | 19.8 | 19.3 | 288 | 18 |
| 2010-01-12T23:37 | 1118 | 888 | 19.8 | 19.2 | 288 | 18 |
| 2010-01-12T23:37 | 1128 | 887 | 19.7 | 19.2 | 288 | 18 |
| 2010-01-12T23:37 | 1137 | 887 | 19.6 | 19.1 | 288 | 18 |
| 2010-01-12T23:38 | 1147 | 885 | 19.6 | 19.1 | 288 | 18 |
| 2010-01-12T23:38 | 1158 | 884 | 19.6 | 19.0 | 288 | 18 |
| 2010-01-12T23:38 | 1169 | 883 | 19.6 | 18.9 | 288 | 18 |
| 2010-01-12T23:38 | 1179 | 882 | 19.5 | 18.8 | 288 | 18 |
| 2010-01-12T23:38 | 1190 | 881 | 19.4 | 18.8 | 288 | 18 |
| 2010-01-12T23:38 | 1200 | 880 | 19.4 | 18.7 | 288 | 18 |
| 2010-01-12T23:38 | 1210 | 879 | 19.3 | 18.6 | 288 | 18 |
| 2010-01-12T23:38 | 1219 | 878 | 19.2 | 18.6 | 288 | 19 |
| 2010-01-12T23:38 | 1229 | 877 | 19.1 | 18.5 | 287 | 19 |
| 2010-01-12T23:38 | 1239 | 876 | 18.9 | 18.5 | 287 | 19 |
| 2010-01-12T23:38 | 1249 | 875 | 18.9 | 18.5 | 287 | 19 |
| 2010-01-12T23:38 | 1259 | 874 | 18.8 | 18.5 | 287 | 19 |
| 2010-01-12T23:38 | 1271 | 873 | 18.8 | 18.4 | 286 | 19 |
| 2010-01-12T23:38 | 1281 | 872 | 18.7 | 18.4 | 286 | 19 |
| 2010-01-12T23:38 | 1290 | 871 | 18.6 | 18.3 | 286 | 19 |
| 2010-01-12T23:38 | 1301 | 870 | 18.6 | 18.3 | 286 | 19 |
| 2010-01-12T23:38 | 1313 | 869 | 18.6 | 18.2 | 285 | 19 |
| 2010-01-12T23:38 | 1325 | 867 | 18.6 | 18.1 | 285 | 19 |
| 2010-01-12T23:38 | 1335 | 866 | 18.6 | 18.0 | 285 | 19 |
| 2010-01-12T23:38 | 1344 | 866 | 18.5 | 17.9 | 285 | 19 |
| 2010-01-12T23:38 | 1352 | 865 | 18.4 | 17.9 | 285 | 19 |
| 2010-01-12T23:38 | 1361 | 864 | 18.3 | 17.9 | 284 | 19 |
| 2010-01-12T23:38 | 1371 | 863 | 18.2 | 17.8 | 284 | 19 |
| 2010-01-12T23:38 | 1385 | 861 | 18.1 | 17.7 | 284 | 19 |
| 2010-01-12T23:38 | 1397 | 860 | 18.0 | 17.6 | 284 | 19 |
| 2010-01-12T23:38 | 1407 | 859 | 18.0 | 17.6 | 283 | 19 |
| 2010-01-12T23:38 | 1418 | 858 | 17.9 | 17.6 | 283 | 19 |
| 2010-01-12T23:38 | 1429 | 857 | 17.8 | 17.6 | 283 | 19 |
| 2010-01-12T23:38 | 1440 | 856 | 17.8 | 17.5 | 283 | 19 |
| 2010-01-12T23:38 | 1452 | 855 | 17.8 | 17.4 | 282 | 19 |
| 2010-01-12T23:39 | 1464 | 854 | 17.7 | 17.3 | 282 | 19 |
| 2010-01-12T23:39 | 1476 | 852 | 17.7 | 17.2 | 282 | 19 |
| 2010-01-12T23:39 | 1488 | 851 | 17.7 | 17.1 | 282 | 19 |
| 2010-01-12T23:39 | 1500 | 850 | 17.6 | 17.0 | 281 | 19 |
| 2010-01-12T23:39 | 1510 | 849 | 17.6 | 16.9 | 281 | 19 |
| 2010-01-12T23:39 | 1521 | 848 | 17.5 | 16.8 | 281 | 19 |
| 2010-01-12T23:39 | 1532 | 847 | 17.5 | 16.7 | 281 | 19 |
| 2010-01-12T23:39 | 1543 | 846 | 17.4 | 16.6 | 281 | 19 |
| 2010-01-12T23:39 | 1556 | 844 | 17.3 | 16.4 | 281 | 20 |
| 2010-01-12T23:39 | 1568 | 843 | 17.3 | 16.1 | 281 | 20 |
| 2010-01-12T23:39 | 1579 | 842 | 17.3 | 15.6 | 281 | 20 |
| 2010-01-12T23:39 | 1590 | 841 | 17.3 | 15.3 | 281 | 20 |
| 2010-01-12T23:39 | 1600 | 840 | 17.3 | 15.3 | 281 | 20 |
| 2010-01-12T23:39 | 1609 | 839 | 17.3 | 15.4 | 281 | 20 |
| 2010-01-12T23:39 | 1620 | 838 | 17.2 | 15.4 | 281 | 20 |
| 2010-01-12T23:39 | 1630 | 837 | 17.1 | 15.3 | 280 | 20 |
| 2010-01-12T23:39 | 1641 | 836 | 17.1 | 15.4 | 280 | 20 |
| 2010-01-12T23:39 | 1652 | 835 | 17.1 | 15.4 | 280 | 20 |
| 2010-01-12T23:39 | 1664 | 834 | 17.1 | 15.4 | 280 | 20 |
| 2010-01-12T23:39 | 1676 | 833 | 17.1 | 15.3 | 281 | 20 |
| 2010-01-12T23:39 | 1687 | 832 | 17.0 | 15.2 | 281 | 20 |
| 2010-01-12T23:39 | 1697 | 831 | 16.9 | 15.1 | 281 | 20 |
| 2010-01-12T23:39 | 1708 | 830 | 16.9 | 14.9 | 281 | 20 |
| 2010-01-12T23:39 | 1718 | 829 | 16.9 | 14.9 | 281 | 20 |
| 2010-01-12T23:39 | 1727 | 828 | 16.9 | 14.9 | 282 | 19 |
| 2010-01-12T23:39 | 1738 | 827 | 16.9 | 14.6 | 282 | 19 |
| 2010-01-12T23:39 | 1748 | 826 | 16.9 | 14.5 | 282 | 19 |
| 2010-01-12T23:39 | 1758 | 825 | 16.9 | 14.4 | 283 | 19 |
| 2010-01-12T23:39 | 1769 | 824 | 16.9 | 14.3 | 283 | 19 |
| 2010-01-12T23:39 | 1780 | 823 | 17.0 | 14.1 | 283 | 19 |
| 2010-01-12T23:40 | 1790 | 822 | 17.2 | 13.8 | 283 | 19 |
| 2010-01-12T23:40 | 1799 | 821 | 17.3 | 13.5 | 283 | 19 |
| 2010-01-12T23:40 | 1809 | 820 | 17.3 | 13.4 | 283 | 18 |
| 2010-01-12T23:40 | 1820 | 819 | 17.2 | 13.3 | 283 | 18 |
| 2010-01-12T23:40 | 1830 | 818 | 17.2 | 13.1 | 283 | 18 |
| 2010-01-12T23:40 | 1840 | 817 | 17.1 | 13.0 | 283 | 18 |
| 2010-01-12T23:40 | 1850 | 816 | 17.0 | 12.9 | 283 | 18 |
| 2010-01-12T23:40 | 1860 | 815 | 16.9 | 12.8 | 283 | 18 |
| 2010-01-12T23:40 | 1869 | 814 | 16.8 | 12.7 | 283 | 18 |
| 2010-01-12T23:40 | 1878 | 813 | 16.8 | 12.7 | 283 | 18 |
| 2010-01-12T23:40 | 1887 | 812 | 16.8 | 12.5 | 283 | 18 |
| 2010-01-12T23:40 | 1896 | 812 | 16.8 | 12.4 | 283 | 18 |
| 2010-01-12T23:40 | 1905 | 811 | 16.7 | 12.4 | 283 | 18 |
| 2010-01-12T23:40 | 1915 | 810 | 16.6 | 12.3 | 283 | 18 |
| 2010-01-12T23:40 | 1924 | 809 | 16.6 | 12.0 | 283 | 18 |
| 2010-01-12T23:40 | 1933 | 808 | 16.6 | 11.9 | 283 | 18 |
| 2010-01-12T23:40 | 1943 | 807 | 16.5 | 11.9 | 283 | 18 |
| 2010-01-12T23:40 | 1951 | 806 | 16.5 | 11.8 | 283 | 18 |
| 2010-01-12T23:40 | 1959 | 806 | 16.5 | 11.8 | 283 | 18 |
| 2010-01-12T23:40 | 1969 | 805 | 16.5 | 11.8 | 283 | 18 |
| 2010-01-12T23:40 | 1979 | 804 | 16.4 | 11.7 | 282 | 18 |
| 2010-01-12T23:40 | 1988 | 803 | 16.4 | 11.6 | 282 | 18 |
| 2010-01-12T23:40 | 1997 | 802 | 16.3 | 11.6 | 282 | 18 |
| 2010-01-12T23:40 | 2024 | 799 | 16.0 | 11.6 | 281 | 17 |
| 2010-01-12T23:41 | 2066 | 796 | 15.9 | 12.0 | 281 | 17 |
| 2010-01-12T23:41 | 2109 | 791 | 15.7 | 11.9 | 282 | 17 |
| 2010-01-12T23:41 | 2153 | 787 | 15.4 | 12.0 | 282 | 17 |
| 2010-01-12T23:41 | 2198 | 783 | 15.1 | 12.4 | 281 | 17 |
| 2010-01-12T23:41 | 2247 | 779 | 14.7 | 12.3 | 280 | 16 |
| 2010-01-12T23:41 | 2296 | 774 | 14.3 | 12.1 | 280 | 16 |
| 2010-01-12T23:42 | 2351 | 769 | 13.8 | 12.0 | 278 | 16 |
| 2010-01-12T23:42 | 2404 | 764 | 13.4 | 11.8 | 276 | 16 |
| 2010-01-12T23:42 | 2457 | 760 | 13.2 | 11.0 | 275 | 15 |
| 2010-01-12T23:42 | 2508 | 755 | 12.9 | 10.9 | 275 | 15 |
| 2010-01-12T23:42 | 2554 | 751 | 12.6 | 10.9 | 275 | 14 |
| 2010-01-12T23:42 | 2599 | 747 | 12.2 | 10.9 | 275 | 13 |
| 2010-01-12T23:43 | 2641 | 743 | 11.9 | 10.9 | 277 | 13 |
| 2010-01-12T23:43 | 2690 | 739 | 12.1 | 11.2 | 281 | 13 |
| 2010-01-12T23:43 | 2742 | 734 | 11.9 | 10.6 | 282 | 13 |
| 2010-01-12T23:43 | 2790 | 730 | 11.4 | 10.3 | 282 | 14 |
| 2010-01-12T23:43 | 2847 | 725 | 11.1 | 10.2 | 282 | 14 |
| 2010-01-12T23:43 | 2897 | 721 | 10.8 | 10.0 | 282 | 13 |
| 2010-01-12T23:44 | 2948 | 717 | 10.4 | 9.8 | 282 | 13 |
| 2010-01-12T23:44 | 2996 | 712 | 9.9 | 9.6 | 282 | 12 |
| 2010-01-12T23:44 | 3046 | 708 | 9.6 | 9.6 | 282 | 12 |
| 2010-01-12T23:44 | 3096 | 704 | 9.4 | 9.4 | 279 | 12 |
| 2010-01-12T23:44 | 3139 | 700 | 9.1 | 9.1 | 278 | 12 |
| 2010-01-12T23:44 | 3179 | 697 | 8.9 | 8.7 | 280 | 11 |
| 2010-01-12T23:45 | 3221 | 693 | 8.7 | 8.7 | 281 | 12 |
| 2010-01-12T23:45 | 3273 | 689 | 8.5 | 8.5 | 281 | 13 |
| 2010-01-12T23:45 | 3319 | 685 | 8.5 | 7.8 | 282 | 13 |
| 2010-01-12T23:45 | 3371 | 681 | 8.6 | 7.5 | 284 | 13 |
| 2010-01-12T23:45 | 3420 | 677 | 8.5 | 7.2 | 285 | 12 |
| 2010-01-12T23:45 | 3468 | 673 | 8.3 | 6.7 | 287 | 12 |
| 2010-01-12T23:46 | 3524 | 668 | 7.8 | 5.8 | 287 | 13 |
| 2010-01-12T23:46 | 3572 | 665 | 7.6 | 5.7 | 288 | 12 |
| 2010-01-12T23:46 | 3620 | 661 | 7.3 | 5.3 | 288 | 12 |
| 2010-01-12T23:46 | 3670 | 657 | 6.9 | 4.7 | 286 | 11 |
| 2010-01-12T23:46 | 3721 | 653 | 6.6 | 4.2 | 284 | 11 |
| 2010-01-12T23:46 | 3778 | 648 | 6.4 | 4.4 | 284 | 11 |
| 2010-01-12T23:47 | 3827 | 644 | 6.1 | 4.8 | 282 | 11 |
| 2010-01-12T23:47 | 3874 | 641 | 6.3 | 5.3 | 279 | 11 |
| 2010-01-12T23:47 | 3919 | 637 | 6.2 | 4.9 | 279 | 11 |
| 2010-01-12T23:47 | 3959 | 634 | 6.0 | 4.7 | 281 | 10 |
| 2010-01-12T23:47 | 4003 | 631 | 5.8 | 4.6 | 284 | 9 |
| 2010-01-12T23:47 | 4053 | 627 | 5.8 | 4.4 | 287 | 8 |
| 2010-01-12T23:48 | 4095 | 624 | 5.5 | 4.2 | 294 | 8 |
| 2010-01-12T23:48 | 4134 | 621 | 5.1 | 4.0 | 300 | 7 |
| 2010-01-12T23:48 | 4171 | 618 | 4.7 | 4.0 | 301 | 7 |
| 2010-01-12T23:48 | 4209 | 615 | 4.4 | 3.8 | 299 | 7 |
| 2010-01-12T23:48 | 4251 | 612 | 4.1 | 3.7 | 296 | 7 |
| 2010-01-12T23:48 | 4291 | 609 | 3.8 | 3.6 | 289 | 6 |
| 2010-01-12T23:49 | 4328 | 606 | 3.7 | 3.3 | 282 | 6 |
| 2010-01-12T23:49 | 4374 | 603 | 3.5 | 3.0 | 280 | 6 |
| 2010-01-12T23:49 | 4420 | 599 | 3.2 | 2.5 | 281 | 6 |
| 2010-01-12T23:49 | 4458 | 597 | 3.1 | 1.9 | 280 | 6 |
| 2010-01-12T23:49 | 4500 | 593 | 2.9 | 1.6 | 277 | 6 |
| 2010-01-12T23:49 | 4541 | 591 | 2.7 | 1.7 | 277 | 6 |
| 2010-01-12T23:50 | 4581 | 588 | 2.4 | 1.6 | 284 | 6 |
| 2010-01-12T23:50 | 4616 | 585 | 2.3 | 1.2 | 291 | 6 |
| 2010-01-12T23:50 | 4659 | 582 | 2.0 | 0.7 | 297 | 6 |
| 2010-01-12T23:50 | 4704 | 579 | 1.8 | 0.8 | 303 | 7 |
| 2010-01-12T23:50 | 4744 | 576 | 1.5 | 0.9 | 306 | 7 |
| 2010-01-12T23:50 | 4787 | 573 | 1.1 | 0.6 | 304 | 7 |
| 2010-01-12T23:51 | 4827 | 570 | 0.8 | 0.5 | 300 | 8 |
| 2010-01-12T23:51 | 4867 | 567 | 0.5 | 0.3 | 300 | 8 |
| 2010-01-12T23:51 | 4910 | 564 | 0.4 | 0.2 | 302 | 8 |
| 2010-01-12T23:51 | 4951 | 561 | 0.4 | 0.1 | 304 | 8 |
| 2010-01-12T23:51 | 4993 | 558 | 0.3 | 0.1 | 302 | 8 |
| 2010-01-12T23:51 | 5034 | 555 | 0.1 | -0.1 | 300 | 8 |
| 2010-01-12T23:52 | 5071 | 553 | 0.0 | -0.2 | 302 | 7 |
| 2010-01-12T23:52 | 5110 | 550 | -0.1 | -0.5 | 303 | 7 |
| 2010-01-12T23:52 | 5150 | 548 | -0.3 | -0.6 | 301 | 7 |
| 2010-01-12T23:52 | 5190 | 545 | -0.3 | -0.9 | 299 | 7 |
| 2010-01-12T23:52 | 5229 | 542 | -0.6 | -1.1 | 299 | 7 |
| 2010-01-12T23:52 | 5272 | 539 | -0.9 | -1.4 | 299 | 6 |
| 2010-01-12T23:53 | 5318 | 536 | -1.1 | -1.7 | 298 | 6 |
| 2010-01-12T23:53 | 5362 | 533 | -1.3 | -2.1 | 297 | 5 |
| 2010-01-12T23:53 | 5405 | 530 | -1.5 | -2.3 | 295 | 5 |
| 2010-01-12T23:53 | 5444 | 528 | -1.7 | -2.6 | 294 | 6 |
| 2010-01-12T23:53 | 5484 | 525 | -2.0 | -2.7 | 296 | 6 |
| 2010-01-12T23:53 | 5522 | 523 | -2.2 | -2.8 | 295 | 6 |
| 2010-01-12T23:54 | 5564 | 520 | -2.4 | -3.3 | 292 | 6 |
| 2010-01-12T23:54 | 5604 | 517 | -2.6 | -3.3 | 289 | 6 |
| 2010-01-12T23:54 | 5641 | 515 | -2.8 | -3.4 | 290 | 6 |
| 2010-01-12T23:54 | 5678 | 512 | -3.0 | -3.8 | 293 | 6 |
| 2010-01-12T23:54 | 5716 | 510 | -3.2 | -4.1 | 296 | 6 |
| 2010-01-12T23:54 | 5756 | 507 | -3.3 | -4.3 | 297 | 6 |
| 2010-01-12T23:55 | 5800 | 505 | -3.6 | -4.4 | 295 | 6 |
| 2010-01-12T23:55 | 5846 | 502 | -3.8 | -4.7 | 294 | 6 |
| 2010-01-12T23:55 | 5886 | 499 | -4.0 | -4.8 | 293 | 7 |
| 2010-01-12T23:55 | 5925 | 497 | -4.2 | -5.1 | 293 | 7 |
| 2010-01-12T23:55 | 5963 | 494 | -4.3 | -5.3 | 294 | 6 |
| 2010-01-12T23:55 | 6005 | 492 | -4.6 | -5.9 | 297 | 6 |
| 2010-01-12T23:56 | 6044 | 489 | -5.0 | -5.9 | 300 | 6 |
| 2010-01-12T23:56 | 6085 | 487 | -5.2 | -6.0 | 307 | 4 |
| 2010-01-12T23:56 | 6129 | 484 | -5.4 | -6.1 | 315 | 4 |
| 2010-01-12T23:56 | 6179 | 481 | -5.6 | -6.2 | 323 | 4 |
| 2010-01-12T23:56 | 6221 | 478 | -5.8 | -6.4 | 333 | 4 |
| 2010-01-12T23:56 | 6264 | 476 | -5.9 | -6.6 | 337 | 4 |
| 2010-01-12T23:57 | 6306 | 473 | -6.1 | -6.7 | 337 | 5 |
| 2010-01-12T23:57 | 6344 | 471 | -6.3 | -7.2 | 338 | 5 |
| 2010-01-12T23:57 | 6387 | 468 | -6.5 | -7.6 | 342 | 5 |
| 2010-01-12T23:57 | 6424 | 466 | -6.7 | -7.7 | 349 | 4 |
| 2010-01-12T23:57 | 6466 | 464 | -6.9 | -7.9 | 351 | 4 |
| 2010-01-12T23:57 | 6508 | 461 | -7.2 | -8.4 | 346 | 4 |
| 2010-01-12T23:58 | 6545 | 459 | -7.3 | -8.6 | 335 | 3 |
| 2010-01-12T23:58 | 6591 | 456 | -7.6 | -8.9 | 320 | 3 |
| 2010-01-12T23:58 | 6630 | 454 | -7.8 | -9.1 | 305 | 2 |
| 2010-01-12T23:58 | 6671 | 452 | -8.0 | -9.4 | 299 | 2 |
| 2010-01-12T23:58 | 6713 | 449 | -8.1 | -9.7 | 304 | 2 |
| 2010-01-12T23:58 | 6749 | 447 | -8.4 | -10.0 | 305 | 2 |
| 2010-01-12T23:59 | 6790 | 445 | -8.5 | -10.2 | 298 | 3 |
| 2010-01-12T23:59 | 6828 | 443 | -8.8 | -10.4 | 293 | 4 |
| 2010-01-12T23:59 | 6870 | 440 | -8.9 | -10.5 | 288 | 4 |
| 2010-01-12T23:59 | 6911 | 438 | -9.1 | -10.9 | 282 | 4 |
| 2010-01-12T23:59 | 6952 | 436 | -9.3 | -11.1 | 280 | 4 |
| 2010-01-12T23:59 | 6995 | 433 | -9.6 | -11.5 | 281 | 3 |
| 2010-01-13T00:00 | 7043 | 430 | -9.9 | -11.6 | 276 | 2 |
| 2010-01-13T00:00 | 7091 | 428 | -10.3 | -11.7 | 268 | 2 |
| 2010-01-13T00:00 | 7138 | 425 | -10.6 | -12.1 | 266 | 2 |
| 2010-01-13T00:00 | 7183 | 423 | -10.8 | -12.3 | 272 | 1 |
| 2010-01-13T00:00 | 7226 | 420 | -11.3 | -13.4 | 278 | 1 |
| 2010-01-13T00:00 | 7273 | 418 | -11.5 | -13.8 | 287 | 1 |
| 2010-01-13T00:01 | 7314 | 416 | -11.7 | -13.9 | 304 | 1 |
| 2010-01-13T00:01 | 7357 | 413 | -12.0 | -14.6 | 316 | 1 |
| 2010-01-13T00:01 | 7398 | 411 | -12.3 | -14.9 | 0 | 0 |
| 2010-01-13T00:01 | 7447 | 408 | -12.5 | -15.1 | 0 | 0 |
| 2010-01-13T00:01 | 7493 | 406 | -12.7 | -15.3 | 235 | 0 |
| 2010-01-13T00:01 | 7539 | 403 | -13.0 | -15.9 | 205 | 1 |
| 2010-01-13T00:02 | 7584 | 401 | -13.2 | -16.2 | 184 | 1 |
| 2010-01-13T00:02 | 7626 | 399 | -13.5 | -16.6 | 172 | 2 |
| 2010-01-13T00:02 | 7666 | 397 | -13.7 | -16.9 | 170 | 2 |
| 2010-01-13T00:02 | 7714 | 394 | -14.0 | -17.1 | 174 | 3 |
| 2010-01-13T00:02 | 7763 | 392 | -14.2 | -17.6 | 169 | 3 |
| 2010-01-13T00:02 | 7812 | 389 | -14.5 | -18.0 | 160 | 4 |
| 2010-01-13T00:03 | 7854 | 387 | -14.8 | -18.2 | 154 | 4 |
| 2010-01-13T00:03 | 7904 | 385 | -15.3 | -18.3 | 150 | 6 |
| 2010-01-13T00:03 | 7953 | 382 | -15.7 | -18.5 | 150 | 6 |
| 2010-01-13T00:03 | 8000 | 380 | -16.0 | -18.9 | 151 | 7 |
| 2010-01-13T00:03 | 8050 | 377 | -16.3 | -19.5 | 153 | 7 |
| 2010-01-13T00:03 | 8094 | 375 | -16.5 | -20.2 | 153 | 6 |
| 2010-01-13T00:04 | 8137 | 373 | -16.8 | -20.5 | 149 | 6 |
| 2010-01-13T00:04 | 8186 | 370 | -17.1 | -20.6 | 142 | 5 |
| 2010-01-13T00:04 | 8235 | 368 | -17.5 | -21.1 | 138 | 5 |
| 2010-01-13T00:04 | 8284 | 366 | -17.7 | -21.3 | 137 | 5 |
| 2010-01-13T00:04 | 8332 | 363 | -17.9 | -21.7 | 135 | 4 |
| 2010-01-13T00:04 | 8379 | 361 | -18.4 | -22.1 | 129 | 3 |
| 2010-01-13T00:05 | 8422 | 359 | -18.5 | -22.4 | 125 | 2 |
| 2010-01-13T00:05 | 8473 | 357 | -18.9 | -22.9 | 130 | 2 |
| 2010-01-13T00:05 | 8523 | 354 | -19.3 | -23.0 | 135 | 2 |
| 2010-01-13T00:05 | 8575 | 352 | -19.8 | -23.4 | 125 | 2 |
| 2010-01-13T00:05 | 8622 | 349 | -20.1 | -23.7 | 93 | 1 |
| 2010-01-13T00:05 | 8672 | 347 | -20.4 | -23.9 | 18 | 1 |
| 2010-01-13T00:06 | 8725 | 345 | -20.6 | -24.5 | 347 | 2 |
| 2010-01-13T00:06 | 8772 | 342 | -20.9 | -25.0 | 336 | 2 |
| 2010-01-13T00:06 | 8811 | 341 | -21.1 | -25.6 | 332 | 3 |
| 2010-01-13T00:06 | 8854 | 339 | -21.5 | -25.9 | 334 | 3 |
| 2010-01-13T00:06 | 8901 | 336 | -21.8 | -26.2 | 338 | 4 |
| 2010-01-13T00:06 | 8953 | 334 | -22.3 | -26.5 | 344 | 4 |
| 2010-01-13T00:07 | 9001 | 332 | -22.6 | -26.8 | 349 | 5 |
| 2010-01-13T00:07 | 9049 | 330 | -22.9 | -27.2 | 352 | 5 |
| 2010-01-13T00:07 | 9094 | 328 | -23.2 | -27.7 | 350 | 5 |
| 2010-01-13T00:07 | 9143 | 326 | -23.6 | -28.0 | 345 | 5 |
| 2010-01-13T00:07 | 9193 | 323 | -24.0 | -28.3 | 340 | 5 |
| 2010-01-13T00:07 | 9238 | 321 | -24.3 | -28.7 | 338 | 5 |
| 2010-01-13T00:08 | 9282 | 319 | -24.6 | -29.3 | 339 | 5 |
| 2010-01-13T00:08 | 9327 | 317 | -25.0 | -30.0 | 340 | 5 |
| 2010-01-13T00:08 | 9369 | 316 | -25.3 | -30.3 | 342 | 5 |
| 2010-01-13T00:08 | 9411 | 314 | -25.6 | -30.7 | 343 | 5 |
| 2010-01-13T00:08 | 9451 | 312 | -26.0 | -31.1 | 344 | 4 |
| 2010-01-13T00:08 | 9492 | 310 | -26.3 | -31.5 | 341 | 4 |
| 2010-01-13T00:09 | 9532 | 309 | -26.5 | -31.7 | 336 | 4 |
| 2010-01-13T00:09 | 9570 | 307 | -26.8 | -32.1 | 333 | 4 |
| 2010-01-13T00:09 | 9611 | 305 | -27.1 | -32.3 | 335 | 4 |
| 2010-01-13T00:09 | 9650 | 304 | -27.4 | -32.6 | 339 | 4 |
| 2010-01-13T00:09 | 9689 | 302 | -27.7 | -33.0 | 343 | 4 |
| 2010-01-13T00:09 | 9726 | 300 | -28.0 | -33.2 | 344 | 4 |
| 2010-01-13T00:10 | 9764 | 299 | -28.3 | -33.6 | 343 | 4 |
| 2010-01-13T00:10 | 9803 | 297 | -28.5 | -33.8 | 341 | 4 |
| 2010-01-13T00:10 | 9843 | 296 | -28.8 | -34.6 | 338 | 4 |
| 2010-01-13T00:10 | 9883 | 294 | -29.1 | -34.7 | 333 | 4 |
| 2010-01-13T00:10 | 9924 | 292 | -29.4 | -35.1 | 329 | 4 |
| 2010-01-13T00:10 | 9963 | 291 | -29.7 | -35.3 | 329 | 4 |
| 2010-01-13T00:11 | 10002 | 289 | -30.0 | -35.7 | 331 | 3 |
| 2010-01-13T00:11 | 10040 | 287 | -30.3 | -36.1 | 334 | 3 |
| 2010-01-13T00:11 | 10077 | 286 | -30.5 | -36.5 | 336 | 3 |
| 2010-01-13T00:11 | 10115 | 284 | -30.8 | -36.7 | 338 | 3 |
| 2010-01-13T00:11 | 10152 | 283 | -31.1 | -36.9 | 339 | 3 |
| 2010-01-13T00:11 | 10190 | 281 | -31.5 | -37.3 | 341 | 3 |
| 2010-01-13T00:12 | 10229 | 280 | -31.8 | -37.5 | 342 | 3 |
| 2010-01-13T00:12 | 10269 | 278 | -32.1 | -37.7 | 343 | 3 |
| 2010-01-13T00:12 | 10310 | 277 | -32.5 | -37.9 | 346 | 2 |
| 2010-01-13T00:12 | 10349 | 275 | -32.8 | -38.2 | 346 | 2 |
| 2010-01-13T00:12 | 10390 | 274 | -33.1 | -39.0 | 342 | 2 |
| 2010-01-13T00:12 | 10429 | 272 | -33.5 | -39.2 | 339 | 3 |
| 2010-01-13T00:13 | 10470 | 270 | -33.8 | -39.4 | 344 | 3 |
| 2010-01-13T00:13 | 10523 | 268 | -34.2 | -39.7 | 350 | 4 |
| 2010-01-13T00:13 | 10571 | 267 | -34.6 | -39.9 | 353 | 5 |
| 2010-01-13T00:13 | 10625 | 265 | -35.0 | -40.2 | 357 | 5 |
| 2010-01-13T00:13 | 10672 | 263 | -35.4 | -40.5 | 8 | 5 |
| 2010-01-13T00:13 | 10721 | 261 | -35.8 | -40.9 | 19 | 5 |
| 2010-01-13T00:14 | 10770 | 259 | -36.1 | -41.6 | 25 | 6 |
| 2010-01-13T00:14 | 10816 | 257 | -36.5 | -42.3 | 28 | 7 |
| 2010-01-13T00:14 | 10859 | 256 | -36.8 | -42.4 | 32 | 7 |
| 2010-01-13T00:14 | 10901 | 254 | -36.9 | -42.8 | 35 | 7 |
| 2010-01-13T00:14 | 10942 | 253 | -37.3 | -43.4 | 37 | 8 |
| 2010-01-13T00:14 | 10993 | 251 | -37.7 | -43.6 | 41 | 9 |
| 2010-01-13T00:15 | 11032 | 249 | -38.0 | -44.3 | 43 | 10 |
| 2010-01-13T00:15 | 11071 | 248 | -38.5 | -44.7 | 46 | 11 |
| 2010-01-13T00:15 | 11115 | 246 | -38.9 | -44.9 | 48 | 11 |
| 2010-01-13T00:15 | 11166 | 245 | -39.3 | -45.3 | 49 | 10 |
| 2010-01-13T00:15 | 11207 | 243 | -39.7 | -46.0 | 49 | 11 |
| 2010-01-13T00:15 | 11261 | 241 | -40.0 | -46.3 | 50 | 11 |
| 2010-01-13T00:16 | 11308 | 240 | -40.4 | -46.9 | 54 | 12 |
| 2010-01-13T00:16 | 11345 | 238 | -40.7 | -47.7 | 57 | 12 |
| 2010-01-13T00:16 | 11381 | 237 | -41.0 | -48.1 | 59 | 13 |
| 2010-01-13T00:16 | 11422 | 236 | -41.5 | -48.7 | 61 | 13 |
| 2010-01-13T00:16 | 11458 | 234 | -41.8 | -48.6 | 62 | 14 |
| 2010-01-13T00:16 | 11498 | 233 | -42.1 | -49.2 | 62 | 14 |
| 2010-01-13T00:17 | 11535 | 232 | -42.3 | -51.2 | 63 | 14 |
| 2010-01-13T00:17 | 11580 | 230 | -42.8 | -51.5 | 65 | 13 |
| 2010-01-13T00:17 | 11625 | 229 | -43.3 | -51.0 | 66 | 13 |
| 2010-01-13T00:17 | 11678 | 227 | -43.8 | -50.7 | 65 | 13 |
| 2010-01-13T00:17 | 11720 | 225 | -44.3 | -50.0 | 65 | 14 |
| 2010-01-13T00:17 | 11760 | 224 | -44.7 | -50.0 | 65 | 15 |
| 2010-01-13T00:18 | 11814 | 222 | -45.2 | -50.0 | 65 | 16 |
| 2010-01-13T00:18 | 11882 | 220 | -45.8 | -50.4 | 64 | 16 |
| 2010-01-13T00:18 | 11947 | 218 | -46.2 | -53.3 | 64 | 17 |
| 2010-01-13T00:18 | 11997 | 216 | -46.6 | -55.1 | 63 | 17 |
| 2010-01-13T00:18 | 12043 | 215 | -47.0 | -55.9 | 61 | 17 |
| 2010-01-13T00:18 | 12089 | 213 | -47.4 | -57.2 | 61 | 18 |
| 2010-01-13T00:19 | 12140 | 212 | -47.9 | -58.6 | 63 | 18 |
| 2010-01-13T00:19 | 12183 | 210 | -48.4 | -58.7 | 65 | 18 |
| 2010-01-13T00:19 | 12216 | 209 | -48.7 | -58.6 | 66 | 18 |
| 2010-01-13T00:19 | 12267 | 208 | -49.2 | -58.4 | 66 | 18 |
| 2010-01-13T00:19 | 12305 | 206 | -49.6 | -58.5 | 64 | 19 |
| 2010-01-13T00:19 | 12342 | 205 | -49.8 | -59.1 | 64 | 19 |
| 2010-01-13T00:20 | 12382 | 204 | -50.2 | -59.3 | 64 | 19 |
| 2010-01-13T00:20 | 12423 | 203 | -50.6 | -60.1 | 66 | 18 |
| 2010-01-13T00:20 | 12461 | 202 | -51.0 | -61.1 | 67 | 17 |
| 2010-01-13T00:20 | 12505 | 200 | -51.3 | -61.5 | 67 | 17 |
| 2010-01-13T00:20 | 12554 | 199 | -51.8 | -61.8 | 65 | 17 |
| 2010-01-13T00:20 | 12594 | 197 | -52.2 | -61.9 | 64 | 17 |
| 2010-01-13T00:21 | 12627 | 196 | -52.5 | -62.2 | 63 | 17 |
| 2010-01-13T00:21 | 12658 | 195 | -52.8 | -62.4 | 62 | 16 |
| 2010-01-13T00:21 | 12689 | 195 | -53.1 | -62.7 | 63 | 17 |
| 2010-01-13T00:21 | 12721 | 194 | -53.4 | -62.9 | 63 | 17 |
| 2010-01-13T00:21 | 12753 | 193 | -53.7 | -62.9 | 64 | 17 |
| 2010-01-13T00:21 | 12782 | 192 | -53.9 | -63.0 | 64 | 17 |
| 2010-01-13T00:22 | 12811 | 191 | -54.3 | -63.2 | 64 | 17 |
| 2010-01-13T00:22 | 12841 | 190 | -54.5 | -63.3 | 64 | 17 |
| 2010-01-13T00:22 | 12872 | 189 | -54.9 | -63.5 | 65 | 16 |
| 2010-01-13T00:22 | 12903 | 188 | -55.2 | -63.6 | 66 | 16 |
| 2010-01-13T00:22 | 12936 | 187 | -55.6 | -64.0 | 66 | 17 |
| 2010-01-13T00:22 | 12971 | 186 | -55.8 | -64.1 | 66 | 17 |
| 2010-01-13T00:23 | 13001 | 185 | -56.2 | -64.5 | 66 | 18 |
| 2010-01-13T00:23 | 13036 | 184 | -56.4 | -64.6 | 68 | 18 |
| 2010-01-13T00:23 | 13065 | 183 | -56.7 | -64.9 | 69 | 18 |
| 2010-01-13T00:23 | 13097 | 182 | -56.9 | -65.3 | 70 | 18 |
| 2010-01-13T00:23 | 13128 | 182 | -57.2 | -65.6 | 72 | 18 |
| 2010-01-13T00:23 | 13158 | 181 | -57.6 | -65.9 | 73 | 18 |
| 2010-01-13T00:24 | 13191 | 180 | -57.8 | -66.1 | 73 | 18 |
| 2010-01-13T00:24 | 13222 | 179 | -57.8 | -66.1 | 73 | 19 |
| 2010-01-13T00:24 | 13253 | 178 | -58.1 | -66.5 | 74 | 19 |
| 2010-01-13T00:24 | 13282 | 177 | -58.4 | -67.0 | 74 | 19 |
| 2010-01-13T00:24 | 13312 | 176 | -58.7 | -67.4 | 74 | 19 |
| 2010-01-13T00:24 | 13341 | 176 | -59.0 | -67.7 | 74 | 19 |
| 2010-01-13T00:25 | 13372 | 175 | -59.3 | -67.9 | 75 | 19 |
| 2010-01-13T00:25 | 13402 | 174 | -59.6 | -68.2 | 75 | 20 |
| 2010-01-13T00:25 | 13431 | 173 | -59.8 | -68.6 | 76 | 19 |
| 2010-01-13T00:25 | 13463 | 172 | -60.2 | -69.2 | 76 | 19 |
| 2010-01-13T00:25 | 13491 | 171 | -60.3 | -69.4 | 75 | 19 |
| 2010-01-13T00:25 | 13518 | 171 | -60.6 | -69.9 | 75 | 19 |
| 2010-01-13T00:26 | 13546 | 170 | -60.9 | -70.4 | 75 | 19 |
| 2010-01-13T00:26 | 13577 | 169 | -61.2 | -71.0 | 75 | 19 |
| 2010-01-13T00:26 | 13606 | 168 | -61.5 | -71.7 | 75 | 19 |
| 2010-01-13T00:26 | 13633 | 168 | -61.7 | -72.4 | 75 | 19 |
| 2010-01-13T00:26 | 13661 | 167 | -62.0 | -73.1 | 75 | 19 |
| 2010-01-13T00:26 | 13687 | 166 | -62.3 | -73.9 | 74 | 20 |
| 2010-01-13T00:27 | 13711 | 165 | -62.5 | -74.1 | 75 | 20 |
| 2010-01-13T00:27 | 13735 | 165 | -62.8 | -74.0 | 74 | 20 |
| 2010-01-13T00:27 | 13760 | 164 | -62.9 | -74.6 | 74 | 20 |
| 2010-01-13T00:27 | 13785 | 163 | -63.2 | -74.8 | 74 | 20 |
| 2010-01-13T00:27 | 13811 | 163 | -63.5 | -74.8 | 74 | 20 |
| 2010-01-13T00:27 | 13833 | 162 | -63.7 | -74.9 | 75 | 20 |
| 2010-01-13T00:28 | 13857 | 162 | -64.0 | -75.2 | 75 | 20 |
| 2010-01-13T00:28 | 13882 | 161 | -64.2 | -75.3 | 76 | 20 |
| 2010-01-13T00:28 | 13907 | 160 | -64.4 | -75.6 | 76 | 20 |
| 2010-01-13T00:28 | 13936 | 159 | -64.6 | -76.2 | 77 | 19 |
| 2010-01-13T00:28 | 13963 | 159 | -64.8 | -76.5 | 77 | 19 |
| 2010-01-13T00:28 | 13993 | 158 | -65.1 | -76.5 | 76 | 19 |
| 2010-01-13T00:29 | 14026 | 157 | -65.4 | -76.6 | 76 | 19 |
| 2010-01-13T00:29 | 14059 | 156 | -65.7 | -76.8 | 77 | 20 |
| 2010-01-13T00:29 | 14090 | 155 | -66.0 | -77.1 | 77 | 20 |
| 2010-01-13T00:29 | 14123 | 155 | -66.4 | -77.5 | 76 | 20 |
| 2010-01-13T00:29 | 14159 | 154 | -66.7 | -77.7 | 76 | 19 |
| 2010-01-13T00:29 | 14193 | 153 | -67.0 | -77.7 | 76 | 19 |
| 2010-01-13T00:30 | 14225 | 152 | -67.4 | -77.9 | 77 | 19 |
| 2010-01-13T00:30 | 14260 | 151 | -67.8 | -78.2 | 77 | 19 |
| 2010-01-13T00:30 | 14295 | 150 | -68.1 | -78.3 | 76 | 19 |
| 2010-01-13T00:30 | 14330 | 149 | -68.4 | -78.3 | 76 | 19 |
| 2010-01-13T00:30 | 14366 | 149 | -68.8 | -78.7 | 76 | 19 |
| 2010-01-13T00:30 | 14406 | 148 | -69.2 | -79.0 | 76 | 19 |
| 2010-01-13T00:31 | 14439 | 147 | -69.5 | -79.2 | 76 | 19 |
| 2010-01-13T00:31 | 14473 | 146 | -69.7 | -79.2 | 77 | 19 |
| 2010-01-13T00:31 | 14510 | 145 | -70.1 | -79.5 | 77 | 19 |
| 2010-01-13T00:31 | 14545 | 144 | -70.5 | -79.7 | 78 | 19 |
| 2010-01-13T00:31 | 14582 | 143 | -70.9 | -80.1 | 78 | 19 |
| 2010-01-13T00:31 | 14614 | 142 | -71.0 | -80.1 | 78 | 20 |
| 2010-01-13T00:32 | 14646 | 142 | -71.4 | -80.6 | 78 | 20 |
| 2010-01-13T00:32 | 14680 | 141 | -71.8 | -81.0 | 78 | 20 |
| 2010-01-13T00:32 | 14713 | 140 | -72.2 | -81.3 | 79 | 20 |
| 2010-01-13T00:32 | 14746 | 139 | -72.5 | -81.6 | 79 | 20 |
| 2010-01-13T00:32 | 14782 | 138 | -72.8 | -81.8 | 79 | 20 |
| 2010-01-13T00:32 | 14819 | 138 | -73.2 | -82.2 | 80 | 19 |
| 2010-01-13T00:33 | 14856 | 137 | -73.5 | -82.5 | 80 | 19 |
| 2010-01-13T00:33 | 14892 | 136 | -73.8 | -82.7 | 80 | 19 |
| 2010-01-13T00:33 | 14926 | 135 | -74.2 | -83.0 | 80 | 19 |
| 2010-01-13T00:33 | 14961 | 134 | -74.7 | -83.5 | 80 | 19 |
| 2010-01-13T00:33 | 14996 | 133 | -74.8 | -83.6 | 80 | 19 |
| 2010-01-13T00:33 | 15033 | 133 | -75.3 | -84.0 | 81 | 19 |
| 2010-01-13T00:34 | 15071 | 132 | -75.8 | -84.5 | 81 | 19 |
| 2010-01-13T00:34 | 15108 | 131 | -76.0 | -84.7 | 81 | 18 |
| 2010-01-13T00:34 | 15146 | 130 | -76.3 | -85.1 | 81 | 18 |
| 2010-01-13T00:34 | 15184 | 129 | -76.7 | -85.4 | 80 | 18 |
| 2010-01-13T00:34 | 15221 | 128 | -77.0 | -85.7 | 79 | 19 |
| 2010-01-13T00:34 | 15266 | 127 | -77.5 | -86.2 | 79 | 19 |
| 2010-01-13T00:35 | 15315 | 126 | -78.0 | -86.6 | 78 | 20 |
| 2010-01-13T00:35 | 15365 | 125 | -78.5 | -87.1 | 77 | 20 |
| 2010-01-13T00:35 | 15416 | 124 | -78.9 | -87.5 | 75 | 21 |
| 2010-01-13T00:35 | 15466 | 123 | -79.1 | -87.6 | 74 | 20 |
| 2010-01-13T00:35 | 15513 | 122 | -79.7 | -88.2 | 73 | 21 |
| 2010-01-13T00:35 | 15567 | 121 | -80.0 | -88.5 | 72 | 22 |
| 2010-01-13T00:36 | 15613 | 120 | -80.3 | -88.8 | 72 | 23 |
| 2010-01-13T00:36 | 15651 | 119 | -80.6 | -89.1 | 72 | 23 |
| 2010-01-13T00:36 | 15689 | 118 | -80.8 | -89.2 | 73 | 24 |
| 2010-01-13T00:36 | 15727 | 117 | -80.4 | -88.9 | 74 | 25 |
| 2010-01-13T00:36 | 15767 | 117 | -80.3 | -88.8 | 75 | 26 |
| 2010-01-13T00:36 | 15801 | 116 | -80.5 | -88.9 | 76 | 26 |
| 2010-01-13T00:37 | 15839 | 115 | -80.9 | -89.3 | 77 | 27 |
| 2010-01-13T00:37 | 15874 | 114 | -80.9 | -89.3 | 78 | 28 |
| 2010-01-13T00:37 | 15908 | 114 | -81.0 | -89.3 | 79 | 28 |
| 2010-01-13T00:37 | 15941 | 113 | -81.3 | -89.6 | 80 | 29 |
| 2010-01-13T00:37 | 15974 | 112 | -81.3 | -89.7 | 81 | 30 |
| 2010-01-13T00:37 | 16006 | 112 | -81.1 | -89.6 | 81 | 31 |
| 2010-01-13T00:38 | 16037 | 111 | -81.2 | -89.8 | 81 | 31 |
| 2010-01-13T00:38 | 16068 | 111 | -81.3 | -89.9 | 80 | 32 |
| 2010-01-13T00:38 | 16097 | 110 | -81.6 | -90.1 | 80 | 32 |
| 2010-01-13T00:38 | 16127 | 109 | -81.6 | -90.3 | 79 | 32 |
| 2010-01-13T00:38 | 16157 | 109 | -81.7 | -90.5 | 79 | 33 |
| 2010-01-13T00:38 | 16186 | 108 | -82.0 | -90.9 | 79 | 33 |
| 2010-01-13T00:39 | 16216 | 108 | -82.1 | -91.1 | 79 | 32 |
| 2010-01-13T00:39 | 16246 | 107 | -82.3 | -91.3 | 81 | 32 |
| 2010-01-13T00:39 | 16280 | 106 | -82.1 | -91.2 | 83 | 31 |
| 2010-01-13T00:39 | 16314 | 106 | -81.6 | -90.8 | 85 | 29 |
| 2010-01-13T00:39 | 16353 | 105 | -81.9 | -91.2 | 88 | 28 |
| 2010-01-13T00:39 | 16399 | 104 | -81.4 | -90.7 | 92 | 26 |
| 2010-01-13T00:40 | 16446 | 103 | -81.5 | -90.8 | 94 | 25 |
| 2010-01-13T00:40 | 16487 | 103 | -81.8 | -91.1 | 97 | 24 |
| 2010-01-13T00:40 | 16523 | 102 | -82.1 | -91.3 | 98 | 24 |
| 2010-01-13T00:40 | 16557 | 101 | -82.2 | -91.4 | 99 | 24 |
| 2010-01-13T00:40 | 16596 | 101 | -82.5 | -91.7 | 99 | 23 |
| 2010-01-13T00:40 | 16634 | 100 | -82.8 | -92.0 | 97 | 23 |
| 2010-01-13T00:41 | 16675 | 99 | -82.7 | -92.0 | 94 | 23 |
| 2010-01-13T00:41 | 16714 | 98 | -83.0 | -92.3 | 92 | 23 |
| 2010-01-13T00:41 | 16747 | 98 | -83.0 | -92.3 | 90 | 23 |
| 2010-01-13T00:41 | 16780 | 97 | -83.1 | -92.3 | 89 | 22 |
| 2010-01-13T00:41 | 16813 | 97 | -83.3 | -92.5 | 88 | 22 |
| 2010-01-13T00:41 | 16846 | 96 | -83.5 | -92.7 | 87 | 22 |
| 2010-01-13T00:42 | 16879 | 96 | -83.9 | -93.2 | 85 | 22 |
| 2010-01-13T00:42 | 16911 | 95 | -84.1 | -93.3 | 83 | 23 |
| 2010-01-13T00:42 | 16942 | 94 | -84.2 | -93.5 | 80 | 23 |
| 2010-01-13T00:42 | 16975 | 94 | -84.3 | -93.6 | 77 | 24 |
| 2010-01-13T00:42 | 17005 | 93 | -84.2 | -93.6 | 73 | 25 |
| 2010-01-13T00:42 | 17038 | 93 | -83.5 | -93.1 | 70 | 25 |
| 2010-01-13T00:43 | 17070 | 92 | -82.9 | -92.6 | 69 | 25 |
| 2010-01-13T00:43 | 17104 | 92 | -82.7 | -92.4 | 70 | 24 |
| 2010-01-13T00:43 | 17137 | 91 | -81.7 | -91.7 | 71 | 23 |
| 2010-01-13T00:43 | 17171 | 91 | -81.3 | -91.3 | 72 | 21 |
| 2010-01-13T00:43 | 17205 | 90 | -81.3 | -91.3 | 74 | 20 |
| 2010-01-13T00:43 | 17239 | 90 | -81.2 | -91.3 | 76 | 18 |
| 2010-01-13T00:44 | 17276 | 89 | -80.9 | -91.2 | 78 | 16 |
| 2010-01-13T00:44 | 17314 | 88 | -80.6 | -91.0 | 79 | 15 |
| 2010-01-13T00:44 | 17349 | 88 | -80.7 | -91.1 | 80 | 14 |
| 2010-01-13T00:44 | 17384 | 87 | -80.9 | -91.4 | 80 | 14 |
| 2010-01-13T00:44 | 17422 | 87 | -81.0 | -91.6 | 81 | 13 |
| 2010-01-13T00:44 | 17457 | 86 | -80.9 | -91.7 | 84 | 12 |
| 2010-01-13T00:45 | 17493 | 86 | -81.2 | -92.0 | 87 | 11 |
| 2010-01-13T00:45 | 17529 | 85 | -80.3 | -91.3 | 89 | 9 |
| 2010-01-13T00:45 | 17565 | 85 | -80.3 | -91.3 | 86 | 7 |
| 2010-01-13T00:45 | 17604 | 84 | -79.5 | -90.7 | 82 | 5 |
| 2010-01-13T00:45 | 17640 | 83 | -78.9 | -90.2 | 84 | 4 |
| 2010-01-13T00:45 | 17676 | 83 | -78.9 | -90.4 | 93 | 3 |
| 2010-01-13T00:46 | 17709 | 82 | -79.1 | -90.7 | 105 | 2 |
| 2010-01-13T00:46 | 17742 | 82 | -77.7 | -89.8 | 114 | 1 |
| 2010-01-13T00:46 | 17776 | 81 | -77.8 | -89.9 | 114 | 1 |
| 2010-01-13T00:46 | 17810 | 81 | -77.4 | -89.9 | 113 | 2 |
| 2010-01-13T00:46 | 17843 | 81 | -77.6 | -90.1 | 113 | 2 |
| 2010-01-13T00:46 | 17876 | 80 | -77.2 | -89.9 | 110 | 3 |
| 2010-01-13T00:47 | 17910 | 80 | -76.9 | -89.8 | 104 | 2 |
| 2010-01-13T00:47 | 17944 | 79 | -76.8 | -89.9 | 82 | 1 |
| 2010-01-13T00:47 | 17979 | 79 | -76.7 | -90.0 | 28 | 1 |
| 2010-01-13T00:47 | 18015 | 78 | -76.7 | -90.1 | 358 | 2 |
| 2010-01-13T00:47 | 18050 | 78 | -76.8 | -90.4 | 347 | 3 |
| 2010-01-13T00:47 | 18085 | 77 | -75.8 | -89.9 | 343 | 3 |
| 2010-01-13T00:48 | 18119 | 77 | -75.8 | -89.9 | 343 | 3 |
| 2010-01-13T00:48 | 18153 | 76 | -76.0 | -90.2 | 339 | 3 |
| 2010-01-13T00:48 | 18187 | 76 | -75.9 | -90.4 | 330 | 3 |
| 2010-01-13T00:48 | 18222 | 75 | -75.8 | -90.6 | 321 | 3 |
| 2010-01-13T00:48 | 18255 | 75 | -75.7 | -90.7 | 313 | 3 |
| 2010-01-13T00:48 | 18287 | 75 | -75.6 | -90.8 | 300 | 3 |
| 2010-01-13T00:49 | 18319 | 74 | -75.7 | -91.0 | 287 | 4 |
| 2010-01-13T00:49 | 18351 | 74 | -75.4 | -90.9 | 279 | 4 |
| 2010-01-13T00:49 | 18384 | 73 | -75.3 | -91.0 | 276 | 5 |
| 2010-01-13T00:49 | 18418 | 73 | -75.6 | -91.4 | 274 | 4 |
| 2010-01-13T00:49 | 18451 | 72 | -75.6 | -91.6 | 269 | 4 |
| 2010-01-13T00:49 | 18485 | 72 | -75.3 | -91.4 | 261 | 4 |
| 2010-01-13T00:50 | 18519 | 72 | -74.7 | -91.0 | 256 | 3 |
| 2010-01-13T00:50 | 18555 | 71 | -74.7 | -91.0 | 257 | 3 |
| 2010-01-13T00:50 | 18589 | 71 | -74.7 | -91.1 | 264 | 3 |
| 2010-01-13T00:50 | 18624 | 70 | -74.7 | -91.3 | 269 | 3 |
| 2010-01-13T00:50 | 18662 | 70 | -74.7 | -91.3 | 267 | 3 |
| 2010-01-13T00:50 | 18699 | 69 | -74.6 | -91.4 | 259 | 4 |
| 2010-01-13T00:51 | 18734 | 69 | -74.5 | -91.5 | 254 | 4 |
| 2010-01-13T00:51 | 18768 | 69 | -74.5 | -91.6 | 252 | 5 |
| 2010-01-13T00:51 | 18804 | 68 | -74.7 | -91.8 | 254 | 5 |
| 2010-01-13T00:51 | 18838 | 68 | -75.0 | -92.2 | 256 | 5 |
| 2010-01-13T00:51 | 18874 | 67 | -75.1 | -92.2 | 260 | 5 |
| 2010-01-13T00:51 | 18909 | 67 | -75.5 | -92.7 | 265 | 5 |
| 2010-01-13T00:52 | 18943 | 67 | -75.4 | -92.8 | 269 | 5 |
| 2010-01-13T00:52 | 18977 | 66 | -75.3 | -92.6 | 272 | 5 |
| 2010-01-13T00:52 | 19011 | 66 | -75.4 | -92.8 | 270 | 5 |
| 2010-01-13T00:52 | 19046 | 65 | -75.3 | -92.8 | 265 | 6 |
| 2010-01-13T00:52 | 19079 | 65 | -75.5 | -93.1 | 261 | 6 |
| 2010-01-13T00:52 | 19113 | 65 | -75.7 | -93.3 | 260 | 6 |
| 2010-01-13T00:53 | 19148 | 64 | -75.8 | -93.4 | 262 | 5 |
| 2010-01-13T00:53 | 19183 | 64 | -75.6 | -93.2 | 263 | 5 |
| 2010-01-13T00:53 | 19219 | 63 | -75.3 | -93.1 | 266 | 5 |
| 2010-01-13T00:53 | 19253 | 63 | -74.8 | -92.6 | 277 | 5 |
| 2010-01-13T00:53 | 19289 | 63 | -74.7 | -92.4 | 291 | 5 |
| 2010-01-13T00:53 | 19322 | 62 | -74.3 | -92.1 | 300 | 5 |
| 2010-01-13T00:54 | 19356 | 62 | -73.8 | -91.8 | 303 | 5 |
| 2010-01-13T00:54 | 19393 | 62 | -73.4 | -91.5 | 302 | 5 |
| 2010-01-13T00:54 | 19428 | 61 | -73.1 | -91.3 | 300 | 5 |
| 2010-01-13T00:54 | 19463 | 61 | -73.4 | -91.6 | 297 | 6 |
| 2010-01-13T00:54 | 19496 | 61 | -73.3 | -91.8 | 294 | 5 |
| 2010-01-13T00:54 | 19532 | 60 | -73.3 | -91.9 | 289 | 5 |
| 2010-01-13T00:55 | 19566 | 60 | -73.2 | -91.8 | 282 | 5 |
| 2010-01-13T00:55 | 19599 | 59 | -72.7 | -91.6 | 276 | 6 |
| 2010-01-13T00:55 | 19632 | 59 | -72.4 | -91.5 | 273 | 6 |
| 2010-01-13T00:55 | 19664 | 59 | -72.0 | -91.3 | 271 | 6 |
| 2010-01-13T00:55 | 19696 | 59 | -71.9 | -91.4 | 269 | 6 |
| 2010-01-13T00:55 | 19725 | 58 | -71.2 | -91.0 | 268 | 6 |
| 2010-01-13T00:56 | 19757 | 58 | -70.8 | -90.9 | 267 | 6 |
| 2010-01-13T00:56 | 19789 | 58 | -70.9 | -91.1 | 267 | 6 |
| 2010-01-13T00:56 | 19819 | 57 | -69.8 | -90.4 | 268 | 6 |
| 2010-01-13T00:56 | 19851 | 57 | -69.4 | -90.2 | 270 | 7 |
| 2010-01-13T00:56 | 19882 | 57 | -69.3 | -90.2 | 270 | 7 |
| 2010-01-13T00:56 | 19915 | 56 | -69.6 | -90.6 | 270 | 8 |
| 2010-01-13T00:57 | 19949 | 56 | -69.9 | -91.1 | 270 | 8 |
| 2010-01-13T00:57 | 19984 | 56 | -70.2 | -91.5 | 270 | 8 |
| 2010-01-13T00:57 | 20019 | 55 | -70.3 | -91.7 | 270 | 8 |
| 2010-01-13T00:57 | 20053 | 55 | -70.7 | -92.2 | 270 | 7 |
| 2010-01-13T00:57 | 20091 | 55 | -70.5 | -92.4 | 273 | 7 |
| 2010-01-13T00:57 | 20126 | 54 | -70.5 | -92.3 | 279 | 7 |
| 2010-01-13T00:58 | 20164 | 54 | -70.4 | -92.4 | 289 | 7 |
| 2010-01-13T00:58 | 20198 | 54 | -70.3 | -92.4 | 300 | 7 |
| 2010-01-13T00:58 | 20232 | 53 | -70.1 | -92.3 | 311 | 7 |
| 2010-01-13T00:58 | 20264 | 53 | -69.7 | -92.0 | 318 | 8 |
| 2010-01-13T00:58 | 20298 | 53 | -69.4 | -91.9 | 323 | 9 |
| 2010-01-13T00:58 | 20330 | 53 | -68.9 | -91.7 | 326 | 9 |
| 2010-01-13T00:59 | 20362 | 52 | -68.6 | -91.7 | 329 | 9 |
| 2010-01-13T00:59 | 20393 | 52 | -68.0 | -91.4 | 331 | 9 |
| 2010-01-13T00:59 | 20425 | 52 | -66.6 | -90.7 | 331 | 9 |
| 2010-01-13T00:59 | 20457 | 51 | -66.3 | -90.7 | 329 | 9 |
| 2010-01-13T00:59 | 20491 | 51 | -66.0 | -90.6 | 326 | 10 |
| 2010-01-13T00:59 | 20523 | 51 | -65.7 | -90.4 | 323 | 11 |
| 2010-01-13T01:00 | 20557 | 51 | -65.7 | -90.6 | 321 | 12 |
| 2010-01-13T01:00 | 20592 | 50 | -65.7 | -90.7 | 321 | 13 |
| 2010-01-13T01:00 | 20629 | 50 | -66.0 | -91.1 | 322 | 13 |
| 2010-01-13T01:00 | 20663 | 50 | -66.0 | -91.3 | 326 | 14 |
| 2010-01-13T01:00 | 20701 | 49 | -66.0 | -91.8 | 329 | 13 |
| 2010-01-13T01:00 | 20738 | 49 | -66.2 | -92.0 | 332 | 13 |
| 2010-01-13T01:01 | 20774 | 49 | -66.4 | -92.1 | 334 | 13 |
| 2010-01-13T01:01 | 20812 | 49 | -66.8 | -92.3 | 337 | 12 |
| 2010-01-13T01:01 | 20849 | 48 | -66.6 | -92.5 | 340 | 11 |
| 2010-01-13T01:01 | 20888 | 48 | -66.8 | -92.9 | 344 | 10 |
| 2010-01-13T01:01 | 20925 | 48 | -66.9 | -92.8 | 347 | 9 |
| 2010-01-13T01:01 | 20961 | 47 | -66.3 | -92.6 | 348 | 8 |
| 2010-01-13T01:02 | 20994 | 47 | -66.5 | -92.8 | 344 | 6 |
| 2010-01-13T01:02 | 21030 | 47 | -66.2 | -92.5 | 338 | 5 |
| 2010-01-13T01:02 | 21063 | 47 | -66.2 | -92.5 | 332 | 4 |
| 2010-01-13T01:02 | 21100 | 46 | -66.5 | -92.9 | 323 | 3 |
| 2010-01-13T01:02 | 21136 | 46 | -66.4 | -92.9 | 309 | 2 |
| 2010-01-13T01:02 | 21171 | 46 | -66.2 | -92.7 | 278 | 1 |
| 2010-01-13T01:03 | 21206 | 45 | -66.5 | -92.8 | 227 | 1 |
| 2010-01-13T01:03 | 21242 | 45 | -66.5 | -92.8 | 197 | 2 |
| 2010-01-13T01:03 | 21277 | 45 | -66.3 | -92.8 | 184 | 3 |
| 2010-01-13T01:03 | 21310 | 45 | -66.5 | -92.9 | 179 | 5 |
| 2010-01-13T01:03 | 21344 | 44 | -65.6 | -92.1 | 177 | 6 |
| 2010-01-13T01:03 | 21379 | 44 | -66.0 | -92.2 | 175 | 6 |
| 2010-01-13T01:04 | 21411 | 44 | -66.2 | -92.3 | 171 | 6 |
| 2010-01-13T01:04 | 21447 | 44 | -65.7 | -92.2 | 165 | 6 |
| 2010-01-13T01:04 | 21480 | 43 | -65.7 | -92.2 | 162 | 7 |
| 2010-01-13T01:04 | 21511 | 43 | -65.7 | -92.2 | 161 | 7 |
| 2010-01-13T01:04 | 21544 | 43 | -65.7 | -92.3 | 160 | 7 |
| 2010-01-13T01:04 | 21577 | 43 | -65.6 | -92.1 | 160 | 6 |
| 2010-01-13T01:05 | 21610 | 43 | -65.5 | -92.0 | 159 | 6 |
| 2010-01-13T01:05 | 21644 | 42 | -66.0 | -92.6 | 158 | 6 |
| 2010-01-13T01:05 | 21679 | 42 | -66.1 | -92.7 | 155 | 7 |
| 2010-01-13T01:05 | 21712 | 42 | -66.5 | -92.8 | 151 | 7 |
| 2010-01-13T01:05 | 21744 | 42 | -66.5 | -92.9 | 146 | 8 |
| 2010-01-13T01:05 | 21780 | 41 | -66.4 | -93.0 | 142 | 9 |
| 2010-01-13T01:06 | 21813 | 41 | -66.6 | -93.1 | 139 | 10 |
| 2010-01-13T01:06 | 21852 | 41 | -66.6 | -93.0 | 137 | 10 |
| 2010-01-13T01:06 | 21890 | 41 | -67.1 | -93.2 | 136 | 11 |
| 2010-01-13T01:06 | 21924 | 40 | -67.1 | -93.3 | 136 | 12 |
| 2010-01-13T01:06 | 21963 | 40 | -67.3 | -93.7 | 134 | 12 |
| 2010-01-13T01:06 | 22001 | 40 | -67.2 | -93.7 | 131 | 12 |
| 2010-01-13T01:07 | 22041 | 40 | -66.9 | -93.5 | 126 | 13 |
| 2010-01-13T01:07 | 22079 | 39 | -66.7 | -93.3 | 122 | 13 |
| 2010-01-13T01:07 | 22121 | 39 | -66.8 | -93.3 | 118 | 14 |
| 2010-01-13T01:07 | 22160 | 39 | -67.1 | -93.4 | 116 | 15 |
| 2010-01-13T01:07 | 22197 | 39 | -67.1 | -93.2 | 116 | 16 |
| 2010-01-13T01:07 | 22236 | 38 | -67.0 | -93.1 | 117 | 16 |
| 2010-01-13T01:08 | 22277 | 38 | -67.3 | -92.8 | 118 | 16 |
| 2010-01-13T01:08 | 22315 | 38 | -67.4 | -93.3 | 121 | 16 |
| 2010-01-13T01:08 | 22354 | 38 | -67.2 | -93.3 | 122 | 16 |
| 2010-01-13T01:08 | 22391 | 37 | -66.4 | -92.9 | 120 | 16 |
| 2010-01-13T01:08 | 22430 | 37 | -66.6 | -92.9 | 117 | 17 |
| 2010-01-13T01:08 | 22466 | 37 | -66.4 | -93.1 | 113 | 17 |
| 2010-01-13T01:09 | 22503 | 37 | -65.7 | -92.8 | 108 | 16 |
| 2010-01-13T01:09 | 22537 | 37 | -65.3 | -92.7 | 103 | 17 |
| 2010-01-13T01:09 | 22572 | 36 | -65.1 | -92.2 | 101 | 17 |
| 2010-01-13T01:09 | 22606 | 36 | -64.7 | -92.2 | 102 | 16 |
| 2010-01-13T01:09 | 22640 | 36 | -64.7 | -92.3 | 104 | 16 |
| 2010-01-13T01:09 | 22674 | 36 | -65.0 | -92.1 | 104 | 16 |
| 2010-01-13T01:10 | 22707 | 36 | -65.2 | -92.3 | 103 | 16 |
| 2010-01-13T01:10 | 22741 | 35 | -64.9 | -92.2 | 101 | 17 |
| 2010-01-13T01:10 | 22774 | 35 | -64.8 | -92.1 | 100 | 17 |
| 2010-01-13T01:10 | 22810 | 35 | -65.0 | -92.4 | 98 | 17 |
| 2010-01-13T01:10 | 22845 | 35 | -64.9 | -92.6 | 96 | 18 |
| 2010-01-13T01:10 | 22878 | 35 | -64.6 | -92.0 | 95 | 18 |
| 2010-01-13T01:11 | 22913 | 34 | -63.4 | -91.4 | 94 | 19 |
| 2010-01-13T01:11 | 22947 | 34 | -63.3 | -91.3 | 92 | 19 |
| 2010-01-13T01:11 | 22987 | 34 | -63.2 | -91.3 | 91 | 19 |
| 2010-01-13T01:11 | 23023 | 34 | -63.5 | -91.1 | 89 | 19 |
| 2010-01-13T01:11 | 23062 | 34 | -63.7 | -91.3 | 88 | 19 |
| 2010-01-13T01:11 | 23100 | 33 | -63.7 | -91.5 | 88 | 19 |
| 2010-01-13T01:12 | 23139 | 33 | -63.6 | -91.7 | 87 | 20 |
| 2010-01-13T01:12 | 23177 | 33 | -63.4 | -91.6 | 85 | 21 |
| 2010-01-13T01:12 | 23215 | 33 | -63.5 | -91.6 | 83 | 22 |
| 2010-01-13T01:12 | 23255 | 32 | -63.6 | -91.5 | 81 | 23 |
| 2010-01-13T01:12 | 23293 | 32 | -63.7 | -91.7 | 81 | 24 |
| 2010-01-13T01:12 | 23331 | 32 | -63.3 | -91.6 | 82 | 24 |
| 2010-01-13T01:13 | 23369 | 32 | -63.2 | -91.7 | 84 | 24 |
| 2010-01-13T01:13 | 23406 | 32 | -63.3 | -91.7 | 85 | 24 |
| 2010-01-13T01:13 | 23446 | 31 | -63.3 | -91.8 | 85 | 24 |
| 2010-01-13T01:13 | 23484 | 31 | -62.8 | -91.3 | 84 | 24 |
| 2010-01-13T01:13 | 23522 | 31 | -62.6 | -91.0 | 82 | 25 |
| 2010-01-13T01:13 | 23561 | 31 | -62.8 | -90.9 | 79 | 25 |
| 2010-01-13T01:14 | 23598 | 31 | -62.9 | -90.9 | 78 | 25 |
| 2010-01-13T01:14 | 23636 | 31 | -63.0 | -90.9 | 77 | 24 |
| 2010-01-13T01:14 | 23672 | 30 | -62.7 | -90.8 | 77 | 24 |
| 2010-01-13T01:14 | 23711 | 30 | -62.8 | -90.9 | 78 | 25 |
| 2010-01-13T01:14 | 23747 | 30 | -62.7 | -91.0 | 77 | 25 |
| 2010-01-13T01:14 | 23784 | 30 | -62.6 | -90.8 | 77 | 26 |
| 2010-01-13T01:15 | 23819 | 30 | -62.6 | -90.7 | 76 | 26 |
| 2010-01-13T01:15 | 23856 | 29 | -62.6 | -90.9 | 77 | 27 |
| 2010-01-13T01:15 | 23892 | 29 | -62.7 | -90.9 | 77 | 27 |
| 2010-01-13T01:15 | 23927 | 29 | -62.8 | -91.1 | 78 | 27 |
| 2010-01-13T01:15 | 23959 | 29 | -62.5 | -90.9 | 78 | 28 |
| 2010-01-13T01:15 | 23991 | 29 | -62.9 | -91.0 | 79 | 28 |
| 2010-01-13T01:16 | 24026 | 29 | -62.5 | -90.9 | 79 | 28 |
| 2010-01-13T01:16 | 24057 | 29 | -61.1 | -89.9 | 80 | 28 |
| 2010-01-13T01:16 | 24090 | 28 | -60.8 | -89.6 | 82 | 28 |
| 2010-01-13T01:16 | 24121 | 28 | -60.9 | -89.5 | 84 | 28 |
| 2010-01-13T01:16 | 24154 | 28 | -60.5 | -89.4 | 87 | 29 |
| 2010-01-13T01:16 | 24187 | 28 | -60.1 | -89.4 | 88 | 30 |
| 2010-01-13T01:17 | 24220 | 28 | -60.3 | -89.2 | 89 | 30 |
| 2010-01-13T01:17 | 24253 | 28 | -60.4 | -89.0 | 90 | 30 |
| 2010-01-13T01:17 | 24288 | 27 | -60.4 | -89.1 | 91 | 31 |
| 2010-01-13T01:17 | 24323 | 27 | -60.4 | -89.0 | 92 | 31 |
| 2010-01-13T01:17 | 24355 | 27 | -60.9 | -89.2 | 92 | 32 |
| 2010-01-13T01:17 | 24390 | 27 | -60.8 | -89.4 | 92 | 32 |
| 2010-01-13T01:18 | 24425 | 27 | -60.7 | -89.4 | 92 | 32 |
| 2010-01-13T01:18 | 24466 | 27 | -60.8 | -89.1 | 91 | 32 |
| 2010-01-13T01:18 | 24500 | 27 | -60.3 | -89.0 | 90 | 33 |
| 2010-01-13T01:18 | 24539 | 26 | -60.5 | -89.2 | 90 | 32 |
| 2010-01-13T01:18 | 24577 | 26 | -60.3 | -88.9 | 89 | 32 |
| 2010-01-13T01:18 | 24614 | 26 | -60.0 | -89.0 | 89 | 31 |
| 2010-01-13T01:19 | 24650 | 26 | -59.8 | -88.9 | 88 | 30 |
| 2010-01-13T01:19 | 24688 | 26 | -59.9 | -88.9 | 88 | 30 |
| 2010-01-13T01:19 | 24726 | 26 | -59.7 | -89.0 | 89 | 30 |
| 2010-01-13T01:19 | 24760 | 25 | -59.8 | -88.9 | 88 | 31 |
| 2010-01-13T01:19 | 24800 | 25 | -59.7 | -89.1 | 88 | 31 |
| 2010-01-13T01:19 | 24837 | 25 | -59.4 | -88.7 | 87 | 31 |
| 2010-01-13T01:20 | 24874 | 25 | -59.1 | -88.4 | 88 | 31 |
| 2010-01-13T01:20 | 24910 | 25 | -58.8 | -88.3 | 87 | 31 |
| 2010-01-13T01:20 | 24948 | 25 | -58.8 | -88.3 | 87 | 32 |
| 2010-01-13T01:20 | 24987 | 25 | -58.7 | -88.3 | 86 | 33 |
| 2010-01-13T01:20 | 25023 | 24 | -58.6 | -88.3 | 87 | 34 |
| 2010-01-13T01:20 | 25060 | 24 | -58.0 | -88.0 | 87 | 34 |
| 2010-01-13T01:21 | 25098 | 24 | -57.8 | -87.7 | 87 | 35 |
| 2010-01-13T01:21 | 25135 | 24 | -58.0 | -87.7 | 86 | 34 |
| 2010-01-13T01:21 | 25172 | 24 | -58.1 | -87.7 | 85 | 34 |
| 2010-01-13T01:21 | 25209 | 24 | -57.8 | -87.5 | 85 | 33 |
| 2010-01-13T01:21 | 25244 | 24 | -57.7 | -87.4 | 85 | 33 |
| 2010-01-13T01:21 | 25278 | 23 | -57.4 | -87.4 | 84 | 34 |
| 2010-01-13T01:22 | 25318 | 23 | -56.9 | -87.2 | 83 | 35 |
| 2010-01-13T01:22 | 25356 | 23 | -56.4 | -86.9 | 83 | 34 |
| 2010-01-13T01:22 | 25389 | 23 | -56.3 | -86.7 | 83 | 34 |
| 2010-01-13T01:22 | 25426 | 23 | -56.2 | -86.7 | 83 | 34 |
| 2010-01-13T01:22 | 25461 | 23 | -56.0 | -86.6 | 83 | 34 |
| 2010-01-13T01:22 | 25497 | 23 | -55.9 | -86.5 | 84 | 34 |
| 2010-01-13T01:23 | 25534 | 23 | -55.7 | -86.3 | 84 | 34 |
| 2010-01-13T01:23 | 25572 | 22 | -55.4 | -86.0 | 84 | 33 |
| 2010-01-13T01:23 | 25608 | 22 | -55.0 | -85.7 | 83 | 33 |
| 2010-01-13T01:23 | 25646 | 22 | -55.0 | -85.6 | 83 | 33 |
| 2010-01-13T01:23 | 25682 | 22 | -55.0 | -85.6 | 83 | 33 |
| 2010-01-13T01:23 | 25712 | 22 | -55.0 | -85.4 | 83 | 33 |
| 2010-01-13T01:24 | 25753 | 22 | -55.2 | -85.4 | 83 | 33 |
| 2010-01-13T01:24 | 25789 | 22 | -55.2 | -85.5 | 82 | 33 |
| 2010-01-13T01:24 | 25829 | 22 | -55.4 | -85.4 | 82 | 34 |
| 2010-01-13T01:24 | 25864 | 21 | -55.4 | -85.6 | 81 | 34 |
| 2010-01-13T01:24 | 25904 | 21 | -55.5 | -85.8 | 80 | 34 |
| 2010-01-13T01:24 | 25939 | 21 | -55.5 | -85.8 | 80 | 34 |
| 2010-01-13T01:25 | 25977 | 21 | -55.8 | -85.8 | 80 | 34 |
| 2010-01-13T01:25 | 26017 | 21 | -55.9 | -85.9 | 81 | 34 |
| 2010-01-13T01:25 | 26056 | 21 | -55.9 | -85.8 | 82 | 34 |
| 2010-01-13T01:25 | 26093 | 21 | -56.0 | -86.0 | 83 | 34 |
| 2010-01-13T01:25 | 26124 | 21 | -55.9 | -86.0 | 83 | 34 |
| 2010-01-13T01:25 | 26165 | 20 | -55.7 | -86.0 | 83 | 34 |
| 2010-01-13T01:26 | 26200 | 20 | -55.6 | -86.1 | 83 | 33 |
| 2010-01-13T01:26 | 26232 | 20 | -55.6 | -86.0 | 82 | 34 |
| 2010-01-13T01:26 | 26271 | 20 | -55.5 | -86.0 | 82 | 34 |
| 2010-01-13T01:26 | 26295 | 20 | -55.4 | -86.0 | 83 | 33 |
| 2010-01-13T01:26 | 26332 | 20 | -55.5 | -86.0 | 83 | 33 |
| 2010-01-13T01:26 | 26366 | 20 | -55.5 | -86.0 | 84 | 33 |
| 2010-01-13T01:27 | 26396 | 20 | -55.5 | -85.8 | 84 | 34 |
| 2010-01-13T01:27 | 26428 | 20 | -55.2 | -85.8 | 85 | 34 |
| 2010-01-13T01:27 | 26460 | 19 | -55.1 | -85.7 | 85 | 34 |
| 2010-01-13T01:27 | 26494 | 19 | -55.1 | -85.4 | 86 | 34 |
| 2010-01-13T01:27 | 26528 | 19 | -55.1 | -85.5 | 87 | 33 |
| 2010-01-13T01:27 | 26560 | 19 | -55.1 | -85.4 | 87 | 33 |
| 2010-01-13T01:28 | 26592 | 19 | -55.3 | -85.5 | 88 | 33 |
| 2010-01-13T01:28 | 26629 | 19 | -55.6 | -85.7 | 89 | 33 |
| 2010-01-13T01:28 | 26663 | 19 | -55.6 | -85.6 | 90 | 33 |
| 2010-01-13T01:28 | 26699 | 19 | -55.5 | -85.6 | 90 | 33 |
| 2010-01-13T01:28 | 26736 | 19 | -55.5 | -85.8 | 91 | 34 |
| 2010-01-13T01:28 | 26772 | 19 | -55.5 | -85.6 | 91 | 35 |
| 2010-01-13T01:29 | 26808 | 18 | -55.3 | -85.6 | 91 | 36 |
| 2010-01-13T01:29 | 26841 | 18 | -54.6 | -85.3 | 91 | 37 |
| 2010-01-13T01:29 | 26881 | 18 | -54.2 | -85.0 | 91 | 38 |
| 2010-01-13T01:29 | 26919 | 18 | -53.8 | -85.0 | 91 | 39 |
| 2010-01-13T01:29 | 26953 | 18 | -53.5 | -84.7 | 90 | 40 |
| 2010-01-13T01:29 | 26989 | 18 | -53.3 | -84.5 | 90 | 41 |
| 2010-01-13T01:30 | 27024 | 18 | -53.3 | -84.6 | 90 | 41 |
| 2010-01-13T01:30 | 27065 | 18 | -53.0 | -84.3 | 90 | 41 |
| 2010-01-13T01:30 | 27102 | 18 | -53.0 | -84.1 | 89 | 41 |
| 2010-01-13T01:30 | 27137 | 18 | -53.2 | -84.2 | 89 | 41 |
| 2010-01-13T01:30 | 27170 | 17 | -53.1 | -84.0 | 88 | 41 |
| 2010-01-13T01:30 | 27208 | 17 | -52.8 | -83.8 | 88 | 41 |
| 2010-01-13T01:31 | 27240 | 17 | -52.8 | -83.8 | 89 | 41 |
| 2010-01-13T01:31 | 27276 | 17 | -52.8 | -83.8 | 89 | 41 |
| 2010-01-13T01:31 | 27306 | 17 | -52.6 | -83.4 | 89 | 41 |
| 2010-01-13T01:31 | 27337 | 17 | -52.2 | -83.1 | 89 | 42 |
| 2010-01-13T01:31 | 27375 | 17 | -52.4 | -83.2 | 88 | 42 |
| 2010-01-13T01:31 | 27407 | 17 | -52.3 | -83.2 | 88 | 42 |
| 2010-01-13T01:32 | 27439 | 17 | -52.6 | -83.5 | 89 | 42 |
| 2010-01-13T01:32 | 27477 | 17 | -52.7 | -83.6 | 89 | 43 |
| 2010-01-13T01:32 | 27510 | 17 | -52.5 | -83.3 | 89 | 42 |
| 2010-01-13T01:32 | 27545 | 16 | -52.8 | -83.5 | 89 | 42 |
| 2010-01-13T01:32 | 27573 | 16 | -52.8 | -83.6 | 89 | 43 |
| 2010-01-13T01:32 | 27613 | 16 | -52.5 | -83.5 | 89 | 43 |
| 2010-01-13T01:33 | 27649 | 16 | -52.5 | -83.6 | 89 | 43 |
| 2010-01-13T01:33 | 27682 | 16 | -52.2 | -83.6 | 90 | 43 |
| 2010-01-13T01:33 | 27719 | 16 | -51.9 | -83.3 | 91 | 43 |
| 2010-01-13T01:33 | 27754 | 16 | -51.7 | -83.1 | 91 | 43 |
| 2010-01-13T01:33 | 27791 | 16 | -51.3 | -83.0 | 92 | 43 |
| 2010-01-13T01:33 | 27826 | 16 | -50.7 | -82.6 | 92 | 43 |
| 2010-01-13T01:34 | 27861 | 16 | -50.8 | -82.5 | 93 | 43 |
| 2010-01-13T01:34 | 27899 | 16 | -50.8 | -82.4 | 93 | 44 |
| 2010-01-13T01:34 | 27928 | 16 | -50.6 | -82.2 | 93 | 43 |
| 2010-01-13T01:34 | 27964 | 15 | -50.4 | -82.2 | 94 | 43 |
| 2010-01-13T01:34 | 28003 | 15 | -50.3 | -82.2 | 94 | 42 |
| 2010-01-13T01:34 | 28031 | 15 | -49.9 | -82.0 | 95 | 42 |
| 2010-01-13T11:39 | 4 | 1007 | 24.9 | 22.8 | 320 | 1 |
| 2010-01-13T11:39 | 13 | 1006 | 25.8 | 22.7 | 350 | 1 |
| 2010-01-13T11:39 | 23 | 1005 | 26.8 | 22.9 | 348 | 1 |
| 2010-01-13T11:39 | 34 | 1004 | 27.0 | 22.6 | 343 | 1 |
| 2010-01-13T11:39 | 45 | 1003 | 27.0 | 22.3 | 339 | 1 |
| 2010-01-13T11:39 | 55 | 1002 | 27.0 | 22.0 | 334 | 1 |
| 2010-01-13T11:39 | 62 | 1001 | 27.0 | 21.9 | 329 | 2 |
| 2010-01-13T11:39 | 71 | 1000 | 27.0 | 21.7 | 325 | 2 |
| 2010-01-13T11:39 | 79 | 999 | 26.9 | 21.6 | 321 | 2 |
| 2010-01-13T11:39 | 88 | 998 | 26.9 | 21.5 | 317 | 2 |
| 2010-01-13T11:39 | 97 | 997 | 26.9 | 21.4 | 313 | 3 |
| 2010-01-13T11:39 | 107 | 996 | 26.9 | 21.3 | 310 | 3 |
| 2010-01-13T11:39 | 117 | 995 | 26.9 | 21.2 | 307 | 3 |
| 2010-01-13T11:39 | 126 | 994 | 26.9 | 21.1 | 304 | 4 |
| 2010-01-13T11:39 | 135 | 992 | 26.9 | 21.0 | 302 | 4 |
| 2010-01-13T11:39 | 144 | 992 | 26.9 | 20.9 | 300 | 4 |
| 2010-01-13T11:39 | 152 | 991 | 26.8 | 20.8 | 298 | 4 |
| 2010-01-13T11:39 | 161 | 990 | 26.8 | 20.7 | 295 | 5 |
| 2010-01-13T11:39 | 170 | 989 | 26.8 | 20.6 | 293 | 5 |
| 2010-01-13T11:39 | 181 | 987 | 26.8 | 20.5 | 291 | 5 |
| 2010-01-13T11:39 | 193 | 986 | 26.9 | 20.4 | 290 | 5 |
| 2010-01-13T11:39 | 203 | 985 | 26.9 | 20.3 | 288 | 5 |
| 2010-01-13T11:39 | 213 | 984 | 26.9 | 20.2 | 286 | 5 |
| 2010-01-13T11:39 | 221 | 983 | 26.9 | 20.1 | 284 | 6 |
| 2010-01-13T11:39 | 230 | 982 | 26.8 | 20.1 | 282 | 6 |
| 2010-01-13T11:39 | 238 | 981 | 26.7 | 20.0 | 281 | 6 |
| 2010-01-13T11:39 | 249 | 980 | 26.7 | 19.9 | 280 | 6 |
| 2010-01-13T11:39 | 259 | 979 | 26.6 | 19.9 | 279 | 6 |
| 2010-01-13T11:39 | 270 | 977 | 26.5 | 19.8 | 278 | 6 |
| 2010-01-13T11:39 | 281 | 976 | 26.5 | 19.8 | 278 | 7 |
| 2010-01-13T11:40 | 290 | 975 | 26.4 | 19.7 | 278 | 7 |
| 2010-01-13T11:40 | 301 | 974 | 26.4 | 19.7 | 278 | 7 |
| 2010-01-13T11:40 | 313 | 973 | 26.3 | 19.6 | 278 | 8 |
| 2010-01-13T11:40 | 324 | 972 | 26.2 | 19.6 | 278 | 8 |
| 2010-01-13T11:40 | 334 | 970 | 26.1 | 19.5 | 278 | 8 |
| 2010-01-13T11:40 | 347 | 969 | 26.1 | 19.4 | 278 | 9 |
| 2010-01-13T11:40 | 360 | 968 | 26.1 | 19.4 | 279 | 9 |
| 2010-01-13T11:40 | 371 | 966 | 26.2 | 19.3 | 279 | 10 |
| 2010-01-13T11:40 | 383 | 965 | 26.1 | 19.2 | 279 | 10 |
| 2010-01-13T11:40 | 395 | 964 | 26.1 | 19.1 | 279 | 10 |
| 2010-01-13T11:40 | 406 | 963 | 26.0 | 19.1 | 280 | 11 |
| 2010-01-13T11:40 | 417 | 961 | 26.0 | 19.0 | 280 | 11 |
| 2010-01-13T11:40 | 429 | 960 | 25.9 | 18.9 | 280 | 12 |
| 2010-01-13T11:40 | 439 | 959 | 25.8 | 18.9 | 281 | 12 |
| 2010-01-13T11:40 | 450 | 958 | 25.8 | 18.9 | 281 | 12 |
| 2010-01-13T11:40 | 461 | 957 | 25.9 | 18.8 | 281 | 13 |
| 2010-01-13T11:40 | 473 | 955 | 26.0 | 18.8 | 281 | 13 |
| 2010-01-13T11:40 | 485 | 954 | 26.1 | 18.6 | 281 | 13 |
| 2010-01-13T11:40 | 495 | 953 | 26.0 | 18.5 | 281 | 14 |
| 2010-01-13T11:40 | 505 | 952 | 26.1 | 18.4 | 281 | 14 |
| 2010-01-13T11:40 | 512 | 951 | 26.2 | 18.4 | 281 | 15 |
| 2010-01-13T11:40 | 524 | 950 | 26.3 | 18.2 | 280 | 15 |
| 2010-01-13T11:40 | 538 | 948 | 26.5 | 18.0 | 280 | 16 |
| 2010-01-13T11:40 | 549 | 947 | 26.6 | 17.8 | 279 | 16 |
| 2010-01-13T11:40 | 559 | 946 | 26.7 | 17.8 | 278 | 16 |
| 2010-01-13T11:40 | 570 | 945 | 26.7 | 17.6 | 278 | 17 |
| 2010-01-13T11:40 | 581 | 944 | 26.7 | 17.5 | 277 | 17 |
| 2010-01-13T11:40 | 592 | 943 | 26.6 | 17.4 | 277 | 18 |
| 2010-01-13T11:40 | 599 | 942 | 26.6 | 17.4 | 276 | 18 |
| 2010-01-13T11:40 | 607 | 941 | 26.5 | 17.3 | 276 | 18 |
| 2010-01-13T11:41 | 614 | 940 | 26.5 | 17.3 | 276 | 18 |
| 2010-01-13T11:41 | 623 | 939 | 26.5 | 17.2 | 275 | 19 |
| 2010-01-13T11:41 | 632 | 938 | 26.5 | 17.2 | 275 | 19 |
| 2010-01-13T11:41 | 643 | 937 | 26.5 | 17.1 | 275 | 19 |
| 2010-01-13T11:41 | 655 | 936 | 26.5 | 17.1 | 275 | 19 |
| 2010-01-13T11:41 | 667 | 935 | 26.5 | 17.1 | 275 | 19 |
| 2010-01-13T11:41 | 678 | 933 | 26.6 | 17.0 | 275 | 19 |
| 2010-01-13T11:41 | 689 | 932 | 26.6 | 16.8 | 275 | 19 |
| 2010-01-13T11:41 | 698 | 931 | 26.6 | 16.4 | 275 | 19 |
| 2010-01-13T11:41 | 707 | 930 | 26.7 | 16.0 | 275 | 19 |
| 2010-01-13T11:41 | 718 | 929 | 26.8 | 15.6 | 274 | 19 |
| 2010-01-13T11:41 | 726 | 928 | 26.7 | 15.4 | 274 | 19 |
| 2010-01-13T11:41 | 734 | 928 | 26.7 | 15.4 | 273 | 19 |
| 2010-01-13T11:41 | 742 | 927 | 26.6 | 15.5 | 273 | 19 |
| 2010-01-13T11:41 | 751 | 926 | 26.6 | 15.5 | 272 | 19 |
| 2010-01-13T11:41 | 760 | 925 | 26.5 | 15.5 | 272 | 19 |
| 2010-01-13T11:41 | 771 | 924 | 26.5 | 15.5 | 271 | 19 |
| 2010-01-13T11:41 | 782 | 923 | 26.4 | 15.4 | 270 | 19 |
| 2010-01-13T11:41 | 793 | 921 | 26.3 | 15.4 | 270 | 19 |
| 2010-01-13T11:41 | 805 | 920 | 26.2 | 15.3 | 269 | 19 |
| 2010-01-13T11:41 | 816 | 919 | 26.1 | 15.3 | 269 | 19 |
| 2010-01-13T11:41 | 827 | 918 | 26.0 | 15.3 | 269 | 19 |
| 2010-01-13T11:41 | 837 | 917 | 26.0 | 15.2 | 268 | 19 |
| 2010-01-13T11:41 | 844 | 916 | 25.9 | 15.2 | 268 | 19 |
| 2010-01-13T11:41 | 852 | 915 | 25.8 | 15.2 | 268 | 19 |
| 2010-01-13T11:41 | 862 | 914 | 25.8 | 15.1 | 268 | 19 |
| 2010-01-13T11:41 | 873 | 913 | 25.7 | 15.0 | 268 | 19 |
| 2010-01-13T11:41 | 882 | 912 | 25.6 | 15.0 | 267 | 19 |
| 2010-01-13T11:41 | 890 | 911 | 25.5 | 14.9 | 267 | 20 |
| 2010-01-13T11:41 | 898 | 910 | 25.5 | 14.9 | 267 | 20 |
| 2010-01-13T11:42 | 906 | 910 | 25.5 | 14.8 | 267 | 20 |
| 2010-01-13T11:42 | 913 | 909 | 25.5 | 14.7 | 267 | 20 |
| 2010-01-13T11:42 | 921 | 908 | 25.5 | 14.7 | 267 | 20 |
| 2010-01-13T11:42 | 929 | 907 | 25.4 | 14.7 | 267 | 20 |
| 2010-01-13T11:42 | 937 | 906 | 25.4 | 14.7 | 267 | 20 |
| 2010-01-13T11:42 | 945 | 906 | 25.3 | 14.7 | 267 | 20 |
| 2010-01-13T11:42 | 953 | 905 | 25.3 | 14.7 | 267 | 20 |
| 2010-01-13T11:42 | 961 | 904 | 25.2 | 14.6 | 267 | 20 |
| 2010-01-13T11:42 | 968 | 903 | 25.1 | 14.6 | 267 | 20 |
| 2010-01-13T11:42 | 975 | 903 | 25.1 | 14.6 | 267 | 20 |
| 2010-01-13T11:42 | 982 | 902 | 25.0 | 14.6 | 267 | 20 |
| 2010-01-13T11:42 | 989 | 901 | 25.0 | 14.6 | 267 | 20 |
| 2010-01-13T11:42 | 996 | 900 | 24.9 | 14.6 | 267 | 20 |
| 2010-01-13T11:42 | 1003 | 900 | 24.9 | 14.6 | 267 | 20 |
| 2010-01-13T11:42 | 1010 | 899 | 24.8 | 14.6 | 267 | 20 |
| 2010-01-13T11:42 | 1017 | 898 | 24.8 | 14.5 | 267 | 20 |
| 2010-01-13T11:42 | 1025 | 897 | 24.7 | 14.5 | 267 | 20 |
| 2010-01-13T11:42 | 1032 | 897 | 24.7 | 14.5 | 267 | 20 |
| 2010-01-13T11:42 | 1040 | 896 | 24.6 | 14.6 | 267 | 20 |
| 2010-01-13T11:42 | 1048 | 895 | 24.6 | 14.6 | 267 | 20 |
| 2010-01-13T11:42 | 1058 | 894 | 24.6 | 14.5 | 267 | 20 |
| 2010-01-13T11:42 | 1070 | 893 | 24.6 | 14.5 | 267 | 20 |
| 2010-01-13T11:42 | 1083 | 891 | 24.6 | 14.4 | 267 | 20 |
| 2010-01-13T11:42 | 1094 | 890 | 24.5 | 14.4 | 267 | 20 |
| 2010-01-13T11:42 | 1104 | 889 | 24.5 | 14.3 | 267 | 20 |
| 2010-01-13T11:42 | 1113 | 888 | 24.4 | 14.3 | 268 | 20 |
| 2010-01-13T11:42 | 1118 | 888 | 24.3 | 14.3 | 268 | 20 |
| 2010-01-13T11:42 | 1125 | 887 | 24.3 | 14.2 | 268 | 20 |
| 2010-01-13T11:42 | 1133 | 886 | 24.2 | 14.1 | 268 | 20 |
| 2010-01-13T11:42 | 1140 | 886 | 24.1 | 14.0 | 268 | 20 |
| 2010-01-13T11:43 | 1148 | 885 | 24.0 | 14.0 | 268 | 20 |
| 2010-01-13T11:43 | 1156 | 884 | 24.0 | 13.9 | 269 | 20 |
| 2010-01-13T11:43 | 1164 | 883 | 23.9 | 13.9 | 269 | 20 |
| 2010-01-13T11:43 | 1173 | 882 | 23.8 | 13.9 | 269 | 19 |
| 2010-01-13T11:43 | 1182 | 881 | 23.8 | 13.9 | 269 | 19 |
| 2010-01-13T11:43 | 1193 | 880 | 23.7 | 13.8 | 269 | 19 |
| 2010-01-13T11:43 | 1207 | 879 | 23.6 | 13.8 | 269 | 19 |
| 2010-01-13T11:43 | 1220 | 878 | 23.5 | 13.7 | 269 | 19 |
| 2010-01-13T11:43 | 1229 | 877 | 23.4 | 13.7 | 269 | 19 |
| 2010-01-13T11:43 | 1238 | 876 | 23.4 | 13.7 | 269 | 19 |
| 2010-01-13T11:43 | 1245 | 875 | 23.3 | 13.7 | 269 | 19 |
| 2010-01-13T11:43 | 1252 | 874 | 23.2 | 13.6 | 269 | 18 |
| 2010-01-13T11:43 | 1262 | 873 | 23.2 | 13.7 | 270 | 18 |
| 2010-01-13T11:43 | 1273 | 872 | 23.1 | 13.8 | 270 | 18 |
| 2010-01-13T11:43 | 1284 | 871 | 23.0 | 13.9 | 270 | 18 |
| 2010-01-13T11:43 | 1294 | 870 | 23.0 | 14.0 | 270 | 18 |
| 2010-01-13T11:43 | 1304 | 869 | 22.9 | 14.0 | 271 | 18 |
| 2010-01-13T11:43 | 1314 | 868 | 22.8 | 14.0 | 271 | 17 |
| 2010-01-13T11:43 | 1323 | 867 | 22.7 | 14.0 | 272 | 17 |
| 2010-01-13T11:43 | 1331 | 866 | 22.6 | 14.0 | 272 | 17 |
| 2010-01-13T11:43 | 1339 | 866 | 22.6 | 14.0 | 273 | 17 |
| 2010-01-13T11:43 | 1347 | 865 | 22.5 | 14.3 | 273 | 17 |
| 2010-01-13T11:43 | 1357 | 864 | 22.5 | 14.4 | 274 | 17 |
| 2010-01-13T11:43 | 1367 | 863 | 22.4 | 14.4 | 274 | 17 |
| 2010-01-13T11:43 | 1379 | 862 | 22.4 | 14.4 | 275 | 17 |
| 2010-01-13T11:43 | 1391 | 861 | 22.3 | 14.3 | 275 | 17 |
| 2010-01-13T11:43 | 1403 | 859 | 22.3 | 14.3 | 276 | 18 |
| 2010-01-13T11:43 | 1412 | 858 | 22.2 | 14.4 | 276 | 18 |
| 2010-01-13T11:43 | 1422 | 858 | 22.2 | 14.4 | 276 | 18 |
| 2010-01-13T11:43 | 1433 | 856 | 22.2 | 14.4 | 276 | 18 |
| 2010-01-13T11:44 | 1445 | 855 | 22.1 | 14.4 | 277 | 18 |
| 2010-01-13T11:44 | 1457 | 854 | 22.0 | 14.4 | 277 | 18 |
| 2010-01-13T11:44 | 1467 | 853 | 21.9 | 14.3 | 277 | 19 |
| 2010-01-13T11:44 | 1477 | 852 | 21.8 | 14.3 | 277 | 19 |
| 2010-01-13T11:44 | 1488 | 851 | 21.7 | 14.3 | 278 | 19 |
| 2010-01-13T11:44 | 1500 | 850 | 21.7 | 14.3 | 278 | 19 |
| 2010-01-13T11:44 | 1512 | 849 | 21.5 | 14.2 | 278 | 19 |
| 2010-01-13T11:44 | 1522 | 848 | 21.4 | 14.2 | 279 | 19 |
| 2010-01-13T11:44 | 1531 | 847 | 21.4 | 14.2 | 279 | 19 |
| 2010-01-13T11:44 | 1541 | 846 | 21.3 | 14.1 | 280 | 19 |
| 2010-01-13T11:44 | 1553 | 845 | 21.3 | 14.1 | 280 | 19 |
| 2010-01-13T11:44 | 1563 | 844 | 21.2 | 14.1 | 281 | 19 |
| 2010-01-13T11:44 | 1573 | 843 | 21.4 | 14.0 | 282 | 19 |
| 2010-01-13T11:44 | 1584 | 842 | 21.5 | 13.9 | 282 | 19 |
| 2010-01-13T11:44 | 1594 | 841 | 21.4 | 13.8 | 283 | 19 |
| 2010-01-13T11:44 | 1605 | 840 | 21.4 | 13.7 | 284 | 19 |
| 2010-01-13T11:44 | 1617 | 838 | 21.4 | 13.5 | 285 | 19 |
| 2010-01-13T11:44 | 1629 | 837 | 21.4 | 13.4 | 285 | 19 |
| 2010-01-13T11:44 | 1638 | 836 | 21.3 | 13.3 | 286 | 19 |
| 2010-01-13T11:44 | 1647 | 836 | 21.3 | 13.3 | 287 | 19 |
| 2010-01-13T11:44 | 1658 | 835 | 21.2 | 13.2 | 288 | 18 |
| 2010-01-13T11:44 | 1668 | 834 | 21.1 | 13.1 | 289 | 18 |
| 2010-01-13T11:44 | 1678 | 833 | 21.0 | 13.1 | 290 | 18 |
| 2010-01-13T11:44 | 1689 | 832 | 20.9 | 13.0 | 291 | 18 |
| 2010-01-13T11:44 | 1703 | 830 | 20.9 | 12.9 | 292 | 17 |
| 2010-01-13T11:44 | 1720 | 829 | 20.8 | 12.9 | 294 | 17 |
| 2010-01-13T11:44 | 1738 | 827 | 20.6 | 12.9 | 295 | 17 |
| 2010-01-13T11:44 | 1752 | 826 | 20.5 | 12.8 | 296 | 17 |
| 2010-01-13T11:44 | 1764 | 824 | 20.4 | 12.8 | 297 | 16 |
| 2010-01-13T11:44 | 1776 | 823 | 20.3 | 12.8 | 297 | 16 |
| 2010-01-13T11:45 | 1787 | 822 | 20.2 | 12.8 | 298 | 16 |
| 2010-01-13T11:45 | 1796 | 821 | 20.1 | 12.8 | 299 | 16 |
| 2010-01-13T11:45 | 1807 | 820 | 20.0 | 12.7 | 299 | 16 |
| 2010-01-13T11:45 | 1820 | 819 | 19.9 | 12.7 | 300 | 16 |
| 2010-01-13T11:45 | 1834 | 818 | 19.8 | 12.6 | 300 | 15 |
| 2010-01-13T11:45 | 1843 | 817 | 19.7 | 12.6 | 300 | 15 |
| 2010-01-13T11:45 | 1853 | 816 | 19.6 | 12.6 | 300 | 15 |
| 2010-01-13T11:45 | 1866 | 815 | 19.5 | 12.6 | 301 | 15 |
| 2010-01-13T11:45 | 1879 | 813 | 19.4 | 12.5 | 301 | 15 |
| 2010-01-13T11:45 | 1890 | 812 | 19.2 | 12.5 | 301 | 15 |
| 2010-01-13T11:45 | 1900 | 812 | 19.1 | 12.5 | 301 | 15 |
| 2010-01-13T11:45 | 1910 | 811 | 19.0 | 12.5 | 302 | 16 |
| 2010-01-13T11:45 | 1922 | 809 | 18.9 | 12.5 | 302 | 16 |
| 2010-01-13T11:45 | 1935 | 808 | 18.8 | 12.5 | 303 | 16 |
| 2010-01-13T11:45 | 1948 | 807 | 18.7 | 12.4 | 303 | 16 |
| 2010-01-13T11:45 | 1961 | 806 | 18.6 | 12.4 | 304 | 16 |
| 2010-01-13T11:45 | 1973 | 805 | 18.5 | 12.4 | 304 | 15 |
| 2010-01-13T11:45 | 1985 | 804 | 18.4 | 12.4 | 305 | 15 |
| 2010-01-13T11:45 | 1998 | 802 | 18.3 | 12.4 | 306 | 15 |
| 2010-01-13T11:45 | 2025 | 800 | 18.0 | 12.4 | 307 | 15 |
| 2010-01-13T11:45 | 2076 | 795 | 17.7 | 12.5 | 308 | 13 |
| 2010-01-13T11:46 | 2132 | 790 | 17.3 | 12.5 | 308 | 12 |
| 2010-01-13T11:46 | 2196 | 784 | 17.0 | 12.4 | 308 | 10 |
| 2010-01-13T11:46 | 2249 | 779 | 16.9 | 11.8 | 309 | 9 |
| 2010-01-13T11:46 | 2306 | 774 | 16.4 | 11.5 | 308 | 8 |
| 2010-01-13T11:46 | 2368 | 768 | 16.1 | 11.1 | 307 | 7 |
| 2010-01-13T11:46 | 2415 | 764 | 16.0 | 10.5 | 304 | 6 |
| 2010-01-13T11:47 | 2450 | 761 | 15.8 | 10.2 | 301 | 6 |
| 2010-01-13T11:47 | 2496 | 757 | 15.5 | 10.0 | 298 | 6 |
| 2010-01-13T11:47 | 2538 | 753 | 15.1 | 9.8 | 296 | 6 |
| 2010-01-13T11:47 | 2576 | 750 | 14.7 | 9.6 | 297 | 5 |
| 2010-01-13T11:47 | 2617 | 746 | 14.4 | 9.6 | 301 | 5 |
| 2010-01-13T11:47 | 2677 | 741 | 13.8 | 9.4 | 302 | 5 |
| 2010-01-13T11:48 | 2727 | 737 | 13.4 | 9.2 | 301 | 5 |
| 2010-01-13T11:48 | 2764 | 733 | 13.0 | 9.1 | 298 | 5 |
| 2010-01-13T11:48 | 2803 | 730 | 12.6 | 8.9 | 296 | 6 |
| 2010-01-13T11:48 | 2844 | 726 | 12.3 | 8.8 | 295 | 5 |
| 2010-01-13T11:48 | 2897 | 722 | 11.9 | 8.1 | 296 | 5 |
| 2010-01-13T11:48 | 2938 | 718 | 11.6 | 7.9 | 300 | 5 |
| 2010-01-13T11:49 | 2978 | 715 | 11.2 | 8.0 | 305 | 5 |
| 2010-01-13T11:49 | 3020 | 711 | 10.8 | 7.9 | 307 | 5 |
| 2010-01-13T11:49 | 3060 | 708 | 10.6 | 6.9 | 311 | 5 |
| 2010-01-13T11:49 | 3104 | 704 | 10.4 | 6.3 | 315 | 4 |
| 2010-01-13T11:49 | 3158 | 700 | 10.1 | 6.3 | 315 | 4 |
| 2010-01-13T11:49 | 3201 | 696 | 9.7 | 6.3 | 309 | 4 |
| 2010-01-13T11:50 | 3246 | 692 | 9.3 | 6.3 | 302 | 4 |
| 2010-01-13T11:50 | 3284 | 689 | 9.0 | 6.3 | 296 | 4 |
| 2010-01-13T11:50 | 3342 | 684 | 8.6 | 6.3 | 287 | 4 |
| 2010-01-13T11:50 | 3394 | 680 | 8.6 | 6.2 | 281 | 3 |
| 2010-01-13T11:50 | 3447 | 676 | 8.2 | 6.0 | 283 | 2 |
| 2010-01-13T11:50 | 3489 | 672 | 7.8 | 5.9 | 287 | 2 |
| 2010-01-13T11:51 | 3529 | 669 | 7.5 | 5.8 | 288 | 2 |
| 2010-01-13T11:51 | 3570 | 666 | 7.3 | 5.7 | 283 | 2 |
| 2010-01-13T11:51 | 3622 | 661 | 7.1 | 5.4 | 267 | 2 |
| 2010-01-13T11:51 | 3663 | 658 | 7.0 | 5.1 | 253 | 3 |
| 2010-01-13T11:51 | 3705 | 655 | 6.9 | 4.9 | 246 | 3 |
| 2010-01-13T11:51 | 3745 | 652 | 6.8 | 4.8 | 243 | 3 |
| 2010-01-13T11:52 | 3786 | 648 | 6.8 | 4.5 | 244 | 3 |
| 2010-01-13T11:52 | 3830 | 645 | 6.8 | 4.0 | 250 | 2 |
| 2010-01-13T11:52 | 3890 | 640 | 6.9 | 3.7 | 259 | 1 |
| 2010-01-13T11:52 | 3948 | 636 | 6.6 | 3.3 | 0 | 0 |
| 2010-01-13T11:52 | 4001 | 632 | 6.4 | 3.5 | 114 | 0 |
| 2010-01-13T11:52 | 4055 | 628 | 6.2 | 3.6 | 109 | 1 |
| 2010-01-13T11:53 | 4113 | 623 | 6.0 | 3.3 | 95 | 1 |
| 2010-01-13T11:53 | 4161 | 620 | 5.7 | 3.2 | 78 | 2 |
| 2010-01-13T11:53 | 4216 | 615 | 5.3 | 3.0 | 72 | 2 |
| 2010-01-13T11:53 | 4257 | 612 | 5.1 | 2.9 | 73 | 2 |
| 2010-01-13T11:53 | 4302 | 609 | 4.7 | 2.7 | 69 | 2 |
| 2010-01-13T11:53 | 4341 | 606 | 4.4 | 2.6 | 60 | 2 |
| 2010-01-13T11:54 | 4383 | 603 | 4.1 | 2.3 | 53 | 2 |
| 2010-01-13T11:54 | 4428 | 600 | 3.7 | 2.3 | 52 | 2 |
| 2010-01-13T11:54 | 4491 | 595 | 3.2 | 2.0 | 51 | 2 |
| 2010-01-13T11:54 | 4540 | 591 | 2.7 | 1.9 | 52 | 3 |
| 2010-01-13T11:54 | 4596 | 587 | 2.3 | 1.9 | 54 | 2 |
| 2010-01-13T11:54 | 4649 | 584 | 2.0 | 1.4 | 48 | 2 |
| 2010-01-13T11:55 | 4701 | 580 | 1.7 | 1.2 | 32 | 2 |
| 2010-01-13T11:55 | 4755 | 576 | 1.2 | 1.1 | 16 | 2 |
| 2010-01-13T11:55 | 4802 | 573 | 0.9 | 0.8 | 1 | 3 |
| 2010-01-13T11:55 | 4859 | 569 | 0.8 | 0.5 | 349 | 3 |
| 2010-01-13T11:55 | 4906 | 565 | 0.5 | 0.3 | 347 | 2 |
| 2010-01-13T11:55 | 4948 | 562 | 0.4 | 0.1 | 343 | 2 |
| 2010-01-13T11:56 | 4990 | 559 | 0.4 | 0.0 | 331 | 2 |
| 2010-01-13T11:56 | 5055 | 555 | 0.3 | -0.5 | 325 | 3 |
| 2010-01-13T11:56 | 5102 | 552 | 0.0 | -0.7 | 325 | 4 |
| 2010-01-13T11:56 | 5142 | 549 | -0.3 | -0.9 | 325 | 4 |
| 2010-01-13T11:56 | 5183 | 546 | -0.6 | -1.2 | 324 | 4 |
| 2010-01-13T11:56 | 5223 | 543 | -0.9 | -1.3 | 322 | 4 |
| 2010-01-13T11:57 | 5263 | 541 | -1.1 | -1.3 | 317 | 5 |
| 2010-01-13T11:57 | 5304 | 538 | -0.9 | -1.6 | 312 | 5 |
| 2010-01-13T11:57 | 5344 | 535 | -1.1 | -1.8 | 310 | 5 |
| 2010-01-13T11:57 | 5383 | 533 | -1.4 | -2.0 | 310 | 4 |
| 2010-01-13T11:57 | 5426 | 530 | -1.6 | -2.4 | 313 | 4 |
| 2010-01-13T11:57 | 5471 | 527 | -1.9 | -2.5 | 321 | 3 |
| 2010-01-13T11:58 | 5514 | 524 | -2.0 | -2.7 | 331 | 3 |
| 2010-01-13T11:58 | 5557 | 521 | -2.3 | -2.9 | 336 | 3 |
| 2010-01-13T11:58 | 5597 | 519 | -2.6 | -3.0 | 334 | 3 |
| 2010-01-13T11:58 | 5638 | 516 | -2.7 | -3.6 | 325 | 3 |
| 2010-01-13T11:58 | 5678 | 513 | -2.9 | -3.7 | 316 | 3 |
| 2010-01-13T11:58 | 5719 | 511 | -2.8 | -3.8 | 314 | 4 |
| 2010-01-13T11:59 | 5768 | 507 | -3.0 | -4.0 | 316 | 4 |
| 2010-01-13T11:59 | 5810 | 505 | -3.3 | -4.3 | 319 | 4 |
| 2010-01-13T11:59 | 5850 | 502 | -3.6 | -4.5 | 324 | 4 |
| 2010-01-13T11:59 | 5890 | 500 | -3.6 | -5.0 | 328 | 5 |
| 2010-01-13T11:59 | 5931 | 497 | -3.8 | -5.2 | 330 | 5 |
| 2010-01-13T11:59 | 5973 | 494 | -4.1 | -5.3 | 330 | 5 |
| 2010-01-13T12:00 | 6013 | 492 | -4.4 | -5.5 | 326 | 4 |
| 2010-01-13T12:00 | 6053 | 489 | -4.6 | -5.8 | 323 | 4 |
| 2010-01-13T12:00 | 6094 | 487 | -4.7 | -6.5 | 322 | 5 |
| 2010-01-13T12:00 | 6137 | 484 | -4.8 | -6.7 | 324 | 5 |
| 2010-01-13T12:00 | 6181 | 482 | -5.2 | -6.9 | 324 | 6 |
| 2010-01-13T12:00 | 6225 | 479 | -5.5 | -7.0 | 321 | 6 |
| 2010-01-13T12:01 | 6272 | 476 | -5.6 | -7.3 | 316 | 6 |
| 2010-01-13T12:01 | 6320 | 473 | -5.8 | -7.7 | 313 | 6 |
| 2010-01-13T12:01 | 6368 | 470 | -6.1 | -8.1 | 313 | 6 |
| 2010-01-13T12:01 | 6418 | 467 | -6.2 | -8.5 | 313 | 7 |
| 2010-01-13T12:01 | 6476 | 464 | -6.5 | -8.7 | 313 | 7 |
| 2010-01-13T12:01 | 6541 | 460 | -6.8 | -9.2 | 312 | 7 |
| 2010-01-13T12:02 | 6601 | 456 | -7.2 | -9.5 | 309 | 6 |
| 2010-01-13T12:02 | 6657 | 453 | -7.4 | -9.8 | 306 | 6 |
| 2010-01-13T12:02 | 6724 | 449 | -8.0 | -10.2 | 304 | 6 |
| 2010-01-13T12:02 | 6778 | 446 | -8.3 | -10.4 | 299 | 6 |
| 2010-01-13T12:02 | 6838 | 443 | -8.6 | -10.7 | 295 | 6 |
| 2010-01-13T12:02 | 6897 | 439 | -9.1 | -10.8 | 290 | 5 |
| 2010-01-13T12:03 | 6956 | 436 | -9.3 | -11.2 | 286 | 5 |
| 2010-01-13T12:03 | 7018 | 433 | -9.8 | -11.5 | 284 | 5 |
| 2010-01-13T12:03 | 7073 | 430 | -10.2 | -11.7 | 287 | 4 |
| 2010-01-13T12:03 | 7124 | 427 | -10.5 | -12.1 | 291 | 3 |
| 2010-01-13T12:03 | 7182 | 424 | -10.9 | -12.3 | 295 | 3 |
| 2010-01-13T12:03 | 7235 | 421 | -11.2 | -12.7 | 302 | 3 |
| 2010-01-13T12:04 | 7298 | 417 | -11.6 | -12.9 | 311 | 2 |
| 2010-01-13T12:04 | 7356 | 414 | -12.1 | -13.1 | 324 | 2 |
| 2010-01-13T12:04 | 7414 | 411 | -12.3 | -13.5 | 345 | 1 |
| 2010-01-13T12:04 | 7476 | 408 | -12.7 | -13.9 | 4 | 1 |
| 2010-01-13T12:04 | 7531 | 405 | -13.0 | -14.2 | 17 | 2 |
| 2010-01-13T12:04 | 7585 | 402 | -13.3 | -14.4 | 22 | 1 |
| 2010-01-13T12:05 | 7636 | 399 | -13.6 | -14.8 | 12 | 1 |
| 2010-01-13T12:05 | 7694 | 396 | -14.0 | -15.2 | 333 | 0 |
| 2010-01-13T12:05 | 7756 | 393 | -14.4 | -15.7 | 307 | 1 |
| 2010-01-13T12:05 | 7808 | 390 | -14.7 | -16.0 | 310 | 1 |
| 2010-01-13T12:05 | 7862 | 387 | -15.1 | -16.3 | 321 | 1 |
| 2010-01-13T12:05 | 7920 | 384 | -15.4 | -16.7 | 324 | 1 |
| 2010-01-13T12:06 | 7983 | 381 | -15.8 | -17.2 | 316 | 1 |
| 2010-01-13T12:06 | 8037 | 379 | -16.1 | -17.6 | 317 | 1 |
| 2010-01-13T12:06 | 8111 | 375 | -16.6 | -18.1 | 326 | 1 |
| 2010-01-13T12:06 | 8172 | 372 | -17.1 | -18.3 | 342 | 0 |
| 2010-01-13T12:06 | 8236 | 369 | -17.6 | -18.4 | 0 | 0 |
| 2010-01-13T12:06 | 8287 | 366 | -17.9 | -18.7 | 57 | 0 |
| 2010-01-13T12:07 | 8342 | 363 | -18.2 | -19.2 | 45 | 1 |
| 2010-01-13T12:07 | 8393 | 361 | -18.5 | -19.7 | 34 | 1 |
| 2010-01-13T12:07 | 8454 | 358 | -18.9 | -20.3 | 27 | 1 |
| 2010-01-13T12:07 | 8513 | 355 | -19.3 | -20.8 | 25 | 0 |
| 2010-01-13T12:07 | 8573 | 352 | -19.7 | -21.1 | 28 | 0 |
| 2010-01-13T12:07 | 8630 | 350 | -20.1 | -21.7 | 35 | 1 |
| 2010-01-13T12:08 | 8687 | 347 | -20.5 | -21.9 | 41 | 1 |
| 2010-01-13T12:08 | 8742 | 344 | -20.9 | -22.3 | 41 | 1 |
| 2010-01-13T12:08 | 8792 | 342 | -21.2 | -22.7 | 38 | 1 |
| 2010-01-13T12:08 | 8840 | 340 | -21.5 | -23.1 | 41 | 1 |
| 2010-01-13T12:08 | 8885 | 338 | -21.9 | -23.7 | 52 | 1 |
| 2010-01-13T12:08 | 8931 | 336 | -22.3 | -24.4 | 65 | 1 |
| 2010-01-13T12:09 | 8975 | 334 | -22.6 | -24.8 | 71 | 1 |
| 2010-01-13T12:09 | 9020 | 332 | -23.0 | -25.5 | 69 | 1 |
| 2010-01-13T12:09 | 9065 | 330 | -23.3 | -25.3 | 65 | 1 |
| 2010-01-13T12:09 | 9109 | 328 | -23.6 | -25.6 | 60 | 2 |
| 2010-01-13T12:09 | 9155 | 326 | -24.0 | -26.4 | 52 | 2 |
| 2010-01-13T12:09 | 9200 | 324 | -24.4 | -26.7 | 45 | 2 |
| 2010-01-13T12:10 | 9244 | 322 | -24.7 | -26.8 | 44 | 2 |
| 2010-01-13T12:10 | 9287 | 320 | -25.0 | -27.0 | 49 | 2 |
| 2010-01-13T12:10 | 9331 | 318 | -25.4 | -27.4 | 60 | 2 |
| 2010-01-13T12:10 | 9373 | 316 | -25.6 | -27.9 | 69 | 2 |
| 2010-01-13T12:10 | 9417 | 314 | -26.0 | -28.6 | 72 | 2 |
| 2010-01-13T12:10 | 9459 | 312 | -26.3 | -28.7 | 71 | 1 |
| 2010-01-13T12:11 | 9501 | 310 | -26.6 | -29.1 | 66 | 1 |
| 2010-01-13T12:11 | 9543 | 309 | -27.0 | -29.5 | 58 | 1 |
| 2010-01-13T12:11 | 9584 | 307 | -27.3 | -29.7 | 51 | 1 |
| 2010-01-13T12:11 | 9625 | 305 | -27.7 | -30.0 | 48 | 1 |
| 2010-01-13T12:11 | 9665 | 303 | -28.0 | -30.6 | 49 | 1 |
| 2010-01-13T12:11 | 9702 | 302 | -28.3 | -30.8 | 54 | 1 |
| 2010-01-13T12:12 | 9742 | 300 | -28.6 | -31.0 | 63 | 1 |
| 2010-01-13T12:12 | 9784 | 298 | -28.9 | -31.3 | 74 | 1 |
| 2010-01-13T12:12 | 9824 | 297 | -29.3 | -31.5 | 86 | 1 |
| 2010-01-13T12:12 | 9864 | 295 | -29.6 | -31.9 | 92 | 1 |
| 2010-01-13T12:12 | 9904 | 293 | -29.9 | -32.3 | 88 | 1 |
| 2010-01-13T12:12 | 9945 | 292 | -30.2 | -33.1 | 82 | 1 |
| 2010-01-13T12:13 | 9986 | 290 | -30.5 | -33.2 | 83 | 1 |
| 2010-01-13T12:13 | 10026 | 288 | -30.9 | -33.7 | 86 | 1 |
| 2010-01-13T12:13 | 10065 | 287 | -31.2 | -34.1 | 90 | 1 |
| 2010-01-13T12:13 | 10105 | 285 | -31.5 | -34.6 | 96 | 1 |
| 2010-01-13T12:13 | 10144 | 284 | -31.9 | -34.9 | 102 | 1 |
| 2010-01-13T12:13 | 10185 | 282 | -32.2 | -35.2 | 105 | 1 |
| 2010-01-13T12:14 | 10225 | 280 | -32.6 | -35.5 | 105 | 1 |
| 2010-01-13T12:14 | 10264 | 279 | -32.9 | -35.7 | 107 | 1 |
| 2010-01-13T12:14 | 10303 | 277 | -33.3 | -36.0 | 114 | 1 |
| 2010-01-13T12:14 | 10344 | 276 | -33.6 | -36.4 | 123 | 1 |
| 2010-01-13T12:14 | 10383 | 274 | -33.9 | -36.7 | 131 | 1 |
| 2010-01-13T12:14 | 10424 | 273 | -34.2 | -37.0 | 135 | 1 |
| 2010-01-13T12:15 | 10464 | 271 | -34.5 | -37.4 | 134 | 2 |
| 2010-01-13T12:15 | 10505 | 269 | -34.8 | -37.9 | 131 | 2 |
| 2010-01-13T12:15 | 10547 | 268 | -35.2 | -38.0 | 129 | 2 |
| 2010-01-13T12:15 | 10588 | 266 | -35.5 | -38.4 | 134 | 2 |
| 2010-01-13T12:15 | 10630 | 265 | -36.0 | -38.7 | 143 | 2 |
| 2010-01-13T12:15 | 10671 | 263 | -36.3 | -39.1 | 153 | 2 |
| 2010-01-13T12:16 | 10712 | 262 | -36.6 | -39.4 | 161 | 2 |
| 2010-01-13T12:16 | 10754 | 260 | -37.0 | -39.8 | 167 | 3 |
| 2010-01-13T12:16 | 10794 | 258 | -37.3 | -40.2 | 172 | 3 |
| 2010-01-13T12:16 | 10835 | 257 | -37.7 | -40.5 | 178 | 3 |
| 2010-01-13T12:16 | 10876 | 255 | -38.0 | -40.9 | 180 | 3 |
| 2010-01-13T12:16 | 10918 | 254 | -38.4 | -41.3 | 179 | 3 |
| 2010-01-13T12:17 | 10960 | 252 | -38.8 | -41.6 | 176 | 3 |
| 2010-01-13T12:17 | 11001 | 251 | -39.1 | -42.0 | 175 | 3 |
| 2010-01-13T12:17 | 11041 | 249 | -39.5 | -42.5 | 175 | 3 |
| 2010-01-13T12:17 | 11080 | 248 | -39.9 | -43.7 | 173 | 4 |
| 2010-01-13T12:17 | 11120 | 246 | -40.2 | -44.2 | 171 | 4 |
| 2010-01-13T12:17 | 11159 | 245 | -40.6 | -44.6 | 170 | 4 |
| 2010-01-13T12:18 | 11200 | 244 | -41.0 | -45.0 | 171 | 4 |
| 2010-01-13T12:18 | 11240 | 242 | -41.3 | -45.2 | 175 | 3 |
| 2010-01-13T12:18 | 11282 | 241 | -41.7 | -45.6 | 178 | 3 |
| 2010-01-13T12:18 | 11322 | 239 | -42.1 | -45.9 | 177 | 3 |
| 2010-01-13T12:18 | 11363 | 238 | -42.5 | -46.1 | 175 | 3 |
| 2010-01-13T12:18 | 11403 | 236 | -42.8 | -46.3 | 175 | 3 |
| 2010-01-13T12:19 | 11444 | 235 | -43.2 | -46.7 | 177 | 3 |
| 2010-01-13T12:19 | 11486 | 234 | -43.6 | -47.5 | 178 | 3 |
| 2010-01-13T12:19 | 11526 | 232 | -44.0 | -48.0 | 176 | 3 |
| 2010-01-13T12:19 | 11567 | 231 | -44.3 | -48.4 | 168 | 3 |
| 2010-01-13T12:19 | 11609 | 229 | -44.5 | -49.2 | 158 | 3 |
| 2010-01-13T12:19 | 11652 | 228 | -44.9 | -49.7 | 148 | 3 |
| 2010-01-13T12:20 | 11693 | 226 | -45.3 | -50.0 | 142 | 3 |
| 2010-01-13T12:20 | 11733 | 225 | -45.6 | -50.3 | 140 | 3 |
| 2010-01-13T12:20 | 11772 | 224 | -45.9 | -50.7 | 136 | 3 |
| 2010-01-13T12:20 | 11812 | 222 | -46.3 | -51.0 | 129 | 3 |
| 2010-01-13T12:20 | 11850 | 221 | -46.6 | -51.4 | 122 | 4 |
| 2010-01-13T12:20 | 11895 | 220 | -47.0 | -51.6 | 118 | 4 |
| 2010-01-13T12:21 | 11936 | 218 | -47.4 | -51.7 | 116 | 4 |
| 2010-01-13T12:21 | 11978 | 217 | -47.7 | -51.8 | 114 | 4 |
| 2010-01-13T12:21 | 12019 | 216 | -48.1 | -52.0 | 113 | 5 |
| 2010-01-13T12:21 | 12061 | 214 | -48.5 | -52.2 | 112 | 5 |
| 2010-01-13T12:21 | 12106 | 213 | -48.9 | -52.3 | 111 | 5 |
| 2010-01-13T12:21 | 12152 | 211 | -49.3 | -52.4 | 111 | 6 |
| 2010-01-13T12:22 | 12191 | 210 | -49.7 | -52.6 | 109 | 6 |
| 2010-01-13T12:22 | 12230 | 209 | -50.0 | -52.9 | 108 | 6 |
| 2010-01-13T12:22 | 12269 | 207 | -50.4 | -53.3 | 108 | 6 |
| 2010-01-13T12:22 | 12309 | 206 | -50.7 | -53.9 | 111 | 6 |
| 2010-01-13T12:22 | 12348 | 205 | -51.0 | -54.4 | 114 | 6 |
| 2010-01-13T12:22 | 12387 | 204 | -51.4 | -54.8 | 115 | 6 |
| 2010-01-13T12:23 | 12428 | 202 | -51.7 | -55.2 | 114 | 6 |
| 2010-01-13T12:23 | 12470 | 201 | -52.0 | -55.8 | 112 | 6 |
| 2010-01-13T12:23 | 12511 | 200 | -52.4 | -56.6 | 111 | 7 |
| 2010-01-13T12:23 | 12552 | 199 | -52.6 | -57.5 | 110 | 7 |
| 2010-01-13T12:23 | 12595 | 197 | -52.8 | -58.2 | 109 | 7 |
| 2010-01-13T12:23 | 12639 | 196 | -53.1 | -59.0 | 107 | 7 |
| 2010-01-13T12:24 | 12690 | 194 | -53.4 | -59.7 | 105 | 8 |
| 2010-01-13T12:24 | 12737 | 193 | -53.8 | -60.2 | 103 | 9 |
| 2010-01-13T12:24 | 12784 | 192 | -54.2 | -60.6 | 101 | 10 |
| 2010-01-13T12:24 | 12828 | 190 | -54.5 | -60.8 | 100 | 10 |
| 2010-01-13T12:24 | 12871 | 189 | -54.9 | -61.0 | 100 | 11 |
| 2010-01-13T12:24 | 12915 | 188 | -55.3 | -61.3 | 99 | 11 |
| 2010-01-13T12:25 | 12958 | 186 | -55.7 | -61.5 | 98 | 11 |
| 2010-01-13T12:25 | 13001 | 185 | -56.1 | -61.7 | 96 | 12 |
| 2010-01-13T12:25 | 13043 | 184 | -56.5 | -62.0 | 95 | 12 |
| 2010-01-13T12:25 | 13087 | 183 | -56.9 | -62.3 | 94 | 12 |
| 2010-01-13T12:25 | 13131 | 181 | -57.3 | -62.5 | 92 | 13 |
| 2010-01-13T12:25 | 13176 | 180 | -57.6 | -62.9 | 90 | 13 |
| 2010-01-13T12:26 | 13220 | 179 | -58.0 | -63.3 | 89 | 14 |
| 2010-01-13T12:26 | 13270 | 177 | -58.5 | -63.8 | 89 | 14 |
| 2010-01-13T12:26 | 13312 | 176 | -58.9 | -64.2 | 89 | 15 |
| 2010-01-13T12:26 | 13353 | 175 | -59.2 | -64.6 | 89 | 15 |
| 2010-01-13T12:26 | 13394 | 174 | -59.5 | -64.9 | 90 | 15 |
| 2010-01-13T12:26 | 13435 | 173 | -59.9 | -65.3 | 90 | 16 |
| 2010-01-13T12:27 | 13474 | 172 | -60.2 | -65.8 | 90 | 16 |
| 2010-01-13T12:27 | 13515 | 171 | -60.6 | -66.2 | 91 | 16 |
| 2010-01-13T12:27 | 13555 | 170 | -61.0 | -66.5 | 92 | 16 |
| 2010-01-13T12:27 | 13596 | 168 | -61.3 | -66.8 | 93 | 16 |
| 2010-01-13T12:27 | 13636 | 167 | -61.7 | -67.0 | 93 | 16 |
| 2010-01-13T12:27 | 13676 | 166 | -62.0 | -67.3 | 93 | 16 |
| 2010-01-13T12:28 | 13714 | 165 | -62.4 | -67.6 | 93 | 17 |
| 2010-01-13T12:28 | 13755 | 164 | -62.7 | -67.9 | 92 | 17 |
| 2010-01-13T12:28 | 13796 | 163 | -63.1 | -68.2 | 91 | 18 |
| 2010-01-13T12:28 | 13840 | 162 | -63.5 | -68.7 | 91 | 18 |
| 2010-01-13T12:28 | 13877 | 161 | -63.9 | -69.1 | 91 | 18 |
| 2010-01-13T12:28 | 13920 | 160 | -64.3 | -69.5 | 91 | 18 |
| 2010-01-13T12:29 | 13962 | 159 | -64.7 | -69.8 | 91 | 18 |
| 2010-01-13T12:29 | 14006 | 158 | -65.1 | -70.2 | 90 | 18 |
| 2010-01-13T12:29 | 14049 | 156 | -65.6 | -70.6 | 89 | 18 |
| 2010-01-13T12:29 | 14096 | 155 | -65.9 | -71.1 | 88 | 18 |
| 2010-01-13T12:29 | 14174 | 153 | -66.3 | -71.6 | 88 | 20 |
| 2010-01-13T12:29 | 14238 | 152 | -66.9 | -72.2 | 89 | 21 |
| 2010-01-13T12:30 | 14286 | 150 | -67.3 | -72.6 | 89 | 22 |
| 2010-01-13T12:30 | 14343 | 149 | -67.9 | -73.1 | 89 | 22 |
| 2010-01-13T12:30 | 14402 | 148 | -68.5 | -73.6 | 88 | 22 |
| 2010-01-13T12:30 | 14460 | 146 | -69.1 | -74.1 | 87 | 22 |
| 2010-01-13T12:30 | 14512 | 145 | -69.6 | -74.4 | 86 | 22 |
| 2010-01-13T12:30 | 14577 | 143 | -70.2 | -74.9 | 85 | 22 |
| 2010-01-13T12:31 | 14642 | 142 | -70.8 | -75.3 | 84 | 22 |
| 2010-01-13T12:31 | 14721 | 140 | -71.6 | -75.8 | 83 | 23 |
| 2010-01-13T12:31 | 14787 | 138 | -72.2 | -76.3 | 82 | 24 |
| 2010-01-13T12:31 | 14837 | 137 | -72.3 | -76.3 | 81 | 25 |
| 2010-01-13T12:31 | 14879 | 136 | -72.7 | -76.3 | 81 | 26 |
| 2010-01-13T12:31 | 14918 | 135 | -72.9 | -76.4 | 81 | 26 |
| 2010-01-13T12:32 | 14959 | 134 | -73.2 | -76.6 | 81 | 26 |
| 2010-01-13T12:32 | 14995 | 133 | -73.5 | -76.8 | 81 | 26 |
| 2010-01-13T12:32 | 15032 | 133 | -73.8 | -77.1 | 81 | 27 |
| 2010-01-13T12:32 | 15070 | 132 | -74.1 | -77.3 | 81 | 27 |
| 2010-01-13T12:32 | 15109 | 131 | -74.4 | -77.7 | 82 | 27 |
| 2010-01-13T12:32 | 15148 | 130 | -74.7 | -78.1 | 82 | 27 |
| 2010-01-13T12:33 | 15187 | 129 | -75.0 | -78.5 | 82 | 27 |
| 2010-01-13T12:33 | 15226 | 128 | -75.4 | -78.9 | 82 | 27 |
| 2010-01-13T12:33 | 15269 | 127 | -75.8 | -79.3 | 82 | 27 |
| 2010-01-13T12:33 | 15311 | 126 | -76.2 | -79.8 | 81 | 27 |
| 2010-01-13T12:33 | 15355 | 125 | -76.6 | -80.2 | 82 | 28 |
| 2010-01-13T12:33 | 15399 | 125 | -77.0 | -80.7 | 82 | 28 |
| 2010-01-13T12:34 | 15441 | 124 | -77.4 | -81.1 | 82 | 29 |
| 2010-01-13T12:34 | 15487 | 123 | -77.8 | -81.5 | 83 | 29 |
| 2010-01-13T12:34 | 15536 | 122 | -78.3 | -81.9 | 84 | 30 |
| 2010-01-13T12:34 | 15588 | 120 | -78.7 | -82.4 | 85 | 30 |
| 2010-01-13T12:34 | 15637 | 119 | -79.2 | -82.9 | 86 | 31 |
| 2010-01-13T12:34 | 15687 | 118 | -79.6 | -83.4 | 87 | 32 |
| 2010-01-13T12:35 | 15732 | 117 | -80.0 | -83.8 | 88 | 32 |
| 2010-01-13T12:35 | 15776 | 117 | -80.2 | -84.0 | 89 | 32 |
| 2010-01-13T12:35 | 15818 | 116 | -80.6 | -84.4 | 89 | 32 |
| 2010-01-13T12:35 | 15863 | 115 | -81.0 | -84.8 | 89 | 31 |
| 2010-01-13T12:35 | 15906 | 114 | -81.4 | -85.2 | 89 | 31 |
| 2010-01-13T12:35 | 15950 | 113 | -81.7 | -85.6 | 87 | 31 |
| 2010-01-13T12:36 | 15994 | 112 | -81.9 | -85.8 | 85 | 31 |
| 2010-01-13T12:36 | 16039 | 111 | -82.2 | -86.0 | 83 | 30 |
| 2010-01-13T12:36 | 16082 | 110 | -82.4 | -86.2 | 81 | 30 |
| 2010-01-13T12:36 | 16126 | 109 | -82.7 | -86.6 | 80 | 30 |
| 2010-01-13T12:36 | 16170 | 109 | -83.0 | -86.8 | 78 | 30 |
| 2010-01-13T12:36 | 16214 | 108 | -83.3 | -87.1 | 77 | 30 |
| 2010-01-13T12:37 | 16256 | 107 | -83.7 | -87.5 | 76 | 30 |
| 2010-01-13T12:37 | 16297 | 106 | -84.0 | -87.9 | 75 | 30 |
| 2010-01-13T12:37 | 16337 | 105 | -84.4 | -88.3 | 75 | 30 |
| 2010-01-13T12:37 | 16378 | 105 | -84.7 | -88.7 | 74 | 30 |
| 2010-01-13T12:37 | 16419 | 104 | -85.1 | -89.0 | 73 | 30 |
| 2010-01-13T12:37 | 16459 | 103 | -85.1 | -89.1 | 72 | 31 |
| 2010-01-13T12:38 | 16500 | 102 | -85.2 | -89.2 | 72 | 32 |
| 2010-01-13T12:38 | 16542 | 102 | -85.5 | -89.4 | 73 | 32 |
| 2010-01-13T12:38 | 16583 | 101 | -85.7 | -89.7 | 72 | 33 |
| 2010-01-13T12:38 | 16625 | 100 | -86.0 | -90.0 | 72 | 33 |
| 2010-01-13T12:38 | 16664 | 99 | -86.4 | -90.4 | 72 | 33 |
| 2010-01-13T12:38 | 16705 | 99 | -86.6 | -90.6 | 73 | 33 |
| 2010-01-13T12:39 | 16746 | 98 | -86.7 | -90.7 | 73 | 33 |
| 2010-01-13T12:39 | 16788 | 97 | -86.8 | -90.8 | 73 | 34 |
| 2010-01-13T12:39 | 16830 | 96 | -86.4 | -90.5 | 75 | 33 |
| 2010-01-13T12:39 | 16870 | 96 | -85.5 | -89.6 | 76 | 31 |
| 2010-01-13T12:39 | 16911 | 95 | -84.6 | -88.8 | 77 | 30 |
| 2010-01-13T12:39 | 16951 | 94 | -84.5 | -88.6 | 79 | 29 |
| 2010-01-13T12:40 | 16993 | 94 | -84.5 | -88.6 | 81 | 28 |
| 2010-01-13T12:40 | 17032 | 93 | -84.6 | -88.7 | 83 | 27 |
| 2010-01-13T12:40 | 17074 | 92 | -84.5 | -88.7 | 83 | 26 |
| 2010-01-13T12:40 | 17113 | 92 | -83.7 | -87.9 | 81 | 25 |
| 2010-01-13T12:40 | 17155 | 91 | -83.3 | -87.5 | 78 | 23 |
| 2010-01-13T12:40 | 17197 | 90 | -83.4 | -87.7 | 74 | 21 |
| 2010-01-13T12:41 | 17241 | 89 | -82.6 | -86.9 | 70 | 19 |
| 2010-01-13T12:41 | 17287 | 89 | -80.4 | -85.0 | 65 | 16 |
| 2010-01-13T12:41 | 17332 | 88 | -80.6 | -85.1 | 62 | 13 |
| 2010-01-13T12:41 | 17372 | 87 | -79.5 | -84.3 | 61 | 11 |
| 2010-01-13T12:41 | 17414 | 87 | -79.3 | -84.1 | 63 | 9 |
| 2010-01-13T12:41 | 17458 | 86 | -79.0 | -83.9 | 67 | 7 |
| 2010-01-13T12:42 | 17501 | 85 | -79.0 | -84.0 | 69 | 5 |
| 2010-01-13T12:42 | 17551 | 85 | -78.6 | -83.8 | 62 | 2 |
| 2010-01-13T12:42 | 17611 | 84 | -78.0 | -83.3 | 307 | 1 |
| 2010-01-13T12:42 | 17655 | 83 | -77.6 | -83.1 | 270 | 3 |
| 2010-01-13T12:42 | 17697 | 83 | -77.5 | -83.1 | 266 | 4 |
| 2010-01-13T12:42 | 17737 | 82 | -77.6 | -83.4 | 269 | 4 |
| 2010-01-13T12:43 | 17779 | 81 | -77.8 | -83.8 | 276 | 4 |
| 2010-01-13T12:43 | 17821 | 81 | -77.8 | -84.0 | 282 | 3 |
| 2010-01-13T12:43 | 17864 | 80 | -77.6 | -83.9 | 284 | 3 |
| 2010-01-13T12:43 | 17907 | 80 | -77.4 | -83.8 | 283 | 3 |
| 2010-01-13T12:43 | 17948 | 79 | -77.6 | -84.2 | 282 | 4 |
| 2010-01-13T12:43 | 17990 | 78 | -77.7 | -84.4 | 284 | 5 |
| 2010-01-13T12:44 | 18031 | 78 | -77.6 | -84.4 | 284 | 5 |
| 2010-01-13T12:44 | 18073 | 77 | -77.5 | -84.5 | 279 | 5 |
| 2010-01-13T12:44 | 18113 | 77 | -77.5 | -84.6 | 272 | 6 |
| 2010-01-13T12:44 | 18154 | 76 | -77.7 | -84.9 | 266 | 7 |
| 2010-01-13T12:44 | 18195 | 76 | -77.9 | -85.2 | 262 | 7 |
| 2010-01-13T12:44 | 18236 | 75 | -78.0 | -85.4 | 261 | 7 |
| 2010-01-13T12:45 | 18275 | 75 | -78.3 | -85.8 | 263 | 7 |
| 2010-01-13T12:45 | 18316 | 74 | -78.6 | -86.2 | 265 | 7 |
| 2010-01-13T12:45 | 18359 | 74 | -78.8 | -86.5 | 267 | 6 |
| 2010-01-13T12:45 | 18399 | 73 | -79.1 | -86.8 | 270 | 6 |
| 2010-01-13T12:45 | 18440 | 72 | -79.2 | -86.9 | 273 | 5 |
| 2010-01-13T12:45 | 18482 | 72 | -79.2 | -87.0 | 275 | 5 |
| 2010-01-13T12:46 | 18525 | 71 | -79.2 | -87.0 | 273 | 5 |
| 2010-01-13T12:46 | 18568 | 71 | -79.1 | -87.0 | 270 | 4 |
| 2010-01-13T12:46 | 18610 | 70 | -78.9 | -86.9 | 269 | 4 |
| 2010-01-13T12:46 | 18651 | 70 | -78.1 | -86.3 | 272 | 3 |
| 2010-01-13T12:46 | 18693 | 69 | -77.7 | -86.0 | 285 | 3 |
| 2010-01-13T12:46 | 18735 | 69 | -77.5 | -85.8 | 304 | 3 |
| 2010-01-13T12:47 | 18780 | 68 | -76.8 | -85.2 | 318 | 3 |
| 2010-01-13T12:47 | 18825 | 68 | -76.3 | -84.9 | 319 | 2 |
| 2010-01-13T12:47 | 18867 | 67 | -75.9 | -84.6 | 313 | 2 |
| 2010-01-13T12:47 | 18910 | 67 | -75.8 | -84.6 | 308 | 2 |
| 2010-01-13T12:47 | 18955 | 66 | -75.8 | -84.8 | 310 | 2 |
| 2010-01-13T12:47 | 18996 | 66 | -75.9 | -84.9 | 313 | 2 |
| 2010-01-13T12:48 | 19039 | 65 | -75.6 | -84.8 | 303 | 2 |
| 2010-01-13T12:48 | 19082 | 65 | -75.6 | -84.9 | 293 | 2 |
| 2010-01-13T12:48 | 19123 | 64 | -75.5 | -85.0 | 291 | 2 |
| 2010-01-13T12:48 | 19166 | 64 | -75.3 | -84.9 | 291 | 2 |
| 2010-01-13T12:48 | 19208 | 63 | -74.8 | -84.6 | 286 | 2 |
| 2010-01-13T12:48 | 19249 | 63 | -74.3 | -84.3 | 270 | 2 |
| 2010-01-13T12:49 | 19290 | 63 | -73.5 | -83.8 | 249 | 3 |
| 2010-01-13T12:49 | 19331 | 62 | -73.0 | -83.5 | 235 | 3 |
| 2010-01-13T12:49 | 19373 | 62 | -72.9 | -83.5 | 231 | 4 |
| 2010-01-13T12:49 | 19414 | 61 | -73.0 | -83.7 | 228 | 4 |
| 2010-01-13T12:49 | 19456 | 61 | -73.1 | -84.0 | 224 | 5 |
| 2010-01-13T12:49 | 19499 | 60 | -73.2 | -84.3 | 219 | 5 |
| 2010-01-13T12:50 | 19541 | 60 | -73.1 | -84.4 | 216 | 6 |
| 2010-01-13T12:50 | 19583 | 59 | -73.2 | -84.6 | 215 | 6 |
| 2010-01-13T12:50 | 19624 | 59 | -72.8 | -84.5 | 213 | 5 |
| 2010-01-13T12:50 | 19666 | 59 | -72.4 | -84.3 | 215 | 5 |
| 2010-01-13T12:50 | 19707 | 58 | -71.4 | -83.6 | 223 | 5 |
| 2010-01-13T12:50 | 19751 | 58 | -70.2 | -82.9 | 234 | 5 |
| 2010-01-13T12:51 | 19795 | 57 | -69.3 | -82.2 | 239 | 5 |
| 2010-01-13T12:51 | 19841 | 57 | -69.1 | -82.3 | 237 | 4 |
| 2010-01-13T12:51 | 19885 | 57 | -68.7 | -82.2 | 238 | 4 |
| 2010-01-13T12:51 | 19931 | 56 | -68.4 | -82.2 | 251 | 3 |
| 2010-01-13T12:51 | 19977 | 56 | -67.8 | -82.1 | 274 | 3 |
| 2010-01-13T12:51 | 20022 | 55 | -67.2 | -81.9 | 293 | 4 |
| 2010-01-13T12:52 | 20070 | 55 | -67.2 | -82.3 | 304 | 5 |
| 2010-01-13T12:52 | 20116 | 54 | -67.4 | -82.8 | 309 | 6 |
| 2010-01-13T12:52 | 20163 | 54 | -67.6 | -83.2 | 309 | 7 |
| 2010-01-13T12:52 | 20208 | 54 | -67.4 | -83.4 | 307 | 9 |
| 2010-01-13T12:52 | 20253 | 53 | -67.2 | -83.6 | 306 | 10 |
| 2010-01-13T12:52 | 20298 | 53 | -67.2 | -83.8 | 305 | 11 |
| 2010-01-13T12:53 | 20345 | 52 | -67.3 | -84.2 | 304 | 11 |
| 2010-01-13T12:53 | 20388 | 52 | -67.4 | -84.5 | 304 | 11 |
| 2010-01-13T12:53 | 20432 | 52 | -67.5 | -84.9 | 304 | 10 |
| 2010-01-13T12:53 | 20477 | 51 | -67.8 | -85.4 | 306 | 10 |
| 2010-01-13T12:53 | 20521 | 51 | -68.1 | -85.9 | 309 | 10 |
| 2010-01-13T12:53 | 20567 | 50 | -68.2 | -86.2 | 313 | 10 |
| 2010-01-13T12:54 | 20610 | 50 | -68.3 | -86.4 | 315 | 10 |
| 2010-01-13T12:54 | 20659 | 50 | -68.6 | -86.9 | 316 | 10 |
| 2010-01-13T12:54 | 20702 | 49 | -68.8 | -87.2 | 313 | 9 |
| 2010-01-13T12:54 | 20747 | 49 | -68.8 | -87.3 | 309 | 8 |
| 2010-01-13T12:54 | 20793 | 49 | -68.5 | -87.2 | 307 | 7 |
| 2010-01-13T12:54 | 20837 | 48 | -68.5 | -86.9 | 308 | 6 |
| 2010-01-13T12:55 | 20883 | 48 | -68.4 | -87.0 | 315 | 5 |
| 2010-01-13T12:55 | 20929 | 47 | -68.4 | -87.0 | 325 | 4 |
| 2010-01-13T12:55 | 20975 | 47 | -68.6 | -87.3 | 335 | 3 |
| 2010-01-13T12:55 | 21022 | 47 | -68.8 | -87.7 | 349 | 2 |
| 2010-01-13T12:55 | 21068 | 46 | -68.8 | -87.8 | 11 | 1 |
| 2010-01-13T12:55 | 21113 | 46 | -68.8 | -87.8 | 59 | 0 |
| 2010-01-13T12:56 | 21156 | 46 | -68.6 | -87.8 | 185 | 1 |
| 2010-01-13T12:56 | 21203 | 45 | -68.4 | -87.9 | 200 | 2 |
| 2010-01-13T12:56 | 21249 | 45 | -68.4 | -88.0 | 204 | 4 |
| 2010-01-13T12:56 | 21293 | 45 | -68.7 | -88.2 | 205 | 6 |
| 2010-01-13T12:56 | 21341 | 44 | -69.0 | -88.5 | 204 | 7 |
| 2010-01-13T12:56 | 21386 | 44 | -69.3 | -88.9 | 203 | 8 |
| 2010-01-13T12:57 | 21430 | 44 | -69.4 | -88.9 | 200 | 9 |
| 2010-01-13T12:57 | 21478 | 43 | -69.5 | -89.2 | 199 | 10 |
| 2010-01-13T12:57 | 21524 | 43 | -69.8 | -89.4 | 196 | 9 |
| 2010-01-13T12:57 | 21572 | 43 | -69.2 | -89.1 | 189 | 7 |
| 2010-01-13T12:57 | 21616 | 42 | -68.8 | -88.7 | 176 | 5 |
| 2010-01-13T12:57 | 21664 | 42 | -68.1 | -88.3 | 160 | 4 |
| 2010-01-13T12:58 | 21709 | 42 | -67.6 | -88.0 | 149 | 4 |
| 2010-01-13T12:58 | 21756 | 41 | -67.6 | -88.1 | 144 | 4 |
| 2010-01-13T12:58 | 21803 | 41 | -67.7 | -88.2 | 138 | 5 |
| 2010-01-13T12:58 | 21849 | 41 | -67.7 | -88.4 | 134 | 6 |
| 2010-01-13T12:58 | 21895 | 40 | -67.8 | -88.5 | 131 | 7 |
| 2010-01-13T12:58 | 21943 | 40 | -67.9 | -88.6 | 128 | 7 |
| 2010-01-13T12:59 | 21991 | 40 | -67.6 | -88.5 | 122 | 8 |
| 2010-01-13T12:59 | 22037 | 39 | -67.4 | -88.3 | 116 | 9 |
| 2010-01-13T12:59 | 22085 | 39 | -67.4 | -88.3 | 115 | 10 |
| 2010-01-13T12:59 | 22133 | 39 | -67.1 | -88.1 | 117 | 12 |
| 2010-01-13T12:59 | 22180 | 39 | -67.1 | -88.2 | 118 | 12 |
| 2010-01-13T12:59 | 22228 | 38 | -66.9 | -88.1 | 114 | 13 |
| 2010-01-13T13:00 | 22276 | 38 | -66.7 | -88.0 | 106 | 13 |
| 2010-01-13T13:00 | 22324 | 38 | -66.2 | -87.7 | 98 | 14 |
| 2010-01-13T13:00 | 22369 | 37 | -65.9 | -87.5 | 94 | 15 |
| 2010-01-13T13:00 | 22416 | 37 | -66.0 | -87.6 | 93 | 15 |
| 2010-01-13T13:00 | 22461 | 37 | -65.6 | -87.4 | 93 | 16 |
| 2010-01-13T13:00 | 22506 | 37 | -64.6 | -86.9 | 93 | 16 |
| 2010-01-13T13:01 | 22552 | 36 | -64.6 | -86.8 | 91 | 16 |
| 2010-01-13T13:01 | 22597 | 36 | -64.3 | -86.8 | 91 | 16 |
| 2010-01-13T13:01 | 22642 | 36 | -62.5 | -85.9 | 91 | 16 |
| 2010-01-13T13:01 | 22688 | 35 | -61.7 | -85.4 | 93 | 17 |
| 2010-01-13T13:01 | 22733 | 35 | -60.4 | -84.6 | 96 | 19 |
| 2010-01-13T13:01 | 22777 | 35 | -59.6 | -84.0 | 98 | 21 |
| 2010-01-13T13:02 | 22826 | 35 | -59.5 | -84.1 | 99 | 22 |
| 2010-01-13T13:02 | 22875 | 34 | -59.4 | -84.4 | 99 | 23 |
| 2010-01-13T13:02 | 22920 | 34 | -59.6 | -84.8 | 98 | 23 |
| 2010-01-13T13:02 | 22970 | 34 | -59.8 | -85.3 | 98 | 23 |
| 2010-01-13T13:02 | 23016 | 34 | -59.9 | -85.6 | 96 | 23 |
| 2010-01-13T13:02 | 23064 | 33 | -59.9 | -86.1 | 94 | 23 |
| 2010-01-13T13:03 | 23112 | 33 | -59.9 | -86.5 | 91 | 23 |
| 2010-01-13T13:03 | 23161 | 33 | -60.0 | -86.8 | 90 | 24 |
| 2010-01-13T13:03 | 23210 | 33 | -60.1 | -87.2 | 89 | 24 |
| 2010-01-13T13:03 | 23255 | 32 | -59.7 | -87.4 | 88 | 25 |
| 2010-01-13T13:03 | 23304 | 32 | -60.0 | -87.8 | 87 | 26 |
| 2010-01-13T13:03 | 23353 | 32 | -60.0 | -88.2 | 86 | 27 |
| 2010-01-13T13:04 | 23399 | 32 | -60.2 | -88.6 | 85 | 27 |
| 2010-01-13T13:04 | 23448 | 31 | -60.2 | -88.9 | 83 | 28 |
| 2010-01-13T13:04 | 23495 | 31 | -59.5 | -88.9 | 82 | 28 |
| 2010-01-13T13:04 | 23542 | 31 | -59.1 | -88.9 | 81 | 29 |
| 2010-01-13T13:04 | 23589 | 31 | -59.0 | -89.1 | 81 | 30 |
| 2010-01-13T13:04 | 23637 | 30 | -59.2 | -89.3 | 82 | 30 |
| 2010-01-13T13:05 | 23685 | 30 | -59.1 | -89.6 | 83 | 30 |
| 2010-01-13T13:05 | 23731 | 30 | -59.3 | -89.8 | 84 | 30 |
| 2010-01-13T13:05 | 23784 | 30 | -59.6 | -90.1 | 85 | 31 |
| 2010-01-13T13:05 | 23831 | 30 | -59.8 | -90.4 | 84 | 31 |
| 2010-01-13T13:05 | 23883 | 29 | -59.7 | -90.5 | 84 | 31 |
| 2010-01-13T13:05 | 23934 | 29 | -60.1 | -90.6 | 83 | 31 |
| 2010-01-13T13:06 | 23983 | 29 | -60.1 | -90.8 | 84 | 31 |
| 2010-01-13T13:06 | 24030 | 29 | -60.3 | -91.1 | 85 | 30 |
| 2010-01-13T13:06 | 24081 | 28 | -60.7 | -91.3 | 86 | 30 |
| 2010-01-13T13:06 | 24130 | 28 | -61.0 | -91.6 | 86 | 31 |
| 2010-01-13T13:06 | 24177 | 28 | -60.8 | -91.4 | 85 | 31 |
| 2010-01-13T13:06 | 24228 | 28 | -60.6 | -91.3 | 85 | 32 |
| 2010-01-13T13:07 | 24276 | 27 | -60.5 | -91.2 | 84 | 32 |
| 2010-01-13T13:07 | 24324 | 27 | -60.1 | -90.9 | 83 | 32 |
| 2010-01-13T13:07 | 24373 | 27 | -59.9 | -90.8 | 83 | 32 |
| 2010-01-13T13:07 | 24420 | 27 | -60.1 | -90.9 | 84 | 32 |
| 2010-01-13T13:07 | 24468 | 27 | -60.3 | -91.1 | 84 | 31 |
| 2010-01-13T13:07 | 24516 | 26 | -60.4 | -91.1 | 85 | 31 |
| 2010-01-13T13:08 | 24565 | 26 | -60.4 | -91.1 | 86 | 30 |
| 2010-01-13T13:08 | 24612 | 26 | -60.4 | -91.1 | 87 | 30 |
| 2010-01-13T13:08 | 24660 | 26 | -60.4 | -91.1 | 88 | 30 |
| 2010-01-13T13:08 | 24707 | 26 | -60.3 | -91.1 | 89 | 30 |
| 2010-01-13T13:08 | 24756 | 25 | -60.2 | -91.0 | 90 | 30 |
| 2010-01-13T13:08 | 24803 | 25 | -60.1 | -90.9 | 90 | 31 |
| 2010-01-13T13:09 | 24850 | 25 | -60.1 | -90.9 | 90 | 32 |
| 2010-01-13T13:09 | 24896 | 25 | -59.8 | -90.7 | 90 | 33 |
| 2010-01-13T13:09 | 24939 | 25 | -59.8 | -90.7 | 90 | 34 |
| 2010-01-13T23:23 | 4 | 1008 | 31.9 | 25.9 | 330 | 3 |
| 2010-01-13T23:23 | 17 | 1006 | 28.7 | 23.0 | 288 | 0 |
| 2010-01-13T23:23 | 28 | 1005 | 28.5 | 23.7 | 281 | 0 |
| 2010-01-13T23:23 | 37 | 1004 | 28.4 | 24.2 | 277 | 1 |
| 2010-01-13T23:23 | 48 | 1003 | 28.4 | 24.6 | 274 | 1 |
| 2010-01-13T23:23 | 60 | 1002 | 28.3 | 25.0 | 273 | 1 |
| 2010-01-13T23:23 | 71 | 1000 | 28.3 | 25.2 | 273 | 1 |
| 2010-01-13T23:23 | 83 | 999 | 28.1 | 25.0 | 274 | 1 |
| 2010-01-13T23:23 | 95 | 998 | 28.0 | 25.0 | 275 | 2 |
| 2010-01-13T23:23 | 109 | 996 | 27.8 | 25.1 | 277 | 2 |
| 2010-01-13T23:23 | 124 | 994 | 27.7 | 25.0 | 280 | 2 |
| 2010-01-13T23:23 | 139 | 993 | 27.5 | 25.0 | 283 | 2 |
| 2010-01-13T23:23 | 153 | 991 | 27.4 | 25.0 | 287 | 2 |
| 2010-01-13T23:23 | 168 | 990 | 27.3 | 25.0 | 290 | 3 |
| 2010-01-13T23:23 | 182 | 988 | 27.1 | 24.9 | 293 | 3 |
| 2010-01-13T23:23 | 192 | 987 | 26.9 | 24.6 | 296 | 3 |
| 2010-01-13T23:23 | 203 | 986 | 26.8 | 24.5 | 299 | 3 |
| 2010-01-13T23:23 | 213 | 985 | 26.7 | 24.6 | 301 | 4 |
| 2010-01-13T23:23 | 222 | 984 | 26.6 | 24.6 | 303 | 4 |
| 2010-01-13T23:23 | 232 | 982 | 26.5 | 24.5 | 305 | 4 |
| 2010-01-13T23:23 | 244 | 981 | 26.5 | 24.5 | 306 | 4 |
| 2010-01-13T23:23 | 256 | 980 | 26.4 | 24.5 | 306 | 4 |
| 2010-01-13T23:23 | 267 | 979 | 26.3 | 24.4 | 307 | 4 |
| 2010-01-13T23:23 | 276 | 978 | 26.2 | 24.4 | 307 | 5 |
| 2010-01-13T23:23 | 285 | 977 | 26.1 | 24.4 | 307 | 5 |
| 2010-01-13T23:23 | 296 | 975 | 26.0 | 24.4 | 307 | 5 |
| 2010-01-13T23:23 | 306 | 974 | 26.0 | 24.4 | 307 | 5 |
| 2010-01-13T23:23 | 316 | 973 | 25.9 | 24.3 | 306 | 5 |
| 2010-01-13T23:23 | 328 | 972 | 25.8 | 24.3 | 306 | 5 |
| 2010-01-13T23:23 | 340 | 971 | 25.7 | 24.3 | 306 | 5 |
| 2010-01-13T23:24 | 351 | 969 | 25.6 | 24.2 | 306 | 5 |
| 2010-01-13T23:24 | 362 | 968 | 25.5 | 24.1 | 305 | 5 |
| 2010-01-13T23:24 | 373 | 967 | 25.5 | 24.1 | 305 | 5 |
| 2010-01-13T23:24 | 383 | 966 | 25.4 | 24.0 | 304 | 6 |
| 2010-01-13T23:24 | 393 | 965 | 25.3 | 24.0 | 304 | 6 |
| 2010-01-13T23:24 | 404 | 964 | 25.2 | 24.0 | 303 | 6 |
| 2010-01-13T23:24 | 415 | 962 | 25.1 | 24.0 | 302 | 6 |
| 2010-01-13T23:24 | 426 | 961 | 25.0 | 23.9 | 301 | 6 |
| 2010-01-13T23:24 | 438 | 960 | 24.9 | 23.9 | 300 | 6 |
| 2010-01-13T23:24 | 449 | 959 | 24.9 | 23.8 | 299 | 6 |
| 2010-01-13T23:24 | 460 | 957 | 24.8 | 23.8 | 298 | 6 |
| 2010-01-13T23:24 | 471 | 956 | 24.7 | 23.7 | 296 | 6 |
| 2010-01-13T23:24 | 482 | 955 | 24.6 | 23.7 | 295 | 6 |
| 2010-01-13T23:24 | 492 | 954 | 24.5 | 23.6 | 293 | 6 |
| 2010-01-13T23:24 | 504 | 953 | 24.5 | 23.5 | 292 | 6 |
| 2010-01-13T23:24 | 515 | 952 | 24.4 | 23.4 | 291 | 6 |
| 2010-01-13T23:24 | 524 | 951 | 24.3 | 23.4 | 290 | 6 |
| 2010-01-13T23:24 | 531 | 950 | 24.3 | 23.3 | 289 | 6 |
| 2010-01-13T23:24 | 539 | 949 | 24.3 | 23.3 | 288 | 6 |
| 2010-01-13T23:24 | 548 | 948 | 24.3 | 23.2 | 287 | 6 |
| 2010-01-13T23:24 | 556 | 947 | 24.2 | 23.1 | 287 | 6 |
| 2010-01-13T23:24 | 566 | 946 | 24.1 | 23.0 | 287 | 6 |
| 2010-01-13T23:24 | 578 | 945 | 24.1 | 22.9 | 287 | 6 |
| 2010-01-13T23:24 | 589 | 944 | 24.0 | 22.8 | 288 | 6 |
| 2010-01-13T23:24 | 599 | 942 | 24.0 | 22.7 | 288 | 7 |
| 2010-01-13T23:24 | 611 | 941 | 23.9 | 22.6 | 289 | 7 |
| 2010-01-13T23:24 | 624 | 940 | 23.8 | 22.6 | 289 | 7 |
| 2010-01-13T23:24 | 637 | 938 | 23.7 | 22.5 | 290 | 7 |
| 2010-01-13T23:24 | 648 | 937 | 23.6 | 22.5 | 290 | 7 |
| 2010-01-13T23:24 | 658 | 936 | 23.5 | 22.3 | 291 | 7 |
| 2010-01-13T23:25 | 669 | 935 | 23.5 | 22.2 | 291 | 8 |
| 2010-01-13T23:25 | 680 | 934 | 23.4 | 22.1 | 291 | 8 |
| 2010-01-13T23:25 | 691 | 933 | 23.3 | 22.1 | 291 | 8 |
| 2010-01-13T23:25 | 703 | 931 | 23.2 | 22.0 | 291 | 8 |
| 2010-01-13T23:25 | 715 | 930 | 23.1 | 22.0 | 291 | 8 |
| 2010-01-13T23:25 | 726 | 929 | 23.0 | 21.9 | 291 | 8 |
| 2010-01-13T23:25 | 736 | 928 | 22.9 | 21.9 | 290 | 9 |
| 2010-01-13T23:25 | 747 | 927 | 22.8 | 21.8 | 290 | 9 |
| 2010-01-13T23:25 | 758 | 926 | 22.7 | 21.8 | 289 | 9 |
| 2010-01-13T23:25 | 768 | 924 | 22.7 | 21.7 | 289 | 9 |
| 2010-01-13T23:25 | 779 | 923 | 22.6 | 21.6 | 288 | 9 |
| 2010-01-13T23:25 | 789 | 922 | 22.5 | 21.5 | 288 | 9 |
| 2010-01-13T23:25 | 799 | 921 | 22.5 | 21.4 | 287 | 9 |
| 2010-01-13T23:25 | 810 | 920 | 22.4 | 21.3 | 286 | 9 |
| 2010-01-13T23:25 | 820 | 919 | 22.5 | 21.2 | 286 | 9 |
| 2010-01-13T23:25 | 829 | 918 | 22.7 | 21.0 | 285 | 9 |
| 2010-01-13T23:25 | 840 | 917 | 22.8 | 20.7 | 285 | 10 |
| 2010-01-13T23:25 | 852 | 916 | 22.8 | 20.5 | 284 | 10 |
| 2010-01-13T23:25 | 863 | 914 | 22.8 | 20.4 | 284 | 10 |
| 2010-01-13T23:25 | 877 | 913 | 22.7 | 20.3 | 284 | 10 |
| 2010-01-13T23:25 | 889 | 912 | 22.6 | 20.2 | 283 | 10 |
| 2010-01-13T23:25 | 900 | 911 | 22.5 | 20.2 | 283 | 10 |
| 2010-01-13T23:25 | 911 | 910 | 22.5 | 20.1 | 283 | 10 |
| 2010-01-13T23:25 | 921 | 909 | 22.4 | 20.0 | 283 | 10 |
| 2010-01-13T23:25 | 929 | 908 | 22.4 | 19.9 | 282 | 10 |
| 2010-01-13T23:25 | 937 | 907 | 22.4 | 19.8 | 282 | 10 |
| 2010-01-13T23:25 | 946 | 906 | 22.3 | 19.6 | 282 | 11 |
| 2010-01-13T23:25 | 953 | 905 | 22.2 | 19.6 | 282 | 11 |
| 2010-01-13T23:25 | 960 | 904 | 22.2 | 19.6 | 282 | 11 |
| 2010-01-13T23:25 | 968 | 904 | 22.1 | 19.5 | 282 | 11 |
| 2010-01-13T23:26 | 976 | 903 | 22.1 | 19.3 | 282 | 11 |
| 2010-01-13T23:26 | 985 | 902 | 22.0 | 19.2 | 282 | 11 |
| 2010-01-13T23:26 | 996 | 901 | 22.0 | 19.0 | 281 | 11 |
| 2010-01-13T23:26 | 1007 | 900 | 21.9 | 18.8 | 281 | 11 |
| 2010-01-13T23:26 | 1018 | 898 | 21.9 | 18.7 | 282 | 11 |
| 2010-01-13T23:26 | 1028 | 897 | 21.8 | 18.5 | 282 | 11 |
| 2010-01-13T23:26 | 1039 | 896 | 21.8 | 18.3 | 281 | 11 |
| 2010-01-13T23:26 | 1049 | 895 | 21.7 | 18.2 | 281 | 11 |
| 2010-01-13T23:26 | 1060 | 894 | 21.6 | 18.1 | 281 | 11 |
| 2010-01-13T23:26 | 1070 | 893 | 21.6 | 18.0 | 281 | 11 |
| 2010-01-13T23:26 | 1081 | 892 | 21.5 | 17.9 | 281 | 11 |
| 2010-01-13T23:26 | 1091 | 891 | 21.5 | 17.8 | 280 | 11 |
| 2010-01-13T23:26 | 1102 | 890 | 21.4 | 17.8 | 280 | 11 |
| 2010-01-13T23:26 | 1113 | 889 | 21.4 | 17.9 | 279 | 11 |
| 2010-01-13T23:26 | 1124 | 888 | 21.3 | 17.9 | 279 | 11 |
| 2010-01-13T23:26 | 1133 | 887 | 21.3 | 17.8 | 278 | 11 |
| 2010-01-13T23:26 | 1142 | 886 | 21.3 | 17.7 | 277 | 11 |
| 2010-01-13T23:26 | 1152 | 885 | 21.3 | 17.7 | 277 | 11 |
| 2010-01-13T23:26 | 1163 | 884 | 21.3 | 17.7 | 276 | 11 |
| 2010-01-13T23:26 | 1173 | 883 | 21.3 | 17.6 | 275 | 11 |
| 2010-01-13T23:26 | 1180 | 882 | 21.3 | 17.6 | 274 | 11 |
| 2010-01-13T23:26 | 1187 | 881 | 21.2 | 17.4 | 274 | 11 |
| 2010-01-13T23:26 | 1195 | 880 | 21.2 | 17.1 | 273 | 11 |
| 2010-01-13T23:26 | 1204 | 879 | 21.3 | 16.8 | 273 | 11 |
| 2010-01-13T23:26 | 1212 | 879 | 21.3 | 16.5 | 272 | 11 |
| 2010-01-13T23:26 | 1220 | 878 | 21.3 | 16.0 | 272 | 11 |
| 2010-01-13T23:26 | 1229 | 877 | 21.3 | 15.6 | 271 | 11 |
| 2010-01-13T23:26 | 1237 | 876 | 21.3 | 15.3 | 271 | 12 |
| 2010-01-13T23:26 | 1245 | 875 | 21.3 | 15.0 | 271 | 12 |
| 2010-01-13T23:26 | 1254 | 874 | 21.3 | 14.8 | 270 | 12 |
| 2010-01-13T23:27 | 1265 | 873 | 21.2 | 14.8 | 270 | 12 |
| 2010-01-13T23:27 | 1277 | 872 | 21.2 | 14.6 | 269 | 12 |
| 2010-01-13T23:27 | 1289 | 871 | 21.2 | 14.1 | 269 | 12 |
| 2010-01-13T23:27 | 1300 | 870 | 21.2 | 13.7 | 268 | 12 |
| 2010-01-13T23:27 | 1309 | 869 | 21.1 | 13.7 | 268 | 12 |
| 2010-01-13T23:27 | 1319 | 868 | 21.0 | 13.8 | 268 | 12 |
| 2010-01-13T23:27 | 1330 | 867 | 21.0 | 14.0 | 267 | 12 |
| 2010-01-13T23:27 | 1343 | 865 | 20.9 | 14.1 | 267 | 13 |
| 2010-01-13T23:27 | 1355 | 864 | 20.9 | 14.0 | 267 | 13 |
| 2010-01-13T23:27 | 1367 | 863 | 20.7 | 14.2 | 267 | 13 |
| 2010-01-13T23:27 | 1378 | 862 | 20.6 | 14.3 | 267 | 13 |
| 2010-01-13T23:27 | 1389 | 861 | 20.6 | 14.1 | 267 | 13 |
| 2010-01-13T23:27 | 1398 | 860 | 20.6 | 13.9 | 267 | 13 |
| 2010-01-13T23:27 | 1408 | 859 | 20.5 | 14.0 | 268 | 13 |
| 2010-01-13T23:27 | 1417 | 858 | 20.5 | 14.0 | 268 | 13 |
| 2010-01-13T23:27 | 1428 | 857 | 20.4 | 13.9 | 268 | 13 |
| 2010-01-13T23:27 | 1439 | 856 | 20.4 | 13.8 | 269 | 13 |
| 2010-01-13T23:27 | 1451 | 855 | 20.4 | 13.5 | 269 | 13 |
| 2010-01-13T23:27 | 1463 | 854 | 20.4 | 13.2 | 269 | 13 |
| 2010-01-13T23:27 | 1474 | 852 | 20.5 | 13.0 | 269 | 12 |
| 2010-01-13T23:27 | 1485 | 851 | 20.4 | 12.9 | 270 | 12 |
| 2010-01-13T23:27 | 1496 | 850 | 20.4 | 13.1 | 270 | 12 |
| 2010-01-13T23:27 | 1507 | 849 | 20.3 | 13.4 | 270 | 12 |
| 2010-01-13T23:27 | 1517 | 848 | 20.2 | 13.5 | 270 | 12 |
| 2010-01-13T23:27 | 1527 | 847 | 20.2 | 13.4 | 270 | 12 |
| 2010-01-13T23:27 | 1537 | 846 | 20.1 | 13.3 | 270 | 12 |
| 2010-01-13T23:27 | 1548 | 845 | 20.1 | 13.2 | 270 | 13 |
| 2010-01-13T23:27 | 1559 | 844 | 20.0 | 13.2 | 270 | 13 |
| 2010-01-13T23:27 | 1571 | 843 | 19.9 | 13.3 | 270 | 13 |
| 2010-01-13T23:27 | 1582 | 842 | 19.8 | 13.4 | 270 | 13 |
| 2010-01-13T23:28 | 1592 | 841 | 19.8 | 13.5 | 270 | 13 |
| 2010-01-13T23:28 | 1602 | 840 | 19.7 | 13.6 | 270 | 13 |
| 2010-01-13T23:28 | 1612 | 839 | 19.6 | 13.7 | 270 | 13 |
| 2010-01-13T23:28 | 1624 | 838 | 19.5 | 13.7 | 270 | 13 |
| 2010-01-13T23:28 | 1636 | 837 | 19.4 | 13.7 | 270 | 13 |
| 2010-01-13T23:28 | 1647 | 836 | 19.4 | 13.7 | 269 | 13 |
| 2010-01-13T23:28 | 1657 | 835 | 19.3 | 13.6 | 269 | 13 |
| 2010-01-13T23:28 | 1665 | 834 | 19.3 | 13.3 | 269 | 13 |
| 2010-01-13T23:28 | 1674 | 833 | 19.4 | 13.1 | 269 | 13 |
| 2010-01-13T23:28 | 1681 | 832 | 19.4 | 12.9 | 269 | 13 |
| 2010-01-13T23:28 | 1689 | 832 | 19.3 | 12.9 | 269 | 13 |
| 2010-01-13T23:28 | 1696 | 831 | 19.3 | 12.9 | 269 | 13 |
| 2010-01-13T23:28 | 1703 | 830 | 19.2 | 12.9 | 269 | 13 |
| 2010-01-13T23:28 | 1711 | 829 | 19.2 | 12.8 | 269 | 13 |
| 2010-01-13T23:28 | 1718 | 829 | 19.1 | 12.7 | 270 | 13 |
| 2010-01-13T23:28 | 1725 | 828 | 19.1 | 12.6 | 270 | 13 |
| 2010-01-13T23:28 | 1732 | 827 | 19.0 | 12.5 | 270 | 13 |
| 2010-01-13T23:28 | 1740 | 827 | 19.0 | 12.5 | 270 | 13 |
| 2010-01-13T23:28 | 1748 | 826 | 18.9 | 12.4 | 270 | 13 |
| 2010-01-13T23:28 | 1757 | 825 | 18.9 | 12.4 | 270 | 13 |
| 2010-01-13T23:28 | 1768 | 824 | 18.8 | 12.2 | 270 | 13 |
| 2010-01-13T23:28 | 1781 | 823 | 18.7 | 12.1 | 270 | 13 |
| 2010-01-13T23:28 | 1792 | 822 | 18.7 | 11.9 | 270 | 13 |
| 2010-01-13T23:28 | 1802 | 821 | 18.6 | 11.8 | 270 | 13 |
| 2010-01-13T23:28 | 1814 | 820 | 18.6 | 11.7 | 270 | 13 |
| 2010-01-13T23:28 | 1826 | 818 | 18.5 | 11.6 | 270 | 14 |
| 2010-01-13T23:28 | 1835 | 817 | 18.4 | 11.5 | 270 | 14 |
| 2010-01-13T23:28 | 1844 | 817 | 18.4 | 11.5 | 270 | 14 |
| 2010-01-13T23:28 | 1853 | 816 | 18.3 | 11.4 | 270 | 14 |
| 2010-01-13T23:28 | 1861 | 815 | 18.3 | 11.4 | 270 | 14 |
| 2010-01-13T23:29 | 1868 | 814 | 18.2 | 11.3 | 270 | 14 |
| 2010-01-13T23:29 | 1876 | 814 | 18.2 | 11.2 | 270 | 14 |
| 2010-01-13T23:29 | 1884 | 813 | 18.1 | 11.1 | 270 | 14 |
| 2010-01-13T23:29 | 1892 | 812 | 18.1 | 11.1 | 270 | 14 |
| 2010-01-13T23:29 | 1899 | 811 | 18.1 | 11.2 | 270 | 14 |
| 2010-01-13T23:29 | 1907 | 811 | 18.0 | 11.2 | 270 | 14 |
| 2010-01-13T23:29 | 1915 | 810 | 18.0 | 11.2 | 271 | 14 |
| 2010-01-13T23:29 | 1922 | 809 | 17.9 | 11.1 | 271 | 14 |
| 2010-01-13T23:29 | 1930 | 808 | 17.9 | 11.1 | 271 | 14 |
| 2010-01-13T23:29 | 1939 | 808 | 17.8 | 11.1 | 271 | 14 |
| 2010-01-13T23:29 | 1949 | 807 | 17.7 | 11.1 | 271 | 14 |
| 2010-01-13T23:29 | 1961 | 806 | 17.6 | 11.1 | 270 | 14 |
| 2010-01-13T23:29 | 1972 | 805 | 17.6 | 11.0 | 270 | 14 |
| 2010-01-13T23:29 | 1984 | 803 | 17.5 | 10.9 | 270 | 13 |
| 2010-01-13T23:29 | 1996 | 802 | 17.4 | 10.8 | 269 | 13 |
| 2010-01-13T23:29 | 2007 | 801 | 17.4 | 10.7 | 269 | 13 |
| 2010-01-13T23:29 | 2058 | 797 | 17.0 | 10.8 | 267 | 13 |
| 2010-01-13T23:29 | 2094 | 793 | 16.8 | 10.4 | 266 | 13 |
| 2010-01-13T23:30 | 2132 | 790 | 16.5 | 10.5 | 266 | 13 |
| 2010-01-13T23:30 | 2173 | 786 | 16.3 | 10.6 | 266 | 12 |
| 2010-01-13T23:30 | 2236 | 780 | 15.9 | 10.5 | 267 | 11 |
| 2010-01-13T23:30 | 2297 | 775 | 15.6 | 10.4 | 269 | 10 |
| 2010-01-13T23:30 | 2353 | 769 | 15.4 | 10.0 | 272 | 10 |
| 2010-01-13T23:30 | 2411 | 764 | 14.9 | 9.8 | 273 | 10 |
| 2010-01-13T23:31 | 2457 | 760 | 14.6 | 9.4 | 274 | 10 |
| 2010-01-13T23:31 | 2508 | 755 | 14.2 | 9.4 | 275 | 11 |
| 2010-01-13T23:31 | 2579 | 749 | 13.9 | 8.9 | 279 | 12 |
| 2010-01-13T23:31 | 2628 | 745 | 13.7 | 8.8 | 283 | 12 |
| 2010-01-13T23:31 | 2695 | 739 | 13.7 | 8.0 | 285 | 12 |
| 2010-01-13T23:31 | 2752 | 734 | 13.3 | 7.6 | 287 | 11 |
| 2010-01-13T23:32 | 2820 | 728 | 12.8 | 7.5 | 287 | 10 |
| 2010-01-13T23:32 | 2878 | 723 | 12.4 | 7.6 | 286 | 9 |
| 2010-01-13T23:32 | 2934 | 718 | 11.9 | 7.4 | 286 | 8 |
| 2010-01-13T23:32 | 2978 | 714 | 11.6 | 7.3 | 288 | 7 |
| 2010-01-13T23:32 | 3039 | 709 | 11.3 | 7.2 | 293 | 6 |
| 2010-01-13T23:32 | 3083 | 706 | 11.4 | 6.6 | 297 | 5 |
| 2010-01-13T23:33 | 3144 | 700 | 11.0 | 6.3 | 297 | 5 |
| 2010-01-13T23:33 | 3187 | 697 | 10.7 | 6.1 | 295 | 5 |
| 2010-01-13T23:33 | 3228 | 693 | 10.3 | 6.0 | 293 | 4 |
| 2010-01-13T23:33 | 3269 | 690 | 9.9 | 6.0 | 294 | 4 |
| 2010-01-13T23:33 | 3308 | 687 | 9.7 | 5.8 | 296 | 4 |
| 2010-01-13T23:33 | 3353 | 683 | 9.3 | 5.7 | 300 | 3 |
| 2010-01-13T23:34 | 3394 | 680 | 9.0 | 5.6 | 305 | 3 |
| 2010-01-13T23:34 | 3437 | 676 | 8.6 | 5.5 | 304 | 3 |
| 2010-01-13T23:34 | 3482 | 673 | 8.3 | 5.4 | 300 | 3 |
| 2010-01-13T23:34 | 3522 | 669 | 7.9 | 5.4 | 297 | 4 |
| 2010-01-13T23:34 | 3562 | 666 | 7.6 | 5.1 | 295 | 4 |
| 2010-01-13T23:34 | 3602 | 663 | 7.3 | 5.1 | 296 | 4 |
| 2010-01-13T23:35 | 3642 | 660 | 7.0 | 5.0 | 302 | 4 |
| 2010-01-13T23:35 | 3689 | 656 | 6.7 | 4.9 | 312 | 4 |
| 2010-01-13T23:35 | 3747 | 651 | 6.2 | 4.8 | 326 | 4 |
| 2010-01-13T23:35 | 3805 | 647 | 5.9 | 4.6 | 341 | 3 |
| 2010-01-13T23:35 | 3851 | 643 | 5.7 | 4.3 | 358 | 3 |
| 2010-01-13T23:35 | 3897 | 640 | 5.4 | 4.2 | 13 | 3 |
| 2010-01-13T23:36 | 3939 | 636 | 5.2 | 4.1 | 24 | 2 |
| 2010-01-13T23:36 | 3984 | 633 | 4.9 | 4.3 | 37 | 2 |
| 2010-01-13T23:36 | 4033 | 629 | 4.9 | 4.0 | 48 | 3 |
| 2010-01-13T23:36 | 4072 | 626 | 4.7 | 3.6 | 52 | 3 |
| 2010-01-13T23:36 | 4118 | 622 | 4.4 | 3.5 | 56 | 4 |
| 2010-01-13T23:36 | 4158 | 619 | 4.3 | 3.0 | 61 | 5 |
| 2010-01-13T23:37 | 4200 | 616 | 4.4 | 2.6 | 64 | 6 |
| 2010-01-13T23:37 | 4243 | 613 | 4.1 | 2.2 | 66 | 6 |
| 2010-01-13T23:37 | 4309 | 608 | 3.6 | 1.8 | 68 | 7 |
| 2010-01-13T23:37 | 4351 | 605 | 3.6 | 2.4 | 69 | 7 |
| 2010-01-13T23:37 | 4390 | 602 | 3.8 | 2.6 | 69 | 6 |
| 2010-01-13T23:37 | 4433 | 599 | 3.8 | 1.9 | 69 | 5 |
| 2010-01-13T23:38 | 4488 | 595 | 3.6 | 1.2 | 69 | 5 |
| 2010-01-13T23:38 | 4541 | 591 | 3.3 | 1.0 | 68 | 5 |
| 2010-01-13T23:38 | 4587 | 588 | 3.1 | 0.3 | 68 | 5 |
| 2010-01-13T23:38 | 4635 | 584 | 2.7 | 0.3 | 72 | 5 |
| 2010-01-13T23:38 | 4694 | 580 | 2.4 | 0.2 | 81 | 5 |
| 2010-01-13T23:38 | 4734 | 577 | 2.3 | 0.0 | 87 | 5 |
| 2010-01-13T23:39 | 4773 | 574 | 2.1 | -0.5 | 88 | 4 |
| 2010-01-13T23:39 | 4814 | 571 | 1.8 | -0.9 | 85 | 4 |
| 2010-01-13T23:39 | 4854 | 569 | 1.7 | -1.1 | 80 | 4 |
| 2010-01-13T23:39 | 4901 | 565 | 1.3 | -1.3 | 77 | 5 |
| 2010-01-13T23:39 | 4970 | 560 | 0.7 | -1.8 | 77 | 6 |
| 2010-01-13T23:39 | 5029 | 556 | 0.2 | -2.0 | 78 | 6 |
| 2010-01-13T23:40 | 5065 | 554 | 0.1 | -2.7 | 77 | 6 |
| 2010-01-13T23:40 | 5104 | 551 | -0.2 | -3.5 | 76 | 6 |
| 2010-01-13T23:40 | 5149 | 548 | -0.5 | -2.9 | 76 | 5 |
| 2010-01-13T23:40 | 5202 | 544 | -0.9 | -2.2 | 80 | 5 |
| 2010-01-13T23:40 | 5270 | 540 | -1.1 | -1.9 | 87 | 5 |
| 2010-01-13T23:40 | 5323 | 536 | -1.4 | -2.0 | 93 | 6 |
| 2010-01-13T23:41 | 5386 | 532 | -1.9 | -2.4 | 98 | 6 |
| 2010-01-13T23:41 | 5450 | 528 | -1.9 | -3.4 | 102 | 6 |
| 2010-01-13T23:41 | 5495 | 525 | -2.0 | -4.2 | 106 | 5 |
| 2010-01-13T23:41 | 5538 | 522 | -2.3 | -4.6 | 110 | 5 |
| 2010-01-13T23:41 | 5591 | 519 | -2.7 | -4.8 | 117 | 4 |
| 2010-01-13T23:41 | 5647 | 515 | -3.2 | -5.0 | 129 | 4 |
| 2010-01-13T23:42 | 5706 | 511 | -3.7 | -5.2 | 144 | 4 |
| 2010-01-13T23:42 | 5769 | 507 | -4.2 | -5.4 | 167 | 3 |
| 2010-01-13T23:42 | 5826 | 503 | -3.6 | -5.6 | 202 | 3 |
| 2010-01-13T23:42 | 5876 | 500 | -3.3 | -6.3 | 226 | 4 |
| 2010-01-13T23:42 | 5917 | 498 | -3.6 | -6.7 | 232 | 4 |
| 2010-01-13T23:42 | 5958 | 495 | -3.9 | -7.2 | 233 | 5 |
| 2010-01-13T23:43 | 5996 | 493 | -3.8 | -7.7 | 234 | 5 |
| 2010-01-13T23:43 | 6033 | 490 | -4.1 | -7.7 | 236 | 5 |
| 2010-01-13T23:43 | 6075 | 488 | -4.5 | -8.0 | 239 | 6 |
| 2010-01-13T23:43 | 6111 | 486 | -4.6 | -8.2 | 241 | 6 |
| 2010-01-13T23:43 | 6149 | 483 | -4.9 | -8.4 | 242 | 5 |
| 2010-01-13T23:43 | 6187 | 481 | -5.1 | -8.7 | 240 | 5 |
| 2010-01-13T23:44 | 6225 | 479 | -5.2 | -8.9 | 238 | 6 |
| 2010-01-13T23:44 | 6263 | 476 | -5.3 | -9.2 | 238 | 6 |
| 2010-01-13T23:44 | 6301 | 474 | -5.5 | -9.4 | 239 | 6 |
| 2010-01-13T23:44 | 6338 | 472 | -5.8 | -9.5 | 239 | 6 |
| 2010-01-13T23:44 | 6377 | 469 | -6.0 | -9.7 | 237 | 6 |
| 2010-01-13T23:44 | 6425 | 467 | -6.3 | -9.9 | 234 | 5 |
| 2010-01-13T23:45 | 6485 | 463 | -6.8 | -9.7 | 234 | 4 |
| 2010-01-13T23:45 | 6538 | 460 | -7.1 | -9.9 | 239 | 3 |
| 2010-01-13T23:45 | 6578 | 457 | -7.3 | -10.4 | 247 | 3 |
| 2010-01-13T23:45 | 6617 | 455 | -7.5 | -10.7 | 256 | 3 |
| 2010-01-13T23:45 | 6655 | 453 | -7.7 | -10.9 | 266 | 3 |
| 2010-01-13T23:45 | 6695 | 451 | -7.8 | -11.5 | 274 | 2 |
| 2010-01-13T23:46 | 6735 | 448 | -8.1 | -11.6 | 282 | 2 |
| 2010-01-13T23:46 | 6773 | 446 | -8.3 | -11.6 | 289 | 2 |
| 2010-01-13T23:46 | 6814 | 444 | -8.7 | -12.0 | 293 | 2 |
| 2010-01-13T23:46 | 6852 | 442 | -9.0 | -12.1 | 290 | 1 |
| 2010-01-13T23:46 | 6893 | 439 | -9.1 | -12.4 | 272 | 0 |
| 2010-01-13T23:46 | 6931 | 437 | -9.2 | -13.4 | 241 | 0 |
| 2010-01-13T23:47 | 6970 | 435 | -9.6 | -13.3 | 0 | 0 |
| 2010-01-13T23:47 | 7009 | 433 | -9.7 | -13.6 | 0 | 0 |
| 2010-01-13T23:47 | 7049 | 431 | -10.0 | -14.0 | 0 | 0 |
| 2010-01-13T23:47 | 7088 | 428 | -10.1 | -14.2 | 357 | 0 |
| 2010-01-13T23:47 | 7130 | 426 | -10.5 | -14.4 | 12 | 0 |
| 2010-01-13T23:47 | 7177 | 423 | -10.8 | -14.5 | 21 | 1 |
| 2010-01-13T23:48 | 7223 | 421 | -11.3 | -14.6 | 35 | 1 |
| 2010-01-13T23:48 | 7272 | 418 | -11.7 | -14.8 | 59 | 1 |
| 2010-01-13T23:48 | 7334 | 415 | -11.9 | -15.2 | 74 | 2 |
| 2010-01-13T23:48 | 7384 | 412 | -12.2 | -15.7 | 79 | 3 |
| 2010-01-13T23:48 | 7423 | 410 | -12.6 | -16.0 | 83 | 3 |
| 2010-01-13T23:48 | 7463 | 408 | -12.9 | -16.2 | 87 | 3 |
| 2010-01-13T23:49 | 7505 | 406 | -13.3 | -16.2 | 90 | 3 |
| 2010-01-13T23:49 | 7544 | 404 | -13.5 | -16.5 | 90 | 4 |
| 2010-01-13T23:49 | 7584 | 401 | -13.9 | -16.8 | 88 | 4 |
| 2010-01-13T23:49 | 7626 | 399 | -14.3 | -16.8 | 88 | 4 |
| 2010-01-13T23:49 | 7666 | 397 | -14.7 | -17.0 | 91 | 4 |
| 2010-01-13T23:49 | 7706 | 395 | -14.8 | -17.8 | 93 | 4 |
| 2010-01-13T23:50 | 7747 | 393 | -15.0 | -18.0 | 95 | 4 |
| 2010-01-13T23:50 | 7788 | 391 | -15.4 | -18.1 | 96 | 4 |
| 2010-01-13T23:50 | 7827 | 389 | -15.7 | -18.2 | 97 | 4 |
| 2010-01-13T23:50 | 7870 | 387 | -16.1 | -18.3 | 100 | 5 |
| 2010-01-13T23:50 | 7913 | 384 | -16.4 | -18.6 | 102 | 5 |
| 2010-01-13T23:50 | 7954 | 382 | -16.6 | -19.1 | 104 | 5 |
| 2010-01-13T23:51 | 7998 | 380 | -16.9 | -19.6 | 106 | 5 |
| 2010-01-13T23:51 | 8042 | 378 | -17.0 | -19.8 | 108 | 5 |
| 2010-01-13T23:51 | 8082 | 376 | -17.3 | -20.2 | 111 | 6 |
| 2010-01-13T23:51 | 8123 | 374 | -17.5 | -20.8 | 112 | 6 |
| 2010-01-13T23:51 | 8164 | 372 | -17.8 | -21.0 | 111 | 7 |
| 2010-01-13T23:51 | 8210 | 370 | -18.0 | -22.1 | 110 | 8 |
| 2010-01-13T23:52 | 8250 | 368 | -18.2 | -22.8 | 109 | 8 |
| 2010-01-13T23:52 | 8297 | 365 | -18.5 | -23.2 | 107 | 9 |
| 2010-01-13T23:52 | 8342 | 363 | -19.0 | -23.6 | 105 | 10 |
| 2010-01-13T23:52 | 8396 | 360 | -19.4 | -23.8 | 103 | 11 |
| 2010-01-13T23:52 | 8447 | 358 | -19.9 | -24.0 | 101 | 12 |
| 2010-01-13T23:52 | 8494 | 356 | -20.1 | -24.8 | 100 | 12 |
| 2010-01-13T23:53 | 8533 | 354 | -20.0 | -26.3 | 100 | 12 |
| 2010-01-13T23:53 | 8573 | 352 | -20.3 | -26.6 | 101 | 12 |
| 2010-01-13T23:53 | 8611 | 350 | -20.5 | -26.0 | 103 | 12 |
| 2010-01-13T23:53 | 8650 | 348 | -20.5 | -26.0 | 104 | 12 |
| 2010-01-13T23:53 | 8689 | 346 | -20.7 | -26.9 | 104 | 12 |
| 2010-01-13T23:53 | 8729 | 345 | -21.1 | -27.0 | 104 | 12 |
| 2010-01-13T23:54 | 8769 | 343 | -21.2 | -27.4 | 104 | 12 |
| 2010-01-13T23:54 | 8809 | 341 | -21.5 | -29.4 | 105 | 12 |
| 2010-01-13T23:54 | 8848 | 339 | -21.8 | -29.7 | 104 | 12 |
| 2010-01-13T23:54 | 8890 | 337 | -22.1 | -30.8 | 103 | 11 |
| 2010-01-13T23:54 | 8933 | 335 | -22.5 | -30.9 | 103 | 11 |
| 2010-01-13T23:54 | 8973 | 333 | -22.8 | -31.2 | 103 | 11 |
| 2010-01-13T23:55 | 9013 | 331 | -23.1 | -32.5 | 102 | 11 |
| 2010-01-13T23:55 | 9054 | 330 | -23.5 | -33.3 | 101 | 11 |
| 2010-01-13T23:55 | 9094 | 328 | -23.9 | -32.6 | 101 | 11 |
| 2010-01-13T23:55 | 9132 | 326 | -24.3 | -32.6 | 101 | 11 |
| 2010-01-13T23:55 | 9170 | 324 | -24.7 | -32.3 | 102 | 10 |
| 2010-01-13T23:55 | 9211 | 323 | -25.0 | -32.3 | 101 | 10 |
| 2010-01-13T23:56 | 9264 | 320 | -25.4 | -32.2 | 98 | 9 |
| 2010-01-13T23:56 | 9317 | 318 | -25.7 | -32.2 | 96 | 8 |
| 2010-01-13T23:56 | 9362 | 316 | -26.0 | -32.2 | 97 | 8 |
| 2010-01-13T23:56 | 9405 | 314 | -26.4 | -32.7 | 97 | 8 |
| 2010-01-13T23:56 | 9449 | 312 | -26.7 | -33.7 | 96 | 8 |
| 2010-01-13T23:56 | 9491 | 310 | -27.0 | -34.3 | 96 | 8 |
| 2010-01-13T23:57 | 9533 | 309 | -27.4 | -34.6 | 97 | 8 |
| 2010-01-13T23:57 | 9577 | 307 | -27.8 | -35.4 | 98 | 8 |
| 2010-01-13T23:57 | 9624 | 305 | -28.2 | -35.3 | 99 | 9 |
| 2010-01-13T23:57 | 9670 | 303 | -28.7 | -35.5 | 101 | 9 |
| 2010-01-13T23:57 | 9715 | 301 | -29.1 | -35.5 | 102 | 9 |
| 2010-01-13T23:57 | 9759 | 299 | -29.5 | -35.6 | 101 | 9 |
| 2010-01-13T23:58 | 9806 | 297 | -29.9 | -36.0 | 99 | 10 |
| 2010-01-13T23:58 | 9875 | 294 | -30.4 | -36.8 | 100 | 12 |
| 2010-01-13T23:58 | 9953 | 291 | -31.0 | -36.7 | 100 | 14 |
| 2010-01-13T23:58 | 10000 | 289 | -31.2 | -35.3 | 99 | 15 |
| 2010-01-13T23:58 | 10040 | 287 | -31.5 | -35.5 | 98 | 15 |
| 2010-01-13T23:58 | 10079 | 286 | -31.8 | -36.3 | 98 | 15 |
| 2010-01-13T23:59 | 10120 | 284 | -32.1 | -36.4 | 98 | 15 |
| 2010-01-13T23:59 | 10161 | 283 | -32.1 | -36.6 | 98 | 15 |
| 2010-01-13T23:59 | 10202 | 281 | -32.5 | -37.1 | 98 | 16 |
| 2010-01-13T23:59 | 10244 | 279 | -32.8 | -37.3 | 98 | 16 |
| 2010-01-13T23:59 | 10285 | 278 | -33.1 | -37.1 | 99 | 16 |
| 2010-01-13T23:59 | 10330 | 276 | -33.5 | -37.1 | 102 | 16 |
| 2010-01-14T00:00 | 10377 | 274 | -33.9 | -37.8 | 104 | 16 |
| 2010-01-14T00:00 | 10423 | 272 | -34.2 | -38.3 | 105 | 17 |
| 2010-01-14T00:00 | 10471 | 270 | -34.5 | -38.7 | 105 | 18 |
| 2010-01-14T00:00 | 10513 | 269 | -34.8 | -39.6 | 105 | 18 |
| 2010-01-14T00:00 | 10555 | 267 | -35.2 | -40.3 | 105 | 19 |
| 2010-01-14T00:00 | 10598 | 265 | -35.6 | -40.6 | 104 | 19 |
| 2010-01-14T00:01 | 10640 | 264 | -36.0 | -41.5 | 104 | 19 |
| 2010-01-14T00:01 | 10685 | 262 | -36.4 | -41.9 | 103 | 19 |
| 2010-01-14T00:01 | 10728 | 261 | -36.8 | -42.9 | 103 | 19 |
| 2010-01-14T00:01 | 10770 | 259 | -37.2 | -43.6 | 104 | 19 |
| 2010-01-14T00:01 | 10812 | 257 | -37.5 | -43.7 | 105 | 18 |
| 2010-01-14T00:01 | 10853 | 256 | -37.9 | -44.2 | 106 | 18 |
| 2010-01-14T00:02 | 10896 | 254 | -38.3 | -44.2 | 106 | 18 |
| 2010-01-14T00:02 | 10936 | 253 | -38.6 | -44.3 | 106 | 17 |
| 2010-01-14T00:02 | 10976 | 251 | -39.0 | -44.6 | 105 | 17 |
| 2010-01-14T00:02 | 11017 | 250 | -39.4 | -45.5 | 105 | 17 |
| 2010-01-14T00:02 | 11058 | 248 | -39.8 | -45.9 | 104 | 17 |
| 2010-01-14T00:02 | 11100 | 247 | -40.1 | -46.0 | 102 | 17 |
| 2010-01-14T00:03 | 11144 | 245 | -40.4 | -46.5 | 101 | 17 |
| 2010-01-14T00:03 | 11189 | 244 | -40.8 | -46.8 | 100 | 18 |
| 2010-01-14T00:03 | 11234 | 242 | -41.3 | -47.2 | 99 | 18 |
| 2010-01-14T00:03 | 11276 | 240 | -41.6 | -47.6 | 97 | 18 |
| 2010-01-14T00:03 | 11320 | 239 | -42.0 | -48.1 | 96 | 18 |
| 2010-01-14T00:03 | 11363 | 237 | -42.5 | -48.7 | 96 | 17 |
| 2010-01-14T00:04 | 11404 | 236 | -42.8 | -49.4 | 97 | 17 |
| 2010-01-14T00:04 | 11446 | 234 | -43.2 | -50.3 | 97 | 18 |
| 2010-01-14T00:04 | 11491 | 233 | -43.5 | -50.7 | 97 | 18 |
| 2010-01-14T00:04 | 11538 | 231 | -43.9 | -51.2 | 97 | 18 |
| 2010-01-14T00:04 | 11588 | 230 | -44.2 | -51.7 | 98 | 19 |
| 2010-01-14T00:04 | 11633 | 228 | -44.7 | -52.1 | 98 | 19 |
| 2010-01-14T00:05 | 11679 | 227 | -45.0 | -52.5 | 98 | 19 |
| 2010-01-14T00:05 | 11720 | 225 | -45.4 | -52.9 | 98 | 19 |
| 2010-01-14T00:05 | 11763 | 224 | -45.8 | -53.4 | 98 | 19 |
| 2010-01-14T00:05 | 11804 | 222 | -46.2 | -53.6 | 98 | 19 |
| 2010-01-14T00:05 | 11844 | 221 | -46.6 | -53.7 | 98 | 19 |
| 2010-01-14T00:05 | 11886 | 220 | -47.0 | -53.9 | 98 | 19 |
| 2010-01-14T00:06 | 11929 | 218 | -47.4 | -54.1 | 98 | 19 |
| 2010-01-14T00:06 | 11972 | 217 | -47.8 | -54.1 | 98 | 19 |
| 2010-01-14T00:06 | 12017 | 215 | -48.3 | -54.3 | 97 | 19 |
| 2010-01-14T00:06 | 12061 | 214 | -48.7 | -54.9 | 97 | 19 |
| 2010-01-14T00:06 | 12106 | 212 | -49.1 | -55.2 | 97 | 19 |
| 2010-01-14T00:06 | 12150 | 211 | -49.5 | -55.5 | 97 | 19 |
| 2010-01-14T00:07 | 12192 | 210 | -49.9 | -55.7 | 97 | 19 |
| 2010-01-14T00:07 | 12237 | 208 | -50.4 | -56.3 | 96 | 20 |
| 2010-01-14T00:07 | 12280 | 207 | -50.7 | -56.8 | 95 | 20 |
| 2010-01-14T00:07 | 12323 | 205 | -51.1 | -57.6 | 96 | 20 |
| 2010-01-14T00:07 | 12367 | 204 | -51.3 | -58.3 | 97 | 20 |
| 2010-01-14T00:07 | 12409 | 203 | -51.7 | -59.5 | 98 | 20 |
| 2010-01-14T00:08 | 12450 | 201 | -52.0 | -60.3 | 98 | 20 |
| 2010-01-14T00:08 | 12490 | 200 | -52.4 | -61.4 | 98 | 20 |
| 2010-01-14T00:08 | 12531 | 199 | -52.7 | -62.3 | 99 | 20 |
| 2010-01-14T00:08 | 12572 | 198 | -52.9 | -62.5 | 98 | 21 |
| 2010-01-14T00:08 | 12612 | 196 | -53.4 | -63.1 | 97 | 21 |
| 2010-01-14T00:08 | 12653 | 195 | -53.7 | -63.5 | 97 | 21 |
| 2010-01-14T00:09 | 12694 | 194 | -54.2 | -64.2 | 97 | 21 |
| 2010-01-14T00:09 | 12734 | 193 | -54.4 | -65.0 | 97 | 22 |
| 2010-01-14T00:09 | 12774 | 192 | -54.6 | -66.2 | 98 | 22 |
| 2010-01-14T00:09 | 12811 | 190 | -54.9 | -66.9 | 98 | 22 |
| 2010-01-14T00:09 | 12849 | 189 | -55.3 | -68.3 | 98 | 22 |
| 2010-01-14T00:09 | 12889 | 188 | -55.7 | -68.9 | 97 | 22 |
| 2010-01-14T00:10 | 12928 | 187 | -55.9 | -69.4 | 96 | 22 |
| 2010-01-14T00:10 | 12968 | 186 | -56.2 | -70.6 | 95 | 22 |
| 2010-01-14T00:10 | 13010 | 185 | -56.7 | -71.2 | 93 | 22 |
| 2010-01-14T00:10 | 13051 | 183 | -57.0 | -70.8 | 93 | 22 |
| 2010-01-14T00:10 | 13090 | 182 | -57.5 | -70.4 | 93 | 22 |
| 2010-01-14T00:10 | 13128 | 181 | -57.9 | -70.0 | 93 | 22 |
| 2010-01-14T00:11 | 13167 | 180 | -58.1 | -69.7 | 93 | 22 |
| 2010-01-14T00:11 | 13206 | 179 | -58.6 | -69.8 | 94 | 22 |
| 2010-01-14T00:11 | 13245 | 178 | -59.0 | -69.7 | 94 | 22 |
| 2010-01-14T00:11 | 13284 | 177 | -59.3 | -69.7 | 94 | 22 |
| 2010-01-14T00:11 | 13324 | 176 | -59.8 | -69.9 | 94 | 22 |
| 2010-01-14T00:11 | 13364 | 174 | -60.0 | -69.7 | 94 | 22 |
| 2010-01-14T00:12 | 13404 | 173 | -60.5 | -69.7 | 94 | 23 |
| 2010-01-14T00:12 | 13444 | 172 | -60.9 | -69.7 | 94 | 23 |
| 2010-01-14T00:12 | 13485 | 171 | -61.2 | -69.8 | 94 | 23 |
| 2010-01-14T00:12 | 13525 | 170 | -61.5 | -70.2 | 94 | 23 |
| 2010-01-14T00:12 | 13565 | 169 | -61.8 | -70.3 | 95 | 23 |
| 2010-01-14T00:12 | 13607 | 168 | -62.2 | -70.3 | 94 | 23 |
| 2010-01-14T00:13 | 13648 | 167 | -62.6 | -70.1 | 94 | 24 |
| 2010-01-14T00:13 | 13690 | 165 | -62.9 | -70.5 | 94 | 24 |
| 2010-01-14T00:13 | 13733 | 164 | -63.2 | -71.2 | 94 | 24 |
| 2010-01-14T00:13 | 13775 | 163 | -63.6 | -72.0 | 94 | 24 |
| 2010-01-14T00:13 | 13819 | 162 | -64.0 | -72.8 | 95 | 24 |
| 2010-01-14T00:13 | 13862 | 161 | -64.3 | -73.4 | 95 | 24 |
| 2010-01-14T00:14 | 13906 | 160 | -64.7 | -74.2 | 95 | 23 |
| 2010-01-14T00:14 | 13949 | 159 | -65.1 | -74.7 | 95 | 23 |
| 2010-01-14T00:14 | 13999 | 157 | -65.4 | -75.0 | 96 | 23 |
| 2010-01-14T00:14 | 14050 | 156 | -65.9 | -75.5 | 97 | 23 |
| 2010-01-14T00:14 | 14094 | 155 | -66.3 | -75.8 | 97 | 23 |
| 2010-01-14T00:14 | 14140 | 154 | -66.6 | -76.3 | 96 | 23 |
| 2010-01-14T00:15 | 14187 | 153 | -66.9 | -76.7 | 95 | 23 |
| 2010-01-14T00:15 | 14228 | 152 | -67.3 | -77.1 | 95 | 23 |
| 2010-01-14T00:15 | 14272 | 150 | -67.8 | -77.6 | 95 | 24 |
| 2010-01-14T00:15 | 14317 | 149 | -68.2 | -78.0 | 96 | 24 |
| 2010-01-14T00:15 | 14363 | 148 | -68.7 | -78.4 | 96 | 24 |
| 2010-01-14T00:15 | 14407 | 147 | -69.0 | -78.6 | 96 | 24 |
| 2010-01-14T00:16 | 14451 | 146 | -69.4 | -78.8 | 96 | 24 |
| 2010-01-14T00:16 | 14494 | 145 | -69.8 | -79.0 | 96 | 24 |
| 2010-01-14T00:16 | 14539 | 144 | -70.2 | -79.2 | 96 | 24 |
| 2010-01-14T00:16 | 14583 | 143 | -70.7 | -79.5 | 97 | 24 |
| 2010-01-14T00:16 | 14627 | 142 | -71.2 | -79.7 | 97 | 24 |
| 2010-01-14T00:16 | 14671 | 141 | -71.6 | -79.8 | 97 | 24 |
| 2010-01-14T00:17 | 14713 | 140 | -71.9 | -79.9 | 97 | 24 |
| 2010-01-14T00:17 | 14756 | 139 | -72.2 | -80.1 | 97 | 25 |
| 2010-01-14T00:17 | 14798 | 138 | -72.6 | -80.3 | 96 | 25 |
| 2010-01-14T00:17 | 14839 | 137 | -72.9 | -80.7 | 96 | 25 |
| 2010-01-14T00:17 | 14880 | 136 | -73.3 | -80.9 | 96 | 25 |
| 2010-01-14T00:17 | 14920 | 135 | -73.7 | -81.1 | 96 | 25 |
| 2010-01-14T00:18 | 14963 | 134 | -74.0 | -81.3 | 95 | 26 |
| 2010-01-14T00:18 | 15005 | 133 | -73.5 | -80.8 | 93 | 28 |
| 2010-01-14T00:18 | 15047 | 132 | -73.7 | -81.1 | 92 | 28 |
| 2010-01-14T00:18 | 15086 | 131 | -74.0 | -81.6 | 92 | 29 |
| 2010-01-14T00:18 | 15126 | 130 | -74.2 | -81.8 | 92 | 29 |
| 2010-01-14T00:18 | 15166 | 129 | -74.7 | -82.4 | 91 | 30 |
| 2010-01-14T00:19 | 15206 | 128 | -74.9 | -82.7 | 91 | 30 |
| 2010-01-14T00:19 | 15243 | 128 | -75.3 | -83.1 | 91 | 30 |
| 2010-01-14T00:19 | 15282 | 127 | -75.8 | -83.5 | 90 | 31 |
| 2010-01-14T00:19 | 15323 | 126 | -75.8 | -83.6 | 89 | 31 |
| 2010-01-14T00:19 | 15360 | 125 | -76.2 | -84.0 | 88 | 31 |
| 2010-01-14T00:19 | 15399 | 124 | -76.1 | -84.1 | 87 | 31 |
| 2010-01-14T00:20 | 15437 | 123 | -76.5 | -84.6 | 86 | 31 |
| 2010-01-14T00:20 | 15477 | 122 | -76.7 | -84.7 | 84 | 30 |
| 2010-01-14T00:20 | 15520 | 122 | -76.7 | -84.9 | 82 | 30 |
| 2010-01-14T00:20 | 15563 | 121 | -77.0 | -85.3 | 81 | 29 |
| 2010-01-14T00:20 | 15607 | 120 | -77.4 | -85.8 | 80 | 29 |
| 2010-01-14T00:20 | 15652 | 119 | -77.8 | -86.3 | 79 | 28 |
| 2010-01-14T00:21 | 15696 | 118 | -78.2 | -86.8 | 79 | 28 |
| 2010-01-14T00:21 | 15740 | 117 | -78.6 | -87.1 | 79 | 28 |
| 2010-01-14T00:21 | 15784 | 116 | -79.1 | -87.6 | 79 | 28 |
| 2010-01-14T00:21 | 15828 | 115 | -79.4 | -87.9 | 79 | 28 |
| 2010-01-14T00:21 | 15874 | 114 | -79.7 | -88.1 | 79 | 28 |
| 2010-01-14T00:21 | 15919 | 113 | -80.0 | -88.4 | 79 | 28 |
| 2010-01-14T00:22 | 15966 | 112 | -80.5 | -88.8 | 79 | 29 |
| 2010-01-14T00:22 | 16012 | 111 | -81.1 | -89.3 | 79 | 29 |
| 2010-01-14T00:22 | 16058 | 111 | -81.5 | -89.7 | 79 | 29 |
| 2010-01-14T00:22 | 16103 | 110 | -81.9 | -90.0 | 79 | 29 |
| 2010-01-14T00:22 | 16147 | 109 | -82.5 | -90.5 | 79 | 29 |
| 2010-01-14T00:22 | 16191 | 108 | -82.9 | -90.8 | 79 | 29 |
| 2010-01-14T00:23 | 16236 | 107 | -83.2 | -91.0 | 78 | 30 |
| 2010-01-14T00:23 | 16280 | 106 | -83.6 | -91.4 | 79 | 30 |
| 2010-01-14T00:23 | 16325 | 105 | -83.8 | -91.6 | 80 | 30 |
| 2010-01-14T00:23 | 16368 | 105 | -84.0 | -91.8 | 80 | 31 |
| 2010-01-14T00:23 | 16410 | 104 | -84.2 | -91.9 | 81 | 31 |
| 2010-01-14T00:23 | 16454 | 103 | -84.5 | -92.2 | 81 | 31 |
| 2010-01-14T00:24 | 16496 | 102 | -84.6 | -92.4 | 82 | 31 |
| 2010-01-14T00:24 | 16538 | 101 | -85.0 | -92.8 | 82 | 31 |
| 2010-01-14T00:24 | 16583 | 101 | -85.2 | -92.9 | 84 | 31 |
| 2010-01-14T00:24 | 16629 | 100 | -85.7 | -93.4 | 85 | 31 |
| 2010-01-14T00:24 | 16672 | 99 | -85.7 | -93.5 | 85 | 31 |
| 2010-01-14T00:24 | 16717 | 98 | -85.7 | -93.5 | 86 | 31 |
| 2010-01-14T00:25 | 16762 | 97 | -85.8 | -93.6 | 86 | 31 |
| 2010-01-14T00:25 | 16809 | 97 | -85.3 | -93.2 | 87 | 31 |
| 2010-01-14T00:25 | 16852 | 96 | -85.2 | -93.1 | 88 | 31 |
| 2010-01-14T00:25 | 16896 | 95 | -85.1 | -93.1 | 89 | 30 |
| 2010-01-14T00:25 | 16939 | 94 | -85.3 | -93.3 | 89 | 27 |
| 2010-01-14T00:25 | 16986 | 93 | -83.4 | -91.7 | 87 | 24 |
| 2010-01-14T00:26 | 17035 | 93 | -80.7 | -89.3 | 84 | 20 |
| 2010-01-14T00:26 | 17085 | 92 | -79.4 | -88.1 | 79 | 16 |
| 2010-01-14T00:26 | 17141 | 91 | -78.8 | -87.7 | 73 | 13 |
| 2010-01-14T00:26 | 17190 | 90 | -77.7 | -86.9 | 66 | 11 |
| 2010-01-14T00:26 | 17236 | 89 | -77.4 | -86.9 | 60 | 9 |
| 2010-01-14T00:26 | 17283 | 89 | -77.3 | -87.0 | 56 | 8 |
| 2010-01-14T00:27 | 17328 | 88 | -77.3 | -87.2 | 53 | 7 |
| 2010-01-14T00:27 | 17375 | 87 | -77.3 | -87.5 | 47 | 6 |
| 2010-01-14T00:27 | 17423 | 87 | -77.3 | -87.7 | 39 | 4 |
| 2010-01-14T00:27 | 17470 | 86 | -77.3 | -88.0 | 27 | 2 |
| 2010-01-14T00:27 | 17519 | 85 | -77.6 | -88.4 | 7 | 1 |
| 2010-01-14T00:27 | 17566 | 84 | -78.0 | -89.0 | 344 | 1 |
| 2010-01-14T00:28 | 17615 | 84 | -78.1 | -89.3 | 334 | 0 |
| 2010-01-14T00:28 | 17662 | 83 | -78.6 | -89.8 | 339 | 0 |
| 2010-01-14T00:28 | 17706 | 82 | -78.9 | -90.4 | 335 | 1 |
| 2010-01-14T00:28 | 17755 | 82 | -78.8 | -90.4 | 330 | 3 |
| 2010-01-14T00:28 | 17803 | 81 | -77.9 | -89.8 | 330 | 5 |
| 2010-01-14T00:28 | 17846 | 80 | -77.6 | -89.7 | 331 | 6 |
| 2010-01-14T00:29 | 17890 | 80 | -78.0 | -90.1 | 331 | 6 |
| 2010-01-14T00:29 | 17932 | 79 | -78.3 | -90.5 | 329 | 7 |
| 2010-01-14T00:29 | 17978 | 79 | -78.7 | -90.9 | 328 | 8 |
| 2010-01-14T00:29 | 18022 | 78 | -78.7 | -91.1 | 329 | 8 |
| 2010-01-14T00:29 | 18067 | 77 | -78.6 | -91.0 | 334 | 8 |
| 2010-01-14T00:29 | 18110 | 77 | -78.2 | -90.7 | 339 | 8 |
| 2010-01-14T00:30 | 18156 | 76 | -77.6 | -90.4 | 341 | 7 |
| 2010-01-14T00:30 | 18199 | 76 | -77.8 | -90.6 | 339 | 7 |
| 2010-01-14T00:30 | 18243 | 75 | -78.1 | -90.8 | 339 | 7 |
| 2010-01-14T00:30 | 18288 | 74 | -78.0 | -90.9 | 341 | 7 |
| 2010-01-14T00:30 | 18333 | 74 | -77.3 | -90.5 | 345 | 7 |
| 2010-01-14T00:30 | 18378 | 73 | -76.6 | -90.0 | 349 | 6 |
| 2010-01-14T00:31 | 18423 | 73 | -75.9 | -89.4 | 353 | 6 |
| 2010-01-14T00:31 | 18468 | 72 | -75.4 | -89.2 | 356 | 5 |
| 2010-01-14T00:31 | 18514 | 72 | -74.7 | -88.8 | 359 | 5 |
| 2010-01-14T00:31 | 18560 | 71 | -74.8 | -89.0 | 6 | 4 |
| 2010-01-14T00:31 | 18606 | 70 | -74.2 | -88.8 | 16 | 3 |
| 2010-01-14T00:31 | 18654 | 70 | -73.9 | -88.8 | 34 | 1 |
| 2010-01-14T00:32 | 18702 | 69 | -73.3 | -88.5 | 127 | 1 |
| 2010-01-14T00:32 | 18752 | 69 | -73.1 | -88.6 | 168 | 2 |
| 2010-01-14T00:32 | 18802 | 68 | -73.0 | -88.7 | 176 | 4 |
| 2010-01-14T00:32 | 18851 | 68 | -73.4 | -89.2 | 181 | 5 |
| 2010-01-14T00:32 | 18898 | 67 | -73.6 | -89.6 | 185 | 5 |
| 2010-01-14T00:32 | 18947 | 66 | -74.0 | -90.2 | 186 | 5 |
| 2010-01-14T00:33 | 18997 | 66 | -74.1 | -90.4 | 183 | 5 |
| 2010-01-14T00:33 | 19046 | 65 | -73.9 | -90.4 | 182 | 4 |
| 2010-01-14T00:33 | 19094 | 65 | -73.3 | -90.1 | 188 | 4 |
| 2010-01-14T00:33 | 19142 | 64 | -72.9 | -89.8 | 199 | 4 |
| 2010-01-14T00:33 | 19190 | 64 | -72.7 | -89.9 | 202 | 4 |
| 2010-01-14T00:33 | 19237 | 63 | -71.1 | -88.8 | 199 | 5 |
| 2010-01-14T00:34 | 19285 | 63 | -71.1 | -89.0 | 196 | 6 |
| 2010-01-14T00:34 | 19331 | 62 | -70.4 | -88.6 | 194 | 7 |
| 2010-01-14T00:34 | 19378 | 62 | -70.5 | -88.8 | 194 | 6 |
| 2010-01-14T00:34 | 19427 | 61 | -70.8 | -89.2 | 195 | 5 |
| 2010-01-14T00:34 | 19474 | 61 | -70.3 | -89.1 | 196 | 5 |
| 2010-01-14T00:34 | 19521 | 60 | -70.0 | -89.2 | 197 | 5 |
| 2010-01-14T00:35 | 19568 | 60 | -69.5 | -89.0 | 200 | 5 |
| 2010-01-14T00:35 | 19616 | 59 | -69.3 | -89.0 | 208 | 5 |
| 2010-01-14T00:35 | 19663 | 59 | -69.1 | -89.1 | 220 | 5 |
| 2010-01-14T00:35 | 19712 | 58 | -69.1 | -89.3 | 232 | 4 |
| 2010-01-14T00:35 | 19759 | 58 | -68.8 | -89.4 | 243 | 4 |
| 2010-01-14T00:35 | 19807 | 57 | -68.9 | -89.7 | 253 | 4 |
| 2010-01-14T00:36 | 19856 | 57 | -68.6 | -89.7 | 260 | 3 |
| 2010-01-14T00:36 | 19906 | 57 | -68.5 | -89.8 | 268 | 3 |
| 2010-01-14T00:36 | 19955 | 56 | -68.3 | -89.8 | 282 | 3 |
| 2010-01-14T00:36 | 20005 | 56 | -67.5 | -89.6 | 293 | 5 |
| 2010-01-14T00:36 | 20055 | 55 | -66.8 | -89.3 | 298 | 7 |
| 2010-01-14T00:36 | 20104 | 55 | -66.3 | -89.1 | 299 | 9 |
| 2010-01-14T00:37 | 20153 | 54 | -66.6 | -89.5 | 300 | 9 |
| 2010-01-14T00:37 | 20203 | 54 | -66.8 | -89.8 | 301 | 9 |
| 2010-01-14T00:37 | 20253 | 53 | -67.2 | -90.3 | 304 | 9 |
| 2010-01-14T00:37 | 20302 | 53 | -67.4 | -90.6 | 307 | 9 |
| 2010-01-14T00:37 | 20352 | 52 | -67.6 | -90.9 | 309 | 8 |
| 2010-01-14T00:37 | 20402 | 52 | -67.7 | -91.1 | 305 | 7 |
| 2010-01-14T00:38 | 20450 | 52 | -67.8 | -91.4 | 298 | 6 |
| 2010-01-14T00:38 | 20500 | 51 | -67.8 | -91.4 | 285 | 6 |
| 2010-01-14T00:38 | 20547 | 51 | -67.7 | -91.5 | 271 | 6 |
| 2010-01-14T00:38 | 20597 | 50 | -67.2 | -91.3 | 263 | 7 |
| 2010-01-14T00:38 | 20645 | 50 | -67.2 | -91.3 | 258 | 6 |
| 2010-01-14T00:38 | 20691 | 50 | -66.3 | -90.9 | 252 | 6 |
| 2010-01-14T00:39 | 20739 | 49 | -66.1 | -90.8 | 248 | 7 |
| 2010-01-14T00:39 | 20787 | 49 | -65.9 | -90.8 | 240 | 7 |
| 2010-01-14T00:39 | 20837 | 48 | -65.9 | -90.8 | 230 | 7 |
| 2010-01-14T00:39 | 20886 | 48 | -65.5 | -90.8 | 219 | 7 |
| 2010-01-14T00:39 | 20936 | 48 | -65.7 | -90.9 | 213 | 8 |
| 2010-01-14T00:39 | 20985 | 47 | -65.4 | -90.9 | 212 | 9 |
| 2010-01-14T00:40 | 21036 | 47 | -65.5 | -91.1 | 213 | 11 |
| 2010-01-14T00:40 | 21084 | 46 | -65.9 | -91.3 | 212 | 13 |
| 2010-01-14T00:40 | 21132 | 46 | -65.9 | -91.5 | 211 | 14 |
| 2010-01-14T00:40 | 21181 | 46 | -66.1 | -91.6 | 208 | 14 |
| 2010-01-14T00:40 | 21230 | 45 | -66.4 | -91.9 | 206 | 15 |
| 2010-01-14T00:40 | 21280 | 45 | -66.7 | -92.1 | 204 | 15 |
| 2010-01-14T00:41 | 21328 | 45 | -67.0 | -92.4 | 204 | 14 |
| 2010-01-14T00:41 | 21378 | 44 | -66.8 | -92.3 | 203 | 13 |
| 2010-01-14T00:41 | 21426 | 44 | -66.8 | -92.3 | 201 | 12 |
| 2010-01-14T00:41 | 21474 | 44 | -66.6 | -92.3 | 197 | 10 |
| 2010-01-14T00:41 | 21524 | 43 | -66.3 | -92.1 | 190 | 8 |
| 2010-01-14T00:41 | 21576 | 43 | -66.6 | -92.2 | 178 | 7 |
| 2010-01-14T00:42 | 21624 | 43 | -66.4 | -92.3 | 164 | 6 |
| 2010-01-14T00:42 | 21675 | 42 | -66.1 | -92.1 | 156 | 6 |
| 2010-01-14T00:42 | 21724 | 42 | -66.6 | -92.3 | 152 | 7 |
| 2010-01-14T00:42 | 21773 | 41 | -66.7 | -92.3 | 151 | 7 |
| 2010-01-14T00:42 | 21823 | 41 | -66.8 | -92.5 | 151 | 6 |
| 2010-01-14T00:42 | 21871 | 41 | -66.2 | -92.3 | 152 | 6 |
| 2010-01-14T00:43 | 21922 | 40 | -66.0 | -92.2 | 149 | 5 |
| 2010-01-14T00:43 | 21970 | 40 | -66.1 | -92.3 | 145 | 5 |
| 2010-01-14T00:43 | 22018 | 40 | -66.3 | -92.3 | 143 | 5 |
| 2010-01-14T00:43 | 22066 | 40 | -66.5 | -92.5 | 140 | 6 |
| 2010-01-14T00:43 | 22116 | 39 | -67.0 | -92.8 | 132 | 7 |
| 2010-01-14T00:43 | 22168 | 39 | -67.0 | -92.9 | 121 | 8 |
| 2010-01-14T00:44 | 22219 | 39 | -65.5 | -92.3 | 110 | 10 |
| 2010-01-14T00:44 | 22269 | 38 | -65.5 | -92.0 | 100 | 11 |
| 2010-01-14T00:44 | 22319 | 38 | -64.5 | -91.5 | 91 | 13 |
| 2010-01-14T00:44 | 22368 | 38 | -64.2 | -91.4 | 86 | 14 |
| 2010-01-14T00:44 | 22419 | 37 | -63.8 | -90.9 | 81 | 15 |
| 2010-01-14T00:44 | 22469 | 37 | -64.1 | -91.1 | 79 | 16 |
| 2010-01-14T00:45 | 22523 | 37 | -64.0 | -91.2 | 80 | 16 |
| 2010-01-14T00:45 | 22575 | 36 | -63.8 | -90.9 | 83 | 16 |
| 2010-01-14T00:45 | 22626 | 36 | -62.6 | -90.7 | 86 | 16 |
| 2010-01-14T00:45 | 22678 | 36 | -62.6 | -90.7 | 86 | 17 |
| 2010-01-14T00:45 | 22730 | 35 | -62.5 | -90.4 | 86 | 18 |
| 2010-01-14T00:45 | 22786 | 35 | -62.0 | -90.2 | 86 | 19 |
| 2010-01-14T00:46 | 22839 | 35 | -62.2 | -90.3 | 87 | 20 |
| 2010-01-14T00:46 | 22893 | 35 | -62.6 | -90.4 | 87 | 20 |
| 2010-01-14T00:46 | 22945 | 34 | -62.9 | -90.6 | 88 | 20 |
| 2010-01-14T00:46 | 22999 | 34 | -63.0 | -90.7 | 90 | 20 |
| 2010-01-14T00:46 | 23052 | 34 | -63.0 | -90.7 | 93 | 20 |
| 2010-01-14T00:46 | 23106 | 33 | -63.3 | -91.0 | 96 | 20 |
| 2010-01-14T00:47 | 23160 | 33 | -63.4 | -91.0 | 100 | 21 |
| 2010-01-14T00:47 | 23211 | 33 | -63.6 | -91.2 | 102 | 21 |
| 2010-01-14T00:47 | 23264 | 33 | -63.9 | -91.3 | 103 | 21 |
| 2010-01-14T00:47 | 23317 | 32 | -64.2 | -91.5 | 100 | 21 |
| 2010-01-14T00:47 | 23371 | 32 | -63.6 | -91.3 | 95 | 20 |
| 2010-01-14T00:47 | 23425 | 32 | -63.4 | -91.2 | 89 | 21 |
| 2010-01-14T00:48 | 23478 | 31 | -63.0 | -91.0 | 85 | 22 |
| 2010-01-14T00:48 | 23529 | 31 | -63.2 | -91.0 | 84 | 23 |
| 2010-01-14T00:48 | 23581 | 31 | -63.6 | -91.2 | 84 | 24 |
| 2010-01-14T00:48 | 23635 | 31 | -63.9 | -91.3 | 83 | 24 |
| 2010-01-14T00:48 | 23686 | 30 | -63.8 | -91.2 | 83 | 24 |
| 2010-01-14T00:48 | 23740 | 30 | -63.5 | -91.2 | 82 | 23 |
| 2010-01-14T00:49 | 23792 | 30 | -63.5 | -91.3 | 80 | 23 |
| 2010-01-14T00:49 | 23843 | 30 | -63.0 | -90.9 | 77 | 24 |
| 2010-01-14T00:49 | 23896 | 29 | -62.9 | -90.9 | 75 | 24 |
| 2010-01-14T00:49 | 23947 | 29 | -63.3 | -91.1 | 74 | 23 |
| 2010-01-14T00:49 | 23999 | 29 | -63.7 | -91.1 | 74 | 23 |
| 2010-01-14T00:49 | 24049 | 29 | -63.7 | -91.1 | 74 | 23 |
| 2010-01-14T00:50 | 24101 | 28 | -63.9 | -91.2 | 74 | 23 |
| 2010-01-14T00:50 | 24150 | 28 | -64.0 | -91.3 | 76 | 24 |
| 2010-01-14T00:50 | 24203 | 28 | -63.7 | -91.3 | 79 | 26 |
| 2010-01-14T00:50 | 24254 | 28 | -63.1 | -91.1 | 82 | 26 |
| 2010-01-14T00:50 | 24305 | 27 | -62.7 | -90.8 | 83 | 26 |
| 2010-01-14T00:50 | 24356 | 27 | -62.8 | -90.7 | 84 | 26 |
| 2010-01-14T00:51 | 24409 | 27 | -63.1 | -90.8 | 85 | 25 |
| 2010-01-14T00:51 | 24461 | 27 | -62.8 | -90.7 | 85 | 25 |
| 2010-01-14T00:51 | 24512 | 27 | -62.3 | -90.5 | 83 | 25 |
| 2010-01-14T00:51 | 24563 | 26 | -62.1 | -90.3 | 83 | 26 |
| 2010-01-14T00:51 | 24615 | 26 | -60.9 | -89.8 | 82 | 26 |
| 2010-01-14T00:51 | 24664 | 26 | -60.1 | -89.4 | 82 | 26 |
| 2010-01-14T00:52 | 24714 | 26 | -59.6 | -89.1 | 82 | 26 |
| 2010-01-14T00:52 | 24766 | 25 | -59.1 | -88.7 | 82 | 27 |
| 2010-01-14T00:52 | 24816 | 25 | -58.8 | -88.4 | 83 | 27 |
| 2010-01-14T00:52 | 24872 | 25 | -58.8 | -88.0 | 84 | 28 |
| 2010-01-14T00:52 | 24923 | 25 | -58.2 | -87.7 | 85 | 29 |
| 2010-01-14T00:52 | 24970 | 25 | -57.4 | -87.2 | 86 | 30 |
| 2010-01-14T00:53 | 25025 | 24 | -57.3 | -87.1 | 86 | 31 |
| 2010-01-14T00:53 | 25081 | 24 | -57.5 | -87.1 | 87 | 31 |
| 2010-01-14T00:53 | 25133 | 24 | -57.5 | -87.1 | 88 | 31 |
| 2010-01-14T00:53 | 25187 | 24 | -57.6 | -87.1 | 88 | 31 |
| 2010-01-14T00:53 | 25240 | 24 | -57.7 | -87.1 | 89 | 31 |
| 2010-01-14T00:53 | 25293 | 23 | -57.5 | -87.0 | 89 | 30 |
| 2010-01-14T00:54 | 25346 | 23 | -57.2 | -86.8 | 90 | 30 |
| 2010-01-14T00:54 | 25398 | 23 | -57.1 | -86.8 | 90 | 29 |
| 2010-01-14T00:54 | 25453 | 23 | -57.1 | -86.7 | 91 | 29 |
| 2010-01-14T00:54 | 25505 | 23 | -56.8 | -86.6 | 92 | 29 |
| 2010-01-14T00:54 | 25558 | 22 | -56.8 | -86.5 | 93 | 30 |
| 2010-01-14T00:54 | 25608 | 22 | -56.2 | -86.3 | 93 | 30 |
| 2010-01-14T00:55 | 25661 | 22 | -56.1 | -86.2 | 94 | 30 |
| 2010-01-14T00:55 | 25714 | 22 | -56.0 | -86.1 | 95 | 30 |
| 2010-01-14T00:55 | 25767 | 22 | -56.0 | -86.0 | 96 | 30 |
| 2010-01-14T00:55 | 25819 | 22 | -55.9 | -85.9 | 97 | 31 |
| 2010-01-14T00:55 | 25868 | 21 | -55.7 | -85.8 | 97 | 31 |
| 2010-01-14T00:55 | 25921 | 21 | -55.6 | -85.6 | 98 | 31 |
| 2010-01-14T00:56 | 25968 | 21 | -55.6 | -85.7 | 98 | 31 |
| 2010-01-14T00:56 | 26024 | 21 | -55.3 | -85.5 | 99 | 31 |
| 2010-01-14T00:56 | 26073 | 21 | -55.1 | -85.4 | 99 | 31 |
| 2010-01-14T00:56 | 26121 | 21 | -55.0 | -85.3 | 100 | 32 |
| 2010-01-14T00:56 | 26176 | 20 | -54.9 | -85.2 | 101 | 32 |
| 2010-01-14T00:56 | 26224 | 20 | -54.8 | -85.1 | 101 | 33 |
| 2010-01-14T00:57 | 26275 | 20 | -54.8 | -85.1 | 101 | 33 |
| 2010-01-14T11:42 | 4 | 1007 | 28.3 | 26.1 | 320 | 4 |
| 2010-01-14T11:42 | 14 | 1006 | 28.4 | 25.9 | 314 | 2 |
| 2010-01-14T11:42 | 25 | 1005 | 28.5 | 25.8 | 314 | 2 |
| 2010-01-14T11:42 | 37 | 1003 | 28.5 | 25.7 | 315 | 3 |
| 2010-01-14T11:42 | 48 | 1002 | 28.4 | 25.6 | 316 | 3 |
| 2010-01-14T11:42 | 59 | 1001 | 28.3 | 25.5 | 317 | 4 |
| 2010-01-14T11:42 | 69 | 1000 | 28.2 | 25.5 | 318 | 4 |
| 2010-01-14T11:42 | 79 | 998 | 28.2 | 25.4 | 318 | 4 |
| 2010-01-14T11:42 | 89 | 997 | 28.1 | 25.4 | 319 | 5 |
| 2010-01-14T11:42 | 100 | 996 | 28.0 | 25.4 | 319 | 5 |
| 2010-01-14T11:42 | 110 | 995 | 27.9 | 25.3 | 320 | 5 |
| 2010-01-14T11:42 | 120 | 994 | 27.9 | 25.3 | 320 | 5 |
| 2010-01-14T11:42 | 131 | 993 | 27.8 | 25.2 | 320 | 5 |
| 2010-01-14T11:42 | 140 | 992 | 27.7 | 25.1 | 320 | 6 |
| 2010-01-14T11:42 | 150 | 991 | 27.6 | 25.1 | 320 | 6 |
| 2010-01-14T11:42 | 160 | 989 | 27.5 | 25.0 | 319 | 6 |
| 2010-01-14T11:42 | 170 | 988 | 27.4 | 25.0 | 319 | 6 |
| 2010-01-14T11:42 | 180 | 987 | 27.4 | 24.9 | 318 | 6 |
| 2010-01-14T11:42 | 189 | 986 | 27.3 | 24.9 | 318 | 6 |
| 2010-01-14T11:42 | 198 | 985 | 27.2 | 25.0 | 317 | 6 |
| 2010-01-14T11:42 | 210 | 984 | 27.0 | 24.9 | 317 | 6 |
| 2010-01-14T11:42 | 221 | 983 | 26.9 | 24.8 | 316 | 6 |
| 2010-01-14T11:42 | 234 | 981 | 26.8 | 24.8 | 315 | 6 |
| 2010-01-14T11:42 | 246 | 980 | 26.7 | 24.8 | 314 | 6 |
| 2010-01-14T11:42 | 259 | 978 | 26.6 | 24.8 | 314 | 6 |
| 2010-01-14T11:42 | 272 | 977 | 26.5 | 24.7 | 313 | 6 |
| 2010-01-14T11:42 | 282 | 976 | 26.4 | 24.7 | 312 | 6 |
| 2010-01-14T11:42 | 293 | 975 | 26.3 | 24.7 | 312 | 6 |
| 2010-01-14T11:42 | 303 | 974 | 26.2 | 24.8 | 311 | 6 |
| 2010-01-14T11:42 | 314 | 973 | 26.1 | 24.8 | 311 | 6 |
| 2010-01-14T11:43 | 324 | 971 | 26.0 | 24.8 | 311 | 6 |
| 2010-01-14T11:43 | 335 | 970 | 25.8 | 24.7 | 311 | 7 |
| 2010-01-14T11:43 | 345 | 969 | 25.7 | 24.7 | 311 | 7 |
| 2010-01-14T11:43 | 357 | 968 | 25.6 | 24.6 | 311 | 7 |
| 2010-01-14T11:43 | 368 | 967 | 25.5 | 24.6 | 311 | 7 |
| 2010-01-14T11:43 | 379 | 965 | 25.4 | 24.6 | 312 | 7 |
| 2010-01-14T11:43 | 390 | 964 | 25.3 | 24.5 | 312 | 7 |
| 2010-01-14T11:43 | 402 | 963 | 25.2 | 24.5 | 312 | 7 |
| 2010-01-14T11:43 | 413 | 962 | 25.1 | 24.4 | 313 | 7 |
| 2010-01-14T11:43 | 425 | 960 | 25.0 | 24.4 | 313 | 7 |
| 2010-01-14T11:43 | 437 | 959 | 24.9 | 24.4 | 314 | 7 |
| 2010-01-14T11:43 | 447 | 958 | 24.8 | 24.4 | 315 | 7 |
| 2010-01-14T11:43 | 456 | 957 | 24.7 | 24.4 | 315 | 7 |
| 2010-01-14T11:43 | 466 | 956 | 24.6 | 24.3 | 315 | 6 |
| 2010-01-14T11:43 | 475 | 955 | 24.6 | 24.2 | 315 | 6 |
| 2010-01-14T11:43 | 483 | 954 | 24.5 | 24.2 | 315 | 6 |
| 2010-01-14T11:43 | 493 | 953 | 24.4 | 24.2 | 316 | 6 |
| 2010-01-14T11:43 | 502 | 952 | 24.4 | 24.0 | 315 | 6 |
| 2010-01-14T11:43 | 511 | 951 | 24.3 | 23.8 | 315 | 6 |
| 2010-01-14T11:43 | 521 | 950 | 24.2 | 23.7 | 315 | 6 |
| 2010-01-14T11:43 | 531 | 949 | 24.1 | 23.7 | 315 | 7 |
| 2010-01-14T11:43 | 541 | 948 | 24.0 | 23.7 | 315 | 7 |
| 2010-01-14T11:43 | 551 | 947 | 23.9 | 23.6 | 314 | 7 |
| 2010-01-14T11:43 | 560 | 946 | 23.9 | 23.6 | 314 | 7 |
| 2010-01-14T11:43 | 570 | 945 | 23.8 | 23.7 | 315 | 7 |
| 2010-01-14T11:43 | 580 | 944 | 23.7 | 23.7 | 315 | 7 |
| 2010-01-14T11:43 | 590 | 943 | 23.6 | 23.6 | 315 | 7 |
| 2010-01-14T11:43 | 600 | 941 | 23.5 | 23.4 | 316 | 7 |
| 2010-01-14T11:43 | 610 | 940 | 23.4 | 23.4 | 316 | 7 |
| 2010-01-14T11:43 | 620 | 939 | 23.4 | 23.3 | 317 | 7 |
| 2010-01-14T11:44 | 630 | 938 | 23.3 | 23.3 | 317 | 8 |
| 2010-01-14T11:44 | 639 | 937 | 23.2 | 23.2 | 317 | 8 |
| 2010-01-14T11:44 | 647 | 936 | 23.1 | 23.1 | 317 | 8 |
| 2010-01-14T11:44 | 655 | 936 | 23.1 | 23.1 | 317 | 8 |
| 2010-01-14T11:44 | 663 | 935 | 23.0 | 23.0 | 317 | 8 |
| 2010-01-14T11:44 | 672 | 934 | 22.9 | 22.9 | 316 | 8 |
| 2010-01-14T11:44 | 683 | 933 | 22.9 | 22.9 | 315 | 8 |
| 2010-01-14T11:44 | 692 | 932 | 22.8 | 22.8 | 315 | 8 |
| 2010-01-14T11:44 | 702 | 931 | 22.7 | 22.7 | 314 | 8 |
| 2010-01-14T11:44 | 711 | 930 | 22.6 | 22.6 | 313 | 8 |
| 2010-01-14T11:44 | 720 | 929 | 22.5 | 22.5 | 312 | 8 |
| 2010-01-14T11:44 | 729 | 928 | 22.5 | 22.5 | 311 | 8 |
| 2010-01-14T11:44 | 739 | 927 | 22.4 | 22.4 | 310 | 9 |
| 2010-01-14T11:44 | 749 | 926 | 22.3 | 22.3 | 310 | 9 |
| 2010-01-14T11:44 | 758 | 925 | 22.3 | 22.3 | 309 | 9 |
| 2010-01-14T11:44 | 768 | 924 | 22.2 | 22.2 | 309 | 9 |
| 2010-01-14T11:44 | 777 | 923 | 22.2 | 22.1 | 309 | 9 |
| 2010-01-14T11:44 | 786 | 922 | 22.2 | 22.0 | 308 | 9 |
| 2010-01-14T11:44 | 797 | 921 | 22.1 | 21.9 | 308 | 9 |
| 2010-01-14T11:44 | 808 | 919 | 22.1 | 21.8 | 308 | 9 |
| 2010-01-14T11:44 | 817 | 918 | 22.0 | 21.9 | 308 | 9 |
| 2010-01-14T11:44 | 826 | 918 | 22.0 | 22.0 | 307 | 9 |
| 2010-01-14T11:44 | 837 | 916 | 22.0 | 21.9 | 307 | 9 |
| 2010-01-14T11:44 | 848 | 915 | 21.9 | 21.8 | 307 | 9 |
| 2010-01-14T11:44 | 860 | 914 | 21.8 | 21.8 | 307 | 9 |
| 2010-01-14T11:44 | 871 | 913 | 21.7 | 21.7 | 307 | 9 |
| 2010-01-14T11:44 | 880 | 912 | 21.6 | 21.6 | 308 | 9 |
| 2010-01-14T11:44 | 890 | 911 | 21.6 | 21.6 | 308 | 9 |
| 2010-01-14T11:44 | 901 | 910 | 21.5 | 21.5 | 309 | 9 |
| 2010-01-14T11:44 | 912 | 909 | 21.5 | 21.5 | 310 | 9 |
| 2010-01-14T11:45 | 921 | 908 | 21.5 | 21.5 | 311 | 9 |
| 2010-01-14T11:45 | 931 | 907 | 21.5 | 21.5 | 312 | 8 |
| 2010-01-14T11:45 | 942 | 905 | 21.4 | 21.4 | 313 | 8 |
| 2010-01-14T11:45 | 953 | 904 | 21.4 | 21.4 | 314 | 8 |
| 2010-01-14T11:45 | 964 | 903 | 21.4 | 21.4 | 315 | 8 |
| 2010-01-14T11:45 | 975 | 902 | 21.4 | 21.4 | 316 | 9 |
| 2010-01-14T11:45 | 985 | 901 | 21.4 | 21.4 | 317 | 9 |
| 2010-01-14T11:45 | 994 | 900 | 21.4 | 21.4 | 318 | 9 |
| 2010-01-14T11:45 | 1005 | 899 | 21.4 | 21.4 | 318 | 9 |
| 2010-01-14T11:45 | 1018 | 898 | 21.4 | 21.4 | 319 | 9 |
| 2010-01-14T11:45 | 1030 | 896 | 21.5 | 21.5 | 319 | 10 |
| 2010-01-14T11:45 | 1044 | 895 | 21.6 | 21.6 | 319 | 10 |
| 2010-01-14T11:45 | 1057 | 893 | 21.7 | 21.6 | 319 | 10 |
| 2010-01-14T11:45 | 1070 | 892 | 21.5 | 21.4 | 318 | 11 |
| 2010-01-14T11:45 | 1083 | 891 | 21.4 | 21.2 | 318 | 11 |
| 2010-01-14T11:45 | 1094 | 890 | 21.3 | 20.9 | 318 | 11 |
| 2010-01-14T11:45 | 1104 | 889 | 21.0 | 20.7 | 317 | 11 |
| 2010-01-14T11:45 | 1115 | 888 | 21.1 | 20.7 | 317 | 12 |
| 2010-01-14T11:45 | 1127 | 886 | 21.4 | 20.6 | 316 | 12 |
| 2010-01-14T11:45 | 1139 | 885 | 21.6 | 20.5 | 316 | 12 |
| 2010-01-14T11:45 | 1151 | 884 | 21.5 | 20.3 | 316 | 12 |
| 2010-01-14T11:45 | 1161 | 883 | 21.3 | 20.2 | 315 | 12 |
| 2010-01-14T11:45 | 1171 | 882 | 21.2 | 20.1 | 315 | 12 |
| 2010-01-14T11:45 | 1181 | 881 | 21.3 | 20.1 | 315 | 12 |
| 2010-01-14T11:45 | 1192 | 880 | 21.4 | 20.0 | 316 | 12 |
| 2010-01-14T11:45 | 1202 | 879 | 21.4 | 19.9 | 316 | 12 |
| 2010-01-14T11:45 | 1213 | 878 | 21.4 | 19.7 | 316 | 12 |
| 2010-01-14T11:45 | 1224 | 877 | 21.3 | 19.6 | 316 | 12 |
| 2010-01-14T11:45 | 1235 | 875 | 21.2 | 19.5 | 317 | 13 |
| 2010-01-14T11:45 | 1245 | 874 | 21.1 | 19.5 | 317 | 13 |
| 2010-01-14T11:46 | 1256 | 873 | 21.0 | 19.4 | 317 | 13 |
| 2010-01-14T11:46 | 1267 | 872 | 20.9 | 19.4 | 318 | 13 |
| 2010-01-14T11:46 | 1279 | 871 | 20.8 | 19.4 | 318 | 13 |
| 2010-01-14T11:46 | 1292 | 870 | 20.6 | 19.3 | 318 | 13 |
| 2010-01-14T11:46 | 1306 | 868 | 20.6 | 19.3 | 318 | 13 |
| 2010-01-14T11:46 | 1318 | 867 | 20.5 | 19.2 | 318 | 13 |
| 2010-01-14T11:46 | 1331 | 866 | 20.3 | 19.2 | 318 | 13 |
| 2010-01-14T11:46 | 1343 | 865 | 20.3 | 19.1 | 318 | 13 |
| 2010-01-14T11:46 | 1355 | 863 | 20.5 | 19.0 | 318 | 13 |
| 2010-01-14T11:46 | 1367 | 862 | 20.8 | 18.8 | 318 | 13 |
| 2010-01-14T11:46 | 1381 | 861 | 20.8 | 18.5 | 318 | 13 |
| 2010-01-14T11:46 | 1394 | 860 | 20.7 | 18.3 | 318 | 13 |
| 2010-01-14T11:46 | 1405 | 858 | 20.6 | 18.2 | 318 | 13 |
| 2010-01-14T11:46 | 1416 | 857 | 20.4 | 18.2 | 318 | 13 |
| 2010-01-14T11:46 | 1426 | 856 | 20.3 | 18.2 | 319 | 13 |
| 2010-01-14T11:46 | 1434 | 856 | 20.2 | 18.6 | 319 | 14 |
| 2010-01-14T11:46 | 1442 | 855 | 20.0 | 19.2 | 319 | 14 |
| 2010-01-14T11:46 | 1449 | 854 | 19.9 | 19.6 | 318 | 14 |
| 2010-01-14T11:46 | 1455 | 854 | 19.8 | 19.7 | 318 | 14 |
| 2010-01-14T11:46 | 1463 | 853 | 19.6 | 19.6 | 318 | 14 |
| 2010-01-14T11:46 | 1472 | 852 | 19.5 | 19.5 | 318 | 14 |
| 2010-01-14T11:46 | 1483 | 851 | 19.3 | 19.3 | 318 | 14 |
| 2010-01-14T11:46 | 1493 | 850 | 19.1 | 19.1 | 317 | 14 |
| 2010-01-14T11:46 | 1504 | 849 | 19.0 | 19.0 | 317 | 14 |
| 2010-01-14T11:46 | 1514 | 848 | 19.0 | 18.6 | 316 | 14 |
| 2010-01-14T11:46 | 1523 | 847 | 18.9 | 18.3 | 316 | 14 |
| 2010-01-14T11:46 | 1533 | 846 | 18.8 | 18.4 | 315 | 14 |
| 2010-01-14T11:46 | 1542 | 845 | 18.7 | 18.4 | 315 | 14 |
| 2010-01-14T11:46 | 1551 | 844 | 18.7 | 18.3 | 314 | 14 |
| 2010-01-14T11:46 | 1563 | 843 | 18.7 | 18.3 | 314 | 14 |
| 2010-01-14T11:47 | 1574 | 842 | 18.6 | 18.1 | 313 | 14 |
| 2010-01-14T11:47 | 1585 | 841 | 18.5 | 18.3 | 313 | 14 |
| 2010-01-14T11:47 | 1597 | 840 | 18.8 | 18.3 | 313 | 15 |
| 2010-01-14T11:47 | 1608 | 838 | 19.1 | 18.2 | 312 | 15 |
| 2010-01-14T11:47 | 1621 | 837 | 19.0 | 18.0 | 312 | 15 |
| 2010-01-14T11:47 | 1633 | 836 | 19.0 | 17.8 | 311 | 15 |
| 2010-01-14T11:47 | 1645 | 835 | 18.9 | 17.6 | 310 | 15 |
| 2010-01-14T11:47 | 1657 | 834 | 18.7 | 17.6 | 310 | 15 |
| 2010-01-14T11:47 | 1670 | 833 | 18.6 | 17.6 | 309 | 15 |
| 2010-01-14T11:47 | 1682 | 831 | 18.5 | 17.3 | 309 | 15 |
| 2010-01-14T11:47 | 1696 | 830 | 18.4 | 17.0 | 308 | 15 |
| 2010-01-14T11:47 | 1709 | 829 | 18.4 | 16.7 | 307 | 15 |
| 2010-01-14T11:47 | 1722 | 828 | 18.3 | 16.7 | 307 | 15 |
| 2010-01-14T11:47 | 1733 | 826 | 18.2 | 16.6 | 307 | 15 |
| 2010-01-14T11:47 | 1745 | 825 | 18.2 | 16.6 | 306 | 15 |
| 2010-01-14T11:47 | 1757 | 824 | 18.2 | 16.5 | 306 | 15 |
| 2010-01-14T11:47 | 1771 | 823 | 18.1 | 16.4 | 306 | 15 |
| 2010-01-14T11:47 | 1785 | 822 | 18.0 | 16.2 | 306 | 15 |
| 2010-01-14T11:47 | 1797 | 820 | 17.9 | 16.0 | 306 | 15 |
| 2010-01-14T11:47 | 1809 | 819 | 17.8 | 15.9 | 306 | 15 |
| 2010-01-14T11:47 | 1822 | 818 | 17.7 | 15.9 | 306 | 14 |
| 2010-01-14T11:47 | 1835 | 817 | 17.6 | 15.8 | 306 | 14 |
| 2010-01-14T11:47 | 1846 | 816 | 17.5 | 15.7 | 306 | 14 |
| 2010-01-14T11:47 | 1858 | 815 | 17.3 | 15.8 | 306 | 14 |
| 2010-01-14T11:47 | 1870 | 813 | 17.3 | 15.8 | 306 | 14 |
| 2010-01-14T11:47 | 1883 | 812 | 17.5 | 15.6 | 305 | 14 |
| 2010-01-14T11:47 | 1897 | 811 | 17.6 | 15.4 | 305 | 13 |
| 2010-01-14T11:47 | 1909 | 810 | 17.6 | 15.2 | 305 | 13 |
| 2010-01-14T11:47 | 1921 | 809 | 17.5 | 15.1 | 305 | 13 |
| 2010-01-14T11:47 | 1932 | 808 | 17.5 | 14.9 | 304 | 13 |
| 2010-01-14T11:48 | 1944 | 806 | 17.5 | 14.8 | 304 | 13 |
| 2010-01-14T11:48 | 1955 | 805 | 17.4 | 14.8 | 304 | 13 |
| 2010-01-14T11:48 | 1966 | 804 | 17.3 | 14.7 | 304 | 13 |
| 2010-01-14T11:48 | 1978 | 803 | 17.3 | 14.5 | 304 | 13 |
| 2010-01-14T11:48 | 1991 | 802 | 17.3 | 14.3 | 303 | 13 |
| 2010-01-14T11:48 | 2002 | 801 | 17.7 | 13.7 | 303 | 13 |
| 2010-01-14T11:48 | 2046 | 797 | 18.4 | 11.8 | 301 | 14 |
| 2010-01-14T11:48 | 2102 | 792 | 18.5 | 11.3 | 296 | 14 |
| 2010-01-14T11:48 | 2155 | 787 | 18.4 | 10.3 | 292 | 14 |
| 2010-01-14T11:48 | 2197 | 783 | 18.3 | 9.8 | 288 | 12 |
| 2010-01-14T11:49 | 2231 | 780 | 18.3 | 9.7 | 289 | 12 |
| 2010-01-14T11:49 | 2273 | 776 | 18.0 | 9.4 | 292 | 11 |
| 2010-01-14T11:49 | 2322 | 772 | 17.9 | 9.1 | 288 | 10 |
| 2010-01-14T11:49 | 2371 | 767 | 17.6 | 8.6 | 278 | 9 |
| 2010-01-14T11:49 | 2420 | 763 | 17.2 | 8.4 | 273 | 9 |
| 2010-01-14T11:49 | 2474 | 758 | 16.7 | 8.2 | 274 | 9 |
| 2010-01-14T11:50 | 2521 | 754 | 16.4 | 8.0 | 274 | 9 |
| 2010-01-14T11:50 | 2566 | 750 | 15.9 | 7.7 | 273 | 9 |
| 2010-01-14T11:50 | 2610 | 746 | 15.5 | 7.7 | 274 | 9 |
| 2010-01-14T11:50 | 2652 | 742 | 15.1 | 7.6 | 276 | 9 |
| 2010-01-14T11:50 | 2694 | 739 | 14.8 | 7.5 | 275 | 9 |
| 2010-01-14T11:50 | 2745 | 734 | 14.3 | 7.3 | 274 | 9 |
| 2010-01-14T11:51 | 2800 | 729 | 13.8 | 7.1 | 273 | 9 |
| 2010-01-14T11:51 | 2853 | 725 | 13.3 | 7.1 | 272 | 9 |
| 2010-01-14T11:51 | 2894 | 721 | 13.0 | 6.9 | 270 | 9 |
| 2010-01-14T11:51 | 2935 | 718 | 12.6 | 6.8 | 267 | 9 |
| 2010-01-14T11:51 | 2976 | 714 | 12.3 | 6.7 | 265 | 9 |
| 2010-01-14T11:51 | 3020 | 711 | 11.9 | 6.6 | 265 | 9 |
| 2010-01-14T11:52 | 3065 | 707 | 11.6 | 6.4 | 268 | 9 |
| 2010-01-14T11:52 | 3103 | 704 | 11.6 | 6.5 | 273 | 9 |
| 2010-01-14T11:52 | 3142 | 700 | 11.2 | 6.5 | 276 | 9 |
| 2010-01-14T11:52 | 3180 | 697 | 11.0 | 6.6 | 276 | 9 |
| 2010-01-14T11:52 | 3228 | 693 | 10.8 | 6.3 | 276 | 10 |
| 2010-01-14T11:52 | 3273 | 690 | 10.5 | 5.9 | 275 | 9 |
| 2010-01-14T11:53 | 3316 | 686 | 10.4 | 5.9 | 274 | 9 |
| 2010-01-14T11:53 | 3353 | 683 | 10.4 | 4.8 | 272 | 9 |
| 2010-01-14T11:53 | 3390 | 680 | 10.1 | 4.5 | 269 | 8 |
| 2010-01-14T11:53 | 3441 | 676 | 9.8 | 4.1 | 267 | 7 |
| 2010-01-14T11:53 | 3493 | 672 | 9.5 | 4.4 | 265 | 6 |
| 2010-01-14T11:53 | 3533 | 668 | 9.1 | 4.3 | 265 | 6 |
| 2010-01-14T11:54 | 3568 | 666 | 8.8 | 4.3 | 265 | 7 |
| 2010-01-14T11:54 | 3606 | 662 | 8.4 | 4.4 | 266 | 7 |
| 2010-01-14T11:54 | 3644 | 659 | 8.1 | 4.4 | 267 | 7 |
| 2010-01-14T11:54 | 3679 | 657 | 7.8 | 4.4 | 268 | 7 |
| 2010-01-14T11:54 | 3715 | 654 | 7.4 | 4.0 | 268 | 7 |
| 2010-01-14T11:54 | 3750 | 651 | 7.2 | 4.3 | 269 | 7 |
| 2010-01-14T11:55 | 3788 | 648 | 6.9 | 4.3 | 270 | 7 |
| 2010-01-14T11:55 | 3825 | 645 | 6.5 | 4.1 | 271 | 7 |
| 2010-01-14T11:55 | 3861 | 642 | 6.2 | 4.0 | 270 | 7 |
| 2010-01-14T11:55 | 3899 | 639 | 5.9 | 4.2 | 266 | 6 |
| 2010-01-14T11:55 | 3949 | 635 | 5.7 | 4.5 | 259 | 6 |
| 2010-01-14T11:55 | 4018 | 630 | 5.3 | 4.5 | 250 | 5 |
| 2010-01-14T11:56 | 4068 | 626 | 4.8 | 4.4 | 240 | 5 |
| 2010-01-14T11:56 | 4126 | 622 | 4.4 | 4.2 | 230 | 4 |
| 2010-01-14T11:56 | 4174 | 618 | 4.1 | 4.0 | 221 | 4 |
| 2010-01-14T11:56 | 4216 | 615 | 3.9 | 3.9 | 215 | 4 |
| 2010-01-14T11:56 | 4257 | 612 | 3.7 | 3.7 | 209 | 4 |
| 2010-01-14T11:56 | 4302 | 609 | 3.5 | 3.5 | 203 | 5 |
| 2010-01-14T11:57 | 4352 | 605 | 3.2 | 3.2 | 197 | 5 |
| 2010-01-14T11:57 | 4389 | 602 | 3.1 | 3.1 | 188 | 4 |
| 2010-01-14T11:57 | 4430 | 599 | 2.9 | 2.9 | 176 | 5 |
| 2010-01-14T11:57 | 4480 | 595 | 2.8 | 2.4 | 164 | 5 |
| 2010-01-14T11:57 | 4523 | 592 | 2.5 | 2.2 | 158 | 6 |
| 2010-01-14T11:57 | 4566 | 589 | 2.3 | 2.0 | 153 | 7 |
| 2010-01-14T11:58 | 4618 | 585 | 2.1 | 1.5 | 148 | 7 |
| 2010-01-14T11:58 | 4655 | 583 | 2.0 | 1.3 | 141 | 7 |
| 2010-01-14T11:58 | 4692 | 580 | 2.1 | 0.7 | 137 | 7 |
| 2010-01-14T11:58 | 4731 | 577 | 2.0 | 0.4 | 137 | 6 |
| 2010-01-14T11:58 | 4765 | 575 | 1.7 | 0.5 | 137 | 6 |
| 2010-01-14T11:58 | 4802 | 572 | 1.5 | 0.3 | 136 | 6 |
| 2010-01-14T11:59 | 4838 | 570 | 1.2 | 0.2 | 134 | 6 |
| 2010-01-14T11:59 | 4873 | 567 | 1.0 | 0.2 | 133 | 6 |
| 2010-01-14T11:59 | 4908 | 565 | 0.8 | -0.1 | 135 | 6 |
| 2010-01-14T11:59 | 4944 | 562 | 0.6 | -0.1 | 138 | 6 |
| 2010-01-14T11:59 | 4979 | 560 | 0.3 | -0.2 | 142 | 6 |
| 2010-01-14T11:59 | 5015 | 557 | 0.3 | -0.4 | 147 | 6 |
| 2010-01-14T12:00 | 5054 | 555 | 0.2 | -0.9 | 152 | 6 |
| 2010-01-14T12:00 | 5091 | 552 | -0.1 | -1.3 | 157 | 6 |
| 2010-01-14T12:00 | 5127 | 550 | -0.2 | -1.1 | 165 | 6 |
| 2010-01-14T12:00 | 5162 | 547 | -0.1 | -1.0 | 175 | 6 |
| 2010-01-14T12:00 | 5199 | 545 | 0.0 | -1.5 | 184 | 6 |
| 2010-01-14T12:00 | 5237 | 542 | -0.2 | -1.9 | 190 | 6 |
| 2010-01-14T12:01 | 5277 | 539 | -0.4 | -2.2 | 193 | 6 |
| 2010-01-14T12:01 | 5318 | 537 | -0.6 | -2.5 | 196 | 6 |
| 2010-01-14T12:01 | 5357 | 534 | -0.7 | -2.3 | 198 | 7 |
| 2010-01-14T12:01 | 5397 | 531 | -0.9 | -2.5 | 198 | 7 |
| 2010-01-14T12:01 | 5437 | 529 | -1.1 | -2.7 | 198 | 7 |
| 2010-01-14T12:01 | 5478 | 526 | -1.4 | -2.8 | 198 | 7 |
| 2010-01-14T12:02 | 5517 | 523 | -1.6 | -3.3 | 197 | 7 |
| 2010-01-14T12:02 | 5556 | 521 | -1.9 | -3.2 | 198 | 7 |
| 2010-01-14T12:02 | 5595 | 518 | -1.9 | -3.3 | 200 | 8 |
| 2010-01-14T12:02 | 5635 | 516 | -2.0 | -3.7 | 203 | 8 |
| 2010-01-14T12:02 | 5675 | 513 | -2.1 | -4.0 | 206 | 8 |
| 2010-01-14T12:02 | 5715 | 511 | -2.2 | -4.3 | 208 | 8 |
| 2010-01-14T12:03 | 5756 | 508 | -2.4 | -4.8 | 208 | 8 |
| 2010-01-14T12:03 | 5800 | 505 | -2.7 | -4.9 | 207 | 7 |
| 2010-01-14T12:03 | 5841 | 502 | -3.1 | -5.3 | 206 | 7 |
| 2010-01-14T12:03 | 5885 | 500 | -3.3 | -5.5 | 205 | 7 |
| 2010-01-14T12:03 | 5928 | 497 | -3.6 | -5.7 | 203 | 6 |
| 2010-01-14T12:03 | 5972 | 494 | -3.9 | -6.2 | 200 | 6 |
| 2010-01-14T12:04 | 6017 | 491 | -4.2 | -6.0 | 196 | 6 |
| 2010-01-14T12:04 | 6064 | 489 | -4.5 | -6.0 | 193 | 7 |
| 2010-01-14T12:04 | 6113 | 486 | -4.7 | -6.4 | 192 | 7 |
| 2010-01-14T12:04 | 6162 | 482 | -5.0 | -6.6 | 191 | 7 |
| 2010-01-14T12:04 | 6209 | 480 | -5.4 | -6.9 | 190 | 7 |
| 2010-01-14T12:04 | 6261 | 476 | -5.6 | -7.2 | 186 | 6 |
| 2010-01-14T12:05 | 6320 | 473 | -6.0 | -7.4 | 179 | 6 |
| 2010-01-14T12:05 | 6375 | 470 | -6.4 | -7.7 | 171 | 5 |
| 2010-01-14T12:05 | 6420 | 467 | -6.8 | -7.8 | 164 | 5 |
| 2010-01-14T12:05 | 6464 | 464 | -7.1 | -8.0 | 160 | 5 |
| 2010-01-14T12:05 | 6510 | 462 | -7.3 | -8.3 | 159 | 5 |
| 2010-01-14T12:05 | 6556 | 459 | -7.6 | -8.7 | 158 | 5 |
| 2010-01-14T12:06 | 6605 | 456 | -8.0 | -8.7 | 156 | 5 |
| 2010-01-14T12:06 | 6651 | 453 | -8.3 | -9.2 | 152 | 4 |
| 2010-01-14T12:06 | 6697 | 451 | -8.5 | -9.7 | 148 | 4 |
| 2010-01-14T12:06 | 6741 | 448 | -8.8 | -10.4 | 145 | 3 |
| 2010-01-14T12:06 | 6799 | 445 | -9.1 | -10.5 | 136 | 3 |
| 2010-01-14T12:06 | 6846 | 442 | -9.5 | -10.8 | 124 | 3 |
| 2010-01-14T12:07 | 6887 | 440 | -9.9 | -11.1 | 121 | 4 |
| 2010-01-14T12:07 | 6925 | 437 | -10.0 | -11.2 | 125 | 4 |
| 2010-01-14T12:07 | 6961 | 435 | -10.2 | -11.3 | 128 | 5 |
| 2010-01-14T12:07 | 7002 | 433 | -10.4 | -11.6 | 128 | 5 |
| 2010-01-14T12:07 | 7040 | 431 | -10.6 | -12.2 | 125 | 6 |
| 2010-01-14T12:07 | 7076 | 429 | -10.9 | -12.6 | 124 | 6 |
| 2010-01-14T12:08 | 7112 | 427 | -11.1 | -12.7 | 124 | 6 |
| 2010-01-14T12:08 | 7149 | 425 | -11.4 | -12.8 | 125 | 6 |
| 2010-01-14T12:08 | 7185 | 423 | -11.6 | -13.1 | 123 | 6 |
| 2010-01-14T12:08 | 7222 | 421 | -11.8 | -13.0 | 119 | 6 |
| 2010-01-14T12:08 | 7258 | 419 | -12.1 | -13.1 | 115 | 6 |
| 2010-01-14T12:08 | 7295 | 417 | -12.4 | -13.4 | 113 | 6 |
| 2010-01-14T12:09 | 7331 | 415 | -12.6 | -13.3 | 114 | 6 |
| 2010-01-14T12:09 | 7367 | 413 | -12.7 | -13.8 | 116 | 7 |
| 2010-01-14T12:09 | 7403 | 411 | -12.8 | -14.4 | 119 | 7 |
| 2010-01-14T12:09 | 7442 | 409 | -13.0 | -14.9 | 121 | 8 |
| 2010-01-14T12:09 | 7479 | 407 | -13.1 | -15.6 | 123 | 8 |
| 2010-01-14T12:09 | 7516 | 405 | -13.4 | -16.1 | 124 | 8 |
| 2010-01-14T12:10 | 7553 | 403 | -13.5 | -16.1 | 123 | 8 |
| 2010-01-14T12:10 | 7591 | 401 | -13.8 | -16.3 | 122 | 8 |
| 2010-01-14T12:10 | 7634 | 399 | -14.1 | -16.6 | 122 | 9 |
| 2010-01-14T12:10 | 7676 | 397 | -14.5 | -16.8 | 124 | 9 |
| 2010-01-14T12:10 | 7717 | 394 | -14.9 | -16.9 | 125 | 9 |
| 2010-01-14T12:10 | 7765 | 392 | -15.4 | -17.1 | 126 | 10 |
| 2010-01-14T12:11 | 7804 | 390 | -15.7 | -17.0 | 126 | 10 |
| 2010-01-14T12:11 | 7842 | 388 | -15.9 | -17.1 | 125 | 10 |
| 2010-01-14T12:11 | 7880 | 386 | -16.0 | -17.6 | 123 | 10 |
| 2010-01-14T12:11 | 7919 | 384 | -16.2 | -18.0 | 120 | 10 |
| 2010-01-14T12:11 | 7958 | 382 | -16.5 | -18.2 | 118 | 10 |
| 2010-01-14T12:11 | 7998 | 380 | -16.7 | -18.8 | 116 | 10 |
| 2010-01-14T12:12 | 8048 | 378 | -17.1 | -19.0 | 115 | 10 |
| 2010-01-14T12:12 | 8095 | 375 | -17.1 | -19.9 | 114 | 11 |
| 2010-01-14T12:12 | 8141 | 373 | -17.4 | -20.5 | 113 | 11 |
| 2010-01-14T12:12 | 8185 | 371 | -17.7 | -20.7 | 112 | 11 |
| 2010-01-14T12:12 | 8226 | 369 | -18.0 | -21.0 | 110 | 11 |
| 2010-01-14T12:12 | 8267 | 367 | -18.2 | -21.7 | 108 | 11 |
| 2010-01-14T12:13 | 8316 | 364 | -18.5 | -21.8 | 104 | 11 |
| 2010-01-14T12:13 | 8368 | 362 | -18.9 | -22.2 | 100 | 11 |
| 2010-01-14T12:13 | 8409 | 360 | -19.1 | -22.4 | 98 | 11 |
| 2010-01-14T12:13 | 8451 | 358 | -19.4 | -22.6 | 98 | 11 |
| 2010-01-14T12:13 | 8489 | 356 | -19.7 | -22.8 | 98 | 11 |
| 2010-01-14T12:13 | 8531 | 354 | -20.0 | -23.2 | 97 | 12 |
| 2010-01-14T12:14 | 8573 | 352 | -20.3 | -23.3 | 96 | 12 |
| 2010-01-14T12:14 | 8614 | 350 | -20.6 | -23.4 | 96 | 12 |
| 2010-01-14T12:14 | 8659 | 348 | -20.9 | -23.7 | 97 | 12 |
| 2010-01-14T12:14 | 8704 | 346 | -21.3 | -24.1 | 97 | 12 |
| 2010-01-14T12:14 | 8748 | 344 | -21.6 | -24.5 | 96 | 12 |
| 2010-01-14T12:14 | 8796 | 341 | -22.0 | -25.0 | 94 | 12 |
| 2010-01-14T12:15 | 8848 | 339 | -22.3 | -26.0 | 93 | 13 |
| 2010-01-14T12:15 | 8912 | 336 | -22.8 | -26.6 | 93 | 13 |
| 2010-01-14T12:15 | 8975 | 333 | -23.4 | -26.9 | 90 | 13 |
| 2010-01-14T12:15 | 9027 | 331 | -23.9 | -27.0 | 86 | 12 |
| 2010-01-14T12:15 | 9073 | 329 | -24.3 | -27.1 | 84 | 13 |
| 2010-01-14T12:15 | 9116 | 327 | -24.8 | -27.3 | 85 | 13 |
| 2010-01-14T12:16 | 9166 | 325 | -25.2 | -27.6 | 86 | 14 |
| 2010-01-14T12:16 | 9211 | 323 | -25.6 | -27.7 | 88 | 13 |
| 2010-01-14T12:16 | 9245 | 321 | -26.0 | -27.9 | 91 | 13 |
| 2010-01-14T12:16 | 9290 | 319 | -26.4 | -27.9 | 92 | 13 |
| 2010-01-14T12:16 | 9344 | 317 | -26.9 | -28.3 | 90 | 13 |
| 2010-01-14T12:16 | 9398 | 314 | -27.2 | -29.0 | 89 | 12 |
| 2010-01-14T12:17 | 9463 | 312 | -27.9 | -29.5 | 90 | 12 |
| 2010-01-14T12:17 | 9508 | 310 | -28.3 | -28.8 | 92 | 12 |
| 2010-01-14T12:17 | 9558 | 307 | -28.6 | -29.2 | 92 | 12 |
| 2010-01-14T12:17 | 9604 | 305 | -28.8 | -29.6 | 91 | 12 |
| 2010-01-14T12:17 | 9658 | 303 | -29.1 | -29.9 | 90 | 12 |
| 2010-01-14T12:17 | 9718 | 301 | -29.2 | -33.1 | 89 | 13 |
| 2010-01-14T12:18 | 9763 | 299 | -29.0 | -36.8 | 89 | 13 |
| 2010-01-14T12:18 | 9805 | 297 | -29.4 | -37.8 | 88 | 13 |
| 2010-01-14T12:18 | 9846 | 295 | -29.7 | -38.6 | 88 | 13 |
| 2010-01-14T12:18 | 9885 | 294 | -30.1 | -38.9 | 88 | 13 |
| 2010-01-14T12:18 | 9928 | 292 | -30.5 | -38.8 | 89 | 13 |
| 2010-01-14T12:18 | 9969 | 290 | -30.8 | -37.1 | 89 | 13 |
| 2010-01-14T12:19 | 10010 | 289 | -31.2 | -36.0 | 90 | 13 |
| 2010-01-14T12:19 | 10048 | 287 | -31.6 | -35.9 | 90 | 13 |
| 2010-01-14T12:19 | 10088 | 285 | -31.9 | -36.3 | 89 | 13 |
| 2010-01-14T12:19 | 10129 | 284 | -32.3 | -36.7 | 89 | 13 |
| 2010-01-14T12:19 | 10168 | 282 | -32.6 | -37.0 | 89 | 14 |
| 2010-01-14T12:19 | 10207 | 281 | -33.0 | -37.0 | 90 | 14 |
| 2010-01-14T12:20 | 10247 | 279 | -33.4 | -37.0 | 90 | 14 |
| 2010-01-14T12:20 | 10288 | 277 | -33.8 | -37.4 | 90 | 14 |
| 2010-01-14T12:20 | 10328 | 276 | -34.1 | -37.8 | 91 | 14 |
| 2010-01-14T12:20 | 10369 | 274 | -34.4 | -38.4 | 93 | 14 |
| 2010-01-14T12:20 | 10409 | 273 | -34.7 | -38.3 | 95 | 14 |
| 2010-01-14T12:20 | 10449 | 271 | -35.0 | -38.1 | 97 | 14 |
| 2010-01-14T12:21 | 10491 | 269 | -35.3 | -38.3 | 99 | 14 |
| 2010-01-14T12:21 | 10532 | 268 | -35.5 | -39.3 | 101 | 14 |
| 2010-01-14T12:21 | 10572 | 266 | -35.7 | -39.9 | 102 | 14 |
| 2010-01-14T12:21 | 10614 | 265 | -36.0 | -40.2 | 102 | 14 |
| 2010-01-14T12:21 | 10654 | 263 | -36.4 | -40.4 | 101 | 14 |
| 2010-01-14T12:21 | 10699 | 261 | -36.6 | -40.7 | 100 | 15 |
| 2010-01-14T12:22 | 10748 | 260 | -36.8 | -41.9 | 99 | 16 |
| 2010-01-14T12:22 | 10800 | 258 | -37.2 | -44.1 | 100 | 16 |
| 2010-01-14T12:22 | 10858 | 256 | -37.7 | -44.5 | 102 | 17 |
| 2010-01-14T12:22 | 10932 | 253 | -38.5 | -44.2 | 103 | 17 |
| 2010-01-14T12:22 | 10972 | 251 | -38.8 | -44.5 | 103 | 18 |
| 2010-01-14T12:22 | 11007 | 250 | -39.2 | -45.0 | 102 | 19 |
| 2010-01-14T12:23 | 11044 | 249 | -39.6 | -45.1 | 102 | 19 |
| 2010-01-14T12:23 | 11084 | 247 | -39.9 | -45.2 | 102 | 18 |
| 2010-01-14T12:23 | 11121 | 246 | -40.3 | -45.2 | 102 | 18 |
| 2010-01-14T12:23 | 11160 | 245 | -40.6 | -45.4 | 101 | 19 |
| 2010-01-14T12:23 | 11205 | 243 | -41.0 | -45.4 | 99 | 19 |
| 2010-01-14T12:23 | 11245 | 241 | -41.4 | -45.5 | 97 | 20 |
| 2010-01-14T12:24 | 11284 | 240 | -41.6 | -45.6 | 95 | 20 |
| 2010-01-14T12:24 | 11325 | 239 | -41.8 | -45.7 | 93 | 20 |
| 2010-01-14T12:24 | 11364 | 237 | -42.1 | -45.8 | 91 | 20 |
| 2010-01-14T12:24 | 11403 | 236 | -42.4 | -46.0 | 90 | 20 |
| 2010-01-14T12:24 | 11443 | 235 | -42.7 | -46.3 | 90 | 19 |
| 2010-01-14T12:24 | 11482 | 233 | -43.0 | -46.7 | 90 | 19 |
| 2010-01-14T12:25 | 11520 | 232 | -43.4 | -47.3 | 90 | 19 |
| 2010-01-14T12:25 | 11558 | 231 | -43.7 | -47.8 | 90 | 20 |
| 2010-01-14T12:25 | 11597 | 229 | -44.0 | -48.0 | 90 | 20 |
| 2010-01-14T12:25 | 11636 | 228 | -44.3 | -48.5 | 89 | 20 |
| 2010-01-14T12:25 | 11675 | 227 | -44.6 | -48.9 | 88 | 20 |
| 2010-01-14T12:25 | 11710 | 225 | -44.9 | -49.1 | 87 | 20 |
| 2010-01-14T12:26 | 11750 | 224 | -45.2 | -49.3 | 86 | 20 |
| 2010-01-14T12:26 | 11788 | 223 | -45.5 | -49.6 | 86 | 20 |
| 2010-01-14T12:26 | 11827 | 221 | -45.9 | -50.1 | 86 | 20 |
| 2010-01-14T12:26 | 11866 | 220 | -46.3 | -50.5 | 85 | 20 |
| 2010-01-14T12:26 | 11906 | 219 | -46.6 | -50.7 | 83 | 20 |
| 2010-01-14T12:26 | 11951 | 217 | -47.1 | -51.1 | 81 | 20 |
| 2010-01-14T12:27 | 11993 | 216 | -47.4 | -51.4 | 80 | 20 |
| 2010-01-14T12:27 | 12035 | 215 | -47.7 | -51.7 | 78 | 20 |
| 2010-01-14T12:27 | 12078 | 213 | -48.1 | -52.1 | 76 | 21 |
| 2010-01-14T12:27 | 12119 | 212 | -48.4 | -52.5 | 75 | 21 |
| 2010-01-14T12:27 | 12158 | 211 | -48.8 | -52.8 | 73 | 21 |
| 2010-01-14T12:27 | 12198 | 209 | -49.1 | -53.1 | 72 | 21 |
| 2010-01-14T12:28 | 12239 | 208 | -49.5 | -53.3 | 71 | 22 |
| 2010-01-14T12:28 | 12280 | 207 | -49.8 | -53.8 | 70 | 22 |
| 2010-01-14T12:28 | 12319 | 206 | -50.2 | -54.4 | 69 | 22 |
| 2010-01-14T12:28 | 12356 | 204 | -50.5 | -54.9 | 69 | 23 |
| 2010-01-14T12:28 | 12394 | 203 | -50.9 | -55.3 | 68 | 23 |
| 2010-01-14T12:28 | 12430 | 202 | -51.2 | -55.8 | 68 | 23 |
| 2010-01-14T12:29 | 12466 | 201 | -51.5 | -56.4 | 68 | 22 |
| 2010-01-14T12:29 | 12505 | 200 | -51.8 | -56.9 | 68 | 22 |
| 2010-01-14T12:29 | 12544 | 199 | -52.2 | -57.4 | 68 | 22 |
| 2010-01-14T12:29 | 12582 | 197 | -52.6 | -57.8 | 68 | 22 |
| 2010-01-14T12:29 | 12622 | 196 | -53.0 | -58.2 | 69 | 22 |
| 2010-01-14T12:29 | 12661 | 195 | -53.3 | -58.4 | 69 | 22 |
| 2010-01-14T12:30 | 12702 | 194 | -53.7 | -58.7 | 69 | 22 |
| 2010-01-14T12:30 | 12742 | 192 | -54.1 | -58.8 | 70 | 22 |
| 2010-01-14T12:30 | 12781 | 191 | -54.5 | -59.0 | 70 | 22 |
| 2010-01-14T12:30 | 12821 | 190 | -54.9 | -59.4 | 70 | 22 |
| 2010-01-14T12:30 | 12862 | 189 | -55.3 | -59.8 | 70 | 22 |
| 2010-01-14T12:30 | 12901 | 188 | -55.6 | -60.2 | 71 | 22 |
| 2010-01-14T12:31 | 12941 | 187 | -56.0 | -60.6 | 71 | 22 |
| 2010-01-14T12:31 | 12982 | 185 | -56.4 | -61.0 | 71 | 22 |
| 2010-01-14T12:31 | 13024 | 184 | -56.8 | -61.4 | 71 | 22 |
| 2010-01-14T12:31 | 13065 | 183 | -57.2 | -61.8 | 71 | 23 |
| 2010-01-14T12:31 | 13109 | 182 | -57.6 | -62.1 | 71 | 23 |
| 2010-01-14T12:31 | 13153 | 180 | -58.0 | -62.5 | 70 | 23 |
| 2010-01-14T12:32 | 13194 | 179 | -58.4 | -62.8 | 70 | 24 |
| 2010-01-14T12:32 | 13237 | 178 | -58.8 | -63.2 | 70 | 24 |
| 2010-01-14T12:32 | 13280 | 177 | -59.2 | -63.6 | 71 | 25 |
| 2010-01-14T12:32 | 13323 | 176 | -59.5 | -63.9 | 72 | 25 |
| 2010-01-14T12:32 | 13366 | 174 | -59.8 | -64.3 | 73 | 25 |
| 2010-01-14T12:32 | 13413 | 173 | -60.3 | -64.7 | 74 | 25 |
| 2010-01-14T12:33 | 13459 | 172 | -60.7 | -65.1 | 75 | 24 |
| 2010-01-14T12:33 | 13506 | 171 | -61.1 | -65.4 | 77 | 24 |
| 2010-01-14T12:33 | 13553 | 169 | -61.5 | -65.7 | 77 | 24 |
| 2010-01-14T12:33 | 13600 | 168 | -62.0 | -66.0 | 78 | 24 |
| 2010-01-14T12:33 | 13646 | 167 | -62.4 | -66.4 | 78 | 24 |
| 2010-01-14T12:33 | 13691 | 166 | -62.8 | -66.9 | 78 | 24 |
| 2010-01-14T12:34 | 13736 | 164 | -63.1 | -67.4 | 77 | 24 |
| 2010-01-14T12:34 | 13780 | 163 | -63.5 | -68.0 | 77 | 24 |
| 2010-01-14T12:34 | 13827 | 162 | -63.9 | -68.5 | 77 | 24 |
| 2010-01-14T12:34 | 13874 | 161 | -64.4 | -68.9 | 77 | 24 |
| 2010-01-14T12:34 | 13919 | 159 | -64.8 | -69.3 | 77 | 23 |
| 2010-01-14T12:34 | 13963 | 158 | -65.2 | -69.7 | 77 | 23 |
| 2010-01-14T12:35 | 14009 | 157 | -65.7 | -70.1 | 78 | 23 |
| 2010-01-14T12:35 | 14056 | 156 | -66.1 | -70.6 | 79 | 23 |
| 2010-01-14T12:35 | 14099 | 155 | -66.5 | -71.0 | 79 | 23 |
| 2010-01-14T12:35 | 14143 | 154 | -66.9 | -71.4 | 79 | 23 |
| 2010-01-14T12:35 | 14187 | 153 | -67.3 | -71.8 | 79 | 23 |
| 2010-01-14T12:35 | 14230 | 151 | -67.8 | -72.2 | 79 | 23 |
| 2010-01-14T12:36 | 14271 | 150 | -68.1 | -72.5 | 79 | 23 |
| 2010-01-14T12:36 | 14314 | 149 | -68.4 | -72.8 | 79 | 22 |
| 2010-01-14T12:36 | 14357 | 148 | -68.6 | -73.1 | 79 | 22 |
| 2010-01-14T12:36 | 14399 | 147 | -68.9 | -73.5 | 78 | 22 |
| 2010-01-14T12:36 | 14441 | 146 | -69.3 | -73.9 | 78 | 22 |
| 2010-01-14T12:36 | 14483 | 145 | -69.6 | -74.2 | 79 | 22 |
| 2010-01-14T12:37 | 14526 | 144 | -69.9 | -74.6 | 79 | 22 |
| 2010-01-14T12:37 | 14568 | 143 | -70.2 | -75.0 | 80 | 23 |
| 2010-01-14T12:37 | 14611 | 142 | -70.6 | -75.5 | 80 | 23 |
| 2010-01-14T12:37 | 14653 | 141 | -71.0 | -75.8 | 80 | 24 |
| 2010-01-14T12:37 | 14696 | 140 | -71.4 | -76.3 | 80 | 24 |
| 2010-01-14T12:37 | 14742 | 139 | -71.8 | -76.7 | 81 | 24 |
| 2010-01-14T12:38 | 14790 | 138 | -72.2 | -77.0 | 82 | 25 |
| 2010-01-14T12:38 | 14838 | 137 | -72.7 | -77.4 | 83 | 25 |
| 2010-01-14T12:38 | 14881 | 136 | -73.1 | -77.7 | 85 | 26 |
| 2010-01-14T12:38 | 14924 | 135 | -73.3 | -77.9 | 86 | 25 |
| 2010-01-14T12:38 | 14966 | 134 | -73.7 | -78.2 | 86 | 25 |
| 2010-01-14T12:38 | 15009 | 133 | -74.1 | -78.6 | 87 | 25 |
| 2010-01-14T12:39 | 15053 | 132 | -74.4 | -78.9 | 88 | 26 |
| 2010-01-14T12:39 | 15095 | 131 | -74.8 | -79.2 | 89 | 26 |
| 2010-01-14T12:39 | 15136 | 130 | -75.2 | -79.6 | 89 | 26 |
| 2010-01-14T12:39 | 15181 | 129 | -75.6 | -80.0 | 89 | 26 |
| 2010-01-14T12:39 | 15223 | 128 | -75.9 | -80.3 | 90 | 26 |
| 2010-01-14T12:39 | 15265 | 127 | -76.3 | -80.7 | 90 | 26 |
| 2010-01-14T12:40 | 15306 | 126 | -76.6 | -81.1 | 90 | 27 |
| 2010-01-14T12:40 | 15348 | 125 | -77.0 | -81.4 | 91 | 27 |
| 2010-01-14T12:40 | 15389 | 124 | -77.4 | -81.8 | 91 | 27 |
| 2010-01-14T12:40 | 15431 | 123 | -77.8 | -82.2 | 91 | 27 |
| 2010-01-14T12:40 | 15474 | 123 | -78.0 | -82.5 | 91 | 28 |
| 2010-01-14T12:40 | 15516 | 122 | -78.4 | -82.8 | 90 | 28 |
| 2010-01-14T12:41 | 15557 | 121 | -78.8 | -83.2 | 90 | 28 |
| 2010-01-14T12:41 | 15597 | 120 | -79.1 | -83.6 | 89 | 28 |
| 2010-01-14T12:41 | 15640 | 119 | -79.2 | -83.7 | 88 | 29 |
| 2010-01-14T12:41 | 15682 | 118 | -79.0 | -83.6 | 87 | 29 |
| 2010-01-14T12:41 | 15725 | 117 | -79.2 | -83.7 | 86 | 30 |
| 2010-01-14T12:41 | 15768 | 116 | -79.5 | -84.1 | 85 | 31 |
| 2010-01-14T12:42 | 15810 | 115 | -79.8 | -84.3 | 84 | 32 |
| 2010-01-14T12:42 | 15854 | 115 | -80.1 | -84.7 | 83 | 33 |
| 2010-01-14T12:42 | 15895 | 114 | -80.5 | -85.0 | 83 | 33 |
| 2010-01-14T12:42 | 15940 | 113 | -80.8 | -85.3 | 83 | 34 |
| 2010-01-14T12:42 | 15982 | 112 | -81.2 | -85.7 | 83 | 35 |
| 2010-01-14T12:42 | 16025 | 111 | -81.5 | -86.0 | 83 | 36 |
| 2010-01-14T12:43 | 16066 | 110 | -81.8 | -86.3 | 83 | 36 |
| 2010-01-14T12:43 | 16108 | 110 | -81.3 | -85.9 | 82 | 35 |
| 2010-01-14T12:43 | 16151 | 109 | -80.9 | -85.6 | 82 | 33 |
| 2010-01-14T12:43 | 16190 | 108 | -80.9 | -85.6 | 82 | 31 |
| 2010-01-14T12:43 | 16232 | 107 | -81.1 | -85.8 | 81 | 30 |
| 2010-01-14T12:43 | 16275 | 106 | -81.4 | -86.1 | 81 | 29 |
| 2010-01-14T12:44 | 16315 | 106 | -81.7 | -86.5 | 80 | 28 |
| 2010-01-14T12:44 | 16361 | 105 | -82.0 | -86.8 | 79 | 27 |
| 2010-01-14T12:44 | 16403 | 104 | -82.3 | -87.1 | 78 | 26 |
| 2010-01-14T12:44 | 16449 | 103 | -82.6 | -87.4 | 76 | 25 |
| 2010-01-14T12:44 | 16491 | 102 | -82.8 | -87.7 | 74 | 25 |
| 2010-01-14T12:44 | 16530 | 102 | -82.9 | -87.7 | 74 | 24 |
| 2010-01-14T12:45 | 16571 | 101 | -83.2 | -88.0 | 75 | 25 |
| 2010-01-14T12:45 | 16614 | 100 | -83.6 | -88.4 | 77 | 25 |
| 2010-01-14T12:45 | 16656 | 99 | -83.9 | -88.7 | 79 | 25 |
| 2010-01-14T12:45 | 16696 | 99 | -84.0 | -88.8 | 79 | 25 |
| 2010-01-14T12:45 | 16737 | 98 | -83.5 | -88.4 | 78 | 26 |
| 2010-01-14T12:45 | 16779 | 97 | -83.6 | -88.5 | 76 | 26 |
| 2010-01-14T12:46 | 16820 | 96 | -83.8 | -88.7 | 74 | 26 |
| 2010-01-14T12:46 | 16864 | 96 | -83.7 | -88.7 | 71 | 26 |
| 2010-01-14T12:46 | 16907 | 95 | -82.7 | -87.8 | 70 | 24 |
| 2010-01-14T12:46 | 16952 | 94 | -81.2 | -86.4 | 72 | 21 |
| 2010-01-14T12:46 | 17002 | 93 | -80.3 | -85.7 | 76 | 18 |
| 2010-01-14T12:46 | 17047 | 93 | -79.0 | -84.5 | 79 | 15 |
| 2010-01-14T12:47 | 17090 | 92 | -78.9 | -84.5 | 82 | 13 |
| 2010-01-14T12:47 | 17134 | 91 | -78.7 | -84.4 | 87 | 12 |
| 2010-01-14T12:47 | 17178 | 90 | -78.5 | -84.4 | 91 | 10 |
| 2010-01-14T12:47 | 17221 | 90 | -78.6 | -84.5 | 92 | 8 |
| 2010-01-14T12:47 | 17263 | 89 | -78.5 | -84.6 | 91 | 7 |
| 2010-01-14T12:47 | 17305 | 88 | -78.5 | -84.8 | 89 | 5 |
| 2010-01-14T12:48 | 17346 | 88 | -78.7 | -85.0 | 88 | 4 |
| 2010-01-14T12:48 | 17388 | 87 | -78.9 | -85.4 | 87 | 3 |
| 2010-01-14T12:48 | 17432 | 87 | -79.2 | -85.8 | 89 | 1 |
| 2010-01-14T12:48 | 17475 | 86 | -79.4 | -86.1 | 123 | 0 |
| 2010-01-14T12:48 | 17516 | 85 | -79.3 | -86.1 | 229 | 1 |
| 2010-01-14T12:48 | 17558 | 85 | -79.3 | -86.2 | 235 | 3 |
| 2010-01-14T12:49 | 17603 | 84 | -79.3 | -86.3 | 233 | 5 |
| 2010-01-14T12:49 | 17647 | 83 | -79.3 | -86.4 | 229 | 6 |
| 2010-01-14T12:49 | 17688 | 83 | -79.4 | -86.6 | 226 | 7 |
| 2010-01-14T12:49 | 17730 | 82 | -79.4 | -86.7 | 226 | 6 |
| 2010-01-14T12:49 | 17774 | 81 | -79.3 | -86.7 | 235 | 6 |
| 2010-01-14T12:49 | 17816 | 81 | -78.5 | -86.1 | 248 | 6 |
| 2010-01-14T12:50 | 17857 | 80 | -78.3 | -85.9 | 254 | 7 |
| 2010-01-14T12:50 | 17898 | 80 | -78.5 | -86.2 | 258 | 7 |
| 2010-01-14T12:50 | 17938 | 79 | -78.8 | -86.5 | 264 | 8 |
| 2010-01-14T12:50 | 17977 | 79 | -78.8 | -86.6 | 269 | 8 |
| 2010-01-14T12:50 | 18015 | 78 | -78.4 | -86.4 | 273 | 7 |
| 2010-01-14T12:50 | 18055 | 78 | -78.3 | -86.3 | 274 | 6 |
| 2010-01-14T12:51 | 18092 | 77 | -78.2 | -86.3 | 274 | 5 |
| 2010-01-14T12:51 | 18129 | 77 | -78.0 | -86.3 | 271 | 5 |
| 2010-01-14T12:51 | 18165 | 76 | -78.2 | -86.5 | 269 | 5 |
| 2010-01-14T12:51 | 18201 | 76 | -78.4 | -86.8 | 271 | 5 |
| 2010-01-14T12:51 | 18240 | 75 | -78.5 | -87.0 | 276 | 5 |
| 2010-01-14T12:51 | 18276 | 75 | -78.8 | -87.3 | 278 | 6 |
| 2010-01-14T12:52 | 18314 | 74 | -79.0 | -87.5 | 277 | 6 |
| 2010-01-14T12:52 | 18353 | 74 | -79.2 | -87.7 | 274 | 6 |
| 2010-01-14T12:52 | 18391 | 73 | -79.2 | -87.9 | 271 | 5 |
| 2010-01-14T12:52 | 18431 | 73 | -79.1 | -87.8 | 266 | 5 |
| 2010-01-14T12:52 | 18470 | 72 | -78.6 | -87.4 | 258 | 4 |
| 2010-01-14T12:52 | 18510 | 72 | -78.1 | -87.0 | 253 | 4 |
| 2010-01-14T12:53 | 18548 | 71 | -77.6 | -86.7 | 256 | 4 |
| 2010-01-14T12:53 | 18590 | 71 | -77.8 | -86.8 | 269 | 3 |
| 2010-01-14T12:53 | 18631 | 70 | -77.6 | -86.8 | 281 | 3 |
| 2010-01-14T12:53 | 18672 | 70 | -77.5 | -86.8 | 284 | 3 |
| 2010-01-14T12:53 | 18713 | 69 | -77.5 | -86.9 | 282 | 4 |
| 2010-01-14T12:53 | 18756 | 69 | -77.5 | -87.0 | 282 | 3 |
| 2010-01-14T12:54 | 18797 | 68 | -77.5 | -87.0 | 283 | 3 |
| 2010-01-14T12:54 | 18840 | 68 | -77.6 | -87.2 | 283 | 3 |
| 2010-01-14T12:54 | 18883 | 67 | -77.2 | -86.9 | 278 | 4 |
| 2010-01-14T12:54 | 18926 | 67 | -76.7 | -86.6 | 273 | 4 |
| 2010-01-14T12:54 | 18968 | 66 | -76.7 | -86.6 | 272 | 4 |
| 2010-01-14T12:54 | 19011 | 66 | -76.8 | -86.8 | 272 | 4 |
| 2010-01-14T12:55 | 19055 | 65 | -76.7 | -86.8 | 279 | 4 |
| 2010-01-14T12:55 | 19097 | 65 | -76.2 | -86.4 | 298 | 3 |
| 2010-01-14T12:55 | 19138 | 64 | -75.3 | -85.8 | 325 | 3 |
| 2010-01-14T12:55 | 19181 | 64 | -74.9 | -85.5 | 336 | 4 |
| 2010-01-14T12:55 | 19224 | 63 | -74.1 | -85.0 | 331 | 5 |
| 2010-01-14T12:55 | 19267 | 63 | -73.9 | -84.9 | 325 | 6 |
| 2010-01-14T12:56 | 19310 | 62 | -73.7 | -84.9 | 324 | 7 |
| 2010-01-14T12:56 | 19351 | 62 | -73.2 | -84.6 | 328 | 7 |
| 2010-01-14T12:56 | 19393 | 61 | -73.0 | -84.6 | 330 | 7 |
| 2010-01-14T12:56 | 19435 | 61 | -73.0 | -84.8 | 329 | 7 |
| 2010-01-14T12:56 | 19476 | 61 | -72.7 | -84.7 | 328 | 7 |
| 2010-01-14T12:56 | 19517 | 60 | -72.2 | -84.6 | 327 | 7 |
| 2010-01-14T12:57 | 19560 | 60 | -72.2 | -84.7 | 327 | 8 |
| 2010-01-14T12:57 | 19602 | 59 | -72.0 | -84.8 | 326 | 8 |
| 2010-01-14T12:57 | 19645 | 59 | -71.8 | -84.8 | 323 | 8 |
| 2010-01-14T12:57 | 19686 | 58 | -71.4 | -84.7 | 319 | 7 |
| 2010-01-14T12:57 | 19726 | 58 | -71.0 | -84.7 | 314 | 7 |
| 2010-01-14T12:57 | 19769 | 58 | -70.9 | -84.8 | 311 | 7 |
| 2010-01-14T12:58 | 19811 | 57 | -71.1 | -85.1 | 310 | 7 |
| 2010-01-14T12:58 | 19853 | 57 | -70.8 | -85.2 | 307 | 7 |
| 2010-01-14T12:58 | 19896 | 56 | -70.7 | -85.3 | 298 | 7 |
| 2010-01-14T12:58 | 19937 | 56 | -70.6 | -85.5 | 287 | 6 |
| 2010-01-14T12:58 | 19981 | 56 | -69.8 | -85.1 | 275 | 6 |
| 2010-01-14T12:58 | 20025 | 55 | -69.4 | -85.0 | 267 | 7 |
| 2010-01-14T12:59 | 20070 | 55 | -69.2 | -85.1 | 262 | 8 |
| 2010-01-14T12:59 | 20113 | 54 | -68.7 | -85.0 | 257 | 10 |
| 2010-01-14T12:59 | 20156 | 54 | -68.5 | -85.1 | 252 | 10 |
| 2010-01-14T12:59 | 20201 | 54 | -68.1 | -85.1 | 247 | 10 |
| 2010-01-14T12:59 | 20243 | 53 | -68.2 | -85.5 | 243 | 10 |
| 2010-01-14T12:59 | 20288 | 53 | -68.3 | -85.8 | 240 | 10 |
| 2010-01-14T13:00 | 20332 | 52 | -68.1 | -86.0 | 237 | 10 |
| 2010-01-14T13:00 | 20378 | 52 | -68.2 | -86.4 | 235 | 11 |
| 2010-01-14T13:00 | 20423 | 52 | -68.5 | -86.8 | 233 | 11 |
| 2010-01-14T13:00 | 20468 | 51 | -68.7 | -87.3 | 231 | 11 |
| 2010-01-14T13:00 | 20513 | 51 | -68.9 | -87.6 | 227 | 11 |
| 2010-01-14T13:00 | 20559 | 50 | -68.6 | -87.6 | 222 | 12 |
| 2010-01-14T13:01 | 20603 | 50 | -68.7 | -87.8 | 219 | 12 |
| 2010-01-14T13:01 | 20648 | 50 | -68.7 | -88.1 | 220 | 13 |
| 2010-01-14T13:01 | 20693 | 49 | -68.7 | -88.2 | 222 | 15 |
| 2010-01-14T13:01 | 20739 | 49 | -68.4 | -88.2 | 224 | 16 |
| 2010-01-14T13:01 | 20784 | 49 | -68.7 | -88.5 | 226 | 18 |
| 2010-01-14T13:01 | 20829 | 48 | -69.0 | -88.9 | 227 | 19 |
| 2010-01-14T13:02 | 20874 | 48 | -69.1 | -89.1 | 227 | 20 |
| 2010-01-14T13:02 | 20916 | 48 | -69.1 | -89.3 | 227 | 20 |
| 2010-01-14T13:02 | 20959 | 47 | -69.3 | -89.5 | 226 | 20 |
| 2010-01-14T13:02 | 21002 | 47 | -69.5 | -89.7 | 225 | 19 |
| 2010-01-14T13:02 | 21045 | 47 | -69.7 | -90.0 | 224 | 18 |
| 2010-01-14T13:02 | 21087 | 46 | -69.7 | -90.1 | 223 | 18 |
| 2010-01-14T13:03 | 21129 | 46 | -69.8 | -90.2 | 222 | 17 |
| 2010-01-14T13:03 | 21173 | 46 | -69.7 | -90.3 | 222 | 17 |
| 2010-01-14T13:03 | 21218 | 45 | -69.7 | -90.3 | 221 | 17 |
| 2010-01-14T13:03 | 21261 | 45 | -69.7 | -90.4 | 218 | 16 |
| 2010-01-14T13:03 | 21307 | 45 | -69.8 | -90.5 | 215 | 15 |
| 2010-01-14T13:03 | 21352 | 44 | -69.3 | -90.3 | 213 | 13 |
| 2010-01-14T13:04 | 21395 | 44 | -69.5 | -90.4 | 210 | 12 |
| 2010-01-14T13:04 | 21439 | 44 | -69.7 | -90.6 | 206 | 10 |
| 2010-01-14T13:04 | 21486 | 43 | -69.8 | -90.7 | 199 | 9 |
| 2010-01-14T13:04 | 21530 | 43 | -69.6 | -90.7 | 190 | 7 |
| 2010-01-14T13:04 | 21575 | 43 | -68.4 | -90.0 | 175 | 5 |
| 2010-01-14T13:04 | 21620 | 42 | -68.2 | -89.9 | 155 | 4 |
| 2010-01-14T13:05 | 21665 | 42 | -68.1 | -89.8 | 135 | 3 |
| 2010-01-14T13:05 | 21709 | 42 | -67.9 | -89.8 | 117 | 3 |
| 2010-01-14T13:05 | 21756 | 41 | -67.6 | -89.7 | 101 | 3 |
| 2010-01-14T13:05 | 21800 | 41 | -67.4 | -89.7 | 87 | 3 |
| 2010-01-14T13:05 | 21847 | 41 | -66.8 | -89.4 | 78 | 3 |
| 2010-01-14T13:05 | 21894 | 40 | -66.6 | -89.4 | 77 | 3 |
| 2010-01-14T13:06 | 21939 | 40 | -66.8 | -89.6 | 86 | 4 |
| 2010-01-14T13:06 | 21983 | 40 | -66.9 | -89.8 | 93 | 5 |
| 2010-01-14T13:06 | 22029 | 39 | -67.1 | -90.1 | 93 | 6 |
| 2010-01-14T13:06 | 22074 | 39 | -66.7 | -90.0 | 87 | 7 |
| 2010-01-14T13:06 | 22119 | 39 | -66.8 | -90.2 | 78 | 8 |
| 2010-01-14T13:06 | 22165 | 39 | -67.0 | -90.4 | 69 | 9 |
| 2010-01-14T13:07 | 22208 | 38 | -66.8 | -90.4 | 60 | 10 |
| 2010-01-14T13:07 | 22252 | 38 | -66.7 | -90.5 | 54 | 12 |
| 2010-01-14T13:07 | 22296 | 38 | -66.1 | -90.2 | 50 | 14 |
| 2010-01-14T13:07 | 22341 | 38 | -65.7 | -90.0 | 49 | 16 |
| 2010-01-14T13:07 | 22387 | 37 | -64.8 | -89.6 | 50 | 17 |
| 2010-01-14T23:51 | 4 | 1008 | 30.4 | 26.0 | 320 | 4 |
| 2010-01-14T23:51 | 15 | 1007 | 29.1 | 24.8 | 323 | 2 |
| 2010-01-14T23:51 | 28 | 1005 | 28.8 | 24.7 | 323 | 2 |
| 2010-01-14T23:51 | 40 | 1004 | 28.6 | 24.7 | 323 | 3 |
| 2010-01-14T23:51 | 52 | 1003 | 28.4 | 24.8 | 323 | 3 |
| 2010-01-14T23:51 | 65 | 1001 | 28.3 | 24.8 | 323 | 4 |
| 2010-01-14T23:51 | 79 | 1000 | 28.1 | 24.9 | 323 | 4 |
| 2010-01-14T23:51 | 91 | 998 | 28.0 | 24.8 | 322 | 4 |
| 2010-01-14T23:51 | 102 | 997 | 27.9 | 24.9 | 322 | 4 |
| 2010-01-14T23:51 | 113 | 996 | 27.8 | 24.9 | 321 | 5 |
| 2010-01-14T23:51 | 125 | 995 | 27.6 | 24.8 | 320 | 5 |
| 2010-01-14T23:51 | 136 | 993 | 27.5 | 24.7 | 319 | 5 |
| 2010-01-14T23:51 | 146 | 992 | 27.3 | 24.7 | 318 | 5 |
| 2010-01-14T23:51 | 158 | 991 | 27.2 | 24.6 | 317 | 5 |
| 2010-01-14T23:51 | 171 | 989 | 27.1 | 24.6 | 317 | 5 |
| 2010-01-14T23:51 | 182 | 988 | 27.0 | 24.6 | 316 | 5 |
| 2010-01-14T23:51 | 193 | 987 | 26.9 | 24.5 | 316 | 5 |
| 2010-01-14T23:51 | 203 | 986 | 26.8 | 24.4 | 316 | 5 |
| 2010-01-14T23:51 | 214 | 985 | 26.7 | 24.4 | 316 | 5 |
| 2010-01-14T23:51 | 228 | 983 | 26.5 | 24.3 | 316 | 5 |
| 2010-01-14T23:51 | 241 | 982 | 26.4 | 24.3 | 316 | 5 |
| 2010-01-14T23:51 | 255 | 980 | 26.3 | 24.3 | 316 | 5 |
| 2010-01-14T23:51 | 269 | 979 | 26.2 | 24.3 | 316 | 6 |
| 2010-01-14T23:51 | 280 | 977 | 26.0 | 24.2 | 317 | 6 |
| 2010-01-14T23:51 | 292 | 976 | 25.9 | 24.1 | 317 | 6 |
| 2010-01-14T23:51 | 306 | 974 | 25.8 | 24.1 | 318 | 6 |
| 2010-01-14T23:51 | 319 | 973 | 25.7 | 24.1 | 318 | 6 |
| 2010-01-14T23:51 | 331 | 972 | 25.5 | 24.1 | 318 | 6 |
| 2010-01-14T23:51 | 343 | 970 | 25.4 | 24.1 | 319 | 6 |
| 2010-01-14T23:51 | 356 | 969 | 25.3 | 24.0 | 320 | 6 |
| 2010-01-14T23:52 | 368 | 968 | 25.2 | 24.0 | 320 | 7 |
| 2010-01-14T23:52 | 378 | 967 | 25.1 | 23.8 | 321 | 7 |
| 2010-01-14T23:52 | 388 | 965 | 25.1 | 23.6 | 321 | 7 |
| 2010-01-14T23:52 | 400 | 964 | 25.1 | 23.4 | 322 | 7 |
| 2010-01-14T23:52 | 411 | 963 | 25.0 | 23.3 | 323 | 7 |
| 2010-01-14T23:52 | 424 | 962 | 24.9 | 23.2 | 323 | 7 |
| 2010-01-14T23:52 | 438 | 960 | 24.8 | 23.1 | 324 | 7 |
| 2010-01-14T23:52 | 451 | 959 | 24.7 | 23.1 | 324 | 7 |
| 2010-01-14T23:52 | 463 | 957 | 24.6 | 23.0 | 324 | 8 |
| 2010-01-14T23:52 | 478 | 956 | 24.5 | 22.9 | 324 | 8 |
| 2010-01-14T23:52 | 492 | 954 | 24.4 | 22.9 | 324 | 8 |
| 2010-01-14T23:52 | 504 | 953 | 24.2 | 22.9 | 324 | 8 |
| 2010-01-14T23:52 | 515 | 952 | 24.1 | 23.0 | 324 | 8 |
| 2010-01-14T23:52 | 522 | 951 | 24.0 | 22.9 | 324 | 8 |
| 2010-01-14T23:52 | 529 | 950 | 23.9 | 23.0 | 323 | 9 |
| 2010-01-14T23:52 | 538 | 949 | 23.8 | 23.0 | 323 | 9 |
| 2010-01-14T23:52 | 550 | 948 | 23.6 | 23.1 | 322 | 9 |
| 2010-01-14T23:52 | 565 | 946 | 23.5 | 23.1 | 322 | 9 |
| 2010-01-14T23:52 | 576 | 945 | 23.5 | 22.9 | 321 | 8 |
| 2010-01-14T23:52 | 584 | 944 | 23.4 | 22.8 | 320 | 8 |
| 2010-01-14T23:52 | 594 | 943 | 23.4 | 22.7 | 320 | 8 |
| 2010-01-14T23:52 | 603 | 942 | 23.3 | 22.5 | 319 | 8 |
| 2010-01-14T23:52 | 614 | 941 | 23.3 | 22.5 | 318 | 8 |
| 2010-01-14T23:52 | 626 | 940 | 23.2 | 22.3 | 318 | 9 |
| 2010-01-14T23:52 | 638 | 938 | 23.2 | 21.9 | 317 | 9 |
| 2010-01-14T23:52 | 650 | 937 | 23.1 | 22.0 | 317 | 9 |
| 2010-01-14T23:52 | 661 | 936 | 23.0 | 21.8 | 317 | 9 |
| 2010-01-14T23:52 | 673 | 935 | 23.2 | 21.0 | 317 | 9 |
| 2010-01-14T23:52 | 684 | 934 | 23.3 | 20.7 | 317 | 9 |
| 2010-01-14T23:52 | 693 | 933 | 23.2 | 20.6 | 317 | 9 |
| 2010-01-14T23:53 | 701 | 932 | 23.1 | 20.5 | 317 | 9 |
| 2010-01-14T23:53 | 710 | 931 | 23.1 | 20.5 | 318 | 10 |
| 2010-01-14T23:53 | 721 | 930 | 22.9 | 20.5 | 318 | 10 |
| 2010-01-14T23:53 | 731 | 929 | 22.8 | 20.4 | 319 | 10 |
| 2010-01-14T23:53 | 742 | 927 | 22.8 | 20.3 | 319 | 10 |
| 2010-01-14T23:53 | 753 | 926 | 22.6 | 20.3 | 320 | 10 |
| 2010-01-14T23:53 | 761 | 925 | 22.5 | 20.3 | 320 | 10 |
| 2010-01-14T23:53 | 769 | 925 | 22.6 | 20.3 | 321 | 10 |
| 2010-01-14T23:53 | 778 | 924 | 22.5 | 20.2 | 321 | 10 |
| 2010-01-14T23:53 | 785 | 923 | 22.4 | 20.3 | 321 | 10 |
| 2010-01-14T23:53 | 794 | 922 | 22.3 | 20.4 | 321 | 10 |
| 2010-01-14T23:53 | 804 | 921 | 22.1 | 20.4 | 320 | 10 |
| 2010-01-14T23:53 | 814 | 920 | 22.0 | 20.4 | 320 | 10 |
| 2010-01-14T23:53 | 822 | 919 | 22.0 | 20.3 | 319 | 10 |
| 2010-01-14T23:53 | 831 | 918 | 22.1 | 20.1 | 318 | 10 |
| 2010-01-14T23:53 | 840 | 917 | 22.3 | 19.6 | 316 | 10 |
| 2010-01-14T23:53 | 849 | 916 | 22.4 | 19.8 | 315 | 10 |
| 2010-01-14T23:53 | 859 | 915 | 22.4 | 19.0 | 313 | 11 |
| 2010-01-14T23:53 | 866 | 914 | 22.5 | 18.6 | 312 | 11 |
| 2010-01-14T23:53 | 875 | 913 | 22.5 | 18.4 | 310 | 11 |
| 2010-01-14T23:53 | 885 | 912 | 22.4 | 18.3 | 309 | 11 |
| 2010-01-14T23:53 | 895 | 911 | 22.3 | 18.2 | 307 | 11 |
| 2010-01-14T23:53 | 905 | 910 | 22.3 | 17.9 | 306 | 11 |
| 2010-01-14T23:53 | 916 | 909 | 22.2 | 17.8 | 306 | 11 |
| 2010-01-14T23:53 | 927 | 908 | 22.0 | 18.0 | 305 | 11 |
| 2010-01-14T23:53 | 936 | 907 | 21.8 | 18.0 | 305 | 11 |
| 2010-01-14T23:53 | 945 | 906 | 21.9 | 17.6 | 305 | 12 |
| 2010-01-14T23:53 | 955 | 905 | 22.1 | 17.2 | 305 | 12 |
| 2010-01-14T23:53 | 965 | 904 | 22.1 | 17.0 | 305 | 12 |
| 2010-01-14T23:53 | 974 | 903 | 22.1 | 16.9 | 305 | 12 |
| 2010-01-14T23:54 | 983 | 902 | 22.0 | 16.8 | 305 | 12 |
| 2010-01-14T23:54 | 993 | 901 | 22.0 | 16.8 | 305 | 12 |
| 2010-01-14T23:54 | 1003 | 900 | 21.9 | 16.6 | 306 | 12 |
| 2010-01-14T23:54 | 1011 | 899 | 21.8 | 16.6 | 306 | 12 |
| 2010-01-14T23:54 | 1021 | 898 | 21.8 | 16.5 | 306 | 12 |
| 2010-01-14T23:54 | 1029 | 897 | 21.7 | 16.4 | 306 | 12 |
| 2010-01-14T23:54 | 1037 | 897 | 21.6 | 16.4 | 306 | 12 |
| 2010-01-14T23:54 | 1045 | 896 | 21.6 | 16.3 | 306 | 12 |
| 2010-01-14T23:54 | 1053 | 895 | 21.5 | 16.3 | 307 | 12 |
| 2010-01-14T23:54 | 1062 | 894 | 21.5 | 16.2 | 307 | 12 |
| 2010-01-14T23:54 | 1072 | 893 | 21.4 | 16.3 | 307 | 12 |
| 2010-01-14T23:54 | 1082 | 892 | 21.3 | 16.5 | 307 | 12 |
| 2010-01-14T23:54 | 1091 | 891 | 21.1 | 16.6 | 307 | 12 |
| 2010-01-14T23:54 | 1101 | 890 | 21.0 | 16.8 | 307 | 12 |
| 2010-01-14T23:54 | 1112 | 889 | 20.9 | 17.1 | 307 | 12 |
| 2010-01-14T23:54 | 1125 | 887 | 20.8 | 17.4 | 307 | 12 |
| 2010-01-14T23:54 | 1137 | 886 | 20.7 | 17.5 | 307 | 12 |
| 2010-01-14T23:54 | 1144 | 886 | 20.6 | 17.5 | 307 | 12 |
| 2010-01-14T23:54 | 1151 | 885 | 20.6 | 17.5 | 307 | 12 |
| 2010-01-14T23:54 | 1159 | 884 | 20.6 | 17.5 | 307 | 12 |
| 2010-01-14T23:54 | 1167 | 883 | 20.6 | 17.4 | 307 | 11 |
| 2010-01-14T23:54 | 1178 | 882 | 20.5 | 17.1 | 307 | 11 |
| 2010-01-14T23:54 | 1191 | 881 | 20.5 | 17.0 | 307 | 11 |
| 2010-01-14T23:54 | 1204 | 879 | 20.5 | 16.9 | 307 | 11 |
| 2010-01-14T23:54 | 1213 | 879 | 20.5 | 16.7 | 307 | 11 |
| 2010-01-14T23:54 | 1222 | 878 | 20.5 | 16.5 | 307 | 11 |
| 2010-01-14T23:54 | 1233 | 876 | 20.5 | 16.3 | 308 | 11 |
| 2010-01-14T23:54 | 1244 | 875 | 20.4 | 16.2 | 308 | 12 |
| 2010-01-14T23:54 | 1253 | 874 | 20.3 | 16.1 | 308 | 12 |
| 2010-01-14T23:54 | 1263 | 873 | 20.3 | 15.9 | 308 | 12 |
| 2010-01-14T23:55 | 1274 | 872 | 20.3 | 15.7 | 308 | 12 |
| 2010-01-14T23:55 | 1283 | 871 | 20.2 | 15.6 | 308 | 12 |
| 2010-01-14T23:55 | 1290 | 871 | 20.2 | 15.4 | 308 | 12 |
| 2010-01-14T23:55 | 1296 | 870 | 20.2 | 15.3 | 307 | 12 |
| 2010-01-14T23:55 | 1304 | 869 | 20.1 | 15.2 | 307 | 12 |
| 2010-01-14T23:55 | 1314 | 868 | 20.1 | 15.1 | 307 | 13 |
| 2010-01-14T23:55 | 1324 | 867 | 20.0 | 15.1 | 307 | 13 |
| 2010-01-14T23:55 | 1334 | 866 | 19.9 | 15.2 | 307 | 13 |
| 2010-01-14T23:55 | 1344 | 865 | 19.8 | 15.3 | 307 | 13 |
| 2010-01-14T23:55 | 1357 | 864 | 19.6 | 15.3 | 307 | 13 |
| 2010-01-14T23:55 | 1369 | 863 | 19.5 | 15.4 | 306 | 13 |
| 2010-01-14T23:55 | 1379 | 862 | 19.4 | 15.5 | 306 | 13 |
| 2010-01-14T23:55 | 1387 | 861 | 19.3 | 15.5 | 306 | 13 |
| 2010-01-14T23:55 | 1395 | 860 | 19.3 | 15.5 | 306 | 13 |
| 2010-01-14T23:55 | 1403 | 859 | 19.2 | 15.3 | 306 | 13 |
| 2010-01-14T23:55 | 1413 | 858 | 19.2 | 15.1 | 306 | 13 |
| 2010-01-14T23:55 | 1423 | 857 | 19.1 | 14.8 | 306 | 13 |
| 2010-01-14T23:55 | 1432 | 857 | 19.2 | 14.0 | 306 | 13 |
| 2010-01-14T23:55 | 1441 | 856 | 19.3 | 13.2 | 306 | 13 |
| 2010-01-14T23:55 | 1449 | 855 | 19.4 | 13.1 | 306 | 13 |
| 2010-01-14T23:55 | 1458 | 854 | 19.4 | 12.8 | 306 | 13 |
| 2010-01-14T23:55 | 1469 | 853 | 19.4 | 12.5 | 306 | 13 |
| 2010-01-14T23:55 | 1480 | 852 | 19.4 | 12.5 | 306 | 13 |
| 2010-01-14T23:55 | 1491 | 851 | 19.3 | 12.5 | 306 | 13 |
| 2010-01-14T23:55 | 1504 | 849 | 19.2 | 12.5 | 306 | 13 |
| 2010-01-14T23:55 | 1515 | 848 | 19.1 | 12.4 | 305 | 13 |
| 2010-01-14T23:55 | 1524 | 847 | 19.0 | 12.4 | 305 | 13 |
| 2010-01-14T23:55 | 1535 | 846 | 19.0 | 12.4 | 305 | 13 |
| 2010-01-14T23:55 | 1551 | 845 | 18.9 | 12.3 | 304 | 13 |
| 2010-01-14T23:55 | 1566 | 843 | 18.8 | 12.2 | 303 | 13 |
| 2010-01-14T23:56 | 1577 | 842 | 18.7 | 12.2 | 303 | 13 |
| 2010-01-14T23:56 | 1588 | 841 | 18.6 | 12.1 | 302 | 13 |
| 2010-01-14T23:56 | 1598 | 840 | 18.5 | 12.0 | 301 | 14 |
| 2010-01-14T23:56 | 1607 | 839 | 18.5 | 12.0 | 300 | 14 |
| 2010-01-14T23:56 | 1618 | 838 | 18.3 | 12.2 | 300 | 14 |
| 2010-01-14T23:56 | 1631 | 837 | 18.2 | 12.4 | 299 | 14 |
| 2010-01-14T23:56 | 1644 | 836 | 18.1 | 12.5 | 299 | 14 |
| 2010-01-14T23:56 | 1657 | 834 | 17.9 | 12.6 | 299 | 14 |
| 2010-01-14T23:56 | 1668 | 833 | 17.8 | 12.7 | 298 | 14 |
| 2010-01-14T23:56 | 1677 | 832 | 17.7 | 12.8 | 298 | 14 |
| 2010-01-14T23:56 | 1686 | 832 | 17.7 | 12.9 | 298 | 14 |
| 2010-01-14T23:56 | 1696 | 831 | 17.6 | 13.0 | 298 | 14 |
| 2010-01-14T23:56 | 1707 | 830 | 17.5 | 12.8 | 299 | 14 |
| 2010-01-14T23:56 | 1717 | 829 | 17.5 | 12.4 | 299 | 14 |
| 2010-01-14T23:56 | 1726 | 828 | 17.4 | 12.3 | 299 | 14 |
| 2010-01-14T23:56 | 1735 | 827 | 17.4 | 12.1 | 299 | 14 |
| 2010-01-14T23:56 | 1743 | 826 | 17.4 | 12.1 | 299 | 14 |
| 2010-01-14T23:56 | 1752 | 825 | 17.3 | 12.0 | 299 | 14 |
| 2010-01-14T23:56 | 1761 | 824 | 17.3 | 11.9 | 299 | 14 |
| 2010-01-14T23:56 | 1771 | 823 | 17.2 | 11.9 | 299 | 15 |
| 2010-01-14T23:56 | 1781 | 822 | 17.1 | 11.9 | 299 | 15 |
| 2010-01-14T23:56 | 1793 | 821 | 17.0 | 11.9 | 299 | 15 |
| 2010-01-14T23:56 | 1806 | 820 | 16.9 | 11.8 | 299 | 15 |
| 2010-01-14T23:56 | 1821 | 819 | 16.8 | 11.7 | 299 | 15 |
| 2010-01-14T23:56 | 1834 | 817 | 16.7 | 11.6 | 299 | 15 |
| 2010-01-14T23:56 | 1848 | 816 | 16.6 | 11.7 | 298 | 15 |
| 2010-01-14T23:56 | 1861 | 815 | 16.5 | 11.7 | 298 | 15 |
| 2010-01-14T23:56 | 1872 | 814 | 16.4 | 11.6 | 298 | 15 |
| 2010-01-14T23:56 | 1883 | 813 | 16.3 | 11.6 | 297 | 16 |
| 2010-01-14T23:56 | 1894 | 812 | 16.2 | 11.5 | 297 | 16 |
| 2010-01-14T23:57 | 1905 | 811 | 16.1 | 11.4 | 296 | 16 |
| 2010-01-14T23:57 | 1917 | 809 | 16.0 | 11.3 | 296 | 16 |
| 2010-01-14T23:57 | 1927 | 808 | 16.0 | 11.2 | 295 | 16 |
| 2010-01-14T23:57 | 1934 | 808 | 15.9 | 11.1 | 295 | 16 |
| 2010-01-14T23:57 | 1943 | 807 | 15.9 | 11.0 | 294 | 17 |
| 2010-01-14T23:57 | 1952 | 806 | 15.8 | 10.9 | 294 | 17 |
| 2010-01-14T23:57 | 1964 | 805 | 15.7 | 10.8 | 294 | 17 |
| 2010-01-14T23:57 | 1977 | 804 | 15.6 | 10.7 | 294 | 17 |
| 2010-01-14T23:57 | 1989 | 803 | 15.5 | 10.6 | 294 | 17 |
| 2010-01-14T23:57 | 1998 | 802 | 15.4 | 10.6 | 294 | 18 |
| 2010-01-14T23:57 | 2006 | 801 | 15.4 | 10.5 | 294 | 18 |
| 2010-01-14T23:57 | 2054 | 796 | 15.4 | 9.6 | 294 | 18 |
| 2010-01-14T23:57 | 2105 | 792 | 15.4 | 9.9 | 294 | 17 |
| 2010-01-14T23:57 | 2160 | 787 | 15.3 | 8.5 | 294 | 16 |
| 2010-01-14T23:58 | 2211 | 782 | 14.8 | 9.9 | 294 | 15 |
| 2010-01-14T23:58 | 2258 | 778 | 14.6 | 8.9 | 295 | 15 |
| 2010-01-14T23:58 | 2305 | 773 | 14.3 | 8.5 | 293 | 15 |
| 2010-01-14T23:58 | 2353 | 769 | 14.0 | 8.2 | 291 | 14 |
| 2010-01-14T23:58 | 2411 | 764 | 13.5 | 8.1 | 289 | 14 |
| 2010-01-14T23:58 | 2454 | 760 | 13.2 | 7.9 | 288 | 14 |
| 2010-01-14T23:59 | 2512 | 755 | 12.8 | 8.0 | 289 | 14 |
| 2010-01-14T23:59 | 2561 | 750 | 12.7 | 8.2 | 288 | 13 |
| 2010-01-14T23:59 | 2606 | 746 | 12.6 | 7.4 | 288 | 13 |
| 2010-01-14T23:59 | 2647 | 743 | 12.3 | 7.6 | 287 | 13 |
| 2010-01-14T23:59 | 2684 | 739 | 12.2 | 7.6 | 287 | 13 |
| 2010-01-14T23:59 | 2726 | 736 | 11.8 | 7.8 | 286 | 13 |
| 2010-01-15T00:00 | 2766 | 732 | 11.6 | 7.7 | 284 | 12 |
| 2010-01-15T00:00 | 2809 | 728 | 11.2 | 7.4 | 282 | 12 |
| 2010-01-15T00:00 | 2845 | 725 | 11.0 | 7.3 | 280 | 12 |
| 2010-01-15T00:00 | 2898 | 721 | 10.5 | 7.2 | 278 | 12 |
| 2010-01-15T00:00 | 2958 | 715 | 10.0 | 6.9 | 278 | 11 |
| 2010-01-15T00:00 | 3003 | 712 | 9.7 | 6.8 | 278 | 11 |
| 2010-01-15T00:01 | 3041 | 708 | 9.6 | 6.8 | 279 | 12 |
| 2010-01-15T00:01 | 3089 | 704 | 9.2 | 6.7 | 282 | 13 |
| 2010-01-15T00:01 | 3131 | 701 | 8.9 | 6.6 | 283 | 13 |
| 2010-01-15T00:01 | 3172 | 697 | 8.9 | 6.5 | 284 | 14 |
| 2010-01-15T00:01 | 3210 | 694 | 8.7 | 6.4 | 285 | 14 |
| 2010-01-15T00:01 | 3250 | 691 | 8.4 | 6.3 | 287 | 13 |
| 2010-01-15T00:02 | 3293 | 687 | 8.3 | 6.0 | 287 | 13 |
| 2010-01-15T00:02 | 3343 | 683 | 8.2 | 5.5 | 286 | 12 |
| 2010-01-15T00:02 | 3387 | 679 | 8.1 | 5.1 | 286 | 11 |
| 2010-01-15T00:02 | 3428 | 676 | 7.9 | 4.8 | 288 | 11 |
| 2010-01-15T00:02 | 3472 | 672 | 8.1 | 4.8 | 292 | 11 |
| 2010-01-15T00:02 | 3516 | 669 | 8.3 | 4.4 | 294 | 11 |
| 2010-01-15T00:03 | 3555 | 666 | 8.2 | 4.2 | 295 | 12 |
| 2010-01-15T00:03 | 3600 | 662 | 8.2 | 3.9 | 297 | 12 |
| 2010-01-15T00:03 | 3640 | 659 | 8.0 | 3.6 | 299 | 12 |
| 2010-01-15T00:03 | 3676 | 656 | 7.9 | 3.3 | 302 | 12 |
| 2010-01-15T00:03 | 3715 | 653 | 7.6 | 3.2 | 304 | 13 |
| 2010-01-15T00:03 | 3754 | 650 | 7.4 | 2.9 | 307 | 13 |
| 2010-01-15T00:04 | 3792 | 647 | 7.2 | 2.9 | 308 | 12 |
| 2010-01-15T00:04 | 3831 | 644 | 7.1 | 2.9 | 307 | 12 |
| 2010-01-15T00:04 | 3868 | 641 | 7.1 | 2.5 | 305 | 11 |
| 2010-01-15T00:04 | 3906 | 638 | 6.9 | 1.6 | 301 | 11 |
| 2010-01-15T00:04 | 3942 | 635 | 6.9 | 1.9 | 297 | 10 |
| 2010-01-15T00:04 | 3991 | 631 | 7.1 | 1.7 | 295 | 9 |
| 2010-01-15T00:05 | 4034 | 628 | 7.0 | 1.4 | 296 | 7 |
| 2010-01-15T00:05 | 4085 | 624 | 6.8 | 1.0 | 298 | 6 |
| 2010-01-15T00:05 | 4133 | 621 | 6.8 | 0.7 | 299 | 4 |
| 2010-01-15T00:05 | 4176 | 617 | 6.8 | 0.4 | 296 | 3 |
| 2010-01-15T00:05 | 4218 | 614 | 6.7 | -0.1 | 289 | 2 |
| 2010-01-15T00:05 | 4259 | 611 | 6.4 | -0.2 | 284 | 2 |
| 2010-01-15T00:06 | 4302 | 608 | 6.1 | -0.4 | 284 | 3 |
| 2010-01-15T00:06 | 4342 | 605 | 5.9 | -0.6 | 284 | 3 |
| 2010-01-15T00:06 | 4383 | 602 | 5.8 | -1.0 | 283 | 3 |
| 2010-01-15T00:06 | 4421 | 599 | 5.4 | -1.2 | 282 | 3 |
| 2010-01-15T00:06 | 4461 | 596 | 5.0 | -1.6 | 282 | 3 |
| 2010-01-15T00:06 | 4501 | 593 | 4.8 | -1.7 | 282 | 4 |
| 2010-01-15T00:07 | 4547 | 590 | 4.6 | -1.7 | 281 | 3 |
| 2010-01-15T00:07 | 4593 | 587 | 4.2 | -1.5 | 282 | 3 |
| 2010-01-15T00:07 | 4639 | 583 | 3.8 | -1.7 | 286 | 3 |
| 2010-01-15T00:07 | 4684 | 580 | 3.3 | -1.9 | 294 | 3 |
| 2010-01-15T00:07 | 4730 | 577 | 2.9 | -1.8 | 300 | 3 |
| 2010-01-15T00:07 | 4772 | 574 | 2.6 | -1.8 | 299 | 2 |
| 2010-01-15T00:08 | 4809 | 571 | 2.5 | -1.8 | 293 | 2 |
| 2010-01-15T00:08 | 4849 | 569 | 2.3 | -2.2 | 288 | 2 |
| 2010-01-15T00:08 | 4887 | 566 | 2.1 | -2.5 | 287 | 3 |
| 2010-01-15T00:08 | 4927 | 563 | 2.0 | -3.0 | 286 | 3 |
| 2010-01-15T00:08 | 4969 | 560 | 1.8 | -3.3 | 284 | 3 |
| 2010-01-15T00:08 | 5008 | 558 | 1.5 | -3.2 | 280 | 3 |
| 2010-01-15T00:09 | 5049 | 555 | 1.3 | -3.7 | 275 | 4 |
| 2010-01-15T00:09 | 5090 | 552 | 1.1 | -3.8 | 265 | 4 |
| 2010-01-15T00:09 | 5136 | 549 | 1.1 | -4.6 | 252 | 4 |
| 2010-01-15T00:09 | 5190 | 545 | 1.1 | -5.0 | 243 | 5 |
| 2010-01-15T00:09 | 5252 | 541 | 0.5 | -5.2 | 233 | 5 |
| 2010-01-15T00:09 | 5296 | 538 | 0.2 | -5.2 | 221 | 4 |
| 2010-01-15T00:10 | 5357 | 534 | -0.4 | -5.2 | 212 | 4 |
| 2010-01-15T00:10 | 5403 | 531 | -0.7 | -5.2 | 210 | 3 |
| 2010-01-15T00:10 | 5448 | 528 | -1.0 | -5.8 | 209 | 3 |
| 2010-01-15T00:10 | 5494 | 525 | -1.2 | -5.9 | 205 | 3 |
| 2010-01-15T00:10 | 5535 | 522 | -1.4 | -6.1 | 201 | 3 |
| 2010-01-15T00:10 | 5578 | 519 | -1.8 | -6.3 | 199 | 3 |
| 2010-01-15T00:11 | 5620 | 517 | -2.2 | -6.4 | 197 | 2 |
| 2010-01-15T00:11 | 5671 | 513 | -2.6 | -6.6 | 188 | 2 |
| 2010-01-15T00:11 | 5718 | 510 | -3.0 | -6.5 | 174 | 3 |
| 2010-01-15T00:11 | 5765 | 507 | -3.4 | -6.4 | 161 | 3 |
| 2010-01-15T00:11 | 5808 | 504 | -3.8 | -6.4 | 152 | 3 |
| 2010-01-15T00:11 | 5851 | 502 | -4.2 | -6.4 | 147 | 4 |
| 2010-01-15T00:12 | 5894 | 499 | -4.5 | -6.4 | 146 | 4 |
| 2010-01-15T00:12 | 5935 | 496 | -4.9 | -6.9 | 145 | 4 |
| 2010-01-15T00:12 | 5984 | 493 | -5.3 | -6.9 | 144 | 4 |
| 2010-01-15T00:12 | 6023 | 491 | -5.6 | -7.2 | 145 | 4 |
| 2010-01-15T00:12 | 6064 | 488 | -5.8 | -7.6 | 147 | 4 |
| 2010-01-15T00:12 | 6105 | 486 | -6.2 | -7.9 | 152 | 4 |
| 2010-01-15T00:13 | 6145 | 483 | -6.5 | -7.9 | 159 | 4 |
| 2010-01-15T00:13 | 6186 | 481 | -6.8 | -8.0 | 161 | 5 |
| 2010-01-15T00:13 | 6226 | 478 | -7.0 | -8.0 | 161 | 5 |
| 2010-01-15T00:13 | 6264 | 476 | -7.3 | -8.3 | 161 | 5 |
| 2010-01-15T00:13 | 6311 | 473 | -7.5 | -8.3 | 159 | 5 |
| 2010-01-15T00:13 | 6352 | 471 | -7.7 | -8.6 | 153 | 5 |
| 2010-01-15T00:14 | 6394 | 468 | -7.9 | -9.0 | 145 | 6 |
| 2010-01-15T00:14 | 6436 | 466 | -8.1 | -9.5 | 139 | 6 |
| 2010-01-15T00:14 | 6477 | 463 | -8.4 | -9.6 | 133 | 6 |
| 2010-01-15T00:14 | 6518 | 461 | -8.5 | -9.8 | 129 | 6 |
| 2010-01-15T00:14 | 6564 | 458 | -8.8 | -9.9 | 125 | 7 |
| 2010-01-15T00:14 | 6605 | 456 | -9.1 | -10.2 | 122 | 7 |
| 2010-01-15T00:15 | 6658 | 452 | -9.4 | -10.6 | 122 | 7 |
| 2010-01-15T00:15 | 6707 | 450 | -9.8 | -11.0 | 123 | 7 |
| 2010-01-15T00:15 | 6763 | 446 | -10.1 | -11.2 | 125 | 7 |
| 2010-01-15T00:15 | 6823 | 443 | -10.5 | -11.5 | 127 | 7 |
| 2010-01-15T00:15 | 6883 | 439 | -10.8 | -11.9 | 127 | 6 |
| 2010-01-15T00:15 | 6931 | 437 | -11.1 | -12.0 | 124 | 6 |
| 2010-01-15T00:16 | 6983 | 434 | -11.6 | -12.8 | 126 | 5 |
| 2010-01-15T00:16 | 7034 | 431 | -11.9 | -13.3 | 130 | 5 |
| 2010-01-15T00:16 | 7072 | 429 | -12.1 | -13.4 | 128 | 6 |
| 2010-01-15T00:16 | 7111 | 427 | -12.1 | -13.9 | 125 | 7 |
| 2010-01-15T00:16 | 7160 | 424 | -12.6 | -14.3 | 123 | 7 |
| 2010-01-15T00:16 | 7206 | 421 | -12.7 | -14.8 | 120 | 8 |
| 2010-01-15T00:17 | 7256 | 419 | -12.9 | -15.4 | 115 | 9 |
| 2010-01-15T00:17 | 7315 | 415 | -13.2 | -16.3 | 110 | 9 |
| 2010-01-15T00:17 | 7354 | 413 | -13.3 | -17.1 | 105 | 9 |
| 2010-01-15T00:17 | 7396 | 411 | -13.6 | -18.2 | 101 | 9 |
| 2010-01-15T00:17 | 7435 | 409 | -13.8 | -19.1 | 102 | 9 |
| 2010-01-15T00:17 | 7477 | 407 | -14.1 | -18.6 | 103 | 9 |
| 2010-01-15T00:18 | 7522 | 404 | -14.5 | -18.9 | 104 | 10 |
| 2010-01-15T00:18 | 7575 | 401 | -14.7 | -18.9 | 105 | 10 |
| 2010-01-15T00:18 | 7629 | 398 | -15.2 | -19.0 | 106 | 11 |
| 2010-01-15T00:18 | 7698 | 395 | -15.9 | -18.9 | 107 | 12 |
| 2010-01-15T00:18 | 7754 | 392 | -16.2 | -18.5 | 106 | 13 |
| 2010-01-15T00:18 | 7800 | 390 | -16.2 | -18.2 | 103 | 14 |
| 2010-01-15T00:19 | 7843 | 387 | -16.3 | -18.6 | 101 | 14 |
| 2010-01-15T00:19 | 7881 | 385 | -16.7 | -18.8 | 99 | 14 |
| 2010-01-15T00:19 | 7921 | 383 | -17.0 | -19.2 | 96 | 14 |
| 2010-01-15T00:19 | 7961 | 381 | -17.2 | -20.0 | 94 | 14 |
| 2010-01-15T00:19 | 8003 | 379 | -17.4 | -20.9 | 92 | 14 |
| 2010-01-15T00:19 | 8045 | 377 | -17.7 | -21.0 | 92 | 14 |
| 2010-01-15T00:20 | 8086 | 375 | -18.1 | -21.1 | 93 | 14 |
| 2010-01-15T00:20 | 8130 | 373 | -18.5 | -21.7 | 94 | 14 |
| 2010-01-15T00:20 | 8176 | 371 | -18.7 | -21.8 | 94 | 13 |
| 2010-01-15T00:20 | 8222 | 368 | -18.7 | -21.9 | 93 | 12 |
| 2010-01-15T00:20 | 8267 | 366 | -18.4 | -23.1 | 91 | 12 |
| 2010-01-15T00:20 | 8312 | 364 | -18.8 | -23.4 | 91 | 12 |
| 2010-01-15T00:21 | 8362 | 361 | -19.2 | -23.6 | 92 | 12 |
| 2010-01-15T00:21 | 8405 | 359 | -19.3 | -24.2 | 94 | 12 |
| 2010-01-15T00:21 | 8447 | 357 | -19.3 | -25.9 | 96 | 11 |
| 2010-01-15T00:21 | 8489 | 355 | -19.5 | -26.4 | 97 | 12 |
| 2010-01-15T00:21 | 8530 | 353 | -19.8 | -26.8 | 97 | 12 |
| 2010-01-15T00:21 | 8571 | 351 | -20.0 | -27.1 | 96 | 12 |
| 2010-01-15T00:22 | 8611 | 349 | -20.2 | -27.4 | 96 | 12 |
| 2010-01-15T00:22 | 8651 | 348 | -20.6 | -28.0 | 97 | 12 |
| 2010-01-15T00:22 | 8691 | 346 | -20.8 | -27.9 | 98 | 13 |
| 2010-01-15T00:22 | 8734 | 344 | -21.2 | -27.8 | 99 | 13 |
| 2010-01-15T00:22 | 8774 | 342 | -21.6 | -27.9 | 99 | 13 |
| 2010-01-15T00:22 | 8814 | 340 | -21.8 | -28.4 | 100 | 13 |
| 2010-01-15T00:23 | 8853 | 338 | -22.1 | -28.8 | 100 | 13 |
| 2010-01-15T00:23 | 8892 | 336 | -22.5 | -29.0 | 99 | 12 |
| 2010-01-15T00:23 | 8932 | 335 | -22.8 | -29.4 | 98 | 12 |
| 2010-01-15T00:23 | 8975 | 333 | -23.0 | -29.4 | 97 | 11 |
| 2010-01-15T00:23 | 9017 | 331 | -23.4 | -29.5 | 94 | 11 |
| 2010-01-15T00:23 | 9063 | 329 | -23.8 | -29.6 | 93 | 11 |
| 2010-01-15T00:24 | 9103 | 327 | -24.1 | -29.8 | 91 | 12 |
| 2010-01-15T00:24 | 9143 | 325 | -24.4 | -30.2 | 90 | 12 |
| 2010-01-15T00:24 | 9181 | 323 | -24.6 | -31.0 | 89 | 12 |
| 2010-01-15T00:24 | 9219 | 322 | -24.9 | -31.8 | 87 | 12 |
| 2010-01-15T00:24 | 9257 | 320 | -25.2 | -31.9 | 86 | 12 |
| 2010-01-15T00:24 | 9296 | 318 | -25.5 | -32.4 | 85 | 12 |
| 2010-01-15T00:25 | 9334 | 317 | -25.7 | -32.8 | 86 | 13 |
| 2010-01-15T00:25 | 9373 | 315 | -26.1 | -32.9 | 87 | 13 |
| 2010-01-15T00:25 | 9409 | 313 | -26.3 | -33.2 | 88 | 13 |
| 2010-01-15T00:25 | 9450 | 312 | -26.3 | -34.4 | 87 | 13 |
| 2010-01-15T00:25 | 9494 | 310 | -26.8 | -34.6 | 88 | 12 |
| 2010-01-15T00:25 | 9539 | 308 | -27.2 | -34.9 | 88 | 12 |
| 2010-01-15T00:26 | 9600 | 305 | -27.7 | -35.0 | 86 | 11 |
| 2010-01-15T00:26 | 9637 | 304 | -27.9 | -35.9 | 81 | 11 |
| 2010-01-15T00:26 | 9677 | 302 | -28.2 | -36.9 | 78 | 11 |
| 2010-01-15T00:26 | 9716 | 300 | -28.6 | -37.6 | 76 | 11 |
| 2010-01-15T00:26 | 9755 | 299 | -28.9 | -38.3 | 74 | 11 |
| 2010-01-15T00:26 | 9795 | 297 | -29.2 | -38.8 | 71 | 10 |
| 2010-01-15T00:27 | 9836 | 295 | -29.5 | -39.4 | 68 | 10 |
| 2010-01-15T00:27 | 9877 | 294 | -29.6 | -40.7 | 65 | 9 |
| 2010-01-15T00:27 | 9917 | 292 | -29.9 | -40.9 | 65 | 9 |
| 2010-01-15T00:27 | 9957 | 290 | -30.3 | -41.1 | 65 | 9 |
| 2010-01-15T00:27 | 10002 | 288 | -30.7 | -41.1 | 64 | 9 |
| 2010-01-15T00:27 | 10051 | 286 | -31.2 | -40.7 | 63 | 10 |
| 2010-01-15T00:28 | 10104 | 284 | -31.7 | -40.4 | 61 | 10 |
| 2010-01-15T00:28 | 10154 | 282 | -32.1 | -40.2 | 57 | 9 |
| 2010-01-15T00:28 | 10207 | 280 | -32.8 | -40.2 | 53 | 9 |
| 2010-01-15T00:28 | 10256 | 278 | -33.1 | -40.3 | 53 | 9 |
| 2010-01-15T00:28 | 10300 | 277 | -33.4 | -41.4 | 55 | 9 |
| 2010-01-15T00:28 | 10343 | 275 | -33.8 | -41.9 | 57 | 9 |
| 2010-01-15T00:29 | 10387 | 273 | -34.2 | -42.2 | 59 | 9 |
| 2010-01-15T00:29 | 10432 | 271 | -34.6 | -42.2 | 60 | 9 |
| 2010-01-15T00:29 | 10474 | 270 | -35.1 | -42.8 | 63 | 9 |
| 2010-01-15T00:29 | 10516 | 268 | -35.3 | -43.3 | 65 | 8 |
| 2010-01-15T00:29 | 10559 | 266 | -35.7 | -44.2 | 69 | 8 |
| 2010-01-15T00:29 | 10602 | 265 | -36.0 | -45.3 | 72 | 7 |
| 2010-01-15T00:30 | 10645 | 263 | -36.3 | -46.0 | 74 | 7 |
| 2010-01-15T00:30 | 10689 | 262 | -36.5 | -47.7 | 72 | 7 |
| 2010-01-15T00:30 | 10734 | 260 | -36.6 | -50.6 | 69 | 6 |
| 2010-01-15T00:30 | 10780 | 258 | -37.0 | -51.1 | 65 | 6 |
| 2010-01-15T00:30 | 10825 | 256 | -37.4 | -51.3 | 61 | 6 |
| 2010-01-15T00:30 | 10872 | 255 | -37.9 | -51.2 | 58 | 6 |
| 2010-01-15T00:31 | 10920 | 253 | -38.3 | -51.6 | 58 | 6 |
| 2010-01-15T00:31 | 10966 | 251 | -38.7 | -52.1 | 60 | 6 |
| 2010-01-15T00:31 | 11011 | 250 | -39.1 | -52.6 | 60 | 6 |
| 2010-01-15T00:31 | 11057 | 248 | -39.5 | -52.9 | 59 | 6 |
| 2010-01-15T00:31 | 11102 | 246 | -39.9 | -53.5 | 58 | 6 |
| 2010-01-15T00:31 | 11148 | 245 | -40.2 | -54.6 | 57 | 6 |
| 2010-01-15T00:32 | 11195 | 243 | -40.7 | -54.8 | 57 | 6 |
| 2010-01-15T00:32 | 11240 | 241 | -41.1 | -54.8 | 56 | 6 |
| 2010-01-15T00:32 | 11285 | 240 | -41.5 | -54.8 | 56 | 6 |
| 2010-01-15T00:32 | 11332 | 238 | -42.0 | -54.8 | 58 | 6 |
| 2010-01-15T00:32 | 11381 | 236 | -42.5 | -54.5 | 59 | 7 |
| 2010-01-15T00:32 | 11427 | 235 | -42.9 | -54.0 | 60 | 7 |
| 2010-01-15T00:33 | 11475 | 233 | -43.3 | -54.1 | 60 | 7 |
| 2010-01-15T00:33 | 11521 | 232 | -43.8 | -54.1 | 60 | 7 |
| 2010-01-15T00:33 | 11564 | 230 | -44.2 | -54.3 | 61 | 8 |
| 2010-01-15T00:33 | 11610 | 228 | -44.6 | -54.4 | 62 | 8 |
| 2010-01-15T00:33 | 11657 | 227 | -45.0 | -54.6 | 65 | 8 |
| 2010-01-15T00:33 | 11709 | 225 | -45.4 | -56.5 | 70 | 8 |
| 2010-01-15T00:34 | 11776 | 223 | -45.9 | -57.8 | 75 | 9 |
| 2010-01-15T00:34 | 11830 | 221 | -46.3 | -59.2 | 81 | 9 |
| 2010-01-15T00:34 | 11888 | 219 | -46.8 | -60.1 | 83 | 11 |
| 2010-01-15T00:34 | 11965 | 217 | -47.5 | -60.4 | 83 | 13 |
| 2010-01-15T00:34 | 12042 | 214 | -48.2 | -59.9 | 86 | 14 |
| 2010-01-15T00:34 | 12109 | 212 | -48.8 | -59.3 | 91 | 15 |
| 2010-01-15T00:35 | 12170 | 210 | -49.4 | -59.3 | 94 | 15 |
| 2010-01-15T00:35 | 12232 | 208 | -49.9 | -59.2 | 94 | 16 |
| 2010-01-15T00:35 | 12293 | 206 | -50.6 | -59.4 | 93 | 16 |
| 2010-01-15T00:35 | 12352 | 204 | -51.1 | -59.5 | 93 | 16 |
| 2010-01-15T00:35 | 12435 | 202 | -51.8 | -59.3 | 94 | 16 |
| 2010-01-15T00:35 | 12506 | 199 | -52.5 | -59.4 | 95 | 17 |
| 2010-01-15T00:36 | 12586 | 197 | -53.3 | -59.7 | 94 | 17 |
| 2010-01-15T00:36 | 12660 | 195 | -54.0 | -59.9 | 91 | 18 |
| 2010-01-15T00:36 | 12740 | 192 | -54.7 | -60.0 | 91 | 20 |
| 2010-01-15T00:36 | 12813 | 190 | -55.0 | -60.7 | 93 | 23 |
| 2010-01-15T00:36 | 12866 | 188 | -55.4 | -61.8 | 95 | 25 |
| 2010-01-15T00:36 | 12921 | 187 | -55.9 | -62.8 | 95 | 26 |
| 2010-01-15T00:37 | 12972 | 185 | -56.4 | -63.4 | 94 | 26 |
| 2010-01-15T00:37 | 13019 | 184 | -56.7 | -63.5 | 94 | 26 |
| 2010-01-15T00:37 | 13068 | 183 | -57.1 | -63.7 | 93 | 26 |
| 2010-01-15T00:37 | 13117 | 181 | -57.5 | -63.9 | 93 | 26 |
| 2010-01-15T00:37 | 13167 | 180 | -57.9 | -64.1 | 92 | 26 |
| 2010-01-15T00:37 | 13218 | 178 | -58.5 | -64.4 | 92 | 26 |
| 2010-01-15T00:38 | 13266 | 177 | -58.9 | -64.8 | 92 | 26 |
| 2010-01-15T00:38 | 13314 | 176 | -59.4 | -65.2 | 91 | 26 |
| 2010-01-15T00:38 | 13362 | 174 | -59.8 | -65.5 | 90 | 27 |
| 2010-01-15T00:38 | 13410 | 173 | -60.2 | -66.0 | 89 | 27 |
| 2010-01-15T00:38 | 13463 | 171 | -60.7 | -66.5 | 89 | 27 |
| 2010-01-15T00:38 | 13515 | 170 | -61.2 | -67.1 | 89 | 28 |
| 2010-01-15T00:39 | 13576 | 168 | -61.8 | -67.7 | 89 | 29 |
| 2010-01-15T00:39 | 13635 | 167 | -62.4 | -68.3 | 89 | 29 |
| 2010-01-15T00:39 | 13683 | 165 | -62.7 | -68.6 | 89 | 29 |
| 2010-01-15T00:39 | 13734 | 164 | -63.3 | -69.1 | 88 | 29 |
| 2010-01-15T00:39 | 13783 | 163 | -63.6 | -69.8 | 89 | 29 |
| 2010-01-15T00:39 | 13839 | 161 | -64.2 | -70.8 | 89 | 29 |
| 2010-01-15T00:40 | 13890 | 160 | -64.7 | -71.7 | 89 | 29 |
| 2010-01-15T00:40 | 13934 | 159 | -65.1 | -72.3 | 89 | 29 |
| 2010-01-15T00:40 | 13980 | 158 | -65.4 | -72.8 | 89 | 28 |
| 2010-01-15T00:40 | 14028 | 156 | -66.0 | -73.4 | 90 | 28 |
| 2010-01-15T00:40 | 14078 | 155 | -66.4 | -73.7 | 91 | 27 |
| 2010-01-15T00:40 | 14124 | 154 | -66.8 | -74.1 | 92 | 27 |
| 2010-01-15T00:41 | 14169 | 153 | -67.1 | -74.4 | 92 | 27 |
| 2010-01-15T00:41 | 14216 | 152 | -67.6 | -74.8 | 92 | 27 |
| 2010-01-15T00:41 | 14261 | 150 | -68.2 | -75.3 | 93 | 27 |
| 2010-01-15T00:41 | 14305 | 149 | -68.4 | -75.4 | 93 | 27 |
| 2010-01-15T00:41 | 14355 | 148 | -68.9 | -75.8 | 94 | 27 |
| 2010-01-15T00:41 | 14404 | 147 | -69.5 | -76.4 | 95 | 28 |
| 2010-01-15T00:42 | 14446 | 146 | -69.9 | -76.7 | 96 | 28 |
| 2010-01-15T00:42 | 14490 | 145 | -70.1 | -76.9 | 97 | 28 |
| 2010-01-15T00:42 | 14534 | 144 | -70.6 | -77.3 | 99 | 28 |
| 2010-01-15T00:42 | 14578 | 143 | -70.8 | -77.6 | 99 | 28 |
| 2010-01-15T00:42 | 14620 | 142 | -71.1 | -78.1 | 100 | 28 |
| 2010-01-15T00:42 | 14659 | 141 | -71.4 | -78.7 | 100 | 28 |
| 2010-01-15T00:43 | 14699 | 140 | -71.6 | -79.2 | 101 | 28 |
| 2010-01-15T00:43 | 14739 | 139 | -72.0 | -79.8 | 101 | 28 |
| 2010-01-15T00:43 | 14778 | 138 | -72.3 | -80.3 | 101 | 28 |
| 2010-01-15T00:43 | 14819 | 137 | -72.6 | -80.6 | 100 | 28 |
| 2010-01-15T00:43 | 14860 | 136 | -72.8 | -80.9 | 100 | 29 |
| 2010-01-15T00:43 | 14903 | 135 | -73.0 | -81.2 | 99 | 30 |
| 2010-01-15T00:44 | 14943 | 134 | -73.2 | -81.5 | 99 | 30 |
| 2010-01-15T00:44 | 14983 | 133 | -73.4 | -81.9 | 99 | 30 |
| 2010-01-15T00:44 | 15024 | 132 | -73.7 | -82.3 | 99 | 30 |
| 2010-01-15T00:44 | 15064 | 131 | -74.1 | -82.9 | 99 | 30 |
| 2010-01-15T00:44 | 15105 | 130 | -74.5 | -83.4 | 99 | 30 |
| 2010-01-15T00:44 | 15148 | 129 | -74.8 | -83.8 | 100 | 30 |
| 2010-01-15T00:45 | 15190 | 129 | -75.0 | -84.0 | 101 | 29 |
| 2010-01-15T00:45 | 15234 | 128 | -75.3 | -84.3 | 103 | 29 |
| 2010-01-15T00:45 | 15282 | 126 | -75.7 | -84.8 | 103 | 28 |
| 2010-01-15T00:45 | 15333 | 125 | -76.2 | -85.3 | 105 | 28 |
| 2010-01-15T00:45 | 15384 | 124 | -76.6 | -85.7 | 106 | 28 |
| 2010-01-15T00:45 | 15434 | 123 | -77.0 | -86.0 | 107 | 28 |
| 2010-01-15T00:46 | 15485 | 122 | -77.4 | -86.3 | 108 | 28 |
| 2010-01-15T00:46 | 15533 | 121 | -77.9 | -86.7 | 108 | 29 |
| 2010-01-15T00:46 | 15580 | 120 | -78.2 | -86.9 | 108 | 28 |
| 2010-01-15T00:46 | 15632 | 119 | -78.6 | -87.3 | 106 | 28 |
| 2010-01-15T00:46 | 15683 | 118 | -78.8 | -87.5 | 104 | 28 |
| 2010-01-15T00:46 | 15734 | 117 | -79.2 | -87.8 | 103 | 28 |
| 2010-01-15T00:47 | 15785 | 116 | -79.7 | -88.3 | 102 | 28 |
| 2010-01-15T00:47 | 15835 | 115 | -80.3 | -88.9 | 101 | 27 |
| 2010-01-15T00:47 | 15885 | 114 | -80.6 | -89.1 | 99 | 27 |
| 2010-01-15T00:47 | 15937 | 113 | -81.0 | -89.4 | 97 | 27 |
| 2010-01-15T00:47 | 15985 | 112 | -81.3 | -89.7 | 96 | 27 |
| 2010-01-15T00:47 | 16032 | 111 | -81.6 | -89.9 | 95 | 27 |
| 2010-01-15T00:48 | 16082 | 110 | -82.1 | -90.4 | 94 | 28 |
| 2010-01-15T00:48 | 16128 | 109 | -82.2 | -90.4 | 92 | 29 |
| 2010-01-15T00:48 | 16176 | 108 | -82.2 | -90.4 | 91 | 31 |
| 2010-01-15T00:48 | 16219 | 107 | -82.0 | -90.3 | 91 | 32 |
| 2010-01-15T00:48 | 16265 | 106 | -82.4 | -90.8 | 91 | 33 |
| 2010-01-15T00:48 | 16316 | 105 | -82.8 | -91.2 | 93 | 34 |
| 2010-01-15T00:49 | 16367 | 104 | -83.1 | -91.5 | 95 | 34 |
| 2010-01-15T00:49 | 16415 | 104 | -82.9 | -91.3 | 96 | 35 |
| 2010-01-15T00:49 | 16462 | 103 | -83.3 | -91.7 | 96 | 35 |
| 2010-01-15T00:49 | 16510 | 102 | -83.6 | -92.0 | 95 | 35 |
| 2010-01-15T00:49 | 16554 | 101 | -83.7 | -92.1 | 94 | 36 |
| 2010-01-15T00:49 | 16599 | 100 | -84.0 | -92.4 | 93 | 36 |
| 2010-01-15T00:50 | 16643 | 99 | -84.3 | -92.7 | 92 | 35 |
| 2010-01-15T00:50 | 16690 | 99 | -84.4 | -92.8 | 91 | 34 |
| 2010-01-15T00:50 | 16734 | 98 | -84.4 | -92.9 | 89 | 32 |
| 2010-01-15T00:50 | 16781 | 97 | -84.3 | -92.8 | 87 | 30 |
| 2010-01-15T00:50 | 16825 | 96 | -84.2 | -92.8 | 85 | 28 |
| 2010-01-15T00:50 | 16871 | 95 | -83.8 | -92.4 | 80 | 25 |
| 2010-01-15T00:51 | 16932 | 94 | -81.2 | -90.2 | 73 | 22 |
| 2010-01-15T00:51 | 16989 | 93 | -79.6 | -88.7 | 68 | 19 |
| 2010-01-15T00:51 | 17050 | 92 | -79.1 | -88.3 | 64 | 16 |
| 2010-01-15T00:51 | 17100 | 92 | -78.9 | -88.2 | 61 | 14 |
| 2010-01-15T00:51 | 17159 | 91 | -78.8 | -88.2 | 57 | 12 |
| 2010-01-15T00:51 | 17223 | 90 | -79.0 | -88.5 | 54 | 10 |
| 2010-01-15T00:52 | 17275 | 89 | -79.2 | -88.8 | 47 | 7 |
| 2010-01-15T00:52 | 17322 | 88 | -79.3 | -89.0 | 40 | 5 |
| 2010-01-15T00:52 | 17367 | 87 | -78.8 | -88.7 | 34 | 3 |
| 2010-01-15T00:52 | 17410 | 87 | -78.6 | -88.6 | 19 | 1 |
| 2010-01-15T00:52 | 17456 | 86 | -78.1 | -88.3 | 327 | 1 |
| 2010-01-15T00:52 | 17501 | 85 | -77.1 | -87.6 | 311 | 2 |
| 2010-01-15T00:53 | 17546 | 85 | -77.1 | -87.7 | 307 | 3 |
| 2010-01-15T00:53 | 17594 | 84 | -77.3 | -88.0 | 303 | 4 |
| 2010-01-15T00:53 | 17640 | 83 | -77.7 | -88.5 | 296 | 5 |
| 2010-01-15T00:53 | 17687 | 83 | -78.0 | -88.9 | 292 | 6 |
| 2010-01-15T00:53 | 17737 | 82 | -78.1 | -89.2 | 293 | 7 |
| 2010-01-15T00:53 | 17787 | 81 | -77.8 | -89.1 | 298 | 9 |
| 2010-01-15T00:54 | 17837 | 80 | -77.7 | -89.1 | 301 | 9 |
| 2010-01-15T00:54 | 17885 | 80 | -77.6 | -89.1 | 304 | 9 |
| 2010-01-15T00:54 | 17933 | 79 | -77.1 | -88.9 | 305 | 8 |
| 2010-01-15T00:54 | 17982 | 78 | -76.9 | -88.9 | 305 | 7 |
| 2010-01-15T00:54 | 18028 | 78 | -77.0 | -89.0 | 307 | 6 |
| 2010-01-15T00:54 | 18075 | 77 | -77.0 | -89.2 | 311 | 5 |
| 2010-01-15T00:55 | 18120 | 77 | -76.8 | -89.1 | 315 | 5 |
| 2010-01-15T00:55 | 18165 | 76 | -76.7 | -89.1 | 313 | 5 |
| 2010-01-15T00:55 | 18209 | 75 | -77.0 | -89.5 | 306 | 5 |
| 2010-01-15T00:55 | 18253 | 75 | -77.1 | -89.7 | 297 | 5 |
| 2010-01-15T00:55 | 18297 | 74 | -76.7 | -89.6 | 288 | 5 |
| 2010-01-15T00:55 | 18340 | 74 | -76.3 | -89.3 | 281 | 5 |
| 2010-01-15T00:56 | 18385 | 73 | -76.4 | -89.6 | 276 | 5 |
| 2010-01-15T00:56 | 18429 | 73 | -76.1 | -89.4 | 270 | 5 |
| 2010-01-15T00:56 | 18472 | 72 | -75.1 | -88.8 | 260 | 5 |
| 2010-01-15T00:56 | 18516 | 71 | -74.8 | -88.6 | 248 | 6 |
| 2010-01-15T00:56 | 18560 | 71 | -73.9 | -88.1 | 240 | 7 |
| 2010-01-15T00:56 | 18605 | 70 | -73.8 | -88.1 | 236 | 8 |
| 2010-01-15T00:57 | 18652 | 70 | -74.0 | -88.5 | 234 | 10 |
| 2010-01-15T00:57 | 18699 | 69 | -74.0 | -88.6 | 233 | 10 |
| 2010-01-15T00:57 | 18746 | 69 | -74.4 | -89.2 | 232 | 10 |
| 2010-01-15T00:57 | 18793 | 68 | -74.6 | -89.5 | 233 | 10 |
| 2010-01-15T00:57 | 18844 | 68 | -74.5 | -89.5 | 233 | 9 |
| 2010-01-15T00:57 | 18891 | 67 | -74.1 | -89.4 | 236 | 8 |
| 2010-01-15T00:58 | 18941 | 66 | -74.0 | -89.4 | 243 | 7 |
| 2010-01-15T00:58 | 18991 | 66 | -73.3 | -89.1 | 257 | 6 |
| 2010-01-15T00:58 | 19040 | 65 | -72.8 | -88.8 | 268 | 7 |
| 2010-01-15T00:58 | 19087 | 65 | -72.8 | -89.0 | 272 | 8 |
| 2010-01-15T00:58 | 19134 | 64 | -73.1 | -89.4 | 273 | 8 |
| 2010-01-15T00:58 | 19180 | 64 | -73.3 | -89.7 | 273 | 8 |
| 2010-01-15T00:59 | 19226 | 63 | -73.3 | -89.8 | 274 | 9 |
| 2010-01-15T00:59 | 19272 | 63 | -73.0 | -89.7 | 275 | 9 |
| 2010-01-15T00:59 | 19319 | 62 | -73.2 | -90.0 | 275 | 9 |
| 2010-01-15T00:59 | 19366 | 62 | -73.1 | -90.0 | 272 | 9 |
| 2010-01-15T00:59 | 19413 | 61 | -73.1 | -90.2 | 266 | 9 |
| 2010-01-15T00:59 | 19461 | 61 | -72.8 | -90.1 | 260 | 9 |
| 2010-01-15T01:00 | 19509 | 60 | -72.4 | -89.9 | 255 | 8 |
| 2010-01-15T01:00 | 19559 | 60 | -72.1 | -89.8 | 251 | 8 |
| 2010-01-15T01:00 | 19606 | 59 | -71.7 | -89.5 | 247 | 8 |
| 2010-01-15T01:00 | 19649 | 59 | -70.9 | -89.1 | 244 | 9 |
| 2010-01-15T01:00 | 19694 | 58 | -70.4 | -88.9 | 242 | 11 |
| 2010-01-15T01:00 | 19749 | 58 | -69.3 | -88.3 | 241 | 13 |
| 2010-01-15T01:01 | 19799 | 57 | -69.4 | -88.5 | 241 | 15 |
| 2010-01-15T01:01 | 19846 | 57 | -69.3 | -88.7 | 242 | 16 |
| 2010-01-15T01:01 | 19897 | 57 | -69.6 | -89.0 | 242 | 16 |
| 2010-01-15T01:01 | 19950 | 56 | -70.0 | -89.6 | 242 | 16 |
| 2010-01-15T01:01 | 20001 | 56 | -70.2 | -90.0 | 242 | 16 |
| 2010-01-15T01:01 | 20051 | 55 | -70.6 | -90.5 | 243 | 16 |
| 2010-01-15T01:02 | 20101 | 55 | -70.6 | -90.8 | 243 | 15 |
| 2010-01-15T01:02 | 20152 | 54 | -70.6 | -90.9 | 244 | 15 |
| 2010-01-15T01:02 | 20202 | 54 | -70.1 | -90.8 | 243 | 16 |
| 2010-01-15T01:02 | 20252 | 53 | -69.9 | -90.8 | 242 | 17 |
| 2010-01-15T01:02 | 20303 | 53 | -70.1 | -91.0 | 241 | 17 |
| 2010-01-15T01:02 | 20353 | 52 | -70.3 | -91.3 | 240 | 18 |
| 2010-01-15T01:03 | 20402 | 52 | -70.4 | -91.6 | 239 | 18 |
| 2010-01-15T01:03 | 20451 | 51 | -70.8 | -92.0 | 239 | 19 |
| 2010-01-15T01:03 | 20502 | 51 | -71.2 | -92.4 | 239 | 19 |
| 2010-01-15T01:03 | 20551 | 51 | -71.5 | -92.8 | 238 | 19 |
| 2010-01-15T01:03 | 20601 | 50 | -71.7 | -93.0 | 236 | 18 |
| 2010-01-15T01:03 | 20649 | 50 | -71.6 | -93.0 | 234 | 17 |
| 2010-01-15T01:04 | 20699 | 49 | -71.2 | -92.9 | 234 | 15 |
| 2010-01-15T01:04 | 20748 | 49 | -69.4 | -91.8 | 232 | 12 |
| 2010-01-15T01:04 | 20796 | 49 | -67.9 | -90.8 | 228 | 11 |
| 2010-01-15T01:04 | 20846 | 48 | -68.2 | -90.9 | 224 | 10 |
| 2010-01-15T01:04 | 20894 | 48 | -68.2 | -91.1 | 219 | 9 |
| 2010-01-15T01:04 | 20942 | 47 | -68.4 | -91.3 | 215 | 8 |
| 2010-01-15T01:05 | 20990 | 47 | -67.4 | -91.0 | 212 | 7 |
| 2010-01-15T01:05 | 21036 | 47 | -67.3 | -91.2 | 212 | 7 |
| 2010-01-15T01:05 | 21085 | 46 | -67.4 | -91.4 | 216 | 6 |
| 2010-01-15T01:05 | 21133 | 46 | -67.5 | -91.7 | 221 | 5 |
| 2010-01-15T01:05 | 21179 | 46 | -67.6 | -92.0 | 227 | 4 |
| 2010-01-15T01:05 | 21228 | 45 | -67.1 | -92.0 | 227 | 2 |
| 2010-01-15T01:06 | 21276 | 45 | -66.7 | -91.9 | 93 | 0 |
| 2010-01-15T01:06 | 21322 | 44 | -66.2 | -91.8 | 57 | 2 |
| 2010-01-15T01:06 | 21370 | 44 | -65.9 | -91.8 | 48 | 4 |
| 2010-01-15T01:06 | 21419 | 44 | -65.7 | -91.8 | 40 | 6 |
| 2010-01-15T01:06 | 21464 | 43 | -65.6 | -91.9 | 38 | 7 |
| 2010-01-15T01:06 | 21514 | 43 | -65.7 | -92.1 | 38 | 8 |
| 2010-01-15T01:07 | 21561 | 43 | -65.6 | -92.3 | 38 | 9 |
| 2010-01-15T01:07 | 21609 | 42 | -65.9 | -92.6 | 37 | 9 |
| 2010-01-15T01:07 | 21658 | 42 | -66.1 | -93.0 | 35 | 8 |
| 2010-01-15T01:07 | 21708 | 42 | -66.2 | -93.3 | 33 | 8 |
| 2010-01-15T01:07 | 21760 | 41 | -66.0 | -93.3 | 34 | 8 |
| 2010-01-15T01:07 | 21810 | 41 | -66.3 | -93.6 | 39 | 8 |
| 2010-01-15T01:08 | 21861 | 41 | -66.5 | -93.8 | 47 | 7 |
| 2010-01-15T01:08 | 21910 | 40 | -66.7 | -94.1 | 57 | 6 |
| 2010-01-15T01:08 | 21958 | 40 | -66.6 | -94.2 | 65 | 7 |
| 2010-01-15T01:08 | 22007 | 40 | -66.6 | -94.3 | 64 | 7 |
| 2010-01-15T01:08 | 22058 | 39 | -66.8 | -94.5 | 59 | 8 |
| 2010-01-15T01:08 | 22107 | 39 | -66.8 | -94.7 | 53 | 10 |
| 2010-01-15T01:09 | 22156 | 39 | -67.0 | -94.8 | 48 | 11 |
| 2010-01-15T01:09 | 22205 | 38 | -67.1 | -94.9 | 44 | 12 |
| 2010-01-15T01:09 | 22255 | 38 | -67.1 | -95.0 | 43 | 13 |
| 2010-01-15T01:09 | 22307 | 38 | -67.3 | -95.2 | 44 | 14 |
| 2010-01-15T01:09 | 22355 | 38 | -67.5 | -95.3 | 44 | 14 |
| 2010-01-15T01:09 | 22406 | 37 | -67.5 | -95.4 | 45 | 14 |
| 2010-01-15T01:10 | 22456 | 37 | -66.9 | -95.2 | 47 | 15 |
| 2010-01-15T01:10 | 22505 | 37 | -66.9 | -95.3 | 52 | 15 |
| 2010-01-15T01:10 | 22557 | 36 | -66.6 | -94.9 | 58 | 15 |
| 2010-01-15T01:10 | 22606 | 36 | -65.6 | -94.6 | 65 | 16 |
| 2010-01-15T01:10 | 22657 | 36 | -65.4 | -94.5 | 74 | 16 |
| 2010-01-15T01:10 | 22708 | 35 | -64.8 | -94.2 | 83 | 17 |
| 2010-01-15T01:11 | 22759 | 35 | -63.9 | -93.7 | 90 | 18 |
| 2010-01-15T01:11 | 22809 | 35 | -64.1 | -93.6 | 94 | 19 |
| 2010-01-15T01:11 | 22862 | 35 | -64.4 | -93.7 | 96 | 19 |
| 2010-01-15T01:11 | 22911 | 34 | -64.9 | -94.0 | 96 | 19 |
| 2010-01-15T01:11 | 22962 | 34 | -65.2 | -94.3 | 95 | 19 |
| 2010-01-15T01:11 | 23013 | 34 | -65.5 | -94.7 | 94 | 19 |
| 2010-01-15T01:12 | 23063 | 33 | -65.6 | -94.8 | 92 | 19 |
| 2010-01-15T01:12 | 23116 | 33 | -65.3 | -94.6 | 90 | 20 |
| 2010-01-15T01:12 | 23165 | 33 | -65.1 | -94.5 | 87 | 21 |
| 2010-01-15T01:12 | 23216 | 33 | -65.3 | -94.7 | 85 | 21 |
| 2010-01-15T01:12 | 23266 | 32 | -65.4 | -94.7 | 84 | 22 |
| 2010-01-15T01:12 | 23320 | 32 | -65.7 | -94.9 | 86 | 22 |
| 2010-01-15T11:34 | 4 | 1008 | 28.1 | 25.5 | 320 | 2 |
| 2010-01-15T11:34 | 15 | 1007 | 28.5 | 25.9 | 327 | 2 |
| 2010-01-15T11:34 | 26 | 1005 | 28.5 | 26.0 | 327 | 2 |
| 2010-01-15T11:34 | 39 | 1004 | 28.5 | 26.0 | 326 | 3 |
| 2010-01-15T11:34 | 51 | 1002 | 28.3 | 26.0 | 326 | 3 |
| 2010-01-15T11:34 | 65 | 1001 | 28.2 | 26.0 | 325 | 3 |
| 2010-01-15T11:34 | 78 | 999 | 28.2 | 25.9 | 325 | 4 |
| 2010-01-15T11:34 | 89 | 998 | 28.1 | 25.9 | 324 | 4 |
| 2010-01-15T11:34 | 100 | 997 | 28.0 | 25.8 | 324 | 4 |
| 2010-01-15T11:34 | 112 | 996 | 28.0 | 25.7 | 323 | 4 |
| 2010-01-15T11:34 | 121 | 995 | 27.9 | 25.6 | 322 | 5 |
| 2010-01-15T11:34 | 131 | 994 | 27.8 | 25.5 | 321 | 5 |
| 2010-01-15T11:34 | 142 | 992 | 27.7 | 25.5 | 320 | 5 |
| 2010-01-15T11:34 | 154 | 991 | 27.6 | 25.5 | 319 | 5 |
| 2010-01-15T11:34 | 165 | 990 | 27.5 | 25.4 | 318 | 5 |
| 2010-01-15T11:34 | 173 | 989 | 27.4 | 25.4 | 317 | 5 |
| 2010-01-15T11:34 | 180 | 988 | 27.3 | 25.4 | 316 | 5 |
| 2010-01-15T11:34 | 188 | 987 | 27.3 | 25.4 | 315 | 5 |
| 2010-01-15T11:34 | 196 | 986 | 27.2 | 25.4 | 314 | 5 |
| 2010-01-15T11:34 | 203 | 986 | 27.1 | 25.5 | 314 | 5 |
| 2010-01-15T11:34 | 210 | 985 | 27.0 | 25.5 | 314 | 5 |
| 2010-01-15T11:34 | 218 | 984 | 26.9 | 25.6 | 313 | 5 |
| 2010-01-15T11:34 | 226 | 983 | 26.9 | 25.5 | 313 | 5 |
| 2010-01-15T11:34 | 233 | 982 | 26.8 | 25.5 | 313 | 4 |
| 2010-01-15T11:34 | 240 | 981 | 26.7 | 25.5 | 313 | 4 |
| 2010-01-15T11:34 | 247 | 981 | 26.6 | 25.4 | 313 | 4 |
| 2010-01-15T11:34 | 255 | 980 | 26.6 | 25.4 | 313 | 4 |
| 2010-01-15T11:34 | 265 | 979 | 26.5 | 25.4 | 313 | 4 |
| 2010-01-15T11:34 | 273 | 978 | 26.4 | 25.4 | 313 | 4 |
| 2010-01-15T11:34 | 281 | 977 | 26.3 | 25.4 | 313 | 4 |
| 2010-01-15T11:35 | 288 | 976 | 26.3 | 25.4 | 312 | 4 |
| 2010-01-15T11:35 | 297 | 975 | 26.2 | 25.3 | 312 | 4 |
| 2010-01-15T11:35 | 308 | 974 | 26.1 | 25.3 | 312 | 4 |
| 2010-01-15T11:35 | 318 | 973 | 26.0 | 25.3 | 311 | 4 |
| 2010-01-15T11:35 | 326 | 972 | 25.9 | 25.3 | 311 | 4 |
| 2010-01-15T11:35 | 333 | 971 | 25.8 | 25.3 | 311 | 4 |
| 2010-01-15T11:35 | 340 | 970 | 25.8 | 25.2 | 311 | 4 |
| 2010-01-15T11:35 | 347 | 970 | 25.7 | 25.2 | 311 | 4 |
| 2010-01-15T11:35 | 355 | 969 | 25.6 | 25.2 | 311 | 4 |
| 2010-01-15T11:35 | 364 | 968 | 25.6 | 25.2 | 311 | 4 |
| 2010-01-15T11:35 | 374 | 967 | 25.5 | 25.1 | 311 | 4 |
| 2010-01-15T11:35 | 384 | 966 | 25.4 | 25.0 | 312 | 4 |
| 2010-01-15T11:35 | 393 | 965 | 25.3 | 25.0 | 312 | 4 |
| 2010-01-15T11:35 | 401 | 964 | 25.2 | 25.0 | 312 | 4 |
| 2010-01-15T11:35 | 409 | 963 | 25.2 | 25.0 | 313 | 4 |
| 2010-01-15T11:35 | 417 | 962 | 25.1 | 25.0 | 314 | 4 |
| 2010-01-15T11:35 | 425 | 961 | 25.0 | 24.9 | 314 | 4 |
| 2010-01-15T11:35 | 432 | 960 | 25.0 | 24.7 | 315 | 4 |
| 2010-01-15T11:35 | 438 | 960 | 25.0 | 24.7 | 315 | 4 |
| 2010-01-15T11:35 | 444 | 959 | 24.9 | 24.6 | 316 | 4 |
| 2010-01-15T11:35 | 450 | 958 | 24.9 | 24.2 | 317 | 4 |
| 2010-01-15T11:35 | 457 | 958 | 24.9 | 24.1 | 317 | 4 |
| 2010-01-15T11:35 | 464 | 957 | 24.8 | 24.1 | 318 | 4 |
| 2010-01-15T11:35 | 470 | 956 | 24.8 | 24.1 | 318 | 5 |
| 2010-01-15T11:35 | 476 | 956 | 24.7 | 24.1 | 319 | 5 |
| 2010-01-15T11:35 | 483 | 955 | 24.6 | 24.0 | 319 | 5 |
| 2010-01-15T11:35 | 490 | 954 | 24.6 | 23.8 | 320 | 5 |
| 2010-01-15T11:35 | 497 | 953 | 24.6 | 23.7 | 320 | 5 |
| 2010-01-15T11:35 | 503 | 953 | 24.6 | 23.5 | 321 | 5 |
| 2010-01-15T11:35 | 509 | 952 | 24.6 | 23.2 | 321 | 5 |
| 2010-01-15T11:36 | 515 | 951 | 24.6 | 23.0 | 322 | 5 |
| 2010-01-15T11:36 | 522 | 951 | 24.6 | 22.9 | 322 | 5 |
| 2010-01-15T11:36 | 529 | 950 | 24.6 | 22.6 | 322 | 5 |
| 2010-01-15T11:36 | 539 | 949 | 24.6 | 22.5 | 322 | 5 |
| 2010-01-15T11:36 | 550 | 948 | 24.5 | 22.5 | 321 | 5 |
| 2010-01-15T11:36 | 560 | 947 | 24.4 | 22.5 | 321 | 5 |
| 2010-01-15T11:36 | 570 | 945 | 24.2 | 22.7 | 320 | 5 |
| 2010-01-15T11:36 | 582 | 944 | 24.0 | 22.9 | 319 | 5 |
| 2010-01-15T11:36 | 595 | 943 | 23.9 | 22.8 | 319 | 5 |
| 2010-01-15T11:36 | 608 | 941 | 23.8 | 22.8 | 318 | 5 |
| 2010-01-15T11:36 | 620 | 940 | 23.6 | 22.9 | 317 | 5 |
| 2010-01-15T11:36 | 630 | 939 | 23.5 | 23.0 | 317 | 5 |
| 2010-01-15T11:36 | 639 | 938 | 23.4 | 22.9 | 316 | 5 |
| 2010-01-15T11:36 | 649 | 937 | 23.4 | 22.8 | 316 | 5 |
| 2010-01-15T11:36 | 659 | 936 | 23.3 | 22.7 | 316 | 5 |
| 2010-01-15T11:36 | 670 | 935 | 23.2 | 22.8 | 316 | 5 |
| 2010-01-15T11:36 | 681 | 934 | 23.1 | 22.9 | 317 | 5 |
| 2010-01-15T11:36 | 692 | 933 | 23.0 | 22.7 | 317 | 5 |
| 2010-01-15T11:36 | 700 | 932 | 23.0 | 22.6 | 318 | 5 |
| 2010-01-15T11:36 | 709 | 931 | 22.9 | 22.7 | 319 | 5 |
| 2010-01-15T11:36 | 719 | 930 | 22.8 | 22.8 | 319 | 5 |
| 2010-01-15T11:36 | 731 | 928 | 22.7 | 22.7 | 319 | 6 |
| 2010-01-15T11:36 | 745 | 927 | 22.7 | 22.7 | 319 | 6 |
| 2010-01-15T11:36 | 759 | 925 | 22.7 | 22.6 | 319 | 6 |
| 2010-01-15T11:36 | 773 | 924 | 22.6 | 22.3 | 318 | 6 |
| 2010-01-15T11:36 | 784 | 923 | 22.6 | 22.1 | 318 | 6 |
| 2010-01-15T11:36 | 794 | 922 | 22.6 | 22.1 | 317 | 6 |
| 2010-01-15T11:36 | 801 | 921 | 22.6 | 22.0 | 316 | 6 |
| 2010-01-15T11:36 | 808 | 920 | 22.6 | 21.9 | 316 | 6 |
| 2010-01-15T11:36 | 814 | 920 | 22.6 | 21.8 | 315 | 6 |
| 2010-01-15T11:37 | 824 | 919 | 22.5 | 21.7 | 314 | 6 |
| 2010-01-15T11:37 | 835 | 917 | 22.5 | 21.6 | 314 | 6 |
| 2010-01-15T11:37 | 847 | 916 | 22.3 | 21.4 | 313 | 6 |
| 2010-01-15T11:37 | 857 | 915 | 22.3 | 21.3 | 313 | 7 |
| 2010-01-15T11:37 | 866 | 914 | 22.3 | 21.1 | 313 | 7 |
| 2010-01-15T11:37 | 875 | 913 | 22.3 | 20.9 | 313 | 7 |
| 2010-01-15T11:37 | 883 | 912 | 22.3 | 20.8 | 313 | 7 |
| 2010-01-15T11:37 | 891 | 911 | 22.3 | 20.7 | 313 | 7 |
| 2010-01-15T11:37 | 900 | 911 | 22.3 | 20.5 | 313 | 7 |
| 2010-01-15T11:37 | 908 | 910 | 22.3 | 20.3 | 313 | 7 |
| 2010-01-15T11:37 | 917 | 909 | 22.4 | 19.9 | 313 | 7 |
| 2010-01-15T11:37 | 926 | 908 | 22.4 | 19.6 | 313 | 8 |
| 2010-01-15T11:37 | 936 | 907 | 22.3 | 19.5 | 312 | 8 |
| 2010-01-15T11:37 | 944 | 906 | 22.1 | 19.4 | 312 | 8 |
| 2010-01-15T11:37 | 951 | 905 | 22.1 | 19.3 | 311 | 8 |
| 2010-01-15T11:37 | 959 | 905 | 22.0 | 19.2 | 310 | 8 |
| 2010-01-15T11:37 | 966 | 904 | 22.0 | 19.2 | 309 | 8 |
| 2010-01-15T11:37 | 973 | 903 | 21.9 | 19.2 | 309 | 8 |
| 2010-01-15T11:37 | 982 | 902 | 21.8 | 19.2 | 308 | 8 |
| 2010-01-15T11:37 | 990 | 901 | 21.7 | 19.2 | 307 | 8 |
| 2010-01-15T11:37 | 998 | 900 | 21.6 | 19.2 | 306 | 8 |
| 2010-01-15T11:37 | 1006 | 900 | 21.5 | 19.2 | 305 | 8 |
| 2010-01-15T11:37 | 1015 | 899 | 21.5 | 19.2 | 304 | 8 |
| 2010-01-15T11:37 | 1023 | 898 | 21.4 | 19.2 | 303 | 8 |
| 2010-01-15T11:37 | 1032 | 897 | 21.3 | 19.2 | 303 | 8 |
| 2010-01-15T11:37 | 1041 | 896 | 21.3 | 19.1 | 302 | 9 |
| 2010-01-15T11:37 | 1051 | 895 | 21.3 | 18.9 | 301 | 9 |
| 2010-01-15T11:37 | 1063 | 894 | 21.2 | 18.8 | 301 | 9 |
| 2010-01-15T11:37 | 1076 | 892 | 21.1 | 18.7 | 300 | 9 |
| 2010-01-15T11:37 | 1087 | 891 | 21.0 | 18.7 | 300 | 9 |
| 2010-01-15T11:38 | 1099 | 890 | 20.8 | 18.7 | 299 | 10 |
| 2010-01-15T11:38 | 1111 | 889 | 20.7 | 18.7 | 299 | 10 |
| 2010-01-15T11:38 | 1123 | 888 | 20.5 | 18.8 | 298 | 10 |
| 2010-01-15T11:38 | 1133 | 886 | 20.4 | 19.0 | 298 | 10 |
| 2010-01-15T11:38 | 1142 | 886 | 20.5 | 19.0 | 297 | 10 |
| 2010-01-15T11:38 | 1152 | 885 | 20.5 | 18.9 | 297 | 10 |
| 2010-01-15T11:38 | 1164 | 883 | 20.5 | 18.8 | 296 | 10 |
| 2010-01-15T11:38 | 1174 | 882 | 20.4 | 18.7 | 296 | 10 |
| 2010-01-15T11:38 | 1185 | 881 | 20.3 | 18.6 | 296 | 11 |
| 2010-01-15T11:38 | 1198 | 880 | 20.1 | 18.5 | 296 | 11 |
| 2010-01-15T11:38 | 1211 | 879 | 20.0 | 18.4 | 295 | 11 |
| 2010-01-15T11:38 | 1223 | 877 | 19.9 | 18.4 | 295 | 11 |
| 2010-01-15T11:38 | 1235 | 876 | 19.9 | 18.4 | 295 | 11 |
| 2010-01-15T11:38 | 1247 | 875 | 19.8 | 18.5 | 295 | 10 |
| 2010-01-15T11:38 | 1258 | 874 | 19.6 | 18.5 | 295 | 10 |
| 2010-01-15T11:38 | 1268 | 873 | 19.4 | 18.5 | 295 | 10 |
| 2010-01-15T11:38 | 1279 | 872 | 19.3 | 18.4 | 295 | 10 |
| 2010-01-15T11:38 | 1290 | 871 | 19.2 | 18.5 | 294 | 10 |
| 2010-01-15T11:38 | 1300 | 870 | 19.0 | 18.7 | 294 | 10 |
| 2010-01-15T11:38 | 1308 | 869 | 18.9 | 18.9 | 294 | 10 |
| 2010-01-15T11:38 | 1319 | 868 | 18.9 | 18.9 | 293 | 9 |
| 2010-01-15T11:38 | 1328 | 867 | 18.8 | 18.8 | 293 | 9 |
| 2010-01-15T11:38 | 1337 | 866 | 18.8 | 18.8 | 292 | 9 |
| 2010-01-15T11:38 | 1346 | 865 | 18.7 | 18.7 | 291 | 9 |
| 2010-01-15T11:38 | 1357 | 864 | 18.7 | 18.7 | 290 | 9 |
| 2010-01-15T11:38 | 1368 | 863 | 18.7 | 18.7 | 288 | 9 |
| 2010-01-15T11:38 | 1380 | 862 | 18.6 | 18.6 | 287 | 9 |
| 2010-01-15T11:38 | 1392 | 860 | 18.5 | 18.5 | 286 | 9 |
| 2010-01-15T11:38 | 1405 | 859 | 18.5 | 18.5 | 285 | 9 |
| 2010-01-15T11:38 | 1418 | 858 | 18.5 | 18.5 | 284 | 10 |
| 2010-01-15T11:39 | 1428 | 857 | 18.4 | 18.4 | 283 | 10 |
| 2010-01-15T11:39 | 1435 | 856 | 18.4 | 18.4 | 283 | 10 |
| 2010-01-15T11:39 | 1444 | 855 | 18.4 | 18.4 | 283 | 10 |
| 2010-01-15T11:39 | 1457 | 854 | 18.3 | 18.3 | 283 | 11 |
| 2010-01-15T11:39 | 1470 | 853 | 18.2 | 18.2 | 283 | 11 |
| 2010-01-15T11:39 | 1481 | 852 | 18.1 | 18.1 | 284 | 11 |
| 2010-01-15T11:39 | 1491 | 851 | 18.2 | 18.2 | 284 | 11 |
| 2010-01-15T11:39 | 1500 | 850 | 18.2 | 18.2 | 285 | 12 |
| 2010-01-15T11:39 | 1508 | 849 | 18.1 | 18.1 | 286 | 12 |
| 2010-01-15T11:39 | 1517 | 848 | 18.1 | 18.1 | 286 | 12 |
| 2010-01-15T11:39 | 1525 | 847 | 18.0 | 18.0 | 287 | 12 |
| 2010-01-15T11:39 | 1534 | 846 | 18.0 | 18.0 | 287 | 12 |
| 2010-01-15T11:39 | 1544 | 845 | 18.0 | 18.0 | 287 | 12 |
| 2010-01-15T11:39 | 1553 | 844 | 18.0 | 18.0 | 287 | 12 |
| 2010-01-15T11:39 | 1561 | 844 | 17.9 | 17.9 | 287 | 12 |
| 2010-01-15T11:39 | 1568 | 843 | 17.9 | 17.9 | 287 | 12 |
| 2010-01-15T11:39 | 1574 | 842 | 17.8 | 17.8 | 287 | 12 |
| 2010-01-15T11:39 | 1581 | 842 | 17.8 | 17.8 | 286 | 12 |
| 2010-01-15T11:39 | 1590 | 841 | 17.8 | 17.8 | 286 | 12 |
| 2010-01-15T11:39 | 1600 | 840 | 17.8 | 17.8 | 286 | 12 |
| 2010-01-15T11:39 | 1609 | 839 | 17.7 | 17.7 | 285 | 12 |
| 2010-01-15T11:39 | 1617 | 838 | 17.6 | 17.6 | 285 | 12 |
| 2010-01-15T11:39 | 1626 | 837 | 17.6 | 17.6 | 285 | 12 |
| 2010-01-15T11:39 | 1636 | 836 | 17.5 | 17.5 | 285 | 12 |
| 2010-01-15T11:39 | 1645 | 835 | 17.4 | 17.4 | 285 | 12 |
| 2010-01-15T11:39 | 1653 | 835 | 17.4 | 17.4 | 285 | 12 |
| 2010-01-15T11:39 | 1663 | 834 | 17.3 | 17.3 | 285 | 12 |
| 2010-01-15T11:39 | 1676 | 832 | 17.2 | 17.2 | 285 | 12 |
| 2010-01-15T11:39 | 1686 | 831 | 17.1 | 17.1 | 285 | 12 |
| 2010-01-15T11:39 | 1696 | 831 | 17.0 | 17.0 | 285 | 12 |
| 2010-01-15T11:40 | 1705 | 830 | 17.1 | 17.1 | 285 | 12 |
| 2010-01-15T11:40 | 1713 | 829 | 17.0 | 17.0 | 285 | 13 |
| 2010-01-15T11:40 | 1719 | 828 | 17.0 | 17.0 | 285 | 13 |
| 2010-01-15T11:40 | 1726 | 828 | 16.9 | 16.9 | 286 | 13 |
| 2010-01-15T11:40 | 1735 | 827 | 16.9 | 16.9 | 286 | 13 |
| 2010-01-15T11:40 | 1743 | 826 | 16.8 | 16.8 | 286 | 13 |
| 2010-01-15T11:40 | 1748 | 825 | 16.8 | 16.8 | 287 | 13 |
| 2010-01-15T11:40 | 1753 | 825 | 17.0 | 16.9 | 287 | 13 |
| 2010-01-15T11:40 | 1757 | 825 | 17.2 | 16.8 | 287 | 13 |
| 2010-01-15T11:40 | 1763 | 824 | 17.2 | 16.8 | 287 | 14 |
| 2010-01-15T11:40 | 1770 | 823 | 17.2 | 16.6 | 287 | 14 |
| 2010-01-15T11:40 | 1778 | 823 | 17.2 | 16.3 | 287 | 14 |
| 2010-01-15T11:40 | 1785 | 822 | 17.1 | 16.2 | 287 | 14 |
| 2010-01-15T11:40 | 1794 | 821 | 17.1 | 16.2 | 287 | 14 |
| 2010-01-15T11:40 | 1802 | 820 | 17.0 | 16.1 | 287 | 14 |
| 2010-01-15T11:40 | 1811 | 819 | 17.1 | 16.0 | 287 | 13 |
| 2010-01-15T11:40 | 1818 | 819 | 17.2 | 15.8 | 286 | 13 |
| 2010-01-15T11:40 | 1821 | 818 | 17.2 | 15.9 | 286 | 13 |
| 2010-01-15T11:40 | 1825 | 818 | 17.2 | 16.1 | 285 | 13 |
| 2010-01-15T11:40 | 1828 | 818 | 17.3 | 16.1 | 285 | 13 |
| 2010-01-15T11:40 | 1830 | 818 | 17.3 | 16.0 | 284 | 13 |
| 2010-01-15T11:40 | 1833 | 817 | 17.3 | 15.9 | 284 | 13 |
| 2010-01-15T11:40 | 1837 | 817 | 17.3 | 15.9 | 283 | 13 |
| 2010-01-15T11:40 | 1841 | 817 | 17.3 | 15.9 | 283 | 13 |
| 2010-01-15T11:40 | 1844 | 816 | 17.2 | 15.9 | 283 | 13 |
| 2010-01-15T11:40 | 1847 | 816 | 17.2 | 15.9 | 283 | 13 |
| 2010-01-15T11:40 | 1850 | 816 | 17.2 | 15.9 | 283 | 13 |
| 2010-01-15T11:40 | 1854 | 815 | 17.2 | 15.9 | 283 | 13 |
| 2010-01-15T11:40 | 1858 | 815 | 17.2 | 15.8 | 283 | 13 |
| 2010-01-15T11:40 | 1862 | 815 | 17.4 | 15.7 | 283 | 12 |
| 2010-01-15T11:41 | 1866 | 814 | 17.5 | 15.6 | 283 | 12 |
| 2010-01-15T11:41 | 1870 | 814 | 17.5 | 15.6 | 284 | 12 |
| 2010-01-15T11:41 | 1873 | 814 | 17.5 | 15.5 | 284 | 12 |
| 2010-01-15T11:41 | 1877 | 813 | 17.5 | 14.9 | 284 | 12 |
| 2010-01-15T11:41 | 1881 | 813 | 17.5 | 14.3 | 284 | 12 |
| 2010-01-15T11:41 | 1886 | 812 | 17.5 | 14.2 | 285 | 12 |
| 2010-01-15T11:41 | 1890 | 812 | 17.4 | 14.2 | 285 | 12 |
| 2010-01-15T11:41 | 1894 | 812 | 17.4 | 14.2 | 285 | 12 |
| 2010-01-15T11:41 | 1897 | 811 | 17.4 | 14.2 | 286 | 12 |
| 2010-01-15T11:41 | 1901 | 811 | 17.3 | 14.3 | 286 | 12 |
| 2010-01-15T11:41 | 1905 | 810 | 17.3 | 14.3 | 286 | 12 |
| 2010-01-15T11:41 | 1909 | 810 | 17.3 | 14.3 | 287 | 12 |
| 2010-01-15T11:41 | 1913 | 810 | 17.3 | 14.3 | 287 | 12 |
| 2010-01-15T11:41 | 1916 | 809 | 17.3 | 14.3 | 287 | 12 |
| 2010-01-15T11:41 | 1920 | 809 | 17.3 | 14.3 | 288 | 12 |
| 2010-01-15T11:41 | 1923 | 809 | 17.2 | 14.3 | 288 | 12 |
| 2010-01-15T11:41 | 1927 | 808 | 17.2 | 14.3 | 288 | 12 |
| 2010-01-15T11:41 | 1931 | 808 | 17.2 | 14.2 | 288 | 12 |
| 2010-01-15T11:41 | 1936 | 808 | 17.2 | 14.1 | 289 | 12 |
| 2010-01-15T11:41 | 1940 | 807 | 17.2 | 14.0 | 289 | 12 |
| 2010-01-15T11:41 | 1944 | 807 | 17.2 | 13.9 | 289 | 12 |
| 2010-01-15T11:41 | 1947 | 807 | 17.2 | 13.7 | 289 | 12 |
| 2010-01-15T11:41 | 1951 | 806 | 17.2 | 13.7 | 289 | 12 |
| 2010-01-15T11:41 | 1956 | 806 | 17.2 | 13.6 | 290 | 12 |
| 2010-01-15T11:41 | 1960 | 805 | 17.1 | 13.6 | 290 | 12 |
| 2010-01-15T11:41 | 1965 | 805 | 17.1 | 13.5 | 290 | 12 |
| 2010-01-15T11:41 | 1969 | 804 | 17.1 | 13.4 | 290 | 12 |
| 2010-01-15T11:41 | 1973 | 804 | 17.1 | 13.4 | 290 | 12 |
| 2010-01-15T11:41 | 1978 | 804 | 17.0 | 13.4 | 290 | 12 |
| 2010-01-15T11:41 | 1984 | 803 | 17.0 | 13.4 | 289 | 12 |
| 2010-01-15T11:42 | 1989 | 803 | 17.0 | 13.4 | 289 | 12 |
| 2010-01-15T11:42 | 1994 | 802 | 17.0 | 13.3 | 289 | 12 |
| 2010-01-15T11:42 | 1999 | 802 | 16.9 | 13.4 | 289 | 12 |
| 2010-01-15T11:42 | 2013 | 800 | 16.9 | 13.4 | 290 | 12 |
| 2010-01-15T11:42 | 2038 | 798 | 16.7 | 13.1 | 291 | 12 |
| 2010-01-15T11:42 | 2065 | 796 | 16.6 | 12.9 | 292 | 12 |
| 2010-01-15T11:42 | 2093 | 793 | 16.4 | 12.7 | 293 | 12 |
| 2010-01-15T11:42 | 2123 | 790 | 16.1 | 12.5 | 294 | 12 |
| 2010-01-15T11:43 | 2152 | 787 | 15.9 | 11.6 | 295 | 12 |
| 2010-01-15T11:43 | 2185 | 784 | 15.8 | 11.7 | 296 | 12 |
| 2010-01-15T11:43 | 2219 | 781 | 15.7 | 11.6 | 297 | 12 |
| 2010-01-15T11:43 | 2253 | 778 | 15.6 | 11.5 | 298 | 11 |
| 2010-01-15T11:43 | 2288 | 775 | 15.4 | 11.3 | 300 | 12 |
| 2010-01-15T11:43 | 2339 | 770 | 15.0 | 10.7 | 302 | 12 |
| 2010-01-15T11:44 | 2376 | 767 | 14.7 | 10.7 | 302 | 12 |
| 2010-01-15T11:44 | 2409 | 764 | 14.5 | 10.9 | 301 | 12 |
| 2010-01-15T11:44 | 2443 | 761 | 14.3 | 10.9 | 300 | 12 |
| 2010-01-15T11:44 | 2476 | 758 | 14.0 | 10.8 | 299 | 12 |
| 2010-01-15T11:44 | 2508 | 755 | 13.8 | 10.8 | 299 | 13 |
| 2010-01-15T11:44 | 2540 | 752 | 13.6 | 10.2 | 299 | 13 |
| 2010-01-15T11:45 | 2572 | 749 | 13.4 | 10.3 | 300 | 13 |
| 2010-01-15T11:45 | 2604 | 747 | 13.3 | 10.2 | 302 | 14 |
| 2010-01-15T11:45 | 2635 | 744 | 13.4 | 10.0 | 303 | 14 |
| 2010-01-15T11:45 | 2662 | 741 | 13.4 | 9.2 | 304 | 14 |
| 2010-01-15T11:45 | 2690 | 739 | 13.2 | 9.2 | 304 | 14 |
| 2010-01-15T11:45 | 2717 | 737 | 13.1 | 8.7 | 303 | 14 |
| 2010-01-15T11:46 | 2756 | 733 | 13.1 | 8.5 | 301 | 14 |
| 2010-01-15T11:46 | 2796 | 730 | 12.9 | 8.5 | 296 | 14 |
| 2010-01-15T11:46 | 2840 | 726 | 12.5 | 8.7 | 292 | 13 |
| 2010-01-15T11:46 | 2871 | 723 | 12.2 | 8.7 | 292 | 13 |
| 2010-01-15T11:46 | 2905 | 720 | 12.4 | 7.9 | 295 | 13 |
| 2010-01-15T11:46 | 2939 | 717 | 12.2 | 7.4 | 299 | 13 |
| 2010-01-15T11:47 | 2965 | 715 | 12.0 | 7.2 | 301 | 14 |
| 2010-01-15T11:47 | 2992 | 713 | 11.9 | 6.9 | 302 | 14 |
| 2010-01-15T11:47 | 3020 | 711 | 11.9 | 6.3 | 303 | 14 |
| 2010-01-15T11:47 | 3048 | 708 | 11.7 | 6.1 | 303 | 14 |
| 2010-01-15T11:47 | 3077 | 706 | 11.5 | 5.7 | 303 | 14 |
| 2010-01-15T11:47 | 3108 | 703 | 11.3 | 5.8 | 303 | 14 |
| 2010-01-15T11:48 | 3138 | 701 | 11.1 | 5.7 | 303 | 14 |
| 2010-01-15T11:48 | 3168 | 698 | 10.9 | 5.5 | 304 | 13 |
| 2010-01-15T11:48 | 3200 | 695 | 10.7 | 5.7 | 305 | 12 |
| 2010-01-15T11:48 | 3229 | 693 | 10.5 | 5.7 | 305 | 12 |
| 2010-01-15T11:48 | 3261 | 690 | 10.4 | 5.3 | 306 | 12 |
| 2010-01-15T11:48 | 3293 | 688 | 10.4 | 4.0 | 306 | 12 |
| 2010-01-15T11:49 | 3325 | 685 | 10.2 | 4.0 | 307 | 12 |
| 2010-01-15T11:49 | 3358 | 682 | 10.1 | 4.7 | 308 | 12 |
| 2010-01-15T11:49 | 3391 | 680 | 9.8 | 4.1 | 309 | 12 |
| 2010-01-15T11:49 | 3422 | 677 | 9.5 | 4.6 | 308 | 12 |
| 2010-01-15T11:49 | 3458 | 674 | 9.3 | 4.8 | 307 | 11 |
| 2010-01-15T11:49 | 3491 | 672 | 9.1 | 4.8 | 305 | 11 |
| 2010-01-15T11:50 | 3524 | 669 | 8.8 | 4.6 | 302 | 10 |
| 2010-01-15T11:50 | 3556 | 666 | 8.6 | 4.4 | 300 | 10 |
| 2010-01-15T11:50 | 3588 | 664 | 8.4 | 3.7 | 299 | 10 |
| 2010-01-15T11:50 | 3620 | 661 | 8.1 | 3.8 | 298 | 10 |
| 2010-01-15T11:50 | 3653 | 659 | 7.8 | 3.7 | 298 | 10 |
| 2010-01-15T11:50 | 3684 | 656 | 7.6 | 3.6 | 299 | 9 |
| 2010-01-15T11:51 | 3715 | 654 | 7.4 | 3.3 | 299 | 9 |
| 2010-01-15T11:51 | 3748 | 651 | 7.1 | 3.0 | 299 | 10 |
| 2010-01-15T11:51 | 3781 | 648 | 6.9 | 2.7 | 299 | 10 |
| 2010-01-15T11:51 | 3814 | 646 | 6.8 | 3.1 | 299 | 10 |
| 2010-01-15T11:51 | 3845 | 643 | 6.7 | 3.1 | 300 | 11 |
| 2010-01-15T11:51 | 3876 | 641 | 6.5 | 3.1 | 300 | 11 |
| 2010-01-15T11:52 | 3906 | 639 | 6.4 | 3.0 | 300 | 11 |
| 2010-01-15T11:52 | 3938 | 636 | 6.1 | 2.4 | 300 | 11 |
| 2010-01-15T11:52 | 3970 | 634 | 6.0 | 2.7 | 300 | 10 |
| 2010-01-15T11:52 | 4003 | 631 | 5.9 | 3.2 | 300 | 10 |
| 2010-01-15T11:52 | 4035 | 629 | 6.2 | 3.5 | 300 | 9 |
| 2010-01-15T11:52 | 4065 | 626 | 6.1 | 3.2 | 300 | 9 |
| 2010-01-15T11:53 | 4097 | 624 | 5.9 | 2.9 | 299 | 9 |
| 2010-01-15T11:53 | 4128 | 622 | 5.9 | 2.9 | 299 | 9 |
| 2010-01-15T11:53 | 4160 | 619 | 6.2 | 3.0 | 298 | 9 |
| 2010-01-15T11:53 | 4191 | 617 | 6.2 | 3.0 | 297 | 9 |
| 2010-01-15T11:53 | 4223 | 614 | 6.2 | 2.7 | 298 | 8 |
| 2010-01-15T11:53 | 4254 | 612 | 6.0 | 2.2 | 300 | 8 |
| 2010-01-15T11:54 | 4285 | 610 | 5.9 | 1.1 | 303 | 7 |
| 2010-01-15T11:54 | 4315 | 608 | 5.9 | 1.1 | 304 | 7 |
| 2010-01-15T11:54 | 4344 | 605 | 5.8 | 0.6 | 304 | 7 |
| 2010-01-15T11:54 | 4373 | 603 | 5.6 | 0.6 | 303 | 7 |
| 2010-01-15T11:54 | 4402 | 601 | 5.4 | 0.5 | 302 | 7 |
| 2010-01-15T11:54 | 4432 | 599 | 5.2 | 0.1 | 300 | 7 |
| 2010-01-15T11:55 | 4462 | 597 | 5.1 | -0.2 | 298 | 7 |
| 2010-01-15T11:55 | 4492 | 595 | 4.9 | 0.1 | 297 | 7 |
| 2010-01-15T11:55 | 4522 | 592 | 4.8 | 0.1 | 296 | 6 |
| 2010-01-15T11:55 | 4552 | 590 | 4.7 | 0.0 | 296 | 6 |
| 2010-01-15T11:55 | 4582 | 588 | 4.4 | -0.2 | 296 | 6 |
| 2010-01-15T11:55 | 4611 | 586 | 4.1 | -0.8 | 295 | 6 |
| 2010-01-15T11:56 | 4641 | 584 | 4.0 | -0.5 | 294 | 6 |
| 2010-01-15T11:56 | 4673 | 582 | 3.8 | -0.3 | 294 | 6 |
| 2010-01-15T11:56 | 4706 | 579 | 3.8 | -0.3 | 294 | 6 |
| 2010-01-15T11:56 | 4736 | 577 | 3.7 | -0.8 | 296 | 5 |
| 2010-01-15T11:56 | 4767 | 575 | 3.6 | -1.3 | 295 | 5 |
| 2010-01-15T11:56 | 4799 | 573 | 3.5 | -1.7 | 293 | 5 |
| 2010-01-15T11:57 | 4833 | 570 | 3.2 | -1.6 | 291 | 5 |
| 2010-01-15T11:57 | 4867 | 568 | 2.9 | -1.6 | 290 | 5 |
| 2010-01-15T11:57 | 4905 | 565 | 2.5 | -1.7 | 288 | 5 |
| 2010-01-15T11:57 | 4944 | 562 | 2.1 | -1.8 | 285 | 5 |
| 2010-01-15T11:57 | 4982 | 560 | 1.7 | -2.4 | 282 | 5 |
| 2010-01-15T11:57 | 5020 | 557 | 1.4 | -2.1 | 281 | 6 |
| 2010-01-15T11:58 | 5053 | 555 | 1.0 | -2.0 | 281 | 6 |
| 2010-01-15T11:58 | 5084 | 553 | 0.5 | -2.0 | 282 | 6 |
| 2010-01-15T11:58 | 5117 | 551 | 0.3 | -1.9 | 282 | 6 |
| 2010-01-15T11:58 | 5155 | 548 | -0.1 | -2.1 | 282 | 6 |
| 2010-01-15T11:58 | 5196 | 545 | -0.4 | -2.5 | 282 | 6 |
| 2010-01-15T11:58 | 5239 | 542 | -0.7 | -2.5 | 280 | 6 |
| 2010-01-15T11:59 | 5277 | 540 | -1.1 | -2.7 | 279 | 6 |
| 2010-01-15T11:59 | 5314 | 537 | -1.2 | -2.8 | 278 | 5 |
| 2010-01-15T11:59 | 5350 | 535 | -1.3 | -2.8 | 280 | 5 |
| 2010-01-15T11:59 | 5390 | 532 | -1.6 | -3.3 | 284 | 5 |
| 2010-01-15T11:59 | 5429 | 529 | -1.9 | -3.3 | 286 | 5 |
| 2010-01-15T11:59 | 5466 | 527 | -2.1 | -3.4 | 287 | 5 |
| 2010-01-15T12:00 | 5504 | 524 | -2.3 | -3.5 | 287 | 5 |
| 2010-01-15T12:00 | 5541 | 522 | -2.5 | -3.6 | 288 | 5 |
| 2010-01-15T12:00 | 5578 | 520 | -2.7 | -3.8 | 289 | 4 |
| 2010-01-15T12:00 | 5614 | 517 | -2.7 | -4.0 | 287 | 4 |
| 2010-01-15T12:00 | 5667 | 514 | -2.9 | -4.2 | 283 | 3 |
| 2010-01-15T12:00 | 5713 | 511 | -3.3 | -4.5 | 280 | 2 |
| 2010-01-15T12:01 | 5754 | 508 | -3.5 | -4.8 | 282 | 2 |
| 2010-01-15T12:01 | 5794 | 506 | -3.7 | -5.1 | 286 | 2 |
| 2010-01-15T12:01 | 5835 | 503 | -3.9 | -5.6 | 287 | 2 |
| 2010-01-15T12:01 | 5877 | 500 | -4.2 | -5.6 | 284 | 2 |
| 2010-01-15T12:01 | 5918 | 498 | -4.4 | -5.8 | 280 | 2 |
| 2010-01-15T12:01 | 5960 | 495 | -4.8 | -5.9 | 281 | 2 |
| 2010-01-15T12:02 | 6001 | 493 | -5.0 | -6.0 | 283 | 3 |
| 2010-01-15T12:02 | 6038 | 490 | -5.1 | -6.2 | 282 | 3 |
| 2010-01-15T12:02 | 6075 | 488 | -5.3 | -7.0 | 280 | 3 |
| 2010-01-15T12:02 | 6114 | 486 | -5.5 | -7.2 | 279 | 3 |
| 2010-01-15T12:02 | 6150 | 483 | -5.8 | -7.4 | 279 | 3 |
| 2010-01-15T12:02 | 6189 | 481 | -6.0 | -7.5 | 280 | 3 |
| 2010-01-15T12:03 | 6229 | 478 | -6.3 | -7.7 | 283 | 2 |
| 2010-01-15T12:03 | 6270 | 476 | -6.6 | -7.9 | 287 | 1 |
| 2010-01-15T12:03 | 6308 | 474 | -6.8 | -8.3 | 289 | 1 |
| 2010-01-15T12:03 | 6346 | 471 | -7.0 | -8.4 | 285 | 0 |
| 2010-01-15T12:03 | 6384 | 469 | -7.1 | -8.4 | 0 | 0 |
| 2010-01-15T12:03 | 6421 | 467 | -7.3 | -8.6 | 123 | 0 |
| 2010-01-15T12:04 | 6460 | 465 | -7.6 | -8.8 | 125 | 1 |
| 2010-01-15T12:04 | 6501 | 462 | -7.8 | -8.9 | 125 | 2 |
| 2010-01-15T12:04 | 6538 | 460 | -7.9 | -9.0 | 121 | 3 |
| 2010-01-15T12:04 | 6577 | 458 | -8.1 | -8.9 | 115 | 3 |
| 2010-01-15T12:04 | 6615 | 455 | -8.2 | -8.9 | 110 | 3 |
| 2010-01-15T12:04 | 6653 | 453 | -8.5 | -9.2 | 106 | 3 |
| 2010-01-15T12:05 | 6691 | 451 | -8.7 | -9.5 | 103 | 3 |
| 2010-01-15T12:05 | 6734 | 448 | -8.9 | -9.7 | 103 | 3 |
| 2010-01-15T12:05 | 6773 | 446 | -9.2 | -10.3 | 103 | 3 |
| 2010-01-15T12:05 | 6813 | 444 | -9.4 | -10.3 | 103 | 4 |
| 2010-01-15T12:05 | 6854 | 442 | -9.7 | -10.4 | 103 | 4 |
| 2010-01-15T12:05 | 6894 | 439 | -9.9 | -10.6 | 104 | 4 |
| 2010-01-15T12:06 | 6931 | 437 | -10.2 | -10.7 | 105 | 4 |
| 2010-01-15T12:06 | 6970 | 435 | -10.4 | -11.0 | 102 | 4 |
| 2010-01-15T12:06 | 7009 | 433 | -10.6 | -11.4 | 96 | 4 |
| 2010-01-15T12:06 | 7049 | 431 | -10.9 | -11.4 | 91 | 4 |
| 2010-01-15T12:06 | 7088 | 428 | -11.1 | -11.5 | 85 | 4 |
| 2010-01-15T12:06 | 7127 | 426 | -11.4 | -11.8 | 77 | 4 |
| 2010-01-15T12:07 | 7163 | 424 | -11.6 | -12.2 | 71 | 5 |
| 2010-01-15T12:07 | 7200 | 422 | -11.6 | -12.5 | 68 | 5 |
| 2010-01-15T12:07 | 7238 | 420 | -11.9 | -13.2 | 67 | 5 |
| 2010-01-15T12:07 | 7276 | 418 | -12.0 | -13.5 | 67 | 5 |
| 2010-01-15T12:07 | 7317 | 416 | -12.3 | -13.8 | 68 | 6 |
| 2010-01-15T12:07 | 7354 | 414 | -12.6 | -14.4 | 70 | 6 |
| 2010-01-15T12:08 | 7391 | 412 | -12.9 | -14.8 | 73 | 6 |
| 2010-01-15T12:08 | 7426 | 410 | -13.1 | -15.0 | 76 | 7 |
| 2010-01-15T12:08 | 7463 | 408 | -13.4 | -15.7 | 78 | 7 |
| 2010-01-15T12:08 | 7501 | 406 | -13.7 | -15.6 | 78 | 7 |
| 2010-01-15T12:08 | 7539 | 404 | -13.9 | -15.7 | 79 | 7 |
| 2010-01-15T12:08 | 7578 | 402 | -14.2 | -16.0 | 78 | 6 |
| 2010-01-15T12:09 | 7618 | 400 | -14.5 | -16.3 | 75 | 6 |
| 2010-01-15T12:09 | 7656 | 398 | -14.8 | -16.5 | 71 | 6 |
| 2010-01-15T12:09 | 7695 | 396 | -15.0 | -16.8 | 68 | 6 |
| 2010-01-15T12:09 | 7732 | 394 | -15.2 | -16.6 | 67 | 6 |
| 2010-01-15T12:09 | 7770 | 392 | -15.4 | -16.8 | 67 | 6 |
| 2010-01-15T12:09 | 7807 | 390 | -15.6 | -17.1 | 67 | 7 |
| 2010-01-15T12:10 | 7844 | 388 | -15.8 | -17.3 | 68 | 7 |
| 2010-01-15T12:10 | 7881 | 386 | -16.0 | -17.4 | 69 | 7 |
| 2010-01-15T12:10 | 7919 | 384 | -16.3 | -18.1 | 71 | 8 |
| 2010-01-15T12:10 | 7956 | 382 | -16.5 | -18.1 | 73 | 8 |
| 2010-01-15T12:10 | 7995 | 380 | -16.8 | -18.3 | 75 | 9 |
| 2010-01-15T12:10 | 8031 | 378 | -17.1 | -18.5 | 76 | 9 |
| 2010-01-15T12:11 | 8066 | 377 | -17.2 | -18.6 | 78 | 9 |
| 2010-01-15T12:11 | 8101 | 375 | -17.3 | -18.7 | 79 | 10 |
| 2010-01-15T12:11 | 8137 | 373 | -17.5 | -19.3 | 80 | 10 |
| 2010-01-15T12:11 | 8171 | 371 | -17.6 | -19.2 | 80 | 10 |
| 2010-01-15T12:11 | 8204 | 370 | -17.8 | -19.4 | 80 | 10 |
| 2010-01-15T12:11 | 8238 | 368 | -17.8 | -19.5 | 78 | 10 |
| 2010-01-15T12:12 | 8272 | 366 | -17.9 | -19.7 | 77 | 9 |
| 2010-01-15T12:12 | 8304 | 365 | -18.1 | -20.0 | 76 | 9 |
| 2010-01-15T12:12 | 8335 | 363 | -18.3 | -20.6 | 77 | 8 |
| 2010-01-15T12:12 | 8368 | 362 | -18.5 | -20.6 | 78 | 8 |
| 2010-01-15T12:12 | 8398 | 360 | -18.6 | -20.7 | 77 | 8 |
| 2010-01-15T12:12 | 8429 | 359 | -18.9 | -20.9 | 75 | 7 |
| 2010-01-15T12:13 | 8460 | 357 | -19.1 | -21.3 | 72 | 7 |
| 2010-01-15T12:13 | 8494 | 356 | -19.3 | -21.7 | 68 | 6 |
| 2010-01-15T12:13 | 8546 | 353 | -19.6 | -23.0 | 64 | 6 |
| 2010-01-15T12:13 | 8584 | 351 | -20.0 | -22.9 | 59 | 5 |
| 2010-01-15T12:13 | 8623 | 350 | -20.3 | -23.1 | 53 | 4 |
| 2010-01-15T12:13 | 8666 | 347 | -20.7 | -23.5 | 46 | 3 |
| 2010-01-15T12:14 | 8709 | 345 | -21.0 | -24.0 | 32 | 3 |
| 2010-01-15T12:14 | 8747 | 344 | -21.4 | -24.4 | 19 | 3 |
| 2010-01-15T12:14 | 8777 | 342 | -21.6 | -24.8 | 14 | 3 |
| 2010-01-15T12:14 | 8808 | 341 | -21.8 | -25.1 | 13 | 4 |
| 2010-01-15T12:14 | 8839 | 339 | -22.1 | -25.4 | 11 | 4 |
| 2010-01-15T12:14 | 8871 | 338 | -22.4 | -25.6 | 7 | 4 |
| 2010-01-15T12:15 | 8902 | 337 | -22.6 | -26.1 | 4 | 4 |
| 2010-01-15T12:15 | 8933 | 335 | -22.8 | -26.3 | 1 | 3 |
| 2010-01-15T12:15 | 8965 | 334 | -23.0 | -26.4 | 0 | 3 |
| 2010-01-15T12:15 | 8997 | 332 | -23.2 | -27.0 | 359 | 2 |
| 2010-01-15T12:15 | 9029 | 331 | -23.5 | -27.0 | 353 | 2 |
| 2010-01-15T12:15 | 9062 | 329 | -23.7 | -27.2 | 344 | 2 |
| 2010-01-15T12:16 | 9094 | 328 | -24.0 | -27.5 | 336 | 2 |
| 2010-01-15T12:16 | 9127 | 326 | -24.2 | -27.7 | 330 | 2 |
| 2010-01-15T12:16 | 9160 | 325 | -24.5 | -28.0 | 326 | 2 |
| 2010-01-15T12:16 | 9193 | 323 | -24.7 | -28.3 | 320 | 3 |
| 2010-01-15T12:16 | 9227 | 322 | -25.0 | -28.7 | 315 | 3 |
| 2010-01-15T12:16 | 9262 | 320 | -25.3 | -28.9 | 312 | 3 |
| 2010-01-15T12:17 | 9296 | 319 | -25.5 | -29.1 | 312 | 3 |
| 2010-01-15T12:17 | 9331 | 317 | -25.8 | -29.4 | 316 | 3 |
| 2010-01-15T12:17 | 9367 | 316 | -26.0 | -29.5 | 325 | 2 |
| 2010-01-15T12:17 | 9403 | 314 | -26.2 | -29.6 | 335 | 2 |
| 2010-01-15T12:17 | 9439 | 313 | -26.5 | -30.2 | 335 | 2 |
| 2010-01-15T12:17 | 9476 | 311 | -26.8 | -30.3 | 329 | 2 |
| 2010-01-15T12:18 | 9512 | 309 | -27.1 | -30.6 | 326 | 1 |
| 2010-01-15T12:18 | 9548 | 308 | -27.3 | -30.7 | 327 | 1 |
| 2010-01-15T12:18 | 9585 | 306 | -27.6 | -31.0 | 329 | 1 |
| 2010-01-15T12:18 | 9621 | 305 | -27.9 | -31.2 | 331 | 0 |
| 2010-01-15T12:18 | 9657 | 303 | -28.2 | -31.6 | 0 | 0 |
| 2010-01-15T12:18 | 9695 | 302 | -28.5 | -31.9 | 0 | 0 |
| 2010-01-15T12:19 | 9731 | 300 | -28.7 | -32.0 | 80 | 0 |
| 2010-01-15T12:19 | 9769 | 299 | -29.0 | -32.1 | 82 | 1 |
| 2010-01-15T12:19 | 9805 | 297 | -29.3 | -32.3 | 84 | 1 |
| 2010-01-15T12:19 | 9842 | 296 | -29.5 | -32.4 | 87 | 2 |
| 2010-01-15T12:19 | 9881 | 294 | -29.9 | -32.6 | 90 | 2 |
| 2010-01-15T12:19 | 9920 | 292 | -30.1 | -33.3 | 95 | 2 |
| 2010-01-15T12:20 | 9957 | 291 | -30.5 | -33.2 | 101 | 3 |
| 2010-01-15T12:20 | 9996 | 289 | -30.8 | -33.3 | 104 | 3 |
| 2010-01-15T12:20 | 10033 | 288 | -31.1 | -33.6 | 103 | 3 |
| 2010-01-15T12:20 | 10072 | 286 | -31.4 | -34.0 | 99 | 3 |
| 2010-01-15T12:20 | 10110 | 285 | -31.8 | -34.4 | 96 | 3 |
| 2010-01-15T12:20 | 10147 | 283 | -32.1 | -34.8 | 92 | 4 |
| 2010-01-15T12:21 | 10185 | 282 | -32.4 | -35.4 | 88 | 4 |
| 2010-01-15T12:21 | 10221 | 280 | -32.8 | -35.5 | 85 | 4 |
| 2010-01-15T12:21 | 10260 | 279 | -33.1 | -35.8 | 84 | 5 |
| 2010-01-15T12:21 | 10300 | 277 | -33.4 | -36.1 | 83 | 5 |
| 2010-01-15T12:21 | 10340 | 275 | -33.7 | -36.4 | 80 | 6 |
| 2010-01-15T12:21 | 10379 | 274 | -34.0 | -36.7 | 77 | 6 |
| 2010-01-15T12:22 | 10417 | 272 | -34.4 | -37.2 | 75 | 6 |
| 2010-01-15T12:22 | 10455 | 271 | -34.7 | -38.0 | 75 | 7 |
| 2010-01-15T12:22 | 10494 | 269 | -35.1 | -38.1 | 75 | 7 |
| 2010-01-15T12:22 | 10532 | 268 | -35.4 | -38.3 | 75 | 7 |
| 2010-01-15T12:22 | 10568 | 267 | -35.7 | -38.7 | 75 | 7 |
| 2010-01-15T12:22 | 10605 | 265 | -36.0 | -38.9 | 74 | 7 |
| 2010-01-15T12:23 | 10641 | 264 | -36.3 | -39.2 | 74 | 7 |
| 2010-01-15T12:23 | 10677 | 262 | -36.6 | -39.5 | 74 | 7 |
| 2010-01-15T12:23 | 10713 | 261 | -36.9 | -40.2 | 75 | 8 |
| 2010-01-15T12:23 | 10750 | 260 | -37.2 | -40.3 | 77 | 8 |
| 2010-01-15T12:23 | 10786 | 258 | -37.5 | -40.5 | 78 | 8 |
| 2010-01-15T12:23 | 10821 | 257 | -37.8 | -40.7 | 79 | 9 |
| 2010-01-15T12:24 | 10857 | 256 | -38.1 | -40.9 | 80 | 9 |
| 2010-01-15T12:24 | 10891 | 254 | -38.4 | -41.2 | 79 | 9 |
| 2010-01-15T12:24 | 10927 | 253 | -38.6 | -41.5 | 78 | 9 |
| 2010-01-15T12:24 | 10966 | 252 | -38.9 | -42.3 | 76 | 9 |
| 2010-01-15T12:24 | 11003 | 250 | -39.2 | -42.3 | 74 | 10 |
| 2010-01-15T12:24 | 11038 | 249 | -39.5 | -42.4 | 73 | 10 |
| 2010-01-15T12:25 | 11074 | 248 | -39.8 | -42.6 | 73 | 10 |
| 2010-01-15T12:25 | 11109 | 246 | -40.1 | -42.9 | 73 | 10 |
| 2010-01-15T12:25 | 11144 | 245 | -40.5 | -43.1 | 72 | 11 |
| 2010-01-15T12:25 | 11178 | 244 | -40.8 | -43.3 | 71 | 11 |
| 2010-01-15T12:25 | 11212 | 243 | -41.1 | -43.5 | 69 | 11 |
| 2010-01-15T12:25 | 11247 | 242 | -41.3 | -43.9 | 69 | 11 |
| 2010-01-15T12:26 | 11282 | 240 | -41.7 | -44.3 | 68 | 11 |
| 2010-01-15T12:26 | 11318 | 239 | -42.0 | -44.8 | 68 | 11 |
| 2010-01-15T12:26 | 11352 | 238 | -42.3 | -45.1 | 68 | 11 |
| 2010-01-15T12:26 | 11385 | 237 | -42.6 | -45.4 | 69 | 11 |
| 2010-01-15T12:26 | 11419 | 235 | -42.9 | -45.7 | 69 | 11 |
| 2010-01-15T12:26 | 11452 | 234 | -43.2 | -46.1 | 70 | 11 |
| 2010-01-15T12:27 | 11487 | 233 | -43.5 | -46.5 | 69 | 11 |
| 2010-01-15T12:27 | 11520 | 232 | -43.8 | -46.7 | 69 | 11 |
| 2010-01-15T12:27 | 11554 | 231 | -44.1 | -47.0 | 70 | 11 |
| 2010-01-15T12:27 | 11588 | 230 | -44.4 | -47.3 | 71 | 11 |
| 2010-01-15T12:27 | 11622 | 228 | -44.7 | -47.6 | 71 | 11 |
| 2010-01-15T12:27 | 11656 | 227 | -45.0 | -47.9 | 71 | 11 |
| 2010-01-15T12:28 | 11690 | 226 | -45.3 | -48.2 | 71 | 11 |
| 2010-01-15T12:28 | 11724 | 225 | -45.6 | -48.4 | 71 | 12 |
| 2010-01-15T12:28 | 11758 | 224 | -46.0 | -48.5 | 71 | 12 |
| 2010-01-15T12:28 | 11793 | 223 | -46.3 | -48.8 | 73 | 12 |
| 2010-01-15T12:28 | 11827 | 222 | -46.6 | -48.9 | 74 | 12 |
| 2010-01-15T12:28 | 11861 | 220 | -46.8 | -49.2 | 75 | 12 |
| 2010-01-15T12:29 | 11895 | 219 | -47.2 | -49.5 | 76 | 12 |
| 2010-01-15T12:29 | 11930 | 218 | -47.5 | -49.8 | 76 | 12 |
| 2010-01-15T12:29 | 11966 | 217 | -47.8 | -50.2 | 77 | 13 |
| 2010-01-15T12:29 | 11999 | 216 | -48.1 | -50.6 | 78 | 13 |
| 2010-01-15T12:29 | 12032 | 215 | -48.4 | -51.0 | 78 | 13 |
| 2010-01-15T12:29 | 12066 | 214 | -48.7 | -51.3 | 79 | 14 |
| 2010-01-15T12:30 | 12099 | 213 | -49.0 | -51.7 | 79 | 14 |
| 2010-01-15T12:30 | 12133 | 211 | -49.3 | -51.9 | 80 | 14 |
| 2010-01-15T12:30 | 12167 | 210 | -49.7 | -52.2 | 80 | 14 |
| 2010-01-15T12:30 | 12204 | 209 | -50.0 | -52.5 | 79 | 15 |
| 2010-01-15T12:30 | 12240 | 208 | -50.3 | -52.7 | 80 | 15 |
| 2010-01-15T12:30 | 12275 | 207 | -50.7 | -53.1 | 80 | 15 |
| 2010-01-15T12:31 | 12309 | 206 | -51.0 | -53.4 | 81 | 15 |
| 2010-01-15T12:31 | 12345 | 205 | -51.3 | -53.7 | 81 | 15 |
| 2010-01-15T12:31 | 12380 | 204 | -51.6 | -54.1 | 82 | 14 |
| 2010-01-15T12:31 | 12415 | 203 | -51.9 | -54.5 | 82 | 14 |
| 2010-01-15T12:31 | 12449 | 201 | -52.3 | -54.8 | 82 | 14 |
| 2010-01-15T12:31 | 12483 | 200 | -52.6 | -55.1 | 82 | 14 |
| 2010-01-15T12:32 | 12520 | 199 | -52.9 | -55.5 | 82 | 14 |
| 2010-01-15T12:32 | 12556 | 198 | -53.3 | -55.8 | 82 | 14 |
| 2010-01-15T12:32 | 12591 | 197 | -53.6 | -56.1 | 83 | 13 |
| 2010-01-15T12:32 | 12626 | 196 | -53.9 | -56.5 | 84 | 13 |
| 2010-01-15T12:32 | 12660 | 195 | -54.1 | -56.8 | 87 | 13 |
| 2010-01-15T12:32 | 12694 | 194 | -54.3 | -57.1 | 88 | 13 |
| 2010-01-15T12:33 | 12729 | 193 | -54.6 | -57.7 | 89 | 13 |
| 2010-01-15T12:33 | 12764 | 192 | -55.0 | -58.3 | 89 | 13 |
| 2010-01-15T12:33 | 12798 | 191 | -55.3 | -58.8 | 90 | 13 |
| 2010-01-15T12:33 | 12831 | 190 | -55.6 | -59.3 | 90 | 13 |
| 2010-01-15T12:33 | 12866 | 189 | -56.0 | -59.6 | 91 | 13 |
| 2010-01-15T12:33 | 12900 | 188 | -56.3 | -59.9 | 91 | 13 |
| 2010-01-15T12:34 | 12935 | 187 | -56.6 | -60.2 | 90 | 14 |
| 2010-01-15T12:34 | 12967 | 186 | -57.0 | -60.5 | 90 | 14 |
| 2010-01-15T12:34 | 13000 | 185 | -57.3 | -60.8 | 89 | 13 |
| 2010-01-15T12:34 | 13034 | 184 | -57.6 | -61.1 | 88 | 14 |
| 2010-01-15T12:34 | 13067 | 183 | -57.9 | -61.4 | 88 | 14 |
| 2010-01-15T12:34 | 13096 | 182 | -58.2 | -62.0 | 87 | 14 |
| 2010-01-15T12:35 | 13125 | 181 | -58.5 | -62.5 | 88 | 14 |
| 2010-01-15T12:35 | 13153 | 180 | -58.8 | -62.9 | 88 | 14 |
| 2010-01-15T12:35 | 13184 | 179 | -59.1 | -63.3 | 89 | 14 |
| 2010-01-15T12:35 | 13213 | 179 | -59.4 | -63.6 | 89 | 14 |
| 2010-01-15T12:35 | 13242 | 178 | -59.7 | -63.9 | 89 | 14 |
| 2010-01-15T12:35 | 13270 | 177 | -59.9 | -64.0 | 89 | 14 |
| 2010-01-15T12:36 | 13299 | 176 | -60.2 | -64.4 | 89 | 14 |
| 2010-01-15T12:36 | 13328 | 175 | -60.5 | -64.7 | 88 | 14 |
| 2010-01-15T12:36 | 13358 | 175 | -60.8 | -64.9 | 87 | 13 |
| 2010-01-15T12:36 | 13386 | 174 | -61.0 | -65.2 | 87 | 13 |
| 2010-01-15T12:36 | 13412 | 173 | -61.3 | -65.4 | 87 | 13 |
| 2010-01-15T12:36 | 13439 | 172 | -61.5 | -65.6 | 88 | 13 |
| 2010-01-15T12:37 | 13467 | 172 | -61.6 | -65.9 | 88 | 14 |
| 2010-01-15T12:37 | 13499 | 171 | -61.8 | -66.1 | 89 | 15 |
| 2010-01-15T12:37 | 13536 | 170 | -61.8 | -66.3 | 91 | 16 |
| 2010-01-15T12:37 | 13588 | 168 | -62.1 | -66.6 | 95 | 17 |
| 2010-01-15T12:37 | 13623 | 167 | -62.5 | -67.0 | 97 | 17 |
| 2010-01-15T12:37 | 13658 | 166 | -62.8 | -67.3 | 97 | 17 |
| 2010-01-15T12:38 | 13696 | 165 | -63.2 | -67.7 | 98 | 17 |
| 2010-01-15T12:38 | 13736 | 164 | -63.6 | -68.0 | 98 | 17 |
| 2010-01-15T12:38 | 13775 | 163 | -63.9 | -68.4 | 99 | 17 |
| 2010-01-15T12:38 | 13811 | 162 | -64.3 | -68.7 | 99 | 17 |
| 2010-01-15T12:38 | 13847 | 161 | -64.6 | -69.0 | 100 | 17 |
| 2010-01-15T12:38 | 13885 | 160 | -64.9 | -69.3 | 101 | 17 |
| 2010-01-15T12:39 | 13918 | 159 | -65.2 | -69.6 | 103 | 18 |
| 2010-01-15T12:39 | 13951 | 159 | -65.4 | -69.8 | 105 | 18 |
| 2010-01-15T12:39 | 13984 | 158 | -65.6 | -70.0 | 108 | 19 |
| 2010-01-15T12:39 | 14018 | 157 | -65.8 | -70.1 | 109 | 20 |
| 2010-01-15T12:39 | 14052 | 156 | -66.0 | -70.3 | 109 | 20 |
| 2010-01-15T12:39 | 14085 | 155 | -66.3 | -70.6 | 110 | 20 |
| 2010-01-15T12:40 | 14120 | 154 | -66.6 | -70.8 | 110 | 21 |
| 2010-01-15T12:40 | 14155 | 153 | -66.8 | -71.1 | 110 | 21 |
| 2010-01-15T12:40 | 14189 | 152 | -67.1 | -71.4 | 109 | 22 |
| 2010-01-15T12:40 | 14223 | 152 | -67.4 | -71.8 | 108 | 22 |
| 2010-01-15T12:40 | 14258 | 151 | -67.7 | -72.1 | 108 | 22 |
| 2010-01-15T12:40 | 14294 | 150 | -68.0 | -72.4 | 107 | 22 |
| 2010-01-15T12:41 | 14330 | 149 | -68.3 | -72.7 | 106 | 23 |
| 2010-01-15T12:41 | 14366 | 148 | -68.7 | -73.0 | 105 | 23 |
| 2010-01-15T12:41 | 14402 | 147 | -68.9 | -73.3 | 105 | 23 |
| 2010-01-15T12:41 | 14437 | 146 | -69.3 | -73.5 | 104 | 23 |
| 2010-01-15T12:41 | 14471 | 145 | -69.6 | -73.8 | 104 | 24 |
| 2010-01-15T12:41 | 14506 | 145 | -69.9 | -74.0 | 103 | 24 |
| 2010-01-15T12:42 | 14541 | 144 | -70.2 | -74.3 | 102 | 24 |
| 2010-01-15T12:42 | 14577 | 143 | -70.5 | -74.5 | 102 | 24 |
| 2010-01-15T12:42 | 14614 | 142 | -70.8 | -74.8 | 101 | 24 |
| 2010-01-15T12:42 | 14651 | 141 | -71.2 | -75.0 | 100 | 24 |
| 2010-01-15T12:42 | 14688 | 140 | -71.5 | -75.2 | 100 | 24 |
| 2010-01-15T12:42 | 14725 | 139 | -71.9 | -75.5 | 99 | 24 |
| 2010-01-15T12:43 | 14762 | 138 | -72.2 | -75.7 | 99 | 24 |
| 2010-01-15T12:43 | 14797 | 138 | -72.5 | -75.9 | 99 | 24 |
| 2010-01-15T12:43 | 14832 | 137 | -72.9 | -76.2 | 98 | 25 |
| 2010-01-15T12:43 | 14866 | 136 | -73.2 | -76.5 | 98 | 25 |
| 2010-01-15T12:43 | 14901 | 135 | -73.5 | -76.8 | 97 | 25 |
| 2010-01-15T12:43 | 14934 | 134 | -73.8 | -77.1 | 97 | 25 |
| 2010-01-15T12:44 | 14966 | 134 | -74.1 | -77.3 | 97 | 25 |
| 2010-01-15T12:44 | 15000 | 133 | -74.4 | 97 | 25 | |
| 2010-01-15T12:44 | 15034 | 132 | -74.8 | 96 | 26 | |
| 2010-01-15T12:44 | 15068 | 131 | -75.1 | 96 | 26 | |
| 2010-01-15T12:44 | 15101 | 131 | -75.4 | 96 | 26 | |
| 2010-01-15T12:44 | 15135 | 130 | -75.7 | 95 | 27 | |
| 2010-01-15T12:45 | 15170 | 129 | -76.0 | 95 | 27 | |
| 2010-01-15T12:45 | 15203 | 128 | -76.3 | 94 | 28 | |
| 2010-01-15T12:45 | 15240 | 128 | -76.6 | 94 | 28 | |
| 2010-01-15T12:45 | 15271 | 127 | -76.9 | 93 | 28 | |
| 2010-01-15T12:45 | 15303 | 126 | -77.2 | 93 | 28 | |
| 2010-01-15T12:45 | 15335 | 125 | -77.5 | 94 | 28 | |
| 2010-01-15T12:46 | 15367 | 125 | -77.7 | 93 | 28 | |
| 2010-01-15T12:46 | 15398 | 124 | -78.0 | 93 | 28 | |
| 2010-01-15T12:46 | 15431 | 123 | -78.1 | 93 | 28 | |
| 2010-01-15T12:46 | 15463 | 123 | -78.4 | 93 | 28 | |
| 2010-01-15T12:46 | 15495 | 122 | -78.6 | 92 | 28 | |
| 2010-01-15T12:46 | 15527 | 121 | -78.8 | 92 | 29 | |
| 2010-01-15T12:47 | 15560 | 121 | -79.1 | 92 | 29 | |
| 2010-01-15T12:47 | 15592 | 120 | -79.2 | 90 | 30 | |
| 2010-01-15T12:47 | 15625 | 119 | -79.2 | 89 | 30 | |
| 2010-01-15T12:47 | 15657 | 119 | -79.4 | 88 | 30 | |
| 2010-01-15T12:47 | 15691 | 118 | -79.6 | 87 | 31 | |
| 2010-01-15T12:47 | 15723 | 117 | -79.8 | 87 | 31 | |
| 2010-01-15T12:48 | 15756 | 116 | -80.2 | 86 | 31 | |
| 2010-01-15T12:48 | 15790 | 116 | -80.4 | 86 | 32 | |
| 2010-01-15T12:48 | 15824 | 115 | -80.8 | 86 | 32 | |
| 2010-01-15T12:48 | 15861 | 114 | -81.0 | 86 | 33 | |
| 2010-01-15T12:48 | 15893 | 114 | -81.3 | 85 | 33 | |
| 2010-01-15T12:48 | 15923 | 113 | -81.5 | 85 | 34 | |
| 2010-01-15T12:49 | 15955 | 112 | -81.8 | 85 | 34 | |
| 2010-01-15T12:49 | 15988 | 112 | -82.1 | 85 | 35 | |
| 2010-01-15T12:49 | 16018 | 111 | -82.3 | 85 | 35 | |
| 2010-01-15T12:49 | 16048 | 111 | -82.6 | 86 | 35 | |
| 2010-01-15T12:49 | 16076 | 110 | -82.8 | 86 | 35 | |
| 2010-01-15T12:49 | 16105 | 109 | -82.7 | 86 | 35 | |
| 2010-01-15T12:50 | 16133 | 109 | -82.7 | 86 | 35 | |
| 2010-01-15T12:50 | 16160 | 108 | -82.6 | 86 | 36 | |
| 2010-01-15T12:50 | 16185 | 108 | -82.7 | 86 | 36 | |
| 2010-01-15T12:50 | 16211 | 107 | -82.9 | 86 | 37 | |
| 2010-01-15T12:50 | 16236 | 107 | -83.1 | 86 | 37 | |
| 2010-01-15T12:50 | 16260 | 106 | -83.0 | 85 | 37 | |
| 2010-01-15T12:51 | 16284 | 106 | -82.9 | 84 | 37 | |
| 2010-01-15T12:51 | 16309 | 106 | -83.0 | 84 | 37 | |
| 2010-01-15T12:51 | 16332 | 105 | -83.2 | 85 | 37 | |
| 2010-01-15T12:51 | 16357 | 105 | -83.3 | 86 | 37 | |
| 2010-01-15T12:51 | 16380 | 104 | -83.5 | 87 | 37 | |
| 2010-01-15T12:51 | 16404 | 104 | -83.4 | 87 | 37 | |
| 2010-01-15T12:52 | 16426 | 103 | -83.1 | 87 | 37 | |
| 2010-01-15T12:52 | 16454 | 103 | -83.0 | 87 | 36 | |
| 2010-01-15T12:52 | 16483 | 102 | -82.9 | 86 | 36 | |
| 2010-01-15T12:52 | 16513 | 102 | -82.9 | 86 | 35 | |
| 2010-01-15T12:52 | 16548 | 101 | -83.1 | 85 | 35 | |
| 2010-01-15T12:52 | 16587 | 100 | -83.0 | 84 | 34 | |
| 2010-01-15T12:53 | 16627 | 100 | -82.8 | 84 | 32 | |
| 2010-01-15T12:53 | 16672 | 99 | -81.7 | 84 | 30 | |
| 2010-01-15T12:53 | 16715 | 98 | -81.5 | 86 | 28 | |
| 2010-01-15T12:53 | 16761 | 97 | -81.3 | 87 | 26 | |
| 2010-01-15T12:53 | 16807 | 97 | -81.1 | 88 | 23 | |
| 2010-01-15T12:53 | 16863 | 96 | -80.6 | 88 | 20 | |
| 2010-01-15T12:54 | 16923 | 95 | -79.3 | 87 | 17 | |
| 2010-01-15T12:54 | 16972 | 94 | -79.3 | 84 | 14 | |
| 2010-01-15T12:54 | 17021 | 93 | -79.3 | 80 | 12 | |
| 2010-01-15T12:54 | 17070 | 92 | -79.5 | 79 | 10 | |
| 2010-01-15T12:54 | 17116 | 91 | -79.1 | 80 | 7 | |
| 2010-01-15T12:54 | 17156 | 91 | -78.7 | 83 | 5 | |
| 2010-01-15T12:55 | 17192 | 90 | -78.4 | 87 | 6 | |
| 2010-01-15T23:35 | 4 | 1009 | 29.9 | 28.2 | 320 | 2 |
| 2010-01-15T23:35 | 14 | 1007 | 28.5 | 24.1 | 314 | 2 |
| 2010-01-15T23:35 | 24 | 1006 | 27.9 | 24.3 | 309 | 3 |
| 2010-01-15T23:35 | 33 | 1005 | 27.7 | 24.6 | 305 | 3 |
| 2010-01-15T23:35 | 42 | 1004 | 27.5 | 24.9 | 301 | 3 |
| 2010-01-15T23:35 | 54 | 1003 | 27.4 | 25.2 | 300 | 3 |
| 2010-01-15T23:35 | 66 | 1002 | 27.3 | 25.4 | 300 | 3 |
| 2010-01-15T23:35 | 77 | 1000 | 27.2 | 25.5 | 302 | 3 |
| 2010-01-15T23:35 | 88 | 999 | 27.1 | 25.6 | 305 | 3 |
| 2010-01-15T23:35 | 97 | 998 | 27.0 | 25.6 | 308 | 2 |
| 2010-01-15T23:35 | 106 | 997 | 26.9 | 25.8 | 312 | 2 |
| 2010-01-15T23:35 | 114 | 996 | 26.9 | 25.8 | 317 | 2 |
| 2010-01-15T23:35 | 123 | 995 | 26.8 | 25.7 | 322 | 2 |
| 2010-01-15T23:35 | 133 | 994 | 26.6 | 25.7 | 327 | 2 |
| 2010-01-15T23:35 | 143 | 993 | 26.5 | 25.6 | 330 | 2 |
| 2010-01-15T23:35 | 153 | 992 | 26.4 | 25.6 | 333 | 2 |
| 2010-01-15T23:35 | 163 | 991 | 26.4 | 25.6 | 335 | 3 |
| 2010-01-15T23:35 | 174 | 990 | 26.3 | 25.6 | 336 | 3 |
| 2010-01-15T23:35 | 184 | 988 | 26.4 | 25.5 | 336 | 3 |
| 2010-01-15T23:35 | 192 | 987 | 26.4 | 25.5 | 336 | 3 |
| 2010-01-15T23:35 | 202 | 986 | 26.2 | 25.4 | 336 | 3 |
| 2010-01-15T23:35 | 213 | 985 | 26.1 | 25.4 | 336 | 4 |
| 2010-01-15T23:35 | 226 | 984 | 26.1 | 25.3 | 336 | 4 |
| 2010-01-15T23:35 | 237 | 983 | 26.0 | 25.2 | 336 | 4 |
| 2010-01-15T23:35 | 245 | 982 | 25.9 | 25.2 | 337 | 4 |
| 2010-01-15T23:35 | 253 | 981 | 25.9 | 25.1 | 337 | 4 |
| 2010-01-15T23:35 | 261 | 980 | 25.8 | 25.1 | 338 | 4 |
| 2010-01-15T23:35 | 270 | 979 | 25.7 | 25.1 | 339 | 4 |
| 2010-01-15T23:35 | 279 | 978 | 25.7 | 25.0 | 339 | 4 |
| 2010-01-15T23:35 | 290 | 977 | 25.6 | 25.0 | 340 | 4 |
| 2010-01-15T23:36 | 301 | 975 | 25.5 | 24.9 | 341 | 4 |
| 2010-01-15T23:36 | 312 | 974 | 25.4 | 24.9 | 342 | 4 |
| 2010-01-15T23:36 | 323 | 973 | 25.3 | 24.8 | 342 | 4 |
| 2010-01-15T23:36 | 333 | 972 | 25.2 | 24.8 | 342 | 4 |
| 2010-01-15T23:36 | 342 | 971 | 25.1 | 24.8 | 343 | 5 |
| 2010-01-15T23:36 | 352 | 970 | 25.0 | 24.8 | 343 | 5 |
| 2010-01-15T23:36 | 362 | 969 | 25.0 | 24.7 | 343 | 5 |
| 2010-01-15T23:36 | 372 | 968 | 25.0 | 24.5 | 343 | 5 |
| 2010-01-15T23:36 | 380 | 967 | 24.9 | 24.4 | 343 | 5 |
| 2010-01-15T23:36 | 389 | 966 | 24.9 | 24.3 | 344 | 5 |
| 2010-01-15T23:36 | 398 | 965 | 24.9 | 24.0 | 345 | 5 |
| 2010-01-15T23:36 | 408 | 964 | 24.9 | 23.9 | 345 | 5 |
| 2010-01-15T23:36 | 417 | 963 | 24.9 | 23.8 | 346 | 5 |
| 2010-01-15T23:36 | 425 | 962 | 24.8 | 23.7 | 347 | 6 |
| 2010-01-15T23:36 | 434 | 961 | 24.7 | 23.6 | 349 | 6 |
| 2010-01-15T23:36 | 443 | 960 | 24.6 | 23.6 | 350 | 6 |
| 2010-01-15T23:36 | 452 | 959 | 24.5 | 23.6 | 351 | 6 |
| 2010-01-15T23:36 | 460 | 958 | 24.5 | 23.5 | 352 | 6 |
| 2010-01-15T23:36 | 466 | 957 | 24.5 | 23.3 | 353 | 6 |
| 2010-01-15T23:36 | 472 | 957 | 24.5 | 23.3 | 353 | 6 |
| 2010-01-15T23:36 | 479 | 956 | 24.4 | 23.2 | 354 | 6 |
| 2010-01-15T23:36 | 488 | 955 | 24.3 | 23.1 | 354 | 6 |
| 2010-01-15T23:36 | 498 | 954 | 24.2 | 23.0 | 355 | 6 |
| 2010-01-15T23:36 | 507 | 953 | 24.2 | 23.0 | 355 | 6 |
| 2010-01-15T23:36 | 518 | 952 | 24.1 | 22.9 | 355 | 6 |
| 2010-01-15T23:36 | 528 | 951 | 24.0 | 22.9 | 355 | 6 |
| 2010-01-15T23:36 | 538 | 950 | 23.8 | 22.9 | 355 | 6 |
| 2010-01-15T23:36 | 547 | 949 | 23.8 | 22.9 | 355 | 6 |
| 2010-01-15T23:36 | 557 | 948 | 23.8 | 22.9 | 355 | 6 |
| 2010-01-15T23:36 | 567 | 947 | 23.8 | 22.8 | 355 | 6 |
| 2010-01-15T23:37 | 575 | 946 | 23.6 | 22.9 | 355 | 7 |
| 2010-01-15T23:37 | 583 | 945 | 23.5 | 23.0 | 355 | 7 |
| 2010-01-15T23:37 | 589 | 944 | 23.4 | 23.0 | 355 | 7 |
| 2010-01-15T23:37 | 595 | 944 | 23.3 | 23.0 | 355 | 7 |
| 2010-01-15T23:37 | 601 | 943 | 23.4 | 22.8 | 356 | 7 |
| 2010-01-15T23:37 | 608 | 942 | 23.5 | 22.6 | 356 | 7 |
| 2010-01-15T23:37 | 614 | 941 | 23.5 | 22.5 | 356 | 7 |
| 2010-01-15T23:37 | 621 | 941 | 23.5 | 22.5 | 356 | 7 |
| 2010-01-15T23:37 | 627 | 940 | 23.4 | 22.4 | 356 | 7 |
| 2010-01-15T23:37 | 634 | 939 | 23.4 | 22.4 | 356 | 7 |
| 2010-01-15T23:37 | 641 | 939 | 23.4 | 22.3 | 357 | 7 |
| 2010-01-15T23:37 | 647 | 938 | 23.3 | 22.2 | 357 | 7 |
| 2010-01-15T23:37 | 654 | 937 | 23.3 | 22.2 | 357 | 7 |
| 2010-01-15T23:37 | 660 | 937 | 23.2 | 22.1 | 356 | 7 |
| 2010-01-15T23:37 | 666 | 936 | 23.2 | 22.1 | 356 | 7 |
| 2010-01-15T23:37 | 674 | 935 | 23.1 | 22.1 | 356 | 7 |
| 2010-01-15T23:37 | 680 | 934 | 23.1 | 22.1 | 356 | 7 |
| 2010-01-15T23:37 | 687 | 934 | 23.0 | 22.0 | 355 | 7 |
| 2010-01-15T23:37 | 694 | 933 | 23.0 | 22.0 | 354 | 7 |
| 2010-01-15T23:37 | 701 | 932 | 22.9 | 21.8 | 354 | 7 |
| 2010-01-15T23:37 | 708 | 931 | 22.9 | 21.6 | 353 | 7 |
| 2010-01-15T23:37 | 714 | 931 | 22.8 | 21.6 | 352 | 7 |
| 2010-01-15T23:37 | 721 | 930 | 22.8 | 21.6 | 351 | 7 |
| 2010-01-15T23:37 | 728 | 929 | 22.8 | 21.5 | 350 | 7 |
| 2010-01-15T23:37 | 734 | 929 | 22.8 | 21.3 | 349 | 7 |
| 2010-01-15T23:37 | 741 | 928 | 22.8 | 21.1 | 347 | 7 |
| 2010-01-15T23:37 | 749 | 927 | 22.8 | 21.0 | 346 | 7 |
| 2010-01-15T23:37 | 755 | 926 | 22.8 | 20.8 | 346 | 7 |
| 2010-01-15T23:37 | 762 | 926 | 22.9 | 20.5 | 345 | 7 |
| 2010-01-15T23:37 | 768 | 925 | 22.9 | 20.3 | 344 | 7 |
| 2010-01-15T23:38 | 775 | 924 | 22.8 | 20.2 | 343 | 7 |
| 2010-01-15T23:38 | 781 | 924 | 22.8 | 20.1 | 342 | 7 |
| 2010-01-15T23:38 | 788 | 923 | 22.8 | 19.9 | 341 | 7 |
| 2010-01-15T23:38 | 795 | 922 | 22.7 | 19.8 | 341 | 7 |
| 2010-01-15T23:38 | 802 | 921 | 22.6 | 19.8 | 340 | 7 |
| 2010-01-15T23:38 | 808 | 921 | 22.6 | 19.6 | 339 | 7 |
| 2010-01-15T23:38 | 815 | 920 | 22.6 | 19.4 | 339 | 7 |
| 2010-01-15T23:38 | 822 | 919 | 22.6 | 19.2 | 338 | 7 |
| 2010-01-15T23:38 | 829 | 919 | 22.5 | 19.2 | 337 | 7 |
| 2010-01-15T23:38 | 836 | 918 | 22.5 | 19.6 | 337 | 7 |
| 2010-01-15T23:38 | 842 | 917 | 22.4 | 19.9 | 336 | 7 |
| 2010-01-15T23:38 | 849 | 917 | 22.3 | 20.0 | 335 | 7 |
| 2010-01-15T23:38 | 855 | 916 | 22.3 | 19.9 | 335 | 7 |
| 2010-01-15T23:38 | 861 | 915 | 22.3 | 19.8 | 334 | 7 |
| 2010-01-15T23:38 | 869 | 914 | 22.3 | 19.6 | 334 | 7 |
| 2010-01-15T23:38 | 875 | 914 | 22.2 | 19.5 | 333 | 7 |
| 2010-01-15T23:38 | 882 | 913 | 22.2 | 19.3 | 333 | 7 |
| 2010-01-15T23:38 | 889 | 912 | 22.2 | 19.1 | 332 | 7 |
| 2010-01-15T23:38 | 895 | 912 | 22.2 | 19.1 | 332 | 7 |
| 2010-01-15T23:38 | 901 | 911 | 22.1 | 19.1 | 331 | 8 |
| 2010-01-15T23:38 | 907 | 910 | 22.1 | 19.0 | 330 | 8 |
| 2010-01-15T23:38 | 914 | 910 | 22.1 | 19.0 | 330 | 8 |
| 2010-01-15T23:38 | 920 | 909 | 22.0 | 19.0 | 329 | 8 |
| 2010-01-15T23:38 | 926 | 908 | 22.0 | 19.0 | 329 | 8 |
| 2010-01-15T23:38 | 933 | 908 | 21.9 | 19.0 | 328 | 8 |
| 2010-01-15T23:38 | 940 | 907 | 21.9 | 19.0 | 328 | 8 |
| 2010-01-15T23:38 | 946 | 906 | 21.9 | 19.0 | 327 | 8 |
| 2010-01-15T23:38 | 952 | 906 | 21.8 | 18.9 | 327 | 8 |
| 2010-01-15T23:38 | 959 | 905 | 21.7 | 18.9 | 326 | 8 |
| 2010-01-15T23:38 | 967 | 904 | 21.7 | 18.9 | 326 | 8 |
| 2010-01-15T23:39 | 974 | 904 | 21.6 | 18.9 | 325 | 8 |
| 2010-01-15T23:39 | 980 | 903 | 21.5 | 18.9 | 325 | 8 |
| 2010-01-15T23:39 | 987 | 902 | 21.5 | 18.9 | 324 | 8 |
| 2010-01-15T23:39 | 993 | 901 | 21.4 | 18.9 | 324 | 8 |
| 2010-01-15T23:39 | 999 | 901 | 21.4 | 18.9 | 324 | 8 |
| 2010-01-15T23:39 | 1006 | 900 | 21.3 | 18.9 | 324 | 8 |
| 2010-01-15T23:39 | 1011 | 900 | 21.3 | 18.9 | 323 | 8 |
| 2010-01-15T23:39 | 1017 | 899 | 21.3 | 18.9 | 323 | 8 |
| 2010-01-15T23:39 | 1023 | 898 | 21.2 | 18.9 | 323 | 8 |
| 2010-01-15T23:39 | 1029 | 898 | 21.2 | 19.0 | 323 | 9 |
| 2010-01-15T23:39 | 1035 | 897 | 21.1 | 19.0 | 323 | 9 |
| 2010-01-15T23:39 | 1041 | 897 | 21.1 | 18.9 | 323 | 9 |
| 2010-01-15T23:39 | 1047 | 896 | 21.1 | 18.9 | 322 | 9 |
| 2010-01-15T23:39 | 1054 | 895 | 21.0 | 18.7 | 322 | 9 |
| 2010-01-15T23:39 | 1060 | 895 | 21.0 | 18.5 | 322 | 9 |
| 2010-01-15T23:39 | 1066 | 894 | 21.0 | 18.4 | 321 | 9 |
| 2010-01-15T23:39 | 1072 | 893 | 20.9 | 18.4 | 320 | 9 |
| 2010-01-15T23:39 | 1078 | 893 | 20.8 | 18.5 | 320 | 9 |
| 2010-01-15T23:39 | 1086 | 892 | 20.8 | 18.7 | 319 | 9 |
| 2010-01-15T23:39 | 1094 | 891 | 20.7 | 18.8 | 318 | 9 |
| 2010-01-15T23:39 | 1100 | 890 | 20.7 | 18.9 | 317 | 9 |
| 2010-01-15T23:39 | 1106 | 890 | 20.7 | 18.9 | 316 | 9 |
| 2010-01-15T23:39 | 1112 | 889 | 20.6 | 18.9 | 316 | 9 |
| 2010-01-15T23:39 | 1118 | 889 | 20.6 | 18.9 | 315 | 9 |
| 2010-01-15T23:39 | 1124 | 888 | 20.6 | 18.8 | 314 | 9 |
| 2010-01-15T23:39 | 1130 | 887 | 20.5 | 18.8 | 313 | 9 |
| 2010-01-15T23:39 | 1136 | 887 | 20.5 | 18.8 | 313 | 9 |
| 2010-01-15T23:39 | 1142 | 886 | 20.5 | 18.7 | 312 | 9 |
| 2010-01-15T23:39 | 1148 | 886 | 20.5 | 18.5 | 311 | 9 |
| 2010-01-15T23:39 | 1155 | 885 | 20.5 | 18.3 | 311 | 9 |
| 2010-01-15T23:40 | 1161 | 884 | 20.5 | 18.1 | 310 | 9 |
| 2010-01-15T23:40 | 1168 | 884 | 20.5 | 18.0 | 310 | 9 |
| 2010-01-15T23:40 | 1175 | 883 | 20.4 | 17.9 | 309 | 9 |
| 2010-01-15T23:40 | 1181 | 882 | 20.4 | 17.8 | 309 | 9 |
| 2010-01-15T23:40 | 1188 | 881 | 20.4 | 17.8 | 308 | 10 |
| 2010-01-15T23:40 | 1194 | 881 | 20.3 | 17.8 | 308 | 10 |
| 2010-01-15T23:40 | 1201 | 880 | 20.3 | 17.7 | 308 | 10 |
| 2010-01-15T23:40 | 1207 | 880 | 20.2 | 17.7 | 307 | 10 |
| 2010-01-15T23:40 | 1213 | 879 | 20.2 | 17.7 | 307 | 10 |
| 2010-01-15T23:40 | 1219 | 878 | 20.1 | 17.6 | 307 | 10 |
| 2010-01-15T23:40 | 1225 | 878 | 20.1 | 17.6 | 306 | 10 |
| 2010-01-15T23:40 | 1231 | 877 | 20.0 | 17.5 | 306 | 10 |
| 2010-01-15T23:40 | 1237 | 876 | 20.0 | 17.3 | 306 | 10 |
| 2010-01-15T23:40 | 1243 | 876 | 20.0 | 17.2 | 305 | 10 |
| 2010-01-15T23:40 | 1249 | 875 | 20.0 | 17.0 | 305 | 10 |
| 2010-01-15T23:40 | 1255 | 875 | 20.0 | 16.8 | 305 | 10 |
| 2010-01-15T23:40 | 1261 | 874 | 20.1 | 16.8 | 304 | 10 |
| 2010-01-15T23:40 | 1267 | 873 | 20.1 | 16.7 | 304 | 10 |
| 2010-01-15T23:40 | 1273 | 873 | 20.1 | 16.7 | 303 | 10 |
| 2010-01-15T23:40 | 1279 | 872 | 20.1 | 16.6 | 303 | 10 |
| 2010-01-15T23:40 | 1286 | 872 | 20.1 | 16.5 | 302 | 10 |
| 2010-01-15T23:40 | 1293 | 871 | 20.2 | 16.4 | 302 | 10 |
| 2010-01-15T23:40 | 1299 | 870 | 20.1 | 16.3 | 301 | 10 |
| 2010-01-15T23:40 | 1305 | 870 | 20.1 | 16.4 | 301 | 11 |
| 2010-01-15T23:40 | 1312 | 869 | 20.2 | 16.5 | 301 | 11 |
| 2010-01-15T23:40 | 1318 | 868 | 20.1 | 16.5 | 300 | 11 |
| 2010-01-15T23:40 | 1325 | 868 | 20.1 | 16.4 | 300 | 11 |
| 2010-01-15T23:40 | 1331 | 867 | 20.0 | 16.4 | 300 | 11 |
| 2010-01-15T23:40 | 1337 | 866 | 20.0 | 16.3 | 300 | 11 |
| 2010-01-15T23:40 | 1343 | 866 | 20.0 | 16.3 | 300 | 11 |
| 2010-01-15T23:41 | 1350 | 865 | 19.9 | 16.3 | 300 | 11 |
| 2010-01-15T23:41 | 1356 | 865 | 19.9 | 16.3 | 300 | 11 |
| 2010-01-15T23:41 | 1363 | 864 | 19.8 | 16.3 | 300 | 11 |
| 2010-01-15T23:41 | 1369 | 863 | 19.7 | 16.3 | 300 | 11 |
| 2010-01-15T23:41 | 1375 | 863 | 19.7 | 16.3 | 300 | 11 |
| 2010-01-15T23:41 | 1382 | 862 | 19.6 | 16.3 | 300 | 11 |
| 2010-01-15T23:41 | 1388 | 861 | 19.6 | 16.2 | 300 | 11 |
| 2010-01-15T23:41 | 1393 | 861 | 19.6 | 16.1 | 300 | 11 |
| 2010-01-15T23:41 | 1399 | 860 | 19.6 | 16.0 | 300 | 11 |
| 2010-01-15T23:41 | 1405 | 860 | 19.6 | 15.7 | 300 | 11 |
| 2010-01-15T23:41 | 1411 | 859 | 19.5 | 15.6 | 300 | 11 |
| 2010-01-15T23:41 | 1418 | 858 | 19.5 | 15.6 | 300 | 11 |
| 2010-01-15T23:41 | 1424 | 858 | 19.5 | 15.7 | 300 | 11 |
| 2010-01-15T23:41 | 1430 | 857 | 19.4 | 15.7 | 300 | 11 |
| 2010-01-15T23:41 | 1437 | 856 | 19.4 | 15.8 | 300 | 11 |
| 2010-01-15T23:41 | 1443 | 856 | 19.3 | 15.9 | 300 | 11 |
| 2010-01-15T23:41 | 1450 | 855 | 19.3 | 16.0 | 300 | 11 |
| 2010-01-15T23:41 | 1457 | 854 | 19.2 | 15.9 | 300 | 11 |
| 2010-01-15T23:41 | 1463 | 854 | 19.2 | 15.9 | 301 | 11 |
| 2010-01-15T23:41 | 1469 | 853 | 19.1 | 15.9 | 301 | 11 |
| 2010-01-15T23:41 | 1476 | 853 | 19.1 | 15.8 | 301 | 11 |
| 2010-01-15T23:41 | 1483 | 852 | 19.1 | 15.8 | 301 | 11 |
| 2010-01-15T23:41 | 1489 | 851 | 19.1 | 15.8 | 301 | 11 |
| 2010-01-15T23:41 | 1496 | 851 | 19.1 | 15.7 | 301 | 11 |
| 2010-01-15T23:41 | 1503 | 850 | 19.1 | 15.6 | 301 | 11 |
| 2010-01-15T23:41 | 1509 | 849 | 19.0 | 15.6 | 301 | 11 |
| 2010-01-15T23:41 | 1515 | 849 | 19.0 | 15.5 | 301 | 11 |
| 2010-01-15T23:41 | 1522 | 848 | 19.0 | 15.5 | 301 | 11 |
| 2010-01-15T23:41 | 1529 | 847 | 18.9 | 15.4 | 301 | 11 |
| 2010-01-15T23:41 | 1535 | 847 | 18.9 | 15.3 | 301 | 11 |
| 2010-01-15T23:42 | 1542 | 846 | 18.9 | 15.2 | 301 | 11 |
| 2010-01-15T23:42 | 1549 | 845 | 18.9 | 15.1 | 301 | 11 |
| 2010-01-15T23:42 | 1555 | 845 | 18.9 | 15.1 | 301 | 11 |
| 2010-01-15T23:42 | 1561 | 844 | 18.9 | 15.0 | 300 | 11 |
| 2010-01-15T23:42 | 1568 | 844 | 18.8 | 14.9 | 300 | 11 |
| 2010-01-15T23:42 | 1574 | 843 | 18.8 | 14.9 | 300 | 11 |
| 2010-01-15T23:42 | 1581 | 842 | 18.7 | 14.9 | 300 | 11 |
| 2010-01-15T23:42 | 1588 | 842 | 18.7 | 14.6 | 299 | 11 |
| 2010-01-15T23:42 | 1595 | 841 | 18.7 | 14.4 | 299 | 11 |
| 2010-01-15T23:42 | 1603 | 840 | 18.6 | 14.4 | 299 | 11 |
| 2010-01-15T23:42 | 1610 | 839 | 18.6 | 14.5 | 298 | 11 |
| 2010-01-15T23:42 | 1617 | 839 | 18.5 | 14.6 | 298 | 11 |
| 2010-01-15T23:42 | 1624 | 838 | 18.5 | 14.6 | 298 | 11 |
| 2010-01-15T23:42 | 1631 | 837 | 18.4 | 14.6 | 297 | 11 |
| 2010-01-15T23:42 | 1638 | 837 | 18.3 | 14.6 | 297 | 11 |
| 2010-01-15T23:42 | 1645 | 836 | 18.3 | 14.6 | 297 | 11 |
| 2010-01-15T23:42 | 1652 | 835 | 18.3 | 14.6 | 297 | 11 |
| 2010-01-15T23:42 | 1658 | 835 | 18.2 | 14.6 | 297 | 11 |
| 2010-01-15T23:42 | 1665 | 834 | 18.2 | 14.6 | 297 | 11 |
| 2010-01-15T23:42 | 1672 | 833 | 18.2 | 14.5 | 297 | 11 |
| 2010-01-15T23:42 | 1679 | 833 | 18.1 | 14.5 | 297 | 11 |
| 2010-01-15T23:42 | 1686 | 832 | 18.0 | 14.5 | 297 | 11 |
| 2010-01-15T23:42 | 1693 | 831 | 18.0 | 14.4 | 297 | 11 |
| 2010-01-15T23:42 | 1700 | 831 | 17.9 | 14.4 | 297 | 11 |
| 2010-01-15T23:42 | 1707 | 830 | 17.9 | 14.4 | 297 | 11 |
| 2010-01-15T23:42 | 1714 | 829 | 17.8 | 14.4 | 297 | 11 |
| 2010-01-15T23:42 | 1720 | 829 | 17.8 | 14.5 | 298 | 11 |
| 2010-01-15T23:42 | 1727 | 828 | 17.7 | 14.5 | 298 | 11 |
| 2010-01-15T23:42 | 1734 | 827 | 17.6 | 14.5 | 298 | 11 |
| 2010-01-15T23:42 | 1742 | 827 | 17.6 | 14.5 | 298 | 11 |
| 2010-01-15T23:43 | 1749 | 826 | 17.5 | 14.4 | 298 | 11 |
| 2010-01-15T23:43 | 1756 | 825 | 17.5 | 14.4 | 299 | 11 |
| 2010-01-15T23:43 | 1763 | 825 | 17.5 | 14.3 | 299 | 11 |
| 2010-01-15T23:43 | 1771 | 824 | 17.5 | 14.1 | 299 | 11 |
| 2010-01-15T23:43 | 1778 | 823 | 17.5 | 13.8 | 299 | 11 |
| 2010-01-15T23:43 | 1785 | 823 | 17.5 | 13.4 | 299 | 11 |
| 2010-01-15T23:43 | 1792 | 822 | 17.5 | 13.0 | 299 | 11 |
| 2010-01-15T23:43 | 1800 | 821 | 17.5 | 12.8 | 299 | 11 |
| 2010-01-15T23:43 | 1807 | 820 | 17.4 | 12.8 | 299 | 11 |
| 2010-01-15T23:43 | 1813 | 820 | 17.4 | 12.9 | 299 | 11 |
| 2010-01-15T23:43 | 1820 | 819 | 17.3 | 12.9 | 299 | 11 |
| 2010-01-15T23:43 | 1827 | 818 | 17.3 | 13.0 | 299 | 11 |
| 2010-01-15T23:43 | 1835 | 818 | 17.2 | 13.0 | 300 | 11 |
| 2010-01-15T23:43 | 1842 | 817 | 17.1 | 12.9 | 300 | 11 |
| 2010-01-15T23:43 | 1849 | 816 | 17.1 | 12.9 | 300 | 11 |
| 2010-01-15T23:43 | 1854 | 816 | 17.0 | 12.8 | 300 | 11 |
| 2010-01-15T23:43 | 1860 | 815 | 17.0 | 12.5 | 300 | 11 |
| 2010-01-15T23:43 | 1868 | 815 | 17.0 | 12.3 | 301 | 11 |
| 2010-01-15T23:43 | 1875 | 814 | 17.0 | 12.2 | 301 | 11 |
| 2010-01-15T23:43 | 1881 | 813 | 16.9 | 12.1 | 301 | 11 |
| 2010-01-15T23:43 | 1888 | 813 | 16.9 | 12.1 | 302 | 11 |
| 2010-01-15T23:43 | 1894 | 812 | 16.8 | 12.1 | 302 | 11 |
| 2010-01-15T23:43 | 1901 | 811 | 16.7 | 12.0 | 303 | 11 |
| 2010-01-15T23:43 | 1908 | 811 | 16.7 | 11.9 | 303 | 11 |
| 2010-01-15T23:43 | 1915 | 810 | 16.6 | 11.9 | 303 | 11 |
| 2010-01-15T23:43 | 1922 | 809 | 16.6 | 11.8 | 304 | 11 |
| 2010-01-15T23:43 | 1929 | 809 | 16.5 | 11.9 | 304 | 11 |
| 2010-01-15T23:43 | 1935 | 808 | 16.5 | 11.8 | 304 | 11 |
| 2010-01-15T23:43 | 1942 | 808 | 16.4 | 11.8 | 304 | 11 |
| 2010-01-15T23:43 | 1949 | 807 | 16.3 | 11.8 | 305 | 11 |
| 2010-01-15T23:44 | 1956 | 806 | 16.3 | 11.7 | 305 | 11 |
| 2010-01-15T23:44 | 1964 | 806 | 16.3 | 11.5 | 305 | 11 |
| 2010-01-15T23:44 | 1970 | 805 | 16.2 | 11.4 | 305 | 11 |
| 2010-01-15T23:44 | 1976 | 804 | 16.2 | 11.5 | 305 | 11 |
| 2010-01-15T23:44 | 1982 | 804 | 16.1 | 11.8 | 305 | 11 |
| 2010-01-15T23:44 | 1988 | 803 | 16.1 | 11.9 | 305 | 11 |
| 2010-01-15T23:44 | 1995 | 803 | 16.0 | 12.1 | 305 | 11 |
| 2010-01-15T23:44 | 2021 | 800 | 15.8 | 12.6 | 305 | 11 |
| 2010-01-15T23:44 | 2055 | 797 | 15.6 | 12.2 | 304 | 11 |
| 2010-01-15T23:44 | 2087 | 794 | 15.5 | 11.2 | 304 | 11 |
| 2010-01-15T23:44 | 2120 | 791 | 15.2 | 11.0 | 304 | 11 |
| 2010-01-15T23:45 | 2153 | 788 | 15.0 | 10.5 | 305 | 10 |
| 2010-01-15T23:45 | 2185 | 785 | 14.7 | 10.6 | 304 | 10 |
| 2010-01-15T23:45 | 2220 | 782 | 14.4 | 10.9 | 302 | 10 |
| 2010-01-15T23:45 | 2253 | 779 | 14.2 | 11.2 | 301 | 10 |
| 2010-01-15T23:45 | 2287 | 775 | 14.0 | 11.1 | 301 | 10 |
| 2010-01-15T23:45 | 2318 | 773 | 13.9 | 10.9 | 301 | 10 |
| 2010-01-15T23:46 | 2351 | 770 | 13.8 | 10.2 | 303 | 10 |
| 2010-01-15T23:46 | 2385 | 767 | 13.6 | 10.4 | 304 | 10 |
| 2010-01-15T23:46 | 2419 | 763 | 13.3 | 10.1 | 304 | 10 |
| 2010-01-15T23:46 | 2454 | 760 | 13.0 | 9.9 | 304 | 10 |
| 2010-01-15T23:46 | 2487 | 757 | 12.7 | 9.8 | 304 | 10 |
| 2010-01-15T23:46 | 2521 | 754 | 12.5 | 9.3 | 305 | 10 |
| 2010-01-15T23:47 | 2552 | 751 | 12.2 | 9.5 | 305 | 10 |
| 2010-01-15T23:47 | 2587 | 748 | 12.2 | 9.1 | 306 | 11 |
| 2010-01-15T23:47 | 2619 | 745 | 12.3 | 8.6 | 306 | 11 |
| 2010-01-15T23:47 | 2652 | 743 | 12.2 | 8.6 | 306 | 11 |
| 2010-01-15T23:47 | 2686 | 740 | 11.9 | 8.7 | 307 | 11 |
| 2010-01-15T23:47 | 2717 | 737 | 11.7 | 8.6 | 306 | 11 |
| 2010-01-15T23:48 | 2750 | 734 | 11.6 | 8.3 | 305 | 11 |
| 2010-01-15T23:48 | 2781 | 731 | 11.4 | 8.3 | 304 | 12 |
| 2010-01-15T23:48 | 2814 | 728 | 11.3 | 8.5 | 304 | 12 |
| 2010-01-15T23:48 | 2847 | 725 | 11.2 | 8.7 | 305 | 12 |
| 2010-01-15T23:48 | 2879 | 723 | 11.1 | 8.2 | 305 | 12 |
| 2010-01-15T23:48 | 2912 | 720 | 11.0 | 8.3 | 305 | 12 |
| 2010-01-15T23:49 | 2944 | 717 | 10.8 | 8.3 | 305 | 12 |
| 2010-01-15T23:49 | 2976 | 714 | 10.5 | 8.2 | 304 | 12 |
| 2010-01-15T23:49 | 3010 | 711 | 10.3 | 8.1 | 305 | 12 |
| 2010-01-15T23:49 | 3044 | 709 | 10.0 | 7.9 | 306 | 12 |
| 2010-01-15T23:49 | 3076 | 706 | 9.9 | 7.7 | 308 | 12 |
| 2010-01-15T23:49 | 3108 | 703 | 9.6 | 7.7 | 310 | 11 |
| 2010-01-15T23:50 | 3140 | 700 | 9.3 | 7.8 | 311 | 11 |
| 2010-01-15T23:50 | 3172 | 698 | 9.1 | 7.7 | 310 | 11 |
| 2010-01-15T23:50 | 3203 | 695 | 9.0 | 7.8 | 309 | 11 |
| 2010-01-15T23:50 | 3235 | 692 | 8.9 | 7.5 | 309 | 11 |
| 2010-01-15T23:50 | 3268 | 690 | 8.9 | 7.5 | 308 | 11 |
| 2010-01-15T23:50 | 3301 | 687 | 8.8 | 7.4 | 308 | 11 |
| 2010-01-15T23:51 | 3332 | 684 | 8.8 | 7.0 | 309 | 11 |
| 2010-01-15T23:51 | 3364 | 682 | 8.6 | 6.8 | 310 | 11 |
| 2010-01-15T23:51 | 3397 | 679 | 8.6 | 6.7 | 311 | 11 |
| 2010-01-15T23:51 | 3429 | 677 | 8.5 | 6.4 | 312 | 11 |
| 2010-01-15T23:51 | 3460 | 674 | 8.6 | 6.3 | 312 | 12 |
| 2010-01-15T23:51 | 3490 | 671 | 8.7 | 5.9 | 312 | 12 |
| 2010-01-15T23:52 | 3520 | 669 | 8.7 | 5.7 | 312 | 12 |
| 2010-01-15T23:52 | 3549 | 667 | 8.7 | 5.5 | 311 | 12 |
| 2010-01-15T23:52 | 3580 | 664 | 8.6 | 4.5 | 310 | 12 |
| 2010-01-15T23:52 | 3609 | 662 | 8.5 | 4.7 | 309 | 12 |
| 2010-01-15T23:52 | 3641 | 659 | 8.4 | 4.3 | 308 | 12 |
| 2010-01-15T23:52 | 3671 | 657 | 8.2 | 4.1 | 309 | 12 |
| 2010-01-15T23:53 | 3702 | 655 | 8.0 | 4.1 | 310 | 12 |
| 2010-01-15T23:53 | 3733 | 652 | 7.8 | 3.9 | 311 | 12 |
| 2010-01-15T23:53 | 3765 | 650 | 7.6 | 3.7 | 311 | 12 |
| 2010-01-15T23:53 | 3798 | 647 | 7.3 | 3.7 | 311 | 11 |
| 2010-01-15T23:53 | 3830 | 644 | 7.1 | 3.6 | 311 | 11 |
| 2010-01-15T23:53 | 3862 | 642 | 6.8 | 3.6 | 312 | 11 |
| 2010-01-15T23:54 | 3894 | 639 | 6.7 | 3.5 | 312 | 11 |
| 2010-01-15T23:54 | 3927 | 637 | 6.5 | 2.9 | 312 | 12 |
| 2010-01-15T23:54 | 3960 | 634 | 6.2 | 3.2 | 311 | 11 |
| 2010-01-15T23:54 | 3994 | 632 | 6.1 | 3.2 | 310 | 11 |
| 2010-01-15T23:54 | 4028 | 629 | 5.9 | 3.1 | 309 | 11 |
| 2010-01-15T23:54 | 4061 | 627 | 5.7 | 2.5 | 307 | 10 |
| 2010-01-15T23:55 | 4093 | 624 | 5.5 | 2.3 | 306 | 10 |
| 2010-01-15T23:55 | 4127 | 622 | 5.2 | 1.7 | 305 | 10 |
| 2010-01-15T23:55 | 4160 | 619 | 5.1 | 1.4 | 303 | 10 |
| 2010-01-15T23:55 | 4193 | 617 | 5.0 | 1.2 | 301 | 10 |
| 2010-01-15T23:55 | 4226 | 614 | 4.9 | 1.2 | 299 | 10 |
| 2010-01-15T23:55 | 4258 | 612 | 4.8 | 0.6 | 297 | 10 |
| 2010-01-15T23:56 | 4291 | 609 | 4.7 | 0.0 | 295 | 10 |
| 2010-01-15T23:56 | 4325 | 607 | 4.8 | -0.1 | 294 | 10 |
| 2010-01-15T23:56 | 4358 | 604 | 4.7 | 0.1 | 293 | 10 |
| 2010-01-15T23:56 | 4390 | 602 | 4.6 | -0.3 | 292 | 10 |
| 2010-01-15T23:56 | 4424 | 599 | 4.4 | -0.5 | 292 | 10 |
| 2010-01-15T23:56 | 4455 | 597 | 4.2 | -0.7 | 291 | 10 |
| 2010-01-15T23:57 | 4488 | 595 | 3.9 | -1.0 | 291 | 10 |
| 2010-01-15T23:57 | 4522 | 592 | 3.7 | -1.0 | 291 | 10 |
| 2010-01-15T23:57 | 4556 | 590 | 3.4 | -1.1 | 291 | 10 |
| 2010-01-15T23:57 | 4590 | 587 | 3.2 | -1.4 | 291 | 10 |
| 2010-01-15T23:57 | 4623 | 585 | 3.0 | -1.4 | 293 | 10 |
| 2010-01-15T23:57 | 4656 | 583 | 2.7 | -1.8 | 294 | 10 |
| 2010-01-15T23:58 | 4690 | 580 | 2.4 | -1.4 | 295 | 9 |
| 2010-01-15T23:58 | 4722 | 578 | 2.2 | -1.3 | 295 | 9 |
| 2010-01-15T23:58 | 4756 | 575 | 2.1 | -1.5 | 295 | 9 |
| 2010-01-15T23:58 | 4790 | 573 | 1.8 | -1.4 | 295 | 8 |
| 2010-01-15T23:58 | 4822 | 571 | 1.5 | -1.4 | 296 | 9 |
| 2010-01-15T23:58 | 4856 | 568 | 1.3 | -1.8 | 297 | 9 |
| 2010-01-15T23:59 | 4890 | 566 | 1.0 | -2.0 | 299 | 9 |
| 2010-01-15T23:59 | 4923 | 564 | 0.7 | -2.0 | 300 | 9 |
| 2010-01-15T23:59 | 4956 | 561 | 0.4 | -2.1 | 300 | 9 |
| 2010-01-15T23:59 | 4990 | 559 | 0.1 | -2.2 | 300 | 8 |
| 2010-01-15T23:59 | 5022 | 557 | -0.1 | -2.7 | 299 | 8 |
| 2010-01-15T23:59 | 5055 | 554 | -0.3 | -1.8 | 296 | 8 |
| 2010-01-16T00:00 | 5090 | 552 | -0.5 | -2.0 | 295 | 8 |
| 2010-01-16T00:00 | 5125 | 550 | -0.6 | -2.2 | 298 | 8 |
| 2010-01-16T00:00 | 5162 | 547 | -0.8 | -2.5 | 304 | 7 |
| 2010-01-16T00:00 | 5197 | 545 | -0.9 | -2.9 | 308 | 7 |
| 2010-01-16T00:00 | 5245 | 541 | -0.7 | -3.6 | 305 | 7 |
| 2010-01-16T00:00 | 5283 | 539 | -0.9 | -4.0 | 299 | 7 |
| 2010-01-16T00:01 | 5330 | 536 | -1.2 | -4.2 | 292 | 7 |
| 2010-01-16T00:01 | 5363 | 533 | -1.4 | -4.1 | 286 | 6 |
| 2010-01-16T00:01 | 5397 | 531 | -1.6 | -4.1 | 282 | 6 |
| 2010-01-16T00:01 | 5431 | 529 | -2.0 | -4.5 | 278 | 6 |
| 2010-01-16T00:01 | 5465 | 527 | -2.2 | -4.2 | 275 | 6 |
| 2010-01-16T00:01 | 5500 | 524 | -2.3 | -3.9 | 273 | 6 |
| 2010-01-16T00:02 | 5533 | 522 | -2.3 | -4.2 | 273 | 6 |
| 2010-01-16T00:02 | 5567 | 520 | -2.1 | -4.7 | 275 | 6 |
| 2010-01-16T00:02 | 5602 | 518 | -2.4 | -4.7 | 277 | 6 |
| 2010-01-16T00:02 | 5635 | 516 | -2.6 | -5.0 | 279 | 6 |
| 2010-01-16T00:02 | 5672 | 513 | -2.6 | -5.1 | 283 | 7 |
| 2010-01-16T00:02 | 5706 | 511 | -2.8 | -5.5 | 288 | 7 |
| 2010-01-16T00:03 | 5740 | 509 | -3.0 | -5.6 | 291 | 7 |
| 2010-01-16T00:03 | 5774 | 507 | -3.2 | -5.9 | 293 | 7 |
| 2010-01-16T00:03 | 5808 | 504 | -3.3 | -6.7 | 294 | 7 |
| 2010-01-16T00:03 | 5842 | 502 | -3.6 | -6.6 | 295 | 7 |
| 2010-01-16T00:03 | 5875 | 500 | -3.8 | -6.7 | 295 | 7 |
| 2010-01-16T00:03 | 5908 | 498 | -4.1 | -6.8 | 294 | 7 |
| 2010-01-16T00:04 | 5941 | 496 | -4.3 | -7.0 | 295 | 7 |
| 2010-01-16T00:04 | 5977 | 494 | -4.5 | -7.2 | 296 | 7 |
| 2010-01-16T00:04 | 6014 | 491 | -4.8 | -7.7 | 298 | 7 |
| 2010-01-16T00:04 | 6048 | 489 | -5.1 | -7.6 | 299 | 7 |
| 2010-01-16T00:04 | 6083 | 487 | -5.5 | -7.7 | 299 | 7 |
| 2010-01-16T00:04 | 6117 | 485 | -5.8 | -7.8 | 299 | 7 |
| 2010-01-16T00:05 | 6152 | 483 | -6.0 | -7.9 | 297 | 7 |
| 2010-01-16T00:05 | 6188 | 481 | -6.2 | -8.0 | 294 | 7 |
| 2010-01-16T00:05 | 6223 | 479 | -6.3 | -8.2 | 291 | 7 |
| 2010-01-16T00:05 | 6258 | 476 | -6.2 | -8.4 | 289 | 7 |
| 2010-01-16T00:05 | 6296 | 474 | -6.2 | -8.8 | 291 | 7 |
| 2010-01-16T00:05 | 6333 | 472 | -6.5 | -9.0 | 292 | 7 |
| 2010-01-16T00:06 | 6369 | 470 | -6.7 | -9.2 | 293 | 7 |
| 2010-01-16T00:06 | 6405 | 468 | -7.1 | -9.4 | 293 | 7 |
| 2010-01-16T00:06 | 6441 | 465 | -7.4 | -9.6 | 293 | 7 |
| 2010-01-16T00:06 | 6479 | 463 | -7.8 | -9.6 | 292 | 7 |
| 2010-01-16T00:06 | 6514 | 461 | -8.0 | -9.5 | 292 | 7 |
| 2010-01-16T00:06 | 6547 | 459 | -8.3 | -9.8 | 291 | 7 |
| 2010-01-16T00:07 | 6581 | 457 | -8.4 | -9.9 | 292 | 6 |
| 2010-01-16T00:07 | 6616 | 455 | -8.6 | -10.0 | 293 | 6 |
| 2010-01-16T00:07 | 6655 | 453 | -8.8 | -10.2 | 293 | 5 |
| 2010-01-16T00:07 | 6693 | 451 | -9.1 | -10.0 | 292 | 5 |
| 2010-01-16T00:07 | 6735 | 448 | -9.3 | -10.3 | 288 | 4 |
| 2010-01-16T00:07 | 6772 | 446 | -9.5 | -10.9 | 285 | 4 |
| 2010-01-16T00:08 | 6810 | 444 | -9.7 | -11.1 | 283 | 4 |
| 2010-01-16T00:08 | 6845 | 442 | -10.0 | -11.4 | 282 | 4 |
| 2010-01-16T00:08 | 6886 | 439 | -10.3 | -11.7 | 279 | 4 |
| 2010-01-16T00:08 | 6931 | 437 | -10.8 | -11.7 | 279 | 4 |
| 2010-01-16T00:08 | 6967 | 435 | -10.9 | -11.7 | 284 | 4 |
| 2010-01-16T00:08 | 7006 | 433 | -11.1 | -11.9 | 289 | 4 |
| 2010-01-16T00:09 | 7049 | 430 | -11.3 | -12.1 | 295 | 4 |
| 2010-01-16T00:09 | 7095 | 428 | -11.6 | -12.3 | 300 | 3 |
| 2010-01-16T00:09 | 7138 | 425 | -11.9 | -12.9 | 304 | 4 |
| 2010-01-16T00:09 | 7194 | 422 | -12.2 | -13.1 | 303 | 4 |
| 2010-01-16T00:09 | 7240 | 420 | -12.4 | -13.4 | 298 | 4 |
| 2010-01-16T00:09 | 7286 | 417 | -12.8 | -13.9 | 285 | 3 |
| 2010-01-16T00:10 | 7347 | 414 | -13.4 | -14.4 | 266 | 4 |
| 2010-01-16T00:10 | 7405 | 411 | -13.0 | -15.2 | 250 | 4 |
| 2010-01-16T00:10 | 7439 | 409 | -12.5 | -16.3 | 242 | 5 |
| 2010-01-16T00:10 | 7481 | 407 | -12.7 | -17.2 | 239 | 4 |
| 2010-01-16T00:10 | 7522 | 404 | -13.0 | -17.6 | 242 | 4 |
| 2010-01-16T00:10 | 7565 | 402 | -13.4 | -17.9 | 251 | 3 |
| 2010-01-16T00:11 | 7606 | 400 | -13.7 | -18.4 | 261 | 2 |
| 2010-01-16T00:11 | 7639 | 398 | -13.8 | -19.2 | 261 | 1 |
| 2010-01-16T00:11 | 7672 | 396 | -14.0 | -20.0 | 253 | 1 |
| 2010-01-16T00:11 | 7705 | 395 | -14.0 | -21.3 | 247 | 0 |
| 2010-01-16T00:11 | 7736 | 393 | -13.9 | -22.3 | 251 | 0 |
| 2010-01-16T00:11 | 7767 | 392 | -14.1 | -22.6 | 257 | 0 |
| 2010-01-16T00:12 | 7800 | 390 | -14.3 | -22.9 | 258 | 0 |
| 2010-01-16T00:12 | 7832 | 388 | -14.6 | -23.3 | 262 | 1 |
| 2010-01-16T00:12 | 7866 | 386 | -14.8 | -24.0 | 268 | 1 |
| 2010-01-16T00:12 | 7899 | 385 | -15.0 | -24.0 | 273 | 1 |
| 2010-01-16T00:12 | 7931 | 383 | -15.3 | -24.1 | 273 | 1 |
| 2010-01-16T00:12 | 7963 | 382 | -15.6 | -24.3 | 270 | 1 |
| 2010-01-16T00:13 | 7995 | 380 | -15.9 | -24.3 | 273 | 0 |
| 2010-01-16T00:13 | 8034 | 378 | -16.2 | -24.2 | 283 | 0 |
| 2010-01-16T00:13 | 8068 | 376 | -16.6 | -24.7 | 292 | 0 |
| 2010-01-16T00:13 | 8103 | 375 | -16.9 | -24.5 | 281 | 0 |
| 2010-01-16T00:13 | 8137 | 373 | -17.2 | -24.6 | 260 | 0 |
| 2010-01-16T00:13 | 8172 | 371 | -17.6 | -24.7 | 0 | 0 |
| 2010-01-16T00:14 | 8213 | 369 | -17.9 | -24.3 | 100 | 0 |
| 2010-01-16T00:14 | 8268 | 366 | -18.4 | -24.1 | 94 | 2 |
| 2010-01-16T00:14 | 8327 | 364 | -18.6 | -23.5 | 93 | 3 |
| 2010-01-16T00:14 | 8374 | 361 | -19.1 | -23.7 | 91 | 3 |
| 2010-01-16T00:14 | 8411 | 359 | -19.3 | -23.8 | 91 | 4 |
| 2010-01-16T00:14 | 8448 | 358 | -19.7 | -23.9 | 94 | 4 |
| 2010-01-16T00:15 | 8484 | 356 | -20.0 | -24.1 | 97 | 4 |
| 2010-01-16T00:15 | 8522 | 354 | -20.3 | -23.9 | 98 | 5 |
| 2010-01-16T00:15 | 8569 | 352 | -20.7 | -24.0 | 101 | 6 |
| 2010-01-16T00:15 | 8619 | 349 | -21.1 | -23.7 | 104 | 8 |
| 2010-01-16T00:15 | 8656 | 348 | -21.2 | -23.9 | 106 | 9 |
| 2010-01-16T00:15 | 8690 | 346 | -21.3 | -24.5 | 107 | 9 |
| 2010-01-16T00:16 | 8726 | 344 | -21.3 | -25.6 | 106 | 9 |
| 2010-01-16T00:16 | 8762 | 343 | -21.4 | -26.1 | 106 | 9 |
| 2010-01-16T00:16 | 8797 | 341 | -21.6 | -27.1 | 106 | 8 |
| 2010-01-16T00:16 | 8832 | 340 | -21.9 | -27.8 | 106 | 8 |
| 2010-01-16T00:16 | 8867 | 338 | -22.3 | -27.3 | 106 | 8 |
| 2010-01-16T00:16 | 8904 | 336 | -22.6 | -27.2 | 106 | 8 |
| 2010-01-16T00:17 | 8940 | 335 | -22.9 | -27.5 | 106 | 8 |
| 2010-01-16T00:17 | 8975 | 333 | -23.2 | -27.6 | 105 | 8 |
| 2010-01-16T00:17 | 9011 | 331 | -23.5 | -27.8 | 103 | 8 |
| 2010-01-16T00:17 | 9047 | 330 | -23.8 | -28.6 | 102 | 9 |
| 2010-01-16T00:17 | 9083 | 328 | -24.1 | -28.8 | 100 | 9 |
| 2010-01-16T00:17 | 9119 | 326 | -24.3 | -29.0 | 99 | 9 |
| 2010-01-16T00:18 | 9156 | 325 | -24.6 | -29.4 | 100 | 9 |
| 2010-01-16T00:18 | 9198 | 323 | -24.9 | -29.6 | 100 | 10 |
| 2010-01-16T00:18 | 9239 | 321 | -25.3 | -29.8 | 100 | 11 |
| 2010-01-16T00:18 | 9276 | 320 | -25.5 | -30.5 | 99 | 12 |
| 2010-01-16T00:18 | 9310 | 318 | -25.5 | -30.9 | 100 | 12 |
| 2010-01-16T00:18 | 9344 | 317 | -25.8 | -31.1 | 101 | 12 |
| 2010-01-16T00:19 | 9379 | 315 | -25.9 | -31.5 | 102 | 12 |
| 2010-01-16T00:19 | 9414 | 313 | -26.1 | -32.0 | 103 | 12 |
| 2010-01-16T00:19 | 9447 | 312 | -26.3 | -33.2 | 105 | 12 |
| 2010-01-16T00:19 | 9481 | 311 | -26.5 | -34.6 | 106 | 12 |
| 2010-01-16T00:19 | 9515 | 309 | -26.6 | -35.8 | 106 | 12 |
| 2010-01-16T00:19 | 9549 | 308 | -26.8 | -36.2 | 106 | 11 |
| 2010-01-16T00:20 | 9582 | 306 | -27.0 | -37.2 | 107 | 11 |
| 2010-01-16T00:20 | 9615 | 305 | -27.2 | -38.3 | 108 | 11 |
| 2010-01-16T00:20 | 9648 | 303 | -27.4 | -38.9 | 109 | 11 |
| 2010-01-16T00:20 | 9682 | 302 | -27.6 | -39.5 | 109 | 11 |
| 2010-01-16T00:20 | 9715 | 301 | -27.9 | -40.0 | 109 | 11 |
| 2010-01-16T00:20 | 9749 | 299 | -28.1 | -40.3 | 110 | 10 |
| 2010-01-16T00:21 | 9784 | 298 | -28.4 | -40.7 | 109 | 10 |
| 2010-01-16T00:21 | 9820 | 296 | -28.7 | -40.9 | 109 | 10 |
| 2010-01-16T00:21 | 9854 | 295 | -29.0 | -41.0 | 109 | 10 |
| 2010-01-16T00:21 | 9888 | 293 | -29.3 | -40.9 | 108 | 10 |
| 2010-01-16T00:21 | 9923 | 292 | -29.6 | -40.8 | 107 | 10 |
| 2010-01-16T00:21 | 9957 | 291 | -29.9 | -40.6 | 106 | 10 |
| 2010-01-16T00:22 | 9991 | 289 | -30.2 | -40.2 | 106 | 11 |
| 2010-01-16T00:22 | 10027 | 288 | -30.6 | -40.2 | 106 | 11 |
| 2010-01-16T00:22 | 10064 | 286 | -30.9 | -40.3 | 107 | 11 |
| 2010-01-16T00:22 | 10100 | 285 | -31.2 | -39.9 | 107 | 11 |
| 2010-01-16T00:22 | 10136 | 283 | -31.6 | -39.9 | 107 | 11 |
| 2010-01-16T00:22 | 10173 | 282 | -31.9 | -39.9 | 107 | 11 |
| 2010-01-16T00:23 | 10211 | 280 | -32.3 | -39.8 | 107 | 11 |
| 2010-01-16T00:23 | 10248 | 279 | -32.6 | -39.6 | 107 | 11 |
| 2010-01-16T00:23 | 10287 | 277 | -33.0 | -39.9 | 107 | 11 |
| 2010-01-16T00:23 | 10326 | 276 | -33.3 | -40.5 | 108 | 11 |
| 2010-01-16T00:23 | 10365 | 274 | -33.7 | -40.6 | 109 | 10 |
| 2010-01-16T00:23 | 10406 | 273 | -34.2 | -40.6 | 109 | 10 |
| 2010-01-16T00:24 | 10446 | 271 | -34.5 | -40.8 | 109 | 10 |
| 2010-01-16T00:24 | 10487 | 270 | -34.9 | -41.3 | 110 | 10 |
| 2010-01-16T00:24 | 10530 | 268 | -35.2 | -41.3 | 112 | 10 |
| 2010-01-16T00:24 | 10570 | 266 | -35.6 | -41.8 | 115 | 10 |
| 2010-01-16T00:24 | 10608 | 265 | -35.9 | -42.2 | 118 | 11 |
| 2010-01-16T00:24 | 10648 | 263 | -36.3 | -42.5 | 118 | 10 |
| 2010-01-16T00:25 | 10688 | 262 | -36.6 | -42.8 | 119 | 9 |
| 2010-01-16T00:25 | 10728 | 260 | -36.8 | -42.8 | 120 | 9 |
| 2010-01-16T00:25 | 10770 | 259 | -37.0 | -43.0 | 122 | 8 |
| 2010-01-16T00:25 | 10812 | 257 | -37.4 | -43.3 | 122 | 8 |
| 2010-01-16T00:25 | 10853 | 256 | -37.8 | -43.4 | 123 | 8 |
| 2010-01-16T00:25 | 10894 | 254 | -38.2 | -43.8 | 124 | 8 |
| 2010-01-16T00:26 | 10936 | 253 | -38.5 | -44.3 | 124 | 8 |
| 2010-01-16T00:26 | 10977 | 251 | -38.8 | -44.7 | 122 | 8 |
| 2010-01-16T00:26 | 11018 | 250 | -39.2 | -45.0 | 120 | 8 |
| 2010-01-16T00:26 | 11059 | 248 | -39.5 | -45.7 | 118 | 9 |
| 2010-01-16T00:26 | 11100 | 247 | -39.9 | -45.9 | 117 | 9 |
| 2010-01-16T00:26 | 11142 | 245 | -40.2 | -46.3 | 116 | 9 |
| 2010-01-16T00:27 | 11184 | 244 | -40.7 | -46.6 | 114 | 9 |
| 2010-01-16T00:27 | 11226 | 242 | -41.0 | -46.8 | 112 | 9 |
| 2010-01-16T00:27 | 11267 | 241 | -41.3 | -47.0 | 108 | 9 |
| 2010-01-16T00:27 | 11312 | 239 | -41.7 | -47.3 | 104 | 9 |
| 2010-01-16T00:27 | 11359 | 237 | -42.0 | -47.5 | 102 | 10 |
| 2010-01-16T00:27 | 11412 | 236 | -42.5 | -47.9 | 100 | 10 |
| 2010-01-16T00:28 | 11456 | 234 | -42.9 | -48.2 | 99 | 11 |
| 2010-01-16T00:28 | 11501 | 233 | -43.3 | -48.7 | 99 | 11 |
| 2010-01-16T00:28 | 11549 | 231 | -43.7 | -49.3 | 98 | 11 |
| 2010-01-16T00:28 | 11603 | 229 | -44.3 | -49.7 | 96 | 12 |
| 2010-01-16T00:28 | 11647 | 228 | -44.6 | -49.9 | 95 | 12 |
| 2010-01-16T00:28 | 11694 | 226 | -45.0 | -50.3 | 93 | 12 |
| 2010-01-16T00:29 | 11745 | 224 | -45.5 | -50.8 | 93 | 12 |
| 2010-01-16T00:29 | 11794 | 223 | -45.9 | -51.2 | 92 | 12 |
| 2010-01-16T00:29 | 11844 | 221 | -46.5 | -51.6 | 92 | 12 |
| 2010-01-16T00:29 | 11895 | 219 | -47.0 | -51.7 | 90 | 12 |
| 2010-01-16T00:29 | 11949 | 217 | -47.4 | -51.8 | 89 | 12 |
| 2010-01-16T00:29 | 11997 | 216 | -47.9 | -52.5 | 89 | 13 |
| 2010-01-16T00:30 | 12050 | 214 | -48.3 | -52.9 | 90 | 14 |
| 2010-01-16T00:30 | 12092 | 213 | -48.7 | -53.9 | 91 | 14 |
| 2010-01-16T00:30 | 12135 | 211 | -49.3 | -54.6 | 91 | 14 |
| 2010-01-16T00:30 | 12179 | 210 | -49.7 | -55.5 | 91 | 15 |
| 2010-01-16T00:30 | 12227 | 208 | -50.1 | -55.8 | 89 | 15 |
| 2010-01-16T00:30 | 12275 | 207 | -50.6 | -55.9 | 88 | 15 |
| 2010-01-16T00:31 | 12327 | 205 | -51.1 | -56.0 | 87 | 15 |
| 2010-01-16T00:31 | 12373 | 204 | -51.6 | -55.9 | 86 | 15 |
| 2010-01-16T00:31 | 12419 | 202 | -51.9 | -56.0 | 86 | 15 |
| 2010-01-16T00:31 | 12474 | 201 | -52.5 | -56.4 | 84 | 16 |
| 2010-01-16T00:31 | 12528 | 199 | -53.0 | -57.2 | 83 | 17 |
| 2010-01-16T00:31 | 12577 | 197 | -53.4 | -58.3 | 83 | 17 |
| 2010-01-16T00:32 | 12620 | 196 | -53.7 | -59.2 | 83 | 18 |
| 2010-01-16T00:32 | 12665 | 195 | -54.1 | -60.2 | 83 | 18 |
| 2010-01-16T00:32 | 12709 | 193 | -54.6 | -60.9 | 82 | 18 |
| 2010-01-16T00:32 | 12757 | 192 | -55.0 | -61.6 | 82 | 19 |
| 2010-01-16T00:32 | 12804 | 191 | -55.4 | -62.3 | 82 | 19 |
| 2010-01-16T00:32 | 12849 | 189 | -55.8 | -62.7 | 82 | 18 |
| 2010-01-16T00:33 | 12895 | 188 | -56.3 | -63.3 | 82 | 18 |
| 2010-01-16T00:33 | 12940 | 187 | -56.8 | -63.8 | 82 | 18 |
| 2010-01-16T00:33 | 12982 | 185 | -57.0 | -64.8 | 81 | 18 |
| 2010-01-16T00:33 | 13021 | 184 | -57.4 | -65.4 | 81 | 18 |
| 2010-01-16T00:33 | 13059 | 183 | -57.8 | -65.8 | 80 | 18 |
| 2010-01-16T00:33 | 13096 | 182 | -58.2 | -65.9 | 80 | 18 |
| 2010-01-16T00:34 | 13137 | 181 | -58.6 | -66.1 | 80 | 17 |
| 2010-01-16T00:34 | 13175 | 180 | -59.0 | -66.7 | 79 | 17 |
| 2010-01-16T00:34 | 13214 | 179 | -59.3 | -67.3 | 79 | 17 |
| 2010-01-16T00:34 | 13253 | 177 | -59.6 | -67.9 | 79 | 17 |
| 2010-01-16T00:34 | 13290 | 176 | -60.0 | -69.1 | 79 | 17 |
| 2010-01-16T00:34 | 13326 | 175 | -60.3 | -70.1 | 79 | 17 |
| 2010-01-16T00:35 | 13365 | 174 | -60.7 | -71.0 | 79 | 17 |
| 2010-01-16T00:35 | 13404 | 173 | -61.1 | -71.7 | 79 | 17 |
| 2010-01-16T00:35 | 13442 | 172 | -61.4 | -71.9 | 79 | 17 |
| 2010-01-16T00:35 | 13479 | 171 | -61.8 | -72.0 | 78 | 17 |
| 2010-01-16T00:35 | 13517 | 170 | -62.1 | -71.8 | 78 | 17 |
| 2010-01-16T00:35 | 13556 | 169 | -62.5 | -72.0 | 77 | 17 |
| 2010-01-16T00:36 | 13593 | 168 | -62.9 | -72.4 | 76 | 17 |
| 2010-01-16T00:36 | 13635 | 167 | -63.4 | -72.7 | 76 | 17 |
| 2010-01-16T00:36 | 13675 | 166 | -63.6 | -72.7 | 77 | 17 |
| 2010-01-16T00:36 | 13720 | 165 | -64.1 | -73.1 | 77 | 18 |
| 2010-01-16T00:36 | 13762 | 163 | -64.5 | -73.3 | 77 | 18 |
| 2010-01-16T00:36 | 13806 | 162 | -65.0 | -73.5 | 76 | 18 |
| 2010-01-16T00:37 | 13847 | 161 | -65.2 | -73.6 | 76 | 18 |
| 2010-01-16T00:37 | 13884 | 160 | -65.7 | -73.8 | 76 | 18 |
| 2010-01-16T00:37 | 13922 | 159 | -66.1 | -74.2 | 76 | 18 |
| 2010-01-16T00:37 | 13958 | 158 | -66.4 | -74.5 | 76 | 17 |
| 2010-01-16T00:37 | 13994 | 157 | -66.8 | -75.0 | 76 | 17 |
| 2010-01-16T00:37 | 14030 | 156 | -66.9 | -75.1 | 76 | 17 |
| 2010-01-16T00:38 | 14065 | 155 | -67.4 | -75.5 | 76 | 17 |
| 2010-01-16T00:38 | 14101 | 155 | -67.7 | -75.8 | 76 | 17 |
| 2010-01-16T00:38 | 14137 | 154 | -68.0 | -76.1 | 76 | 17 |
| 2010-01-16T00:38 | 14172 | 153 | -68.5 | -76.4 | 77 | 17 |
| 2010-01-16T00:38 | 14210 | 152 | -68.9 | -76.8 | 77 | 17 |
| 2010-01-16T00:38 | 14245 | 151 | -69.1 | -77.0 | 76 | 17 |
| 2010-01-16T00:39 | 14279 | 150 | -69.6 | -77.4 | 76 | 17 |
| 2010-01-16T00:39 | 14314 | 149 | -69.8 | -77.6 | 76 | 17 |
| 2010-01-16T00:39 | 14349 | 148 | -70.2 | -78.1 | 75 | 17 |
| 2010-01-16T00:39 | 14387 | 147 | -70.5 | -78.4 | 75 | 17 |
| 2010-01-16T00:39 | 14423 | 146 | -70.9 | -78.7 | 75 | 17 |
| 2010-01-16T00:39 | 14459 | 146 | -71.3 | -79.2 | 76 | 17 |
| 2010-01-16T00:40 | 14496 | 145 | -71.8 | -79.5 | 76 | 17 |
| 2010-01-16T00:40 | 14531 | 144 | -72.0 | -79.7 | 76 | 17 |
| 2010-01-16T00:40 | 14567 | 143 | -72.3 | -80.0 | 76 | 17 |
| 2010-01-16T00:40 | 14604 | 142 | -72.6 | -80.3 | 77 | 18 |
| 2010-01-16T00:40 | 14641 | 141 | -73.0 | -80.8 | 77 | 18 |
| 2010-01-16T00:40 | 14679 | 140 | -73.4 | -81.3 | 78 | 18 |
| 2010-01-16T00:41 | 14716 | 139 | -73.7 | -81.4 | 78 | 19 |
| 2010-01-16T00:41 | 14755 | 138 | -74.0 | -81.8 | 79 | 19 |
| 2010-01-16T00:41 | 14793 | 137 | -74.4 | -82.1 | 80 | 20 |
| 2010-01-16T00:41 | 14831 | 137 | -74.7 | -82.4 | 81 | 21 |
| 2010-01-16T00:41 | 14871 | 136 | -74.8 | -82.5 | 83 | 22 |
| 2010-01-16T00:41 | 14912 | 135 | -74.8 | -82.6 | 85 | 23 |
| 2010-01-16T00:42 | 14949 | 134 | -74.6 | -82.4 | 86 | 24 |
| 2010-01-16T00:42 | 14984 | 133 | -74.7 | -82.6 | 87 | 26 |
| 2010-01-16T00:42 | 15019 | 132 | -74.3 | -82.4 | 87 | 26 |
| 2010-01-16T00:42 | 15052 | 131 | -74.7 | -82.8 | 88 | 27 |
| 2010-01-16T00:42 | 15086 | 131 | -74.9 | -83.0 | 89 | 27 |
| 2010-01-16T00:42 | 15123 | 130 | -75.1 | -83.4 | 91 | 28 |
| 2010-01-16T00:43 | 15160 | 129 | -75.5 | -83.8 | 92 | 28 |
| 2010-01-16T00:43 | 15197 | 128 | -75.6 | -83.9 | 92 | 29 |
| 2010-01-16T00:43 | 15234 | 127 | -76.0 | -84.3 | 92 | 29 |
| 2010-01-16T00:43 | 15270 | 127 | -76.1 | -84.5 | 91 | 30 |
| 2010-01-16T00:43 | 15309 | 126 | -76.2 | -84.6 | 89 | 31 |
| 2010-01-16T00:43 | 15345 | 125 | -75.5 | -84.1 | 87 | 32 |
| 2010-01-16T00:44 | 15381 | 124 | -75.6 | -84.1 | 86 | 32 |
| 2010-01-16T00:44 | 15420 | 123 | -75.9 | -84.4 | 85 | 32 |
| 2010-01-16T00:44 | 15460 | 123 | -76.2 | -84.8 | 84 | 32 |
| 2010-01-16T00:44 | 15498 | 122 | -76.7 | -85.3 | 84 | 32 |
| 2010-01-16T00:44 | 15538 | 121 | -76.8 | -85.4 | 83 | 32 |
| 2010-01-16T00:44 | 15577 | 120 | -77.3 | -85.9 | 82 | 33 |
| 2010-01-16T00:45 | 15618 | 119 | -77.5 | -86.1 | 82 | 33 |
| 2010-01-16T00:45 | 15658 | 118 | -78.0 | -86.7 | 82 | 33 |
| 2010-01-16T00:45 | 15700 | 118 | -78.3 | -86.9 | 81 | 33 |
| 2010-01-16T00:45 | 15741 | 117 | -78.8 | -87.4 | 80 | 33 |
| 2010-01-16T00:45 | 15781 | 116 | -79.1 | -87.7 | 79 | 33 |
| 2010-01-16T00:45 | 15822 | 115 | -79.4 | -88.2 | 78 | 33 |
| 2010-01-16T00:46 | 15864 | 114 | -79.8 | -88.5 | 77 | 33 |
| 2010-01-16T00:46 | 15903 | 113 | -80.1 | -88.9 | 77 | 33 |
| 2010-01-16T00:46 | 15943 | 113 | -80.4 | -89.2 | 77 | 34 |
| 2010-01-16T00:46 | 15981 | 112 | -80.4 | -89.3 | 77 | 34 |
| 2010-01-16T00:46 | 16019 | 111 | -80.6 | -89.5 | 78 | 34 |
| 2010-01-16T00:46 | 16057 | 110 | -80.2 | -89.3 | 79 | 34 |
| 2010-01-16T00:47 | 16095 | 110 | -80.7 | -89.8 | 81 | 34 |
| 2010-01-16T00:47 | 16133 | 109 | -80.6 | -89.8 | 82 | 34 |
| 2010-01-16T00:47 | 16171 | 108 | -80.7 | -90.0 | 83 | 34 |
| 2010-01-16T00:47 | 16208 | 107 | -81.1 | -90.3 | 84 | 35 |
| 2010-01-16T00:47 | 16246 | 107 | -81.1 | -90.4 | 85 | 34 |
| 2010-01-16T00:47 | 16286 | 106 | -81.0 | -90.4 | 86 | 34 |
| 2010-01-16T00:48 | 16327 | 105 | -81.1 | -90.6 | 86 | 33 |
| 2010-01-16T00:48 | 16372 | 104 | -80.6 | -90.2 | 86 | 30 |
| 2010-01-16T00:48 | 16415 | 104 | -79.8 | -89.6 | 86 | 27 |
| 2010-01-16T00:48 | 16463 | 103 | -79.0 | -89.0 | 87 | 24 |
| 2010-01-16T00:48 | 16504 | 102 | -78.7 | -88.8 | 88 | 22 |
| 2010-01-16T00:48 | 16548 | 101 | -78.3 | -88.6 | 88 | 19 |
| 2010-01-16T00:49 | 16596 | 100 | -77.9 | -88.4 | 89 | 17 |
| 2010-01-16T00:49 | 16644 | 99 | -77.6 | -88.2 | 91 | 15 |
| 2010-01-16T00:49 | 16688 | 99 | -77.2 | -88.0 | 94 | 13 |
| 2010-01-16T00:49 | 16733 | 98 | -77.3 | -88.3 | 98 | 11 |
| 2010-01-16T00:49 | 16776 | 97 | -77.3 | -88.4 | 101 | 9 |
| 2010-01-16T00:49 | 16819 | 96 | -77.6 | -88.8 | 105 | 8 |
| 2010-01-16T00:50 | 16861 | 96 | -77.6 | -89.0 | 112 | 7 |
| 2010-01-16T00:50 | 16902 | 95 | -77.8 | -89.3 | 119 | 6 |
| 2010-01-16T00:50 | 16943 | 94 | -78.2 | -89.7 | 124 | 5 |
| 2010-01-16T00:50 | 16983 | 94 | -78.2 | -90.0 | 128 | 4 |
| 2010-01-16T00:50 | 17021 | 93 | -78.3 | -90.1 | 138 | 2 |
| 2010-01-16T00:50 | 17059 | 92 | -78.3 | -90.3 | 163 | 2 |
| 2010-01-16T00:51 | 17098 | 92 | -78.2 | -90.4 | 189 | 2 |
| 2010-01-16T00:51 | 17137 | 91 | -78.1 | -90.3 | 202 | 3 |
| 2010-01-16T00:51 | 17176 | 91 | -78.5 | -90.7 | 215 | 3 |
| 2010-01-16T00:51 | 17217 | 90 | -78.6 | -91.0 | 229 | 4 |
| 2010-01-16T00:51 | 17258 | 89 | -79.0 | -91.4 | 241 | 4 |
| 2010-01-16T00:51 | 17299 | 89 | -79.2 | -91.7 | 251 | 5 |
| 2010-01-16T00:52 | 17343 | 88 | -79.4 | -91.9 | 256 | 7 |
| 2010-01-16T00:52 | 17384 | 87 | -79.3 | -91.8 | 256 | 8 |
| 2010-01-16T00:52 | 17425 | 87 | -79.2 | -91.9 | 251 | 8 |
| 2010-01-16T00:52 | 17466 | 86 | -79.2 | -91.9 | 243 | 8 |
| 2010-01-16T00:52 | 17505 | 86 | -79.2 | -91.9 | 239 | 8 |
| 2010-01-16T00:52 | 17543 | 85 | -79.3 | -92.0 | 238 | 8 |
| 2010-01-16T00:53 | 17583 | 84 | -79.6 | -92.2 | 239 | 9 |
| 2010-01-16T00:53 | 17622 | 84 | -79.8 | -92.5 | 237 | 9 |
| 2010-01-16T00:53 | 17660 | 83 | -79.6 | -92.3 | 233 | 9 |
| 2010-01-16T00:53 | 17697 | 83 | -79.7 | -92.4 | 233 | 8 |
| 2010-01-16T00:53 | 17735 | 82 | -79.7 | -92.5 | 240 | 8 |
| 2010-01-16T00:53 | 17772 | 82 | -77.3 | -90.6 | 252 | 8 |
| 2010-01-16T00:54 | 17808 | 81 | -76.4 | -89.8 | 260 | 9 |
| 2010-01-16T00:54 | 17846 | 81 | -76.3 | -89.7 | 264 | 10 |
| 2010-01-16T00:54 | 17886 | 80 | -76.3 | -89.7 | 266 | 11 |
| 2010-01-16T00:54 | 17925 | 79 | -76.5 | -89.9 | 266 | 12 |
| 2010-01-16T00:54 | 17965 | 79 | -76.8 | -90.4 | 266 | 12 |
| 2010-01-16T00:54 | 18006 | 78 | -77.1 | -90.8 | 266 | 12 |
| 2010-01-16T00:55 | 18048 | 78 | -76.6 | -90.4 | 265 | 11 |
| 2010-01-16T00:55 | 18090 | 77 | -76.4 | -90.4 | 262 | 11 |
| 2010-01-16T00:55 | 18133 | 77 | -76.4 | -90.5 | 258 | 11 |
| 2010-01-16T00:55 | 18176 | 76 | -76.4 | -90.6 | 256 | 11 |
| 2010-01-16T00:55 | 18220 | 75 | -76.4 | -90.7 | 254 | 11 |
| 2010-01-16T00:55 | 18262 | 75 | -76.5 | -90.9 | 254 | 11 |
| 2010-01-16T00:56 | 18305 | 74 | -76.5 | -91.0 | 254 | 10 |
| 2010-01-16T00:56 | 18349 | 74 | -76.1 | -90.8 | 254 | 10 |
| 2010-01-16T00:56 | 18392 | 73 | -76.3 | -91.0 | 253 | 10 |
| 2010-01-16T00:56 | 18435 | 73 | -76.1 | -90.8 | 252 | 10 |
| 2010-01-16T00:56 | 18477 | 72 | -76.5 | -91.3 | 251 | 10 |
| 2010-01-16T00:56 | 18518 | 72 | -76.6 | -91.6 | 249 | 10 |
| 2010-01-16T00:57 | 18559 | 71 | -75.8 | -91.0 | 249 | 10 |
| 2010-01-16T00:57 | 18599 | 71 | -75.2 | -90.6 | 249 | 10 |
| 2010-01-16T00:57 | 18639 | 70 | -75.2 | -90.6 | 249 | 10 |
| 2010-01-16T00:57 | 18680 | 70 | -75.0 | -90.5 | 248 | 10 |
| 2010-01-16T00:57 | 18719 | 69 | -74.9 | -90.5 | 246 | 11 |
| 2010-01-16T00:57 | 18760 | 69 | -74.8 | -90.5 | 245 | 11 |
| 2010-01-16T00:58 | 18800 | 68 | -75.0 | -90.8 | 247 | 11 |
| 2010-01-16T00:58 | 18842 | 68 | -75.1 | -91.0 | 250 | 11 |
| 2010-01-16T00:58 | 18881 | 67 | -74.8 | -90.8 | 254 | 10 |
| 2010-01-16T00:58 | 18922 | 67 | -74.1 | -90.4 | 255 | 10 |
| 2010-01-16T00:58 | 18961 | 66 | -74.1 | -90.4 | 258 | 9 |
| 2010-01-16T00:58 | 19000 | 66 | -74.2 | -90.6 | 262 | 8 |
| 2010-01-16T00:59 | 19041 | 65 | -74.4 | -90.9 | 267 | 8 |
| 2010-01-16T00:59 | 19081 | 65 | -74.5 | -91.1 | 269 | 8 |
| 2010-01-16T00:59 | 19121 | 65 | -74.4 | -91.1 | 269 | 8 |
| 2010-01-16T00:59 | 19161 | 64 | -74.1 | -91.0 | 271 | 8 |
| 2010-01-16T00:59 | 19203 | 64 | -74.1 | -91.1 | 273 | 9 |
| 2010-01-16T00:59 | 19243 | 63 | -74.3 | -91.2 | 276 | 9 |
| 2010-01-16T01:00 | 19286 | 63 | -74.5 | -91.5 | 278 | 10 |
| 2010-01-16T01:00 | 19325 | 62 | -74.4 | -91.5 | 279 | 10 |
| 2010-01-16T01:00 | 19368 | 62 | -74.2 | -91.4 | 280 | 11 |
| 2010-01-16T01:00 | 19409 | 61 | -74.3 | -91.5 | 281 | 11 |
| 2010-01-16T01:00 | 19450 | 61 | -74.3 | -91.6 | 282 | 11 |
| 2010-01-16T01:00 | 19492 | 61 | -74.1 | -91.5 | 282 | 12 |
| 2010-01-16T01:01 | 19533 | 60 | -74.2 | -91.6 | 281 | 12 |
| 2010-01-16T01:01 | 19573 | 60 | -73.8 | -91.4 | 280 | 12 |
| 2010-01-16T01:01 | 19614 | 59 | -73.9 | -91.5 | 280 | 11 |
| 2010-01-16T01:01 | 19656 | 59 | -74.1 | -91.6 | 282 | 10 |
| 2010-01-16T01:01 | 19698 | 59 | -74.4 | -91.9 | 285 | 10 |
| 2010-01-16T01:01 | 19740 | 58 | -74.1 | -91.7 | 288 | 10 |
| 2010-01-16T01:02 | 19782 | 58 | -73.6 | -91.4 | 290 | 11 |
| 2010-01-16T01:02 | 19825 | 57 | -73.3 | -91.2 | 291 | 11 |
| 2010-01-16T01:02 | 19867 | 57 | -72.6 | -90.7 | 289 | 11 |
| 2010-01-16T01:02 | 19910 | 56 | -72.3 | -90.6 | 286 | 12 |
| 2010-01-16T01:02 | 19953 | 56 | -72.6 | -90.9 | 284 | 12 |
| 2010-01-16T01:02 | 19994 | 56 | -72.7 | -91.0 | 283 | 13 |
| 2010-01-16T01:03 | 20038 | 55 | -72.9 | -91.3 | 282 | 14 |
| 2010-01-16T01:03 | 20082 | 55 | -73.3 | -91.7 | 281 | 14 |
| 2010-01-16T01:03 | 20126 | 54 | -73.3 | -91.9 | 279 | 14 |
| 2010-01-16T01:03 | 20168 | 54 | -73.6 | -92.2 | 276 | 14 |
| 2010-01-16T01:03 | 20209 | 54 | -73.6 | -92.2 | 274 | 14 |
| 2010-01-16T01:03 | 20252 | 53 | -74.0 | -92.6 | 271 | 14 |
| 2010-01-16T01:04 | 20296 | 53 | -74.3 | -92.8 | 268 | 15 |
| 2010-01-16T01:04 | 20336 | 52 | -74.1 | -92.7 | 266 | 15 |
| 2010-01-16T01:04 | 20378 | 52 | -73.9 | -92.6 | 265 | 15 |
| 2010-01-16T01:04 | 20421 | 52 | -73.9 | -92.6 | 265 | 14 |
| 2010-01-16T01:04 | 20463 | 51 | -73.2 | -92.1 | 264 | 13 |
| 2010-01-16T01:04 | 20505 | 51 | -72.8 | -92.0 | 262 | 12 |
| 2010-01-16T01:05 | 20546 | 51 | -72.2 | -91.7 | 261 | 11 |
| 2010-01-16T01:05 | 20589 | 50 | -72.7 | -92.1 | 263 | 10 |
| 2010-01-16T01:05 | 20632 | 50 | -72.2 | -91.8 | 264 | 8 |
| 2010-01-16T01:05 | 20675 | 50 | -72.0 | -91.8 | 262 | 7 |
| 2010-01-16T01:05 | 20716 | 49 | -71.7 | -91.8 | 258 | 5 |
| 2010-01-16T01:05 | 20761 | 49 | -71.7 | -91.8 | 257 | 3 |
| 2010-01-16T01:06 | 20805 | 48 | -71.4 | -91.7 | 268 | 2 |
| 2010-01-16T01:06 | 20850 | 48 | -71.6 | -92.0 | 315 | 1 |
| 2010-01-16T01:06 | 20894 | 48 | -71.1 | -91.8 | 348 | 1 |
| 2010-01-16T01:06 | 20938 | 47 | -70.7 | -91.7 | 355 | 2 |
| 2010-01-16T01:06 | 20981 | 47 | -69.6 | -91.1 | 354 | 3 |
| 2010-01-16T01:06 | 21026 | 47 | -69.2 | -90.9 | 350 | 4 |
| 2010-01-16T01:07 | 21070 | 46 | -69.3 | -91.1 | 347 | 5 |
| 2010-01-16T01:07 | 21112 | 46 | -69.4 | -91.3 | 346 | 6 |
| 2010-01-16T01:07 | 21156 | 46 | -69.0 | -91.3 | 350 | 6 |
| 2010-01-16T01:07 | 21199 | 45 | -68.5 | -91.2 | 357 | 6 |
| 2010-01-16T01:07 | 21241 | 45 | -67.3 | -90.7 | 1 | 6 |
| 2010-01-16T01:07 | 21286 | 45 | -66.7 | -90.5 | 359 | 7 |
| 2010-01-16T01:08 | 21326 | 44 | -66.7 | -90.6 | 358 | 7 |
| 2010-01-16T01:08 | 21368 | 44 | -66.8 | -90.9 | 2 | 8 |
| 2010-01-16T01:08 | 21410 | 44 | -66.8 | -91.1 | 7 | 9 |
| 2010-01-16T01:08 | 21451 | 43 | -66.9 | -91.4 | 11 | 10 |
| 2010-01-16T01:08 | 21495 | 43 | -67.1 | -91.7 | 12 | 11 |
| 2010-01-16T01:08 | 21536 | 43 | -67.3 | -92.1 | 12 | 13 |
| 2010-01-16T01:09 | 21579 | 43 | -67.7 | -92.5 | 11 | 13 |
| 2010-01-16T01:09 | 21622 | 42 | -68.1 | -92.8 | 10 | 14 |
| 2010-01-16T01:09 | 21666 | 42 | -68.4 | -93.2 | 11 | 14 |
| 2010-01-16T01:09 | 21709 | 42 | -68.6 | -93.5 | 15 | 14 |
| 2010-01-16T01:09 | 21756 | 41 | -68.6 | -93.7 | 23 | 13 |
| 2010-01-16T01:09 | 21803 | 41 | -68.6 | -93.8 | 33 | 12 |
| 2010-01-16T01:10 | 21844 | 41 | -68.5 | -93.8 | 42 | 12 |
| 2010-01-16T01:10 | 21886 | 40 | -68.6 | -93.8 | 50 | 12 |
| 2010-01-16T01:10 | 21926 | 40 | -68.4 | -93.8 | 58 | 11 |
| 2010-01-16T01:10 | 21968 | 40 | -68.2 | -93.6 | 64 | 11 |
| 2010-01-16T01:10 | 22012 | 40 | -67.9 | -93.5 | 70 | 11 |
| 2010-01-16T01:10 | 22056 | 39 | -68.1 | -93.6 | 74 | 10 |
| 2010-01-16T01:11 | 22100 | 39 | -68.2 | -93.7 | 75 | 11 |
| 2010-01-16T01:11 | 22146 | 39 | -68.1 | -93.7 | 76 | 11 |
| 2010-01-16T01:11 | 22189 | 38 | -68.4 | -93.8 | 78 | 11 |
| 2010-01-16T01:11 | 22233 | 38 | -68.3 | -93.9 | 79 | 12 |
| 2010-01-16T01:11 | 22279 | 38 | -68.4 | -94.0 | 80 | 13 |
| 2010-01-16T01:11 | 22323 | 38 | -68.3 | -94.0 | 81 | 14 |
| 2010-01-16T01:12 | 22367 | 37 | -67.1 | -93.4 | 83 | 15 |
| 2010-01-16T01:12 | 22410 | 37 | -66.2 | -92.9 | 85 | 16 |
| 2010-01-16T01:12 | 22455 | 37 | -65.9 | -92.7 | 89 | 16 |
| 2010-01-16T01:12 | 22497 | 37 | -65.6 | -92.5 | 93 | 16 |
| 2010-01-16T01:12 | 22541 | 36 | -65.8 | -92.4 | 97 | 17 |
| 2010-01-16T01:12 | 22581 | 36 | -65.5 | -92.4 | 100 | 17 |
| 2010-01-16T01:13 | 22625 | 36 | -65.0 | -92.2 | 100 | 18 |
| 2010-01-16T01:13 | 22668 | 36 | -64.8 | -92.1 | 98 | 19 |
| 2010-01-16T01:13 | 22710 | 35 | -64.4 | -91.9 | 94 | 19 |
| 2010-01-16T01:13 | 22751 | 35 | -64.6 | -92.0 | 91 | 20 |
| 2010-01-16T01:13 | 22794 | 35 | -64.7 | -92.1 | 89 | 21 |
| 2010-01-16T01:13 | 22837 | 35 | -64.9 | -92.2 | 87 | 22 |
| 2010-01-16T01:14 | 22880 | 34 | -65.1 | -92.4 | 88 | 22 |
| 2010-01-16T01:14 | 22923 | 34 | -64.8 | -92.3 | 91 | 22 |
| 2010-01-16T01:14 | 22967 | 34 | -63.9 | -91.9 | 94 | 22 |
| 2010-01-16T01:14 | 23011 | 34 | -63.3 | -91.7 | 96 | 23 |
| 2010-01-16T01:14 | 23054 | 33 | -63.5 | -91.5 | 96 | 23 |
| 2010-01-16T01:14 | 23099 | 33 | -63.3 | -91.5 | 97 | 24 |
| 2010-01-16T01:15 | 23145 | 33 | -63.1 | -91.4 | 98 | 25 |
| 2010-01-16T01:15 | 23190 | 33 | -62.9 | -91.2 | 100 | 27 |
| 2010-01-16T01:15 | 23233 | 32 | -62.8 | -91.2 | 101 | 27 |
| 2010-01-16T01:15 | 23277 | 32 | -62.5 | -91.0 | 102 | 28 |
| 2010-01-16T01:15 | 23324 | 32 | -62.3 | -90.9 | 101 | 29 |
| 2010-01-16T01:15 | 23370 | 32 | -61.6 | -90.5 | 100 | 29 |
| 2010-01-16T01:16 | 23413 | 31 | -61.7 | -90.5 | 98 | 29 |
| 2010-01-16T01:16 | 23458 | 31 | -62.0 | -90.6 | 97 | 29 |
| 2010-01-16T01:16 | 23504 | 31 | -62.1 | -90.6 | 96 | 29 |
| 2010-01-16T01:16 | 23547 | 31 | -62.1 | -90.6 | 96 | 30 |
| 2010-01-16T01:16 | 23593 | 31 | -61.8 | -90.5 | 96 | 30 |
| 2010-01-16T01:16 | 23636 | 30 | -61.4 | -90.4 | 95 | 31 |
| 2010-01-16T01:17 | 23682 | 30 | -60.9 | -90.1 | 92 | 31 |
| 2010-01-16T01:17 | 23725 | 30 | -60.2 | -89.7 | 88 | 31 |
| 2010-01-16T01:17 | 23766 | 30 | -58.4 | -89.0 | 84 | 31 |
| 2010-01-16T01:17 | 23810 | 30 | -57.8 | -88.4 | 81 | 31 |
| 2010-01-16T01:17 | 23851 | 29 | -58.0 | -88.1 | 80 | 31 |
| 2010-01-16T01:17 | 23895 | 29 | -57.7 | -87.9 | 79 | 30 |
| 2010-01-16T01:18 | 23937 | 29 | -57.5 | -87.7 | 79 | 30 |
| 2010-01-16T01:18 | 23981 | 29 | -57.7 | -87.6 | 80 | 29 |
| 2010-01-16T01:18 | 24026 | 29 | -58.0 | -87.7 | 80 | 29 |
| 2010-01-16T01:18 | 24069 | 28 | -58.1 | -87.7 | 81 | 29 |
| 2010-01-16T01:18 | 24114 | 28 | -58.4 | -87.8 | 81 | 29 |
| 2010-01-16T01:18 | 24158 | 28 | -58.6 | -87.9 | 82 | 29 |
| 2010-01-16T01:19 | 24203 | 28 | -58.8 | -88.1 | 83 | 29 |
| 2010-01-16T01:19 | 24253 | 28 | -58.6 | -88.0 | 86 | 29 |
| 2010-01-16T01:19 | 24299 | 27 | -58.3 | -87.9 | 90 | 29 |
| 2010-01-16T01:19 | 24345 | 27 | -58.1 | -87.8 | 94 | 29 |
| 2010-01-16T01:19 | 24391 | 27 | -58.0 | -87.8 | 97 | 29 |
| 2010-01-16T01:19 | 24440 | 27 | -57.8 | -87.7 | 99 | 29 |
| 2010-01-16T01:20 | 24483 | 27 | -57.7 | -87.5 | 100 | 29 |
| 2010-01-16T01:20 | 24532 | 26 | -57.7 | -87.5 | 100 | 30 |
| 2010-01-16T01:20 | 24577 | 26 | -57.7 | -87.4 | 100 | 30 |
| 2010-01-16T01:20 | 24623 | 26 | -57.6 | -87.3 | 100 | 31 |
| 2010-01-16T01:20 | 24668 | 26 | -57.5 | -87.3 | 100 | 31 |
| 2010-01-16T01:20 | 24715 | 26 | -57.6 | -87.3 | 99 | 32 |
| 2010-01-16T01:21 | 24759 | 25 | -57.6 | -87.3 | 97 | 32 |
| 2010-01-16T01:21 | 24804 | 25 | -57.3 | -87.2 | 94 | 32 |
| 2010-01-16T01:21 | 24850 | 25 | -56.8 | -86.9 | 92 | 32 |
| 2010-01-16T01:21 | 24893 | 25 | -56.6 | -86.8 | 91 | 31 |
| 2010-01-16T01:21 | 24938 | 25 | -56.0 | -86.5 | 90 | 30 |
| 2010-01-16T01:21 | 24981 | 25 | -55.8 | -86.3 | 90 | 30 |
| 2010-01-16T01:22 | 25027 | 24 | -55.8 | -86.1 | 90 | 29 |
| 2010-01-16T01:22 | 25073 | 24 | -55.7 | -86.1 | 90 | 29 |
| 2010-01-16T01:22 | 25119 | 24 | -55.5 | -85.9 | 90 | 29 |
| 2010-01-16T01:22 | 25165 | 24 | -55.8 | -86.0 | 89 | 29 |
| 2010-01-16T01:22 | 25212 | 24 | -55.6 | -85.8 | 88 | 29 |
| 2010-01-16T01:22 | 25258 | 23 | -55.5 | -85.8 | 86 | 29 |
| 2010-01-16T01:23 | 25303 | 23 | -55.5 | -85.8 | 85 | 28 |
| 2010-01-16T01:23 | 25350 | 23 | -55.4 | -85.7 | 84 | 28 |
| 2010-01-16T01:23 | 25394 | 23 | -55.3 | -85.6 | 83 | 28 |
| 2010-01-16T01:23 | 25441 | 23 | -55.2 | -85.5 | 82 | 29 |
| 2010-01-16T01:23 | 25484 | 23 | -55.5 | -85.7 | 81 | 29 |
| 2010-01-16T01:23 | 25531 | 22 | -55.8 | -85.8 | 81 | 29 |
| 2010-01-16T01:24 | 25579 | 22 | -56.0 | -85.8 | 81 | 28 |
| 2010-01-16T01:24 | 25626 | 22 | -56.2 | -85.9 | 82 | 28 |
| 2010-01-16T01:24 | 25668 | 22 | -56.1 | -86.0 | 83 | 29 |
| 2010-01-16T01:24 | 25714 | 22 | -56.1 | -85.9 | 84 | 29 |
| 2010-01-16T01:24 | 25760 | 22 | -56.2 | -86.0 | 85 | 29 |
| 2010-01-16T01:24 | 25804 | 22 | -56.0 | -86.0 | 86 | 29 |
| 2010-01-16T01:25 | 25849 | 21 | -56.0 | -85.9 | 86 | 29 |
| 2010-01-16T01:25 | 25895 | 21 | -55.9 | -85.8 | 87 | 30 |
| 2010-01-16T01:25 | 25942 | 21 | -55.8 | -85.8 | 87 | 31 |
| 2010-01-16T01:25 | 25985 | 21 | -55.4 | -85.7 | 87 | 32 |
| 2010-01-16T01:25 | 26030 | 21 | -55.7 | -85.8 | 89 | 33 |
| 2010-01-16T01:25 | 26077 | 21 | -55.9 | -85.8 | 91 | 33 |
| 2010-01-16T01:26 | 26121 | 20 | -55.5 | -85.7 | 94 | 33 |
| 2010-01-16T01:26 | 26167 | 20 | -55.2 | -85.4 | 96 | 33 |
| 2010-01-16T01:26 | 26210 | 20 | -54.7 | -85.2 | 98 | 34 |
| 2010-01-16T01:26 | 26254 | 20 | -54.6 | -85.2 | 100 | 34 |
| 2010-01-16T01:26 | 26297 | 20 | -54.4 | -85.0 | 101 | 34 |
| 2010-01-16T01:26 | 26342 | 20 | -54.8 | -85.0 | 102 | 34 |
| 2010-01-16T01:27 | 26386 | 20 | -54.6 | -85.2 | 103 | 34 |
| 2010-01-16T01:27 | 26429 | 20 | -54.7 | -84.8 | 103 | 34 |
| 2010-01-16T01:27 | 26473 | 19 | -54.4 | -84.8 | 104 | 34 |
| 2010-01-16T01:27 | 26519 | 19 | -54.4 | -84.8 | 104 | 34 |
| 2010-01-16T01:27 | 26559 | 19 | -54.3 | -84.5 | 105 | 34 |
| 2010-01-16T01:27 | 26602 | 19 | -54.2 | -84.7 | 106 | 34 |
| 2010-01-16T01:28 | 26646 | 19 | -54.4 | -84.6 | 106 | 34 |
| 2010-01-16T01:28 | 26688 | 19 | -53.9 | -84.4 | 104 | 36 |
| 2010-01-16T01:28 | 26731 | 19 | -53.5 | -84.3 | 103 | 37 |
| 2010-01-16T01:28 | 26773 | 19 | -53.3 | -84.1 | 102 | 38 |
| 2010-01-16T01:28 | 26816 | 18 | -52.7 | -83.8 | 101 | 38 |
| 2010-01-16T01:28 | 26860 | 18 | -52.1 | -83.5 | 100 | 37 |
| 2010-01-16T01:29 | 26901 | 18 | -51.8 | -83.4 | 99 | 35 |
| 2010-01-16T01:29 | 26947 | 18 | -51.9 | -83.2 | 98 | 35 |
| 2010-01-16T01:29 | 26986 | 18 | -51.6 | -83.2 | 98 | 35 |
| 2010-01-16T01:29 | 27034 | 18 | -51.3 | -83.0 | 98 | 35 |
| 2010-01-16T01:29 | 27080 | 18 | -51.0 | -82.8 | 99 | 35 |
| 2010-01-16T01:29 | 27122 | 18 | -51.0 | -82.6 | 98 | 35 |
| 2010-01-16T01:30 | 27171 | 17 | -50.9 | -82.4 | 98 | 35 |
| 2010-01-16T01:30 | 27216 | 17 | -50.8 | -82.3 | 97 | 34 |
| 2010-01-16T01:30 | 27260 | 17 | -50.9 | -82.4 | 96 | 35 |
| 2010-01-16T01:30 | 27307 | 17 | -50.8 | -82.2 | 96 | 35 |
| 2010-01-16T01:30 | 27354 | 17 | -51.2 | -82.6 | 96 | 35 |
| 2010-01-16T01:30 | 27398 | 17 | -51.2 | -82.6 | 96 | 35 |
| 2010-01-16T01:31 | 27447 | 17 | -51.2 | -82.5 | 96 | 35 |
| 2010-01-16T01:31 | 27491 | 17 | -51.2 | -82.4 | 95 | 35 |
| 2010-01-16T01:31 | 27536 | 16 | -51.2 | -82.4 | 95 | 36 |
| 2010-01-16T01:31 | 27582 | 16 | -51.1 | -82.4 | 94 | 36 |
| 2010-01-16T01:31 | 27628 | 16 | -50.7 | -82.2 | 93 | 36 |
| 2010-01-16T01:31 | 27670 | 16 | -50.2 | -82.2 | 93 | 36 |
| 2010-01-16T01:32 | 27714 | 16 | -50.0 | -82.0 | 93 | 35 |
| 2010-01-16T01:32 | 27759 | 16 | -49.9 | -81.8 | 92 | 35 |
| 2010-01-16T01:32 | 27795 | 16 | -49.9 | -81.8 | 91 | 36 |
| 2010-01-16T01:32 | 27838 | 16 | -49.6 | -81.6 | 90 | 36 |
| 2010-01-16T01:32 | 27881 | 16 | -49.0 | -81.4 | 88 | 36 |
| 2010-01-16T01:32 | 27921 | 16 | -48.1 | -81.0 | 87 | 36 |
| 2010-01-16T01:33 | 27956 | 15 | -47.8 | -80.8 | 86 | 37 |
| 2010-01-16T01:33 | 28003 | 15 | -47.2 | -80.5 | 85 | 37 |
| 2010-01-16T01:33 | 28040 | 15 | -46.8 | -80.2 | 85 | 37 |
| 2010-01-16T01:33 | 28081 | 15 | -46.7 | -80.0 | 85 | 38 |
| 2010-01-16T01:33 | 28123 | 15 | -46.4 | -79.8 | 87 | 38 |
| 2010-01-16T01:33 | 28163 | 15 | -46.4 | -79.7 | 88 | 38 |
| 2010-01-16T01:34 | 28204 | 15 | -46.5 | -79.7 | 89 | 39 |
| 2010-01-16T01:34 | 28247 | 15 | -46.1 | -79.4 | 90 | 39 |
| 2010-01-16T01:34 | 28290 | 15 | -46.2 | -79.5 | 91 | 39 |
| 2010-01-16T01:34 | 28333 | 15 | -46.4 | -79.5 | 91 | 39 |
| 2010-01-16T01:34 | 28373 | 14 | -46.4 | -79.5 | 91 | 39 |
| 2010-01-16T01:34 | 28418 | 14 | -46.5 | -79.4 | 92 | 39 |
| 2010-01-16T11:35 | 4 | 1008 | 27.5 | 25.2 | 320 | 3 |
| 2010-01-16T11:35 | 13 | 1007 | 27.6 | 25.4 | 314 | 3 |
| 2010-01-16T11:35 | 23 | 1006 | 27.8 | 25.4 | 312 | 3 |
| 2010-01-16T11:35 | 31 | 1005 | 27.9 | 25.3 | 312 | 3 |
| 2010-01-16T11:35 | 40 | 1004 | 27.8 | 25.2 | 311 | 4 |
| 2010-01-16T11:35 | 49 | 1003 | 27.8 | 25.1 | 311 | 4 |
| 2010-01-16T11:35 | 58 | 1001 | 27.7 | 25.1 | 310 | 4 |
| 2010-01-16T11:35 | 68 | 1000 | 27.6 | 25.0 | 310 | 4 |
| 2010-01-16T11:35 | 78 | 999 | 27.5 | 24.9 | 309 | 5 |
| 2010-01-16T11:35 | 87 | 998 | 27.4 | 24.9 | 308 | 5 |
| 2010-01-16T11:35 | 96 | 997 | 27.3 | 24.8 | 308 | 5 |
| 2010-01-16T11:35 | 105 | 996 | 27.3 | 24.8 | 308 | 5 |
| 2010-01-16T11:35 | 114 | 995 | 27.2 | 24.8 | 308 | 5 |
| 2010-01-16T11:35 | 125 | 994 | 27.1 | 24.8 | 308 | 5 |
| 2010-01-16T11:35 | 134 | 993 | 27.0 | 24.7 | 309 | 5 |
| 2010-01-16T11:35 | 142 | 992 | 26.9 | 24.7 | 309 | 5 |
| 2010-01-16T11:35 | 153 | 991 | 26.8 | 24.7 | 310 | 5 |
| 2010-01-16T11:35 | 163 | 990 | 26.7 | 24.7 | 311 | 6 |
| 2010-01-16T11:35 | 172 | 989 | 26.7 | 24.7 | 312 | 6 |
| 2010-01-16T11:35 | 180 | 988 | 26.6 | 24.7 | 313 | 6 |
| 2010-01-16T11:35 | 192 | 987 | 26.5 | 24.7 | 315 | 6 |
| 2010-01-16T11:35 | 206 | 985 | 26.4 | 24.6 | 315 | 6 |
| 2010-01-16T11:35 | 217 | 984 | 26.3 | 24.6 | 316 | 6 |
| 2010-01-16T11:35 | 229 | 982 | 26.2 | 24.5 | 316 | 6 |
| 2010-01-16T11:35 | 242 | 981 | 26.1 | 24.5 | 317 | 6 |
| 2010-01-16T11:35 | 254 | 980 | 25.9 | 24.5 | 316 | 6 |
| 2010-01-16T11:35 | 265 | 978 | 25.8 | 24.5 | 316 | 6 |
| 2010-01-16T11:35 | 275 | 977 | 25.7 | 24.4 | 315 | 6 |
| 2010-01-16T11:35 | 284 | 976 | 25.6 | 24.4 | 314 | 6 |
| 2010-01-16T11:35 | 296 | 975 | 25.5 | 24.4 | 313 | 6 |
| 2010-01-16T11:36 | 311 | 973 | 25.4 | 24.3 | 312 | 6 |
| 2010-01-16T11:36 | 324 | 972 | 25.3 | 24.3 | 311 | 6 |
| 2010-01-16T11:36 | 336 | 971 | 25.2 | 24.3 | 310 | 6 |
| 2010-01-16T11:36 | 348 | 969 | 25.1 | 24.3 | 308 | 6 |
| 2010-01-16T11:36 | 357 | 968 | 25.0 | 24.2 | 307 | 6 |
| 2010-01-16T11:36 | 367 | 967 | 24.9 | 24.2 | 306 | 6 |
| 2010-01-16T11:36 | 379 | 966 | 24.8 | 24.1 | 306 | 6 |
| 2010-01-16T11:36 | 390 | 965 | 24.7 | 24.1 | 305 | 6 |
| 2010-01-16T11:36 | 401 | 964 | 24.6 | 24.1 | 305 | 6 |
| 2010-01-16T11:36 | 413 | 962 | 24.5 | 24.1 | 305 | 6 |
| 2010-01-16T11:36 | 424 | 961 | 24.4 | 24.1 | 306 | 6 |
| 2010-01-16T11:36 | 434 | 960 | 24.2 | 24.1 | 306 | 6 |
| 2010-01-16T11:36 | 443 | 959 | 24.1 | 24.1 | 307 | 6 |
| 2010-01-16T11:36 | 453 | 958 | 24.1 | 24.0 | 308 | 6 |
| 2010-01-16T11:36 | 463 | 957 | 24.0 | 24.0 | 309 | 6 |
| 2010-01-16T11:36 | 470 | 956 | 23.9 | 23.9 | 310 | 6 |
| 2010-01-16T11:36 | 479 | 955 | 23.8 | 23.8 | 311 | 6 |
| 2010-01-16T11:36 | 490 | 954 | 23.8 | 23.8 | 312 | 7 |
| 2010-01-16T11:36 | 500 | 953 | 23.8 | 23.5 | 313 | 7 |
| 2010-01-16T11:36 | 509 | 952 | 23.8 | 23.0 | 314 | 7 |
| 2010-01-16T11:36 | 517 | 951 | 23.9 | 22.6 | 315 | 7 |
| 2010-01-16T11:36 | 525 | 950 | 24.0 | 22.2 | 315 | 7 |
| 2010-01-16T11:36 | 536 | 949 | 24.1 | 21.8 | 316 | 7 |
| 2010-01-16T11:36 | 545 | 948 | 24.1 | 21.6 | 317 | 7 |
| 2010-01-16T11:36 | 553 | 947 | 24.0 | 21.5 | 318 | 7 |
| 2010-01-16T11:36 | 561 | 946 | 24.0 | 21.4 | 318 | 7 |
| 2010-01-16T11:36 | 570 | 945 | 23.9 | 21.3 | 318 | 7 |
| 2010-01-16T11:36 | 580 | 944 | 23.8 | 21.3 | 319 | 7 |
| 2010-01-16T11:36 | 589 | 943 | 23.8 | 21.3 | 319 | 7 |
| 2010-01-16T11:36 | 596 | 942 | 23.7 | 21.3 | 319 | 7 |
| 2010-01-16T11:37 | 603 | 942 | 23.6 | 21.2 | 319 | 7 |
| 2010-01-16T11:37 | 611 | 941 | 23.6 | 21.2 | 319 | 7 |
| 2010-01-16T11:37 | 621 | 940 | 23.5 | 21.2 | 318 | 7 |
| 2010-01-16T11:37 | 631 | 939 | 23.4 | 21.4 | 318 | 7 |
| 2010-01-16T11:37 | 641 | 938 | 23.4 | 21.5 | 317 | 7 |
| 2010-01-16T11:37 | 650 | 937 | 23.3 | 21.5 | 317 | 7 |
| 2010-01-16T11:37 | 658 | 936 | 23.3 | 21.5 | 316 | 7 |
| 2010-01-16T11:37 | 666 | 935 | 23.3 | 21.3 | 316 | 8 |
| 2010-01-16T11:37 | 674 | 934 | 23.3 | 21.0 | 315 | 8 |
| 2010-01-16T11:37 | 684 | 933 | 23.3 | 20.7 | 315 | 8 |
| 2010-01-16T11:37 | 694 | 932 | 23.3 | 20.5 | 315 | 8 |
| 2010-01-16T11:37 | 702 | 931 | 23.3 | 20.4 | 314 | 8 |
| 2010-01-16T11:37 | 708 | 930 | 23.3 | 20.2 | 314 | 8 |
| 2010-01-16T11:37 | 715 | 930 | 23.3 | 19.9 | 314 | 8 |
| 2010-01-16T11:37 | 724 | 929 | 23.4 | 19.9 | 314 | 8 |
| 2010-01-16T11:37 | 731 | 928 | 23.4 | 20.0 | 314 | 8 |
| 2010-01-16T11:37 | 739 | 927 | 23.4 | 20.0 | 314 | 8 |
| 2010-01-16T11:37 | 746 | 926 | 23.3 | 20.0 | 314 | 9 |
| 2010-01-16T11:37 | 752 | 926 | 23.3 | 20.0 | 313 | 9 |
| 2010-01-16T11:37 | 759 | 925 | 23.3 | 19.9 | 313 | 9 |
| 2010-01-16T11:37 | 765 | 924 | 23.2 | 19.8 | 312 | 9 |
| 2010-01-16T11:37 | 772 | 924 | 23.2 | 19.9 | 311 | 9 |
| 2010-01-16T11:37 | 779 | 923 | 23.1 | 19.9 | 310 | 9 |
| 2010-01-16T11:37 | 788 | 922 | 23.0 | 20.0 | 310 | 9 |
| 2010-01-16T11:37 | 797 | 921 | 22.9 | 20.0 | 309 | 9 |
| 2010-01-16T11:37 | 807 | 920 | 22.8 | 20.1 | 308 | 9 |
| 2010-01-16T11:37 | 817 | 919 | 22.7 | 20.1 | 308 | 10 |
| 2010-01-16T11:37 | 826 | 918 | 22.6 | 20.1 | 308 | 10 |
| 2010-01-16T11:37 | 837 | 917 | 22.6 | 20.1 | 308 | 10 |
| 2010-01-16T11:37 | 846 | 916 | 22.5 | 20.2 | 308 | 10 |
| 2010-01-16T11:38 | 853 | 915 | 22.5 | 20.2 | 308 | 10 |
| 2010-01-16T11:38 | 859 | 915 | 22.4 | 20.3 | 308 | 10 |
| 2010-01-16T11:38 | 865 | 914 | 22.4 | 20.4 | 308 | 10 |
| 2010-01-16T11:38 | 871 | 913 | 22.3 | 20.4 | 308 | 10 |
| 2010-01-16T11:38 | 878 | 913 | 22.3 | 20.3 | 307 | 10 |
| 2010-01-16T11:38 | 885 | 912 | 22.2 | 20.3 | 307 | 10 |
| 2010-01-16T11:38 | 893 | 911 | 22.2 | 20.3 | 307 | 10 |
| 2010-01-16T11:38 | 902 | 910 | 22.2 | 20.2 | 306 | 10 |
| 2010-01-16T11:38 | 911 | 909 | 22.1 | 20.2 | 306 | 9 |
| 2010-01-16T11:38 | 921 | 908 | 22.1 | 20.0 | 305 | 9 |
| 2010-01-16T11:38 | 930 | 907 | 22.0 | 19.9 | 305 | 9 |
| 2010-01-16T11:38 | 938 | 906 | 22.0 | 19.8 | 304 | 9 |
| 2010-01-16T11:38 | 947 | 905 | 21.9 | 19.8 | 304 | 9 |
| 2010-01-16T11:38 | 956 | 904 | 21.8 | 19.7 | 303 | 9 |
| 2010-01-16T11:38 | 963 | 904 | 21.8 | 19.7 | 303 | 9 |
| 2010-01-16T11:38 | 969 | 903 | 21.8 | 19.7 | 303 | 9 |
| 2010-01-16T11:38 | 975 | 902 | 21.7 | 19.6 | 303 | 9 |
| 2010-01-16T11:38 | 982 | 902 | 21.7 | 19.5 | 303 | 8 |
| 2010-01-16T11:38 | 990 | 901 | 21.6 | 19.5 | 304 | 8 |
| 2010-01-16T11:38 | 998 | 900 | 21.5 | 19.5 | 304 | 8 |
| 2010-01-16T11:38 | 1007 | 899 | 21.5 | 19.4 | 304 | 8 |
| 2010-01-16T11:38 | 1015 | 898 | 21.4 | 19.4 | 304 | 8 |
| 2010-01-16T11:38 | 1023 | 897 | 21.4 | 19.4 | 304 | 8 |
| 2010-01-16T11:38 | 1033 | 896 | 21.4 | 19.3 | 303 | 8 |
| 2010-01-16T11:38 | 1044 | 895 | 21.3 | 19.1 | 303 | 8 |
| 2010-01-16T11:38 | 1054 | 894 | 21.3 | 18.8 | 303 | 8 |
| 2010-01-16T11:38 | 1061 | 894 | 21.3 | 18.6 | 302 | 8 |
| 2010-01-16T11:38 | 1068 | 893 | 21.3 | 18.6 | 302 | 8 |
| 2010-01-16T11:38 | 1074 | 892 | 21.2 | 18.8 | 301 | 9 |
| 2010-01-16T11:38 | 1081 | 892 | 21.2 | 18.9 | 301 | 9 |
| 2010-01-16T11:39 | 1088 | 891 | 21.1 | 19.0 | 300 | 9 |
| 2010-01-16T11:39 | 1097 | 890 | 21.1 | 19.0 | 300 | 9 |
| 2010-01-16T11:39 | 1107 | 889 | 21.0 | 19.0 | 300 | 9 |
| 2010-01-16T11:39 | 1114 | 888 | 20.9 | 19.0 | 300 | 9 |
| 2010-01-16T11:39 | 1122 | 887 | 20.9 | 19.0 | 300 | 9 |
| 2010-01-16T11:39 | 1131 | 886 | 20.8 | 19.0 | 300 | 9 |
| 2010-01-16T11:39 | 1140 | 886 | 20.7 | 18.9 | 301 | 9 |
| 2010-01-16T11:39 | 1150 | 884 | 20.7 | 18.8 | 301 | 9 |
| 2010-01-16T11:39 | 1158 | 884 | 20.6 | 18.7 | 301 | 9 |
| 2010-01-16T11:39 | 1165 | 883 | 20.6 | 18.7 | 302 | 9 |
| 2010-01-16T11:39 | 1173 | 882 | 20.6 | 18.6 | 302 | 9 |
| 2010-01-16T11:39 | 1180 | 881 | 20.5 | 18.5 | 302 | 9 |
| 2010-01-16T11:39 | 1188 | 881 | 20.5 | 18.5 | 302 | 9 |
| 2010-01-16T11:39 | 1195 | 880 | 20.4 | 18.4 | 303 | 9 |
| 2010-01-16T11:39 | 1202 | 879 | 20.4 | 18.4 | 303 | 9 |
| 2010-01-16T11:39 | 1210 | 878 | 20.4 | 18.3 | 303 | 9 |
| 2010-01-16T11:39 | 1217 | 878 | 20.4 | 18.3 | 303 | 9 |
| 2010-01-16T11:39 | 1224 | 877 | 20.3 | 18.3 | 303 | 9 |
| 2010-01-16T11:39 | 1231 | 876 | 20.3 | 18.3 | 303 | 9 |
| 2010-01-16T11:39 | 1238 | 876 | 20.2 | 18.4 | 303 | 9 |
| 2010-01-16T11:39 | 1245 | 875 | 20.1 | 18.3 | 303 | 9 |
| 2010-01-16T11:39 | 1254 | 874 | 20.1 | 18.2 | 303 | 9 |
| 2010-01-16T11:39 | 1263 | 873 | 20.1 | 18.2 | 303 | 9 |
| 2010-01-16T11:39 | 1275 | 872 | 20.0 | 18.1 | 302 | 9 |
| 2010-01-16T11:39 | 1285 | 871 | 20.0 | 18.0 | 301 | 9 |
| 2010-01-16T11:39 | 1293 | 870 | 19.9 | 17.9 | 301 | 9 |
| 2010-01-16T11:39 | 1303 | 869 | 19.9 | 17.8 | 300 | 9 |
| 2010-01-16T11:39 | 1313 | 868 | 19.8 | 17.7 | 298 | 9 |
| 2010-01-16T11:39 | 1323 | 867 | 19.7 | 17.6 | 297 | 9 |
| 2010-01-16T11:39 | 1333 | 866 | 19.6 | 17.5 | 296 | 10 |
| 2010-01-16T11:40 | 1344 | 865 | 19.5 | 17.3 | 295 | 10 |
| 2010-01-16T11:40 | 1353 | 864 | 19.5 | 17.3 | 295 | 10 |
| 2010-01-16T11:40 | 1361 | 863 | 19.4 | 17.3 | 294 | 10 |
| 2010-01-16T11:40 | 1367 | 863 | 19.4 | 17.3 | 293 | 10 |
| 2010-01-16T11:40 | 1373 | 862 | 19.3 | 17.3 | 293 | 10 |
| 2010-01-16T11:40 | 1380 | 861 | 19.3 | 17.4 | 293 | 10 |
| 2010-01-16T11:40 | 1388 | 861 | 19.3 | 17.5 | 293 | 10 |
| 2010-01-16T11:40 | 1396 | 860 | 19.3 | 17.6 | 293 | 10 |
| 2010-01-16T11:40 | 1405 | 859 | 19.3 | 17.6 | 294 | 10 |
| 2010-01-16T11:40 | 1413 | 858 | 19.2 | 17.7 | 294 | 10 |
| 2010-01-16T11:40 | 1421 | 857 | 19.1 | 17.7 | 295 | 10 |
| 2010-01-16T11:40 | 1428 | 857 | 19.1 | 17.7 | 295 | 10 |
| 2010-01-16T11:40 | 1436 | 856 | 19.1 | 17.6 | 296 | 10 |
| 2010-01-16T11:40 | 1445 | 855 | 19.0 | 17.6 | 296 | 10 |
| 2010-01-16T11:40 | 1453 | 854 | 19.0 | 17.6 | 296 | 10 |
| 2010-01-16T11:40 | 1461 | 853 | 19.0 | 17.5 | 297 | 10 |
| 2010-01-16T11:40 | 1468 | 853 | 19.0 | 17.4 | 297 | 10 |
| 2010-01-16T11:40 | 1475 | 852 | 18.9 | 17.3 | 297 | 10 |
| 2010-01-16T11:40 | 1482 | 851 | 18.9 | 17.3 | 298 | 10 |
| 2010-01-16T11:40 | 1490 | 850 | 18.9 | 17.3 | 298 | 10 |
| 2010-01-16T11:40 | 1501 | 849 | 18.8 | 17.2 | 298 | 10 |
| 2010-01-16T11:40 | 1512 | 848 | 18.7 | 17.2 | 298 | 10 |
| 2010-01-16T11:40 | 1522 | 847 | 18.6 | 17.1 | 298 | 10 |
| 2010-01-16T11:40 | 1531 | 846 | 18.5 | 17.1 | 298 | 10 |
| 2010-01-16T11:40 | 1542 | 845 | 18.5 | 17.1 | 298 | 10 |
| 2010-01-16T11:40 | 1556 | 844 | 18.4 | 17.0 | 298 | 10 |
| 2010-01-16T11:40 | 1569 | 843 | 18.4 | 17.0 | 298 | 10 |
| 2010-01-16T11:40 | 1581 | 841 | 18.3 | 16.9 | 297 | 10 |
| 2010-01-16T11:40 | 1591 | 840 | 18.3 | 16.8 | 297 | 10 |
| 2010-01-16T11:40 | 1600 | 840 | 18.3 | 16.7 | 297 | 10 |
| 2010-01-16T11:41 | 1609 | 839 | 18.3 | 16.5 | 297 | 10 |
| 2010-01-16T11:41 | 1618 | 838 | 18.3 | 16.4 | 296 | 10 |
| 2010-01-16T11:41 | 1626 | 837 | 18.3 | 16.2 | 296 | 10 |
| 2010-01-16T11:41 | 1635 | 836 | 18.3 | 16.1 | 296 | 11 |
| 2010-01-16T11:41 | 1644 | 835 | 18.3 | 16.0 | 296 | 11 |
| 2010-01-16T11:41 | 1653 | 834 | 18.3 | 16.0 | 295 | 11 |
| 2010-01-16T11:41 | 1662 | 834 | 18.2 | 15.9 | 295 | 11 |
| 2010-01-16T11:41 | 1670 | 833 | 18.2 | 15.9 | 295 | 11 |
| 2010-01-16T11:41 | 1677 | 832 | 18.1 | 15.8 | 295 | 11 |
| 2010-01-16T11:41 | 1685 | 831 | 18.1 | 15.9 | 295 | 11 |
| 2010-01-16T11:41 | 1694 | 831 | 18.0 | 15.9 | 295 | 12 |
| 2010-01-16T11:41 | 1703 | 830 | 18.0 | 15.8 | 295 | 12 |
| 2010-01-16T11:41 | 1711 | 829 | 18.0 | 15.7 | 295 | 12 |
| 2010-01-16T11:41 | 1719 | 828 | 18.0 | 15.7 | 295 | 12 |
| 2010-01-16T11:41 | 1728 | 827 | 18.0 | 15.6 | 295 | 12 |
| 2010-01-16T11:41 | 1736 | 826 | 17.9 | 15.6 | 295 | 12 |
| 2010-01-16T11:41 | 1742 | 826 | 17.9 | 15.6 | 295 | 12 |
| 2010-01-16T11:41 | 1750 | 825 | 17.9 | 15.5 | 295 | 12 |
| 2010-01-16T11:41 | 1758 | 824 | 17.8 | 15.3 | 294 | 12 |
| 2010-01-16T11:41 | 1766 | 824 | 17.8 | 15.3 | 294 | 11 |
| 2010-01-16T11:41 | 1773 | 823 | 17.8 | 15.2 | 294 | 11 |
| 2010-01-16T11:41 | 1781 | 822 | 17.8 | 15.1 | 294 | 11 |
| 2010-01-16T11:41 | 1789 | 821 | 17.7 | 15.0 | 294 | 11 |
| 2010-01-16T11:41 | 1797 | 821 | 17.7 | 14.8 | 294 | 11 |
| 2010-01-16T11:41 | 1805 | 820 | 17.7 | 14.6 | 294 | 11 |
| 2010-01-16T11:41 | 1812 | 819 | 17.6 | 14.5 | 294 | 11 |
| 2010-01-16T11:41 | 1821 | 818 | 17.6 | 14.5 | 294 | 11 |
| 2010-01-16T11:41 | 1829 | 818 | 17.5 | 14.4 | 294 | 11 |
| 2010-01-16T11:41 | 1838 | 817 | 17.4 | 14.4 | 293 | 11 |
| 2010-01-16T11:41 | 1846 | 816 | 17.4 | 14.3 | 293 | 11 |
| 2010-01-16T11:42 | 1856 | 815 | 17.3 | 14.1 | 293 | 11 |
| 2010-01-16T11:42 | 1866 | 814 | 17.2 | 14.1 | 293 | 11 |
| 2010-01-16T11:42 | 1874 | 813 | 17.1 | 14.1 | 293 | 11 |
| 2010-01-16T11:42 | 1883 | 812 | 17.0 | 14.1 | 293 | 11 |
| 2010-01-16T11:42 | 1891 | 812 | 17.0 | 14.1 | 293 | 11 |
| 2010-01-16T11:42 | 1899 | 811 | 16.9 | 14.1 | 293 | 11 |
| 2010-01-16T11:42 | 1909 | 810 | 16.9 | 14.1 | 293 | 11 |
| 2010-01-16T11:42 | 1918 | 809 | 16.8 | 14.1 | 293 | 11 |
| 2010-01-16T11:42 | 1929 | 808 | 16.8 | 14.1 | 293 | 11 |
| 2010-01-16T11:42 | 1940 | 807 | 16.7 | 14.0 | 293 | 11 |
| 2010-01-16T11:42 | 1952 | 806 | 16.6 | 13.9 | 293 | 10 |
| 2010-01-16T11:42 | 1965 | 805 | 16.5 | 13.8 | 293 | 10 |
| 2010-01-16T11:42 | 1977 | 804 | 16.4 | 13.8 | 293 | 10 |
| 2010-01-16T11:42 | 1988 | 803 | 16.4 | 13.8 | 293 | 10 |
| 2010-01-16T11:42 | 2011 | 800 | 16.1 | 13.7 | 294 | 10 |
| 2010-01-16T11:42 | 2052 | 796 | 15.7 | 13.9 | 297 | 10 |
| 2010-01-16T11:42 | 2100 | 792 | 15.6 | 13.7 | 300 | 10 |
| 2010-01-16T11:43 | 2139 | 788 | 15.5 | 13.2 | 302 | 10 |
| 2010-01-16T11:43 | 2178 | 785 | 15.4 | 12.8 | 302 | 9 |
| 2010-01-16T11:43 | 2221 | 781 | 15.5 | 12.4 | 301 | 9 |
| 2010-01-16T11:43 | 2265 | 777 | 15.6 | 11.3 | 300 | 9 |
| 2010-01-16T11:43 | 2300 | 774 | 15.4 | 10.9 | 303 | 9 |
| 2010-01-16T11:43 | 2338 | 770 | 15.1 | 10.9 | 307 | 8 |
| 2010-01-16T11:44 | 2386 | 766 | 14.7 | 11.3 | 310 | 8 |
| 2010-01-16T11:44 | 2436 | 761 | 14.3 | 11.2 | 308 | 7 |
| 2010-01-16T11:44 | 2473 | 758 | 14.0 | 10.6 | 307 | 7 |
| 2010-01-16T11:44 | 2508 | 755 | 13.7 | 10.7 | 309 | 7 |
| 2010-01-16T11:44 | 2545 | 752 | 13.6 | 10.9 | 313 | 8 |
| 2010-01-16T11:44 | 2581 | 748 | 13.4 | 10.9 | 316 | 8 |
| 2010-01-16T11:45 | 2621 | 745 | 13.3 | 10.3 | 320 | 7 |
| 2010-01-16T11:45 | 2669 | 741 | 13.1 | 10.0 | 330 | 7 |
| 2010-01-16T11:45 | 2710 | 737 | 12.7 | 10.3 | 340 | 7 |
| 2010-01-16T11:45 | 2753 | 733 | 12.8 | 9.9 | 344 | 7 |
| 2010-01-16T11:45 | 2791 | 730 | 12.6 | 9.5 | 344 | 7 |
| 2010-01-16T11:45 | 2827 | 727 | 12.5 | 9.4 | 344 | 7 |
| 2010-01-16T11:46 | 2865 | 724 | 12.4 | 9.0 | 344 | 7 |
| 2010-01-16T11:46 | 2901 | 720 | 12.4 | 9.1 | 346 | 7 |
| 2010-01-16T11:46 | 2937 | 717 | 12.6 | 8.7 | 346 | 7 |
| 2010-01-16T11:46 | 2974 | 714 | 12.5 | 8.4 | 347 | 7 |
| 2010-01-16T11:46 | 3013 | 711 | 12.2 | 8.1 | 348 | 7 |
| 2010-01-16T11:46 | 3061 | 707 | 11.8 | 7.9 | 349 | 7 |
| 2010-01-16T11:47 | 3097 | 704 | 11.5 | 7.8 | 348 | 7 |
| 2010-01-16T11:47 | 3133 | 701 | 11.2 | 7.7 | 349 | 7 |
| 2010-01-16T11:47 | 3168 | 698 | 10.9 | 7.4 | 351 | 7 |
| 2010-01-16T11:47 | 3205 | 695 | 10.9 | 6.9 | 355 | 7 |
| 2010-01-16T11:47 | 3246 | 691 | 10.8 | 6.4 | 358 | 7 |
| 2010-01-16T11:47 | 3284 | 688 | 10.6 | 6.2 | 1 | 8 |
| 2010-01-16T11:48 | 3322 | 685 | 10.3 | 6.1 | 2 | 7 |
| 2010-01-16T11:48 | 3358 | 682 | 10.1 | 5.6 | 359 | 7 |
| 2010-01-16T11:48 | 3416 | 677 | 9.7 | 5.7 | 354 | 7 |
| 2010-01-16T11:48 | 3455 | 674 | 9.3 | 5.6 | 347 | 6 |
| 2010-01-16T11:48 | 3492 | 671 | 9.0 | 6.0 | 342 | 6 |
| 2010-01-16T11:48 | 3530 | 668 | 8.8 | 6.2 | 340 | 6 |
| 2010-01-16T11:49 | 3568 | 665 | 8.6 | 5.9 | 339 | 7 |
| 2010-01-16T11:49 | 3607 | 662 | 8.5 | 5.5 | 339 | 7 |
| 2010-01-16T11:49 | 3642 | 659 | 8.3 | 4.8 | 340 | 7 |
| 2010-01-16T11:49 | 3678 | 656 | 8.1 | 4.1 | 342 | 7 |
| 2010-01-16T11:49 | 3715 | 654 | 7.9 | 3.3 | 343 | 7 |
| 2010-01-16T11:49 | 3752 | 651 | 7.6 | 2.9 | 343 | 7 |
| 2010-01-16T11:50 | 3789 | 648 | 7.5 | 0.3 | 342 | 7 |
| 2010-01-16T11:50 | 3826 | 645 | 7.2 | 1.7 | 340 | 7 |
| 2010-01-16T11:50 | 3861 | 642 | 6.8 | 4.3 | 338 | 7 |
| 2010-01-16T11:50 | 3899 | 639 | 6.5 | 4.6 | 339 | 7 |
| 2010-01-16T11:50 | 3935 | 636 | 6.3 | 4.4 | 341 | 7 |
| 2010-01-16T11:50 | 3976 | 633 | 6.0 | 4.9 | 341 | 7 |
| 2010-01-16T11:51 | 4016 | 630 | 5.9 | 4.7 | 341 | 7 |
| 2010-01-16T11:51 | 4052 | 627 | 6.0 | 4.1 | 341 | 7 |
| 2010-01-16T11:51 | 4089 | 624 | 6.0 | 3.2 | 343 | 7 |
| 2010-01-16T11:51 | 4127 | 622 | 5.8 | 3.2 | 344 | 7 |
| 2010-01-16T11:51 | 4164 | 619 | 5.6 | 3.1 | 343 | 8 |
| 2010-01-16T11:51 | 4202 | 616 | 5.3 | 2.8 | 342 | 8 |
| 2010-01-16T11:52 | 4238 | 613 | 5.0 | 2.7 | 343 | 8 |
| 2010-01-16T11:52 | 4277 | 610 | 4.8 | 2.3 | 345 | 8 |
| 2010-01-16T11:52 | 4315 | 607 | 4.5 | 2.4 | 345 | 7 |
| 2010-01-16T11:52 | 4355 | 605 | 4.2 | 2.3 | 342 | 7 |
| 2010-01-16T11:52 | 4393 | 602 | 3.9 | 2.2 | 340 | 7 |
| 2010-01-16T11:52 | 4433 | 599 | 3.7 | 1.9 | 339 | 7 |
| 2010-01-16T11:53 | 4475 | 596 | 3.3 | 1.6 | 338 | 7 |
| 2010-01-16T11:53 | 4516 | 593 | 3.0 | 1.6 | 337 | 7 |
| 2010-01-16T11:53 | 4558 | 590 | 2.7 | 1.5 | 336 | 7 |
| 2010-01-16T11:53 | 4600 | 587 | 2.3 | 1.3 | 338 | 7 |
| 2010-01-16T11:53 | 4643 | 583 | 2.0 | 1.3 | 342 | 7 |
| 2010-01-16T11:53 | 4683 | 581 | 1.8 | 1.4 | 346 | 8 |
| 2010-01-16T11:54 | 4722 | 578 | 1.5 | 1.0 | 346 | 8 |
| 2010-01-16T11:54 | 4763 | 575 | 1.2 | 1.1 | 343 | 8 |
| 2010-01-16T11:54 | 4804 | 572 | 1.1 | 0.9 | 339 | 7 |
| 2010-01-16T11:54 | 4843 | 569 | 1.1 | 0.7 | 337 | 7 |
| 2010-01-16T11:54 | 4882 | 566 | 0.8 | 0.4 | 336 | 7 |
| 2010-01-16T11:54 | 4921 | 564 | 0.6 | 0.0 | 333 | 7 |
| 2010-01-16T11:55 | 4961 | 561 | 0.3 | 0.1 | 331 | 7 |
| 2010-01-16T11:55 | 5002 | 558 | 0.0 | 0.0 | 329 | 7 |
| 2010-01-16T11:55 | 5042 | 555 | -0.2 | -0.2 | 326 | 7 |
| 2010-01-16T11:55 | 5084 | 552 | -0.4 | -0.4 | 322 | 7 |
| 2010-01-16T11:55 | 5125 | 550 | -0.6 | -0.8 | 317 | 7 |
| 2010-01-16T11:55 | 5162 | 547 | -0.8 | -1.2 | 314 | 7 |
| 2010-01-16T11:56 | 5201 | 544 | -1.0 | -1.3 | 313 | 7 |
| 2010-01-16T11:56 | 5238 | 542 | -1.2 | -1.5 | 315 | 6 |
| 2010-01-16T11:56 | 5276 | 539 | -1.4 | -1.6 | 315 | 6 |
| 2010-01-16T11:56 | 5315 | 537 | -1.6 | -1.8 | 313 | 6 |
| 2010-01-16T11:56 | 5353 | 534 | -2.0 | -2.3 | 309 | 6 |
| 2010-01-16T11:56 | 5391 | 531 | -2.2 | -2.4 | 303 | 6 |
| 2010-01-16T11:57 | 5428 | 529 | -2.4 | -2.5 | 298 | 6 |
| 2010-01-16T11:57 | 5468 | 526 | -2.5 | -2.9 | 293 | 6 |
| 2010-01-16T11:57 | 5506 | 524 | -2.7 | -2.9 | 289 | 6 |
| 2010-01-16T11:57 | 5545 | 521 | -2.8 | -3.1 | 286 | 6 |
| 2010-01-16T11:57 | 5585 | 519 | -2.6 | -3.6 | 284 | 7 |
| 2010-01-16T11:57 | 5623 | 516 | -2.7 | -4.3 | 282 | 8 |
| 2010-01-16T11:58 | 5660 | 514 | -2.8 | -4.4 | 281 | 8 |
| 2010-01-16T11:58 | 5698 | 511 | -3.1 | -4.5 | 282 | 8 |
| 2010-01-16T11:58 | 5735 | 509 | -3.4 | -4.6 | 283 | 8 |
| 2010-01-16T11:58 | 5771 | 507 | -3.7 | -4.9 | 285 | 8 |
| 2010-01-16T11:58 | 5813 | 504 | -3.9 | -5.0 | 287 | 8 |
| 2010-01-16T11:58 | 5854 | 501 | -4.1 | -5.1 | 287 | 8 |
| 2010-01-16T11:59 | 5900 | 498 | -4.4 | -5.3 | 286 | 7 |
| 2010-01-16T11:59 | 5945 | 496 | -4.6 | -5.7 | 289 | 7 |
| 2010-01-16T11:59 | 5989 | 493 | -4.8 | -5.9 | 294 | 6 |
| 2010-01-16T11:59 | 6033 | 490 | -5.1 | -6.4 | 299 | 6 |
| 2010-01-16T11:59 | 6078 | 487 | -5.3 | -6.4 | 302 | 5 |
| 2010-01-16T11:59 | 6122 | 485 | -5.7 | -6.4 | 304 | 5 |
| 2010-01-16T12:00 | 6169 | 482 | -6.0 | -6.5 | 305 | 5 |
| 2010-01-16T12:00 | 6215 | 479 | -6.4 | -6.7 | 305 | 5 |
| 2010-01-16T12:00 | 6263 | 476 | -6.8 | -6.8 | 305 | 5 |
| 2010-01-16T12:00 | 6309 | 473 | -7.0 | -7.0 | 311 | 5 |
| 2010-01-16T12:00 | 6373 | 469 | -7.4 | -7.5 | 315 | 5 |
| 2010-01-16T12:00 | 6430 | 466 | -7.7 | -7.7 | 314 | 4 |
| 2010-01-16T12:01 | 6467 | 464 | -7.9 | -7.9 | 306 | 4 |
| 2010-01-16T12:01 | 6512 | 461 | -8.2 | -8.2 | 301 | 4 |
| 2010-01-16T12:01 | 6561 | 458 | -8.5 | -8.5 | 302 | 4 |
| 2010-01-16T12:01 | 6610 | 455 | -8.9 | -8.9 | 302 | 3 |
| 2010-01-16T12:01 | 6655 | 453 | -8.8 | -9.4 | 297 | 3 |
| 2010-01-16T12:01 | 6697 | 450 | -9.1 | -9.7 | 289 | 2 |
| 2010-01-16T12:02 | 6735 | 448 | -9.5 | -9.9 | 286 | 2 |
| 2010-01-16T12:02 | 6774 | 446 | -9.5 | -9.8 | 285 | 2 |
| 2010-01-16T12:02 | 6811 | 444 | -9.6 | -10.4 | 281 | 2 |
| 2010-01-16T12:02 | 6847 | 442 | -9.6 | -11.7 | 270 | 2 |
| 2010-01-16T12:02 | 6888 | 439 | -9.7 | -12.1 | 260 | 2 |
| 2010-01-16T12:02 | 6925 | 437 | -9.8 | -12.2 | 259 | 2 |
| 2010-01-16T12:03 | 6960 | 435 | -10.0 | -12.2 | 263 | 2 |
| 2010-01-16T12:03 | 6996 | 433 | -10.1 | -12.6 | 265 | 3 |
| 2010-01-16T12:03 | 7034 | 431 | -10.2 | -12.8 | 268 | 3 |
| 2010-01-16T12:03 | 7073 | 429 | -10.5 | -13.3 | 274 | 3 |
| 2010-01-16T12:03 | 7110 | 427 | -10.8 | -13.3 | 280 | 4 |
| 2010-01-16T12:03 | 7148 | 425 | -11.1 | -13.2 | 285 | 4 |
| 2010-01-16T12:04 | 7185 | 423 | -11.4 | -13.2 | 290 | 4 |
| 2010-01-16T12:04 | 7222 | 421 | -11.5 | -13.5 | 295 | 4 |
| 2010-01-16T12:04 | 7262 | 418 | -11.7 | -13.9 | 298 | 4 |
| 2010-01-16T12:04 | 7301 | 416 | -12.0 | -14.2 | 299 | 3 |
| 2010-01-16T12:04 | 7340 | 414 | -12.4 | -14.2 | 297 | 3 |
| 2010-01-16T12:04 | 7378 | 412 | -12.6 | -14.3 | 295 | 3 |
| 2010-01-16T12:05 | 7417 | 410 | -12.7 | -14.6 | 293 | 2 |
| 2010-01-16T12:05 | 7455 | 408 | -13.0 | -14.8 | 286 | 2 |
| 2010-01-16T12:05 | 7497 | 406 | -13.3 | -15.0 | 279 | 3 |
| 2010-01-16T12:05 | 7536 | 404 | -13.5 | -15.6 | 278 | 3 |
| 2010-01-16T12:05 | 7575 | 402 | -13.8 | -15.6 | 281 | 3 |
| 2010-01-16T12:05 | 7615 | 399 | -14.0 | -15.7 | 285 | 3 |
| 2010-01-16T12:06 | 7654 | 397 | -14.3 | -15.8 | 289 | 2 |
| 2010-01-16T12:06 | 7692 | 395 | -14.6 | -16.0 | 290 | 2 |
| 2010-01-16T12:06 | 7732 | 393 | -14.9 | -16.1 | 297 | 1 |
| 2010-01-16T12:06 | 7781 | 391 | -15.0 | -16.5 | 10 | 0 |
| 2010-01-16T12:06 | 7834 | 388 | -15.1 | -17.0 | 62 | 2 |
| 2010-01-16T12:06 | 7878 | 386 | -15.2 | -18.0 | 70 | 2 |
| 2010-01-16T12:07 | 7917 | 384 | -15.5 | -18.4 | 73 | 2 |
| 2010-01-16T12:07 | 7956 | 382 | -15.8 | -18.6 | 71 | 2 |
| 2010-01-16T12:07 | 7998 | 380 | -16.2 | -18.8 | 69 | 2 |
| 2010-01-16T12:07 | 8037 | 378 | -16.6 | -19.1 | 72 | 2 |
| 2010-01-16T12:07 | 8074 | 376 | -16.9 | -19.3 | 76 | 2 |
| 2010-01-16T12:07 | 8113 | 374 | -17.2 | -19.4 | 82 | 2 |
| 2010-01-16T12:08 | 8157 | 372 | -17.5 | -19.6 | 92 | 3 |
| 2010-01-16T12:08 | 8197 | 370 | -17.7 | -20.0 | 100 | 3 |
| 2010-01-16T12:08 | 8241 | 368 | -17.9 | -20.5 | 105 | 4 |
| 2010-01-16T12:08 | 8279 | 366 | -18.0 | -20.9 | 108 | 5 |
| 2010-01-16T12:08 | 8314 | 364 | -17.8 | -21.6 | 108 | 6 |
| 2010-01-16T12:08 | 8351 | 362 | -18.0 | -21.9 | 108 | 6 |
| 2010-01-16T12:09 | 8388 | 360 | -18.3 | -22.3 | 108 | 6 |
| 2010-01-16T12:09 | 8423 | 359 | -18.5 | -22.6 | 107 | 7 |
| 2010-01-16T12:09 | 8459 | 357 | -18.7 | -23.3 | 106 | 7 |
| 2010-01-16T12:09 | 8496 | 355 | -19.0 | -23.7 | 107 | 7 |
| 2010-01-16T12:09 | 8534 | 353 | -19.3 | -23.8 | 110 | 6 |
| 2010-01-16T12:09 | 8570 | 352 | -19.6 | -23.5 | 114 | 6 |
| 2010-01-16T12:10 | 8606 | 350 | -19.8 | -24.1 | 115 | 6 |
| 2010-01-16T12:10 | 8642 | 348 | -20.0 | -24.0 | 116 | 6 |
| 2010-01-16T12:10 | 8678 | 347 | -20.2 | -24.0 | 117 | 6 |
| 2010-01-16T12:10 | 8715 | 345 | -20.3 | -25.0 | 120 | 6 |
| 2010-01-16T12:10 | 8753 | 343 | -20.6 | -25.5 | 124 | 5 |
| 2010-01-16T12:10 | 8790 | 342 | -20.9 | -25.8 | 126 | 5 |
| 2010-01-16T12:11 | 8827 | 340 | -21.3 | -26.0 | 124 | 5 |
| 2010-01-16T12:11 | 8867 | 338 | -21.5 | -26.2 | 120 | 6 |
| 2010-01-16T12:11 | 8907 | 336 | -21.8 | -26.3 | 117 | 6 |
| 2010-01-16T12:11 | 8949 | 334 | -22.3 | -26.4 | 116 | 6 |
| 2010-01-16T12:11 | 8989 | 332 | -22.7 | -26.5 | 117 | 6 |
| 2010-01-16T12:11 | 9027 | 331 | -22.9 | -27.1 | 119 | 6 |
| 2010-01-16T12:12 | 9066 | 329 | -23.2 | -27.9 | 121 | 6 |
| 2010-01-16T12:12 | 9103 | 327 | -23.4 | -28.8 | 121 | 6 |
| 2010-01-16T12:12 | 9141 | 326 | -23.7 | -28.7 | 121 | 6 |
| 2010-01-16T12:12 | 9179 | 324 | -24.0 | -29.3 | 123 | 6 |
| 2010-01-16T12:12 | 9217 | 322 | -24.2 | -29.1 | 125 | 6 |
| 2010-01-16T12:12 | 9256 | 320 | -24.4 | -30.7 | 128 | 6 |
| 2010-01-16T12:13 | 9293 | 319 | -24.6 | -31.9 | 131 | 6 |
| 2010-01-16T12:13 | 9330 | 317 | -24.9 | -32.8 | 134 | 6 |
| 2010-01-16T12:13 | 9369 | 316 | -25.2 | -33.0 | 137 | 6 |
| 2010-01-16T12:13 | 9406 | 314 | -25.4 | -34.5 | 141 | 6 |
| 2010-01-16T12:13 | 9446 | 312 | -25.6 | -36.3 | 146 | 5 |
| 2010-01-16T12:13 | 9484 | 311 | -25.9 | -36.8 | 150 | 5 |
| 2010-01-16T12:14 | 9523 | 309 | -26.3 | -36.7 | 152 | 5 |
| 2010-01-16T12:14 | 9562 | 307 | -26.6 | -38.5 | 155 | 5 |
| 2010-01-16T12:14 | 9601 | 306 | -26.8 | -41.2 | 157 | 5 |
| 2010-01-16T12:14 | 9640 | 304 | -27.1 | -43.2 | 159 | 6 |
| 2010-01-16T12:14 | 9678 | 302 | -27.4 | -42.8 | 158 | 6 |
| 2010-01-16T12:14 | 9716 | 301 | -27.7 | -41.6 | 156 | 6 |
| 2010-01-16T12:15 | 9756 | 299 | -28.0 | -40.1 | 156 | 6 |
| 2010-01-16T12:15 | 9797 | 297 | -28.4 | -39.6 | 156 | 6 |
| 2010-01-16T12:15 | 9839 | 296 | -28.8 | -39.6 | 155 | 6 |
| 2010-01-16T12:15 | 9883 | 294 | -29.3 | -39.6 | 155 | 6 |
| 2010-01-16T12:15 | 9926 | 292 | -29.7 | -39.5 | 157 | 6 |
| 2010-01-16T12:15 | 9972 | 290 | -30.1 | -39.6 | 158 | 6 |
| 2010-01-16T12:16 | 10014 | 288 | -30.5 | -39.3 | 158 | 6 |
| 2010-01-16T12:16 | 10057 | 287 | -31.0 | -39.0 | 157 | 6 |
| 2010-01-16T12:16 | 10102 | 285 | -31.4 | -39.0 | 153 | 6 |
| 2010-01-16T12:16 | 10155 | 283 | -31.9 | -39.3 | 150 | 6 |
| 2010-01-16T12:16 | 10206 | 281 | -32.4 | -39.3 | 147 | 6 |
| 2010-01-16T12:16 | 10249 | 279 | -32.8 | -39.3 | 147 | 6 |
| 2010-01-16T12:17 | 10294 | 277 | -33.3 | -39.3 | 147 | 6 |
| 2010-01-16T12:17 | 10338 | 276 | -33.7 | -39.6 | 145 | 6 |
| 2010-01-16T12:17 | 10388 | 274 | -34.2 | -39.5 | 140 | 6 |
| 2010-01-16T12:17 | 10433 | 272 | -34.6 | -38.6 | 138 | 6 |
| 2010-01-16T12:17 | 10480 | 270 | -35.1 | -38.5 | 140 | 6 |
| 2010-01-16T12:17 | 10519 | 268 | -35.4 | -38.2 | 143 | 6 |
| 2010-01-16T12:18 | 10561 | 267 | -35.8 | -38.2 | 145 | 5 |
| 2010-01-16T12:18 | 10605 | 265 | -36.2 | -38.3 | 148 | 5 |
| 2010-01-16T12:18 | 10650 | 263 | -36.5 | -38.7 | 151 | 5 |
| 2010-01-16T12:18 | 10692 | 262 | -36.9 | -38.7 | 153 | 4 |
| 2010-01-16T12:18 | 10730 | 260 | -37.3 | -38.8 | 154 | 4 |
| 2010-01-16T12:18 | 10770 | 259 | -37.5 | -39.5 | 156 | 4 |
| 2010-01-16T12:19 | 10811 | 257 | -37.9 | -40.1 | 157 | 4 |
| 2010-01-16T12:19 | 10850 | 256 | -38.3 | -40.3 | 158 | 3 |
| 2010-01-16T12:19 | 10890 | 254 | -38.7 | -40.4 | 158 | 3 |
| 2010-01-16T12:19 | 10931 | 253 | -39.0 | -40.8 | 156 | 3 |
| 2010-01-16T12:19 | 10971 | 251 | -39.4 | -41.0 | 151 | 3 |
| 2010-01-16T12:19 | 11011 | 250 | -39.5 | -42.0 | 143 | 3 |
| 2010-01-16T12:20 | 11051 | 249 | -39.6 | -44.6 | 138 | 2 |
| 2010-01-16T12:20 | 11091 | 247 | -39.8 | -46.8 | 133 | 2 |
| 2010-01-16T12:20 | 11131 | 246 | -40.1 | -48.2 | 129 | 2 |
| 2010-01-16T12:20 | 11170 | 244 | -40.5 | -48.8 | 130 | 2 |
| 2010-01-16T12:20 | 11209 | 243 | -40.8 | -49.4 | 134 | 2 |
| 2010-01-16T12:20 | 11247 | 241 | -41.0 | -50.3 | 140 | 1 |
| 2010-01-16T12:21 | 11286 | 240 | -41.3 | -51.1 | 144 | 1 |
| 2010-01-16T12:21 | 11327 | 239 | -41.7 | -51.2 | 147 | 1 |
| 2010-01-16T12:21 | 11367 | 237 | -42.0 | -51.7 | 148 | 1 |
| 2010-01-16T12:21 | 11406 | 236 | -42.4 | -52.2 | 149 | 1 |
| 2010-01-16T12:21 | 11445 | 235 | -42.8 | -52.6 | 152 | 1 |
| 2010-01-16T12:21 | 11484 | 233 | -43.1 | -52.7 | 160 | 1 |
| 2010-01-16T12:22 | 11524 | 232 | -43.4 | -52.3 | 168 | 1 |
| 2010-01-16T12:22 | 11563 | 230 | -43.8 | -52.4 | 174 | 1 |
| 2010-01-16T12:22 | 11601 | 229 | -44.0 | -52.7 | 178 | 1 |
| 2010-01-16T12:22 | 11639 | 228 | -44.3 | -53.7 | 177 | 1 |
| 2010-01-16T12:22 | 11675 | 227 | -44.5 | -54.9 | 169 | 1 |
| 2010-01-16T12:22 | 11715 | 225 | -44.7 | -56.7 | 160 | 2 |
| 2010-01-16T12:23 | 11754 | 224 | -45.0 | -58.7 | 155 | 2 |
| 2010-01-16T12:23 | 11792 | 223 | -45.4 | -59.6 | 152 | 2 |
| 2010-01-16T12:23 | 11831 | 221 | -45.7 | -60.0 | 142 | 2 |
| 2010-01-16T12:23 | 11871 | 220 | -46.1 | -60.2 | 128 | 2 |
| 2010-01-16T12:23 | 11913 | 219 | -46.5 | -60.3 | 114 | 2 |
| 2010-01-16T12:23 | 11961 | 217 | -46.8 | -60.8 | 103 | 2 |
| 2010-01-16T12:24 | 12002 | 216 | -47.2 | -61.3 | 95 | 2 |
| 2010-01-16T12:24 | 12054 | 214 | -47.7 | -61.6 | 88 | 3 |
| 2010-01-16T12:24 | 12099 | 213 | -48.1 | -61.8 | 86 | 3 |
| 2010-01-16T12:24 | 12146 | 211 | -48.5 | -61.9 | 91 | 5 |
| 2010-01-16T12:24 | 12210 | 209 | -49.1 | -62.1 | 96 | 6 |
| 2010-01-16T12:24 | 12259 | 207 | -49.6 | -62.2 | 97 | 6 |
| 2010-01-16T12:25 | 12305 | 206 | -50.0 | -62.3 | 97 | 7 |
| 2010-01-16T12:25 | 12351 | 205 | -50.5 | -62.3 | 97 | 7 |
| 2010-01-16T12:25 | 12399 | 203 | -50.9 | -62.3 | 97 | 7 |
| 2010-01-16T12:25 | 12439 | 202 | -51.3 | -62.2 | 96 | 7 |
| 2010-01-16T12:25 | 12483 | 200 | -51.7 | -62.2 | 96 | 7 |
| 2010-01-16T12:25 | 12526 | 199 | -52.2 | -62.2 | 95 | 8 |
| 2010-01-16T12:26 | 12565 | 198 | -52.5 | -62.0 | 94 | 8 |
| 2010-01-16T12:26 | 12606 | 197 | -52.9 | -61.5 | 94 | 8 |
| 2010-01-16T12:26 | 12648 | 195 | -53.3 | -60.7 | 94 | 9 |
| 2010-01-16T12:26 | 12687 | 194 | -53.7 | -60.0 | 94 | 9 |
| 2010-01-16T12:26 | 12727 | 193 | -54.0 | -59.7 | 96 | 10 |
| 2010-01-16T12:26 | 12766 | 192 | -54.4 | -59.7 | 97 | 10 |
| 2010-01-16T12:27 | 12812 | 190 | -54.7 | -60.0 | 98 | 10 |
| 2010-01-16T12:27 | 12855 | 189 | -55.1 | -60.4 | 99 | 11 |
| 2010-01-16T12:27 | 12895 | 188 | -55.5 | -60.7 | 101 | 11 |
| 2010-01-16T12:27 | 12940 | 187 | -55.9 | -60.9 | 104 | 12 |
| 2010-01-16T12:27 | 12986 | 185 | -56.3 | -61.3 | 107 | 12 |
| 2010-01-16T12:27 | 13030 | 184 | -56.6 | -61.8 | 110 | 12 |
| 2010-01-16T12:28 | 13071 | 183 | -57.0 | -62.3 | 112 | 12 |
| 2010-01-16T12:28 | 13111 | 182 | -57.3 | -62.7 | 113 | 11 |
| 2010-01-16T12:28 | 13152 | 181 | -57.7 | -63.2 | 114 | 11 |
| 2010-01-16T12:28 | 13194 | 179 | -58.0 | -63.8 | 114 | 12 |
| 2010-01-16T12:28 | 13233 | 178 | -58.4 | -64.4 | 113 | 12 |
| 2010-01-16T12:28 | 13274 | 177 | -58.7 | -65.0 | 112 | 13 |
| 2010-01-16T12:29 | 13316 | 176 | -59.1 | -65.7 | 111 | 13 |
| 2010-01-16T12:29 | 13358 | 175 | -59.5 | -66.3 | 110 | 13 |
| 2010-01-16T12:29 | 13401 | 174 | -59.9 | -66.9 | 110 | 13 |
| 2010-01-16T12:29 | 13444 | 172 | -60.2 | -67.4 | 111 | 14 |
| 2010-01-16T12:29 | 13485 | 171 | -60.6 | -67.9 | 112 | 14 |
| 2010-01-16T12:29 | 13525 | 170 | -61.0 | -68.6 | 111 | 14 |
| 2010-01-16T12:30 | 13569 | 169 | -61.3 | -69.3 | 110 | 14 |
| 2010-01-16T12:30 | 13614 | 168 | -61.8 | -69.8 | 109 | 14 |
| 2010-01-16T12:30 | 13658 | 167 | -62.2 | -70.0 | 109 | 14 |
| 2010-01-16T12:30 | 13701 | 165 | -62.6 | -70.3 | 109 | 13 |
| 2010-01-16T12:30 | 13742 | 164 | -63.0 | -70.4 | 108 | 13 |
| 2010-01-16T12:30 | 13783 | 163 | -63.4 | -70.6 | 107 | 13 |
| 2010-01-16T12:31 | 13822 | 162 | -63.8 | -70.7 | 106 | 13 |
| 2010-01-16T12:31 | 13861 | 161 | -64.1 | -71.0 | 106 | 13 |
| 2010-01-16T12:31 | 13900 | 160 | -64.5 | -71.2 | 107 | 13 |
| 2010-01-16T12:31 | 13940 | 159 | -64.9 | -71.3 | 107 | 13 |
| 2010-01-16T12:31 | 13984 | 158 | -65.3 | -71.5 | 107 | 14 |
| 2010-01-16T12:31 | 14026 | 157 | -65.7 | -71.7 | 106 | 14 |
| 2010-01-16T12:32 | 14067 | 156 | -66.0 | -71.8 | 106 | 15 |
| 2010-01-16T12:32 | 14107 | 155 | -66.3 | -72.1 | 106 | 15 |
| 2010-01-16T12:32 | 14147 | 154 | -66.7 | -72.4 | 106 | 16 |
| 2010-01-16T12:32 | 14189 | 153 | -67.0 | -72.7 | 105 | 17 |
| 2010-01-16T12:32 | 14229 | 152 | -67.3 | -73.1 | 104 | 17 |
| 2010-01-16T12:32 | 14269 | 151 | -67.7 | -73.5 | 104 | 17 |
| 2010-01-16T12:33 | 14310 | 150 | -68.1 | -73.9 | 104 | 17 |
| 2010-01-16T12:33 | 14352 | 149 | -68.5 | -74.3 | 104 | 18 |
| 2010-01-16T12:33 | 14393 | 148 | -68.9 | -74.7 | 103 | 18 |
| 2010-01-16T12:33 | 14440 | 146 | -69.3 | -75.2 | 103 | 19 |
| 2010-01-16T12:33 | 14484 | 145 | -69.6 | -75.5 | 102 | 19 |
| 2010-01-16T12:33 | 14526 | 144 | -69.8 | -75.8 | 102 | 20 |
| 2010-01-16T12:34 | 14569 | 143 | -70.2 | -76.3 | 102 | 21 |
| 2010-01-16T12:34 | 14611 | 142 | -70.6 | -76.7 | 101 | 21 |
| 2010-01-16T12:34 | 14655 | 141 | -70.9 | -77.1 | 101 | 22 |
| 2010-01-16T12:34 | 14698 | 140 | -71.3 | -77.5 | 101 | 22 |
| 2010-01-16T12:34 | 14738 | 139 | -71.6 | -78.0 | 101 | 23 |
| 2010-01-16T12:34 | 14781 | 138 | -72.0 | -78.4 | 102 | 23 |
| 2010-01-16T12:35 | 14824 | 137 | -72.4 | -78.9 | 103 | 22 |
| 2010-01-16T12:35 | 14868 | 136 | -72.8 | -79.4 | 104 | 22 |
| 2010-01-16T12:35 | 14910 | 135 | -73.1 | -79.9 | 104 | 22 |
| 2010-01-16T12:35 | 14953 | 134 | -73.3 | -80.3 | 102 | 22 |
| 2010-01-16T12:35 | 14997 | 133 | -73.7 | -80.8 | 99 | 23 |
| 2010-01-16T12:35 | 15041 | 132 | -73.8 | -81.1 | 94 | 23 |
| 2010-01-16T12:36 | 15085 | 131 | -73.7 | -81.0 | 91 | 24 |
| 2010-01-16T12:36 | 15129 | 130 | -73.8 | -81.3 | 89 | 24 |
| 2010-01-16T12:36 | 15173 | 129 | -74.1 | -81.7 | 88 | 25 |
| 2010-01-16T12:36 | 15216 | 128 | -74.4 | -82.1 | 86 | 25 |
| 2010-01-16T12:36 | 15259 | 127 | -74.7 | -82.4 | 85 | 25 |
| 2010-01-16T12:36 | 15307 | 126 | -75.1 | -82.8 | 84 | 26 |
| 2010-01-16T12:37 | 15355 | 125 | -75.5 | -83.3 | 83 | 26 |
| 2010-01-16T12:37 | 15401 | 124 | -75.9 | -83.7 | 82 | 26 |
| 2010-01-16T12:37 | 15446 | 123 | -76.2 | -83.9 | 81 | 27 |
| 2010-01-16T12:37 | 15488 | 122 | -76.5 | -84.2 | 81 | 27 |
| 2010-01-16T12:37 | 15530 | 122 | -76.9 | -84.4 | 81 | 27 |
| 2010-01-16T12:37 | 15571 | 121 | -77.3 | -84.7 | 80 | 28 |
| 2010-01-16T12:38 | 15610 | 120 | -77.6 | -85.0 | 80 | 28 |
| 2010-01-16T12:38 | 15651 | 119 | -78.0 | -85.2 | 80 | 28 |
| 2010-01-16T12:38 | 15693 | 118 | -78.4 | -85.5 | 79 | 28 |
| 2010-01-16T12:38 | 15736 | 117 | -78.7 | -85.7 | 78 | 29 |
| 2010-01-16T12:38 | 15778 | 116 | -79.1 | -85.9 | 77 | 30 |
| 2010-01-16T12:38 | 15817 | 116 | -79.2 | -86.1 | 76 | 31 |
| 2010-01-16T12:39 | 15855 | 115 | -79.2 | -86.0 | 76 | 31 |
| 2010-01-16T12:39 | 15893 | 114 | -79.6 | -86.2 | 77 | 31 |
| 2010-01-16T12:39 | 15931 | 113 | -79.5 | -86.2 | 78 | 31 |
| 2010-01-16T12:39 | 15972 | 112 | -79.6 | -86.3 | 79 | 32 |
| 2010-01-16T12:39 | 16010 | 112 | -79.8 | -86.4 | 79 | 32 |
| 2010-01-16T12:39 | 16050 | 111 | -80.2 | -86.7 | 78 | 32 |
| 2010-01-16T12:40 | 16091 | 110 | -80.6 | -87.0 | 78 | 33 |
| 2010-01-16T12:40 | 16131 | 109 | -80.9 | -87.3 | 78 | 34 |
| 2010-01-16T12:40 | 16171 | 109 | -80.9 | -87.3 | 78 | 34 |
| 2010-01-16T12:40 | 16211 | 108 | -81.2 | -87.6 | 77 | 34 |
| 2010-01-16T12:40 | 16252 | 107 | -81.6 | -88.0 | 77 | 34 |
| 2010-01-16T12:40 | 16293 | 106 | -82.0 | -88.3 | 78 | 34 |
| 2010-01-16T12:41 | 16336 | 105 | -82.4 | -88.7 | 78 | 34 |
| 2010-01-16T12:41 | 16378 | 105 | -82.7 | -88.9 | 79 | 33 |
| 2010-01-16T12:41 | 16419 | 104 | -83.0 | -89.2 | 80 | 33 |
| 2010-01-16T12:41 | 16462 | 103 | -83.1 | -89.3 | 80 | 32 |
| 2010-01-16T12:41 | 16504 | 102 | -83.0 | -89.2 | 80 | 31 |
| 2010-01-16T12:41 | 16550 | 101 | -82.3 | -88.6 | 81 | 28 |
| 2010-01-16T12:42 | 16596 | 101 | -81.4 | -87.8 | 82 | 25 |
| 2010-01-16T12:42 | 16634 | 100 | -81.2 | -87.6 | 81 | 23 |
| 2010-01-16T12:42 | 16675 | 99 | -80.9 | -87.4 | 80 | 22 |
| 2010-01-16T12:42 | 16717 | 98 | -80.7 | -87.3 | 78 | 20 |
| 2010-01-16T12:42 | 16760 | 98 | -80.6 | -87.2 | 76 | 18 |
| 2010-01-16T12:42 | 16802 | 97 | -80.5 | -87.3 | 74 | 17 |
| 2010-01-16T12:43 | 16843 | 96 | -80.6 | -87.4 | 72 | 16 |
| 2010-01-16T12:43 | 16885 | 96 | -80.6 | -87.5 | 71 | 14 |
| 2010-01-16T12:43 | 16929 | 95 | -80.7 | -87.7 | 70 | 12 |
| 2010-01-16T12:43 | 16971 | 94 | -80.8 | -87.9 | 69 | 11 |
| 2010-01-16T12:43 | 17010 | 93 | -81.1 | -88.1 | 69 | 9 |
| 2010-01-16T12:43 | 17049 | 93 | -80.9 | -88.1 | 67 | 7 |
| 2010-01-16T12:44 | 17089 | 92 | -80.8 | -88.0 | 65 | 6 |
| 2010-01-16T12:44 | 17129 | 92 | -80.5 | -87.8 | 60 | 4 |
| 2010-01-16T12:44 | 17168 | 91 | -80.3 | -87.7 | 48 | 2 |
| 2010-01-16T12:44 | 17209 | 90 | -80.2 | -87.6 | 19 | 1 |
| 2010-01-16T12:44 | 17249 | 90 | -80.1 | -87.6 | 309 | 1 |
| 2010-01-16T12:44 | 17289 | 89 | -80.3 | -87.8 | 273 | 1 |
| 2010-01-16T12:45 | 17328 | 88 | -80.3 | -87.9 | 259 | 2 |
| 2010-01-16T12:45 | 17370 | 88 | -80.6 | -88.2 | 251 | 3 |
| 2010-01-16T12:45 | 17409 | 87 | -80.7 | -88.4 | 245 | 4 |
| 2010-01-16T12:45 | 17451 | 86 | -81.0 | -88.7 | 240 | 5 |
| 2010-01-16T12:45 | 17493 | 86 | -80.6 | -88.4 | 236 | 6 |
| 2010-01-16T12:45 | 17534 | 85 | -80.8 | -88.6 | 234 | 6 |
| 2010-01-16T12:46 | 17574 | 85 | -81.1 | -88.9 | 232 | 6 |
| 2010-01-16T12:46 | 17615 | 84 | -81.3 | -89.1 | 230 | 6 |
| 2010-01-16T12:46 | 17656 | 83 | -80.4 | -88.4 | 227 | 6 |
| 2010-01-16T12:46 | 17698 | 83 | -80.3 | -88.3 | 226 | 5 |
| 2010-01-16T12:46 | 17742 | 82 | -80.1 | -88.2 | 229 | 5 |
| 2010-01-16T12:46 | 17783 | 81 | -80.2 | -88.3 | 243 | 5 |
| 2010-01-16T12:47 | 17826 | 81 | -79.5 | -87.7 | 261 | 6 |
| 2010-01-16T12:47 | 17870 | 80 | -78.8 | -87.2 | 271 | 8 |
| 2010-01-16T12:47 | 17912 | 80 | -78.5 | -86.9 | 275 | 10 |
| 2010-01-16T12:47 | 17954 | 79 | -78.6 | -87.0 | 276 | 11 |
| 2010-01-16T12:47 | 17996 | 78 | -78.8 | -87.3 | 275 | 12 |
| 2010-01-16T12:47 | 18038 | 78 | -79.1 | -87.6 | 274 | 13 |
| 2010-01-16T12:48 | 18081 | 77 | -79.2 | -87.7 | 273 | 14 |
| 2010-01-16T12:48 | 18124 | 77 | -79.5 | -88.1 | 272 | 15 |
| 2010-01-16T12:48 | 18167 | 76 | -79.8 | -88.5 | 272 | 14 |
| 2010-01-16T12:48 | 18212 | 76 | -79.6 | -88.3 | 273 | 14 |
| 2010-01-16T12:48 | 18255 | 75 | -79.3 | -88.1 | 276 | 13 |
| 2010-01-16T12:48 | 18296 | 74 | -79.3 | -88.2 | 277 | 13 |
| 2010-01-16T12:49 | 18338 | 74 | -79.1 | -88.0 | 275 | 12 |
| 2010-01-16T12:49 | 18381 | 73 | -79.1 | -88.1 | 271 | 12 |
| 2010-01-16T12:49 | 18423 | 73 | -79.1 | -88.2 | 268 | 12 |
| 2010-01-16T12:49 | 18467 | 72 | -79.0 | -88.1 | 265 | 11 |
| 2010-01-16T12:49 | 18509 | 72 | -79.0 | -88.1 | 263 | 10 |
| 2010-01-16T12:49 | 18551 | 71 | -78.8 | -88.0 | 262 | 10 |
| 2010-01-16T12:50 | 18592 | 71 | -78.3 | -87.7 | 260 | 9 |
| 2010-01-16T12:50 | 18632 | 70 | -78.2 | -87.6 | 256 | 9 |
| 2010-01-16T12:50 | 18674 | 70 | -78.4 | -87.8 | 250 | 9 |
| 2010-01-16T12:50 | 18714 | 69 | -78.1 | -87.6 | 243 | 10 |
| 2010-01-16T12:50 | 18755 | 69 | -77.9 | -87.5 | 240 | 10 |
| 2010-01-16T12:50 | 18797 | 68 | -77.9 | -87.6 | 238 | 10 |
| 2010-01-16T12:51 | 18835 | 68 | -77.7 | -87.5 | 236 | 10 |
| 2010-01-16T12:51 | 18877 | 67 | -77.5 | -87.4 | 234 | 11 |
| 2010-01-16T12:51 | 18919 | 67 | -77.5 | -87.4 | 234 | 11 |
| 2010-01-16T12:51 | 18963 | 66 | -77.7 | -87.7 | 236 | 11 |
| 2010-01-16T12:51 | 19007 | 66 | -77.9 | -87.9 | 238 | 10 |
| 2010-01-16T12:51 | 19050 | 65 | -77.1 | -87.3 | 241 | 8 |
| 2010-01-16T12:52 | 19096 | 65 | -77.0 | -87.3 | 244 | 8 |
| 2010-01-16T12:52 | 19140 | 64 | -77.0 | -87.3 | 249 | 8 |
| 2010-01-16T12:52 | 19184 | 64 | -77.0 | -87.4 | 256 | 8 |
| 2010-01-16T12:52 | 19227 | 63 | -76.8 | -87.3 | 263 | 8 |
| 2010-01-16T12:52 | 19272 | 63 | -76.5 | -87.1 | 272 | 8 |
| 2010-01-16T12:52 | 19317 | 62 | -76.4 | -87.1 | 279 | 9 |
| 2010-01-16T12:53 | 19363 | 62 | -76.1 | -86.9 | 283 | 10 |
| 2010-01-16T12:53 | 19409 | 61 | -76.4 | -87.2 | 285 | 10 |
| 2010-01-16T12:53 | 19454 | 61 | -76.6 | -87.5 | 284 | 10 |
| 2010-01-16T12:53 | 19497 | 60 | -75.8 | -86.9 | 279 | 10 |
| 2010-01-16T12:53 | 19541 | 60 | -75.2 | -86.5 | 275 | 10 |
| 2010-01-16T12:53 | 19586 | 59 | -73.8 | -85.4 | 273 | 10 |
| 2010-01-16T12:54 | 19629 | 59 | -73.1 | -84.9 | 274 | 10 |
| 2010-01-16T12:54 | 19673 | 59 | -73.1 | -85.0 | 275 | 10 |
| 2010-01-16T12:54 | 19715 | 58 | -72.6 | -84.8 | 276 | 10 |
| 2010-01-16T12:54 | 19759 | 58 | -71.2 | -83.9 | 276 | 11 |
| 2010-01-16T12:54 | 19802 | 57 | -71.2 | -84.0 | 273 | 12 |
| 2010-01-16T12:54 | 19845 | 57 | -71.3 | -84.3 | 269 | 12 |
| 2010-01-16T12:55 | 19889 | 56 | -71.4 | -84.7 | 265 | 12 |
| 2010-01-16T12:55 | 19933 | 56 | -71.6 | -85.1 | 264 | 12 |
| 2010-01-16T12:55 | 19977 | 56 | -71.8 | -85.6 | 263 | 12 |
| 2010-01-16T12:55 | 20021 | 55 | -72.0 | -85.9 | 262 | 12 |
| 2010-01-16T12:55 | 20066 | 55 | -72.3 | -86.4 | 260 | 12 |
| 2010-01-16T12:55 | 20110 | 54 | -72.6 | -86.8 | 259 | 11 |
| 2010-01-16T12:56 | 20155 | 54 | -72.8 | -87.2 | 258 | 11 |
| 2010-01-16T12:56 | 20198 | 54 | -72.8 | -87.4 | 258 | 11 |
| 2010-01-16T12:56 | 20242 | 53 | -72.5 | -87.3 | 260 | 11 |
| 2010-01-16T12:56 | 20285 | 53 | -72.8 | -87.6 | 263 | 11 |
| 2010-01-16T12:56 | 20330 | 52 | -72.8 | -87.8 | 267 | 10 |
| 2010-01-16T12:56 | 20377 | 52 | -72.8 | -88.0 | 270 | 9 |
| 2010-01-16T12:57 | 20420 | 52 | -72.3 | -87.7 | 271 | 7 |
| 2010-01-16T12:57 | 20464 | 51 | -71.8 | -87.4 | 273 | 5 |
| 2010-01-16T12:57 | 20509 | 51 | -70.6 | -86.7 | 283 | 4 |
| 2010-01-16T12:57 | 20554 | 50 | -70.4 | -86.6 | 299 | 5 |
| 2010-01-16T12:57 | 20600 | 50 | -70.2 | -86.7 | 309 | 6 |
| 2010-01-16T12:57 | 20647 | 50 | -70.3 | -86.9 | 313 | 8 |
| 2010-01-16T12:58 | 20693 | 49 | -70.6 | -87.4 | 314 | 9 |
| 2010-01-16T12:58 | 20738 | 49 | -70.9 | -87.8 | 315 | 10 |
| 2010-01-16T12:58 | 20784 | 48 | -71.3 | -88.3 | 317 | 10 |
| 2010-01-16T12:58 | 20831 | 48 | -71.5 | -88.7 | 316 | 10 |
| 2010-01-16T12:58 | 20878 | 48 | -71.6 | -88.9 | 313 | 9 |
| 2010-01-16T12:58 | 20923 | 47 | -71.3 | -88.9 | 311 | 9 |
| 2010-01-16T12:59 | 20971 | 47 | -70.7 | -88.6 | 312 | 9 |
| 2010-01-16T12:59 | 21016 | 47 | -70.8 | -88.7 | 314 | 8 |
| 2010-01-16T12:59 | 21062 | 46 | -71.0 | -89.0 | 316 | 8 |
| 2010-01-16T12:59 | 21106 | 46 | -71.2 | -89.3 | 319 | 8 |
| 2010-01-16T12:59 | 21153 | 46 | -71.3 | -89.6 | 325 | 8 |
| 2010-01-16T12:59 | 21200 | 45 | -71.1 | -89.5 | 334 | 8 |
| 2010-01-16T13:00 | 21246 | 45 | -69.5 | -88.6 | 345 | 8 |
| 2010-01-16T13:00 | 21291 | 45 | -68.5 | -88.0 | 355 | 9 |
| 2010-01-16T13:00 | 21337 | 44 | -68.3 | -87.9 | 2 | 9 |
| 2010-01-16T13:00 | 21385 | 44 | -68.4 | -88.2 | 6 | 9 |
| 2010-01-16T13:00 | 21431 | 43 | -68.8 | -88.6 | 8 | 9 |
| 2010-01-16T13:00 | 21477 | 43 | -69.1 | -89.1 | 10 | 9 |
| 2010-01-16T13:01 | 21525 | 43 | -69.4 | -89.6 | 13 | 9 |
| 2010-01-16T13:01 | 21572 | 42 | -69.7 | -90.1 | 17 | 10 |
| 2010-01-16T13:01 | 21619 | 42 | -69.7 | -90.3 | 22 | 10 |
| 2010-01-16T13:01 | 21667 | 42 | -69.8 | -90.5 | 28 | 11 |
| 2010-01-16T13:01 | 21712 | 41 | -69.5 | -90.5 | 35 | 11 |
| 2010-01-16T13:01 | 21757 | 41 | -68.8 | -90.2 | 42 | 10 |
| 2010-01-16T13:02 | 21807 | 41 | -68.4 | -90.1 | 49 | 10 |
| 2010-01-16T13:02 | 21853 | 41 | -68.4 | -90.2 | 59 | 10 |
| 2010-01-16T13:02 | 21899 | 40 | -68.3 | -90.3 | 70 | 10 |
| 2010-01-16T13:02 | 21943 | 40 | -68.2 | -90.3 | 80 | 11 |
| 2010-01-16T13:02 | 21988 | 40 | -68.0 | -90.3 | 87 | 12 |
| 2010-01-16T13:02 | 22033 | 39 | -67.9 | -90.4 | 92 | 12 |
| 2010-01-16T13:03 | 22076 | 39 | -68.2 | -90.8 | 93 | 12 |
| 2010-01-16T13:03 | 22122 | 39 | -68.1 | -90.9 | 92 | 12 |
| 2010-01-16T13:03 | 22168 | 38 | -67.9 | -90.9 | 89 | 14 |
| 2010-01-16T13:03 | 22212 | 38 | -67.8 | -91.1 | 89 | 15 |
| 2010-01-16T13:03 | 22258 | 38 | -67.1 | -90.8 | 92 | 16 |
| 2010-01-16T13:03 | 22306 | 38 | -66.8 | -90.7 | 98 | 17 |
| 2010-01-16T13:04 | 22352 | 37 | -66.6 | -90.7 | 104 | 19 |
| 2010-01-16T13:04 | 22400 | 37 | -65.9 | -90.4 | 110 | 20 |
| 2010-01-16T13:04 | 22450 | 37 | -65.8 | -90.5 | 114 | 21 |
| 2010-01-16T13:04 | 22496 | 36 | -66.1 | -90.8 | 117 | 22 |
| 2010-01-16T13:04 | 22546 | 36 | -66.4 | -91.2 | 119 | 22 |
| 2010-01-16T13:04 | 22593 | 36 | -66.5 | -91.4 | 121 | 23 |
| 2010-01-16T13:05 | 22641 | 36 | -66.6 | -91.7 | 120 | 23 |
| 2010-01-16T13:05 | 22691 | 35 | -66.8 | -92.0 | 117 | 23 |
| 2010-01-16T13:05 | 22740 | 35 | -66.3 | -91.9 | 113 | 23 |
| 2010-01-16T13:05 | 22787 | 35 | -65.9 | -91.8 | 110 | 22 |
| 2010-01-16T13:05 | 22834 | 34 | -66.0 | -91.9 | 109 | 21 |
| 2010-01-16T13:05 | 22883 | 34 | -66.2 | -92.1 | 109 | 22 |
| 2010-01-16T13:06 | 22932 | 34 | -65.7 | -92.0 | 110 | 22 |
| 2010-01-16T13:06 | 22981 | 34 | -65.0 | -91.8 | 110 | 24 |
| 2010-01-16T13:06 | 23030 | 33 | -64.0 | -91.4 | 108 | 26 |
| 2010-01-16T13:06 | 23080 | 33 | -63.8 | -91.2 | 106 | 27 |
| 2010-01-16T13:06 | 23130 | 33 | -64.0 | -91.3 | 104 | 29 |
| 2010-01-16T13:06 | 23180 | 33 | -64.1 | -91.5 | 102 | 30 |
| 2010-01-16T13:07 | 23230 | 32 | -64.2 | -91.7 | 100 | 31 |
| 2010-01-16T13:07 | 23278 | 32 | -64.1 | -91.8 | 99 | 32 |
| 2010-01-16T13:07 | 23329 | 32 | -63.3 | -91.6 | 96 | 31 |
| 2010-01-16T13:07 | 23379 | 32 | -62.8 | -91.4 | 94 | 30 |
| 2010-01-16T13:07 | 23429 | 31 | -62.2 | -91.1 | 93 | 30 |
| 2010-01-16T13:07 | 23477 | 31 | -62.2 | -91.0 | 93 | 30 |
| 2010-01-16T13:08 | 23529 | 31 | -62.2 | -91.1 | 92 | 31 |
| 2010-01-16T13:08 | 23578 | 31 | -62.4 | -91.3 | 91 | 31 |
| 2010-01-16T13:08 | 23628 | 30 | -62.2 | -91.3 | 90 | 32 |
| 2010-01-16T13:08 | 23676 | 30 | -62.3 | -91.5 | 89 | 32 |
| 2010-01-16T13:08 | 23727 | 30 | -62.6 | -91.7 | 87 | 32 |
| 2010-01-16T13:08 | 23775 | 30 | -62.2 | -91.8 | 86 | 32 |
| 2010-01-16T13:09 | 23821 | 29 | -61.5 | -91.6 | 85 | 31 |
| 2010-01-16T13:09 | 23873 | 29 | -60.9 | -91.2 | 85 | 30 |
| 2010-01-16T13:09 | 23921 | 29 | -60.0 | -90.8 | 85 | 30 |
| 2010-01-16T13:09 | 23972 | 29 | -59.5 | -90.4 | 86 | 29 |
| 2010-01-16T13:09 | 24021 | 28 | -59.4 | -90.2 | 87 | 29 |
| 2010-01-16T13:09 | 24069 | 28 | -59.3 | -90.1 | 90 | 29 |
| 2010-01-16T13:10 | 24117 | 28 | -58.7 | -89.9 | 93 | 29 |
| 2010-01-16T13:10 | 24167 | 28 | -58.4 | -89.7 | 95 | 29 |
| 2010-01-16T13:10 | 24215 | 28 | -58.4 | -89.7 | 96 | 29 |
| 2010-01-16T13:10 | 24263 | 27 | -58.5 | -89.7 | 97 | 30 |
| 2010-01-16T13:10 | 24313 | 27 | -58.5 | -89.7 | 97 | 30 |
| 2010-01-16T13:10 | 24361 | 27 | -58.6 | -89.8 | 97 | 30 |
| 2010-01-16T13:11 | 24406 | 27 | -58.7 | -89.9 | 96 | 31 |
| 2010-01-16T13:11 | 24456 | 27 | -58.2 | -89.5 | 93 | 32 |
| 2010-01-16T13:11 | 24504 | 26 | -57.1 | -88.8 | 90 | 34 |
| 2010-01-16T13:11 | 24551 | 26 | -55.7 | -87.8 | 88 | 34 |
| 2010-01-16T13:11 | 24597 | 26 | -55.2 | -87.4 | 86 | 34 |
| 2010-01-16T13:11 | 24645 | 26 | -54.9 | -87.2 | 85 | 33 |
| 2010-01-16T13:12 | 24688 | 26 | -54.6 | -87.0 | 84 | 32 |
| 2010-01-16T13:12 | 24738 | 25 | -54.4 | -86.9 | 83 | 32 |
| 2010-01-16T13:12 | 24785 | 25 | -54.5 | -86.9 | 83 | 31 |
| 2010-01-16T13:12 | 24831 | 25 | -54.5 | -87.0 | 83 | 30 |
| 2010-01-16T13:12 | 24880 | 25 | -54.6 | -87.0 | 83 | 30 |
| 2010-01-16T13:12 | 24927 | 25 | -54.8 | -87.1 | 83 | 30 |
| 2010-01-16T13:13 | 24976 | 24 | -54.9 | -87.1 | 84 | 29 |
| 2010-01-16T13:13 | 25025 | 24 | -55.0 | -87.2 | 84 | 29 |
| 2010-01-16T13:13 | 25075 | 24 | -55.2 | -87.3 | 84 | 29 |
| 2010-01-16T13:13 | 25124 | 24 | -55.2 | -87.4 | 84 | 29 |
| 2010-01-16T13:13 | 25175 | 24 | -55.2 | -87.4 | 85 | 29 |
| 2010-01-16T13:13 | 25225 | 23 | -54.9 | -87.3 | 86 | 29 |
| 2010-01-16T13:14 | 25274 | 23 | -54.8 | -87.2 | 87 | 29 |
| 2010-01-16T13:14 | 25327 | 23 | -54.6 | -87.0 | 87 | 29 |
| 2010-01-16T13:14 | 25376 | 23 | -54.5 | -86.9 | 87 | 29 |
| 2010-01-16T13:14 | 25426 | 23 | -54.4 | -86.9 | 88 | 29 |
| 2010-01-16T13:14 | 25479 | 23 | -54.4 | -86.9 | 90 | 29 |
| 2010-01-16T13:14 | 25530 | 22 | -54.4 | -86.9 | 92 | 29 |
| 2010-01-16T13:15 | 25581 | 22 | -54.3 | -86.8 | 94 | 29 |
| 2010-01-16T13:15 | 25632 | 22 | -54.3 | -86.8 | 97 | 29 |
| 2010-01-16T13:15 | 25685 | 22 | -54.1 | -86.6 | 99 | 29 |
| 2010-01-16T13:15 | 25738 | 22 | -54.1 | -86.7 | 100 | 29 |
| 2010-01-16T13:15 | 25790 | 22 | -54.1 | -86.6 | 100 | 29 |
| 2010-01-16T13:15 | 25838 | 21 | -54.1 | -86.6 | 102 | 29 |
| 2010-01-16T13:16 | 25890 | 21 | -53.7 | -86.4 | 103 | 29 |
| 2010-01-16T13:16 | 25941 | 21 | -53.3 | -86.1 | 105 | 29 |
| 2010-01-16T13:16 | 25993 | 21 | -53.3 | -86.1 | 108 | 29 |
| 2010-01-16T13:16 | 26042 | 21 | -53.1 | -86.0 | 109 | 30 |
| 2010-01-16T13:16 | 26092 | 21 | -53.3 | -86.0 | 110 | 30 |
| 2010-01-16T13:16 | 26140 | 20 | -53.5 | -86.0 | 109 | 31 |
| 2010-01-16T13:17 | 26191 | 20 | -53.5 | -86.0 | 107 | 32 |
| 2010-01-16T13:17 | 26243 | 20 | -53.4 | -86.0 | 106 | 34 |
| 2010-01-16T13:17 | 26292 | 20 | -52.8 | -85.7 | 105 | 35 |
| 2010-01-16T13:17 | 26340 | 20 | -52.2 | -85.3 | 105 | 36 |
| 2010-01-16T13:17 | 26390 | 20 | -51.2 | -84.6 | 104 | 36 |
| 2010-01-16T13:17 | 26441 | 19 | -50.7 | -84.3 | 104 | 36 |
| 2010-01-16T13:18 | 26490 | 19 | -49.8 | -83.7 | 103 | 36 |
| 2010-01-16T13:18 | 26539 | 19 | -49.3 | -83.3 | 103 | 36 |
| 2010-01-16T13:18 | 26587 | 19 | -49.0 | -83.1 | 103 | 37 |
| 2010-01-16T13:18 | 26636 | 19 | -48.8 | -82.9 | 102 | 38 |
| 2010-01-16T23:25 | 4 | 1008 | 32.7 | 25.1 | 290 | 3 |
| 2010-01-16T23:25 | 10 | 1008 | 29.7 | 22.4 | 300 | 2 |
| 2010-01-16T23:25 | 19 | 1007 | 28.0 | 21.4 | 300 | 3 |
| 2010-01-16T23:25 | 30 | 1005 | 27.8 | 22.4 | 299 | 3 |
| 2010-01-16T23:25 | 40 | 1004 | 27.7 | 22.9 | 299 | 4 |
| 2010-01-16T23:25 | 48 | 1003 | 27.5 | 23.2 | 299 | 4 |
| 2010-01-16T23:25 | 57 | 1002 | 27.4 | 23.5 | 298 | 4 |
| 2010-01-16T23:25 | 67 | 1001 | 27.4 | 23.7 | 298 | 5 |
| 2010-01-16T23:25 | 76 | 1000 | 27.3 | 23.9 | 298 | 5 |
| 2010-01-16T23:25 | 84 | 999 | 27.2 | 23.9 | 298 | 5 |
| 2010-01-16T23:25 | 92 | 999 | 27.1 | 23.9 | 298 | 5 |
| 2010-01-16T23:25 | 98 | 998 | 27.0 | 23.9 | 298 | 5 |
| 2010-01-16T23:25 | 103 | 997 | 26.9 | 24.0 | 298 | 5 |
| 2010-01-16T23:25 | 108 | 997 | 26.9 | 24.0 | 298 | 5 |
| 2010-01-16T23:25 | 115 | 996 | 26.9 | 24.0 | 299 | 5 |
| 2010-01-16T23:25 | 120 | 995 | 26.8 | 24.0 | 299 | 5 |
| 2010-01-16T23:25 | 126 | 995 | 26.7 | 24.0 | 299 | 5 |
| 2010-01-16T23:25 | 133 | 994 | 26.6 | 24.0 | 300 | 5 |
| 2010-01-16T23:25 | 140 | 993 | 26.6 | 24.0 | 301 | 5 |
| 2010-01-16T23:25 | 146 | 992 | 26.5 | 24.0 | 301 | 5 |
| 2010-01-16T23:25 | 152 | 992 | 26.5 | 23.9 | 302 | 5 |
| 2010-01-16T23:25 | 157 | 991 | 26.4 | 23.9 | 303 | 5 |
| 2010-01-16T23:25 | 164 | 990 | 26.3 | 23.9 | 303 | 5 |
| 2010-01-16T23:25 | 170 | 990 | 26.3 | 23.9 | 304 | 6 |
| 2010-01-16T23:25 | 178 | 989 | 26.2 | 23.9 | 304 | 6 |
| 2010-01-16T23:25 | 186 | 988 | 26.1 | 23.8 | 305 | 6 |
| 2010-01-16T23:25 | 194 | 987 | 26.1 | 23.8 | 305 | 6 |
| 2010-01-16T23:25 | 205 | 986 | 26.0 | 23.8 | 306 | 6 |
| 2010-01-16T23:25 | 215 | 985 | 25.9 | 23.8 | 306 | 6 |
| 2010-01-16T23:25 | 225 | 984 | 25.8 | 23.7 | 306 | 6 |
| 2010-01-16T23:26 | 234 | 983 | 25.7 | 23.8 | 306 | 6 |
| 2010-01-16T23:26 | 243 | 982 | 25.7 | 23.7 | 307 | 6 |
| 2010-01-16T23:26 | 248 | 981 | 25.6 | 23.7 | 307 | 6 |
| 2010-01-16T23:26 | 253 | 980 | 25.5 | 23.7 | 307 | 6 |
| 2010-01-16T23:26 | 259 | 980 | 25.4 | 23.6 | 307 | 7 |
| 2010-01-16T23:26 | 266 | 979 | 25.4 | 23.6 | 307 | 7 |
| 2010-01-16T23:26 | 273 | 978 | 25.4 | 23.5 | 308 | 7 |
| 2010-01-16T23:26 | 280 | 978 | 25.4 | 23.4 | 308 | 7 |
| 2010-01-16T23:26 | 286 | 977 | 25.4 | 23.3 | 308 | 7 |
| 2010-01-16T23:26 | 292 | 976 | 25.4 | 23.2 | 308 | 7 |
| 2010-01-16T23:26 | 300 | 975 | 25.4 | 23.2 | 309 | 7 |
| 2010-01-16T23:26 | 307 | 975 | 25.4 | 23.2 | 309 | 7 |
| 2010-01-16T23:26 | 313 | 974 | 25.3 | 23.2 | 309 | 7 |
| 2010-01-16T23:26 | 320 | 973 | 25.2 | 23.2 | 310 | 7 |
| 2010-01-16T23:26 | 326 | 972 | 25.2 | 23.1 | 310 | 7 |
| 2010-01-16T23:26 | 332 | 972 | 25.2 | 23.0 | 310 | 7 |
| 2010-01-16T23:26 | 338 | 971 | 25.1 | 23.0 | 310 | 7 |
| 2010-01-16T23:26 | 345 | 970 | 25.1 | 22.9 | 311 | 7 |
| 2010-01-16T23:26 | 351 | 970 | 25.0 | 22.9 | 311 | 7 |
| 2010-01-16T23:26 | 357 | 969 | 24.9 | 22.9 | 311 | 7 |
| 2010-01-16T23:26 | 363 | 968 | 24.9 | 22.9 | 311 | 7 |
| 2010-01-16T23:26 | 370 | 968 | 24.8 | 22.9 | 311 | 7 |
| 2010-01-16T23:26 | 377 | 967 | 24.7 | 22.9 | 311 | 7 |
| 2010-01-16T23:26 | 384 | 966 | 24.7 | 22.9 | 311 | 7 |
| 2010-01-16T23:26 | 390 | 965 | 24.6 | 22.8 | 311 | 7 |
| 2010-01-16T23:26 | 396 | 965 | 24.6 | 22.8 | 311 | 7 |
| 2010-01-16T23:26 | 401 | 964 | 24.5 | 22.8 | 311 | 7 |
| 2010-01-16T23:26 | 408 | 963 | 24.4 | 22.8 | 311 | 7 |
| 2010-01-16T23:26 | 416 | 963 | 24.4 | 22.6 | 311 | 7 |
| 2010-01-16T23:26 | 422 | 962 | 24.3 | 22.5 | 311 | 7 |
| 2010-01-16T23:27 | 429 | 961 | 24.2 | 22.5 | 311 | 7 |
| 2010-01-16T23:27 | 435 | 960 | 24.2 | 22.6 | 312 | 7 |
| 2010-01-16T23:27 | 442 | 960 | 24.1 | 22.5 | 312 | 7 |
| 2010-01-16T23:27 | 449 | 959 | 24.1 | 22.5 | 312 | 7 |
| 2010-01-16T23:27 | 456 | 958 | 24.0 | 22.6 | 313 | 7 |
| 2010-01-16T23:27 | 462 | 958 | 24.0 | 22.6 | 313 | 7 |
| 2010-01-16T23:27 | 469 | 957 | 24.0 | 22.5 | 313 | 7 |
| 2010-01-16T23:27 | 475 | 956 | 23.9 | 22.3 | 314 | 7 |
| 2010-01-16T23:27 | 482 | 955 | 23.9 | 22.1 | 314 | 7 |
| 2010-01-16T23:27 | 489 | 955 | 23.9 | 22.0 | 315 | 7 |
| 2010-01-16T23:27 | 496 | 954 | 23.9 | 21.8 | 315 | 7 |
| 2010-01-16T23:27 | 503 | 953 | 23.8 | 21.7 | 316 | 7 |
| 2010-01-16T23:27 | 510 | 952 | 23.8 | 21.6 | 316 | 7 |
| 2010-01-16T23:27 | 517 | 952 | 23.7 | 21.5 | 316 | 7 |
| 2010-01-16T23:27 | 524 | 951 | 23.7 | 21.4 | 316 | 7 |
| 2010-01-16T23:27 | 531 | 950 | 23.7 | 21.4 | 316 | 7 |
| 2010-01-16T23:27 | 539 | 949 | 23.6 | 21.2 | 316 | 7 |
| 2010-01-16T23:27 | 546 | 948 | 23.6 | 21.1 | 316 | 8 |
| 2010-01-16T23:27 | 553 | 948 | 23.5 | 21.1 | 316 | 8 |
| 2010-01-16T23:27 | 560 | 947 | 23.5 | 21.1 | 316 | 8 |
| 2010-01-16T23:27 | 568 | 946 | 23.4 | 21.2 | 316 | 8 |
| 2010-01-16T23:27 | 575 | 945 | 23.5 | 21.1 | 316 | 8 |
| 2010-01-16T23:27 | 583 | 944 | 23.5 | 21.1 | 315 | 8 |
| 2010-01-16T23:27 | 590 | 944 | 23.4 | 21.0 | 315 | 8 |
| 2010-01-16T23:27 | 597 | 943 | 23.4 | 21.0 | 315 | 8 |
| 2010-01-16T23:27 | 604 | 942 | 23.4 | 20.8 | 315 | 8 |
| 2010-01-16T23:27 | 612 | 941 | 23.3 | 20.6 | 314 | 8 |
| 2010-01-16T23:27 | 619 | 941 | 23.4 | 20.5 | 314 | 8 |
| 2010-01-16T23:27 | 625 | 940 | 23.4 | 20.5 | 314 | 8 |
| 2010-01-16T23:27 | 632 | 939 | 23.4 | 20.4 | 314 | 8 |
| 2010-01-16T23:28 | 639 | 938 | 23.4 | 20.4 | 314 | 8 |
| 2010-01-16T23:28 | 646 | 938 | 23.4 | 20.3 | 314 | 8 |
| 2010-01-16T23:28 | 652 | 937 | 23.4 | 20.2 | 314 | 8 |
| 2010-01-16T23:28 | 659 | 936 | 23.4 | 20.1 | 314 | 8 |
| 2010-01-16T23:28 | 666 | 936 | 23.4 | 20.1 | 314 | 8 |
| 2010-01-16T23:28 | 673 | 935 | 23.4 | 20.1 | 314 | 8 |
| 2010-01-16T23:28 | 680 | 934 | 23.3 | 20.0 | 315 | 8 |
| 2010-01-16T23:28 | 686 | 933 | 23.3 | 20.0 | 315 | 8 |
| 2010-01-16T23:28 | 693 | 933 | 23.2 | 20.0 | 315 | 8 |
| 2010-01-16T23:28 | 700 | 932 | 23.1 | 20.0 | 315 | 8 |
| 2010-01-16T23:28 | 706 | 931 | 23.1 | 20.0 | 316 | 8 |
| 2010-01-16T23:28 | 713 | 930 | 23.1 | 19.8 | 316 | 8 |
| 2010-01-16T23:28 | 720 | 930 | 23.1 | 19.8 | 316 | 8 |
| 2010-01-16T23:28 | 727 | 929 | 23.0 | 19.8 | 316 | 8 |
| 2010-01-16T23:28 | 733 | 928 | 22.9 | 19.8 | 317 | 8 |
| 2010-01-16T23:28 | 740 | 928 | 22.9 | 19.7 | 317 | 8 |
| 2010-01-16T23:28 | 746 | 927 | 23.0 | 19.7 | 317 | 8 |
| 2010-01-16T23:28 | 753 | 926 | 22.9 | 19.8 | 317 | 8 |
| 2010-01-16T23:28 | 760 | 926 | 22.9 | 19.8 | 317 | 8 |
| 2010-01-16T23:28 | 767 | 925 | 22.9 | 19.8 | 317 | 8 |
| 2010-01-16T23:28 | 774 | 924 | 22.9 | 19.6 | 317 | 8 |
| 2010-01-16T23:28 | 780 | 923 | 22.9 | 19.5 | 317 | 8 |
| 2010-01-16T23:28 | 787 | 923 | 23.0 | 19.4 | 317 | 8 |
| 2010-01-16T23:28 | 794 | 922 | 23.0 | 19.1 | 317 | 8 |
| 2010-01-16T23:28 | 801 | 921 | 23.0 | 18.9 | 317 | 8 |
| 2010-01-16T23:28 | 808 | 921 | 23.0 | 18.9 | 317 | 8 |
| 2010-01-16T23:28 | 815 | 920 | 22.9 | 19.0 | 316 | 8 |
| 2010-01-16T23:28 | 822 | 919 | 22.9 | 19.0 | 316 | 8 |
| 2010-01-16T23:28 | 828 | 918 | 22.9 | 18.9 | 316 | 8 |
| 2010-01-16T23:28 | 835 | 918 | 22.9 | 18.8 | 316 | 8 |
| 2010-01-16T23:29 | 842 | 917 | 22.8 | 18.8 | 315 | 8 |
| 2010-01-16T23:29 | 849 | 916 | 22.8 | 18.8 | 315 | 8 |
| 2010-01-16T23:29 | 856 | 915 | 22.7 | 18.8 | 315 | 8 |
| 2010-01-16T23:29 | 862 | 915 | 22.7 | 18.8 | 315 | 8 |
| 2010-01-16T23:29 | 868 | 914 | 22.7 | 18.7 | 314 | 8 |
| 2010-01-16T23:29 | 875 | 913 | 22.6 | 18.7 | 314 | 8 |
| 2010-01-16T23:29 | 882 | 913 | 22.6 | 18.7 | 313 | 8 |
| 2010-01-16T23:29 | 889 | 912 | 22.5 | 18.7 | 313 | 8 |
| 2010-01-16T23:29 | 895 | 911 | 22.5 | 18.7 | 313 | 8 |
| 2010-01-16T23:29 | 901 | 911 | 22.4 | 18.6 | 312 | 8 |
| 2010-01-16T23:29 | 907 | 910 | 22.4 | 18.6 | 312 | 8 |
| 2010-01-16T23:29 | 914 | 909 | 22.3 | 18.6 | 312 | 8 |
| 2010-01-16T23:29 | 920 | 909 | 22.3 | 18.6 | 311 | 8 |
| 2010-01-16T23:29 | 926 | 908 | 22.2 | 18.5 | 311 | 8 |
| 2010-01-16T23:29 | 933 | 907 | 22.1 | 18.6 | 311 | 8 |
| 2010-01-16T23:29 | 939 | 907 | 22.1 | 18.6 | 310 | 8 |
| 2010-01-16T23:29 | 946 | 906 | 22.1 | 18.6 | 310 | 8 |
| 2010-01-16T23:29 | 952 | 905 | 22.0 | 18.5 | 309 | 8 |
| 2010-01-16T23:29 | 958 | 905 | 22.0 | 18.4 | 309 | 8 |
| 2010-01-16T23:29 | 965 | 904 | 22.0 | 18.4 | 309 | 8 |
| 2010-01-16T23:29 | 971 | 903 | 22.0 | 18.2 | 308 | 9 |
| 2010-01-16T23:29 | 978 | 903 | 22.0 | 18.0 | 308 | 9 |
| 2010-01-16T23:29 | 986 | 902 | 21.9 | 18.0 | 307 | 9 |
| 2010-01-16T23:29 | 993 | 901 | 21.9 | 18.1 | 307 | 9 |
| 2010-01-16T23:29 | 1000 | 900 | 21.8 | 18.1 | 306 | 9 |
| 2010-01-16T23:29 | 1007 | 900 | 21.8 | 18.0 | 306 | 9 |
| 2010-01-16T23:29 | 1015 | 899 | 21.8 | 18.0 | 305 | 9 |
| 2010-01-16T23:29 | 1022 | 898 | 21.7 | 18.0 | 305 | 9 |
| 2010-01-16T23:29 | 1028 | 898 | 21.7 | 18.1 | 305 | 9 |
| 2010-01-16T23:29 | 1036 | 897 | 21.6 | 18.0 | 304 | 9 |
| 2010-01-16T23:30 | 1043 | 896 | 21.5 | 18.0 | 304 | 9 |
| 2010-01-16T23:30 | 1050 | 895 | 21.4 | 17.9 | 304 | 10 |
| 2010-01-16T23:30 | 1057 | 895 | 21.4 | 17.9 | 304 | 10 |
| 2010-01-16T23:30 | 1063 | 894 | 21.4 | 17.9 | 303 | 10 |
| 2010-01-16T23:30 | 1069 | 893 | 21.3 | 17.9 | 303 | 10 |
| 2010-01-16T23:30 | 1076 | 893 | 21.3 | 17.9 | 303 | 10 |
| 2010-01-16T23:30 | 1081 | 892 | 21.3 | 17.9 | 303 | 10 |
| 2010-01-16T23:30 | 1088 | 891 | 21.2 | 17.8 | 303 | 10 |
| 2010-01-16T23:30 | 1095 | 891 | 21.1 | 17.8 | 303 | 10 |
| 2010-01-16T23:30 | 1101 | 890 | 21.1 | 17.8 | 303 | 10 |
| 2010-01-16T23:30 | 1107 | 889 | 21.0 | 17.8 | 303 | 10 |
| 2010-01-16T23:30 | 1114 | 889 | 21.0 | 17.7 | 303 | 10 |
| 2010-01-16T23:30 | 1120 | 888 | 20.9 | 17.7 | 303 | 10 |
| 2010-01-16T23:30 | 1126 | 887 | 20.9 | 17.7 | 303 | 10 |
| 2010-01-16T23:30 | 1133 | 887 | 20.9 | 17.7 | 303 | 10 |
| 2010-01-16T23:30 | 1139 | 886 | 20.8 | 17.6 | 303 | 10 |
| 2010-01-16T23:30 | 1145 | 886 | 20.8 | 17.7 | 303 | 10 |
| 2010-01-16T23:30 | 1151 | 885 | 20.8 | 17.6 | 303 | 10 |
| 2010-01-16T23:30 | 1156 | 884 | 20.7 | 17.5 | 303 | 10 |
| 2010-01-16T23:30 | 1162 | 884 | 20.7 | 17.4 | 303 | 11 |
| 2010-01-16T23:30 | 1168 | 883 | 20.6 | 17.4 | 303 | 11 |
| 2010-01-16T23:30 | 1174 | 883 | 20.6 | 17.4 | 303 | 11 |
| 2010-01-16T23:30 | 1181 | 882 | 20.5 | 17.4 | 304 | 11 |
| 2010-01-16T23:30 | 1187 | 881 | 20.5 | 17.4 | 304 | 11 |
| 2010-01-16T23:30 | 1193 | 881 | 20.4 | 17.5 | 304 | 11 |
| 2010-01-16T23:30 | 1199 | 880 | 20.4 | 17.5 | 304 | 11 |
| 2010-01-16T23:30 | 1206 | 879 | 20.3 | 17.5 | 304 | 11 |
| 2010-01-16T23:30 | 1213 | 879 | 20.3 | 17.5 | 304 | 11 |
| 2010-01-16T23:30 | 1219 | 878 | 20.2 | 17.5 | 304 | 11 |
| 2010-01-16T23:30 | 1224 | 878 | 20.2 | 17.5 | 304 | 11 |
| 2010-01-16T23:31 | 1230 | 877 | 20.1 | 17.4 | 304 | 11 |
| 2010-01-16T23:31 | 1237 | 876 | 20.1 | 17.4 | 303 | 11 |
| 2010-01-16T23:31 | 1243 | 876 | 20.1 | 17.4 | 303 | 11 |
| 2010-01-16T23:31 | 1249 | 875 | 20.0 | 17.3 | 303 | 11 |
| 2010-01-16T23:31 | 1254 | 875 | 19.9 | 17.3 | 303 | 11 |
| 2010-01-16T23:31 | 1260 | 874 | 19.9 | 17.3 | 302 | 11 |
| 2010-01-16T23:31 | 1266 | 873 | 19.8 | 17.3 | 302 | 11 |
| 2010-01-16T23:31 | 1273 | 873 | 19.8 | 17.3 | 301 | 11 |
| 2010-01-16T23:31 | 1280 | 872 | 19.8 | 17.2 | 301 | 11 |
| 2010-01-16T23:31 | 1286 | 871 | 19.7 | 17.2 | 300 | 11 |
| 2010-01-16T23:31 | 1292 | 871 | 19.7 | 17.2 | 299 | 11 |
| 2010-01-16T23:31 | 1298 | 870 | 19.7 | 17.1 | 299 | 11 |
| 2010-01-16T23:31 | 1304 | 869 | 19.7 | 17.1 | 298 | 11 |
| 2010-01-16T23:31 | 1310 | 869 | 19.7 | 17.1 | 297 | 11 |
| 2010-01-16T23:31 | 1316 | 868 | 19.7 | 17.0 | 296 | 11 |
| 2010-01-16T23:31 | 1322 | 868 | 19.8 | 16.9 | 296 | 11 |
| 2010-01-16T23:31 | 1328 | 867 | 19.8 | 16.7 | 295 | 11 |
| 2010-01-16T23:31 | 1333 | 867 | 19.9 | 16.7 | 294 | 11 |
| 2010-01-16T23:31 | 1339 | 866 | 19.9 | 16.7 | 293 | 11 |
| 2010-01-16T23:31 | 1346 | 865 | 19.9 | 16.6 | 293 | 11 |
| 2010-01-16T23:31 | 1353 | 865 | 19.9 | 16.5 | 292 | 11 |
| 2010-01-16T23:31 | 1359 | 864 | 19.9 | 16.5 | 291 | 11 |
| 2010-01-16T23:31 | 1365 | 863 | 19.8 | 16.3 | 291 | 11 |
| 2010-01-16T23:31 | 1372 | 863 | 19.8 | 16.0 | 290 | 11 |
| 2010-01-16T23:31 | 1379 | 862 | 19.8 | 16.0 | 290 | 11 |
| 2010-01-16T23:31 | 1385 | 861 | 19.8 | 15.9 | 289 | 11 |
| 2010-01-16T23:31 | 1393 | 861 | 19.7 | 15.6 | 289 | 11 |
| 2010-01-16T23:31 | 1401 | 860 | 19.8 | 15.2 | 288 | 11 |
| 2010-01-16T23:31 | 1407 | 859 | 19.8 | 15.1 | 288 | 11 |
| 2010-01-16T23:31 | 1413 | 859 | 19.7 | 15.0 | 288 | 11 |
| 2010-01-16T23:32 | 1419 | 858 | 19.6 | 14.9 | 288 | 11 |
| 2010-01-16T23:32 | 1425 | 857 | 19.6 | 14.9 | 287 | 11 |
| 2010-01-16T23:32 | 1431 | 857 | 19.5 | 14.8 | 287 | 11 |
| 2010-01-16T23:32 | 1436 | 856 | 19.5 | 14.6 | 287 | 11 |
| 2010-01-16T23:32 | 1442 | 856 | 19.5 | 14.4 | 287 | 11 |
| 2010-01-16T23:32 | 1448 | 855 | 19.6 | 14.1 | 287 | 11 |
| 2010-01-16T23:32 | 1453 | 855 | 19.6 | 13.9 | 287 | 11 |
| 2010-01-16T23:32 | 1459 | 854 | 19.6 | 13.9 | 287 | 11 |
| 2010-01-16T23:32 | 1465 | 853 | 19.5 | 13.9 | 287 | 12 |
| 2010-01-16T23:32 | 1471 | 853 | 19.5 | 13.9 | 287 | 12 |
| 2010-01-16T23:32 | 1477 | 852 | 19.4 | 13.9 | 287 | 12 |
| 2010-01-16T23:32 | 1483 | 852 | 19.4 | 13.9 | 287 | 12 |
| 2010-01-16T23:32 | 1489 | 851 | 19.3 | 13.8 | 287 | 12 |
| 2010-01-16T23:32 | 1495 | 850 | 19.2 | 13.6 | 287 | 12 |
| 2010-01-16T23:32 | 1501 | 850 | 19.2 | 13.5 | 287 | 12 |
| 2010-01-16T23:32 | 1507 | 849 | 19.1 | 13.6 | 287 | 12 |
| 2010-01-16T23:32 | 1513 | 849 | 19.0 | 13.7 | 287 | 12 |
| 2010-01-16T23:32 | 1519 | 848 | 19.0 | 13.7 | 287 | 12 |
| 2010-01-16T23:32 | 1525 | 848 | 18.9 | 13.8 | 287 | 12 |
| 2010-01-16T23:32 | 1530 | 847 | 18.9 | 13.9 | 287 | 12 |
| 2010-01-16T23:32 | 1536 | 846 | 18.8 | 14.0 | 287 | 12 |
| 2010-01-16T23:32 | 1543 | 846 | 18.8 | 14.1 | 287 | 12 |
| 2010-01-16T23:32 | 1549 | 845 | 18.7 | 14.2 | 287 | 12 |
| 2010-01-16T23:32 | 1555 | 845 | 18.7 | 14.3 | 287 | 12 |
| 2010-01-16T23:32 | 1561 | 844 | 18.6 | 14.3 | 287 | 12 |
| 2010-01-16T23:32 | 1568 | 843 | 18.6 | 14.4 | 287 | 11 |
| 2010-01-16T23:32 | 1573 | 843 | 18.6 | 14.4 | 287 | 11 |
| 2010-01-16T23:32 | 1578 | 842 | 18.6 | 14.4 | 287 | 11 |
| 2010-01-16T23:32 | 1583 | 842 | 18.6 | 14.5 | 287 | 11 |
| 2010-01-16T23:32 | 1589 | 841 | 18.6 | 14.5 | 287 | 11 |
| 2010-01-16T23:33 | 1594 | 841 | 18.5 | 14.4 | 287 | 11 |
| 2010-01-16T23:33 | 1599 | 840 | 18.5 | 14.2 | 287 | 11 |
| 2010-01-16T23:33 | 1606 | 840 | 18.5 | 14.0 | 287 | 11 |
| 2010-01-16T23:33 | 1612 | 839 | 18.5 | 13.8 | 287 | 11 |
| 2010-01-16T23:33 | 1617 | 838 | 18.5 | 13.6 | 286 | 11 |
| 2010-01-16T23:33 | 1623 | 838 | 18.5 | 13.4 | 286 | 11 |
| 2010-01-16T23:33 | 1629 | 837 | 18.5 | 13.5 | 286 | 12 |
| 2010-01-16T23:33 | 1636 | 837 | 18.5 | 13.7 | 286 | 12 |
| 2010-01-16T23:33 | 1641 | 836 | 18.4 | 13.8 | 286 | 12 |
| 2010-01-16T23:33 | 1647 | 836 | 18.4 | 13.9 | 286 | 12 |
| 2010-01-16T23:33 | 1654 | 835 | 18.3 | 14.0 | 286 | 12 |
| 2010-01-16T23:33 | 1661 | 834 | 18.2 | 14.0 | 286 | 12 |
| 2010-01-16T23:33 | 1668 | 834 | 18.2 | 14.1 | 286 | 12 |
| 2010-01-16T23:33 | 1675 | 833 | 18.1 | 14.2 | 285 | 12 |
| 2010-01-16T23:33 | 1683 | 832 | 18.1 | 14.3 | 285 | 12 |
| 2010-01-16T23:33 | 1690 | 831 | 18.0 | 14.3 | 285 | 12 |
| 2010-01-16T23:33 | 1696 | 831 | 18.0 | 14.2 | 285 | 12 |
| 2010-01-16T23:33 | 1702 | 830 | 18.0 | 14.1 | 285 | 12 |
| 2010-01-16T23:33 | 1707 | 830 | 17.9 | 14.1 | 285 | 12 |
| 2010-01-16T23:33 | 1712 | 829 | 17.9 | 14.0 | 284 | 12 |
| 2010-01-16T23:33 | 1717 | 829 | 18.0 | 13.9 | 284 | 12 |
| 2010-01-16T23:33 | 1723 | 828 | 18.0 | 13.6 | 284 | 12 |
| 2010-01-16T23:33 | 1728 | 828 | 18.1 | 13.5 | 283 | 12 |
| 2010-01-16T23:33 | 1734 | 827 | 18.1 | 13.5 | 283 | 12 |
| 2010-01-16T23:33 | 1741 | 827 | 18.0 | 13.4 | 283 | 12 |
| 2010-01-16T23:33 | 1747 | 826 | 18.0 | 13.3 | 282 | 12 |
| 2010-01-16T23:33 | 1753 | 825 | 17.9 | 13.3 | 282 | 12 |
| 2010-01-16T23:33 | 1759 | 825 | 17.9 | 13.3 | 282 | 12 |
| 2010-01-16T23:33 | 1764 | 824 | 17.9 | 13.3 | 282 | 12 |
| 2010-01-16T23:33 | 1770 | 824 | 17.8 | 13.3 | 282 | 12 |
| 2010-01-16T23:34 | 1776 | 823 | 17.7 | 13.3 | 282 | 12 |
| 2010-01-16T23:34 | 1782 | 822 | 17.6 | 13.3 | 282 | 12 |
| 2010-01-16T23:34 | 1788 | 822 | 17.6 | 13.3 | 281 | 12 |
| 2010-01-16T23:34 | 1794 | 821 | 17.6 | 13.2 | 281 | 12 |
| 2010-01-16T23:34 | 1800 | 821 | 17.5 | 13.2 | 281 | 12 |
| 2010-01-16T23:34 | 1806 | 820 | 17.5 | 13.2 | 281 | 12 |
| 2010-01-16T23:34 | 1812 | 820 | 17.4 | 13.2 | 281 | 12 |
| 2010-01-16T23:34 | 1817 | 819 | 17.4 | 13.1 | 281 | 12 |
| 2010-01-16T23:34 | 1823 | 819 | 17.3 | 12.8 | 282 | 12 |
| 2010-01-16T23:34 | 1829 | 818 | 17.3 | 12.6 | 282 | 12 |
| 2010-01-16T23:34 | 1834 | 818 | 17.3 | 12.7 | 282 | 12 |
| 2010-01-16T23:34 | 1840 | 817 | 17.2 | 12.7 | 282 | 12 |
| 2010-01-16T23:34 | 1845 | 816 | 17.2 | 12.7 | 282 | 12 |
| 2010-01-16T23:34 | 1851 | 816 | 17.1 | 12.7 | 282 | 12 |
| 2010-01-16T23:34 | 1856 | 815 | 17.1 | 12.7 | 282 | 12 |
| 2010-01-16T23:34 | 1862 | 815 | 17.0 | 12.6 | 282 | 12 |
| 2010-01-16T23:34 | 1868 | 814 | 17.0 | 12.6 | 282 | 12 |
| 2010-01-16T23:34 | 1874 | 814 | 17.0 | 12.6 | 282 | 12 |
| 2010-01-16T23:34 | 1880 | 813 | 16.9 | 12.6 | 282 | 12 |
| 2010-01-16T23:34 | 1886 | 813 | 16.8 | 12.6 | 282 | 12 |
| 2010-01-16T23:34 | 1892 | 812 | 16.8 | 12.6 | 282 | 12 |
| 2010-01-16T23:34 | 1899 | 811 | 16.8 | 12.5 | 282 | 12 |
| 2010-01-16T23:34 | 1906 | 811 | 16.7 | 12.4 | 282 | 12 |
| 2010-01-16T23:34 | 1912 | 810 | 16.7 | 12.4 | 283 | 12 |
| 2010-01-16T23:34 | 1918 | 810 | 16.6 | 12.3 | 283 | 12 |
| 2010-01-16T23:34 | 1924 | 809 | 16.6 | 12.4 | 283 | 12 |
| 2010-01-16T23:34 | 1930 | 808 | 16.5 | 12.6 | 283 | 12 |
| 2010-01-16T23:34 | 1936 | 808 | 16.4 | 12.7 | 284 | 12 |
| 2010-01-16T23:34 | 1942 | 807 | 16.4 | 12.8 | 284 | 12 |
| 2010-01-16T23:34 | 1949 | 807 | 16.3 | 12.9 | 284 | 12 |
| 2010-01-16T23:35 | 1956 | 806 | 16.3 | 12.8 | 285 | 12 |
| 2010-01-16T23:35 | 1963 | 805 | 16.3 | 12.6 | 285 | 12 |
| 2010-01-16T23:35 | 1970 | 805 | 16.2 | 12.6 | 285 | 12 |
| 2010-01-16T23:35 | 1977 | 804 | 16.2 | 12.6 | 286 | 12 |
| 2010-01-16T23:35 | 1984 | 803 | 16.1 | 12.5 | 286 | 12 |
| 2010-01-16T23:35 | 1990 | 803 | 16.0 | 12.4 | 286 | 12 |
| 2010-01-16T23:35 | 1996 | 802 | 16.0 | 12.3 | 287 | 12 |
| 2010-01-16T23:35 | 2020 | 800 | 15.9 | 12.3 | 288 | 12 |
| 2010-01-16T23:35 | 2051 | 797 | 15.7 | 11.9 | 289 | 12 |
| 2010-01-16T23:35 | 2084 | 794 | 15.4 | 11.8 | 290 | 12 |
| 2010-01-16T23:35 | 2114 | 791 | 15.3 | 11.7 | 293 | 12 |
| 2010-01-16T23:36 | 2146 | 788 | 15.3 | 11.6 | 296 | 12 |
| 2010-01-16T23:36 | 2183 | 785 | 15.0 | 12.5 | 299 | 11 |
| 2010-01-16T23:36 | 2227 | 781 | 15.0 | 12.7 | 300 | 10 |
| 2010-01-16T23:36 | 2278 | 776 | 14.5 | 12.4 | 301 | 10 |
| 2010-01-16T23:36 | 2327 | 772 | 14.3 | 11.4 | 302 | 10 |
| 2010-01-16T23:36 | 2374 | 767 | 14.0 | 10.6 | 305 | 9 |
| 2010-01-16T23:37 | 2415 | 764 | 13.7 | 9.9 | 306 | 9 |
| 2010-01-16T23:37 | 2446 | 761 | 13.5 | 10.5 | 304 | 9 |
| 2010-01-16T23:37 | 2480 | 758 | 13.3 | 11.2 | 302 | 9 |
| 2010-01-16T23:37 | 2512 | 755 | 13.1 | 11.1 | 301 | 10 |
| 2010-01-16T23:37 | 2545 | 752 | 13.0 | 10.5 | 302 | 10 |
| 2010-01-16T23:37 | 2579 | 749 | 12.6 | 10.8 | 302 | 10 |
| 2010-01-16T23:38 | 2612 | 746 | 12.3 | 11.0 | 302 | 10 |
| 2010-01-16T23:38 | 2645 | 743 | 12.1 | 11.1 | 303 | 10 |
| 2010-01-16T23:38 | 2677 | 740 | 12.0 | 10.8 | 303 | 11 |
| 2010-01-16T23:38 | 2709 | 737 | 11.8 | 10.6 | 305 | 11 |
| 2010-01-16T23:38 | 2745 | 734 | 11.7 | 10.6 | 308 | 11 |
| 2010-01-16T23:38 | 2778 | 731 | 11.5 | 10.0 | 311 | 10 |
| 2010-01-16T23:39 | 2810 | 729 | 11.4 | 9.3 | 312 | 10 |
| 2010-01-16T23:39 | 2842 | 726 | 11.4 | 8.2 | 313 | 10 |
| 2010-01-16T23:39 | 2885 | 722 | 11.4 | 8.1 | 314 | 10 |
| 2010-01-16T23:39 | 2920 | 719 | 11.3 | 7.6 | 316 | 9 |
| 2010-01-16T23:39 | 2954 | 716 | 11.0 | 7.4 | 319 | 9 |
| 2010-01-16T23:39 | 2986 | 713 | 10.7 | 6.9 | 322 | 9 |
| 2010-01-16T23:40 | 3017 | 711 | 10.5 | 6.8 | 324 | 9 |
| 2010-01-16T23:40 | 3053 | 708 | 10.3 | 6.6 | 326 | 9 |
| 2010-01-16T23:40 | 3085 | 705 | 10.0 | 6.9 | 329 | 8 |
| 2010-01-16T23:40 | 3115 | 702 | 9.9 | 7.4 | 332 | 8 |
| 2010-01-16T23:40 | 3151 | 699 | 9.6 | 7.3 | 335 | 7 |
| 2010-01-16T23:40 | 3187 | 696 | 9.5 | 7.1 | 338 | 7 |
| 2010-01-16T23:41 | 3219 | 694 | 9.3 | 7.0 | 338 | 7 |
| 2010-01-16T23:41 | 3249 | 691 | 9.1 | 6.9 | 338 | 8 |
| 2010-01-16T23:41 | 3279 | 689 | 9.0 | 6.7 | 339 | 8 |
| 2010-01-16T23:41 | 3310 | 686 | 8.8 | 6.6 | 340 | 8 |
| 2010-01-16T23:41 | 3340 | 684 | 8.8 | 5.8 | 339 | 9 |
| 2010-01-16T23:41 | 3370 | 681 | 8.6 | 5.9 | 339 | 9 |
| 2010-01-16T23:42 | 3400 | 679 | 8.4 | 6.1 | 339 | 8 |
| 2010-01-16T23:42 | 3431 | 676 | 8.2 | 5.9 | 341 | 9 |
| 2010-01-16T23:42 | 3462 | 674 | 8.1 | 5.5 | 342 | 9 |
| 2010-01-16T23:42 | 3491 | 671 | 7.9 | 5.7 | 342 | 9 |
| 2010-01-16T23:42 | 3522 | 669 | 7.7 | 5.7 | 342 | 9 |
| 2010-01-16T23:42 | 3552 | 666 | 7.5 | 5.5 | 341 | 9 |
| 2010-01-16T23:43 | 3582 | 664 | 7.3 | 5.4 | 341 | 9 |
| 2010-01-16T23:43 | 3611 | 662 | 7.1 | 5.2 | 340 | 9 |
| 2010-01-16T23:43 | 3640 | 659 | 6.8 | 5.3 | 339 | 9 |
| 2010-01-16T23:43 | 3670 | 657 | 6.7 | 4.7 | 339 | 9 |
| 2010-01-16T23:43 | 3703 | 654 | 6.6 | 4.1 | 342 | 8 |
| 2010-01-16T23:43 | 3744 | 651 | 6.3 | 4.1 | 344 | 8 |
| 2010-01-16T23:44 | 3788 | 648 | 5.9 | 3.9 | 344 | 7 |
| 2010-01-16T23:44 | 3821 | 645 | 5.7 | 4.1 | 342 | 6 |
| 2010-01-16T23:44 | 3854 | 642 | 5.4 | 3.8 | 340 | 6 |
| 2010-01-16T23:44 | 3888 | 640 | 5.2 | 3.7 | 340 | 6 |
| 2010-01-16T23:44 | 3924 | 637 | 4.8 | 3.6 | 341 | 6 |
| 2010-01-16T23:44 | 3955 | 634 | 4.8 | 3.3 | 341 | 6 |
| 2010-01-16T23:45 | 3984 | 632 | 4.7 | 3.2 | 341 | 6 |
| 2010-01-16T23:45 | 4015 | 630 | 4.9 | 3.0 | 339 | 7 |
| 2010-01-16T23:45 | 4046 | 627 | 4.7 | 2.4 | 339 | 7 |
| 2010-01-16T23:45 | 4080 | 625 | 4.5 | 2.2 | 340 | 7 |
| 2010-01-16T23:45 | 4111 | 623 | 4.3 | 2.0 | 342 | 7 |
| 2010-01-16T23:45 | 4141 | 620 | 4.3 | 2.0 | 342 | 7 |
| 2010-01-16T23:46 | 4174 | 618 | 4.2 | 1.9 | 342 | 7 |
| 2010-01-16T23:46 | 4206 | 615 | 3.9 | 1.7 | 341 | 7 |
| 2010-01-16T23:46 | 4239 | 613 | 3.7 | 1.8 | 341 | 7 |
| 2010-01-16T23:46 | 4273 | 610 | 3.4 | 1.8 | 341 | 8 |
| 2010-01-16T23:46 | 4307 | 608 | 3.3 | 1.4 | 342 | 8 |
| 2010-01-16T23:46 | 4342 | 605 | 3.2 | 1.0 | 343 | 8 |
| 2010-01-16T23:47 | 4375 | 603 | 3.0 | 0.7 | 345 | 8 |
| 2010-01-16T23:47 | 4409 | 600 | 2.8 | 0.2 | 346 | 8 |
| 2010-01-16T23:47 | 4443 | 598 | 2.5 | 0.0 | 347 | 8 |
| 2010-01-16T23:47 | 4475 | 595 | 2.2 | -0.1 | 347 | 9 |
| 2010-01-16T23:47 | 4507 | 593 | 2.0 | -0.3 | 346 | 9 |
| 2010-01-16T23:47 | 4539 | 591 | 1.8 | -0.3 | 343 | 8 |
| 2010-01-16T23:48 | 4573 | 588 | 1.7 | -0.6 | 340 | 8 |
| 2010-01-16T23:48 | 4610 | 585 | 1.5 | -0.4 | 338 | 8 |
| 2010-01-16T23:48 | 4649 | 583 | 1.2 | -0.4 | 336 | 8 |
| 2010-01-16T23:48 | 4688 | 580 | 1.0 | -0.5 | 335 | 7 |
| 2010-01-16T23:48 | 4723 | 577 | 0.7 | -0.6 | 337 | 7 |
| 2010-01-16T23:48 | 4757 | 575 | 0.4 | -0.6 | 339 | 7 |
| 2010-01-16T23:49 | 4794 | 572 | 0.3 | -1.1 | 338 | 7 |
| 2010-01-16T23:49 | 4835 | 569 | 0.0 | -1.1 | 332 | 6 |
| 2010-01-16T23:49 | 4874 | 566 | -0.2 | -1.1 | 324 | 6 |
| 2010-01-16T23:49 | 4909 | 564 | 0.4 | -1.4 | 316 | 5 |
| 2010-01-16T23:49 | 4940 | 562 | 0.3 | -2.1 | 308 | 5 |
| 2010-01-16T23:49 | 4973 | 560 | 0.3 | -2.9 | 304 | 5 |
| 2010-01-16T23:50 | 5005 | 557 | 0.2 | -3.3 | 303 | 4 |
| 2010-01-16T23:50 | 5039 | 555 | 0.0 | -2.8 | 303 | 4 |
| 2010-01-16T23:50 | 5072 | 553 | -0.3 | -2.9 | 302 | 4 |
| 2010-01-16T23:50 | 5105 | 550 | -0.6 | -3.1 | 302 | 4 |
| 2010-01-16T23:50 | 5136 | 548 | -0.8 | -3.1 | 303 | 4 |
| 2010-01-16T23:50 | 5168 | 546 | -1.0 | -3.6 | 304 | 3 |
| 2010-01-16T23:51 | 5202 | 544 | -1.1 | -3.5 | 306 | 3 |
| 2010-01-16T23:51 | 5234 | 542 | -1.2 | -3.6 | 307 | 3 |
| 2010-01-16T23:51 | 5268 | 539 | -1.1 | -3.5 | 305 | 4 |
| 2010-01-16T23:51 | 5303 | 537 | -0.8 | -4.5 | 300 | 4 |
| 2010-01-16T23:51 | 5336 | 535 | -0.5 | -6.7 | 295 | 5 |
| 2010-01-16T23:51 | 5370 | 532 | -0.7 | -7.4 | 293 | 5 |
| 2010-01-16T23:52 | 5404 | 530 | -0.9 | -7.3 | 293 | 5 |
| 2010-01-16T23:52 | 5439 | 528 | -1.1 | -7.2 | 294 | 5 |
| 2010-01-16T23:52 | 5474 | 526 | -1.4 | -7.2 | 293 | 5 |
| 2010-01-16T23:52 | 5508 | 523 | -1.7 | -7.3 | 289 | 5 |
| 2010-01-16T23:52 | 5544 | 521 | -1.9 | -8.0 | 282 | 4 |
| 2010-01-16T23:52 | 5580 | 519 | -2.2 | -7.4 | 273 | 4 |
| 2010-01-16T23:53 | 5626 | 516 | -2.4 | -6.3 | 260 | 4 |
| 2010-01-16T23:53 | 5662 | 513 | -2.3 | -6.6 | 249 | 4 |
| 2010-01-16T23:53 | 5696 | 511 | -2.5 | -7.1 | 245 | 4 |
| 2010-01-16T23:53 | 5730 | 509 | -2.8 | -7.4 | 245 | 4 |
| 2010-01-16T23:53 | 5766 | 507 | -2.9 | -7.1 | 242 | 4 |
| 2010-01-16T23:53 | 5803 | 504 | -3.2 | -6.8 | 236 | 5 |
| 2010-01-16T23:54 | 5846 | 502 | -3.5 | -6.9 | 233 | 5 |
| 2010-01-16T23:54 | 5884 | 499 | -3.8 | -7.1 | 234 | 6 |
| 2010-01-16T23:54 | 5917 | 497 | -3.9 | -7.1 | 239 | 6 |
| 2010-01-16T23:54 | 5956 | 495 | -4.1 | -7.6 | 243 | 6 |
| 2010-01-16T23:54 | 5994 | 492 | -4.5 | -7.6 | 244 | 6 |
| 2010-01-16T23:54 | 6029 | 490 | -4.7 | -7.9 | 245 | 5 |
| 2010-01-16T23:55 | 6067 | 488 | -5.0 | -8.1 | 248 | 5 |
| 2010-01-16T23:55 | 6103 | 485 | -5.3 | -8.3 | 248 | 5 |
| 2010-01-16T23:55 | 6138 | 483 | -5.6 | -8.4 | 247 | 5 |
| 2010-01-16T23:55 | 6175 | 481 | -6.0 | -8.6 | 246 | 5 |
| 2010-01-16T23:55 | 6209 | 479 | -6.2 | -8.6 | 246 | 4 |
| 2010-01-16T23:55 | 6243 | 477 | -6.6 | -8.6 | 246 | 4 |
| 2010-01-16T23:56 | 6277 | 475 | -6.9 | -8.7 | 246 | 4 |
| 2010-01-16T23:56 | 6313 | 473 | -7.2 | -8.8 | 244 | 4 |
| 2010-01-16T23:56 | 6350 | 470 | -7.2 | -9.1 | 243 | 3 |
| 2010-01-16T23:56 | 6384 | 468 | -7.4 | -9.6 | 246 | 2 |
| 2010-01-16T23:56 | 6417 | 466 | -7.5 | -9.7 | 249 | 2 |
| 2010-01-16T23:56 | 6449 | 464 | -7.5 | -10.3 | 251 | 2 |
| 2010-01-16T23:57 | 6482 | 462 | -7.7 | -10.6 | 252 | 2 |
| 2010-01-16T23:57 | 6517 | 460 | -8.0 | -10.6 | 254 | 2 |
| 2010-01-16T23:57 | 6552 | 458 | -8.2 | -10.7 | 257 | 3 |
| 2010-01-16T23:57 | 6587 | 456 | -8.5 | -11.2 | 259 | 3 |
| 2010-01-16T23:57 | 6623 | 454 | -8.7 | -11.0 | 261 | 4 |
| 2010-01-16T23:57 | 6660 | 452 | -9.0 | -11.0 | 264 | 4 |
| 2010-01-16T23:58 | 6696 | 450 | -9.3 | -11.2 | 268 | 4 |
| 2010-01-16T23:58 | 6732 | 448 | -9.6 | -11.3 | 272 | 4 |
| 2010-01-16T23:58 | 6770 | 446 | -9.8 | -11.5 | 276 | 5 |
| 2010-01-16T23:58 | 6809 | 443 | -10.0 | -11.9 | 275 | 5 |
| 2010-01-16T23:58 | 6846 | 441 | -10.0 | -12.2 | 272 | 5 |
| 2010-01-16T23:58 | 6882 | 439 | -10.1 | -12.8 | 270 | 6 |
| 2010-01-16T23:59 | 6918 | 437 | -9.7 | -13.8 | 270 | 6 |
| 2010-01-16T23:59 | 6963 | 435 | -9.9 | -14.3 | 271 | 5 |
| 2010-01-16T23:59 | 7005 | 432 | -10.2 | -14.5 | 271 | 4 |
| 2010-01-16T23:59 | 7051 | 430 | -10.5 | -14.8 | 272 | 3 |
| 2010-01-16T23:59 | 7113 | 426 | -11.1 | -14.9 | 273 | 2 |
| 2010-01-16T23:59 | 7152 | 424 | -11.2 | -14.8 | 259 | 1 |
| 2010-01-17T00:00 | 7189 | 422 | -11.4 | -15.1 | 232 | 1 |
| 2010-01-17T00:00 | 7224 | 420 | -11.6 | -15.1 | 210 | 2 |
| 2010-01-17T00:00 | 7259 | 418 | -11.9 | -15.2 | 194 | 2 |
| 2010-01-17T00:00 | 7294 | 416 | -11.9 | -15.9 | 189 | 2 |
| 2010-01-17T00:00 | 7330 | 414 | -12.2 | -15.9 | 193 | 2 |
| 2010-01-17T00:00 | 7366 | 412 | -12.3 | -16.2 | 198 | 2 |
| 2010-01-17T00:01 | 7401 | 411 | -12.5 | -16.8 | 200 | 2 |
| 2010-01-17T00:01 | 7437 | 409 | -12.8 | -17.1 | 197 | 2 |
| 2010-01-17T00:01 | 7474 | 407 | -13.2 | -17.6 | 192 | 2 |
| 2010-01-17T00:01 | 7509 | 405 | -13.5 | -18.0 | 192 | 2 |
| 2010-01-17T00:01 | 7547 | 403 | -13.7 | -18.5 | 201 | 2 |
| 2010-01-17T00:01 | 7580 | 401 | -13.7 | -19.1 | 212 | 3 |
| 2010-01-17T00:02 | 7617 | 399 | -13.9 | -18.7 | 219 | 3 |
| 2010-01-17T00:02 | 7652 | 397 | -14.2 | -18.6 | 217 | 3 |
| 2010-01-17T00:02 | 7687 | 395 | -14.3 | -19.0 | 208 | 3 |
| 2010-01-17T00:02 | 7720 | 394 | -14.6 | -20.0 | 195 | 3 |
| 2010-01-17T00:02 | 7754 | 392 | -14.5 | -20.9 | 184 | 3 |
| 2010-01-17T00:02 | 7788 | 390 | -14.6 | -20.7 | 175 | 4 |
| 2010-01-17T00:03 | 7823 | 388 | -14.9 | -20.6 | 167 | 4 |
| 2010-01-17T00:03 | 7859 | 387 | -15.0 | -20.7 | 157 | 4 |
| 2010-01-17T00:03 | 7894 | 385 | -15.2 | -21.0 | 147 | 4 |
| 2010-01-17T00:03 | 7931 | 383 | -15.5 | -21.2 | 136 | 4 |
| 2010-01-17T00:03 | 7965 | 381 | -15.5 | -21.7 | 127 | 4 |
| 2010-01-17T00:03 | 7999 | 379 | -15.9 | -22.4 | 122 | 4 |
| 2010-01-17T00:04 | 8036 | 378 | -16.2 | -22.6 | 121 | 4 |
| 2010-01-17T00:04 | 8074 | 376 | -16.6 | -22.8 | 122 | 5 |
| 2010-01-17T00:04 | 8109 | 374 | -16.9 | -23.0 | 120 | 5 |
| 2010-01-17T00:04 | 8145 | 372 | -17.2 | -23.7 | 118 | 6 |
| 2010-01-17T00:04 | 8180 | 370 | -17.5 | -23.9 | 116 | 6 |
| 2010-01-17T00:04 | 8214 | 369 | -17.8 | -23.8 | 116 | 6 |
| 2010-01-17T00:05 | 8247 | 367 | -18.0 | -23.5 | 117 | 6 |
| 2010-01-17T00:05 | 8281 | 365 | -18.2 | -24.0 | 118 | 6 |
| 2010-01-17T00:05 | 8316 | 364 | -18.5 | -24.5 | 118 | 5 |
| 2010-01-17T00:05 | 8349 | 362 | -18.8 | -25.0 | 118 | 5 |
| 2010-01-17T00:05 | 8384 | 360 | -18.9 | -25.5 | 117 | 5 |
| 2010-01-17T00:05 | 8418 | 359 | -19.2 | -25.8 | 116 | 5 |
| 2010-01-17T00:06 | 8451 | 357 | -19.4 | -25.8 | 114 | 5 |
| 2010-01-17T00:06 | 8487 | 355 | -19.7 | -26.0 | 113 | 5 |
| 2010-01-17T00:06 | 8521 | 354 | -20.0 | -26.4 | 113 | 5 |
| 2010-01-17T00:06 | 8555 | 352 | -20.2 | -27.3 | 114 | 5 |
| 2010-01-17T00:06 | 8588 | 351 | -20.5 | -27.1 | 114 | 5 |
| 2010-01-17T00:06 | 8623 | 349 | -20.8 | -27.2 | 112 | 5 |
| 2010-01-17T00:07 | 8656 | 347 | -21.0 | -27.2 | 110 | 5 |
| 2010-01-17T00:07 | 8690 | 346 | -21.2 | -27.2 | 111 | 5 |
| 2010-01-17T00:07 | 8723 | 344 | -21.4 | -28.3 | 113 | 5 |
| 2010-01-17T00:07 | 8757 | 343 | -21.7 | -28.6 | 117 | 5 |
| 2010-01-17T00:07 | 8793 | 341 | -21.9 | -28.6 | 122 | 5 |
| 2010-01-17T00:07 | 8827 | 339 | -22.1 | -29.1 | 124 | 5 |
| 2010-01-17T00:08 | 8860 | 338 | -22.3 | -29.9 | 122 | 5 |
| 2010-01-17T00:08 | 8896 | 336 | -22.6 | -30.3 | 119 | 4 |
| 2010-01-17T00:08 | 8932 | 335 | -22.9 | -30.8 | 121 | 4 |
| 2010-01-17T00:08 | 8969 | 333 | -23.2 | -30.7 | 126 | 4 |
| 2010-01-17T00:08 | 9004 | 331 | -23.3 | -31.5 | 132 | 4 |
| 2010-01-17T00:08 | 9039 | 330 | -23.5 | -33.3 | 137 | 4 |
| 2010-01-17T00:09 | 9074 | 328 | -23.7 | -32.6 | 141 | 4 |
| 2010-01-17T00:09 | 9111 | 327 | -23.9 | -32.8 | 143 | 4 |
| 2010-01-17T00:09 | 9146 | 325 | -24.1 | -32.4 | 142 | 4 |
| 2010-01-17T00:09 | 9182 | 323 | -24.4 | -32.0 | 139 | 4 |
| 2010-01-17T00:09 | 9218 | 322 | -24.6 | -32.8 | 137 | 5 |
| 2010-01-17T00:09 | 9256 | 320 | -24.9 | -32.8 | 136 | 5 |
| 2010-01-17T00:10 | 9292 | 319 | -25.3 | -32.2 | 136 | 5 |
| 2010-01-17T00:10 | 9328 | 317 | -25.5 | -32.6 | 135 | 5 |
| 2010-01-17T00:10 | 9364 | 315 | -25.9 | -32.9 | 135 | 5 |
| 2010-01-17T00:10 | 9401 | 314 | -26.2 | -33.5 | 136 | 5 |
| 2010-01-17T00:10 | 9438 | 312 | -26.5 | -34.1 | 137 | 5 |
| 2010-01-17T00:10 | 9475 | 311 | -26.9 | -34.3 | 137 | 5 |
| 2010-01-17T00:11 | 9512 | 309 | -27.1 | -35.0 | 136 | 5 |
| 2010-01-17T00:11 | 9549 | 307 | -27.4 | -35.6 | 133 | 6 |
| 2010-01-17T00:11 | 9586 | 306 | -27.5 | -36.4 | 129 | 6 |
| 2010-01-17T00:11 | 9621 | 304 | -27.8 | -36.9 | 128 | 6 |
| 2010-01-17T00:11 | 9659 | 303 | -28.0 | -37.5 | 128 | 6 |
| 2010-01-17T00:11 | 9695 | 301 | -28.0 | -37.4 | 128 | 7 |
| 2010-01-17T00:12 | 9734 | 300 | -28.2 | -37.4 | 127 | 7 |
| 2010-01-17T00:12 | 9772 | 298 | -28.5 | -37.5 | 125 | 7 |
| 2010-01-17T00:12 | 9809 | 296 | -28.9 | -37.6 | 124 | 7 |
| 2010-01-17T00:12 | 9849 | 295 | -29.2 | -37.8 | 123 | 8 |
| 2010-01-17T00:12 | 9895 | 293 | -29.6 | -38.7 | 120 | 8 |
| 2010-01-17T00:12 | 9936 | 291 | -30.0 | -39.3 | 118 | 8 |
| 2010-01-17T00:13 | 9973 | 290 | -30.3 | -41.0 | 116 | 8 |
| 2010-01-17T00:13 | 10012 | 288 | -30.6 | -41.1 | 115 | 8 |
| 2010-01-17T00:13 | 10052 | 287 | -31.0 | -40.9 | 115 | 9 |
| 2010-01-17T00:13 | 10090 | 285 | -31.3 | -41.1 | 115 | 9 |
| 2010-01-17T00:13 | 10129 | 283 | -31.7 | -41.3 | 114 | 9 |
| 2010-01-17T00:13 | 10168 | 282 | -32.0 | -41.5 | 113 | 9 |
| 2010-01-17T00:14 | 10209 | 280 | -32.3 | -41.9 | 111 | 9 |
| 2010-01-17T00:14 | 10250 | 279 | -32.7 | -42.5 | 111 | 9 |
| 2010-01-17T00:14 | 10290 | 277 | -33.0 | -42.6 | 112 | 8 |
| 2010-01-17T00:14 | 10329 | 275 | -33.3 | -43.3 | 112 | 8 |
| 2010-01-17T00:14 | 10371 | 274 | -33.7 | -43.6 | 113 | 8 |
| 2010-01-17T00:14 | 10410 | 272 | -34.1 | -43.2 | 113 | 8 |
| 2010-01-17T00:15 | 10450 | 271 | -34.5 | -42.7 | 112 | 8 |
| 2010-01-17T00:15 | 10488 | 269 | -34.6 | -42.7 | 111 | 8 |
| 2010-01-17T00:15 | 10526 | 268 | -34.9 | -43.8 | 110 | 8 |
| 2010-01-17T00:15 | 10563 | 266 | -35.3 | -44.8 | 110 | 8 |
| 2010-01-17T00:15 | 10603 | 265 | -35.6 | -44.1 | 111 | 8 |
| 2010-01-17T00:15 | 10641 | 263 | -36.1 | -43.6 | 113 | 8 |
| 2010-01-17T00:16 | 10678 | 262 | -36.5 | -43.4 | 116 | 8 |
| 2010-01-17T00:16 | 10715 | 261 | -36.6 | -45.3 | 117 | 8 |
| 2010-01-17T00:16 | 10754 | 259 | -37.0 | -46.3 | 118 | 8 |
| 2010-01-17T00:16 | 10790 | 258 | -37.3 | -47.5 | 120 | 8 |
| 2010-01-17T00:16 | 10826 | 256 | -37.6 | -48.0 | 122 | 8 |
| 2010-01-17T00:16 | 10863 | 255 | -38.0 | -48.0 | 125 | 7 |
| 2010-01-17T00:17 | 10899 | 254 | -38.3 | -47.5 | 128 | 7 |
| 2010-01-17T00:17 | 10933 | 253 | -38.6 | -47.3 | 131 | 7 |
| 2010-01-17T00:17 | 10966 | 251 | -38.9 | -47.0 | 133 | 7 |
| 2010-01-17T00:17 | 11001 | 250 | -39.2 | -46.8 | 135 | 8 |
| 2010-01-17T00:17 | 11036 | 249 | -39.5 | -46.4 | 137 | 8 |
| 2010-01-17T00:17 | 11068 | 248 | -39.8 | -46.3 | 139 | 8 |
| 2010-01-17T00:18 | 11103 | 246 | -40.1 | -46.1 | 142 | 9 |
| 2010-01-17T00:18 | 11137 | 245 | -40.4 | -46.0 | 146 | 9 |
| 2010-01-17T00:18 | 11170 | 244 | -40.7 | -46.1 | 148 | 10 |
| 2010-01-17T00:18 | 11203 | 243 | -40.9 | -46.5 | 149 | 10 |
| 2010-01-17T00:18 | 11233 | 242 | -41.0 | -47.6 | 148 | 10 |
| 2010-01-17T00:18 | 11264 | 241 | -41.3 | -49.3 | 146 | 11 |
| 2010-01-17T00:19 | 11295 | 239 | -41.3 | -50.2 | 144 | 11 |
| 2010-01-17T00:19 | 11326 | 238 | -41.6 | -50.7 | 143 | 11 |
| 2010-01-17T00:19 | 11357 | 237 | -41.9 | -51.6 | 143 | 11 |
| 2010-01-17T00:19 | 11389 | 236 | -42.2 | -52.5 | 143 | 11 |
| 2010-01-17T00:19 | 11420 | 235 | -42.5 | -53.6 | 142 | 11 |
| 2010-01-17T00:19 | 11451 | 234 | -42.8 | -53.9 | 142 | 11 |
| 2010-01-17T00:20 | 11482 | 233 | -43.0 | -53.5 | 142 | 11 |
| 2010-01-17T00:20 | 11512 | 232 | -43.3 | -53.7 | 143 | 11 |
| 2010-01-17T00:20 | 11544 | 231 | -43.5 | -54.4 | 143 | 10 |
| 2010-01-17T00:20 | 11574 | 230 | -43.8 | -54.4 | 143 | 10 |
| 2010-01-17T00:20 | 11605 | 229 | -44.1 | -54.3 | 142 | 10 |
| 2010-01-17T00:20 | 11638 | 228 | -44.5 | -54.2 | 142 | 10 |
| 2010-01-17T00:21 | 11669 | 227 | -44.7 | -53.9 | 141 | 10 |
| 2010-01-17T00:21 | 11702 | 225 | -44.9 | -55.1 | 140 | 10 |
| 2010-01-17T00:21 | 11735 | 224 | -45.0 | -56.3 | 138 | 10 |
| 2010-01-17T00:21 | 11771 | 223 | -45.3 | -57.3 | 134 | 10 |
| 2010-01-17T00:21 | 11813 | 222 | -45.7 | -58.7 | 131 | 10 |
| 2010-01-17T00:21 | 11858 | 220 | -46.1 | -59.5 | 128 | 10 |
| 2010-01-17T00:22 | 11904 | 219 | -46.5 | -59.9 | 127 | 11 |
| 2010-01-17T00:22 | 11943 | 217 | -46.9 | -60.0 | 128 | 12 |
| 2010-01-17T00:22 | 11982 | 216 | -47.3 | -60.1 | 129 | 12 |
| 2010-01-17T00:22 | 12016 | 215 | -47.6 | -60.3 | 128 | 13 |
| 2010-01-17T00:22 | 12058 | 214 | -48.0 | -60.2 | 127 | 13 |
| 2010-01-17T00:22 | 12088 | 213 | -48.3 | -60.0 | 126 | 13 |
| 2010-01-17T00:23 | 12123 | 212 | -48.7 | -59.7 | 125 | 13 |
| 2010-01-17T00:23 | 12152 | 211 | -48.9 | -59.3 | 125 | 12 |
| 2010-01-17T00:23 | 12186 | 210 | -49.3 | -59.3 | 126 | 12 |
| 2010-01-17T00:23 | 12217 | 209 | -49.5 | -59.3 | 126 | 13 |
| 2010-01-17T00:23 | 12249 | 208 | -49.8 | -59.0 | 125 | 13 |
| 2010-01-17T00:23 | 12278 | 207 | -50.0 | -58.4 | 124 | 13 |
| 2010-01-17T00:24 | 12309 | 206 | -50.3 | -58.3 | 123 | 13 |
| 2010-01-17T00:24 | 12338 | 205 | -50.3 | -58.2 | 123 | 13 |
| 2010-01-17T00:24 | 12369 | 204 | -50.5 | -58.4 | 122 | 13 |
| 2010-01-17T00:24 | 12399 | 203 | -50.7 | -58.7 | 122 | 13 |
| 2010-01-17T00:24 | 12432 | 202 | -50.9 | -59.3 | 122 | 14 |
| 2010-01-17T00:24 | 12469 | 201 | -51.3 | -59.7 | 122 | 14 |
| 2010-01-17T00:25 | 12508 | 199 | -51.7 | -60.1 | 121 | 15 |
| 2010-01-17T00:25 | 12548 | 198 | -52.1 | -60.4 | 121 | 15 |
| 2010-01-17T00:25 | 12583 | 197 | -52.3 | -60.6 | 120 | 15 |
| 2010-01-17T00:25 | 12622 | 196 | -52.7 | -61.3 | 120 | 15 |
| 2010-01-17T00:25 | 12662 | 195 | -53.1 | -61.8 | 119 | 15 |
| 2010-01-17T00:25 | 12701 | 194 | -53.4 | -62.3 | 118 | 15 |
| 2010-01-17T00:26 | 12744 | 192 | -53.8 | -62.9 | 118 | 15 |
| 2010-01-17T00:26 | 12791 | 191 | -54.3 | -63.1 | 118 | 15 |
| 2010-01-17T00:26 | 12836 | 190 | -54.8 | -63.4 | 118 | 14 |
| 2010-01-17T00:26 | 12879 | 188 | -55.1 | -63.5 | 118 | 14 |
| 2010-01-17T00:26 | 12924 | 187 | -55.6 | -63.5 | 117 | 14 |
| 2010-01-17T00:26 | 12973 | 186 | -56.1 | -63.7 | 116 | 15 |
| 2010-01-17T00:27 | 13021 | 184 | -56.6 | -64.0 | 116 | 15 |
| 2010-01-17T00:27 | 13068 | 183 | -57.0 | -64.0 | 115 | 15 |
| 2010-01-17T00:27 | 13111 | 182 | -57.3 | -64.6 | 114 | 16 |
| 2010-01-17T00:27 | 13156 | 180 | -57.6 | -65.1 | 113 | 16 |
| 2010-01-17T00:27 | 13199 | 179 | -58.1 | -65.8 | 112 | 16 |
| 2010-01-17T00:27 | 13243 | 178 | -58.5 | -66.1 | 112 | 16 |
| 2010-01-17T00:28 | 13289 | 176 | -58.9 | -66.4 | 113 | 16 |
| 2010-01-17T00:28 | 13335 | 175 | -59.5 | -66.8 | 114 | 17 |
| 2010-01-17T00:28 | 13378 | 174 | -59.8 | -67.1 | 115 | 17 |
| 2010-01-17T00:28 | 13421 | 173 | -60.2 | -67.3 | 116 | 17 |
| 2010-01-17T00:28 | 13463 | 172 | -60.6 | -67.5 | 116 | 17 |
| 2010-01-17T00:28 | 13506 | 170 | -61.0 | -67.9 | 116 | 17 |
| 2010-01-17T00:29 | 13548 | 169 | -61.4 | -68.2 | 116 | 17 |
| 2010-01-17T00:29 | 13591 | 168 | -61.9 | -68.7 | 115 | 17 |
| 2010-01-17T00:29 | 13633 | 167 | -62.2 | -68.7 | 115 | 17 |
| 2010-01-17T00:29 | 13674 | 166 | -62.7 | -69.2 | 115 | 17 |
| 2010-01-17T00:29 | 13715 | 165 | -62.9 | -69.3 | 115 | 17 |
| 2010-01-17T00:29 | 13754 | 164 | -63.4 | -69.9 | 114 | 17 |
| 2010-01-17T00:30 | 13796 | 163 | -63.8 | -70.2 | 114 | 18 |
| 2010-01-17T00:30 | 13837 | 162 | -64.2 | -70.6 | 114 | 18 |
| 2010-01-17T00:30 | 13880 | 160 | -64.5 | -70.9 | 114 | 18 |
| 2010-01-17T00:30 | 13923 | 159 | -64.8 | -71.1 | 113 | 18 |
| 2010-01-17T00:30 | 13965 | 158 | -65.3 | -71.6 | 111 | 19 |
| 2010-01-17T00:30 | 14006 | 157 | -65.7 | -71.9 | 111 | 19 |
| 2010-01-17T00:31 | 14046 | 156 | -66.1 | -72.3 | 111 | 19 |
| 2010-01-17T00:31 | 14085 | 155 | -66.4 | -72.6 | 111 | 19 |
| 2010-01-17T00:31 | 14123 | 154 | -66.9 | -73.0 | 111 | 19 |
| 2010-01-17T00:31 | 14162 | 153 | -67.2 | -73.2 | 110 | 20 |
| 2010-01-17T00:31 | 14203 | 152 | -67.6 | -73.6 | 110 | 20 |
| 2010-01-17T00:31 | 14244 | 151 | -67.9 | -73.9 | 110 | 20 |
| 2010-01-17T00:32 | 14285 | 150 | -68.3 | -74.4 | 111 | 20 |
| 2010-01-17T00:32 | 14326 | 149 | -68.7 | -74.8 | 110 | 20 |
| 2010-01-17T00:32 | 14369 | 148 | -69.1 | -75.2 | 110 | 20 |
| 2010-01-17T00:32 | 14412 | 147 | -69.6 | -75.7 | 109 | 20 |
| 2010-01-17T00:32 | 14456 | 146 | -69.9 | -76.0 | 108 | 20 |
| 2010-01-17T00:32 | 14500 | 145 | -70.3 | -76.5 | 108 | 20 |
| 2010-01-17T00:33 | 14546 | 144 | -70.8 | -77.0 | 107 | 20 |
| 2010-01-17T00:33 | 14592 | 142 | -71.3 | -77.5 | 106 | 20 |
| 2010-01-17T00:33 | 14638 | 141 | -71.7 | -77.9 | 105 | 20 |
| 2010-01-17T00:33 | 14689 | 140 | -72.1 | -78.2 | 104 | 21 |
| 2010-01-17T00:33 | 14732 | 139 | -72.4 | -78.5 | 103 | 21 |
| 2010-01-17T00:33 | 14776 | 138 | -72.7 | -78.9 | 101 | 21 |
| 2010-01-17T00:34 | 14817 | 137 | -73.2 | -79.4 | 100 | 21 |
| 2010-01-17T00:34 | 14861 | 136 | -73.6 | -79.8 | 99 | 21 |
| 2010-01-17T00:34 | 14906 | 135 | -73.8 | -80.0 | 98 | 21 |
| 2010-01-17T00:34 | 14954 | 134 | -74.1 | -80.3 | 98 | 23 |
| 2010-01-17T00:34 | 14992 | 133 | -74.3 | -80.5 | 97 | 26 |
| 2010-01-17T00:34 | 15051 | 132 | -74.8 | -80.9 | 96 | 27 |
| 2010-01-17T00:35 | 15104 | 131 | -75.2 | -81.3 | 94 | 28 |
| 2010-01-17T00:35 | 15152 | 129 | -75.5 | -81.5 | 93 | 28 |
| 2010-01-17T00:35 | 15215 | 128 | -76.1 | -82.1 | 91 | 28 |
| 2010-01-17T00:35 | 15260 | 127 | -76.4 | -82.5 | 91 | 28 |
| 2010-01-17T00:35 | 15305 | 126 | -76.9 | -82.9 | 90 | 28 |
| 2010-01-17T00:35 | 15349 | 125 | -77.3 | -83.3 | 90 | 28 |
| 2010-01-17T00:36 | 15392 | 124 | -77.7 | -83.7 | 89 | 29 |
| 2010-01-17T00:36 | 15432 | 123 | -78.0 | -84.1 | 89 | 29 |
| 2010-01-17T00:36 | 15471 | 122 | -78.4 | -84.5 | 89 | 30 |
| 2010-01-17T00:36 | 15513 | 122 | -78.6 | -84.7 | 88 | 31 |
| 2010-01-17T00:36 | 15552 | 121 | -78.9 | -85.0 | 88 | 32 |
| 2010-01-17T00:36 | 15590 | 120 | -79.1 | -85.2 | 87 | 33 |
| 2010-01-17T00:37 | 15628 | 119 | -79.1 | -85.2 | 86 | 34 |
| 2010-01-17T00:37 | 15666 | 118 | -78.7 | -84.8 | 85 | 34 |
| 2010-01-17T00:37 | 15703 | 118 | -78.9 | -85.0 | 84 | 34 |
| 2010-01-17T00:37 | 15741 | 117 | -79.0 | -85.1 | 83 | 35 |
| 2010-01-17T00:37 | 15780 | 116 | -79.4 | -85.6 | 82 | 35 |
| 2010-01-17T00:37 | 15820 | 115 | -79.6 | -85.8 | 81 | 35 |
| 2010-01-17T00:38 | 15861 | 114 | -79.9 | -86.1 | 81 | 35 |
| 2010-01-17T00:38 | 15901 | 114 | -80.3 | -86.5 | 81 | 35 |
| 2010-01-17T00:38 | 15940 | 113 | -80.7 | -86.8 | 81 | 35 |
| 2010-01-17T00:38 | 15982 | 112 | -81.0 | -87.2 | 80 | 35 |
| 2010-01-17T00:38 | 16024 | 111 | -81.3 | -87.5 | 79 | 35 |
| 2010-01-17T00:38 | 16066 | 110 | -81.6 | -87.8 | 78 | 35 |
| 2010-01-17T00:39 | 16109 | 109 | -81.8 | -88.1 | 77 | 35 |
| 2010-01-17T00:39 | 16152 | 109 | -82.2 | -88.5 | 77 | 34 |
| 2010-01-17T00:39 | 16194 | 108 | -82.0 | -88.3 | 76 | 35 |
| 2010-01-17T00:39 | 16234 | 107 | -82.4 | -88.8 | 77 | 35 |
| 2010-01-17T00:39 | 16276 | 106 | -82.1 | -88.6 | 77 | 34 |
| 2010-01-17T00:39 | 16318 | 105 | -80.6 | -87.3 | 78 | 32 |
| 2010-01-17T00:40 | 16357 | 105 | -80.0 | -86.8 | 79 | 29 |
| 2010-01-17T00:40 | 16395 | 104 | -79.2 | -86.2 | 80 | 27 |
| 2010-01-17T00:40 | 16429 | 103 | -78.7 | -85.8 | 81 | 25 |
| 2010-01-17T00:40 | 16467 | 103 | -78.4 | -85.8 | 82 | 23 |
| 2010-01-17T00:40 | 16512 | 102 | -78.3 | -85.9 | 82 | 21 |
| 2010-01-17T00:40 | 16550 | 101 | -77.8 | -85.7 | 81 | 19 |
| 2010-01-17T00:41 | 16588 | 100 | -77.8 | -85.8 | 80 | 17 |
| 2010-01-17T00:41 | 16627 | 100 | -78.1 | -86.2 | 80 | 16 |
| 2010-01-17T00:41 | 16665 | 99 | -78.2 | -86.6 | 79 | 15 |
| 2010-01-17T00:41 | 16708 | 98 | -78.2 | -86.8 | 78 | 13 |
| 2010-01-17T00:41 | 16748 | 98 | -78.0 | -86.8 | 78 | 11 |
| 2010-01-17T00:41 | 16789 | 97 | -77.8 | -86.8 | 80 | 9 |
| 2010-01-17T00:42 | 16832 | 96 | -77.7 | -86.9 | 81 | 8 |
| 2010-01-17T00:42 | 16872 | 96 | -77.9 | -87.3 | 81 | 6 |
| 2010-01-17T00:42 | 16914 | 95 | -78.1 | -87.6 | 82 | 5 |
| 2010-01-17T00:42 | 16953 | 94 | -78.2 | -87.9 | 88 | 3 |
| 2010-01-17T00:42 | 16993 | 94 | -78.4 | -88.2 | 103 | 2 |
| 2010-01-17T00:42 | 17034 | 93 | -78.5 | -88.5 | 121 | 2 |
| 2010-01-17T00:43 | 17075 | 92 | -78.9 | -88.9 | 131 | 2 |
| 2010-01-17T00:43 | 17117 | 92 | -79.0 | -89.2 | 132 | 3 |
| 2010-01-17T00:43 | 17157 | 91 | -79.5 | -89.7 | 129 | 3 |
| 2010-01-17T00:43 | 17197 | 90 | -79.8 | -90.1 | 128 | 4 |
| 2010-01-17T00:43 | 17236 | 90 | -80.4 | -90.7 | 131 | 4 |
| 2010-01-17T00:43 | 17275 | 89 | -80.7 | -91.1 | 134 | 4 |
| 2010-01-17T00:44 | 17314 | 88 | -80.4 | -91.0 | 139 | 3 |
| 2010-01-17T00:44 | 17352 | 88 | -79.3 | -90.1 | 154 | 2 |
| 2010-01-17T00:44 | 17395 | 87 | -79.3 | -90.1 | 211 | 1 |
| 2010-01-17T00:44 | 17433 | 87 | -79.2 | -90.1 | 266 | 2 |
| 2010-01-17T00:44 | 17473 | 86 | -79.0 | -90.0 | 280 | 3 |
| 2010-01-17T00:44 | 17509 | 85 | -79.4 | -90.4 | 282 | 3 |
| 2010-01-17T00:45 | 17545 | 85 | -79.4 | -90.4 | 278 | 4 |
| 2010-01-17T00:45 | 17582 | 84 | -79.6 | -90.6 | 276 | 5 |
| 2010-01-17T00:45 | 17619 | 84 | -79.4 | -90.7 | 276 | 7 |
| 2010-01-17T00:45 | 17658 | 83 | -78.9 | -90.3 | 277 | 9 |
| 2010-01-17T00:45 | 17694 | 83 | -78.6 | -90.1 | 276 | 10 |
| 2010-01-17T00:45 | 17729 | 82 | -78.7 | -90.3 | 275 | 11 |
| 2010-01-17T00:46 | 17767 | 82 | -78.7 | -90.3 | 275 | 11 |
| 2010-01-17T00:46 | 17806 | 81 | -79.0 | -90.7 | 275 | 12 |
| 2010-01-17T00:46 | 17846 | 81 | -78.9 | -90.7 | 276 | 12 |
| 2010-01-17T00:46 | 17886 | 80 | -79.4 | -91.2 | 278 | 12 |
| 2010-01-17T00:46 | 17927 | 79 | -79.6 | -91.4 | 279 | 11 |
| 2010-01-17T00:46 | 17969 | 79 | -79.6 | -91.6 | 280 | 11 |
| 2010-01-17T00:47 | 18011 | 78 | -79.9 | -91.8 | 281 | 11 |
| 2010-01-17T00:47 | 18054 | 78 | -80.0 | -92.0 | 281 | 10 |
| 2010-01-17T00:47 | 18096 | 77 | -80.1 | -92.1 | 279 | 10 |
| 2010-01-17T00:47 | 18138 | 77 | -80.1 | -92.2 | 277 | 10 |
| 2010-01-17T00:47 | 18180 | 76 | -79.8 | -92.0 | 275 | 9 |
| 2010-01-17T00:47 | 18220 | 75 | -79.1 | -91.3 | 273 | 9 |
| 2010-01-17T00:48 | 18261 | 75 | -78.8 | -91.2 | 268 | 8 |
| 2010-01-17T00:48 | 18301 | 74 | -78.3 | -90.8 | 263 | 8 |
| 2010-01-17T00:48 | 18341 | 74 | -77.5 | -90.1 | 258 | 7 |
| 2010-01-17T00:48 | 18381 | 73 | -76.6 | -89.4 | 250 | 8 |
| 2010-01-17T00:48 | 18421 | 73 | -76.2 | -89.2 | 243 | 8 |
| 2010-01-17T00:48 | 18459 | 72 | -76.2 | -89.3 | 239 | 8 |
| 2010-01-17T00:49 | 18499 | 72 | -76.4 | -89.6 | 236 | 8 |
| 2010-01-17T00:49 | 18540 | 71 | -76.1 | -89.6 | 233 | 8 |
| 2010-01-17T00:49 | 18580 | 71 | -75.2 | -89.0 | 231 | 9 |
| 2010-01-17T00:49 | 18622 | 70 | -75.3 | -89.2 | 231 | 10 |
| 2010-01-17T00:49 | 18663 | 70 | -75.3 | -89.3 | 233 | 10 |
| 2010-01-17T00:49 | 18706 | 69 | -75.3 | -89.4 | 235 | 9 |
| 2010-01-17T00:50 | 18748 | 69 | -75.1 | -89.5 | 236 | 9 |
| 2010-01-17T00:50 | 18792 | 68 | -74.9 | -89.5 | 235 | 8 |
| 2010-01-17T00:50 | 18835 | 68 | -74.9 | -89.6 | 240 | 8 |
| 2010-01-17T00:50 | 18877 | 67 | -74.7 | -89.6 | 248 | 9 |
| 2010-01-17T00:50 | 18920 | 67 | -74.4 | -89.5 | 255 | 9 |
| 2010-01-17T00:50 | 18964 | 66 | -74.3 | -89.6 | 260 | 9 |
| 2010-01-17T00:51 | 19005 | 66 | -74.3 | -89.7 | 266 | 9 |
| 2010-01-17T00:51 | 19045 | 65 | -73.8 | -89.4 | 270 | 10 |
| 2010-01-17T00:51 | 19087 | 65 | -73.7 | -89.5 | 274 | 11 |
| 2010-01-17T00:51 | 19130 | 64 | -73.3 | -89.3 | 276 | 12 |
| 2010-01-17T00:51 | 19171 | 64 | -73.1 | -89.3 | 277 | 12 |
| 2010-01-17T00:51 | 19210 | 64 | -73.2 | -89.5 | 276 | 12 |
| 2010-01-17T00:52 | 19251 | 63 | -73.1 | -89.6 | 275 | 12 |
| 2010-01-17T00:52 | 19289 | 63 | -73.2 | -89.8 | 272 | 12 |
| 2010-01-17T00:52 | 19329 | 62 | -73.3 | -90.1 | 270 | 12 |
| 2010-01-17T00:52 | 19369 | 62 | -73.4 | -90.4 | 269 | 12 |
| 2010-01-17T00:52 | 19407 | 61 | -72.9 | -90.2 | 268 | 12 |
| 2010-01-17T00:52 | 19449 | 61 | -72.2 | -89.7 | 268 | 12 |
| 2010-01-17T00:53 | 19487 | 61 | -72.1 | -89.8 | 267 | 11 |
| 2010-01-17T00:53 | 19527 | 60 | -71.2 | -89.3 | 267 | 11 |
| 2010-01-17T00:53 | 19564 | 60 | -69.7 | -88.3 | 266 | 11 |
| 2010-01-17T00:53 | 19604 | 59 | -70.0 | -88.6 | 266 | 11 |
| 2010-01-17T00:53 | 19643 | 59 | -69.9 | -88.6 | 265 | 11 |
| 2010-01-17T00:53 | 19683 | 59 | -70.1 | -89.0 | 263 | 12 |
| 2010-01-17T00:54 | 19724 | 58 | -70.4 | -89.6 | 260 | 12 |
| 2010-01-17T00:54 | 19766 | 58 | -70.8 | -90.1 | 258 | 13 |
| 2010-01-17T00:54 | 19807 | 57 | -70.9 | -90.5 | 256 | 13 |
| 2010-01-17T00:54 | 19847 | 57 | -71.2 | -90.9 | 257 | 13 |
| 2010-01-17T00:54 | 19887 | 57 | -71.4 | -91.2 | 258 | 13 |
| 2010-01-17T00:54 | 19927 | 56 | -71.6 | -91.6 | 260 | 13 |
| 2010-01-17T00:55 | 19968 | 56 | -71.8 | -91.9 | 261 | 13 |
| 2010-01-17T00:55 | 20010 | 55 | -72.2 | -92.3 | 262 | 13 |
| 2010-01-17T00:55 | 20050 | 55 | -72.8 | -92.8 | 261 | 13 |
| 2010-01-17T00:55 | 20091 | 55 | -73.1 | -93.1 | 259 | 12 |
| 2010-01-17T00:55 | 20133 | 54 | -72.9 | -93.0 | 257 | 12 |
| 2010-01-17T00:55 | 20172 | 54 | -73.1 | -93.1 | 254 | 11 |
| 2010-01-17T00:56 | 20214 | 54 | -73.5 | -93.5 | 253 | 10 |
| 2010-01-17T00:56 | 20254 | 53 | -73.4 | -93.4 | 254 | 9 |
| 2010-01-17T00:56 | 20295 | 53 | -73.2 | -93.2 | 259 | 8 |
| 2010-01-17T00:56 | 20335 | 53 | -72.3 | -92.7 | 268 | 8 |
| 2010-01-17T00:56 | 20375 | 52 | -72.4 | -92.7 | 276 | 8 |
| 2010-01-17T00:56 | 20417 | 52 | -72.6 | -92.8 | 285 | 9 |
| 2010-01-17T00:57 | 20457 | 51 | -71.9 | -92.3 | 292 | 9 |
| 2010-01-17T00:57 | 20497 | 51 | -71.8 | -92.4 | 297 | 8 |
| 2010-01-17T00:57 | 20540 | 51 | -71.7 | -92.6 | 299 | 7 |
| 2010-01-17T00:57 | 20581 | 50 | -71.8 | -92.7 | 302 | 6 |
| 2010-01-17T00:57 | 20625 | 50 | -71.9 | -92.8 | 308 | 6 |
| 2010-01-17T00:57 | 20668 | 50 | -71.3 | -92.3 | 311 | 7 |
| 2010-01-17T00:58 | 20709 | 49 | -71.0 | -92.2 | 312 | 8 |
| 2010-01-17T00:58 | 20754 | 49 | -71.0 | -92.3 | 314 | 9 |
| 2010-01-17T00:58 | 20799 | 49 | -70.9 | -92.3 | 316 | 9 |
| 2010-01-17T00:58 | 20843 | 48 | -71.0 | -92.5 | 316 | 9 |
| 2010-01-17T00:58 | 20887 | 48 | -71.2 | -92.7 | 316 | 10 |
| 2010-01-17T00:58 | 20931 | 47 | -71.5 | -93.0 | 319 | 10 |
| 2010-01-17T00:59 | 20977 | 47 | -71.2 | -93.1 | 322 | 11 |
| 2010-01-17T00:59 | 21021 | 47 | -71.2 | -93.1 | 325 | 11 |
| 2010-01-17T00:59 | 21067 | 46 | -71.4 | -93.4 | 328 | 10 |
| 2010-01-17T00:59 | 21110 | 46 | -71.4 | -93.5 | 331 | 10 |
| 2010-01-17T00:59 | 21155 | 46 | -71.5 | -93.7 | 335 | 9 |
| 2010-01-17T00:59 | 21198 | 45 | -71.6 | -93.8 | 335 | 8 |
| 2010-01-17T01:00 | 21241 | 45 | -71.6 | -94.0 | 330 | 7 |
| 2010-01-17T01:00 | 21285 | 45 | -71.2 | -93.8 | 325 | 6 |
| 2010-01-17T01:00 | 21326 | 44 | -70.5 | -93.4 | 324 | 6 |
| 2010-01-17T01:00 | 21369 | 44 | -70.6 | -93.4 | 329 | 6 |
| 2010-01-17T01:00 | 21409 | 44 | -70.7 | -93.6 | 339 | 5 |
| 2010-01-17T01:00 | 21450 | 43 | -71.0 | -93.8 | 354 | 5 |
| 2010-01-17T01:01 | 21491 | 43 | -71.2 | -94.5 | 13 | 5 |
| 2010-01-17T01:01 | 21531 | 43 | -71.1 | -94.6 | 35 | 5 |
| 2010-01-17T01:01 | 21571 | 43 | -70.6 | -94.5 | 52 | 7 |
| 2010-01-17T01:01 | 21612 | 42 | -69.4 | -93.8 | 63 | 7 |
| 2010-01-17T01:01 | 21651 | 42 | -69.2 | -93.5 | 72 | 7 |
| 2010-01-17T01:01 | 21694 | 42 | -68.9 | -93.6 | 81 | 8 |
| 2010-01-17T01:02 | 21736 | 41 | -68.4 | -93.2 | 90 | 8 |
| 2010-01-17T01:02 | 21781 | 41 | -67.9 | -92.8 | 99 | 9 |
| 2010-01-17T01:02 | 21825 | 41 | -68.1 | -93.1 | 106 | 10 |
| 2010-01-17T01:02 | 21869 | 41 | -68.2 | -93.4 | 111 | 10 |
| 2010-01-17T01:02 | 21912 | 40 | -68.4 | -93.6 | 114 | 11 |
| 2010-01-17T01:02 | 21955 | 40 | -68.6 | -94.0 | 115 | 12 |
| 2010-01-17T01:03 | 21998 | 40 | -68.9 | -94.4 | 116 | 13 |
| 2010-01-17T01:03 | 22045 | 39 | -69.2 | -94.8 | 115 | 13 |
| 2010-01-17T01:03 | 22090 | 39 | -69.3 | -95.1 | 113 | 14 |
| 2010-01-17T01:03 | 22133 | 39 | -68.3 | -94.9 | 112 | 14 |
| 2010-01-17T01:03 | 22177 | 38 | -68.4 | -95.0 | 111 | 14 |
| 2010-01-17T01:03 | 22221 | 38 | -68.4 | -95.0 | 112 | 15 |
| 2010-01-17T01:04 | 22266 | 38 | -68.2 | -95.0 | 113 | 15 |
| 2010-01-17T01:04 | 22308 | 38 | -68.0 | -95.0 | 114 | 15 |
| 2010-01-17T01:04 | 22351 | 37 | -68.4 | -95.2 | 113 | 15 |
| 2010-01-17T01:04 | 22395 | 37 | -68.9 | -95.7 | 112 | 15 |
| 2010-01-17T01:04 | 22434 | 37 | -69.2 | -95.9 | 110 | 15 |
| 2010-01-17T01:04 | 22479 | 37 | -69.4 | -96.3 | 110 | 16 |
| 2010-01-17T01:05 | 22522 | 36 | -68.9 | -96.2 | 112 | 17 |
| 2010-01-17T01:05 | 22563 | 36 | -68.9 | -96.3 | 113 | 18 |
| 2010-01-17T01:05 | 22608 | 36 | -68.5 | -96.0 | 111 | 19 |
| 2010-01-17T01:05 | 22648 | 36 | -68.0 | -95.9 | 106 | 19 |
| 2010-01-17T01:05 | 22690 | 35 | -67.4 | -95.6 | 102 | 20 |
| 2010-01-17T01:05 | 22726 | 35 | -66.2 | -95.1 | 100 | 21 |
| 2010-01-17T01:06 | 22768 | 35 | -65.7 | -94.7 | 100 | 21 |
| 2010-01-17T01:06 | 22809 | 35 | -65.5 | -94.6 | 100 | 21 |
| 2010-01-17T01:06 | 22853 | 34 | -65.7 | -94.6 | 99 | 21 |
| 2010-01-17T01:06 | 22898 | 34 | -65.6 | -94.5 | 99 | 22 |
| 2010-01-17T01:06 | 22941 | 34 | -64.8 | -94.3 | 98 | 23 |
| 2010-01-17T01:06 | 22984 | 34 | -64.5 | -94.1 | 96 | 24 |
| 2010-01-17T01:07 | 23031 | 33 | -64.0 | -93.7 | 96 | 25 |
| 2010-01-17T11:30 | 4 | 1009 | 26.1 | 25.2 | 270 | 3 |
| 2010-01-17T11:30 | 15 | 1007 | 26.5 | 25.6 | 285 | 2 |
| 2010-01-17T11:30 | 25 | 1006 | 26.7 | 25.7 | 287 | 2 |
| 2010-01-17T11:30 | 34 | 1005 | 26.8 | 25.6 | 288 | 3 |
| 2010-01-17T11:30 | 44 | 1004 | 26.8 | 25.5 | 289 | 3 |
| 2010-01-17T11:30 | 54 | 1003 | 26.8 | 25.5 | 290 | 4 |
| 2010-01-17T11:30 | 64 | 1002 | 26.8 | 25.4 | 291 | 4 |
| 2010-01-17T11:30 | 75 | 1001 | 26.7 | 25.3 | 292 | 5 |
| 2010-01-17T11:30 | 86 | 999 | 26.6 | 25.2 | 293 | 5 |
| 2010-01-17T11:30 | 97 | 998 | 26.5 | 25.2 | 294 | 6 |
| 2010-01-17T11:30 | 108 | 997 | 26.5 | 25.2 | 295 | 6 |
| 2010-01-17T11:30 | 118 | 996 | 26.6 | 25.2 | 296 | 6 |
| 2010-01-17T11:30 | 129 | 994 | 26.6 | 25.1 | 297 | 7 |
| 2010-01-17T11:30 | 139 | 993 | 26.6 | 25.1 | 298 | 7 |
| 2010-01-17T11:30 | 149 | 992 | 26.5 | 25.0 | 298 | 7 |
| 2010-01-17T11:30 | 158 | 991 | 26.4 | 24.9 | 299 | 8 |
| 2010-01-17T11:30 | 169 | 990 | 26.3 | 24.8 | 300 | 8 |
| 2010-01-17T11:30 | 180 | 989 | 26.3 | 24.9 | 300 | 8 |
| 2010-01-17T11:30 | 192 | 987 | 26.4 | 24.9 | 301 | 8 |
| 2010-01-17T11:30 | 202 | 986 | 26.3 | 24.8 | 301 | 8 |
| 2010-01-17T11:30 | 212 | 985 | 26.2 | 24.6 | 301 | 8 |
| 2010-01-17T11:30 | 222 | 984 | 26.2 | 24.5 | 302 | 8 |
| 2010-01-17T11:30 | 231 | 983 | 26.2 | 24.4 | 302 | 8 |
| 2010-01-17T11:30 | 242 | 982 | 26.1 | 24.3 | 302 | 8 |
| 2010-01-17T11:30 | 252 | 981 | 26.1 | 24.0 | 302 | 8 |
| 2010-01-17T11:30 | 263 | 980 | 26.1 | 23.9 | 302 | 8 |
| 2010-01-17T11:30 | 274 | 978 | 26.0 | 23.8 | 302 | 8 |
| 2010-01-17T11:30 | 284 | 977 | 25.9 | 23.8 | 302 | 8 |
| 2010-01-17T11:30 | 295 | 976 | 25.7 | 23.8 | 302 | 8 |
| 2010-01-17T11:30 | 306 | 975 | 25.6 | 23.8 | 302 | 8 |
| 2010-01-17T11:31 | 315 | 974 | 25.6 | 23.7 | 302 | 8 |
| 2010-01-17T11:31 | 325 | 973 | 25.5 | 23.7 | 302 | 8 |
| 2010-01-17T11:31 | 335 | 972 | 25.5 | 23.7 | 302 | 8 |
| 2010-01-17T11:31 | 345 | 971 | 25.4 | 23.6 | 302 | 8 |
| 2010-01-17T11:31 | 355 | 969 | 25.4 | 23.6 | 302 | 8 |
| 2010-01-17T11:31 | 366 | 968 | 25.3 | 23.5 | 302 | 8 |
| 2010-01-17T11:31 | 376 | 967 | 25.2 | 23.4 | 302 | 8 |
| 2010-01-17T11:31 | 387 | 966 | 25.2 | 23.3 | 302 | 8 |
| 2010-01-17T11:31 | 396 | 965 | 25.1 | 23.3 | 302 | 8 |
| 2010-01-17T11:31 | 406 | 964 | 25.0 | 23.2 | 302 | 8 |
| 2010-01-17T11:31 | 416 | 963 | 24.9 | 23.2 | 302 | 8 |
| 2010-01-17T11:31 | 425 | 962 | 24.9 | 23.1 | 302 | 8 |
| 2010-01-17T11:31 | 435 | 961 | 24.8 | 23.0 | 302 | 8 |
| 2010-01-17T11:31 | 446 | 960 | 24.8 | 22.9 | 302 | 8 |
| 2010-01-17T11:31 | 455 | 958 | 24.7 | 22.9 | 303 | 8 |
| 2010-01-17T11:31 | 465 | 957 | 24.5 | 22.9 | 303 | 8 |
| 2010-01-17T11:31 | 476 | 956 | 24.5 | 22.9 | 303 | 8 |
| 2010-01-17T11:31 | 486 | 955 | 24.4 | 22.8 | 303 | 8 |
| 2010-01-17T11:31 | 497 | 954 | 24.3 | 22.7 | 303 | 8 |
| 2010-01-17T11:31 | 508 | 953 | 24.2 | 22.6 | 304 | 8 |
| 2010-01-17T11:31 | 519 | 952 | 24.1 | 22.6 | 304 | 9 |
| 2010-01-17T11:31 | 529 | 951 | 24.1 | 22.5 | 304 | 9 |
| 2010-01-17T11:31 | 539 | 949 | 24.1 | 22.4 | 305 | 9 |
| 2010-01-17T11:31 | 547 | 949 | 24.0 | 22.3 | 305 | 9 |
| 2010-01-17T11:31 | 556 | 948 | 23.9 | 22.3 | 306 | 9 |
| 2010-01-17T11:31 | 566 | 946 | 23.7 | 22.3 | 306 | 9 |
| 2010-01-17T11:31 | 577 | 945 | 23.6 | 22.3 | 307 | 9 |
| 2010-01-17T11:31 | 586 | 944 | 23.9 | 22.0 | 307 | 9 |
| 2010-01-17T11:31 | 595 | 943 | 24.0 | 21.8 | 308 | 9 |
| 2010-01-17T11:31 | 606 | 942 | 24.0 | 21.8 | 308 | 9 |
| 2010-01-17T11:32 | 618 | 941 | 23.8 | 21.8 | 308 | 10 |
| 2010-01-17T11:32 | 627 | 940 | 23.7 | 21.8 | 308 | 10 |
| 2010-01-17T11:32 | 636 | 939 | 23.7 | 21.8 | 308 | 10 |
| 2010-01-17T11:32 | 647 | 938 | 23.6 | 21.6 | 308 | 10 |
| 2010-01-17T11:32 | 658 | 937 | 23.5 | 21.5 | 308 | 10 |
| 2010-01-17T11:32 | 670 | 935 | 23.5 | 21.4 | 308 | 10 |
| 2010-01-17T11:32 | 682 | 934 | 23.4 | 21.4 | 308 | 10 |
| 2010-01-17T11:32 | 694 | 933 | 23.2 | 21.4 | 307 | 10 |
| 2010-01-17T11:32 | 705 | 932 | 23.1 | 21.4 | 307 | 10 |
| 2010-01-17T11:32 | 717 | 930 | 23.1 | 21.3 | 306 | 10 |
| 2010-01-17T11:32 | 727 | 929 | 23.0 | 21.2 | 306 | 10 |
| 2010-01-17T11:32 | 738 | 928 | 22.9 | 21.2 | 305 | 10 |
| 2010-01-17T11:32 | 750 | 927 | 22.9 | 21.1 | 305 | 10 |
| 2010-01-17T11:32 | 761 | 926 | 22.8 | 21.1 | 304 | 10 |
| 2010-01-17T11:32 | 772 | 925 | 22.7 | 21.0 | 304 | 11 |
| 2010-01-17T11:32 | 783 | 923 | 22.6 | 20.9 | 303 | 11 |
| 2010-01-17T11:32 | 794 | 922 | 22.6 | 20.8 | 303 | 11 |
| 2010-01-17T11:32 | 804 | 921 | 22.5 | 20.6 | 302 | 11 |
| 2010-01-17T11:32 | 815 | 920 | 22.5 | 20.4 | 302 | 11 |
| 2010-01-17T11:32 | 825 | 919 | 22.4 | 20.3 | 302 | 12 |
| 2010-01-17T11:32 | 837 | 918 | 22.4 | 20.3 | 301 | 12 |
| 2010-01-17T11:32 | 848 | 917 | 22.3 | 20.2 | 301 | 12 |
| 2010-01-17T11:32 | 859 | 915 | 22.4 | 20.1 | 301 | 12 |
| 2010-01-17T11:32 | 870 | 914 | 22.3 | 20.0 | 301 | 12 |
| 2010-01-17T11:32 | 881 | 913 | 22.3 | 19.9 | 301 | 13 |
| 2010-01-17T11:32 | 893 | 912 | 22.3 | 19.7 | 301 | 13 |
| 2010-01-17T11:32 | 904 | 911 | 22.2 | 19.6 | 301 | 13 |
| 2010-01-17T11:32 | 916 | 909 | 22.2 | 19.6 | 301 | 13 |
| 2010-01-17T11:32 | 928 | 908 | 22.2 | 19.5 | 301 | 13 |
| 2010-01-17T11:32 | 939 | 907 | 22.1 | 19.5 | 301 | 13 |
| 2010-01-17T11:33 | 951 | 906 | 22.0 | 19.5 | 302 | 13 |
| 2010-01-17T11:33 | 962 | 905 | 21.9 | 19.5 | 302 | 13 |
| 2010-01-17T11:33 | 973 | 904 | 21.8 | 19.6 | 302 | 13 |
| 2010-01-17T11:33 | 983 | 902 | 21.8 | 19.6 | 303 | 13 |
| 2010-01-17T11:33 | 995 | 901 | 21.8 | 19.5 | 303 | 13 |
| 2010-01-17T11:33 | 1008 | 900 | 21.8 | 19.4 | 303 | 13 |
| 2010-01-17T11:33 | 1019 | 899 | 21.8 | 19.3 | 303 | 13 |
| 2010-01-17T11:33 | 1031 | 898 | 21.7 | 19.2 | 304 | 13 |
| 2010-01-17T11:33 | 1041 | 896 | 21.7 | 19.0 | 304 | 13 |
| 2010-01-17T11:33 | 1052 | 895 | 21.6 | 18.9 | 304 | 13 |
| 2010-01-17T11:33 | 1064 | 894 | 21.6 | 18.8 | 304 | 13 |
| 2010-01-17T11:33 | 1076 | 893 | 21.5 | 18.7 | 304 | 13 |
| 2010-01-17T11:33 | 1087 | 892 | 21.4 | 18.6 | 304 | 13 |
| 2010-01-17T11:33 | 1098 | 891 | 21.3 | 18.5 | 304 | 13 |
| 2010-01-17T11:33 | 1108 | 890 | 21.2 | 18.4 | 304 | 13 |
| 2010-01-17T11:33 | 1118 | 889 | 21.1 | 18.4 | 303 | 13 |
| 2010-01-17T11:33 | 1130 | 887 | 21.0 | 18.4 | 303 | 13 |
| 2010-01-17T11:33 | 1141 | 886 | 20.9 | 18.3 | 303 | 13 |
| 2010-01-17T11:33 | 1151 | 885 | 20.8 | 18.3 | 303 | 13 |
| 2010-01-17T11:33 | 1162 | 884 | 20.7 | 18.1 | 302 | 13 |
| 2010-01-17T11:33 | 1173 | 883 | 20.7 | 18.0 | 302 | 13 |
| 2010-01-17T11:33 | 1183 | 882 | 20.7 | 18.0 | 302 | 13 |
| 2010-01-17T11:33 | 1194 | 881 | 20.5 | 18.1 | 301 | 13 |
| 2010-01-17T11:33 | 1204 | 880 | 20.4 | 18.2 | 301 | 13 |
| 2010-01-17T11:33 | 1214 | 879 | 20.4 | 18.3 | 301 | 14 |
| 2010-01-17T11:33 | 1223 | 878 | 20.4 | 18.3 | 301 | 14 |
| 2010-01-17T11:33 | 1232 | 877 | 20.3 | 18.2 | 301 | 14 |
| 2010-01-17T11:33 | 1242 | 876 | 20.3 | 18.1 | 301 | 14 |
| 2010-01-17T11:33 | 1252 | 875 | 20.2 | 18.0 | 301 | 14 |
| 2010-01-17T11:33 | 1263 | 874 | 20.1 | 18.0 | 301 | 14 |
| 2010-01-17T11:34 | 1274 | 873 | 20.0 | 17.9 | 301 | 14 |
| 2010-01-17T11:34 | 1284 | 872 | 19.9 | 17.9 | 301 | 14 |
| 2010-01-17T11:34 | 1295 | 871 | 19.8 | 17.8 | 301 | 13 |
| 2010-01-17T11:34 | 1305 | 870 | 19.7 | 17.8 | 301 | 13 |
| 2010-01-17T11:34 | 1316 | 869 | 19.6 | 17.7 | 301 | 13 |
| 2010-01-17T11:34 | 1326 | 868 | 19.5 | 17.7 | 302 | 13 |
| 2010-01-17T11:34 | 1338 | 866 | 19.5 | 17.6 | 302 | 13 |
| 2010-01-17T11:34 | 1350 | 865 | 19.3 | 17.6 | 303 | 13 |
| 2010-01-17T11:34 | 1361 | 864 | 19.2 | 17.5 | 303 | 13 |
| 2010-01-17T11:34 | 1371 | 863 | 19.1 | 17.5 | 304 | 13 |
| 2010-01-17T11:34 | 1382 | 862 | 19.0 | 17.5 | 305 | 13 |
| 2010-01-17T11:34 | 1394 | 861 | 18.9 | 17.4 | 305 | 12 |
| 2010-01-17T11:34 | 1406 | 860 | 18.8 | 17.3 | 306 | 12 |
| 2010-01-17T11:34 | 1415 | 859 | 18.8 | 17.3 | 307 | 12 |
| 2010-01-17T11:34 | 1424 | 858 | 18.8 | 17.3 | 308 | 12 |
| 2010-01-17T11:34 | 1434 | 857 | 18.8 | 17.2 | 308 | 12 |
| 2010-01-17T11:34 | 1445 | 856 | 18.8 | 17.2 | 309 | 12 |
| 2010-01-17T11:34 | 1456 | 855 | 18.8 | 17.1 | 309 | 12 |
| 2010-01-17T11:34 | 1465 | 854 | 18.7 | 17.0 | 309 | 12 |
| 2010-01-17T11:34 | 1476 | 853 | 18.7 | 17.2 | 309 | 12 |
| 2010-01-17T11:34 | 1489 | 851 | 18.5 | 17.4 | 309 | 12 |
| 2010-01-17T11:34 | 1500 | 850 | 18.4 | 17.4 | 309 | 12 |
| 2010-01-17T11:34 | 1509 | 849 | 18.3 | 17.4 | 308 | 12 |
| 2010-01-17T11:34 | 1520 | 848 | 18.2 | 17.4 | 308 | 12 |
| 2010-01-17T11:34 | 1532 | 847 | 18.1 | 17.3 | 307 | 12 |
| 2010-01-17T11:34 | 1543 | 846 | 18.0 | 17.3 | 307 | 12 |
| 2010-01-17T11:34 | 1554 | 845 | 17.9 | 17.3 | 307 | 11 |
| 2010-01-17T11:34 | 1564 | 844 | 17.8 | 17.3 | 307 | 11 |
| 2010-01-17T11:34 | 1575 | 843 | 17.6 | 17.2 | 307 | 11 |
| 2010-01-17T11:34 | 1587 | 842 | 17.5 | 17.1 | 307 | 11 |
| 2010-01-17T11:35 | 1598 | 841 | 17.5 | 17.0 | 308 | 11 |
| 2010-01-17T11:35 | 1609 | 840 | 17.4 | 17.0 | 308 | 11 |
| 2010-01-17T11:35 | 1619 | 839 | 17.3 | 16.8 | 309 | 11 |
| 2010-01-17T11:35 | 1631 | 837 | 17.3 | 16.7 | 309 | 11 |
| 2010-01-17T11:35 | 1642 | 836 | 17.2 | 16.6 | 310 | 11 |
| 2010-01-17T11:35 | 1652 | 835 | 17.2 | 16.5 | 311 | 11 |
| 2010-01-17T11:35 | 1664 | 834 | 17.2 | 16.3 | 312 | 11 |
| 2010-01-17T11:35 | 1675 | 833 | 17.3 | 16.0 | 312 | 11 |
| 2010-01-17T11:35 | 1686 | 832 | 17.3 | 15.8 | 313 | 11 |
| 2010-01-17T11:35 | 1697 | 831 | 17.4 | 15.7 | 314 | 11 |
| 2010-01-17T11:35 | 1709 | 830 | 17.4 | 15.5 | 314 | 11 |
| 2010-01-17T11:35 | 1720 | 829 | 17.4 | 15.4 | 315 | 10 |
| 2010-01-17T11:35 | 1731 | 828 | 17.3 | 15.3 | 315 | 10 |
| 2010-01-17T11:35 | 1742 | 827 | 17.2 | 15.3 | 315 | 10 |
| 2010-01-17T11:35 | 1753 | 826 | 17.1 | 15.4 | 316 | 10 |
| 2010-01-17T11:35 | 1764 | 824 | 17.1 | 15.7 | 316 | 10 |
| 2010-01-17T11:35 | 1776 | 823 | 17.0 | 15.9 | 316 | 10 |
| 2010-01-17T11:35 | 1788 | 822 | 17.0 | 15.8 | 317 | 10 |
| 2010-01-17T11:35 | 1799 | 821 | 17.0 | 15.6 | 317 | 10 |
| 2010-01-17T11:35 | 1810 | 820 | 17.0 | 15.3 | 318 | 10 |
| 2010-01-17T11:35 | 1822 | 819 | 17.1 | 14.8 | 318 | 9 |
| 2010-01-17T11:35 | 1833 | 818 | 17.1 | 14.4 | 318 | 9 |
| 2010-01-17T11:35 | 1844 | 817 | 17.1 | 14.3 | 319 | 9 |
| 2010-01-17T11:35 | 1855 | 816 | 17.0 | 14.1 | 319 | 9 |
| 2010-01-17T11:35 | 1866 | 815 | 17.0 | 14.0 | 320 | 9 |
| 2010-01-17T11:35 | 1877 | 814 | 16.9 | 13.9 | 320 | 9 |
| 2010-01-17T11:35 | 1889 | 813 | 16.9 | 13.8 | 320 | 9 |
| 2010-01-17T11:35 | 1902 | 811 | 16.8 | 13.7 | 320 | 9 |
| 2010-01-17T11:35 | 1916 | 810 | 16.7 | 13.6 | 320 | 9 |
| 2010-01-17T11:35 | 1929 | 809 | 16.6 | 13.5 | 320 | 9 |
| 2010-01-17T11:36 | 1942 | 808 | 16.6 | 13.3 | 320 | 9 |
| 2010-01-17T11:36 | 1955 | 806 | 16.5 | 13.3 | 319 | 9 |
| 2010-01-17T11:36 | 1967 | 805 | 16.4 | 13.5 | 318 | 9 |
| 2010-01-17T11:36 | 1977 | 804 | 16.3 | 13.5 | 318 | 9 |
| 2010-01-17T11:36 | 1988 | 803 | 16.2 | 13.4 | 317 | 9 |
| 2010-01-17T11:36 | 2000 | 802 | 16.1 | 13.3 | 316 | 8 |
| 2010-01-17T11:36 | 2052 | 797 | 15.8 | 13.4 | 311 | 8 |
| 2010-01-17T11:36 | 2114 | 791 | 15.5 | 13.1 | 310 | 8 |
| 2010-01-17T11:36 | 2172 | 786 | 15.2 | 12.8 | 312 | 8 |
| 2010-01-17T11:36 | 2230 | 781 | 15.1 | 12.8 | 315 | 7 |
| 2010-01-17T11:37 | 2291 | 775 | 15.0 | 12.4 | 317 | 8 |
| 2010-01-17T11:37 | 2357 | 769 | 14.7 | 12.4 | 316 | 8 |
| 2010-01-17T11:37 | 2418 | 764 | 14.3 | 12.3 | 314 | 7 |
| 2010-01-17T11:37 | 2481 | 758 | 13.9 | 11.3 | 312 | 6 |
| 2010-01-17T11:37 | 2543 | 752 | 13.7 | 11.2 | 313 | 6 |
| 2010-01-17T11:37 | 2592 | 748 | 13.5 | 11.2 | 314 | 6 |
| 2010-01-17T11:38 | 2647 | 743 | 13.3 | 10.5 | 312 | 7 |
| 2010-01-17T11:38 | 2705 | 738 | 13.0 | 9.5 | 308 | 7 |
| 2010-01-17T11:38 | 2764 | 733 | 12.6 | 10.2 | 306 | 7 |
| 2010-01-17T11:38 | 2826 | 728 | 12.4 | 10.1 | 305 | 6 |
| 2010-01-17T11:38 | 2893 | 722 | 12.1 | 9.1 | 302 | 6 |
| 2010-01-17T11:38 | 2957 | 716 | 11.7 | 8.3 | 297 | 6 |
| 2010-01-17T11:39 | 3013 | 712 | 11.2 | 8.5 | 295 | 7 |
| 2010-01-17T11:39 | 3061 | 707 | 10.8 | 8.9 | 294 | 7 |
| 2010-01-17T11:39 | 3121 | 702 | 10.4 | 8.1 | 294 | 7 |
| 2010-01-17T11:39 | 3177 | 698 | 9.8 | 8.4 | 297 | 7 |
| 2010-01-17T11:39 | 3240 | 692 | 9.2 | 8.4 | 301 | 6 |
| 2010-01-17T11:39 | 3296 | 688 | 9.0 | 7.4 | 303 | 6 |
| 2010-01-17T11:40 | 3348 | 683 | 8.7 | 6.7 | 302 | 6 |
| 2010-01-17T11:40 | 3398 | 679 | 8.3 | 6.5 | 304 | 6 |
| 2010-01-17T11:40 | 3451 | 675 | 7.8 | 6.7 | 307 | 6 |
| 2010-01-17T11:40 | 3512 | 670 | 7.7 | 5.7 | 307 | 5 |
| 2010-01-17T11:40 | 3575 | 665 | 7.4 | 6.1 | 304 | 5 |
| 2010-01-17T11:40 | 3635 | 660 | 7.2 | 5.7 | 300 | 5 |
| 2010-01-17T11:41 | 3701 | 655 | 6.8 | 5.1 | 300 | 4 |
| 2010-01-17T11:41 | 3755 | 651 | 6.6 | 4.1 | 310 | 5 |
| 2010-01-17T11:41 | 3817 | 646 | 6.3 | 4.2 | 324 | 5 |
| 2010-01-17T11:41 | 3881 | 641 | 5.8 | 4.5 | 330 | 5 |
| 2010-01-17T11:41 | 3944 | 636 | 5.5 | 4.0 | 327 | 5 |
| 2010-01-17T11:41 | 4007 | 631 | 5.1 | 3.9 | 322 | 5 |
| 2010-01-17T11:42 | 4073 | 626 | 5.3 | 2.6 | 318 | 4 |
| 2010-01-17T11:42 | 4137 | 621 | 5.0 | 3.3 | 313 | 2 |
| 2010-01-17T11:42 | 4187 | 617 | 4.6 | 3.2 | 294 | 1 |
| 2010-01-17T11:42 | 4240 | 613 | 4.1 | 3.1 | 271 | 1 |
| 2010-01-17T11:42 | 4296 | 609 | 3.9 | 3.0 | 257 | 2 |
| 2010-01-17T11:42 | 4338 | 606 | 3.6 | 2.8 | 246 | 2 |
| 2010-01-17T11:43 | 4386 | 602 | 3.3 | 2.6 | 243 | 3 |
| 2010-01-17T11:43 | 4439 | 598 | 2.9 | 2.2 | 249 | 3 |
| 2010-01-17T11:43 | 4494 | 594 | 2.6 | 1.8 | 261 | 3 |
| 2010-01-17T11:43 | 4549 | 590 | 2.4 | 1.4 | 274 | 3 |
| 2010-01-17T11:43 | 4601 | 587 | 2.1 | 1.4 | 283 | 3 |
| 2010-01-17T11:43 | 4656 | 583 | 1.7 | 1.3 | 288 | 4 |
| 2010-01-17T11:44 | 4708 | 579 | 1.6 | 0.9 | 289 | 4 |
| 2010-01-17T11:44 | 4762 | 575 | 1.3 | 0.6 | 289 | 4 |
| 2010-01-17T11:44 | 4809 | 572 | 1.5 | 0.6 | 289 | 4 |
| 2010-01-17T11:44 | 4858 | 568 | 1.1 | 0.4 | 292 | 3 |
| 2010-01-17T11:44 | 4903 | 565 | 0.8 | 0.4 | 294 | 2 |
| 2010-01-17T11:44 | 4947 | 562 | 1.1 | 0.4 | 292 | 2 |
| 2010-01-17T11:45 | 4993 | 559 | 1.0 | -0.2 | 292 | 2 |
| 2010-01-17T11:45 | 5047 | 555 | 0.6 | -0.8 | 294 | 2 |
| 2010-01-17T11:45 | 5089 | 552 | 0.3 | -0.8 | 285 | 2 |
| 2010-01-17T11:45 | 5129 | 549 | 0.0 | -1.0 | 271 | 2 |
| 2010-01-17T11:45 | 5173 | 546 | -0.3 | -1.0 | 267 | 2 |
| 2010-01-17T11:45 | 5213 | 544 | -0.7 | -1.1 | 266 | 2 |
| 2010-01-17T11:46 | 5252 | 541 | -1.0 | -1.1 | 259 | 2 |
| 2010-01-17T11:46 | 5289 | 538 | -1.3 | -1.4 | 252 | 2 |
| 2010-01-17T11:46 | 5331 | 536 | -1.3 | -1.5 | 247 | 2 |
| 2010-01-17T11:46 | 5368 | 533 | -1.3 | -1.9 | 242 | 2 |
| 2010-01-17T11:46 | 5408 | 531 | -1.4 | -2.0 | 240 | 3 |
| 2010-01-17T11:46 | 5446 | 528 | -1.5 | -2.3 | 239 | 3 |
| 2010-01-17T11:47 | 5485 | 525 | -1.8 | -2.8 | 242 | 3 |
| 2010-01-17T11:47 | 5526 | 523 | -1.9 | -3.3 | 247 | 3 |
| 2010-01-17T11:47 | 5566 | 520 | -2.2 | -3.6 | 243 | 2 |
| 2010-01-17T11:47 | 5607 | 517 | -2.5 | -3.8 | 229 | 2 |
| 2010-01-17T11:47 | 5646 | 515 | -2.8 | -3.4 | 217 | 2 |
| 2010-01-17T11:47 | 5686 | 512 | -3.1 | -3.3 | 213 | 2 |
| 2010-01-17T11:48 | 5726 | 510 | -3.2 | -3.7 | 212 | 3 |
| 2010-01-17T11:48 | 5763 | 507 | -3.1 | -4.2 | 217 | 3 |
| 2010-01-17T11:48 | 5800 | 505 | -3.3 | -5.1 | 223 | 3 |
| 2010-01-17T11:48 | 5839 | 503 | -3.5 | -5.5 | 225 | 2 |
| 2010-01-17T11:48 | 5877 | 500 | -3.7 | -5.9 | 225 | 2 |
| 2010-01-17T11:48 | 5914 | 498 | -3.9 | -6.5 | 228 | 2 |
| 2010-01-17T11:49 | 5954 | 495 | -4.2 | -6.1 | 228 | 2 |
| 2010-01-17T11:49 | 6002 | 492 | -4.5 | -6.5 | 223 | 2 |
| 2010-01-17T11:49 | 6052 | 489 | -4.7 | -6.6 | 215 | 2 |
| 2010-01-17T11:49 | 6096 | 486 | -5.0 | -6.9 | 212 | 3 |
| 2010-01-17T11:49 | 6138 | 484 | -5.2 | -7.3 | 212 | 4 |
| 2010-01-17T11:49 | 6175 | 482 | -5.2 | -7.9 | 214 | 5 |
| 2010-01-17T11:50 | 6213 | 479 | -5.5 | -7.7 | 214 | 5 |
| 2010-01-17T11:50 | 6250 | 477 | -5.6 | -8.3 | 213 | 4 |
| 2010-01-17T11:50 | 6290 | 475 | -5.8 | -8.1 | 215 | 4 |
| 2010-01-17T11:50 | 6330 | 472 | -6.0 | -8.6 | 219 | 4 |
| 2010-01-17T11:50 | 6369 | 470 | -6.3 | -8.8 | 224 | 4 |
| 2010-01-17T11:50 | 6408 | 468 | -6.6 | -9.0 | 226 | 4 |
| 2010-01-17T11:51 | 6449 | 465 | -7.0 | -9.1 | 223 | 4 |
| 2010-01-17T11:51 | 6490 | 463 | -7.2 | -9.8 | 220 | 4 |
| 2010-01-17T11:51 | 6531 | 460 | -7.3 | -9.4 | 218 | 4 |
| 2010-01-17T11:51 | 6570 | 458 | -7.6 | -9.6 | 215 | 4 |
| 2010-01-17T11:51 | 6618 | 455 | -7.7 | -10.9 | 215 | 4 |
| 2010-01-17T11:51 | 6662 | 453 | -7.9 | -11.3 | 217 | 4 |
| 2010-01-17T11:52 | 6702 | 450 | -8.3 | -10.6 | 219 | 4 |
| 2010-01-17T11:52 | 6741 | 448 | -8.6 | -11.5 | 222 | 4 |
| 2010-01-17T11:52 | 6782 | 446 | -8.9 | -11.8 | 223 | 4 |
| 2010-01-17T11:52 | 6819 | 443 | -9.2 | -11.9 | 224 | 4 |
| 2010-01-17T11:52 | 6857 | 441 | -9.4 | -11.7 | 226 | 4 |
| 2010-01-17T11:52 | 6896 | 439 | -9.8 | -12.4 | 228 | 4 |
| 2010-01-17T11:53 | 6933 | 437 | -10.1 | -12.4 | 229 | 5 |
| 2010-01-17T11:53 | 6973 | 435 | -10.4 | -12.3 | 231 | 5 |
| 2010-01-17T11:53 | 7012 | 433 | -10.6 | -11.4 | 231 | 6 |
| 2010-01-17T11:53 | 7048 | 430 | -10.7 | -11.6 | 229 | 6 |
| 2010-01-17T11:53 | 7085 | 428 | -10.5 | -12.2 | 228 | 7 |
| 2010-01-17T11:53 | 7123 | 426 | -10.5 | -13.0 | 228 | 7 |
| 2010-01-17T11:54 | 7163 | 424 | -10.7 | -13.2 | 231 | 7 |
| 2010-01-17T11:54 | 7205 | 422 | -10.9 | -13.5 | 234 | 6 |
| 2010-01-17T11:54 | 7246 | 420 | -11.1 | -14.5 | 234 | 5 |
| 2010-01-17T11:54 | 7287 | 417 | -11.4 | -14.9 | 230 | 4 |
| 2010-01-17T11:54 | 7330 | 415 | -11.8 | -15.2 | 226 | 4 |
| 2010-01-17T11:54 | 7370 | 413 | -12.0 | -15.9 | 223 | 3 |
| 2010-01-17T11:55 | 7410 | 411 | -12.3 | -16.3 | 222 | 3 |
| 2010-01-17T11:55 | 7448 | 409 | -12.4 | -17.1 | 222 | 3 |
| 2010-01-17T11:55 | 7485 | 407 | -12.6 | -17.4 | 225 | 3 |
| 2010-01-17T11:55 | 7522 | 405 | -13.0 | -17.5 | 229 | 3 |
| 2010-01-17T11:55 | 7558 | 403 | -13.2 | -17.6 | 232 | 4 |
| 2010-01-17T11:55 | 7602 | 400 | -13.5 | -17.3 | 233 | 4 |
| 2010-01-17T11:56 | 7641 | 398 | -13.8 | -16.9 | 234 | 5 |
| 2010-01-17T11:56 | 7679 | 396 | -14.0 | -17.0 | 234 | 5 |
| 2010-01-17T11:56 | 7717 | 394 | -13.9 | -17.6 | 231 | 5 |
| 2010-01-17T11:56 | 7755 | 392 | -14.1 | -18.2 | 227 | 5 |
| 2010-01-17T11:56 | 7794 | 390 | -14.3 | -18.4 | 222 | 5 |
| 2010-01-17T11:56 | 7832 | 389 | -14.6 | -18.8 | 218 | 5 |
| 2010-01-17T11:57 | 7870 | 387 | -14.5 | -19.3 | 218 | 5 |
| 2010-01-17T11:57 | 7908 | 385 | -14.8 | -19.7 | 222 | 4 |
| 2010-01-17T11:57 | 7959 | 382 | -15.1 | -20.0 | 225 | 4 |
| 2010-01-17T11:57 | 8000 | 380 | -15.5 | -20.0 | 221 | 3 |
| 2010-01-17T11:57 | 8043 | 378 | -15.9 | -20.1 | 214 | 2 |
| 2010-01-17T11:57 | 8090 | 376 | -16.4 | -20.4 | 216 | 3 |
| 2010-01-17T11:58 | 8139 | 373 | -16.8 | -20.4 | 221 | 3 |
| 2010-01-17T11:58 | 8188 | 371 | -17.3 | -20.5 | 219 | 3 |
| 2010-01-17T11:58 | 8228 | 369 | -17.7 | -20.5 | 208 | 3 |
| 2010-01-17T11:58 | 8267 | 367 | -17.9 | -20.5 | 199 | 3 |
| 2010-01-17T11:58 | 8306 | 365 | -18.2 | -20.8 | 196 | 3 |
| 2010-01-17T11:58 | 8346 | 363 | -18.5 | -21.3 | 198 | 3 |
| 2010-01-17T11:59 | 8387 | 361 | -18.9 | -21.3 | 204 | 3 |
| 2010-01-17T11:59 | 8428 | 359 | -19.2 | -21.7 | 209 | 3 |
| 2010-01-17T11:59 | 8470 | 357 | -19.6 | -21.7 | 211 | 3 |
| 2010-01-17T11:59 | 8515 | 355 | -20.0 | -21.9 | 211 | 3 |
| 2010-01-17T11:59 | 8560 | 353 | -20.3 | -22.3 | 208 | 3 |
| 2010-01-17T11:59 | 8601 | 351 | -20.5 | -22.7 | 201 | 2 |
| 2010-01-17T12:00 | 8640 | 349 | -20.7 | -23.3 | 190 | 2 |
| 2010-01-17T12:00 | 8683 | 347 | -21.0 | -23.6 | 180 | 2 |
| 2010-01-17T12:00 | 8726 | 345 | -21.4 | -23.9 | 169 | 3 |
| 2010-01-17T12:00 | 8777 | 342 | -21.8 | -24.4 | 160 | 4 |
| 2010-01-17T12:00 | 8818 | 340 | -22.0 | -25.3 | 153 | 4 |
| 2010-01-17T12:00 | 8859 | 339 | -22.4 | -25.6 | 147 | 4 |
| 2010-01-17T12:01 | 8899 | 337 | -22.7 | -26.5 | 143 | 5 |
| 2010-01-17T12:01 | 8941 | 335 | -23.0 | -27.3 | 140 | 5 |
| 2010-01-17T12:01 | 8979 | 333 | -23.2 | -28.2 | 141 | 5 |
| 2010-01-17T12:01 | 9018 | 331 | -23.5 | -28.3 | 142 | 5 |
| 2010-01-17T12:01 | 9056 | 330 | -23.9 | -27.6 | 143 | 5 |
| 2010-01-17T12:01 | 9094 | 328 | -24.2 | -27.8 | 145 | 5 |
| 2010-01-17T12:02 | 9132 | 326 | -24.5 | -27.8 | 150 | 5 |
| 2010-01-17T12:02 | 9172 | 324 | -24.9 | -28.0 | 154 | 5 |
| 2010-01-17T12:02 | 9214 | 323 | -25.2 | -28.0 | 157 | 5 |
| 2010-01-17T12:02 | 9254 | 321 | -25.6 | -27.8 | 160 | 5 |
| 2010-01-17T12:02 | 9291 | 319 | -25.9 | -27.5 | 164 | 5 |
| 2010-01-17T12:02 | 9335 | 317 | -26.1 | -27.6 | 173 | 5 |
| 2010-01-17T12:03 | 9377 | 315 | -26.3 | -28.1 | 185 | 4 |
| 2010-01-17T12:03 | 9416 | 314 | -26.5 | -28.9 | 196 | 4 |
| 2010-01-17T12:03 | 9458 | 312 | -26.7 | -29.3 | 209 | 4 |
| 2010-01-17T12:03 | 9507 | 310 | -27.0 | -29.8 | 222 | 4 |
| 2010-01-17T12:03 | 9553 | 308 | -27.4 | -30.2 | 231 | 4 |
| 2010-01-17T12:03 | 9590 | 306 | -27.5 | -30.6 | 234 | 4 |
| 2010-01-17T12:04 | 9627 | 305 | -27.6 | -31.4 | 231 | 4 |
| 2010-01-17T12:04 | 9664 | 303 | -27.8 | -31.9 | 229 | 4 |
| 2010-01-17T12:04 | 9703 | 301 | -28.1 | -32.7 | 228 | 4 |
| 2010-01-17T12:04 | 9743 | 300 | -28.4 | -33.2 | 227 | 4 |
| 2010-01-17T12:04 | 9784 | 298 | -28.8 | -33.3 | 225 | 5 |
| 2010-01-17T12:04 | 9821 | 296 | -29.1 | -33.5 | 220 | 5 |
| 2010-01-17T12:05 | 9861 | 295 | -29.3 | -33.9 | 215 | 5 |
| 2010-01-17T12:05 | 9898 | 293 | -29.6 | -34.5 | 211 | 5 |
| 2010-01-17T12:05 | 9937 | 292 | -29.9 | -35.4 | 207 | 5 |
| 2010-01-17T12:05 | 9976 | 290 | -30.2 | -36.0 | 204 | 6 |
| 2010-01-17T12:05 | 10015 | 288 | -30.4 | -37.0 | 201 | 6 |
| 2010-01-17T12:05 | 10056 | 287 | -30.7 | -37.4 | 199 | 6 |
| 2010-01-17T12:06 | 10096 | 285 | -31.0 | -37.5 | 195 | 6 |
| 2010-01-17T12:06 | 10135 | 284 | -31.4 | -37.7 | 194 | 6 |
| 2010-01-17T12:06 | 10175 | 282 | -31.8 | -37.7 | 193 | 6 |
| 2010-01-17T12:06 | 10213 | 281 | -32.1 | -37.9 | 191 | 6 |
| 2010-01-17T12:06 | 10258 | 279 | -32.5 | -37.9 | 189 | 7 |
| 2010-01-17T12:06 | 10303 | 277 | -33.0 | -38.0 | 188 | 7 |
| 2010-01-17T12:07 | 10342 | 275 | -33.3 | -38.7 | 188 | 7 |
| 2010-01-17T12:07 | 10381 | 274 | -33.7 | -38.8 | 188 | 7 |
| 2010-01-17T12:07 | 10424 | 272 | -34.1 | -38.9 | 187 | 8 |
| 2010-01-17T12:07 | 10467 | 271 | -34.5 | -39.3 | 188 | 8 |
| 2010-01-17T12:07 | 10511 | 269 | -34.9 | -39.9 | 186 | 8 |
| 2010-01-17T12:07 | 10558 | 267 | -35.3 | -41.0 | 183 | 8 |
| 2010-01-17T12:08 | 10600 | 265 | -35.7 | -41.0 | 181 | 8 |
| 2010-01-17T12:08 | 10643 | 264 | -36.1 | -41.4 | 179 | 8 |
| 2010-01-17T12:08 | 10681 | 262 | -36.5 | -42.2 | 179 | 8 |
| 2010-01-17T12:08 | 10723 | 261 | -36.8 | -42.4 | 177 | 8 |
| 2010-01-17T12:08 | 10765 | 259 | -37.2 | -42.4 | 174 | 9 |
| 2010-01-17T12:08 | 10807 | 258 | -37.6 | -42.7 | 173 | 9 |
| 2010-01-17T12:09 | 10851 | 256 | -37.9 | -42.5 | 172 | 10 |
| 2010-01-17T12:09 | 10891 | 255 | -38.2 | -42.5 | 172 | 10 |
| 2010-01-17T12:09 | 10930 | 253 | -38.5 | -43.5 | 172 | 10 |
| 2010-01-17T12:09 | 10971 | 252 | -38.9 | -43.9 | 171 | 9 |
| 2010-01-17T12:09 | 11014 | 250 | -39.3 | -43.7 | 170 | 9 |
| 2010-01-17T12:09 | 11060 | 248 | -39.7 | -44.2 | 168 | 9 |
| 2010-01-17T12:10 | 11101 | 247 | -40.1 | -44.6 | 167 | 8 |
| 2010-01-17T12:10 | 11141 | 245 | -40.4 | -44.5 | 165 | 8 |
| 2010-01-17T12:10 | 11181 | 244 | -40.7 | -44.5 | 163 | 8 |
| 2010-01-17T12:10 | 11220 | 243 | -41.0 | -44.8 | 160 | 7 |
| 2010-01-17T12:10 | 11259 | 241 | -41.3 | -44.9 | 157 | 7 |
| 2010-01-17T12:10 | 11301 | 240 | -41.7 | -45.0 | 154 | 7 |
| 2010-01-17T12:11 | 11343 | 238 | -42.0 | -45.2 | 151 | 7 |
| 2010-01-17T12:11 | 11385 | 237 | -42.4 | -45.5 | 150 | 6 |
| 2010-01-17T12:11 | 11426 | 235 | -42.8 | -45.7 | 149 | 6 |
| 2010-01-17T12:11 | 11467 | 234 | -43.1 | -46.2 | 147 | 6 |
| 2010-01-17T12:11 | 11505 | 233 | -43.5 | -46.4 | 144 | 5 |
| 2010-01-17T12:11 | 11544 | 231 | -43.8 | -46.7 | 142 | 5 |
| 2010-01-17T12:12 | 11585 | 230 | -44.2 | -46.9 | 140 | 5 |
| 2010-01-17T12:12 | 11627 | 228 | -44.5 | -47.5 | 138 | 5 |
| 2010-01-17T12:12 | 11667 | 227 | -44.9 | -48.0 | 137 | 5 |
| 2010-01-17T12:12 | 11709 | 226 | -45.3 | -48.5 | 137 | 6 |
| 2010-01-17T12:12 | 11752 | 224 | -45.7 | -48.9 | 136 | 5 |
| 2010-01-17T12:12 | 11793 | 223 | -46.0 | -49.6 | 133 | 5 |
| 2010-01-17T12:13 | 11833 | 221 | -46.4 | -50.5 | 131 | 5 |
| 2010-01-17T12:13 | 11875 | 220 | -46.7 | -51.5 | 129 | 6 |
| 2010-01-17T12:13 | 11916 | 219 | -47.1 | -52.2 | 129 | 6 |
| 2010-01-17T12:13 | 11955 | 217 | -47.5 | -52.5 | 130 | 6 |
| 2010-01-17T12:13 | 11994 | 216 | -47.9 | -52.6 | 132 | 6 |
| 2010-01-17T12:13 | 12034 | 215 | -48.2 | -52.7 | 133 | 7 |
| 2010-01-17T12:14 | 12081 | 213 | -48.6 | -53.0 | 133 | 7 |
| 2010-01-17T12:14 | 12126 | 212 | -49.0 | -53.5 | 132 | 7 |
| 2010-01-17T12:14 | 12167 | 211 | -49.3 | -53.8 | 130 | 7 |
| 2010-01-17T12:14 | 12206 | 209 | -49.7 | -54.1 | 129 | 7 |
| 2010-01-17T12:14 | 12247 | 208 | -50.1 | -54.5 | 129 | 8 |
| 2010-01-17T12:14 | 12287 | 207 | -50.5 | -54.8 | 129 | 8 |
| 2010-01-17T12:15 | 12328 | 205 | -50.8 | -55.1 | 129 | 8 |
| 2010-01-17T12:15 | 12372 | 204 | -51.3 | -55.6 | 126 | 8 |
| 2010-01-17T12:15 | 12416 | 203 | -51.7 | -55.9 | 123 | 8 |
| 2010-01-17T12:15 | 12460 | 201 | -52.1 | -56.4 | 123 | 9 |
| 2010-01-17T12:15 | 12504 | 200 | -52.5 | -56.8 | 123 | 9 |
| 2010-01-17T12:15 | 12547 | 199 | -52.9 | -57.2 | 122 | 10 |
| 2010-01-17T12:16 | 12591 | 197 | -53.3 | -57.5 | 119 | 10 |
| 2010-01-17T12:16 | 12635 | 196 | -53.7 | -57.9 | 118 | 10 |
| 2010-01-17T12:16 | 12679 | 195 | -54.0 | -58.3 | 118 | 10 |
| 2010-01-17T12:16 | 12722 | 193 | -54.4 | -58.8 | 119 | 10 |
| 2010-01-17T12:16 | 12766 | 192 | -54.8 | -59.3 | 120 | 9 |
| 2010-01-17T12:16 | 12807 | 191 | -55.2 | -59.7 | 119 | 9 |
| 2010-01-17T12:17 | 12849 | 189 | -55.6 | -60.1 | 119 | 9 |
| 2010-01-17T12:17 | 12891 | 188 | -56.0 | -60.5 | 120 | 9 |
| 2010-01-17T12:17 | 12932 | 187 | -56.4 | -60.7 | 121 | 9 |
| 2010-01-17T12:17 | 12974 | 186 | -56.8 | -60.9 | 122 | 9 |
| 2010-01-17T12:17 | 13018 | 184 | -57.2 | -61.3 | 123 | 10 |
| 2010-01-17T12:17 | 13064 | 183 | -57.6 | -61.7 | 123 | 10 |
| 2010-01-17T12:18 | 13110 | 182 | -58.1 | -62.2 | 122 | 10 |
| 2010-01-17T12:18 | 13154 | 180 | -58.5 | -62.5 | 120 | 11 |
| 2010-01-17T12:18 | 13202 | 179 | -58.9 | -63.0 | 120 | 11 |
| 2010-01-17T12:18 | 13247 | 178 | -59.4 | -63.4 | 121 | 11 |
| 2010-01-17T12:18 | 13289 | 177 | -59.8 | -63.7 | 121 | 11 |
| 2010-01-17T12:18 | 13332 | 175 | -60.2 | -64.2 | 121 | 11 |
| 2010-01-17T12:19 | 13376 | 174 | -60.6 | -64.5 | 122 | 12 |
| 2010-01-17T12:19 | 13419 | 173 | -61.0 | -64.8 | 121 | 12 |
| 2010-01-17T12:19 | 13463 | 172 | -61.4 | -65.0 | 121 | 12 |
| 2010-01-17T12:19 | 13504 | 171 | -61.8 | -65.2 | 120 | 13 |
| 2010-01-17T12:19 | 13547 | 169 | -62.2 | -65.4 | 120 | 13 |
| 2010-01-17T12:19 | 13586 | 168 | -62.6 | -65.5 | 120 | 13 |
| 2010-01-17T12:20 | 13627 | 167 | -62.9 | -65.9 | 120 | 13 |
| 2010-01-17T12:20 | 13669 | 166 | -63.3 | -66.2 | 119 | 13 |
| 2010-01-17T12:20 | 13711 | 165 | -63.5 | -66.5 | 119 | 13 |
| 2010-01-17T12:20 | 13754 | 164 | -63.8 | -66.8 | 118 | 13 |
| 2010-01-17T12:20 | 13799 | 163 | -64.2 | -67.3 | 116 | 13 |
| 2010-01-17T12:20 | 13849 | 161 | -64.5 | -67.9 | 115 | 14 |
| 2010-01-17T12:21 | 13892 | 160 | -65.0 | -68.6 | 114 | 14 |
| 2010-01-17T12:21 | 13939 | 159 | -65.4 | -69.3 | 114 | 15 |
| 2010-01-17T12:21 | 13984 | 158 | -65.8 | -69.9 | 113 | 15 |
| 2010-01-17T12:21 | 14034 | 156 | -66.3 | -70.4 | 112 | 16 |
| 2010-01-17T12:21 | 14086 | 155 | -66.8 | -71.0 | 111 | 16 |
| 2010-01-17T12:21 | 14137 | 154 | -67.2 | -71.4 | 110 | 17 |
| 2010-01-17T12:22 | 14184 | 153 | -67.6 | -71.8 | 110 | 18 |
| 2010-01-17T12:22 | 14230 | 151 | -68.0 | -72.4 | 109 | 18 |
| 2010-01-17T12:22 | 14273 | 150 | -68.4 | -72.8 | 109 | 18 |
| 2010-01-17T12:22 | 14316 | 149 | -68.8 | -73.1 | 108 | 18 |
| 2010-01-17T12:22 | 14362 | 148 | -69.2 | -73.4 | 107 | 19 |
| 2010-01-17T12:22 | 14408 | 147 | -69.5 | -73.8 | 105 | 19 |
| 2010-01-17T12:23 | 14450 | 146 | -69.9 | -74.1 | 104 | 18 |
| 2010-01-17T12:23 | 14493 | 145 | -70.2 | -74.5 | 102 | 19 |
| 2010-01-17T12:23 | 14541 | 144 | -70.7 | -75.0 | 100 | 19 |
| 2010-01-17T12:23 | 14585 | 143 | -71.1 | -75.5 | 99 | 19 |
| 2010-01-17T12:23 | 14630 | 142 | -71.6 | -75.9 | 99 | 19 |
| 2010-01-17T12:23 | 14674 | 141 | -71.9 | -76.3 | 99 | 20 |
| 2010-01-17T12:24 | 14718 | 140 | -72.3 | -76.7 | 100 | 20 |
| 2010-01-17T12:24 | 14762 | 138 | -72.7 | -77.0 | 100 | 21 |
| 2010-01-17T12:24 | 14804 | 137 | -73.1 | -77.4 | 101 | 21 |
| 2010-01-17T12:24 | 14851 | 136 | -73.3 | -77.6 | 100 | 22 |
| 2010-01-17T12:24 | 14899 | 135 | -73.6 | -77.9 | 99 | 23 |
| 2010-01-17T12:24 | 14946 | 134 | -73.9 | -78.3 | 97 | 24 |
| 2010-01-17T12:25 | 14993 | 133 | -74.3 | -78.7 | 96 | 24 |
| 2010-01-17T12:25 | 15038 | 132 | -74.8 | -79.2 | 94 | 25 |
| 2010-01-17T12:25 | 15080 | 131 | -75.1 | -79.5 | 93 | 25 |
| 2010-01-17T12:25 | 15123 | 130 | -75.5 | -79.9 | 92 | 26 |
| 2010-01-17T12:25 | 15167 | 129 | -75.8 | -80.2 | 91 | 26 |
| 2010-01-17T12:25 | 15210 | 128 | -76.2 | -80.6 | 90 | 26 |
| 2010-01-17T12:26 | 15254 | 127 | -76.6 | -81.0 | 89 | 25 |
| 2010-01-17T12:26 | 15298 | 126 | -76.8 | -81.2 | 88 | 25 |
| 2010-01-17T12:26 | 15343 | 125 | -77.0 | -81.4 | 87 | 26 |
| 2010-01-17T12:26 | 15388 | 124 | -77.3 | -81.7 | 86 | 28 |
| 2010-01-17T12:26 | 15430 | 123 | -77.6 | -82.0 | 86 | 29 |
| 2010-01-17T12:26 | 15471 | 123 | -77.8 | -82.2 | 87 | 29 |
| 2010-01-17T12:27 | 15515 | 122 | -78.0 | -82.5 | 87 | 30 |
| 2010-01-17T12:27 | 15557 | 121 | -78.3 | -82.7 | 87 | 31 |
| 2010-01-17T12:27 | 15600 | 120 | -78.7 | -83.1 | 86 | 32 |
| 2010-01-17T12:27 | 15642 | 119 | -78.9 | -83.3 | 85 | 32 |
| 2010-01-17T12:27 | 15683 | 118 | -79.3 | -83.7 | 85 | 33 |
| 2010-01-17T12:27 | 15734 | 117 | -79.7 | -84.1 | 84 | 34 |
| 2010-01-17T12:28 | 15781 | 116 | -80.1 | -84.5 | 84 | 35 |
| 2010-01-17T12:28 | 15830 | 115 | -80.6 | -85.0 | 84 | 35 |
| 2010-01-17T12:28 | 15878 | 114 | -81.0 | -85.4 | 84 | 36 |
| 2010-01-17T12:28 | 15924 | 113 | -81.4 | -85.8 | 84 | 36 |
| 2010-01-17T12:28 | 15967 | 112 | -81.6 | -86.0 | 84 | 36 |
| 2010-01-17T12:28 | 16009 | 111 | -81.9 | -86.3 | 85 | 36 |
| 2010-01-17T12:29 | 16049 | 111 | -82.1 | -86.5 | 85 | 35 |
| 2010-01-17T12:29 | 16091 | 110 | -82.2 | -86.6 | 84 | 35 |
| 2010-01-17T12:29 | 16132 | 109 | -82.2 | -86.6 | 84 | 34 |
| 2010-01-17T12:29 | 16176 | 108 | -82.5 | -86.9 | 84 | 34 |
| 2010-01-17T12:29 | 16219 | 107 | -82.8 | -87.2 | 84 | 33 |
| 2010-01-17T12:29 | 16264 | 106 | -83.1 | -87.5 | 83 | 33 |
| 2010-01-17T12:30 | 16313 | 106 | -83.0 | -87.5 | 82 | 34 |
| 2010-01-17T12:30 | 16358 | 105 | -83.2 | -87.7 | 80 | 35 |
| 2010-01-17T12:30 | 16400 | 104 | -83.5 | -88.0 | 78 | 35 |
| 2010-01-17T12:30 | 16448 | 103 | -83.6 | -88.1 | 78 | 34 |
| 2010-01-17T12:30 | 16496 | 102 | -82.3 | -86.9 | 78 | 31 |
| 2010-01-17T12:30 | 16549 | 101 | -80.7 | -85.5 | 77 | 27 |
| 2010-01-17T12:31 | 16600 | 100 | -80.1 | -85.0 | 76 | 24 |
| 2010-01-17T12:31 | 16647 | 99 | -79.8 | -84.8 | 75 | 22 |
| 2010-01-17T12:31 | 16696 | 99 | -79.4 | -84.5 | 75 | 19 |
| 2010-01-17T12:31 | 16742 | 98 | -79.3 | -84.4 | 75 | 17 |
| 2010-01-17T12:31 | 16789 | 97 | -79.3 | -84.6 | 74 | 15 |
| 2010-01-17T12:31 | 16835 | 96 | -79.3 | -84.8 | 72 | 14 |
| 2010-01-17T12:32 | 16884 | 95 | -79.5 | -85.0 | 71 | 12 |
| 2010-01-17T12:32 | 16929 | 95 | -79.6 | -85.3 | 71 | 10 |
| 2010-01-17T12:32 | 16976 | 94 | -79.7 | -85.5 | 73 | 9 |
| 2010-01-17T12:32 | 17022 | 93 | -79.8 | -85.7 | 74 | 7 |
| 2010-01-17T12:32 | 17066 | 92 | -79.9 | -85.9 | 74 | 6 |
| 2010-01-17T12:32 | 17108 | 92 | -80.1 | -86.2 | 75 | 5 |
| 2010-01-17T12:33 | 17151 | 91 | -80.3 | -86.5 | 81 | 4 |
| 2010-01-17T12:33 | 17192 | 90 | -80.4 | -86.8 | 91 | 3 |
| 2010-01-17T12:33 | 17231 | 90 | -80.7 | -87.0 | 101 | 3 |
| 2010-01-17T12:33 | 17272 | 89 | -80.8 | -87.3 | 110 | 3 |
| 2010-01-17T12:33 | 17312 | 88 | -81.1 | -87.6 | 115 | 3 |
| 2010-01-17T12:33 | 17353 | 88 | -81.0 | -87.6 | 122 | 3 |
| 2010-01-17T12:34 | 17392 | 87 | -81.3 | -87.9 | 141 | 2 |
| 2010-01-17T12:34 | 17435 | 86 | -81.0 | -87.7 | 194 | 1 |
| 2010-01-17T12:34 | 17478 | 86 | -81.0 | -87.8 | 243 | 2 |
| 2010-01-17T12:34 | 17520 | 85 | -81.2 | -88.0 | 256 | 4 |
| 2010-01-17T12:34 | 17561 | 85 | -81.1 | -87.9 | 257 | 5 |
| 2010-01-17T12:34 | 17604 | 84 | -80.9 | -87.8 | 256 | 5 |
| 2010-01-17T12:35 | 17646 | 83 | -80.7 | -87.6 | 256 | 6 |
| 2010-01-17T12:35 | 17686 | 83 | -80.5 | -87.5 | 254 | 6 |
| 2010-01-17T12:35 | 17730 | 82 | -80.7 | -87.7 | 252 | 6 |
| 2010-01-17T12:35 | 17772 | 81 | -81.0 | -88.1 | 250 | 6 |
| 2010-01-17T12:35 | 17813 | 81 | -81.3 | -88.4 | 251 | 6 |
| 2010-01-17T12:35 | 17855 | 80 | -81.6 | -88.7 | 254 | 6 |
| 2010-01-17T12:36 | 17895 | 80 | -81.4 | -88.6 | 257 | 7 |
| 2010-01-17T12:36 | 17936 | 79 | -81.7 | -88.8 | 258 | 8 |
| 2010-01-17T12:36 | 17977 | 79 | -81.5 | -88.8 | 255 | 9 |
| 2010-01-17T12:36 | 18020 | 78 | -80.4 | -87.8 | 250 | 9 |
| 2010-01-17T12:36 | 18061 | 77 | -80.5 | -87.9 | 246 | 10 |
| 2010-01-17T12:36 | 18101 | 77 | -80.8 | -88.1 | 240 | 10 |
| 2010-01-17T12:37 | 18142 | 76 | -80.6 | -88.1 | 233 | 10 |
| 2010-01-17T12:37 | 18183 | 76 | -79.8 | -87.4 | 227 | 10 |
| 2010-01-17T12:37 | 18221 | 75 | -79.8 | -87.4 | 224 | 10 |
| 2010-01-17T12:37 | 18258 | 75 | -79.7 | -87.3 | 224 | 10 |
| 2010-01-17T12:37 | 18298 | 74 | -79.2 | -86.9 | 226 | 9 |
| 2010-01-17T12:37 | 18336 | 74 | -78.4 | -86.4 | 228 | 9 |
| 2010-01-17T12:38 | 18376 | 73 | -77.5 | -85.6 | 230 | 9 |
| 2010-01-17T12:38 | 18416 | 73 | -77.5 | -85.7 | 229 | 9 |
| 2010-01-17T12:38 | 18457 | 72 | -77.7 | -85.9 | 227 | 9 |
| 2010-01-17T12:38 | 18499 | 72 | -77.7 | -86.0 | 226 | 9 |
| 2010-01-17T12:38 | 18539 | 71 | -77.5 | -86.0 | 227 | 8 |
| 2010-01-17T12:38 | 18581 | 71 | -77.1 | -85.7 | 232 | 7 |
| 2010-01-17T12:39 | 18623 | 70 | -76.8 | -85.6 | 240 | 5 |
| 2010-01-17T12:39 | 18664 | 70 | -75.3 | -84.4 | 253 | 4 |
| 2010-01-17T12:39 | 18706 | 69 | -74.7 | -84.0 | 269 | 3 |
| 2010-01-17T12:39 | 18747 | 69 | -74.4 | -83.9 | 279 | 4 |
| 2010-01-17T12:39 | 18787 | 68 | -74.2 | -83.9 | 284 | 5 |
| 2010-01-17T12:39 | 18829 | 68 | -74.1 | -84.0 | 288 | 7 |
| 2010-01-17T12:40 | 18869 | 67 | -74.0 | -84.1 | 293 | 8 |
| 2010-01-17T12:40 | 18908 | 67 | -74.1 | -84.4 | 297 | 9 |
| 2010-01-17T12:40 | 18948 | 66 | -74.0 | -84.5 | 300 | 10 |
| 2010-01-17T12:40 | 18986 | 66 | -74.2 | -84.9 | 300 | 10 |
| 2010-01-17T12:40 | 19024 | 65 | -74.5 | -85.3 | 300 | 10 |
| 2010-01-17T12:40 | 19063 | 65 | -74.4 | -85.4 | 297 | 9 |
| 2010-01-17T12:41 | 19102 | 65 | -74.0 | -85.3 | 292 | 9 |
| 2010-01-17T12:41 | 19142 | 64 | -73.4 | -84.9 | 285 | 8 |
| 2010-01-17T12:41 | 19182 | 64 | -73.2 | -85.0 | 281 | 8 |
| 2010-01-17T12:41 | 19221 | 63 | -73.2 | -85.1 | 282 | 8 |
| 2010-01-17T12:41 | 19262 | 63 | -73.0 | -85.1 | 285 | 9 |
| 2010-01-17T12:41 | 19301 | 62 | -72.1 | -84.6 | 288 | 9 |
| 2010-01-17T12:42 | 19341 | 62 | -72.3 | -84.9 | 287 | 9 |
| 2010-01-17T12:42 | 19383 | 62 | -72.2 | -85.0 | 282 | 10 |
| 2010-01-17T12:42 | 19423 | 61 | -72.4 | -85.4 | 276 | 11 |
| 2010-01-17T12:42 | 19464 | 61 | -72.6 | -85.7 | 272 | 11 |
| 2010-01-17T12:42 | 19505 | 60 | -72.5 | -85.9 | 272 | 11 |
| 2010-01-17T12:42 | 19545 | 60 | -72.3 | -85.9 | 274 | 11 |
| 2010-01-17T12:43 | 19586 | 59 | -71.9 | -85.7 | 276 | 11 |
| 2010-01-17T12:43 | 19626 | 59 | -71.7 | -85.7 | 278 | 11 |
| 2010-01-17T12:43 | 19667 | 59 | -71.6 | -85.8 | 278 | 11 |
| 2010-01-17T12:43 | 19707 | 58 | -71.8 | -86.1 | 278 | 11 |
| 2010-01-17T12:43 | 19750 | 58 | -71.8 | -86.3 | 277 | 11 |
| 2010-01-17T12:43 | 19791 | 57 | -72.2 | -86.7 | 277 | 11 |
| 2010-01-17T12:44 | 19833 | 57 | -72.5 | -87.1 | 277 | 11 |
| 2010-01-17T12:44 | 19874 | 57 | -72.8 | -87.5 | 278 | 11 |
| 2010-01-17T12:44 | 19917 | 56 | -72.7 | -87.6 | 282 | 11 |
| 2010-01-17T12:44 | 19958 | 56 | -71.9 | -87.1 | 286 | 11 |
| 2010-01-17T12:44 | 19999 | 55 | -71.8 | -87.1 | 289 | 11 |
| 2010-01-17T12:44 | 20041 | 55 | -72.2 | -87.5 | 291 | 11 |
| 2010-01-17T12:45 | 20084 | 55 | -72.2 | -87.6 | 292 | 11 |
| 2010-01-17T12:45 | 20125 | 54 | -72.5 | -87.9 | 294 | 12 |
| 2010-01-17T12:45 | 20168 | 54 | -72.1 | -87.8 | 296 | 12 |
| 2010-01-17T12:45 | 20210 | 53 | -72.1 | -87.8 | 297 | 13 |
| 2010-01-17T12:45 | 20249 | 53 | -71.8 | -87.7 | 298 | 14 |
| 2010-01-17T12:45 | 20292 | 53 | -71.5 | -87.6 | 300 | 14 |
| 2010-01-17T12:46 | 20331 | 52 | -71.0 | -87.4 | 303 | 14 |
| 2010-01-17T12:46 | 20373 | 52 | -70.8 | -87.3 | 305 | 15 |
| 2010-01-17T12:46 | 20414 | 52 | -70.5 | -87.2 | 306 | 16 |
| 2010-01-17T12:46 | 20454 | 51 | -70.7 | -87.5 | 305 | 16 |
| 2010-01-17T12:46 | 20495 | 51 | -70.8 | -87.7 | 305 | 16 |
| 2010-01-17T12:46 | 20535 | 51 | -70.7 | -87.8 | 304 | 15 |
| 2010-01-17T12:47 | 20579 | 50 | -70.7 | -87.9 | 304 | 15 |
| 2010-01-17T12:47 | 20621 | 50 | -70.6 | -88.0 | 302 | 14 |
| 2010-01-17T12:47 | 20662 | 50 | -70.5 | -88.0 | 300 | 14 |
| 2010-01-17T12:47 | 20705 | 49 | -70.4 | -88.1 | 298 | 13 |
| 2010-01-17T12:47 | 20748 | 49 | -70.2 | -88.1 | 298 | 11 |
| 2010-01-17T12:47 | 20793 | 48 | -70.2 | -88.2 | 299 | 10 |
| 2010-01-17T12:48 | 20837 | 48 | -70.3 | -88.4 | 301 | 8 |
| 2010-01-17T12:48 | 20883 | 48 | -70.5 | -88.7 | 306 | 6 |
| 2010-01-17T12:48 | 20927 | 47 | -70.3 | -88.7 | 312 | 4 |
| 2010-01-17T12:48 | 20972 | 47 | -69.8 | -88.5 | 303 | 3 |
| 2010-01-17T12:48 | 21018 | 47 | -69.4 | -88.3 | 274 | 3 |
| 2010-01-17T12:48 | 21062 | 46 | -69.3 | -88.4 | 253 | 3 |
| 2010-01-17T12:49 | 21106 | 46 | -69.1 | -88.3 | 236 | 3 |
| 2010-01-17T12:49 | 21151 | 46 | -68.9 | -88.3 | 212 | 3 |
| 2010-01-17T12:49 | 21195 | 45 | -68.5 | -88.3 | 183 | 3 |
| 2010-01-17T12:49 | 21239 | 45 | -68.4 | -88.3 | 163 | 4 |
| 2010-01-17T12:49 | 21285 | 45 | -68.6 | -88.6 | 153 | 5 |
| 2010-01-17T12:49 | 21330 | 44 | -68.8 | -88.9 | 150 | 6 |
| 2010-01-17T12:50 | 21375 | 44 | -68.9 | -89.1 | 153 | 7 |
| 2010-01-17T12:50 | 21420 | 44 | -69.0 | -89.4 | 156 | 7 |
| 2010-01-17T12:50 | 21466 | 43 | -69.2 | -89.7 | 156 | 7 |
| 2010-01-17T12:50 | 21510 | 43 | -69.1 | -89.7 | 155 | 7 |
| 2010-01-17T12:50 | 21554 | 43 | -68.1 | -89.2 | 156 | 8 |
| 2010-01-17T12:50 | 21598 | 42 | -68.1 | -89.3 | 155 | 9 |
| 2010-01-17T12:51 | 21645 | 42 | -68.2 | -89.4 | 153 | 9 |
| 2010-01-17T12:51 | 21691 | 42 | -68.4 | -89.7 | 151 | 10 |
| 2010-01-17T12:51 | 21735 | 41 | -68.7 | -90.0 | 152 | 11 |
| 2010-01-17T12:51 | 21780 | 41 | -69.0 | -90.3 | 154 | 11 |
| 2010-01-17T12:51 | 21825 | 41 | -69.3 | -90.6 | 156 | 11 |
| 2010-01-17T12:51 | 21872 | 40 | -69.4 | -90.8 | 155 | 11 |
| 2010-01-17T12:52 | 21917 | 40 | -69.6 | -91.0 | 149 | 11 |
| 2010-01-17T12:52 | 21963 | 40 | -69.7 | -91.2 | 139 | 11 |
| 2010-01-17T12:52 | 22007 | 40 | -69.0 | -90.8 | 129 | 11 |
| 2010-01-17T12:52 | 22052 | 39 | -67.9 | -90.2 | 124 | 11 |
| 2010-01-17T12:52 | 22098 | 39 | -66.9 | -89.6 | 124 | 11 |
| 2010-01-17T12:52 | 22142 | 39 | -65.8 | -88.9 | 122 | 12 |
| 2010-01-17T12:53 | 22188 | 38 | -65.7 | -88.8 | 117 | 13 |
| 2010-01-17T12:53 | 22234 | 38 | -65.4 | -88.7 | 110 | 14 |
| 2010-01-17T12:53 | 22281 | 38 | -65.3 | -88.8 | 104 | 15 |
| 2010-01-17T12:53 | 22328 | 37 | -65.3 | -88.9 | 99 | 15 |
| 2010-01-17T12:53 | 22373 | 37 | -65.1 | -89.0 | 95 | 16 |
| 2010-01-17T12:53 | 22419 | 37 | -64.4 | -88.8 | 95 | 16 |
| 2010-01-17T12:54 | 22465 | 37 | -64.5 | -88.9 | 95 | 16 |
| 2010-01-17T12:54 | 22513 | 36 | -64.7 | -89.1 | 93 | 17 |
| 2010-01-17T12:54 | 22559 | 36 | -64.6 | -89.3 | 89 | 18 |
| 2010-01-17T12:54 | 22607 | 36 | -63.9 | -89.1 | 84 | 19 |
| 2010-01-17T12:54 | 22655 | 36 | -63.6 | -89.0 | 79 | 21 |
| 2010-01-17T12:54 | 22702 | 35 | -63.5 | -89.0 | 75 | 21 |
| 2010-01-17T12:55 | 22752 | 35 | -63.4 | -89.1 | 73 | 21 |
| 2010-01-17T12:55 | 22802 | 35 | -62.9 | -88.9 | 72 | 21 |
| 2010-01-17T12:55 | 22853 | 34 | -62.0 | -88.6 | 72 | 22 |
| 2010-01-17T12:55 | 22901 | 34 | -60.7 | -88.0 | 73 | 23 |
| 2010-01-17T12:55 | 22951 | 34 | -59.5 | -87.4 | 74 | 24 |
| 2010-01-17T12:55 | 23001 | 34 | -58.5 | -86.9 | 74 | 26 |
| 2010-01-17T12:56 | 23052 | 33 | -58.4 | -86.7 | 74 | 26 |
| 2010-01-17T12:56 | 23104 | 33 | -58.0 | -86.6 | 74 | 26 |
| 2010-01-17T12:56 | 23155 | 33 | -57.8 | -86.6 | 75 | 26 |
| 2010-01-17T12:56 | 23208 | 33 | -57.5 | -86.5 | 78 | 25 |
| 2010-01-17T12:56 | 23257 | 32 | -57.2 | -86.5 | 81 | 25 |
| 2010-01-17T12:56 | 23309 | 32 | -56.9 | -86.4 | 85 | 24 |
| 2010-01-17T12:57 | 23356 | 32 | -56.7 | -86.4 | 88 | 24 |
| 2010-01-17T12:57 | 23406 | 32 | -56.4 | -86.3 | 91 | 24 |
| 2010-01-17T12:57 | 23457 | 31 | -56.5 | -86.3 | 92 | 25 |
| 2010-01-17T12:57 | 23506 | 31 | -56.5 | -86.3 | 93 | 25 |
| 2010-01-17T12:57 | 23553 | 31 | -56.6 | -86.4 | 94 | 26 |
| 2010-01-17T12:57 | 23602 | 31 | -56.4 | -86.4 | 94 | 26 |
| 2010-01-17T12:58 | 23654 | 30 | -56.4 | -86.4 | 94 | 27 |
| 2010-01-17T12:58 | 23700 | 30 | -56.4 | -86.4 | 93 | 27 |
| 2010-01-17T12:58 | 23748 | 30 | -56.2 | -86.3 | 93 | 27 |
| 2010-01-17T12:58 | 23798 | 30 | -56.2 | -86.4 | 93 | 27 |
| 2010-01-17T12:58 | 23849 | 29 | -56.2 | -86.3 | 92 | 27 |
| 2010-01-17T12:58 | 23898 | 29 | -55.6 | -86.2 | 91 | 28 |
| 2010-01-17T12:59 | 23948 | 29 | -55.4 | -86.0 | 90 | 28 |
| 2010-01-17T12:59 | 23998 | 29 | -55.5 | -85.9 | 89 | 27 |
| 2010-01-17T12:59 | 24049 | 28 | -55.7 | -86.1 | 89 | 27 |
| 2010-01-17T12:59 | 24099 | 28 | -55.5 | -86.0 | 87 | 27 |
| 2010-01-17T12:59 | 24154 | 28 | -55.5 | -86.0 | 85 | 27 |
| 2010-01-17T12:59 | 24202 | 28 | -55.8 | -86.1 | 82 | 27 |
| 2010-01-17T13:00 | 24255 | 28 | -56.0 | -86.1 | 80 | 27 |
| 2010-01-17T13:00 | 24308 | 27 | -56.3 | -86.3 | 80 | 27 |
| 2010-01-17T13:00 | 24356 | 27 | -56.6 | -86.5 | 80 | 27 |
| 2010-01-17T13:00 | 24409 | 27 | -56.9 | -86.7 | 81 | 27 |
| 2010-01-17T13:00 | 24461 | 27 | -56.9 | -86.7 | 82 | 27 |
| 2010-01-17T13:00 | 24509 | 26 | -57.0 | -86.8 | 82 | 26 |
| 2010-01-17T13:01 | 24558 | 26 | -57.2 | -86.9 | 82 | 26 |
| 2010-01-17T13:01 | 24608 | 26 | -57.4 | -87.0 | 84 | 26 |
| 2010-01-17T13:01 | 24656 | 26 | -57.5 | -87.1 | 86 | 26 |
| 2010-01-17T13:01 | 24705 | 26 | -57.6 | -87.2 | 88 | 26 |
| 2010-01-17T13:01 | 24755 | 25 | -57.6 | -87.3 | 91 | 26 |
| 2010-01-17T13:01 | 24801 | 25 | -57.4 | -87.2 | 94 | 26 |
| 2010-01-17T13:02 | 24851 | 25 | -57.3 | -87.1 | 97 | 26 |
| 2010-01-17T13:02 | 24901 | 25 | -57.1 | -87.0 | 99 | 26 |
| 2010-01-17T13:02 | 24952 | 25 | -57.1 | -87.0 | 101 | 26 |
| 2010-01-17T13:02 | 25001 | 25 | -57.1 | -87.0 | 101 | 26 |
| 2010-01-17T13:02 | 25053 | 24 | -57.2 | -87.0 | 101 | 26 |
| 2010-01-17T13:02 | 25105 | 24 | -57.2 | -87.0 | 101 | 26 |
| 2010-01-17T13:03 | 25156 | 24 | -57.4 | -87.1 | 100 | 27 |
| 2010-01-17T13:03 | 25209 | 24 | -57.5 | -87.2 | 99 | 27 |
| 2010-01-17T13:03 | 25263 | 24 | -57.8 | -87.3 | 98 | 26 |
| 2010-01-17T13:03 | 25316 | 23 | -57.7 | -87.3 | 98 | 26 |
| 2010-01-17T13:03 | 25368 | 23 | -57.7 | -87.3 | 98 | 26 |
| 2010-01-17T13:03 | 25422 | 23 | -57.8 | -87.3 | 98 | 26 |
| 2010-01-17T13:04 | 25473 | 23 | -57.8 | -87.4 | 99 | 26 |
| 2010-01-17T13:04 | 25526 | 23 | -57.8 | -87.4 | 99 | 26 |
| 2010-01-17T13:04 | 25580 | 22 | -57.9 | -87.4 | 99 | 26 |
| 2010-01-17T13:04 | 25631 | 22 | -58.0 | -87.5 | 98 | 27 |
| 2010-01-17T13:04 | 25684 | 22 | -58.0 | -87.5 | 98 | 29 |
| 2010-01-17T13:04 | 25734 | 22 | -58.0 | -87.5 | 97 | 30 |
| 2010-01-17T13:05 | 25783 | 22 | -58.2 | -87.5 | 96 | 31 |
| 2010-01-17T13:05 | 25827 | 22 | -58.3 | -87.7 | 95 | 31 |
| 2010-01-17T13:05 | 25877 | 21 | -57.8 | -87.4 | 94 | 30 |
| 2010-01-17T13:05 | 25926 | 21 | -57.5 | -87.4 | 94 | 30 |
| 2010-01-17T13:05 | 25976 | 21 | -57.5 | -87.3 | 92 | 31 |
| 2010-01-17T13:05 | 26025 | 21 | -57.2 | -87.2 | 91 | 31 |
| 2010-01-17T13:06 | 26075 | 21 | -56.4 | -86.8 | 90 | 32 |
| 2010-01-17T13:06 | 26125 | 21 | -55.8 | -86.5 | 89 | 33 |
| 2010-01-17T13:06 | 26175 | 20 | -55.4 | -86.2 | 88 | 33 |
| 2010-01-17T13:06 | 26228 | 20 | -55.0 | -85.9 | 86 | 33 |
| 2010-01-17T13:06 | 26282 | 20 | -54.9 | -85.8 | 85 | 32 |
| 2010-01-17T13:06 | 26329 | 20 | -54.7 | -85.7 | 84 | 32 |
| 2010-01-17T13:07 | 26381 | 20 | -54.9 | -85.6 | 83 | 31 |
| 2010-01-17T13:07 | 26438 | 20 | -55.0 | -85.6 | 82 | 31 |
| 2010-01-17T13:07 | 26487 | 19 | -54.7 | -85.5 | 83 | 30 |
| 2010-01-17T13:07 | 26540 | 19 | -54.7 | -85.5 | 83 | 30 |
| 2010-01-17T13:07 | 26594 | 19 | -54.3 | -85.3 | 83 | 29 |
| 2010-01-17T13:07 | 26648 | 19 | -53.9 | -85.2 | 84 | 29 |
| 2010-01-17T13:08 | 26699 | 19 | -53.8 | -85.0 | 84 | 29 |
| 2010-01-17T13:08 | 26751 | 19 | -53.8 | -84.9 | 86 | 30 |
| 2010-01-17T13:08 | 26805 | 18 | -53.2 | -84.7 | 87 | 31 |
| 2010-01-17T13:08 | 26857 | 18 | -52.5 | -84.4 | 87 | 31 |
| 2010-01-17T13:08 | 26907 | 18 | -51.7 | -84.0 | 87 | 31 |
| 2010-01-17T13:08 | 26956 | 18 | -51.1 | -83.7 | 88 | 31 |
| 2010-01-17T13:09 | 27008 | 18 | -50.7 | -83.3 | 89 | 32 |
| 2010-01-17T13:09 | 27058 | 18 | -50.6 | -83.1 | 90 | 32 |
| 2010-01-17T13:09 | 27106 | 18 | -50.1 | -82.8 | 90 | 32 |
| 2010-01-17T13:09 | 27156 | 17 | -49.8 | -82.6 | 91 | 31 |
| 2010-01-17T13:09 | 27208 | 17 | -49.6 | -82.4 | 92 | 32 |
| 2010-01-17T13:09 | 27258 | 17 | -49.7 | -82.3 | 92 | 32 |
| 2010-01-17T13:10 | 27315 | 17 | -49.7 | -82.3 | 93 | 32 |
| 2010-01-17T13:10 | 27364 | 17 | -49.7 | -82.2 | 93 | 32 |
| 2010-01-17T13:10 | 27413 | 17 | -49.8 | -82.3 | 94 | 32 |
| 2010-01-17T13:10 | 27466 | 17 | -49.8 | -82.2 | 95 | 32 |
| 2010-01-17T13:10 | 27521 | 17 | -49.8 | -82.2 | 95 | 33 |
| 2010-01-17T13:10 | 27570 | 16 | -49.8 | -82.2 | 95 | 33 |
| 2010-01-17T13:11 | 27622 | 16 | -49.6 | -82.1 | 95 | 33 |
| 2010-01-17T13:11 | 27672 | 16 | -49.1 | -81.9 | 96 | 34 |
| 2010-01-17T13:11 | 27721 | 16 | -48.3 | -81.6 | 97 | 33 |
| 2010-01-17T13:11 | 27776 | 16 | -47.9 | -81.4 | 98 | 33 |
| 2010-01-17T23:37 | 4 | 1009 | 30.9 | 23.4 | 320 | 5 |
| 2010-01-17T23:37 | 13 | 1008 | 29.4 | 22.2 | 320 | 3 |
| 2010-01-17T23:37 | 22 | 1007 | 28.9 | 22.1 | 320 | 4 |
| 2010-01-17T23:37 | 29 | 1006 | 28.8 | 22.4 | 320 | 4 |
| 2010-01-17T23:37 | 36 | 1005 | 28.7 | 22.5 | 320 | 5 |
| 2010-01-17T23:37 | 45 | 1004 | 28.6 | 22.7 | 320 | 5 |
| 2010-01-17T23:37 | 54 | 1003 | 28.5 | 22.7 | 319 | 5 |
| 2010-01-17T23:37 | 64 | 1002 | 28.4 | 22.8 | 319 | 5 |
| 2010-01-17T23:37 | 74 | 1001 | 28.2 | 22.9 | 319 | 6 |
| 2010-01-17T23:37 | 83 | 1000 | 28.1 | 22.8 | 319 | 6 |
| 2010-01-17T23:37 | 92 | 999 | 28.0 | 22.8 | 319 | 6 |
| 2010-01-17T23:37 | 99 | 998 | 28.0 | 22.8 | 319 | 6 |
| 2010-01-17T23:37 | 109 | 997 | 27.9 | 22.7 | 319 | 6 |
| 2010-01-17T23:37 | 118 | 996 | 27.8 | 22.7 | 319 | 6 |
| 2010-01-17T23:37 | 129 | 995 | 27.7 | 22.8 | 318 | 6 |
| 2010-01-17T23:37 | 138 | 994 | 27.6 | 22.8 | 318 | 6 |
| 2010-01-17T23:37 | 147 | 993 | 27.5 | 22.7 | 318 | 6 |
| 2010-01-17T23:37 | 157 | 991 | 27.4 | 22.7 | 318 | 6 |
| 2010-01-17T23:37 | 166 | 990 | 27.4 | 22.7 | 317 | 6 |
| 2010-01-17T23:37 | 177 | 989 | 27.3 | 22.7 | 317 | 6 |
| 2010-01-17T23:37 | 187 | 988 | 27.1 | 22.6 | 317 | 6 |
| 2010-01-17T23:37 | 197 | 987 | 27.0 | 22.6 | 317 | 6 |
| 2010-01-17T23:37 | 207 | 986 | 27.0 | 22.5 | 316 | 6 |
| 2010-01-17T23:37 | 219 | 985 | 26.8 | 22.5 | 316 | 6 |
| 2010-01-17T23:37 | 231 | 983 | 26.7 | 22.5 | 316 | 6 |
| 2010-01-17T23:37 | 244 | 982 | 26.6 | 22.5 | 316 | 6 |
| 2010-01-17T23:37 | 256 | 980 | 26.5 | 22.4 | 316 | 6 |
| 2010-01-17T23:37 | 270 | 979 | 26.4 | 22.4 | 316 | 7 |
| 2010-01-17T23:37 | 282 | 978 | 26.2 | 22.4 | 316 | 7 |
| 2010-01-17T23:37 | 293 | 976 | 26.1 | 22.3 | 315 | 7 |
| 2010-01-17T23:38 | 305 | 975 | 26.0 | 22.2 | 315 | 7 |
| 2010-01-17T23:38 | 316 | 974 | 25.9 | 22.1 | 315 | 7 |
| 2010-01-17T23:38 | 328 | 972 | 25.8 | 22.1 | 315 | 7 |
| 2010-01-17T23:38 | 341 | 971 | 25.7 | 22.1 | 315 | 7 |
| 2010-01-17T23:38 | 352 | 970 | 25.6 | 22.0 | 316 | 7 |
| 2010-01-17T23:38 | 363 | 969 | 25.5 | 21.9 | 316 | 7 |
| 2010-01-17T23:38 | 374 | 967 | 25.4 | 21.8 | 316 | 7 |
| 2010-01-17T23:38 | 386 | 966 | 25.3 | 21.8 | 316 | 8 |
| 2010-01-17T23:38 | 397 | 965 | 25.1 | 21.9 | 316 | 8 |
| 2010-01-17T23:38 | 407 | 964 | 25.0 | 21.9 | 316 | 8 |
| 2010-01-17T23:38 | 418 | 963 | 24.9 | 21.9 | 316 | 8 |
| 2010-01-17T23:38 | 430 | 961 | 24.8 | 21.9 | 316 | 8 |
| 2010-01-17T23:38 | 441 | 960 | 24.7 | 21.9 | 316 | 8 |
| 2010-01-17T23:38 | 452 | 959 | 24.6 | 21.9 | 316 | 8 |
| 2010-01-17T23:38 | 464 | 958 | 24.5 | 21.9 | 316 | 8 |
| 2010-01-17T23:38 | 476 | 956 | 24.4 | 21.9 | 316 | 8 |
| 2010-01-17T23:38 | 486 | 955 | 24.3 | 21.8 | 315 | 8 |
| 2010-01-17T23:38 | 497 | 954 | 24.2 | 21.8 | 315 | 8 |
| 2010-01-17T23:38 | 508 | 953 | 24.1 | 21.7 | 315 | 8 |
| 2010-01-17T23:38 | 519 | 952 | 24.0 | 21.4 | 315 | 8 |
| 2010-01-17T23:38 | 530 | 950 | 23.9 | 21.5 | 315 | 8 |
| 2010-01-17T23:38 | 541 | 949 | 23.8 | 21.6 | 315 | 8 |
| 2010-01-17T23:38 | 551 | 948 | 23.7 | 21.5 | 315 | 8 |
| 2010-01-17T23:38 | 562 | 947 | 23.6 | 21.3 | 316 | 8 |
| 2010-01-17T23:38 | 573 | 946 | 23.5 | 21.3 | 316 | 8 |
| 2010-01-17T23:38 | 584 | 945 | 23.4 | 21.3 | 316 | 8 |
| 2010-01-17T23:38 | 594 | 943 | 23.3 | 21.2 | 316 | 8 |
| 2010-01-17T23:38 | 605 | 942 | 23.2 | 21.2 | 317 | 8 |
| 2010-01-17T23:38 | 615 | 941 | 23.1 | 21.1 | 317 | 8 |
| 2010-01-17T23:38 | 625 | 940 | 23.0 | 21.1 | 317 | 8 |
| 2010-01-17T23:39 | 634 | 939 | 22.9 | 20.9 | 317 | 8 |
| 2010-01-17T23:39 | 643 | 938 | 22.9 | 20.5 | 317 | 8 |
| 2010-01-17T23:39 | 653 | 937 | 22.9 | 20.1 | 317 | 8 |
| 2010-01-17T23:39 | 664 | 936 | 22.9 | 19.8 | 317 | 8 |
| 2010-01-17T23:39 | 675 | 935 | 22.8 | 19.8 | 317 | 8 |
| 2010-01-17T23:39 | 685 | 934 | 22.7 | 19.7 | 317 | 8 |
| 2010-01-17T23:39 | 695 | 933 | 22.6 | 19.7 | 317 | 8 |
| 2010-01-17T23:39 | 706 | 932 | 22.5 | 19.8 | 317 | 8 |
| 2010-01-17T23:39 | 717 | 930 | 22.3 | 20.1 | 317 | 8 |
| 2010-01-17T23:39 | 727 | 929 | 22.2 | 20.2 | 317 | 8 |
| 2010-01-17T23:39 | 737 | 928 | 22.1 | 20.1 | 317 | 8 |
| 2010-01-17T23:39 | 747 | 927 | 22.0 | 20.0 | 317 | 8 |
| 2010-01-17T23:39 | 758 | 926 | 21.9 | 19.9 | 318 | 8 |
| 2010-01-17T23:39 | 768 | 925 | 21.9 | 19.8 | 318 | 8 |
| 2010-01-17T23:39 | 778 | 924 | 21.8 | 19.7 | 318 | 8 |
| 2010-01-17T23:39 | 788 | 923 | 21.8 | 19.6 | 318 | 8 |
| 2010-01-17T23:39 | 798 | 922 | 21.6 | 19.5 | 318 | 8 |
| 2010-01-17T23:39 | 807 | 921 | 21.6 | 19.5 | 319 | 8 |
| 2010-01-17T23:39 | 817 | 920 | 21.5 | 19.4 | 319 | 8 |
| 2010-01-17T23:39 | 827 | 919 | 21.5 | 19.0 | 319 | 8 |
| 2010-01-17T23:39 | 837 | 918 | 21.6 | 18.5 | 320 | 8 |
| 2010-01-17T23:39 | 847 | 917 | 21.5 | 18.6 | 320 | 8 |
| 2010-01-17T23:39 | 858 | 915 | 21.3 | 18.8 | 321 | 8 |
| 2010-01-17T23:39 | 868 | 914 | 21.1 | 18.9 | 322 | 8 |
| 2010-01-17T23:39 | 879 | 913 | 21.0 | 18.8 | 322 | 8 |
| 2010-01-17T23:39 | 888 | 912 | 21.0 | 18.7 | 323 | 8 |
| 2010-01-17T23:39 | 897 | 911 | 20.9 | 18.6 | 324 | 8 |
| 2010-01-17T23:39 | 905 | 910 | 20.8 | 18.6 | 325 | 9 |
| 2010-01-17T23:39 | 914 | 910 | 20.7 | 18.6 | 326 | 9 |
| 2010-01-17T23:39 | 923 | 909 | 20.7 | 18.4 | 327 | 9 |
| 2010-01-17T23:40 | 933 | 908 | 20.5 | 18.5 | 327 | 9 |
| 2010-01-17T23:40 | 943 | 907 | 20.4 | 18.6 | 328 | 9 |
| 2010-01-17T23:40 | 952 | 906 | 20.3 | 18.6 | 329 | 9 |
| 2010-01-17T23:40 | 961 | 905 | 20.2 | 18.7 | 330 | 9 |
| 2010-01-17T23:40 | 971 | 904 | 20.1 | 18.8 | 330 | 9 |
| 2010-01-17T23:40 | 981 | 903 | 20.0 | 18.8 | 330 | 9 |
| 2010-01-17T23:40 | 991 | 901 | 19.9 | 18.8 | 331 | 10 |
| 2010-01-17T23:40 | 1001 | 900 | 19.8 | 18.7 | 331 | 10 |
| 2010-01-17T23:40 | 1010 | 900 | 19.8 | 18.5 | 330 | 10 |
| 2010-01-17T23:40 | 1017 | 899 | 19.7 | 18.6 | 330 | 10 |
| 2010-01-17T23:40 | 1025 | 898 | 19.7 | 18.3 | 330 | 10 |
| 2010-01-17T23:40 | 1033 | 897 | 20.0 | 16.7 | 329 | 10 |
| 2010-01-17T23:40 | 1043 | 896 | 20.5 | 14.8 | 328 | 10 |
| 2010-01-17T23:40 | 1052 | 895 | 20.8 | 13.7 | 327 | 10 |
| 2010-01-17T23:40 | 1060 | 894 | 21.0 | 12.6 | 326 | 10 |
| 2010-01-17T23:40 | 1069 | 893 | 21.1 | 11.8 | 325 | 10 |
| 2010-01-17T23:40 | 1078 | 893 | 21.1 | 11.1 | 324 | 10 |
| 2010-01-17T23:40 | 1087 | 892 | 21.2 | 10.5 | 322 | 10 |
| 2010-01-17T23:40 | 1095 | 891 | 21.2 | 10.2 | 321 | 10 |
| 2010-01-17T23:40 | 1103 | 890 | 21.2 | 10.0 | 320 | 10 |
| 2010-01-17T23:40 | 1111 | 889 | 21.2 | 9.2 | 319 | 10 |
| 2010-01-17T23:40 | 1121 | 888 | 21.3 | 7.4 | 317 | 10 |
| 2010-01-17T23:40 | 1130 | 887 | 21.4 | 6.5 | 316 | 11 |
| 2010-01-17T23:40 | 1139 | 886 | 21.4 | 6.3 | 315 | 11 |
| 2010-01-17T23:40 | 1148 | 885 | 21.4 | 5.9 | 314 | 11 |
| 2010-01-17T23:40 | 1156 | 885 | 21.4 | 5.5 | 313 | 11 |
| 2010-01-17T23:40 | 1164 | 884 | 21.4 | 5.3 | 313 | 11 |
| 2010-01-17T23:40 | 1174 | 883 | 21.4 | 5.3 | 312 | 11 |
| 2010-01-17T23:40 | 1185 | 882 | 21.3 | 5.4 | 311 | 11 |
| 2010-01-17T23:40 | 1196 | 880 | 21.2 | 5.6 | 310 | 11 |
| 2010-01-17T23:41 | 1207 | 879 | 21.1 | 5.7 | 309 | 11 |
| 2010-01-17T23:41 | 1217 | 878 | 21.0 | 5.8 | 309 | 11 |
| 2010-01-17T23:41 | 1227 | 877 | 21.0 | 6.1 | 308 | 11 |
| 2010-01-17T23:41 | 1236 | 876 | 20.9 | 6.2 | 307 | 11 |
| 2010-01-17T23:41 | 1246 | 875 | 20.8 | 6.2 | 307 | 11 |
| 2010-01-17T23:41 | 1257 | 874 | 20.7 | 6.2 | 306 | 11 |
| 2010-01-17T23:41 | 1267 | 873 | 20.6 | 6.2 | 305 | 12 |
| 2010-01-17T23:41 | 1278 | 872 | 20.5 | 6.3 | 305 | 12 |
| 2010-01-17T23:41 | 1289 | 871 | 20.4 | 6.4 | 304 | 12 |
| 2010-01-17T23:41 | 1300 | 870 | 20.4 | 6.2 | 304 | 12 |
| 2010-01-17T23:41 | 1311 | 869 | 20.3 | 5.8 | 303 | 12 |
| 2010-01-17T23:41 | 1322 | 868 | 20.3 | 5.6 | 303 | 12 |
| 2010-01-17T23:41 | 1332 | 867 | 20.2 | 5.4 | 302 | 13 |
| 2010-01-17T23:41 | 1342 | 866 | 20.1 | 5.2 | 301 | 13 |
| 2010-01-17T23:41 | 1352 | 865 | 20.0 | 5.1 | 301 | 13 |
| 2010-01-17T23:41 | 1362 | 864 | 20.0 | 5.2 | 300 | 13 |
| 2010-01-17T23:41 | 1374 | 862 | 19.9 | 5.4 | 299 | 14 |
| 2010-01-17T23:41 | 1385 | 861 | 19.9 | 5.7 | 298 | 14 |
| 2010-01-17T23:41 | 1395 | 860 | 19.8 | 6.0 | 298 | 14 |
| 2010-01-17T23:41 | 1404 | 859 | 19.7 | 6.7 | 297 | 14 |
| 2010-01-17T23:41 | 1415 | 858 | 19.5 | 8.4 | 296 | 14 |
| 2010-01-17T23:41 | 1427 | 857 | 19.3 | 10.6 | 295 | 15 |
| 2010-01-17T23:41 | 1439 | 856 | 19.1 | 12.5 | 294 | 15 |
| 2010-01-17T23:41 | 1452 | 855 | 19.0 | 13.8 | 293 | 15 |
| 2010-01-17T23:41 | 1464 | 853 | 18.9 | 14.0 | 292 | 15 |
| 2010-01-17T23:41 | 1476 | 852 | 18.9 | 13.3 | 291 | 15 |
| 2010-01-17T23:41 | 1487 | 851 | 18.9 | 13.0 | 291 | 16 |
| 2010-01-17T23:41 | 1498 | 850 | 19.0 | 11.9 | 290 | 16 |
| 2010-01-17T23:41 | 1510 | 849 | 19.1 | 10.9 | 289 | 16 |
| 2010-01-17T23:41 | 1521 | 848 | 19.1 | 10.1 | 289 | 16 |
| 2010-01-17T23:42 | 1532 | 847 | 19.2 | 8.6 | 288 | 16 |
| 2010-01-17T23:42 | 1543 | 846 | 19.2 | 7.6 | 288 | 16 |
| 2010-01-17T23:42 | 1554 | 845 | 19.2 | 7.3 | 287 | 16 |
| 2010-01-17T23:42 | 1563 | 844 | 19.1 | 6.4 | 287 | 16 |
| 2010-01-17T23:42 | 1572 | 843 | 19.2 | 5.2 | 287 | 16 |
| 2010-01-17T23:42 | 1581 | 842 | 19.2 | 4.4 | 287 | 16 |
| 2010-01-17T23:42 | 1592 | 841 | 19.2 | 4.4 | 287 | 16 |
| 2010-01-17T23:42 | 1604 | 840 | 19.0 | 4.6 | 287 | 16 |
| 2010-01-17T23:42 | 1614 | 839 | 18.9 | 4.7 | 287 | 16 |
| 2010-01-17T23:42 | 1623 | 838 | 18.9 | 4.6 | 287 | 16 |
| 2010-01-17T23:42 | 1632 | 837 | 18.9 | 4.1 | 287 | 16 |
| 2010-01-17T23:42 | 1643 | 836 | 18.8 | 3.6 | 287 | 16 |
| 2010-01-17T23:42 | 1653 | 835 | 18.8 | 3.5 | 288 | 16 |
| 2010-01-17T23:42 | 1662 | 834 | 18.8 | 3.8 | 288 | 16 |
| 2010-01-17T23:42 | 1673 | 833 | 18.7 | 4.3 | 289 | 16 |
| 2010-01-17T23:42 | 1685 | 832 | 18.5 | 4.7 | 289 | 16 |
| 2010-01-17T23:42 | 1696 | 831 | 18.4 | 5.2 | 290 | 15 |
| 2010-01-17T23:42 | 1707 | 830 | 18.3 | 5.9 | 290 | 15 |
| 2010-01-17T23:42 | 1716 | 829 | 18.2 | 6.6 | 291 | 15 |
| 2010-01-17T23:42 | 1726 | 828 | 18.0 | 7.2 | 291 | 15 |
| 2010-01-17T23:42 | 1736 | 827 | 17.9 | 8.1 | 292 | 15 |
| 2010-01-17T23:42 | 1747 | 826 | 17.8 | 9.3 | 292 | 15 |
| 2010-01-17T23:42 | 1756 | 825 | 17.7 | 10.3 | 293 | 15 |
| 2010-01-17T23:42 | 1765 | 824 | 17.6 | 10.7 | 293 | 15 |
| 2010-01-17T23:42 | 1776 | 823 | 17.6 | 10.7 | 294 | 15 |
| 2010-01-17T23:42 | 1788 | 822 | 17.5 | 10.5 | 294 | 15 |
| 2010-01-17T23:42 | 1799 | 821 | 17.5 | 10.3 | 294 | 14 |
| 2010-01-17T23:42 | 1810 | 820 | 17.4 | 10.5 | 294 | 14 |
| 2010-01-17T23:42 | 1821 | 819 | 17.3 | 10.9 | 294 | 14 |
| 2010-01-17T23:42 | 1831 | 818 | 17.2 | 11.1 | 294 | 14 |
| 2010-01-17T23:43 | 1841 | 817 | 17.1 | 11.2 | 294 | 14 |
| 2010-01-17T23:43 | 1852 | 816 | 17.0 | 11.3 | 295 | 14 |
| 2010-01-17T23:43 | 1863 | 815 | 17.0 | 10.9 | 295 | 14 |
| 2010-01-17T23:43 | 1872 | 814 | 16.9 | 10.5 | 295 | 14 |
| 2010-01-17T23:43 | 1882 | 813 | 16.9 | 10.4 | 295 | 14 |
| 2010-01-17T23:43 | 1893 | 812 | 16.8 | 10.1 | 295 | 14 |
| 2010-01-17T23:43 | 1904 | 811 | 16.7 | 9.7 | 295 | 14 |
| 2010-01-17T23:43 | 1915 | 810 | 16.7 | 9.3 | 295 | 14 |
| 2010-01-17T23:43 | 1926 | 809 | 16.6 | 9.1 | 295 | 14 |
| 2010-01-17T23:43 | 1938 | 808 | 16.5 | 8.9 | 295 | 14 |
| 2010-01-17T23:43 | 1950 | 806 | 16.4 | 8.8 | 295 | 14 |
| 2010-01-17T23:43 | 1960 | 805 | 16.3 | 8.7 | 295 | 14 |
| 2010-01-17T23:43 | 1970 | 805 | 16.2 | 8.7 | 295 | 14 |
| 2010-01-17T23:43 | 1981 | 803 | 16.1 | 8.6 | 295 | 14 |
| 2010-01-17T23:43 | 1993 | 802 | 16.0 | 8.7 | 295 | 14 |
| 2010-01-17T23:43 | 2005 | 801 | 15.9 | 8.8 | 295 | 14 |
| 2010-01-17T23:43 | 2058 | 796 | 15.2 | 10.3 | 295 | 14 |
| 2010-01-17T23:43 | 2112 | 791 | 14.7 | 10.9 | 295 | 13 |
| 2010-01-17T23:44 | 2169 | 786 | 14.3 | 10.0 | 295 | 13 |
| 2010-01-17T23:44 | 2222 | 781 | 13.9 | 9.4 | 297 | 13 |
| 2010-01-17T23:44 | 2279 | 776 | 13.8 | 8.2 | 299 | 13 |
| 2010-01-17T23:44 | 2327 | 771 | 13.3 | 9.3 | 300 | 12 |
| 2010-01-17T23:44 | 2374 | 767 | 13.0 | 9.8 | 298 | 11 |
| 2010-01-17T23:44 | 2429 | 762 | 13.1 | 9.4 | 295 | 11 |
| 2010-01-17T23:45 | 2479 | 758 | 13.2 | 8.9 | 292 | 10 |
| 2010-01-17T23:45 | 2531 | 753 | 12.9 | 8.3 | 290 | 10 |
| 2010-01-17T23:45 | 2584 | 748 | 12.5 | 8.1 | 288 | 10 |
| 2010-01-17T23:45 | 2635 | 744 | 12.2 | 7.4 | 285 | 10 |
| 2010-01-17T23:45 | 2690 | 739 | 11.9 | 7.1 | 284 | 10 |
| 2010-01-17T23:45 | 2742 | 734 | 11.4 | 7.0 | 283 | 10 |
| 2010-01-17T23:46 | 2793 | 730 | 11.0 | 6.7 | 282 | 10 |
| 2010-01-17T23:46 | 2847 | 725 | 10.8 | 6.1 | 280 | 9 |
| 2010-01-17T23:46 | 2901 | 720 | 10.4 | 5.2 | 279 | 9 |
| 2010-01-17T23:46 | 2953 | 716 | 10.6 | 2.4 | 278 | 8 |
| 2010-01-17T23:46 | 3009 | 711 | 10.1 | 2.4 | 278 | 8 |
| 2010-01-17T23:46 | 3061 | 707 | 9.6 | 2.3 | 280 | 9 |
| 2010-01-17T23:47 | 3118 | 702 | 9.6 | 1.6 | 283 | 9 |
| 2010-01-17T23:47 | 3177 | 697 | 9.8 | -8.1 | 288 | 9 |
| 2010-01-17T23:47 | 3230 | 692 | 10.1 | -24.0 | 293 | 9 |
| 2010-01-17T23:47 | 3290 | 687 | 10.1 | -32.8 | 299 | 8 |
| 2010-01-17T23:47 | 3344 | 683 | 9.9 | -33.2 | 302 | 8 |
| 2010-01-17T23:47 | 3402 | 678 | 9.9 | -34.9 | 304 | 8 |
| 2010-01-17T23:48 | 3458 | 674 | 9.7 | -35.4 | 307 | 7 |
| 2010-01-17T23:48 | 3514 | 669 | 9.4 | -35.7 | 309 | 7 |
| 2010-01-17T23:48 | 3568 | 665 | 9.3 | -35.4 | 309 | 7 |
| 2010-01-17T23:48 | 3622 | 660 | 9.3 | -36.3 | 309 | 6 |
| 2010-01-17T23:48 | 3677 | 656 | 9.0 | -36.7 | 310 | 6 |
| 2010-01-17T23:48 | 3732 | 652 | 8.6 | -36.8 | 309 | 6 |
| 2010-01-17T23:49 | 3789 | 647 | 8.2 | -36.8 | 306 | 6 |
| 2010-01-17T23:49 | 3848 | 643 | 7.9 | -33.3 | 300 | 5 |
| 2010-01-17T23:49 | 3906 | 638 | 7.6 | -11.8 | 295 | 5 |
| 2010-01-17T23:49 | 3958 | 634 | 7.1 | -12.1 | 293 | 5 |
| 2010-01-17T23:49 | 4013 | 630 | 6.8 | -9.0 | 295 | 5 |
| 2010-01-17T23:49 | 4066 | 626 | 6.4 | -10.7 | 299 | 5 |
| 2010-01-17T23:50 | 4124 | 621 | 5.9 | -12.0 | 302 | 6 |
| 2010-01-17T23:50 | 4181 | 617 | 5.3 | -12.6 | 305 | 5 |
| 2010-01-17T23:50 | 4236 | 613 | 4.8 | -14.1 | 308 | 5 |
| 2010-01-17T23:50 | 4295 | 608 | 4.5 | -11.2 | 309 | 4 |
| 2010-01-17T23:50 | 4350 | 604 | 4.2 | 0.0 | 307 | 3 |
| 2010-01-17T23:50 | 4409 | 600 | 3.9 | 0.9 | 302 | 3 |
| 2010-01-17T23:51 | 4469 | 596 | 3.5 | -0.9 | 295 | 4 |
| 2010-01-17T23:51 | 4527 | 591 | 3.3 | -1.1 | 287 | 4 |
| 2010-01-17T23:51 | 4584 | 587 | 2.9 | -1.5 | 281 | 4 |
| 2010-01-17T23:51 | 4638 | 583 | 2.4 | -1.7 | 277 | 4 |
| 2010-01-17T23:51 | 4695 | 579 | 2.0 | -1.7 | 272 | 4 |
| 2010-01-17T23:51 | 4751 | 575 | 1.5 | -1.9 | 268 | 4 |
| 2010-01-17T23:52 | 4806 | 571 | 1.0 | -2.0 | 265 | 4 |
| 2010-01-17T23:52 | 4862 | 567 | 0.6 | -2.1 | 262 | 3 |
| 2010-01-17T23:52 | 4919 | 563 | 0.3 | -2.3 | 260 | 3 |
| 2010-01-17T23:52 | 4976 | 559 | -0.2 | -2.7 | 263 | 3 |
| 2010-01-17T23:52 | 5033 | 555 | -0.8 | -2.7 | 266 | 2 |
| 2010-01-17T23:52 | 5090 | 551 | -1.2 | -2.9 | 264 | 2 |
| 2010-01-17T23:53 | 5149 | 547 | -1.9 | -3.0 | 257 | 2 |
| 2010-01-17T23:53 | 5206 | 543 | -2.3 | -3.2 | 240 | 2 |
| 2010-01-17T23:53 | 5266 | 539 | -1.9 | -3.4 | 211 | 2 |
| 2010-01-17T23:53 | 5323 | 536 | -0.7 | -3.9 | 193 | 3 |
| 2010-01-17T23:53 | 5374 | 532 | -0.5 | -4.8 | 186 | 4 |
| 2010-01-17T23:53 | 5426 | 529 | -0.9 | -5.3 | 184 | 4 |
| 2010-01-17T23:54 | 5483 | 525 | -1.1 | -5.6 | 185 | 4 |
| 2010-01-17T23:54 | 5538 | 521 | -1.3 | -6.4 | 190 | 4 |
| 2010-01-17T23:54 | 5593 | 518 | -1.7 | -6.8 | 196 | 4 |
| 2010-01-17T23:54 | 5649 | 514 | -1.9 | -7.0 | 201 | 5 |
| 2010-01-17T23:54 | 5708 | 510 | -2.3 | -7.4 | 203 | 5 |
| 2010-01-17T23:54 | 5764 | 507 | -2.6 | -8.0 | 206 | 5 |
| 2010-01-17T23:55 | 5822 | 503 | -3.1 | -8.2 | 209 | 5 |
| 2010-01-17T23:55 | 5878 | 499 | -3.4 | -8.5 | 211 | 5 |
| 2010-01-17T23:55 | 5933 | 496 | -3.9 | -7.9 | 209 | 5 |
| 2010-01-17T23:55 | 5989 | 492 | -4.3 | -8.9 | 206 | 5 |
| 2010-01-17T23:55 | 6049 | 489 | -4.7 | -9.4 | 209 | 5 |
| 2010-01-17T23:55 | 6108 | 485 | -5.2 | -9.6 | 215 | 5 |
| 2010-01-17T23:56 | 6162 | 482 | -5.6 | -9.8 | 221 | 5 |
| 2010-01-17T23:56 | 6216 | 478 | -5.8 | -10.2 | 229 | 5 |
| 2010-01-17T23:56 | 6275 | 475 | -6.2 | -10.6 | 237 | 5 |
| 2010-01-17T23:56 | 6325 | 472 | -6.3 | -11.1 | 243 | 5 |
| 2010-01-17T23:56 | 6382 | 468 | -6.8 | -11.0 | 245 | 4 |
| 2010-01-17T23:56 | 6440 | 465 | -7.3 | -10.6 | 245 | 3 |
| 2010-01-17T23:57 | 6497 | 462 | -7.7 | -10.4 | 249 | 2 |
| 2010-01-17T23:57 | 6552 | 458 | -8.1 | -10.4 | 255 | 2 |
| 2010-01-17T23:57 | 6607 | 455 | -8.5 | -10.5 | 252 | 1 |
| 2010-01-17T23:57 | 6660 | 452 | -8.6 | -11.4 | 242 | 1 |
| 2010-01-17T23:57 | 6714 | 449 | -8.8 | -11.8 | 232 | 2 |
| 2010-01-17T23:57 | 6770 | 446 | -8.8 | -12.9 | 221 | 2 |
| 2010-01-17T23:58 | 6829 | 442 | -9.2 | -13.5 | 205 | 2 |
| 2010-01-17T23:58 | 6892 | 439 | -9.8 | -14.1 | 189 | 3 |
| 2010-01-17T23:58 | 6949 | 435 | -10.3 | -14.5 | 176 | 3 |
| 2010-01-17T23:58 | 6989 | 433 | -10.7 | -14.8 | 166 | 4 |
| 2010-01-17T23:58 | 7037 | 430 | -11.1 | -15.1 | 158 | 4 |
| 2010-01-17T23:58 | 7083 | 428 | -11.6 | -15.2 | 155 | 4 |
| 2010-01-17T23:59 | 7137 | 425 | -12.1 | -15.4 | 155 | 4 |
| 2010-01-17T23:59 | 7188 | 422 | -12.7 | -15.6 | 155 | 4 |
| 2010-01-17T23:59 | 7247 | 419 | -13.2 | -15.7 | 153 | 4 |
| 2010-01-17T23:59 | 7304 | 416 | -13.5 | -15.9 | 146 | 5 |
| 2010-01-17T23:59 | 7358 | 413 | -13.6 | -16.1 | 139 | 5 |
| 2010-01-17T23:59 | 7415 | 410 | -13.7 | -16.6 | 138 | 4 |
| 2010-01-18T00:00 | 7459 | 407 | -14.1 | -17.1 | 140 | 4 |
| 2010-01-18T00:00 | 7498 | 405 | -14.2 | -17.8 | 143 | 3 |
| 2010-01-18T00:00 | 7538 | 403 | -14.1 | -18.8 | 143 | 3 |
| 2010-01-18T00:00 | 7577 | 401 | -14.4 | -19.4 | 139 | 3 |
| 2010-01-18T00:00 | 7615 | 399 | -14.7 | -19.9 | 136 | 3 |
| 2010-01-18T00:00 | 7652 | 397 | -14.8 | -20.7 | 132 | 3 |
| 2010-01-18T00:01 | 7690 | 395 | -15.0 | -20.9 | 127 | 2 |
| 2010-01-18T00:01 | 7725 | 393 | -15.2 | -21.2 | 124 | 3 |
| 2010-01-18T00:01 | 7762 | 391 | -15.5 | -21.9 | 128 | 3 |
| 2010-01-18T00:01 | 7804 | 389 | -15.8 | -22.1 | 132 | 3 |
| 2010-01-18T00:01 | 7839 | 387 | -16.1 | -21.3 | 130 | 3 |
| 2010-01-18T00:01 | 7876 | 386 | -16.4 | -21.0 | 124 | 4 |
| 2010-01-18T00:02 | 7916 | 383 | -16.8 | -20.9 | 123 | 4 |
| 2010-01-18T00:02 | 7953 | 382 | -17.1 | -21.4 | 124 | 5 |
| 2010-01-18T00:02 | 7990 | 380 | -17.4 | -21.2 | 125 | 5 |
| 2010-01-18T00:02 | 8027 | 378 | -17.6 | -21.0 | 124 | 5 |
| 2010-01-18T00:02 | 8065 | 376 | -17.8 | -21.7 | 123 | 5 |
| 2010-01-18T00:02 | 8107 | 374 | -18.0 | -21.7 | 122 | 6 |
| 2010-01-18T00:03 | 8149 | 372 | -18.4 | -21.6 | 123 | 7 |
| 2010-01-18T00:03 | 8195 | 369 | -18.9 | -21.9 | 128 | 7 |
| 2010-01-18T00:03 | 8232 | 368 | -18.8 | -22.4 | 136 | 8 |
| 2010-01-18T00:03 | 8267 | 366 | -18.9 | -22.8 | 142 | 8 |
| 2010-01-18T00:03 | 8302 | 364 | -19.2 | -23.2 | 145 | 9 |
| 2010-01-18T00:03 | 8339 | 362 | -19.3 | -23.5 | 146 | 10 |
| 2010-01-18T00:04 | 8377 | 361 | -19.5 | -24.3 | 147 | 10 |
| 2010-01-18T00:04 | 8415 | 359 | -19.8 | -25.0 | 146 | 10 |
| 2010-01-18T00:04 | 8451 | 357 | -20.1 | -25.0 | 144 | 11 |
| 2010-01-18T00:04 | 8487 | 355 | -20.3 | -25.4 | 143 | 11 |
| 2010-01-18T00:04 | 8525 | 353 | -20.5 | -26.5 | 143 | 11 |
| 2010-01-18T00:04 | 8563 | 352 | -20.8 | -27.1 | 143 | 11 |
| 2010-01-18T00:05 | 8598 | 350 | -21.0 | -27.5 | 144 | 11 |
| 2010-01-18T00:05 | 8636 | 348 | -21.2 | -27.8 | 145 | 12 |
| 2010-01-18T00:05 | 8674 | 346 | -21.4 | -28.2 | 147 | 12 |
| 2010-01-18T00:05 | 8711 | 345 | -21.6 | -28.7 | 149 | 13 |
| 2010-01-18T00:05 | 8750 | 343 | -21.8 | -29.4 | 152 | 13 |
| 2010-01-18T00:05 | 8788 | 341 | -21.8 | -29.5 | 153 | 14 |
| 2010-01-18T00:06 | 8826 | 339 | -22.0 | -30.6 | 153 | 13 |
| 2010-01-18T00:06 | 8865 | 337 | -22.4 | -31.1 | 153 | 13 |
| 2010-01-18T00:06 | 8902 | 336 | -22.7 | -32.2 | 152 | 13 |
| 2010-01-18T00:06 | 8941 | 334 | -22.9 | -32.1 | 152 | 13 |
| 2010-01-18T00:06 | 8978 | 332 | -23.2 | -31.9 | 152 | 13 |
| 2010-01-18T00:06 | 9015 | 331 | -23.5 | -31.7 | 150 | 13 |
| 2010-01-18T00:07 | 9053 | 329 | -23.9 | -31.5 | 149 | 13 |
| 2010-01-18T00:07 | 9092 | 327 | -24.0 | -31.8 | 149 | 14 |
| 2010-01-18T00:07 | 9133 | 325 | -24.2 | -32.5 | 151 | 15 |
| 2010-01-18T00:07 | 9170 | 324 | -24.1 | -34.7 | 153 | 16 |
| 2010-01-18T00:07 | 9208 | 322 | -24.2 | -35.6 | 153 | 15 |
| 2010-01-18T00:07 | 9251 | 320 | -24.4 | -36.3 | 152 | 15 |
| 2010-01-18T00:08 | 9290 | 318 | -24.8 | -36.4 | 151 | 15 |
| 2010-01-18T00:08 | 9329 | 317 | -25.1 | -36.5 | 150 | 14 |
| 2010-01-18T00:08 | 9366 | 315 | -25.5 | -36.2 | 149 | 14 |
| 2010-01-18T00:08 | 9404 | 313 | -25.8 | -36.4 | 148 | 13 |
| 2010-01-18T00:08 | 9445 | 312 | -25.7 | -36.5 | 146 | 13 |
| 2010-01-18T00:08 | 9484 | 310 | -26.0 | -36.8 | 144 | 13 |
| 2010-01-18T00:09 | 9521 | 308 | -26.3 | -37.2 | 143 | 13 |
| 2010-01-18T00:09 | 9557 | 307 | -26.7 | -37.2 | 141 | 13 |
| 2010-01-18T00:09 | 9593 | 305 | -27.0 | -37.6 | 140 | 13 |
| 2010-01-18T00:09 | 9630 | 304 | -27.2 | -38.2 | 140 | 13 |
| 2010-01-18T00:09 | 9665 | 302 | -27.5 | -38.5 | 140 | 12 |
| 2010-01-18T00:09 | 9703 | 301 | -27.8 | -38.9 | 142 | 12 |
| 2010-01-18T00:10 | 9742 | 299 | -28.1 | -39.1 | 145 | 12 |
| 2010-01-18T00:10 | 9780 | 298 | -28.4 | -39.3 | 146 | 12 |
| 2010-01-18T00:10 | 9816 | 296 | -28.6 | -38.9 | 146 | 12 |
| 2010-01-18T00:10 | 9854 | 294 | -29.0 | -39.1 | 146 | 12 |
| 2010-01-18T00:10 | 9890 | 293 | -29.3 | -39.5 | 146 | 12 |
| 2010-01-18T00:10 | 9927 | 291 | -29.6 | -39.9 | 146 | 13 |
| 2010-01-18T00:11 | 9966 | 290 | -30.0 | -39.3 | 146 | 13 |
| 2010-01-18T00:11 | 10002 | 288 | -30.3 | -39.1 | 145 | 13 |
| 2010-01-18T00:11 | 10041 | 287 | -30.7 | -39.5 | 145 | 13 |
| 2010-01-18T00:11 | 10078 | 285 | -31.0 | -40.0 | 145 | 13 |
| 2010-01-18T00:11 | 10116 | 284 | -31.3 | -40.8 | 145 | 13 |
| 2010-01-18T00:11 | 10155 | 282 | -31.6 | -41.5 | 146 | 13 |
| 2010-01-18T00:12 | 10193 | 281 | -31.9 | -41.7 | 146 | 13 |
| 2010-01-18T00:12 | 10231 | 279 | -32.3 | -42.2 | 146 | 13 |
| 2010-01-18T00:12 | 10270 | 278 | -32.6 | -42.1 | 145 | 14 |
| 2010-01-18T00:12 | 10308 | 276 | -33.0 | -42.2 | 145 | 14 |
| 2010-01-18T00:12 | 10347 | 275 | -33.3 | -42.3 | 144 | 14 |
| 2010-01-18T00:12 | 10384 | 273 | -33.7 | -42.5 | 144 | 14 |
| 2010-01-18T00:13 | 10424 | 272 | -34.1 | -43.0 | 145 | 15 |
| 2010-01-18T00:13 | 10467 | 270 | -34.5 | -42.9 | 145 | 15 |
| 2010-01-18T00:13 | 10508 | 268 | -34.9 | -42.8 | 145 | 16 |
| 2010-01-18T00:13 | 10547 | 267 | -35.3 | -43.0 | 145 | 16 |
| 2010-01-18T00:13 | 10587 | 265 | -35.6 | -43.4 | 145 | 17 |
| 2010-01-18T00:13 | 10627 | 264 | -35.9 | -44.3 | 144 | 17 |
| 2010-01-18T00:14 | 10667 | 262 | -36.3 | -44.8 | 144 | 16 |
| 2010-01-18T00:14 | 10705 | 261 | -36.6 | -45.0 | 144 | 16 |
| 2010-01-18T00:14 | 10748 | 259 | -36.7 | -46.5 | 143 | 16 |
| 2010-01-18T00:14 | 10790 | 258 | -37.1 | -47.7 | 141 | 16 |
| 2010-01-18T00:14 | 10832 | 256 | -37.5 | -48.0 | 141 | 17 |
| 2010-01-18T00:14 | 10874 | 255 | -37.9 | -48.5 | 141 | 17 |
| 2010-01-18T00:15 | 10915 | 253 | -38.3 | -48.6 | 141 | 17 |
| 2010-01-18T00:15 | 10955 | 252 | -38.7 | -48.8 | 141 | 16 |
| 2010-01-18T00:15 | 10995 | 250 | -39.0 | -49.5 | 140 | 16 |
| 2010-01-18T00:15 | 11035 | 249 | -39.3 | -49.5 | 140 | 16 |
| 2010-01-18T00:15 | 11077 | 247 | -39.9 | -50.0 | 139 | 16 |
| 2010-01-18T00:15 | 11118 | 246 | -40.0 | -50.1 | 138 | 16 |
| 2010-01-18T00:16 | 11161 | 244 | -40.5 | -50.4 | 137 | 16 |
| 2010-01-18T00:16 | 11199 | 243 | -40.9 | -50.7 | 136 | 15 |
| 2010-01-18T00:16 | 11238 | 241 | -41.3 | -51.2 | 135 | 15 |
| 2010-01-18T00:16 | 11278 | 240 | -41.4 | -51.2 | 134 | 16 |
| 2010-01-18T00:16 | 11317 | 239 | -41.8 | -51.4 | 133 | 16 |
| 2010-01-18T00:16 | 11358 | 237 | -42.2 | -51.6 | 131 | 16 |
| 2010-01-18T00:17 | 11401 | 236 | -42.5 | -52.0 | 130 | 15 |
| 2010-01-18T00:17 | 11443 | 234 | -42.9 | -52.2 | 128 | 15 |
| 2010-01-18T00:17 | 11482 | 233 | -43.3 | -52.3 | 127 | 15 |
| 2010-01-18T00:17 | 11522 | 231 | -43.7 | -52.3 | 126 | 15 |
| 2010-01-18T00:17 | 11563 | 230 | -44.0 | -52.3 | 126 | 15 |
| 2010-01-18T00:17 | 11604 | 229 | -44.4 | -52.4 | 126 | 16 |
| 2010-01-18T00:18 | 11644 | 227 | -44.9 | -52.5 | 124 | 16 |
| 2010-01-18T00:18 | 11684 | 226 | -45.2 | -52.5 | 122 | 16 |
| 2010-01-18T00:18 | 11723 | 225 | -45.5 | -52.6 | 122 | 16 |
| 2010-01-18T00:18 | 11763 | 223 | -45.9 | -53.2 | 122 | 15 |
| 2010-01-18T00:18 | 11806 | 222 | -46.1 | -53.6 | 122 | 15 |
| 2010-01-18T00:18 | 11850 | 220 | -46.5 | -54.3 | 121 | 15 |
| 2010-01-18T00:19 | 11892 | 219 | -46.8 | -54.7 | 119 | 14 |
| 2010-01-18T00:19 | 11935 | 218 | -47.1 | -55.2 | 118 | 14 |
| 2010-01-18T00:19 | 11977 | 216 | -47.5 | -56.0 | 118 | 14 |
| 2010-01-18T00:19 | 12018 | 215 | -47.9 | -56.8 | 117 | 14 |
| 2010-01-18T00:19 | 12058 | 214 | -48.2 | -57.2 | 117 | 13 |
| 2010-01-18T00:19 | 12098 | 212 | -48.6 | -57.8 | 117 | 13 |
| 2010-01-18T00:20 | 12137 | 211 | -49.0 | -58.6 | 117 | 13 |
| 2010-01-18T00:20 | 12177 | 210 | -49.3 | -59.2 | 118 | 12 |
| 2010-01-18T00:20 | 12218 | 208 | -49.6 | -59.5 | 119 | 12 |
| 2010-01-18T00:20 | 12256 | 207 | -49.8 | -59.5 | 121 | 12 |
| 2010-01-18T00:20 | 12295 | 206 | -50.1 | -59.8 | 120 | 11 |
| 2010-01-18T00:20 | 12335 | 205 | -50.5 | -60.5 | 118 | 11 |
| 2010-01-18T00:21 | 12377 | 203 | -50.9 | -61.1 | 115 | 11 |
| 2010-01-18T00:21 | 12423 | 202 | -51.4 | -62.0 | 114 | 11 |
| 2010-01-18T00:21 | 12460 | 201 | -51.7 | -62.5 | 111 | 11 |
| 2010-01-18T00:21 | 12501 | 200 | -52.0 | -63.1 | 108 | 11 |
| 2010-01-18T00:21 | 12541 | 198 | -52.4 | -63.8 | 106 | 11 |
| 2010-01-18T00:21 | 12580 | 197 | -52.8 | -64.3 | 105 | 12 |
| 2010-01-18T00:22 | 12621 | 196 | -53.2 | -64.7 | 103 | 12 |
| 2010-01-18T00:22 | 12660 | 195 | -53.5 | -65.0 | 102 | 13 |
| 2010-01-18T00:22 | 12702 | 193 | -53.9 | -65.4 | 101 | 13 |
| 2010-01-18T00:22 | 12744 | 192 | -54.3 | -65.8 | 101 | 14 |
| 2010-01-18T00:22 | 12788 | 191 | -54.7 | -66.3 | 102 | 14 |
| 2010-01-18T00:22 | 12832 | 190 | -55.1 | -66.7 | 102 | 15 |
| 2010-01-18T00:23 | 12878 | 188 | -55.4 | -66.9 | 102 | 16 |
| 2010-01-18T00:23 | 12926 | 187 | -55.9 | -67.3 | 101 | 17 |
| 2010-01-18T00:23 | 12983 | 185 | -56.5 | -67.8 | 102 | 18 |
| 2010-01-18T00:23 | 13023 | 184 | -56.8 | -68.0 | 102 | 18 |
| 2010-01-18T00:23 | 13063 | 183 | -57.2 | -68.3 | 102 | 17 |
| 2010-01-18T00:23 | 13109 | 181 | -57.6 | -68.6 | 101 | 17 |
| 2010-01-18T00:24 | 13161 | 180 | -58.2 | -68.8 | 100 | 18 |
| 2010-01-18T00:24 | 13219 | 178 | -58.7 | -69.1 | 99 | 19 |
| 2010-01-18T00:24 | 13266 | 177 | -59.1 | -69.2 | 99 | 19 |
| 2010-01-18T00:24 | 13313 | 176 | -59.5 | -69.5 | 99 | 19 |
| 2010-01-18T00:24 | 13360 | 174 | -60.0 | -69.8 | 99 | 18 |
| 2010-01-18T00:24 | 13410 | 173 | -60.4 | -70.1 | 99 | 19 |
| 2010-01-18T00:25 | 13463 | 171 | -60.9 | -70.5 | 100 | 19 |
| 2010-01-18T00:25 | 13512 | 170 | -61.4 | -70.8 | 102 | 18 |
| 2010-01-18T00:25 | 13558 | 169 | -61.7 | -70.9 | 103 | 18 |
| 2010-01-18T00:25 | 13604 | 168 | -62.2 | -71.2 | 103 | 18 |
| 2010-01-18T00:25 | 13655 | 166 | -62.7 | -71.4 | 104 | 17 |
| 2010-01-18T00:25 | 13701 | 165 | -63.1 | -71.6 | 107 | 17 |
| 2010-01-18T00:26 | 13749 | 164 | -63.5 | -71.9 | 108 | 17 |
| 2010-01-18T00:26 | 13793 | 163 | -64.0 | -72.2 | 108 | 17 |
| 2010-01-18T00:26 | 13840 | 161 | -64.5 | -72.5 | 108 | 17 |
| 2010-01-18T00:26 | 13889 | 160 | -64.9 | -72.7 | 108 | 18 |
| 2010-01-18T00:26 | 13938 | 159 | -65.3 | -72.9 | 108 | 17 |
| 2010-01-18T00:26 | 13986 | 157 | -65.8 | -73.4 | 108 | 17 |
| 2010-01-18T00:27 | 14035 | 156 | -66.2 | -73.7 | 107 | 18 |
| 2010-01-18T00:27 | 14085 | 155 | -66.7 | -74.2 | 105 | 19 |
| 2010-01-18T00:27 | 14144 | 153 | -67.3 | -74.7 | 104 | 20 |
| 2010-01-18T00:27 | 14199 | 152 | -67.8 | -75.0 | 103 | 21 |
| 2010-01-18T00:27 | 14250 | 151 | -68.2 | -75.3 | 103 | 21 |
| 2010-01-18T00:27 | 14310 | 149 | -68.9 | -75.8 | 102 | 21 |
| 2010-01-18T00:28 | 14379 | 148 | -69.4 | -76.3 | 103 | 22 |
| 2010-01-18T00:28 | 14439 | 146 | -70.0 | -76.8 | 105 | 23 |
| 2010-01-18T00:28 | 14514 | 144 | -70.5 | -77.4 | 107 | 25 |
| 2010-01-18T00:28 | 14569 | 143 | -70.9 | -77.8 | 108 | 26 |
| 2010-01-18T00:28 | 14628 | 141 | -71.4 | -78.4 | 108 | 27 |
| 2010-01-18T00:28 | 14696 | 140 | -72.1 | -79.2 | 108 | 27 |
| 2010-01-18T00:29 | 14751 | 139 | -72.7 | -79.7 | 109 | 27 |
| 2010-01-18T00:29 | 14799 | 137 | -72.9 | -80.0 | 110 | 27 |
| 2010-01-18T00:29 | 14845 | 136 | -73.4 | -80.4 | 110 | 27 |
| 2010-01-18T00:29 | 14893 | 135 | -73.8 | -80.9 | 111 | 27 |
| 2010-01-18T00:29 | 14941 | 134 | -74.3 | -81.3 | 111 | 27 |
| 2010-01-18T00:29 | 14988 | 133 | -74.7 | -81.8 | 110 | 27 |
| 2010-01-18T00:30 | 15033 | 132 | -75.1 | -82.2 | 110 | 28 |
| 2010-01-18T00:30 | 15084 | 131 | -75.5 | -82.6 | 109 | 28 |
| 2010-01-18T00:30 | 15132 | 130 | -75.7 | -82.8 | 108 | 29 |
| 2010-01-18T00:30 | 15180 | 129 | -76.1 | -83.2 | 107 | 30 |
| 2010-01-18T00:30 | 15228 | 128 | -76.5 | -83.6 | 107 | 31 |
| 2010-01-18T00:30 | 15277 | 127 | -76.9 | -84.0 | 106 | 32 |
| 2010-01-18T00:31 | 15326 | 125 | -77.3 | -84.4 | 106 | 32 |
| 2010-01-18T00:31 | 15375 | 124 | -77.8 | -84.8 | 106 | 33 |
| 2010-01-18T00:31 | 15423 | 123 | -78.0 | -85.0 | 107 | 33 |
| 2010-01-18T00:31 | 15469 | 122 | -78.5 | -85.5 | 107 | 34 |
| 2010-01-18T00:31 | 15517 | 121 | -78.8 | -85.8 | 108 | 34 |
| 2010-01-18T00:31 | 15564 | 120 | -79.2 | -86.3 | 108 | 34 |
| 2010-01-18T00:32 | 15611 | 119 | -79.7 | -86.7 | 108 | 34 |
| 2010-01-18T00:32 | 15659 | 118 | -80.1 | -87.1 | 108 | 34 |
| 2010-01-18T00:32 | 15708 | 117 | -80.5 | -87.5 | 108 | 34 |
| 2010-01-18T00:32 | 15755 | 116 | -80.9 | -87.9 | 109 | 34 |
| 2010-01-18T00:32 | 15804 | 115 | -81.3 | -88.3 | 109 | 35 |
| 2010-01-18T00:32 | 15852 | 114 | -81.7 | -88.7 | 109 | 35 |
| 2010-01-18T00:33 | 15898 | 113 | -82.1 | -89.1 | 108 | 35 |
| 2010-01-18T00:33 | 15946 | 112 | -82.4 | -89.4 | 107 | 36 |
| 2010-01-18T00:33 | 15992 | 111 | -82.6 | -89.6 | 105 | 36 |
| 2010-01-18T00:33 | 16034 | 111 | -82.8 | -89.9 | 103 | 37 |
| 2010-01-18T00:33 | 16079 | 110 | -83.2 | -90.3 | 102 | 37 |
| 2010-01-18T00:33 | 16124 | 109 | -83.2 | -90.3 | 101 | 37 |
| 2010-01-18T00:34 | 16165 | 108 | -83.3 | -90.3 | 98 | 36 |
| 2010-01-18T00:34 | 16208 | 107 | -82.0 | -89.3 | 95 | 35 |
| 2010-01-18T00:34 | 16250 | 106 | -81.4 | -88.8 | 92 | 34 |
| 2010-01-18T00:34 | 16299 | 106 | -81.2 | -88.5 | 89 | 31 |
| 2010-01-18T00:34 | 16361 | 104 | -80.0 | -87.5 | 86 | 28 |
| 2010-01-18T00:34 | 16422 | 103 | -79.4 | -86.9 | 84 | 24 |
| 2010-01-18T00:35 | 16502 | 102 | -78.8 | -86.5 | 82 | 19 |
| 2010-01-18T00:35 | 16569 | 101 | -78.2 | -86.0 | 80 | 16 |
| 2010-01-18T00:35 | 16630 | 100 | -78.3 | -86.2 | 79 | 14 |
| 2010-01-18T00:35 | 16679 | 99 | -78.4 | -86.5 | 80 | 13 |
| 2010-01-18T00:35 | 16725 | 98 | -78.8 | -87.1 | 81 | 12 |
| 2010-01-18T00:35 | 16771 | 97 | -79.1 | -87.4 | 82 | 11 |
| 2010-01-18T00:36 | 16822 | 96 | -79.6 | -88.0 | 83 | 10 |
| 2010-01-18T00:36 | 16875 | 95 | -80.0 | -88.5 | 82 | 9 |
| 2010-01-18T00:36 | 16921 | 95 | -80.3 | -88.9 | 79 | 8 |
| 2010-01-18T00:36 | 16969 | 94 | -80.7 | -89.3 | 77 | 7 |
| 2010-01-18T00:36 | 17013 | 93 | -80.5 | -89.3 | 83 | 5 |
| 2010-01-18T00:36 | 17058 | 92 | -79.5 | -88.6 | 96 | 4 |
| 2010-01-18T00:37 | 17104 | 92 | -79.3 | -88.4 | 108 | 4 |
| 2010-01-18T00:37 | 17149 | 91 | -79.2 | -88.4 | 114 | 4 |
| 2010-01-18T00:37 | 17199 | 90 | -78.6 | -88.1 | 114 | 3 |
| 2010-01-18T00:37 | 17245 | 89 | -78.5 | -88.1 | 106 | 1 |
| 2010-01-18T00:37 | 17293 | 89 | -78.7 | -88.4 | 0 | 0 |
| 2010-01-18T00:37 | 17339 | 88 | -79.0 | -88.7 | 305 | 1 |
| 2010-01-18T00:38 | 17389 | 87 | -79.2 | -89.1 | 293 | 3 |
| 2010-01-18T00:38 | 17440 | 86 | -79.2 | -89.2 | 285 | 4 |
| 2010-01-18T00:38 | 17488 | 86 | -79.2 | -89.3 | 278 | 5 |
| 2010-01-18T00:38 | 17535 | 85 | -79.5 | -89.7 | 272 | 6 |
| 2010-01-18T00:38 | 17583 | 84 | -79.8 | -90.0 | 268 | 6 |
| 2010-01-18T00:38 | 17632 | 83 | -80.2 | -90.5 | 265 | 5 |
| 2010-01-18T00:39 | 17680 | 83 | -79.9 | -90.4 | 258 | 4 |
| 2010-01-18T00:39 | 17728 | 82 | -78.9 | -89.7 | 255 | 4 |
| 2010-01-18T00:39 | 17777 | 81 | -78.5 | -89.3 | 260 | 4 |
| 2010-01-18T00:39 | 17825 | 81 | -78.6 | -89.4 | 266 | 5 |
| 2010-01-18T00:39 | 17874 | 80 | -78.6 | -89.5 | 266 | 6 |
| 2010-01-18T00:39 | 17922 | 79 | -78.2 | -89.3 | 259 | 6 |
| 2010-01-18T00:40 | 17970 | 79 | -77.7 | -89.0 | 250 | 6 |
| 2010-01-18T00:40 | 18016 | 78 | -77.4 | -88.8 | 242 | 5 |
| 2010-01-18T00:40 | 18061 | 77 | -77.2 | -88.8 | 234 | 5 |
| 2010-01-18T00:40 | 18106 | 77 | -76.5 | -88.3 | 226 | 5 |
| 2010-01-18T00:40 | 18149 | 76 | -76.3 | -88.3 | 222 | 5 |
| 2010-01-18T00:40 | 18196 | 76 | -76.3 | -88.3 | 224 | 4 |
| 2010-01-18T00:41 | 18242 | 75 | -76.0 | -88.3 | 230 | 4 |
| 2010-01-18T00:41 | 18288 | 74 | -76.2 | -88.6 | 243 | 4 |
| 2010-01-18T00:41 | 18332 | 74 | -76.1 | -88.7 | 263 | 4 |
| 2010-01-18T00:41 | 18375 | 73 | -75.4 | -88.3 | 285 | 5 |
| 2010-01-18T00:41 | 18419 | 73 | -74.1 | -87.5 | 299 | 5 |
| 2010-01-18T00:41 | 18466 | 72 | -73.4 | -87.1 | 304 | 6 |
| 2010-01-18T00:42 | 18511 | 72 | -72.7 | -86.7 | 304 | 7 |
| 2010-01-18T00:42 | 18557 | 71 | -72.4 | -86.6 | 305 | 8 |
| 2010-01-18T00:42 | 18606 | 70 | -72.4 | -86.9 | 307 | 9 |
| 2010-01-18T00:42 | 18653 | 70 | -72.4 | -87.2 | 309 | 10 |
| 2010-01-18T00:42 | 18702 | 69 | -72.6 | -87.6 | 311 | 10 |
| 2010-01-18T00:42 | 18750 | 69 | -72.8 | -88.0 | 314 | 10 |
| 2010-01-18T00:43 | 18799 | 68 | -72.7 | -88.2 | 316 | 9 |
| 2010-01-18T00:43 | 18848 | 68 | -72.7 | -88.5 | 311 | 8 |
| 2010-01-18T00:43 | 18896 | 67 | -71.8 | -88.1 | 298 | 8 |
| 2010-01-18T00:43 | 18946 | 66 | -71.2 | -87.8 | 284 | 8 |
| 2010-01-18T00:43 | 18991 | 66 | -70.5 | -87.4 | 275 | 9 |
| 2010-01-18T00:43 | 19041 | 65 | -70.4 | -87.5 | 270 | 9 |
| 2010-01-18T00:44 | 19089 | 65 | -70.1 | -87.6 | 265 | 10 |
| 2010-01-18T00:44 | 19137 | 64 | -69.6 | -87.4 | 261 | 11 |
| 2010-01-18T00:44 | 19183 | 64 | -69.4 | -87.6 | 259 | 12 |
| 2010-01-18T00:44 | 19229 | 63 | -69.4 | -87.8 | 258 | 13 |
| 2010-01-18T00:44 | 19276 | 63 | -69.3 | -88.0 | 257 | 14 |
| 2010-01-18T00:44 | 19321 | 62 | -69.4 | -88.4 | 256 | 14 |
| 2010-01-18T00:45 | 19367 | 62 | -69.5 | -88.7 | 255 | 14 |
| 2010-01-18T00:45 | 19412 | 61 | -69.5 | -89.0 | 255 | 14 |
| 2010-01-18T00:45 | 19456 | 61 | -69.5 | -89.2 | 255 | 14 |
| 2010-01-18T00:45 | 19500 | 61 | -69.6 | -89.5 | 255 | 14 |
| 2010-01-18T00:45 | 19548 | 60 | -69.9 | -89.9 | 257 | 14 |
| 2010-01-18T00:45 | 19594 | 60 | -70.3 | -90.4 | 259 | 14 |
| 2010-01-18T00:46 | 19641 | 59 | -70.5 | -90.7 | 263 | 14 |
| 2010-01-18T00:46 | 19686 | 59 | -70.8 | -91.1 | 267 | 14 |
| 2010-01-18T00:46 | 19734 | 58 | -71.2 | -91.5 | 269 | 14 |
| 2010-01-18T00:46 | 19781 | 58 | -71.5 | -91.8 | 270 | 14 |
| 2010-01-18T00:46 | 19829 | 57 | -71.7 | -92.1 | 270 | 13 |
| 2010-01-18T00:46 | 19877 | 57 | -71.6 | -91.9 | 271 | 13 |
| 2010-01-18T00:47 | 19923 | 56 | -71.7 | -92.1 | 272 | 13 |
| 2010-01-18T00:47 | 19972 | 56 | -71.2 | -91.8 | 272 | 14 |
| 2010-01-18T00:47 | 20019 | 55 | -70.9 | -91.7 | 271 | 16 |
| 2010-01-18T00:47 | 20068 | 55 | -70.1 | -91.1 | 270 | 17 |
| 2010-01-18T00:47 | 20118 | 55 | -69.9 | -91.0 | 271 | 17 |
| 2010-01-18T00:47 | 20169 | 54 | -69.9 | -91.0 | 272 | 16 |
| 2010-01-18T00:48 | 20220 | 54 | -69.7 | -90.9 | 274 | 16 |
| 2010-01-18T00:48 | 20271 | 53 | -69.7 | -91.2 | 276 | 16 |
| 2010-01-18T00:48 | 20321 | 53 | -69.4 | -91.1 | 279 | 16 |
| 2010-01-18T00:48 | 20372 | 52 | -69.5 | -91.2 | 280 | 16 |
| 2010-01-18T00:48 | 20420 | 52 | -69.3 | -91.2 | 281 | 17 |
| 2010-01-18T00:48 | 20471 | 51 | -69.3 | -91.3 | 282 | 16 |
| 2010-01-18T00:49 | 20520 | 51 | -69.3 | -91.4 | 282 | 15 |
| 2010-01-18T00:49 | 20569 | 51 | -69.6 | -91.7 | 281 | 14 |
| 2010-01-18T00:49 | 20616 | 50 | -69.7 | -92.0 | 278 | 13 |
| 2010-01-18T00:49 | 20665 | 50 | -69.5 | -92.0 | 274 | 13 |
| 2010-01-18T00:49 | 20710 | 49 | -69.3 | -92.0 | 271 | 13 |
| 2010-01-18T00:49 | 20761 | 49 | -69.1 | -92.0 | 269 | 13 |
| 2010-01-18T00:50 | 20808 | 49 | -68.8 | -91.9 | 266 | 12 |
| 2010-01-18T00:50 | 20855 | 48 | -68.9 | -92.1 | 261 | 11 |
| 2010-01-18T00:50 | 20903 | 48 | -69.0 | -92.2 | 257 | 11 |
| 2010-01-18T00:50 | 20951 | 47 | -69.3 | -92.6 | 254 | 10 |
| 2010-01-18T00:50 | 20998 | 47 | -69.4 | -92.7 | 252 | 9 |
| 2010-01-18T00:50 | 21043 | 47 | -69.7 | -93.1 | 249 | 7 |
| 2010-01-18T00:51 | 21090 | 46 | -69.5 | -93.0 | 244 | 7 |
| 2010-01-18T00:51 | 21137 | 46 | -68.9 | -92.7 | 238 | 7 |
| 2010-01-18T00:51 | 21184 | 46 | -69.4 | -92.9 | 234 | 9 |
| 2010-01-18T00:51 | 21230 | 45 | -69.7 | -93.2 | 233 | 10 |
| 2010-01-18T00:51 | 21278 | 45 | -69.8 | -93.4 | 233 | 10 |
| 2010-01-18T00:51 | 21326 | 45 | -69.9 | -93.6 | 231 | 11 |
| 2010-01-18T00:52 | 21375 | 44 | -70.1 | -93.8 | 230 | 10 |
| 2010-01-18T00:52 | 21424 | 44 | -70.1 | -93.9 | 230 | 9 |
| 2010-01-18T00:52 | 21471 | 43 | -70.3 | -94.1 | 227 | 8 |
| 2010-01-18T00:52 | 21520 | 43 | -70.6 | -94.5 | 221 | 7 |
| 2010-01-18T00:52 | 21567 | 43 | -70.1 | -94.2 | 210 | 5 |
| 2010-01-18T00:52 | 21617 | 42 | -70.4 | -94.6 | 198 | 4 |
| 2010-01-18T00:53 | 21665 | 42 | -69.6 | -94.2 | 189 | 4 |
| 2010-01-18T00:53 | 21715 | 42 | -69.2 | -93.8 | 184 | 4 |
| 2010-01-18T00:53 | 21765 | 41 | -68.8 | -93.5 | 171 | 4 |
| 2010-01-18T00:53 | 21812 | 41 | -68.4 | -93.4 | 147 | 5 |
| 2010-01-18T00:53 | 21861 | 41 | -67.4 | -92.8 | 126 | 7 |
| 2010-01-18T00:53 | 21913 | 40 | -67.1 | -92.5 | 116 | 9 |
| 2010-01-18T00:54 | 21964 | 40 | -66.6 | -92.4 | 111 | 12 |
| 2010-01-18T00:54 | 22016 | 40 | -66.5 | -92.6 | 107 | 14 |
| 2010-01-18T00:54 | 22066 | 39 | -66.2 | -92.5 | 103 | 15 |
| 2010-01-18T00:54 | 22117 | 39 | -65.9 | -92.5 | 98 | 16 |
| 2010-01-18T00:54 | 22169 | 39 | -66.3 | -92.7 | 94 | 16 |
| 2010-01-18T00:54 | 22220 | 38 | -66.3 | -92.9 | 90 | 17 |
| 2010-01-18T00:55 | 22274 | 38 | -66.5 | -93.2 | 86 | 17 |
| 2010-01-18T00:55 | 22325 | 38 | -66.6 | -93.4 | 83 | 18 |
| 2010-01-18T00:55 | 22377 | 37 | -66.8 | -93.7 | 80 | 19 |
| 2010-01-18T00:55 | 22427 | 37 | -66.7 | -93.9 | 77 | 20 |
| 2010-01-18T00:55 | 22480 | 37 | -65.9 | -93.6 | 73 | 20 |
| 2010-01-18T00:55 | 22528 | 36 | -65.8 | -93.5 | 70 | 21 |
| 2010-01-18T00:56 | 22574 | 36 | -65.9 | -93.6 | 68 | 21 |
| 2010-01-18T00:56 | 22623 | 36 | -66.3 | -93.9 | 68 | 21 |
| 2010-01-18T00:56 | 22673 | 36 | -66.0 | -93.8 | 67 | 22 |
| 2010-01-18T00:56 | 22719 | 35 | -65.3 | -93.8 | 65 | 21 |
| 2010-01-18T00:56 | 22766 | 35 | -64.6 | -93.4 | 64 | 21 |
| 2010-01-18T00:56 | 22812 | 35 | -64.3 | -93.2 | 65 | 21 |
| 2010-01-18T00:57 | 22858 | 35 | -63.5 | -92.9 | 68 | 22 |
| 2010-01-18T00:57 | 22903 | 34 | -61.7 | -92.0 | 71 | 23 |
| 2010-01-18T00:57 | 22950 | 34 | -61.2 | -91.7 | 75 | 25 |
| 2010-01-18T00:57 | 22997 | 34 | -60.7 | -91.3 | 79 | 27 |
| 2010-01-18T00:57 | 23044 | 34 | -60.6 | -91.1 | 82 | 28 |
| 2010-01-18T00:57 | 23093 | 33 | -60.7 | -91.2 | 84 | 28 |
| 2010-01-18T00:58 | 23140 | 33 | -60.7 | -91.2 | 86 | 28 |
| 2010-01-18T00:58 | 23192 | 33 | -60.9 | -91.3 | 87 | 29 |
| 2010-01-18T00:58 | 23242 | 32 | -60.9 | -91.4 | 87 | 28 |
| 2010-01-18T00:58 | 23296 | 32 | -61.3 | -91.6 | 86 | 28 |
| 2010-01-18T00:58 | 23347 | 32 | -61.7 | -91.8 | 84 | 28 |
| 2010-01-18T00:58 | 23400 | 32 | -62.0 | -92.1 | 82 | 28 |
| 2010-01-18T00:59 | 23451 | 31 | -62.2 | -92.3 | 81 | 28 |
| 2010-01-18T00:59 | 23504 | 31 | -62.1 | -92.3 | 80 | 27 |
| 2010-01-18T00:59 | 23555 | 31 | -62.0 | -92.3 | 79 | 27 |
| 2010-01-18T00:59 | 23607 | 31 | -62.1 | -92.3 | 80 | 28 |
| 2010-01-18T00:59 | 23660 | 30 | -61.8 | -92.2 | 82 | 28 |
| 2010-01-18T00:59 | 23713 | 30 | -61.6 | -92.0 | 84 | 28 |
| 2010-01-18T01:00 | 23765 | 30 | -61.6 | -92.0 | 87 | 28 |
| 2010-01-18T01:00 | 23816 | 30 | -61.5 | -91.9 | 89 | 27 |
| 2010-01-18T01:00 | 23868 | 29 | -61.6 | -92.0 | 91 | 26 |
| 2010-01-18T01:00 | 23916 | 29 | -61.8 | -92.2 | 92 | 27 |
| 2010-01-18T01:00 | 23967 | 29 | -61.7 | -92.1 | 91 | 27 |
| 2010-01-18T01:00 | 24019 | 29 | -61.5 | -91.9 | 88 | 27 |
| 2010-01-18T01:01 | 24071 | 28 | -61.5 | -91.9 | 87 | 27 |
| 2010-01-18T01:01 | 24126 | 28 | -61.3 | -91.8 | 86 | 27 |
| 2010-01-18T01:01 | 24173 | 28 | -61.1 | -91.7 | 86 | 27 |
| 2010-01-18T01:01 | 24225 | 28 | -61.0 | -91.6 | 86 | 27 |
| 2010-01-18T01:01 | 24278 | 27 | -60.7 | -91.4 | 87 | 27 |
| 2010-01-18T01:01 | 24330 | 27 | -60.7 | -91.3 | 88 | 27 |
| 2010-01-18T01:02 | 24386 | 27 | -60.5 | -91.2 | 88 | 27 |
| 2010-01-18T01:02 | 24438 | 27 | -60.4 | -91.1 | 88 | 28 |
| 2010-01-18T01:02 | 24494 | 27 | -60.2 | -91.0 | 87 | 28 |
| 2010-01-18T01:02 | 24548 | 26 | -60.2 | -91.0 | 87 | 28 |
| 2010-01-18T01:02 | 24601 | 26 | -60.0 | -90.9 | 85 | 29 |
| 2010-01-18T01:02 | 24656 | 26 | -60.2 | -91.0 | 84 | 29 |
| 2010-01-18T01:03 | 24713 | 26 | -60.4 | -91.0 | 82 | 30 |
| 2010-01-18T01:03 | 24770 | 25 | -60.6 | -91.2 | 81 | 29 |
| 2010-01-18T01:03 | 24821 | 25 | -60.8 | -91.4 | 80 | 29 |
| 2010-01-18T01:03 | 24879 | 25 | -61.1 | -91.4 | 80 | 29 |
| 2010-01-18T01:03 | 24932 | 25 | -61.5 | -91.6 | 82 | 28 |
| 2010-01-18T01:03 | 24986 | 25 | -61.7 | -91.8 | 83 | 28 |
| 2010-01-18T01:04 | 25035 | 24 | -61.3 | -91.7 | 85 | 28 |
| 2010-01-18T01:04 | 25083 | 24 | -60.8 | -91.4 | 87 | 28 |
| 2010-01-18T01:04 | 25134 | 24 | -60.6 | -91.3 | 88 | 28 |
| 2010-01-18T01:04 | 25190 | 24 | -60.5 | -91.2 | 89 | 28 |
| 2010-01-18T01:04 | 25237 | 24 | -60.7 | -91.4 | 91 | 27 |
| 2010-01-18T01:04 | 25288 | 23 | -60.7 | -91.3 | 93 | 27 |
| 2010-01-18T01:05 | 25337 | 23 | -60.3 | -91.1 | 95 | 27 |
| 2010-01-18T01:05 | 25386 | 23 | -59.7 | -90.7 | 95 | 28 |
| 2010-01-18T01:05 | 25435 | 23 | -59.2 | -90.3 | 94 | 30 |
| 2010-01-18T01:05 | 25490 | 23 | -59.2 | -90.3 | 94 | 30 |
| 2010-01-18T01:05 | 25540 | 22 | -58.7 | -89.9 | 93 | 30 |
| 2010-01-18T01:05 | 25592 | 22 | -59.0 | -90.0 | 92 | 30 |
| 2010-01-18T01:06 | 25647 | 22 | -58.8 | -90.0 | 91 | 30 |
| 2010-01-18T01:06 | 25699 | 22 | -58.2 | -89.5 | 90 | 30 |
| 2010-01-18T01:06 | 25754 | 22 | -58.2 | -89.6 | 90 | 30 |
| 2010-01-18T01:06 | 25810 | 21 | -57.8 | -89.3 | 89 | 29 |
| 2010-01-18T01:06 | 25863 | 21 | -57.0 | -88.7 | 89 | 29 |
| 2010-01-18T01:06 | 25915 | 21 | -56.3 | -88.2 | 90 | 29 |
| 2010-01-18T01:07 | 25966 | 21 | -55.6 | -87.7 | 91 | 30 |
| 2010-01-18T01:07 | 26025 | 21 | -54.9 | -87.3 | 92 | 31 |
| 2010-01-18T01:07 | 26079 | 21 | -54.2 | -86.8 | 91 | 31 |
| 2010-01-18T01:07 | 26131 | 20 | -53.9 | -86.5 | 90 | 30 |
| 2010-01-18T01:07 | 26187 | 20 | -53.8 | -86.5 | 90 | 30 |
| 2010-01-18T01:07 | 26240 | 20 | -53.8 | -86.5 | 91 | 30 |
| 2010-01-18T01:08 | 26296 | 20 | -53.8 | -86.4 | 91 | 30 |
| 2010-01-18T01:08 | 26346 | 20 | -53.1 | -86.0 | 92 | 31 |
| 2010-01-18T01:08 | 26401 | 20 | -53.2 | -86.0 | 92 | 31 |
| 2010-01-18T01:08 | 26456 | 19 | -52.9 | -85.7 | 92 | 31 |
| 2010-01-18T01:08 | 26509 | 19 | -52.8 | -85.7 | 93 | 30 |
| 2010-01-18T01:08 | 26563 | 19 | -52.6 | -85.5 | 93 | 30 |
| 2010-01-18T01:09 | 26611 | 19 | -52.1 | -85.3 | 93 | 30 |
| 2010-01-18T01:09 | 26666 | 19 | -51.9 | -85.1 | 95 | 31 |
| 2010-01-18T01:09 | 26723 | 19 | -51.9 | -84.9 | 96 | 32 |
| 2010-01-18T01:09 | 26780 | 18 | -51.7 | -84.8 | 97 | 32 |
| 2010-01-18T01:09 | 26832 | 18 | -51.5 | -84.7 | 97 | 32 |
| 2010-01-18T01:09 | 26885 | 18 | -51.3 | -84.5 | 98 | 32 |
| 2010-01-18T01:10 | 26943 | 18 | -51.3 | -84.4 | 97 | 32 |
| 2010-01-18T01:10 | 26999 | 18 | -51.5 | -84.4 | 96 | 32 |
| 2010-01-18T01:10 | 27051 | 18 | -51.6 | -84.4 | 96 | 32 |
| 2010-01-18T01:10 | 27111 | 18 | -51.7 | -84.4 | 96 | 33 |
| 2010-01-18T01:10 | 27167 | 17 | -51.8 | -84.4 | 96 | 34 |
| 2010-01-18T01:10 | 27223 | 17 | -51.5 | -84.4 | 96 | 34 |
| 2010-01-18T01:11 | 27277 | 17 | -51.8 | -84.5 | 96 | 34 |
| 2010-01-18T01:11 | 27338 | 17 | -51.8 | -84.4 | 96 | 34 |
| 2010-01-18T01:11 | 27396 | 17 | -52.0 | -84.5 | 96 | 34 |
| 2010-01-18T01:11 | 27451 | 17 | -52.1 | -84.6 | 95 | 35 |
| 2010-01-18T01:11 | 27502 | 17 | -52.0 | -84.6 | 93 | 36 |
| 2010-01-18T01:11 | 27562 | 16 | -52.0 | -84.5 | 92 | 37 |
| 2010-01-18T01:12 | 27617 | 16 | -51.3 | -84.4 | 92 | 37 |
| 2010-01-18T01:12 | 27672 | 16 | -51.0 | -84.3 | 92 | 38 |
| 2010-01-18T01:12 | 27727 | 16 | -50.9 | -84.1 | 93 | 38 |
| 2010-01-18T01:12 | 27786 | 16 | -51.0 | -84.0 | 93 | 38 |
| 2010-01-18T01:12 | 27843 | 16 | -51.1 | -84.1 | 93 | 37 |
| 2010-01-18T01:12 | 27896 | 16 | -51.0 | -83.9 | 93 | 37 |
| 2010-01-18T01:13 | 27944 | 15 | -51.2 | -84.0 | 92 | 37 |
| 2010-01-18T01:13 | 28002 | 15 | -51.4 | -84.1 | 92 | 37 |
| 2010-01-18T01:13 | 28056 | 15 | -51.5 | -84.1 | 92 | 38 |
| 2010-01-18T01:13 | 28106 | 15 | -51.5 | -84.2 | 92 | 38 |
| 2010-01-18T01:13 | 28157 | 15 | -51.0 | -84.0 | 92 | 37 |
| 2010-01-18T01:13 | 28215 | 15 | -50.7 | -84.0 | 91 | 38 |
| 2010-01-18T01:14 | 28267 | 15 | -50.8 | -83.8 | 91 | 39 |
| 2010-01-18T01:14 | 28323 | 15 | -50.3 | -83.7 | 91 | 40 |
| 2010-01-18T01:14 | 28370 | 14 | -50.1 | -83.6 | 91 | 40 |
| 2010-01-18T01:14 | 28423 | 14 | -49.6 | -83.5 | 92 | 39 |
| 2010-01-18T01:14 | 28473 | 14 | -48.9 | -83.0 | 92 | 39 |
| 2010-01-18T01:14 | 28530 | 14 | -48.4 | -82.7 | 93 | 39 |
| 2010-01-18T01:15 | 28579 | 14 | -47.9 | -82.3 | 93 | 40 |
| 2010-01-18T01:15 | 28634 | 14 | -47.6 | -82.1 | 93 | 41 |
| 2010-01-18T01:15 | 28690 | 14 | -46.8 | -81.5 | 95 | 42 |
| 2010-01-18T01:15 | 28747 | 14 | -46.4 | -81.3 | 96 | 42 |
| 2010-01-18T01:15 | 28797 | 14 | -46.0 | -81.0 | 97 | 43 |
| 2010-01-18T01:15 | 28849 | 13 | -46.2 | -81.1 | 97 | 43 |
| 2010-01-18T01:16 | 28905 | 13 | -46.5 | -81.1 | 96 | 43 |
| 2010-01-18T01:16 | 28960 | 13 | -46.2 | -80.9 | 95 | 42 |
| 2010-01-18T01:16 | 29016 | 13 | -45.9 | -80.8 | 94 | 41 |
| 2010-01-18T01:16 | 29077 | 13 | -45.8 | -80.8 | 94 | 40 |
| 2010-01-18T01:16 | 29130 | 13 | -45.8 | -80.7 | 93 | 39 |
| 2010-01-18T01:16 | 29186 | 13 | -45.8 | -80.6 | 92 | 39 |
| 2010-01-18T01:17 | 29249 | 13 | -45.5 | -80.4 | 90 | 39 |
| 2010-01-18T01:17 | 29299 | 13 | -45.0 | -80.3 | 89 | 38 |
| 2010-01-18T01:17 | 29354 | 12 | -44.8 | -80.2 | 88 | 38 |
| 2010-01-18T01:17 | 29413 | 12 | -44.7 | -80.0 | 88 | 36 |
| 2010-01-18T01:17 | 29471 | 12 | -44.7 | -80.0 | 87 | 35 |
| 2010-01-18T01:17 | 29525 | 12 | -44.8 | -79.9 | 87 | 34 |
| 2010-01-18T01:18 | 29585 | 12 | -45.1 | -80.1 | 88 | 33 |
| 2010-01-18T01:18 | 29633 | 12 | -45.1 | -80.0 | 90 | 33 |
| 2010-01-18T01:18 | 29688 | 12 | -44.5 | -79.8 | 92 | 32 |
| 2010-01-18T01:18 | 29749 | 12 | -43.3 | -79.1 | 94 | 30 |
| 2010-01-18T01:18 | 29802 | 12 | -42.9 | -78.8 | 97 | 28 |
| 2010-01-18T01:18 | 29858 | 12 | -42.6 | -78.6 | 101 | 26 |
| 2010-01-18T01:19 | 29916 | 11 | -42.4 | -78.5 | 104 | 25 |
| 2010-01-18T01:19 | 29966 | 11 | -42.2 | -78.4 | 107 | 25 |
| 2010-01-18T01:19 | 30022 | 11 | -42.0 | -78.2 | 109 | 24 |
| 2010-01-18T01:19 | 30082 | 11 | -42.0 | -78.2 | 109 | 23 |
| 2010-01-18T01:19 | 30131 | 11 | -41.7 | -78.0 | 107 | 22 |
| 2010-01-18T01:19 | 30192 | 11 | -41.9 | -78.2 | 105 | 21 |
| 2010-01-18T01:20 | 30245 | 11 | -42.3 | -78.3 | 103 | 21 |
| 2010-01-18T01:20 | 30293 | 11 | -42.6 | -78.4 | 100 | 21 |
| 2010-01-18T01:20 | 30355 | 11 | -42.9 | -78.5 | 99 | 21 |
| 2010-01-18T11:47 | 4 | 1008 | 27.6 | 24.1 | 320 | 4 |
| 2010-01-18T11:47 | 14 | 1007 | 27.9 | 24.4 | 324 | 2 |
| 2010-01-18T11:47 | 25 | 1006 | 27.9 | 24.4 | 324 | 2 |
| 2010-01-18T11:47 | 35 | 1005 | 27.9 | 24.3 | 323 | 3 |
| 2010-01-18T11:47 | 45 | 1004 | 27.9 | 24.3 | 323 | 3 |
| 2010-01-18T11:47 | 56 | 1002 | 27.8 | 24.2 | 322 | 4 |
| 2010-01-18T11:47 | 67 | 1001 | 27.7 | 24.1 | 322 | 4 |
| 2010-01-18T11:47 | 78 | 1000 | 27.6 | 24.0 | 321 | 4 |
| 2010-01-18T11:47 | 90 | 999 | 27.5 | 24.0 | 320 | 5 |
| 2010-01-18T11:47 | 101 | 997 | 27.4 | 24.0 | 319 | 5 |
| 2010-01-18T11:47 | 111 | 996 | 27.3 | 23.9 | 318 | 5 |
| 2010-01-18T11:47 | 120 | 995 | 27.2 | 23.9 | 317 | 5 |
| 2010-01-18T11:47 | 129 | 994 | 27.1 | 23.9 | 316 | 6 |
| 2010-01-18T11:47 | 138 | 993 | 27.1 | 23.9 | 315 | 6 |
| 2010-01-18T11:47 | 147 | 992 | 27.1 | 23.9 | 314 | 6 |
| 2010-01-18T11:47 | 157 | 991 | 27.0 | 23.9 | 313 | 6 |
| 2010-01-18T11:47 | 168 | 990 | 26.9 | 23.8 | 312 | 6 |
| 2010-01-18T11:47 | 181 | 989 | 26.8 | 23.8 | 312 | 6 |
| 2010-01-18T11:47 | 193 | 987 | 26.6 | 23.8 | 311 | 6 |
| 2010-01-18T11:47 | 206 | 986 | 26.5 | 23.7 | 311 | 6 |
| 2010-01-18T11:47 | 218 | 984 | 26.4 | 23.7 | 311 | 6 |
| 2010-01-18T11:47 | 231 | 983 | 26.3 | 23.6 | 311 | 6 |
| 2010-01-18T11:47 | 244 | 982 | 26.2 | 23.6 | 311 | 6 |
| 2010-01-18T11:47 | 257 | 980 | 26.1 | 23.5 | 311 | 6 |
| 2010-01-18T11:47 | 270 | 979 | 25.9 | 23.5 | 311 | 6 |
| 2010-01-18T11:47 | 284 | 977 | 25.8 | 23.5 | 312 | 6 |
| 2010-01-18T11:47 | 298 | 976 | 25.7 | 23.5 | 312 | 6 |
| 2010-01-18T11:47 | 311 | 974 | 25.5 | 23.4 | 312 | 6 |
| 2010-01-18T11:47 | 323 | 973 | 25.4 | 23.3 | 311 | 6 |
| 2010-01-18T11:47 | 334 | 972 | 25.3 | 23.4 | 311 | 6 |
| 2010-01-18T11:48 | 346 | 970 | 25.2 | 23.4 | 311 | 6 |
| 2010-01-18T11:48 | 360 | 969 | 25.1 | 23.4 | 311 | 7 |
| 2010-01-18T11:48 | 373 | 967 | 25.0 | 23.4 | 310 | 7 |
| 2010-01-18T11:48 | 386 | 966 | 24.9 | 23.3 | 310 | 7 |
| 2010-01-18T11:48 | 400 | 964 | 24.7 | 23.3 | 310 | 7 |
| 2010-01-18T11:48 | 414 | 963 | 24.6 | 23.3 | 309 | 7 |
| 2010-01-18T11:48 | 426 | 961 | 24.5 | 23.3 | 309 | 7 |
| 2010-01-18T11:48 | 439 | 960 | 24.3 | 23.3 | 309 | 7 |
| 2010-01-18T11:48 | 451 | 959 | 24.2 | 23.2 | 309 | 7 |
| 2010-01-18T11:48 | 464 | 957 | 24.1 | 23.2 | 308 | 7 |
| 2010-01-18T11:48 | 475 | 956 | 24.0 | 23.1 | 308 | 7 |
| 2010-01-18T11:48 | 486 | 955 | 23.9 | 23.0 | 309 | 7 |
| 2010-01-18T11:48 | 496 | 954 | 23.8 | 23.0 | 309 | 7 |
| 2010-01-18T11:48 | 506 | 953 | 23.8 | 22.8 | 309 | 8 |
| 2010-01-18T11:48 | 518 | 951 | 23.7 | 22.7 | 310 | 8 |
| 2010-01-18T11:48 | 529 | 950 | 23.5 | 22.8 | 310 | 8 |
| 2010-01-18T11:48 | 541 | 949 | 23.4 | 22.9 | 311 | 8 |
| 2010-01-18T11:48 | 553 | 948 | 23.3 | 22.9 | 312 | 8 |
| 2010-01-18T11:48 | 564 | 946 | 23.2 | 22.9 | 313 | 8 |
| 2010-01-18T11:48 | 576 | 945 | 23.1 | 22.8 | 313 | 8 |
| 2010-01-18T11:48 | 589 | 944 | 23.0 | 22.5 | 314 | 8 |
| 2010-01-18T11:48 | 600 | 943 | 23.0 | 22.0 | 315 | 8 |
| 2010-01-18T11:48 | 610 | 942 | 23.0 | 21.8 | 316 | 8 |
| 2010-01-18T11:48 | 620 | 940 | 23.0 | 21.7 | 317 | 8 |
| 2010-01-18T11:48 | 631 | 939 | 23.0 | 21.5 | 317 | 8 |
| 2010-01-18T11:48 | 642 | 938 | 22.9 | 21.4 | 318 | 8 |
| 2010-01-18T11:48 | 652 | 937 | 22.9 | 21.2 | 318 | 8 |
| 2010-01-18T11:48 | 663 | 936 | 22.9 | 20.9 | 319 | 8 |
| 2010-01-18T11:48 | 675 | 935 | 22.9 | 20.6 | 319 | 8 |
| 2010-01-18T11:48 | 687 | 933 | 22.8 | 20.5 | 320 | 8 |
| 2010-01-18T11:49 | 698 | 932 | 22.8 | 20.4 | 320 | 8 |
| 2010-01-18T11:49 | 709 | 931 | 22.7 | 20.3 | 321 | 8 |
| 2010-01-18T11:49 | 719 | 930 | 22.6 | 20.2 | 321 | 8 |
| 2010-01-18T11:49 | 731 | 929 | 22.5 | 20.1 | 322 | 8 |
| 2010-01-18T11:49 | 743 | 927 | 22.5 | 20.1 | 322 | 8 |
| 2010-01-18T11:49 | 754 | 926 | 22.4 | 20.0 | 323 | 8 |
| 2010-01-18T11:49 | 765 | 925 | 22.3 | 19.9 | 324 | 8 |
| 2010-01-18T11:49 | 776 | 924 | 22.3 | 19.8 | 324 | 8 |
| 2010-01-18T11:49 | 788 | 923 | 22.2 | 19.6 | 325 | 9 |
| 2010-01-18T11:49 | 799 | 921 | 22.2 | 19.5 | 325 | 9 |
| 2010-01-18T11:49 | 811 | 920 | 22.1 | 19.4 | 326 | 9 |
| 2010-01-18T11:49 | 823 | 919 | 22.0 | 19.3 | 326 | 9 |
| 2010-01-18T11:49 | 835 | 918 | 21.9 | 19.2 | 327 | 9 |
| 2010-01-18T11:49 | 847 | 916 | 21.8 | 19.1 | 327 | 9 |
| 2010-01-18T11:49 | 858 | 915 | 21.8 | 19.0 | 327 | 9 |
| 2010-01-18T11:49 | 869 | 914 | 21.7 | 18.9 | 327 | 9 |
| 2010-01-18T11:49 | 882 | 913 | 21.6 | 18.7 | 327 | 9 |
| 2010-01-18T11:49 | 893 | 912 | 21.5 | 18.6 | 328 | 9 |
| 2010-01-18T11:49 | 905 | 910 | 21.5 | 18.5 | 328 | 9 |
| 2010-01-18T11:49 | 917 | 909 | 21.4 | 18.5 | 328 | 9 |
| 2010-01-18T11:49 | 930 | 908 | 21.3 | 18.4 | 328 | 9 |
| 2010-01-18T11:49 | 943 | 906 | 21.2 | 18.2 | 328 | 9 |
| 2010-01-18T11:49 | 956 | 905 | 21.1 | 18.1 | 328 | 9 |
| 2010-01-18T11:49 | 967 | 904 | 21.0 | 18.0 | 328 | 9 |
| 2010-01-18T11:49 | 977 | 903 | 21.0 | 18.0 | 328 | 9 |
| 2010-01-18T11:49 | 989 | 901 | 20.9 | 17.8 | 329 | 9 |
| 2010-01-18T11:49 | 1003 | 900 | 20.9 | 17.4 | 329 | 9 |
| 2010-01-18T11:49 | 1014 | 899 | 21.0 | 16.9 | 328 | 8 |
| 2010-01-18T11:49 | 1025 | 898 | 21.0 | 16.5 | 328 | 8 |
| 2010-01-18T11:49 | 1037 | 897 | 21.0 | 16.1 | 328 | 8 |
| 2010-01-18T11:50 | 1048 | 895 | 21.0 | 15.8 | 327 | 8 |
| 2010-01-18T11:50 | 1059 | 894 | 21.0 | 15.6 | 327 | 8 |
| 2010-01-18T11:50 | 1070 | 893 | 20.9 | 15.4 | 326 | 8 |
| 2010-01-18T11:50 | 1082 | 892 | 20.8 | 15.3 | 325 | 8 |
| 2010-01-18T11:50 | 1092 | 891 | 20.7 | 15.2 | 324 | 8 |
| 2010-01-18T11:50 | 1104 | 890 | 20.6 | 15.2 | 323 | 8 |
| 2010-01-18T11:50 | 1115 | 888 | 20.5 | 15.1 | 322 | 8 |
| 2010-01-18T11:50 | 1127 | 887 | 20.5 | 15.1 | 320 | 8 |
| 2010-01-18T11:50 | 1138 | 886 | 20.3 | 15.0 | 319 | 9 |
| 2010-01-18T11:50 | 1150 | 885 | 20.3 | 14.8 | 318 | 9 |
| 2010-01-18T11:50 | 1164 | 884 | 20.1 | 14.8 | 316 | 9 |
| 2010-01-18T11:50 | 1177 | 882 | 20.1 | 14.6 | 315 | 9 |
| 2010-01-18T11:50 | 1189 | 881 | 20.1 | 14.4 | 313 | 9 |
| 2010-01-18T11:50 | 1202 | 880 | 20.0 | 14.3 | 312 | 9 |
| 2010-01-18T11:50 | 1214 | 878 | 19.9 | 14.4 | 310 | 10 |
| 2010-01-18T11:50 | 1225 | 877 | 19.9 | 14.4 | 309 | 10 |
| 2010-01-18T11:50 | 1236 | 876 | 19.8 | 14.8 | 307 | 10 |
| 2010-01-18T11:50 | 1248 | 875 | 19.6 | 15.0 | 306 | 10 |
| 2010-01-18T11:50 | 1260 | 874 | 19.6 | 15.0 | 304 | 10 |
| 2010-01-18T11:50 | 1274 | 872 | 19.5 | 14.9 | 303 | 11 |
| 2010-01-18T11:50 | 1286 | 871 | 19.4 | 14.7 | 302 | 11 |
| 2010-01-18T11:50 | 1297 | 870 | 19.4 | 14.3 | 300 | 11 |
| 2010-01-18T11:50 | 1310 | 869 | 19.6 | 13.5 | 299 | 11 |
| 2010-01-18T11:50 | 1323 | 867 | 19.7 | 12.7 | 299 | 12 |
| 2010-01-18T11:50 | 1335 | 866 | 19.8 | 11.9 | 298 | 12 |
| 2010-01-18T11:50 | 1347 | 865 | 19.9 | 11.0 | 297 | 12 |
| 2010-01-18T11:50 | 1358 | 864 | 19.9 | 10.6 | 297 | 12 |
| 2010-01-18T11:50 | 1370 | 863 | 19.8 | 10.2 | 296 | 12 |
| 2010-01-18T11:50 | 1380 | 862 | 19.9 | 9.6 | 296 | 12 |
| 2010-01-18T11:50 | 1390 | 861 | 19.9 | 9.2 | 295 | 12 |
| 2010-01-18T11:51 | 1402 | 859 | 19.8 | 9.1 | 295 | 12 |
| 2010-01-18T11:51 | 1414 | 858 | 19.7 | 9.0 | 295 | 12 |
| 2010-01-18T11:51 | 1425 | 857 | 19.6 | 9.0 | 295 | 12 |
| 2010-01-18T11:51 | 1436 | 856 | 19.5 | 9.0 | 294 | 12 |
| 2010-01-18T11:51 | 1447 | 855 | 19.5 | 9.0 | 294 | 12 |
| 2010-01-18T11:51 | 1458 | 854 | 19.4 | 9.0 | 294 | 12 |
| 2010-01-18T11:51 | 1469 | 853 | 19.3 | 8.7 | 293 | 12 |
| 2010-01-18T11:51 | 1482 | 852 | 19.3 | 8.6 | 293 | 12 |
| 2010-01-18T11:51 | 1494 | 850 | 19.2 | 8.8 | 293 | 12 |
| 2010-01-18T11:51 | 1505 | 849 | 19.1 | 9.1 | 293 | 12 |
| 2010-01-18T11:51 | 1516 | 848 | 19.0 | 9.6 | 292 | 12 |
| 2010-01-18T11:51 | 1527 | 847 | 18.9 | 9.9 | 292 | 12 |
| 2010-01-18T11:51 | 1540 | 846 | 18.8 | 11.0 | 292 | 12 |
| 2010-01-18T11:51 | 1551 | 845 | 18.7 | 12.0 | 292 | 12 |
| 2010-01-18T11:51 | 1562 | 844 | 18.6 | 12.1 | 292 | 12 |
| 2010-01-18T11:51 | 1575 | 842 | 18.6 | 11.7 | 292 | 12 |
| 2010-01-18T11:51 | 1589 | 841 | 18.6 | 11.3 | 292 | 12 |
| 2010-01-18T11:51 | 1601 | 840 | 18.6 | 10.9 | 292 | 12 |
| 2010-01-18T11:51 | 1613 | 839 | 18.5 | 10.8 | 293 | 12 |
| 2010-01-18T11:51 | 1626 | 837 | 18.4 | 10.6 | 293 | 12 |
| 2010-01-18T11:51 | 1638 | 836 | 18.4 | 10.5 | 293 | 12 |
| 2010-01-18T11:51 | 1650 | 835 | 18.3 | 10.4 | 294 | 11 |
| 2010-01-18T11:51 | 1661 | 834 | 18.2 | 10.4 | 294 | 11 |
| 2010-01-18T11:51 | 1675 | 833 | 18.1 | 10.4 | 294 | 11 |
| 2010-01-18T11:51 | 1689 | 831 | 17.9 | 10.4 | 295 | 11 |
| 2010-01-18T11:51 | 1701 | 830 | 17.8 | 10.4 | 295 | 11 |
| 2010-01-18T11:51 | 1714 | 829 | 17.7 | 10.4 | 295 | 11 |
| 2010-01-18T11:51 | 1727 | 828 | 17.6 | 10.4 | 295 | 10 |
| 2010-01-18T11:51 | 1739 | 826 | 17.5 | 10.5 | 295 | 10 |
| 2010-01-18T11:51 | 1750 | 825 | 17.3 | 10.5 | 295 | 10 |
| 2010-01-18T11:52 | 1763 | 824 | 17.2 | 10.6 | 295 | 10 |
| 2010-01-18T11:52 | 1775 | 823 | 17.1 | 10.6 | 295 | 10 |
| 2010-01-18T11:52 | 1787 | 822 | 17.0 | 10.5 | 295 | 10 |
| 2010-01-18T11:52 | 1798 | 821 | 16.9 | 10.5 | 294 | 10 |
| 2010-01-18T11:52 | 1810 | 820 | 16.8 | 10.5 | 294 | 10 |
| 2010-01-18T11:52 | 1822 | 818 | 16.7 | 10.4 | 294 | 10 |
| 2010-01-18T11:52 | 1833 | 817 | 16.6 | 10.4 | 293 | 9 |
| 2010-01-18T11:52 | 1846 | 816 | 16.5 | 10.4 | 293 | 9 |
| 2010-01-18T11:52 | 1859 | 815 | 16.4 | 10.4 | 293 | 9 |
| 2010-01-18T11:52 | 1871 | 814 | 16.3 | 10.4 | 292 | 9 |
| 2010-01-18T11:52 | 1882 | 813 | 16.1 | 10.4 | 292 | 9 |
| 2010-01-18T11:52 | 1894 | 812 | 16.1 | 10.5 | 291 | 9 |
| 2010-01-18T11:52 | 1906 | 810 | 15.9 | 10.5 | 291 | 9 |
| 2010-01-18T11:52 | 1920 | 809 | 15.9 | 10.6 | 291 | 9 |
| 2010-01-18T11:52 | 1934 | 808 | 15.7 | 10.7 | 291 | 9 |
| 2010-01-18T11:52 | 1947 | 807 | 15.6 | 10.7 | 291 | 9 |
| 2010-01-18T11:52 | 1959 | 805 | 15.5 | 10.7 | 291 | 8 |
| 2010-01-18T11:52 | 1972 | 804 | 15.4 | 10.7 | 291 | 8 |
| 2010-01-18T11:52 | 1984 | 803 | 15.4 | 10.7 | 291 | 8 |
| 2010-01-18T11:52 | 1997 | 802 | 15.5 | 10.4 | 291 | 8 |
| 2010-01-18T11:52 | 2007 | 801 | 15.5 | 10.1 | 291 | 8 |
| 2010-01-18T11:52 | 2062 | 796 | 15.6 | 6.3 | 290 | 8 |
| 2010-01-18T11:53 | 2121 | 790 | 15.6 | 2.2 | 287 | 7 |
| 2010-01-18T11:53 | 2178 | 785 | 15.5 | -1.8 | 284 | 6 |
| 2010-01-18T11:53 | 2237 | 779 | 15.1 | -3.8 | 281 | 6 |
| 2010-01-18T11:53 | 2297 | 774 | 14.7 | -3.9 | 282 | 6 |
| 2010-01-18T11:53 | 2356 | 768 | 14.4 | -6.3 | 286 | 6 |
| 2010-01-18T11:53 | 2415 | 763 | 13.9 | -3.3 | 291 | 6 |
| 2010-01-18T11:54 | 2472 | 758 | 13.9 | -9.0 | 294 | 5 |
| 2010-01-18T11:54 | 2531 | 753 | 13.4 | -3.2 | 298 | 5 |
| 2010-01-18T11:54 | 2590 | 747 | 13.2 | -0.4 | 301 | 5 |
| 2010-01-18T11:54 | 2644 | 743 | 13.6 | -8.9 | 304 | 5 |
| 2010-01-18T11:54 | 2701 | 738 | 13.5 | -14.5 | 303 | 5 |
| 2010-01-18T11:54 | 2759 | 733 | 13.4 | -15.2 | 301 | 6 |
| 2010-01-18T11:55 | 2814 | 728 | 13.2 | -14.3 | 304 | 6 |
| 2010-01-18T11:55 | 2877 | 722 | 13.0 | -18.1 | 307 | 6 |
| 2010-01-18T11:55 | 2929 | 718 | 12.7 | -17.2 | 306 | 7 |
| 2010-01-18T11:55 | 2984 | 713 | 12.6 | -26.0 | 304 | 7 |
| 2010-01-18T11:55 | 3051 | 707 | 12.3 | -21.0 | 301 | 7 |
| 2010-01-18T11:55 | 3108 | 703 | 11.9 | -12.3 | 297 | 6 |
| 2010-01-18T11:56 | 3173 | 697 | 11.5 | -12.2 | 292 | 6 |
| 2010-01-18T11:56 | 3219 | 693 | 11.3 | -18.3 | 292 | 6 |
| 2010-01-18T11:56 | 3272 | 689 | 11.0 | -17.7 | 290 | 7 |
| 2010-01-18T11:56 | 3336 | 684 | 10.6 | -15.9 | 288 | 7 |
| 2010-01-18T11:56 | 3392 | 679 | 10.1 | -12.6 | 289 | 7 |
| 2010-01-18T11:56 | 3456 | 674 | 9.7 | -12.2 | 289 | 7 |
| 2010-01-18T11:57 | 3506 | 670 | 9.2 | -8.6 | 284 | 8 |
| 2010-01-18T11:57 | 3571 | 665 | 8.4 | 0.7 | 278 | 8 |
| 2010-01-18T11:57 | 3637 | 659 | 7.8 | 1.2 | 275 | 8 |
| 2010-01-18T11:57 | 3693 | 655 | 7.4 | -0.2 | 274 | 7 |
| 2010-01-18T11:57 | 3757 | 650 | 7.2 | -4.1 | 273 | 6 |
| 2010-01-18T11:57 | 3818 | 645 | 6.9 | -6.7 | 272 | 6 |
| 2010-01-18T11:58 | 3865 | 641 | 6.9 | -13.3 | 272 | 5 |
| 2010-01-18T11:58 | 3933 | 636 | 6.7 | -27.0 | 271 | 4 |
| 2010-01-18T11:58 | 3999 | 631 | 6.4 | -31.8 | 266 | 4 |
| 2010-01-18T11:58 | 4062 | 626 | 5.9 | -30.3 | 262 | 3 |
| 2010-01-18T11:58 | 4119 | 622 | 5.4 | -31.3 | 265 | 3 |
| 2010-01-18T11:58 | 4179 | 617 | 5.1 | -32.7 | 267 | 3 |
| 2010-01-18T11:59 | 4245 | 612 | 4.7 | -31.7 | 267 | 3 |
| 2010-01-18T11:59 | 4293 | 609 | 4.3 | -32.4 | 270 | 3 |
| 2010-01-18T11:59 | 4338 | 605 | 3.9 | -32.7 | 274 | 3 |
| 2010-01-18T11:59 | 4379 | 602 | 4.0 | -31.0 | 281 | 3 |
| 2010-01-18T11:59 | 4433 | 598 | 3.8 | -15.6 | 286 | 3 |
| 2010-01-18T11:59 | 4492 | 594 | 3.7 | -15.1 | 276 | 2 |
| 2010-01-18T12:00 | 4548 | 590 | 3.3 | -13.9 | 262 | 3 |
| 2010-01-18T12:00 | 4602 | 586 | 2.8 | -13.9 | 257 | 3 |
| 2010-01-18T12:00 | 4654 | 582 | 2.4 | -13.5 | 256 | 4 |
| 2010-01-18T12:00 | 4712 | 578 | 1.9 | -12.3 | 252 | 4 |
| 2010-01-18T12:00 | 4763 | 574 | 1.2 | -7.1 | 247 | 4 |
| 2010-01-18T12:00 | 4816 | 570 | 0.6 | -4.3 | 243 | 4 |
| 2010-01-18T12:01 | 4859 | 567 | 0.3 | -4.5 | 240 | 3 |
| 2010-01-18T12:01 | 4903 | 564 | 0.0 | -3.8 | 236 | 3 |
| 2010-01-18T12:01 | 4946 | 561 | -0.4 | -3.9 | 231 | 4 |
| 2010-01-18T12:01 | 4990 | 558 | -0.8 | -3.9 | 224 | 4 |
| 2010-01-18T12:01 | 5042 | 555 | -1.2 | -4.1 | 218 | 3 |
| 2010-01-18T12:01 | 5082 | 552 | -1.3 | -2.1 | 219 | 3 |
| 2010-01-18T12:02 | 5122 | 549 | -1.5 | -2.2 | 226 | 4 |
| 2010-01-18T12:02 | 5164 | 546 | -1.5 | -2.4 | 229 | 4 |
| 2010-01-18T12:02 | 5213 | 543 | -1.8 | -3.0 | 230 | 4 |
| 2010-01-18T12:02 | 5252 | 540 | -2.1 | -3.1 | 230 | 5 |
| 2010-01-18T12:02 | 5295 | 537 | -1.8 | -2.5 | 228 | 7 |
| 2010-01-18T12:02 | 5337 | 534 | -1.7 | -2.1 | 225 | 7 |
| 2010-01-18T12:03 | 5380 | 532 | -1.9 | -2.4 | 224 | 7 |
| 2010-01-18T12:03 | 5422 | 529 | -2.1 | -2.9 | 226 | 7 |
| 2010-01-18T12:03 | 5466 | 526 | -2.3 | -3.0 | 227 | 7 |
| 2010-01-18T12:03 | 5517 | 522 | -2.7 | -3.1 | 228 | 7 |
| 2010-01-18T12:03 | 5572 | 519 | -3.1 | -3.3 | 227 | 8 |
| 2010-01-18T12:03 | 5626 | 515 | -2.8 | -3.6 | 224 | 8 |
| 2010-01-18T12:04 | 5666 | 513 | -2.8 | -4.2 | 222 | 9 |
| 2010-01-18T12:04 | 5706 | 510 | -3.0 | -4.8 | 220 | 9 |
| 2010-01-18T12:04 | 5746 | 508 | -3.2 | -5.3 | 219 | 8 |
| 2010-01-18T12:04 | 5787 | 505 | -3.5 | -5.6 | 218 | 7 |
| 2010-01-18T12:04 | 5833 | 502 | -3.7 | -5.7 | 218 | 6 |
| 2010-01-18T12:04 | 5874 | 499 | -4.1 | -5.8 | 218 | 6 |
| 2010-01-18T12:05 | 5913 | 497 | -4.3 | -6.3 | 217 | 5 |
| 2010-01-18T12:05 | 5951 | 495 | -4.5 | -6.3 | 212 | 5 |
| 2010-01-18T12:05 | 5989 | 492 | -4.5 | -6.7 | 208 | 4 |
| 2010-01-18T12:05 | 6028 | 490 | -4.7 | -7.2 | 209 | 4 |
| 2010-01-18T12:05 | 6068 | 487 | -4.7 | -7.2 | 215 | 4 |
| 2010-01-18T12:05 | 6107 | 485 | -4.9 | -7.6 | 221 | 4 |
| 2010-01-18T12:06 | 6145 | 483 | -5.1 | -8.5 | 222 | 4 |
| 2010-01-18T12:06 | 6182 | 480 | -5.3 | -8.9 | 217 | 3 |
| 2010-01-18T12:06 | 6221 | 478 | -5.4 | -9.5 | 211 | 3 |
| 2010-01-18T12:06 | 6260 | 476 | -5.6 | -9.9 | 207 | 3 |
| 2010-01-18T12:06 | 6300 | 473 | -5.8 | -10.0 | 203 | 2 |
| 2010-01-18T12:06 | 6338 | 471 | -5.9 | -10.1 | 201 | 2 |
| 2010-01-18T12:07 | 6377 | 469 | -6.1 | -10.5 | 208 | 1 |
| 2010-01-18T12:07 | 6415 | 466 | -6.4 | -10.6 | 218 | 1 |
| 2010-01-18T12:07 | 6459 | 464 | -6.7 | -10.8 | 223 | 1 |
| 2010-01-18T12:07 | 6497 | 461 | -6.9 | -11.0 | 218 | 1 |
| 2010-01-18T12:07 | 6536 | 459 | -7.2 | -11.3 | 210 | 1 |
| 2010-01-18T12:07 | 6578 | 457 | -7.4 | -11.5 | 212 | 1 |
| 2010-01-18T12:08 | 6618 | 454 | -7.6 | -12.0 | 218 | 1 |
| 2010-01-18T12:08 | 6659 | 452 | -7.8 | -12.4 | 226 | 1 |
| 2010-01-18T12:08 | 6701 | 450 | -8.0 | -12.7 | 241 | 1 |
| 2010-01-18T12:08 | 6736 | 447 | -8.1 | -13.0 | 249 | 1 |
| 2010-01-18T12:08 | 6775 | 445 | -8.4 | -13.2 | 248 | 1 |
| 2010-01-18T12:08 | 6814 | 443 | -8.7 | -13.5 | 251 | 1 |
| 2010-01-18T12:09 | 6854 | 441 | -8.9 | -13.8 | 251 | 0 |
| 2010-01-18T12:09 | 6891 | 439 | -9.1 | -14.1 | 247 | 0 |
| 2010-01-18T12:09 | 6934 | 436 | -9.4 | -14.4 | 0 | 0 |
| 2010-01-18T12:09 | 6977 | 434 | -9.8 | -14.6 | 260 | 0 |
| 2010-01-18T12:09 | 7018 | 431 | -10.1 | -14.7 | 263 | 0 |
| 2010-01-18T12:09 | 7056 | 429 | -10.5 | -14.9 | 266 | 0 |
| 2010-01-18T12:10 | 7096 | 427 | -10.8 | -15.1 | 267 | 0 |
| 2010-01-18T12:10 | 7140 | 425 | -11.2 | -15.2 | 0 | 0 |
| 2010-01-18T12:10 | 7181 | 422 | -11.5 | -15.4 | 0 | 0 |
| 2010-01-18T12:10 | 7218 | 420 | -11.7 | -15.7 | 353 | 0 |
| 2010-01-18T12:10 | 7256 | 418 | -12.1 | -15.8 | 9 | 0 |
| 2010-01-18T12:10 | 7295 | 416 | -12.4 | -15.9 | 27 | 1 |
| 2010-01-18T12:11 | 7336 | 414 | -12.7 | -16.3 | 40 | 1 |
| 2010-01-18T12:11 | 7378 | 412 | -13.0 | -16.4 | 54 | 1 |
| 2010-01-18T12:11 | 7419 | 409 | -13.4 | -16.4 | 86 | 1 |
| 2010-01-18T12:11 | 7460 | 407 | -13.7 | -16.4 | 131 | 1 |
| 2010-01-18T12:11 | 7501 | 405 | -14.1 | -16.5 | 150 | 2 |
| 2010-01-18T12:11 | 7540 | 403 | -14.3 | -16.5 | 156 | 3 |
| 2010-01-18T12:12 | 7582 | 401 | -14.6 | -16.7 | 160 | 3 |
| 2010-01-18T12:12 | 7622 | 399 | -14.9 | -16.9 | 165 | 4 |
| 2010-01-18T12:12 | 7666 | 396 | -15.3 | -16.8 | 168 | 4 |
| 2010-01-18T12:12 | 7707 | 394 | -15.6 | -16.7 | 167 | 5 |
| 2010-01-18T12:12 | 7746 | 392 | -15.9 | -16.7 | 165 | 6 |
| 2010-01-18T12:12 | 7788 | 390 | -16.2 | -16.8 | 167 | 6 |
| 2010-01-18T12:13 | 7829 | 388 | -16.5 | -17.1 | 171 | 7 |
| 2010-01-18T12:13 | 7880 | 385 | -16.9 | -17.4 | 174 | 8 |
| 2010-01-18T12:13 | 7919 | 383 | -17.1 | -17.5 | 178 | 8 |
| 2010-01-18T12:13 | 7960 | 381 | -17.4 | -17.6 | 184 | 7 |
| 2010-01-18T12:13 | 7999 | 379 | -17.2 | -18.5 | 188 | 7 |
| 2010-01-18T12:13 | 8036 | 377 | -17.2 | -19.5 | 191 | 8 |
| 2010-01-18T12:14 | 8076 | 375 | -17.4 | -20.0 | 192 | 8 |
| 2010-01-18T12:14 | 8118 | 373 | -17.5 | -20.1 | 194 | 8 |
| 2010-01-18T12:14 | 8156 | 371 | -17.7 | -20.5 | 196 | 8 |
| 2010-01-18T12:14 | 8197 | 369 | -18.1 | -20.7 | 198 | 8 |
| 2010-01-18T12:14 | 8233 | 368 | -18.4 | -20.8 | 201 | 8 |
| 2010-01-18T12:14 | 8270 | 366 | -18.7 | -21.2 | 202 | 8 |
| 2010-01-18T12:15 | 8309 | 364 | -19.0 | -21.6 | 203 | 8 |
| 2010-01-18T12:15 | 8350 | 362 | -19.4 | -21.7 | 201 | 9 |
| 2010-01-18T12:15 | 8390 | 360 | -19.7 | -21.7 | 198 | 10 |
| 2010-01-18T12:15 | 8431 | 358 | -20.0 | -22.1 | 194 | 10 |
| 2010-01-18T12:15 | 8477 | 356 | -20.3 | -22.3 | 192 | 10 |
| 2010-01-18T12:15 | 8524 | 353 | -20.8 | -22.3 | 192 | 10 |
| 2010-01-18T12:16 | 8567 | 351 | -20.8 | -23.1 | 191 | 10 |
| 2010-01-18T12:16 | 8608 | 349 | -21.1 | -23.4 | 190 | 10 |
| 2010-01-18T12:16 | 8652 | 347 | -21.5 | -23.7 | 189 | 10 |
| 2010-01-18T12:16 | 8693 | 345 | -21.8 | -24.0 | 189 | 10 |
| 2010-01-18T12:16 | 8733 | 344 | -22.1 | -24.3 | 189 | 10 |
| 2010-01-18T12:16 | 8776 | 342 | -22.4 | -24.6 | 189 | 10 |
| 2010-01-18T12:17 | 8818 | 340 | -22.6 | -25.4 | 188 | 10 |
| 2010-01-18T12:17 | 8860 | 338 | -22.8 | -26.0 | 188 | 10 |
| 2010-01-18T12:17 | 8902 | 336 | -23.2 | -26.3 | 187 | 10 |
| 2010-01-18T12:17 | 8943 | 334 | -23.5 | -26.8 | 185 | 10 |
| 2010-01-18T12:17 | 8984 | 332 | -23.8 | -27.0 | 184 | 10 |
| 2010-01-18T12:17 | 9023 | 330 | -24.1 | -27.1 | 183 | 10 |
| 2010-01-18T12:18 | 9065 | 328 | -24.4 | -27.3 | 183 | 10 |
| 2010-01-18T12:18 | 9105 | 327 | -24.5 | -28.4 | 181 | 10 |
| 2010-01-18T12:18 | 9147 | 325 | -24.8 | -28.5 | 179 | 10 |
| 2010-01-18T12:18 | 9191 | 323 | -25.1 | -28.3 | 178 | 10 |
| 2010-01-18T12:18 | 9234 | 321 | -25.3 | -29.3 | 176 | 10 |
| 2010-01-18T12:18 | 9275 | 319 | -25.6 | -29.9 | 174 | 10 |
| 2010-01-18T12:19 | 9317 | 317 | -25.9 | -30.3 | 172 | 10 |
| 2010-01-18T12:19 | 9361 | 315 | -26.1 | -30.6 | 170 | 10 |
| 2010-01-18T12:19 | 9403 | 313 | -26.4 | -31.6 | 169 | 9 |
| 2010-01-18T12:19 | 9445 | 312 | -26.6 | -32.2 | 169 | 9 |
| 2010-01-18T12:19 | 9483 | 310 | -26.9 | -32.4 | 169 | 9 |
| 2010-01-18T12:19 | 9525 | 308 | -27.2 | -32.8 | 168 | 9 |
| 2010-01-18T12:20 | 9569 | 306 | -27.5 | -33.4 | 167 | 9 |
| 2010-01-18T12:20 | 9612 | 304 | -27.7 | -34.3 | 169 | 9 |
| 2010-01-18T12:20 | 9654 | 303 | -27.9 | -34.5 | 170 | 9 |
| 2010-01-18T12:20 | 9696 | 301 | -28.3 | -34.9 | 169 | 9 |
| 2010-01-18T12:20 | 9738 | 299 | -28.6 | -35.3 | 167 | 9 |
| 2010-01-18T12:20 | 9781 | 297 | -28.9 | -35.9 | 165 | 9 |
| 2010-01-18T12:21 | 9823 | 296 | -29.3 | -36.0 | 163 | 9 |
| 2010-01-18T12:21 | 9863 | 294 | -29.6 | -36.4 | 163 | 9 |
| 2010-01-18T12:21 | 9904 | 292 | -29.8 | -37.0 | 162 | 9 |
| 2010-01-18T12:21 | 9947 | 291 | -30.2 | -37.6 | 162 | 9 |
| 2010-01-18T12:21 | 9986 | 289 | -30.5 | -37.7 | 162 | 9 |
| 2010-01-18T12:21 | 10028 | 287 | -30.9 | -37.8 | 163 | 9 |
| 2010-01-18T12:22 | 10069 | 286 | -31.3 | -37.9 | 164 | 9 |
| 2010-01-18T12:22 | 10110 | 284 | -31.6 | -38.2 | 164 | 9 |
| 2010-01-18T12:22 | 10151 | 282 | -32.0 | -38.6 | 163 | 8 |
| 2010-01-18T12:22 | 10195 | 280 | -32.5 | -38.7 | 162 | 8 |
| 2010-01-18T12:22 | 10239 | 279 | -32.9 | -38.8 | 160 | 8 |
| 2010-01-18T12:22 | 10286 | 277 | -33.3 | -38.7 | 159 | 8 |
| 2010-01-18T12:23 | 10328 | 275 | -33.8 | -38.6 | 157 | 8 |
| 2010-01-18T12:23 | 10376 | 273 | -34.2 | -38.6 | 157 | 7 |
| 2010-01-18T12:23 | 10422 | 272 | -34.6 | -38.7 | 157 | 7 |
| 2010-01-18T12:23 | 10465 | 270 | -35.0 | -39.0 | 155 | 6 |
| 2010-01-18T12:23 | 10508 | 268 | -35.3 | -39.5 | 152 | 6 |
| 2010-01-18T12:23 | 10553 | 267 | -35.7 | -39.9 | 149 | 6 |
| 2010-01-18T12:24 | 10600 | 265 | -36.1 | -40.1 | 148 | 6 |
| 2010-01-18T12:24 | 10643 | 263 | -36.5 | -40.3 | 146 | 6 |
| 2010-01-18T12:24 | 10684 | 262 | -36.8 | -40.5 | 145 | 6 |
| 2010-01-18T12:24 | 10726 | 260 | -37.2 | -40.8 | 144 | 6 |
| 2010-01-18T12:24 | 10769 | 258 | -37.5 | -41.2 | 142 | 6 |
| 2010-01-18T12:24 | 10815 | 257 | -37.9 | -41.7 | 139 | 6 |
| 2010-01-18T12:25 | 10862 | 255 | -38.4 | -42.0 | 137 | 7 |
| 2010-01-18T12:25 | 10906 | 253 | -38.8 | -42.6 | 136 | 7 |
| 2010-01-18T12:25 | 10948 | 252 | -39.1 | -42.9 | 135 | 8 |
| 2010-01-18T12:25 | 10992 | 250 | -39.5 | -43.4 | 133 | 8 |
| 2010-01-18T12:25 | 11035 | 249 | -39.9 | -43.7 | 130 | 8 |
| 2010-01-18T12:25 | 11079 | 247 | -40.2 | -44.3 | 127 | 9 |
| 2010-01-18T12:26 | 11124 | 245 | -40.5 | -44.7 | 125 | 9 |
| 2010-01-18T12:26 | 11169 | 244 | -41.0 | -45.1 | 124 | 9 |
| 2010-01-18T12:26 | 11214 | 242 | -41.4 | -45.5 | 122 | 9 |
| 2010-01-18T12:26 | 11264 | 240 | -41.8 | -45.8 | 120 | 9 |
| 2010-01-18T12:26 | 11311 | 239 | -42.3 | -46.5 | 116 | 8 |
| 2010-01-18T12:26 | 11366 | 237 | -42.8 | -46.9 | 111 | 8 |
| 2010-01-18T12:27 | 11410 | 235 | -43.2 | -47.3 | 107 | 8 |
| 2010-01-18T12:27 | 11454 | 234 | -43.5 | -47.6 | 105 | 8 |
| 2010-01-18T12:27 | 11499 | 232 | -44.0 | -48.0 | 104 | 8 |
| 2010-01-18T12:27 | 11542 | 231 | -44.3 | -48.3 | 104 | 8 |
| 2010-01-18T12:27 | 11586 | 229 | -44.8 | -48.9 | 104 | 8 |
| 2010-01-18T12:27 | 11631 | 228 | -45.2 | -49.2 | 104 | 8 |
| 2010-01-18T12:28 | 11675 | 226 | -45.6 | -49.7 | 103 | 8 |
| 2010-01-18T12:28 | 11721 | 224 | -46.0 | -50.2 | 102 | 8 |
| 2010-01-18T12:28 | 11765 | 223 | -46.4 | -50.5 | 104 | 8 |
| 2010-01-18T12:28 | 11810 | 221 | -46.8 | -50.9 | 106 | 9 |
| 2010-01-18T12:28 | 11855 | 220 | -47.2 | -51.3 | 108 | 9 |
| 2010-01-18T12:28 | 11901 | 218 | -47.6 | -51.7 | 108 | 10 |
| 2010-01-18T12:29 | 11947 | 217 | -48.0 | -52.1 | 108 | 10 |
| 2010-01-18T12:29 | 11994 | 215 | -48.4 | -52.5 | 107 | 11 |
| 2010-01-18T12:29 | 12047 | 214 | -48.8 | -53.0 | 108 | 12 |
| 2010-01-18T12:29 | 12104 | 212 | -49.4 | -53.5 | 109 | 12 |
| 2010-01-18T12:29 | 12156 | 210 | -49.9 | -54.0 | 110 | 12 |
| 2010-01-18T12:29 | 12204 | 209 | -50.3 | -54.3 | 109 | 12 |
| 2010-01-18T12:30 | 12249 | 207 | -50.8 | -54.7 | 110 | 12 |
| 2010-01-18T12:30 | 12295 | 206 | -51.2 | -55.0 | 111 | 13 |
| 2010-01-18T12:30 | 12340 | 204 | -51.6 | -55.4 | 112 | 13 |
| 2010-01-18T12:30 | 12387 | 203 | -52.1 | -55.7 | 113 | 13 |
| 2010-01-18T12:30 | 12434 | 201 | -52.5 | -55.9 | 115 | 13 |
| 2010-01-18T12:30 | 12482 | 200 | -53.0 | -56.2 | 116 | 13 |
| 2010-01-18T12:31 | 12529 | 198 | -53.4 | -56.6 | 117 | 13 |
| 2010-01-18T12:31 | 12575 | 197 | -53.8 | -57.0 | 118 | 13 |
| 2010-01-18T12:31 | 12622 | 196 | -54.3 | -57.4 | 117 | 13 |
| 2010-01-18T12:31 | 12668 | 194 | -54.7 | -57.7 | 117 | 13 |
| 2010-01-18T12:31 | 12715 | 193 | -55.1 | -58.1 | 117 | 13 |
| 2010-01-18T12:31 | 12765 | 191 | -55.5 | -58.5 | 117 | 13 |
| 2010-01-18T12:32 | 12811 | 190 | -55.9 | -58.9 | 118 | 12 |
| 2010-01-18T12:32 | 12857 | 188 | -56.3 | -59.3 | 118 | 12 |
| 2010-01-18T12:32 | 12904 | 187 | -56.8 | -59.8 | 118 | 12 |
| 2010-01-18T12:32 | 12950 | 186 | -57.2 | -60.1 | 118 | 13 |
| 2010-01-18T12:32 | 12996 | 184 | -57.5 | -60.5 | 118 | 13 |
| 2010-01-18T12:32 | 13043 | 183 | -57.9 | -60.9 | 118 | 13 |
| 2010-01-18T12:33 | 13091 | 182 | -58.2 | -61.2 | 118 | 14 |
| 2010-01-18T12:33 | 13145 | 180 | -58.7 | -61.7 | 119 | 14 |
| 2010-01-18T12:33 | 13195 | 179 | -59.2 | -62.2 | 119 | 14 |
| 2010-01-18T12:33 | 13244 | 177 | -59.6 | -62.7 | 119 | 14 |
| 2010-01-18T12:33 | 13292 | 176 | -60.0 | -63.2 | 117 | 15 |
| 2010-01-18T12:33 | 13339 | 175 | -60.5 | -63.6 | 116 | 15 |
| 2010-01-18T12:34 | 13388 | 173 | -60.9 | -64.0 | 115 | 16 |
| 2010-01-18T12:34 | 13436 | 172 | -61.3 | -64.5 | 114 | 16 |
| 2010-01-18T12:34 | 13486 | 170 | -61.7 | -64.9 | 113 | 17 |
| 2010-01-18T12:34 | 13533 | 169 | -62.1 | -65.3 | 111 | 17 |
| 2010-01-18T12:34 | 13580 | 168 | -62.5 | -65.7 | 110 | 17 |
| 2010-01-18T12:34 | 13625 | 167 | -62.9 | -66.2 | 109 | 17 |
| 2010-01-18T12:35 | 13671 | 165 | -63.3 | -66.6 | 110 | 17 |
| 2010-01-18T12:35 | 13715 | 164 | -63.7 | -67.0 | 109 | 18 |
| 2010-01-18T12:35 | 13759 | 163 | -64.1 | -67.4 | 109 | 18 |
| 2010-01-18T12:35 | 13805 | 162 | -64.5 | -67.8 | 108 | 18 |
| 2010-01-18T12:35 | 13854 | 161 | -65.0 | -68.3 | 108 | 18 |
| 2010-01-18T12:35 | 13900 | 159 | -65.4 | -68.7 | 108 | 18 |
| 2010-01-18T12:36 | 13951 | 158 | -65.8 | -69.2 | 107 | 19 |
| 2010-01-18T12:36 | 14002 | 157 | -66.3 | -69.8 | 107 | 19 |
| 2010-01-18T12:36 | 14051 | 155 | -66.8 | -70.2 | 107 | 20 |
| 2010-01-18T12:36 | 14097 | 154 | -67.1 | -70.6 | 107 | 20 |
| 2010-01-18T12:36 | 14143 | 153 | -67.6 | -71.1 | 107 | 20 |
| 2010-01-18T12:36 | 14188 | 152 | -68.0 | -71.6 | 108 | 20 |
| 2010-01-18T12:37 | 14234 | 151 | -68.4 | -72.0 | 107 | 20 |
| 2010-01-18T12:37 | 14280 | 150 | -68.8 | -72.5 | 107 | 20 |
| 2010-01-18T12:37 | 14326 | 148 | -69.3 | -73.0 | 107 | 20 |
| 2010-01-18T12:37 | 14373 | 147 | -69.7 | -73.4 | 106 | 21 |
| 2010-01-18T12:37 | 14421 | 146 | -70.1 | -73.9 | 106 | 21 |
| 2010-01-18T12:37 | 14472 | 145 | -70.6 | -74.4 | 105 | 22 |
| 2010-01-18T12:38 | 14517 | 144 | -71.0 | -74.9 | 105 | 22 |
| 2010-01-18T12:38 | 14563 | 143 | -71.5 | -75.4 | 105 | 22 |
| 2010-01-18T12:38 | 14607 | 142 | -71.9 | -75.8 | 104 | 22 |
| 2010-01-18T12:38 | 14656 | 140 | -72.4 | -76.3 | 103 | 23 |
| 2010-01-18T12:38 | 14707 | 139 | -72.8 | -76.8 | 103 | 23 |
| 2010-01-18T12:38 | 14755 | 138 | -73.3 | -77.2 | 102 | 24 |
| 2010-01-18T12:39 | 14804 | 137 | -73.6 | -77.6 | 102 | 25 |
| 2010-01-18T12:39 | 14848 | 136 | -73.9 | -77.9 | 103 | 25 |
| 2010-01-18T12:39 | 14893 | 135 | -74.3 | -78.3 | 103 | 25 |
| 2010-01-18T12:39 | 14936 | 134 | -74.7 | -78.7 | 104 | 25 |
| 2010-01-18T12:39 | 14983 | 133 | -75.1 | -79.1 | 105 | 25 |
| 2010-01-18T12:39 | 15027 | 132 | -75.4 | -79.5 | 105 | 25 |
| 2010-01-18T12:40 | 15073 | 131 | -75.8 | -79.9 | 105 | 25 |
| 2010-01-18T12:40 | 15120 | 130 | -76.3 | -80.3 | 106 | 25 |
| 2010-01-18T12:40 | 15166 | 129 | -76.6 | -80.7 | 106 | 25 |
| 2010-01-18T12:40 | 15212 | 128 | -77.1 | -81.1 | 106 | 26 |
| 2010-01-18T12:40 | 15258 | 127 | -77.5 | -81.5 | 106 | 26 |
| 2010-01-18T12:40 | 15303 | 126 | -77.9 | -81.9 | 106 | 26 |
| 2010-01-18T12:41 | 15348 | 125 | -78.3 | -82.3 | 106 | 26 |
| 2010-01-18T12:41 | 15395 | 124 | -78.6 | -82.6 | 106 | 26 |
| 2010-01-18T12:41 | 15441 | 123 | -79.1 | -83.1 | 105 | 26 |
| 2010-01-18T12:41 | 15488 | 122 | -79.5 | -83.4 | 105 | 26 |
| 2010-01-18T12:41 | 15535 | 121 | -79.9 | -83.8 | 104 | 26 |
| 2010-01-18T12:41 | 15579 | 120 | -80.3 | -84.2 | 103 | 26 |
| 2010-01-18T12:42 | 15626 | 119 | -80.7 | -84.7 | 102 | 27 |
| 2010-01-18T12:42 | 15672 | 118 | -81.2 | -85.1 | 102 | 27 |
| 2010-01-18T12:42 | 15719 | 117 | -81.6 | -85.5 | 103 | 27 |
| 2010-01-18T12:42 | 15764 | 116 | -82.0 | -85.9 | 103 | 27 |
| 2010-01-18T12:42 | 15810 | 115 | -82.4 | -86.3 | 103 | 27 |
| 2010-01-18T12:42 | 15857 | 114 | -82.8 | -86.7 | 103 | 27 |
| 2010-01-18T12:43 | 15904 | 113 | -83.2 | -87.1 | 102 | 27 |
| 2010-01-18T12:43 | 15951 | 112 | -83.7 | -87.6 | 102 | 28 |
| 2010-01-18T12:43 | 15997 | 111 | -83.8 | -87.8 | 103 | 28 |
| 2010-01-18T12:43 | 16045 | 110 | -83.8 | -87.8 | 105 | 27 |
| 2010-01-18T12:43 | 16092 | 109 | -84.0 | -87.9 | 106 | 27 |
| 2010-01-18T12:43 | 16139 | 108 | -84.3 | -88.2 | 107 | 28 |
| 2010-01-18T12:44 | 16188 | 107 | -84.7 | -88.6 | 107 | 28 |
| 2010-01-18T12:44 | 16239 | 106 | -85.1 | -89.0 | 107 | 28 |
| 2010-01-18T12:44 | 16288 | 105 | -85.4 | -89.4 | 106 | 28 |
| 2010-01-18T12:44 | 16337 | 104 | -84.9 | -88.9 | 103 | 27 |
| 2010-01-18T12:44 | 16390 | 103 | -82.9 | -87.2 | 96 | 25 |
| 2010-01-18T12:44 | 16438 | 103 | -79.8 | -84.2 | 90 | 22 |
| 2010-01-18T12:45 | 16480 | 102 | -78.4 | -83.0 | 86 | 19 |
| 2010-01-18T12:45 | 16526 | 101 | -77.5 | -82.2 | 85 | 16 |
| 2010-01-18T12:45 | 16573 | 100 | -76.7 | -81.5 | 85 | 13 |
| 2010-01-18T12:45 | 16617 | 99 | -76.4 | -81.4 | 87 | 10 |
| 2010-01-18T12:45 | 16663 | 99 | -76.2 | -81.4 | 90 | 8 |
| 2010-01-18T12:45 | 16709 | 98 | -76.3 | -81.7 | 96 | 7 |
| 2010-01-18T12:46 | 16754 | 97 | -76.5 | -82.1 | 103 | 6 |
| 2010-01-18T12:46 | 16797 | 96 | -76.8 | -82.5 | 110 | 6 |
| 2010-01-18T12:46 | 16843 | 96 | -77.0 | -83.0 | 117 | 6 |
| 2010-01-18T12:46 | 16887 | 95 | -77.4 | -83.4 | 123 | 6 |
| 2010-01-18T12:46 | 16931 | 94 | -77.7 | -83.9 | 130 | 6 |
| 2010-01-18T12:46 | 16975 | 93 | -78.1 | -84.4 | 139 | 7 |
| 2010-01-18T12:47 | 17020 | 93 | -78.1 | -84.5 | 147 | 8 |
| 2010-01-18T12:47 | 17062 | 92 | -78.2 | -84.8 | 152 | 9 |
| 2010-01-18T12:47 | 17105 | 91 | -78.2 | -84.9 | 154 | 9 |
| 2010-01-18T12:47 | 17152 | 91 | -78.3 | -85.2 | 157 | 8 |
| 2010-01-18T12:47 | 17198 | 90 | -78.3 | -85.3 | 164 | 7 |
| 2010-01-18T12:47 | 17244 | 89 | -78.6 | -85.7 | 173 | 6 |
| 2010-01-18T12:48 | 17290 | 88 | -78.6 | -85.7 | 183 | 6 |
| 2010-01-18T12:48 | 17335 | 88 | -78.3 | -85.6 | 188 | 7 |
| 2010-01-18T12:48 | 17376 | 87 | -78.2 | -85.6 | 191 | 8 |
| 2010-01-18T12:48 | 17419 | 86 | -78.5 | -85.8 | 195 | 8 |
| 2010-01-18T12:48 | 17462 | 86 | -77.5 | -85.2 | 201 | 8 |
| 2010-01-18T12:48 | 17505 | 85 | -77.8 | -85.4 | 206 | 8 |
| 2010-01-18T12:49 | 17547 | 84 | -78.0 | -85.7 | 211 | 8 |
| 2010-01-18T12:49 | 17588 | 84 | -78.3 | -86.1 | 213 | 8 |
| 2010-01-18T12:49 | 17630 | 83 | -78.5 | -86.3 | 212 | 8 |
| 2010-01-18T12:49 | 17671 | 83 | -78.7 | -86.6 | 211 | 8 |
| 2010-01-18T12:49 | 17713 | 82 | -78.9 | -86.9 | 210 | 9 |
| 2010-01-18T12:49 | 17754 | 81 | -79.2 | -87.2 | 210 | 9 |
| 2010-01-18T12:50 | 17796 | 81 | -79.3 | -87.4 | 209 | 8 |
| 2010-01-18T12:50 | 17836 | 80 | -79.1 | -87.3 | 205 | 8 |
| 2010-01-18T12:50 | 17878 | 80 | -79.0 | -87.2 | 199 | 8 |
| 2010-01-18T12:50 | 17917 | 79 | -78.8 | -87.1 | 195 | 8 |
| 2010-01-18T12:50 | 17958 | 79 | -79.0 | -87.3 | 194 | 8 |
| 2010-01-18T12:50 | 17999 | 78 | -79.0 | -87.4 | 194 | 7 |
| 2010-01-18T12:51 | 18040 | 77 | -79.2 | -87.6 | 198 | 6 |
| 2010-01-18T12:51 | 18083 | 77 | -78.5 | -87.1 | 208 | 5 |
| 2010-01-18T12:51 | 18125 | 76 | -78.4 | -87.0 | 223 | 4 |
| 2010-01-18T12:51 | 18165 | 76 | -77.8 | -86.5 | 236 | 4 |
| 2010-01-18T12:51 | 18208 | 75 | -76.8 | -85.7 | 243 | 3 |
| 2010-01-18T12:51 | 18248 | 75 | -76.3 | -85.3 | ||
| 2010-01-18T23:39 | 4 | 1009 | 30.2 | 24.5 | 310 | 5 |
| 2010-01-18T23:39 | 15 | 1008 | 28.7 | 23.3 | 317 | 5 |
| 2010-01-18T23:39 | 25 | 1007 | 28.5 | 23.5 | 318 | 6 |
| 2010-01-18T23:39 | 35 | 1006 | 28.2 | 23.5 | 318 | 6 |
| 2010-01-18T23:39 | 44 | 1005 | 28.0 | 23.7 | 317 | 6 |
| 2010-01-18T23:39 | 54 | 1003 | 27.9 | 23.8 | 316 | 6 |
| 2010-01-18T23:39 | 65 | 1002 | 27.7 | 23.8 | 315 | 6 |
| 2010-01-18T23:39 | 76 | 1001 | 27.6 | 23.8 | 315 | 6 |
| 2010-01-18T23:39 | 87 | 1000 | 27.5 | 23.9 | 314 | 7 |
| 2010-01-18T23:39 | 98 | 999 | 27.4 | 23.9 | 314 | 7 |
| 2010-01-18T23:39 | 109 | 997 | 27.3 | 23.9 | 313 | 7 |
| 2010-01-18T23:39 | 121 | 996 | 27.2 | 23.9 | 313 | 7 |
| 2010-01-18T23:39 | 133 | 995 | 27.0 | 23.9 | 312 | 7 |
| 2010-01-18T23:39 | 144 | 993 | 26.9 | 23.9 | 311 | 7 |
| 2010-01-18T23:39 | 155 | 992 | 26.8 | 23.9 | 311 | 8 |
| 2010-01-18T23:39 | 165 | 991 | 26.7 | 23.9 | 310 | 8 |
| 2010-01-18T23:39 | 175 | 990 | 26.6 | 23.9 | 310 | 8 |
| 2010-01-18T23:39 | 186 | 989 | 26.4 | 23.9 | 309 | 8 |
| 2010-01-18T23:39 | 197 | 987 | 26.3 | 23.8 | 309 | 8 |
| 2010-01-18T23:39 | 208 | 986 | 26.2 | 23.8 | 308 | 8 |
| 2010-01-18T23:39 | 220 | 985 | 26.1 | 23.8 | 308 | 8 |
| 2010-01-18T23:39 | 231 | 984 | 26.0 | 23.8 | 308 | 8 |
| 2010-01-18T23:39 | 242 | 982 | 25.9 | 23.8 | 308 | 8 |
| 2010-01-18T23:39 | 254 | 981 | 25.8 | 23.8 | 308 | 8 |
| 2010-01-18T23:39 | 266 | 980 | 25.7 | 23.6 | 308 | 8 |
| 2010-01-18T23:39 | 276 | 979 | 25.6 | 23.6 | 308 | 9 |
| 2010-01-18T23:39 | 286 | 978 | 25.5 | 23.5 | 308 | 9 |
| 2010-01-18T23:39 | 298 | 976 | 25.4 | 23.3 | 309 | 9 |
| 2010-01-18T23:39 | 310 | 975 | 25.3 | 23.3 | 309 | 9 |
| 2010-01-18T23:39 | 322 | 974 | 25.2 | 23.3 | 309 | 9 |
| 2010-01-18T23:40 | 334 | 972 | 25.0 | 23.2 | 309 | 9 |
| 2010-01-18T23:40 | 346 | 971 | 24.9 | 23.2 | 308 | 9 |
| 2010-01-18T23:40 | 355 | 970 | 24.9 | 23.1 | 308 | 9 |
| 2010-01-18T23:40 | 365 | 969 | 24.8 | 23.1 | 308 | 9 |
| 2010-01-18T23:40 | 375 | 968 | 24.7 | 22.9 | 307 | 10 |
| 2010-01-18T23:40 | 386 | 967 | 24.6 | 22.7 | 307 | 10 |
| 2010-01-18T23:40 | 396 | 965 | 24.6 | 22.6 | 306 | 10 |
| 2010-01-18T23:40 | 406 | 964 | 24.5 | 22.6 | 306 | 10 |
| 2010-01-18T23:40 | 417 | 963 | 24.4 | 22.6 | 305 | 10 |
| 2010-01-18T23:40 | 427 | 962 | 24.3 | 22.6 | 305 | 10 |
| 2010-01-18T23:40 | 439 | 961 | 24.2 | 22.5 | 304 | 10 |
| 2010-01-18T23:40 | 450 | 960 | 24.1 | 22.5 | 304 | 10 |
| 2010-01-18T23:40 | 460 | 959 | 24.0 | 22.5 | 304 | 10 |
| 2010-01-18T23:40 | 470 | 957 | 23.9 | 22.5 | 304 | 10 |
| 2010-01-18T23:40 | 479 | 956 | 23.8 | 22.4 | 303 | 10 |
| 2010-01-18T23:40 | 490 | 955 | 23.7 | 22.3 | 303 | 10 |
| 2010-01-18T23:40 | 500 | 954 | 23.6 | 22.3 | 303 | 10 |
| 2010-01-18T23:40 | 510 | 953 | 23.5 | 22.3 | 303 | 10 |
| 2010-01-18T23:40 | 520 | 952 | 23.4 | 22.3 | 303 | 10 |
| 2010-01-18T23:40 | 530 | 951 | 23.4 | 22.3 | 303 | 10 |
| 2010-01-18T23:40 | 541 | 950 | 23.3 | 22.2 | 303 | 10 |
| 2010-01-18T23:40 | 552 | 948 | 23.2 | 22.2 | 303 | 10 |
| 2010-01-18T23:40 | 564 | 947 | 23.0 | 22.1 | 303 | 10 |
| 2010-01-18T23:40 | 575 | 946 | 22.9 | 22.1 | 303 | 10 |
| 2010-01-18T23:40 | 586 | 945 | 22.9 | 22.0 | 302 | 10 |
| 2010-01-18T23:40 | 597 | 944 | 22.8 | 22.0 | 302 | 10 |
| 2010-01-18T23:40 | 607 | 943 | 22.8 | 21.9 | 302 | 10 |
| 2010-01-18T23:40 | 616 | 942 | 22.8 | 21.7 | 301 | 10 |
| 2010-01-18T23:40 | 625 | 941 | 22.8 | 21.6 | 301 | 10 |
| 2010-01-18T23:40 | 635 | 940 | 22.8 | 21.5 | 301 | 10 |
| 2010-01-18T23:41 | 647 | 938 | 22.8 | 21.4 | 300 | 10 |
| 2010-01-18T23:41 | 656 | 937 | 22.7 | 21.3 | 300 | 10 |
| 2010-01-18T23:41 | 666 | 936 | 22.7 | 21.2 | 300 | 10 |
| 2010-01-18T23:41 | 675 | 935 | 22.7 | 21.1 | 300 | 10 |
| 2010-01-18T23:41 | 684 | 934 | 22.7 | 21.1 | 299 | 10 |
| 2010-01-18T23:41 | 695 | 933 | 22.6 | 21.0 | 299 | 10 |
| 2010-01-18T23:41 | 705 | 932 | 22.5 | 20.9 | 299 | 10 |
| 2010-01-18T23:41 | 715 | 931 | 22.5 | 20.8 | 299 | 10 |
| 2010-01-18T23:41 | 724 | 930 | 22.4 | 20.8 | 299 | 10 |
| 2010-01-18T23:41 | 735 | 929 | 22.4 | 20.7 | 299 | 10 |
| 2010-01-18T23:41 | 746 | 928 | 22.3 | 20.6 | 299 | 10 |
| 2010-01-18T23:41 | 758 | 926 | 22.3 | 20.5 | 299 | 10 |
| 2010-01-18T23:41 | 768 | 925 | 22.2 | 20.5 | 298 | 10 |
| 2010-01-18T23:41 | 778 | 924 | 22.1 | 20.4 | 298 | 10 |
| 2010-01-18T23:41 | 789 | 923 | 22.0 | 20.4 | 297 | 10 |
| 2010-01-18T23:41 | 799 | 922 | 21.9 | 20.3 | 296 | 10 |
| 2010-01-18T23:41 | 811 | 921 | 21.8 | 20.2 | 296 | 10 |
| 2010-01-18T23:41 | 821 | 920 | 21.7 | 20.2 | 295 | 10 |
| 2010-01-18T23:41 | 831 | 919 | 21.6 | 20.1 | 294 | 10 |
| 2010-01-18T23:41 | 842 | 918 | 21.8 | 19.9 | 293 | 10 |
| 2010-01-18T23:41 | 853 | 916 | 21.8 | 19.8 | 292 | 10 |
| 2010-01-18T23:41 | 863 | 915 | 21.7 | 19.7 | 291 | 10 |
| 2010-01-18T23:41 | 874 | 914 | 21.7 | 19.5 | 290 | 10 |
| 2010-01-18T23:41 | 884 | 913 | 21.6 | 19.5 | 290 | 10 |
| 2010-01-18T23:41 | 895 | 912 | 21.6 | 19.4 | 289 | 10 |
| 2010-01-18T23:41 | 906 | 911 | 21.6 | 19.3 | 289 | 10 |
| 2010-01-18T23:41 | 917 | 910 | 21.5 | 19.2 | 288 | 10 |
| 2010-01-18T23:41 | 928 | 909 | 21.4 | 19.0 | 288 | 10 |
| 2010-01-18T23:41 | 939 | 907 | 21.4 | 18.9 | 288 | 10 |
| 2010-01-18T23:41 | 950 | 906 | 21.3 | 18.8 | 288 | 10 |
| 2010-01-18T23:42 | 961 | 905 | 21.3 | 18.6 | 288 | 10 |
| 2010-01-18T23:42 | 971 | 904 | 21.2 | 18.5 | 288 | 10 |
| 2010-01-18T23:42 | 982 | 903 | 21.2 | 18.4 | 288 | 10 |
| 2010-01-18T23:42 | 992 | 902 | 21.1 | 18.4 | 288 | 10 |
| 2010-01-18T23:42 | 1004 | 901 | 20.9 | 18.4 | 288 | 10 |
| 2010-01-18T23:42 | 1016 | 899 | 20.8 | 18.4 | 288 | 10 |
| 2010-01-18T23:42 | 1028 | 898 | 20.8 | 18.4 | 288 | 10 |
| 2010-01-18T23:42 | 1039 | 897 | 20.8 | 18.3 | 289 | 10 |
| 2010-01-18T23:42 | 1050 | 896 | 20.6 | 18.2 | 289 | 10 |
| 2010-01-18T23:42 | 1062 | 895 | 20.5 | 18.2 | 289 | 10 |
| 2010-01-18T23:42 | 1073 | 894 | 20.5 | 18.1 | 289 | 10 |
| 2010-01-18T23:42 | 1083 | 893 | 20.5 | 17.9 | 289 | 10 |
| 2010-01-18T23:42 | 1093 | 891 | 20.5 | 17.8 | 289 | 11 |
| 2010-01-18T23:42 | 1103 | 890 | 20.5 | 17.7 | 288 | 11 |
| 2010-01-18T23:42 | 1114 | 889 | 20.4 | 17.6 | 288 | 11 |
| 2010-01-18T23:42 | 1127 | 888 | 20.2 | 17.5 | 288 | 11 |
| 2010-01-18T23:42 | 1139 | 887 | 20.1 | 17.5 | 287 | 11 |
| 2010-01-18T23:42 | 1152 | 885 | 19.9 | 17.5 | 287 | 11 |
| 2010-01-18T23:42 | 1165 | 884 | 19.9 | 17.4 | 287 | 11 |
| 2010-01-18T23:42 | 1177 | 883 | 19.9 | 17.3 | 286 | 11 |
| 2010-01-18T23:42 | 1188 | 882 | 19.8 | 17.2 | 286 | 11 |
| 2010-01-18T23:42 | 1198 | 881 | 19.7 | 17.1 | 286 | 11 |
| 2010-01-18T23:42 | 1209 | 880 | 19.6 | 17.0 | 286 | 11 |
| 2010-01-18T23:42 | 1220 | 878 | 19.5 | 17.0 | 285 | 11 |
| 2010-01-18T23:42 | 1231 | 877 | 19.5 | 16.9 | 285 | 11 |
| 2010-01-18T23:42 | 1243 | 876 | 19.4 | 16.8 | 285 | 11 |
| 2010-01-18T23:42 | 1254 | 875 | 19.3 | 16.8 | 285 | 11 |
| 2010-01-18T23:42 | 1265 | 874 | 19.2 | 16.7 | 285 | 11 |
| 2010-01-18T23:42 | 1276 | 873 | 19.1 | 16.6 | 285 | 11 |
| 2010-01-18T23:42 | 1288 | 872 | 19.1 | 16.5 | 285 | 11 |
| 2010-01-18T23:43 | 1299 | 870 | 19.0 | 16.5 | 285 | 11 |
| 2010-01-18T23:43 | 1311 | 869 | 18.9 | 16.5 | 285 | 11 |
| 2010-01-18T23:43 | 1322 | 868 | 18.8 | 16.4 | 285 | 11 |
| 2010-01-18T23:43 | 1333 | 867 | 18.7 | 16.4 | 285 | 11 |
| 2010-01-18T23:43 | 1345 | 866 | 18.5 | 16.4 | 285 | 11 |
| 2010-01-18T23:43 | 1357 | 865 | 18.4 | 16.4 | 285 | 11 |
| 2010-01-18T23:43 | 1368 | 864 | 18.3 | 16.3 | 285 | 11 |
| 2010-01-18T23:43 | 1380 | 862 | 18.2 | 16.3 | 284 | 11 |
| 2010-01-18T23:43 | 1393 | 861 | 18.2 | 16.2 | 284 | 11 |
| 2010-01-18T23:43 | 1405 | 860 | 18.2 | 16.0 | 284 | 11 |
| 2010-01-18T23:43 | 1416 | 859 | 18.1 | 16.0 | 284 | 11 |
| 2010-01-18T23:43 | 1428 | 858 | 18.0 | 15.9 | 284 | 11 |
| 2010-01-18T23:43 | 1439 | 856 | 18.0 | 15.8 | 283 | 11 |
| 2010-01-18T23:43 | 1449 | 855 | 17.9 | 15.8 | 283 | 11 |
| 2010-01-18T23:43 | 1460 | 854 | 17.8 | 15.7 | 283 | 11 |
| 2010-01-18T23:43 | 1471 | 853 | 17.7 | 15.7 | 283 | 12 |
| 2010-01-18T23:43 | 1483 | 852 | 17.6 | 15.6 | 283 | 12 |
| 2010-01-18T23:43 | 1494 | 851 | 17.5 | 15.4 | 283 | 12 |
| 2010-01-18T23:43 | 1506 | 850 | 17.7 | 15.2 | 283 | 12 |
| 2010-01-18T23:43 | 1517 | 849 | 17.6 | 15.1 | 283 | 12 |
| 2010-01-18T23:43 | 1530 | 847 | 17.5 | 14.9 | 283 | 12 |
| 2010-01-18T23:43 | 1541 | 846 | 17.5 | 14.7 | 283 | 12 |
| 2010-01-18T23:43 | 1552 | 845 | 17.4 | 14.6 | 283 | 12 |
| 2010-01-18T23:43 | 1562 | 844 | 17.3 | 14.6 | 283 | 12 |
| 2010-01-18T23:43 | 1573 | 843 | 17.3 | 14.4 | 283 | 12 |
| 2010-01-18T23:43 | 1583 | 842 | 17.3 | 14.3 | 284 | 12 |
| 2010-01-18T23:43 | 1594 | 841 | 17.3 | 14.2 | 284 | 12 |
| 2010-01-18T23:43 | 1606 | 840 | 17.3 | 14.0 | 284 | 12 |
| 2010-01-18T23:43 | 1617 | 839 | 17.3 | 13.8 | 284 | 12 |
| 2010-01-18T23:43 | 1627 | 838 | 17.2 | 13.8 | 284 | 12 |
| 2010-01-18T23:44 | 1637 | 837 | 17.0 | 13.8 | 285 | 12 |
| 2010-01-18T23:44 | 1648 | 836 | 16.9 | 13.8 | 285 | 11 |
| 2010-01-18T23:44 | 1659 | 835 | 16.8 | 13.8 | 285 | 11 |
| 2010-01-18T23:44 | 1671 | 834 | 16.6 | 13.8 | 285 | 11 |
| 2010-01-18T23:44 | 1683 | 832 | 16.5 | 13.8 | 285 | 11 |
| 2010-01-18T23:44 | 1694 | 831 | 16.4 | 13.7 | 285 | 11 |
| 2010-01-18T23:44 | 1705 | 830 | 16.4 | 13.6 | 286 | 11 |
| 2010-01-18T23:44 | 1714 | 829 | 16.3 | 13.5 | 286 | 11 |
| 2010-01-18T23:44 | 1724 | 828 | 16.2 | 13.6 | 286 | 11 |
| 2010-01-18T23:44 | 1733 | 828 | 16.1 | 13.4 | 286 | 11 |
| 2010-01-18T23:44 | 1741 | 827 | 16.3 | 13.0 | 286 | 11 |
| 2010-01-18T23:44 | 1750 | 826 | 16.3 | 12.5 | 286 | 11 |
| 2010-01-18T23:44 | 1758 | 825 | 16.3 | 12.4 | 287 | 11 |
| 2010-01-18T23:44 | 1767 | 824 | 16.2 | 12.5 | 287 | 11 |
| 2010-01-18T23:44 | 1776 | 823 | 16.1 | 12.7 | 287 | 11 |
| 2010-01-18T23:44 | 1786 | 822 | 16.0 | 12.6 | 288 | 11 |
| 2010-01-18T23:44 | 1796 | 821 | 16.0 | 12.4 | 288 | 11 |
| 2010-01-18T23:44 | 1805 | 821 | 15.9 | 12.3 | 289 | 11 |
| 2010-01-18T23:44 | 1814 | 820 | 15.8 | 12.1 | 289 | 11 |
| 2010-01-18T23:44 | 1823 | 819 | 15.7 | 11.9 | 290 | 11 |
| 2010-01-18T23:44 | 1832 | 818 | 15.6 | 12.1 | 290 | 11 |
| 2010-01-18T23:44 | 1841 | 817 | 15.4 | 12.5 | 291 | 11 |
| 2010-01-18T23:44 | 1850 | 816 | 15.4 | 12.4 | 291 | 11 |
| 2010-01-18T23:44 | 1859 | 815 | 15.8 | 11.9 | 291 | 11 |
| 2010-01-18T23:44 | 1867 | 815 | 16.4 | 10.8 | 292 | 11 |
| 2010-01-18T23:44 | 1875 | 814 | 16.6 | 10.3 | 292 | 11 |
| 2010-01-18T23:44 | 1885 | 813 | 16.5 | 10.1 | 292 | 11 |
| 2010-01-18T23:44 | 1893 | 812 | 16.5 | 9.9 | 292 | 11 |
| 2010-01-18T23:44 | 1902 | 811 | 16.5 | 9.6 | 291 | 11 |
| 2010-01-18T23:44 | 1912 | 810 | 16.4 | 9.4 | 291 | 11 |
| 2010-01-18T23:45 | 1923 | 809 | 16.4 | 9.0 | 291 | 11 |
| 2010-01-18T23:45 | 1934 | 808 | 16.3 | 8.8 | 290 | 11 |
| 2010-01-18T23:45 | 1945 | 807 | 16.3 | 8.7 | 290 | 11 |
| 2010-01-18T23:45 | 1955 | 806 | 16.2 | 8.3 | 289 | 11 |
| 2010-01-18T23:45 | 1965 | 805 | 16.0 | 8.2 | 289 | 11 |
| 2010-01-18T23:45 | 1975 | 804 | 15.9 | 8.2 | 288 | 11 |
| 2010-01-18T23:45 | 1985 | 803 | 15.8 | 8.3 | 288 | 11 |
| 2010-01-18T23:45 | 1994 | 803 | 15.7 | 8.5 | 288 | 11 |
| 2010-01-18T23:45 | 2023 | 800 | 15.3 | 9.1 | 288 | 11 |
| 2010-01-18T23:45 | 2072 | 795 | 15.7 | 7.5 | 289 | 12 |
| 2010-01-18T23:45 | 2127 | 790 | 15.5 | 6.2 | 290 | 12 |
| 2010-01-18T23:45 | 2177 | 785 | 15.4 | 4.8 | 291 | 12 |
| 2010-01-18T23:46 | 2227 | 781 | 15.2 | 3.4 | 290 | 12 |
| 2010-01-18T23:46 | 2275 | 776 | 14.8 | 3.5 | 289 | 12 |
| 2010-01-18T23:46 | 2323 | 772 | 14.5 | 4.3 | 287 | 12 |
| 2010-01-18T23:46 | 2369 | 768 | 14.2 | 4.2 | 285 | 12 |
| 2010-01-18T23:46 | 2415 | 764 | 13.9 | 3.7 | 283 | 12 |
| 2010-01-18T23:46 | 2459 | 760 | 13.4 | 5.5 | 284 | 12 |
| 2010-01-18T23:47 | 2503 | 756 | 13.4 | 2.3 | 286 | 12 |
| 2010-01-18T23:47 | 2551 | 751 | 12.9 | 1.8 | 287 | 11 |
| 2010-01-18T23:47 | 2595 | 747 | 12.9 | 1.5 | 288 | 11 |
| 2010-01-18T23:47 | 2642 | 743 | 12.7 | 0.5 | 288 | 10 |
| 2010-01-18T23:47 | 2690 | 739 | 12.4 | -0.6 | 291 | 10 |
| 2010-01-18T23:47 | 2738 | 735 | 12.2 | -3.5 | 294 | 9 |
| 2010-01-18T23:48 | 2784 | 731 | 11.8 | -2.2 | 295 | 9 |
| 2010-01-18T23:48 | 2831 | 727 | 11.5 | -5.8 | 295 | 9 |
| 2010-01-18T23:48 | 2877 | 723 | 11.5 | -7.1 | 295 | 9 |
| 2010-01-18T23:48 | 2924 | 719 | 11.2 | -6.2 | 294 | 9 |
| 2010-01-18T23:48 | 2970 | 715 | 10.9 | -6.7 | 292 | 9 |
| 2010-01-18T23:48 | 3017 | 711 | 11.4 | -6.8 | 289 | 10 |
| 2010-01-18T23:49 | 3069 | 706 | 11.4 | -6.5 | 288 | 11 |
| 2010-01-18T23:49 | 3119 | 702 | 11.0 | -6.8 | 287 | 11 |
| 2010-01-18T23:49 | 3171 | 698 | 10.8 | -5.8 | 285 | 12 |
| 2010-01-18T23:49 | 3222 | 693 | 10.6 | -9.5 | 283 | 12 |
| 2010-01-18T23:49 | 3281 | 689 | 10.7 | -19.7 | 281 | 11 |
| 2010-01-18T23:49 | 3335 | 684 | 10.8 | -29.8 | 278 | 11 |
| 2010-01-18T23:50 | 3390 | 680 | 10.4 | -21.3 | 275 | 11 |
| 2010-01-18T23:50 | 3448 | 675 | 9.9 | -19.6 | 274 | 11 |
| 2010-01-18T23:50 | 3506 | 670 | 9.5 | -21.7 | 274 | 10 |
| 2010-01-18T23:50 | 3566 | 665 | 9.1 | -26.9 | 275 | 10 |
| 2010-01-18T23:50 | 3621 | 661 | 8.9 | -33.4 | 277 | 9 |
| 2010-01-18T23:50 | 3682 | 656 | 8.7 | -35.8 | 277 | 9 |
| 2010-01-18T23:51 | 3742 | 651 | 8.4 | -35.5 | 276 | 9 |
| 2010-01-18T23:51 | 3802 | 647 | 8.1 | -35.2 | 275 | 8 |
| 2010-01-18T23:51 | 3863 | 642 | 7.7 | -36.2 | 275 | 7 |
| 2010-01-18T23:51 | 3926 | 637 | 7.2 | -35.7 | 276 | 7 |
| 2010-01-18T23:51 | 3989 | 632 | 6.6 | -34.4 | 277 | 7 |
| 2010-01-18T23:51 | 4051 | 627 | 6.2 | -32.0 | 276 | 6 |
| 2010-01-18T23:52 | 4109 | 623 | 5.7 | -31.7 | 273 | 6 |
| 2010-01-18T23:52 | 4169 | 618 | 5.3 | -26.9 | 270 | 7 |
| 2010-01-18T23:52 | 4232 | 613 | 4.8 | -22.0 | 266 | 7 |
| 2010-01-18T23:52 | 4291 | 609 | 4.6 | -25.4 | 263 | 7 |
| 2010-01-18T23:52 | 4349 | 605 | 4.1 | -18.9 | 261 | 7 |
| 2010-01-18T23:52 | 4405 | 600 | 3.8 | -17.4 | 259 | 7 |
| 2010-01-18T23:53 | 4466 | 596 | 3.3 | -14.8 | 257 | 6 |
| 2010-01-18T23:53 | 4527 | 592 | 2.9 | -13.2 | 256 | 5 |
| 2010-01-18T23:53 | 4587 | 587 | 2.7 | -17.5 | 254 | 5 |
| 2010-01-18T23:53 | 4648 | 583 | 2.2 | -21.6 | 254 | 6 |
| 2010-01-18T23:53 | 4709 | 578 | 1.7 | -22.7 | 255 | 6 |
| 2010-01-18T23:53 | 4770 | 574 | 1.4 | -25.8 | 254 | 6 |
| 2010-01-18T23:54 | 4829 | 570 | 1.1 | -21.5 | 249 | 7 |
| 2010-01-18T23:54 | 4888 | 566 | 0.6 | -20.2 | 243 | 7 |
| 2010-01-18T23:54 | 4945 | 562 | 0.4 | -18.1 | 240 | 7 |
| 2010-01-18T23:54 | 5000 | 558 | 0.2 | -24.6 | 240 | 6 |
| 2010-01-18T23:54 | 5059 | 554 | -0.1 | -24.7 | 243 | 6 |
| 2010-01-18T23:54 | 5115 | 550 | -0.6 | -23.0 | 245 | 6 |
| 2010-01-18T23:55 | 5172 | 546 | -0.7 | -42.7 | 246 | 6 |
| 2010-01-18T23:55 | 5228 | 542 | -0.9 | -24.5 | 245 | 7 |
| 2010-01-18T23:55 | 5283 | 538 | -1.1 | -29.9 | 246 | 7 |
| 2010-01-18T23:55 | 5338 | 535 | -1.5 | -14.3 | 247 | 6 |
| 2010-01-18T23:55 | 5395 | 531 | -1.8 | -21.8 | 247 | 6 |
| 2010-01-18T23:55 | 5451 | 527 | -2.3 | -7.7 | 244 | 6 |
| 2010-01-18T23:56 | 5503 | 524 | -2.3 | -4.6 | 240 | 6 |
| 2010-01-18T23:56 | 5558 | 520 | -2.1 | -5.0 | 235 | 6 |
| 2010-01-18T23:56 | 5615 | 516 | -2.5 | -5.4 | 231 | 6 |
| 2010-01-18T23:56 | 5667 | 513 | -2.7 | -5.9 | 226 | 6 |
| 2010-01-18T23:56 | 5722 | 509 | -2.9 | -6.3 | 220 | 6 |
| 2010-01-18T23:56 | 5778 | 506 | -3.3 | -6.6 | 213 | 6 |
| 2010-01-18T23:57 | 5828 | 503 | -3.5 | -6.9 | 208 | 6 |
| 2010-01-18T23:57 | 5881 | 499 | -4.0 | -7.3 | 207 | 7 |
| 2010-01-18T23:57 | 5937 | 496 | -4.6 | -7.1 | 207 | 6 |
| 2010-01-18T23:57 | 5990 | 492 | -4.9 | -7.3 | 207 | 6 |
| 2010-01-18T23:57 | 6047 | 489 | -5.2 | -7.9 | 208 | 5 |
| 2010-01-18T23:57 | 6101 | 486 | -5.6 | -8.1 | 209 | 5 |
| 2010-01-18T23:58 | 6157 | 482 | -6.0 | -8.2 | 209 | 4 |
| 2010-01-18T23:58 | 6213 | 479 | -6.2 | -8.6 | 207 | 4 |
| 2010-01-18T23:58 | 6275 | 475 | -6.7 | -8.9 | 204 | 4 |
| 2010-01-18T23:58 | 6333 | 471 | -7.1 | -9.4 | 202 | 3 |
| 2010-01-18T23:58 | 6392 | 468 | -7.5 | -10.2 | 203 | 3 |
| 2010-01-18T23:58 | 6452 | 464 | -7.9 | -10.6 | 204 | 3 |
| 2010-01-18T23:59 | 6508 | 461 | -8.2 | -10.8 | 204 | 3 |
| 2010-01-18T23:59 | 6569 | 457 | -8.6 | -10.9 | 204 | 4 |
| 2010-01-18T23:59 | 6625 | 454 | -9.0 | -11.2 | 204 | 4 |
| 2010-01-18T23:59 | 6684 | 451 | -9.4 | -11.5 | 203 | 3 |
| 2010-01-18T23:59 | 6741 | 447 | -9.7 | -11.9 | 206 | 2 |
| 2010-01-18T23:59 | 6799 | 444 | -9.8 | -12.8 | 217 | 2 |
| 2010-01-19T00:00 | 6857 | 441 | -10.2 | -13.5 | 223 | 2 |
| 2010-01-19T00:00 | 6913 | 437 | -10.5 | -14.1 | 224 | 2 |
| 2010-01-19T00:00 | 6972 | 434 | -10.9 | -14.3 | 225 | 2 |
| 2010-01-19T00:00 | 7026 | 431 | -11.3 | -14.7 | 229 | 1 |
| 2010-01-19T00:00 | 7083 | 428 | -11.5 | -15.4 | 234 | 1 |
| 2010-01-19T00:00 | 7139 | 425 | -11.7 | -15.9 | 235 | 1 |
| 2010-01-19T00:01 | 7197 | 421 | -11.9 | -15.7 | 229 | 2 |
| 2010-01-19T00:01 | 7255 | 418 | -12.3 | -16.1 | 221 | 3 |
| 2010-01-19T00:01 | 7312 | 415 | -12.8 | -16.4 | 210 | 3 |
| 2010-01-19T00:01 | 7372 | 412 | -13.2 | -16.5 | 200 | 4 |
| 2010-01-19T00:01 | 7426 | 409 | -13.5 | -16.8 | 195 | 4 |
| 2010-01-19T00:01 | 7484 | 406 | -14.0 | -17.0 | 191 | 4 |
| 2010-01-19T00:02 | 7537 | 403 | -14.4 | -16.9 | 186 | 4 |
| 2010-01-19T00:02 | 7573 | 401 | -14.6 | -17.1 | 185 | 4 |
| 2010-01-19T00:02 | 7611 | 399 | -14.8 | -17.3 | 187 | 5 |
| 2010-01-19T00:02 | 7654 | 397 | -14.9 | -17.6 | 188 | 6 |
| 2010-01-19T00:02 | 7702 | 394 | -15.1 | -18.4 | 187 | 6 |
| 2010-01-19T00:02 | 7757 | 392 | -15.5 | -18.8 | 185 | 6 |
| 2010-01-19T00:03 | 7811 | 389 | -16.0 | -19.0 | 180 | 7 |
| 2010-01-19T00:03 | 7869 | 386 | -16.2 | -19.8 | 172 | 8 |
| 2010-01-19T00:03 | 7926 | 383 | -16.4 | -20.7 | 167 | 9 |
| 2010-01-19T00:03 | 7983 | 380 | -16.6 | -21.1 | 164 | 8 |
| 2010-01-19T00:03 | 8031 | 378 | -17.0 | -21.6 | 166 | 8 |
| 2010-01-19T00:03 | 8078 | 375 | -17.4 | -21.8 | 167 | 9 |
| 2010-01-19T00:04 | 8118 | 373 | -17.7 | -22.2 | 166 | 9 |
| 2010-01-19T00:04 | 8161 | 371 | -18.1 | -22.3 | 165 | 9 |
| 2010-01-19T00:04 | 8201 | 369 | -18.4 | -22.6 | 166 | 9 |
| 2010-01-19T00:04 | 8241 | 367 | -18.7 | -23.0 | 168 | 8 |
| 2010-01-19T00:04 | 8284 | 365 | -19.0 | -23.1 | 170 | 8 |
| 2010-01-19T00:04 | 8324 | 363 | -19.3 | -23.0 | 171 | 8 |
| 2010-01-19T00:05 | 8363 | 361 | -19.5 | -23.8 | 170 | 8 |
| 2010-01-19T00:05 | 8404 | 359 | -19.8 | -23.4 | 169 | 8 |
| 2010-01-19T00:05 | 8444 | 357 | -20.1 | -23.9 | 167 | 8 |
| 2010-01-19T00:05 | 8483 | 355 | -20.2 | -24.6 | 166 | 8 |
| 2010-01-19T00:05 | 8523 | 353 | -20.4 | -25.4 | 165 | 8 |
| 2010-01-19T00:05 | 8563 | 352 | -20.7 | -25.8 | 164 | 8 |
| 2010-01-19T00:06 | 8606 | 350 | -21.2 | -26.0 | 163 | 9 |
| 2010-01-19T00:06 | 8644 | 348 | -21.4 | -26.4 | 163 | 9 |
| 2010-01-19T00:06 | 8683 | 346 | -21.4 | -26.9 | 164 | 10 |
| 2010-01-19T00:06 | 8721 | 344 | -21.8 | -27.0 | 165 | 10 |
| 2010-01-19T00:06 | 8759 | 342 | -22.0 | -27.6 | 166 | 10 |
| 2010-01-19T00:06 | 8799 | 340 | -22.3 | -27.6 | 166 | 10 |
| 2010-01-19T00:07 | 8837 | 339 | -22.6 | -28.0 | 165 | 9 |
| 2010-01-19T00:07 | 8876 | 337 | -22.8 | -28.3 | 164 | 9 |
| 2010-01-19T00:07 | 8913 | 335 | -23.1 | -28.6 | 164 | 10 |
| 2010-01-19T00:07 | 8950 | 334 | -23.5 | -28.8 | 165 | 10 |
| 2010-01-19T00:07 | 8988 | 332 | -23.8 | -28.9 | 167 | 10 |
| 2010-01-19T00:07 | 9032 | 330 | -24.2 | -29.1 | 170 | 10 |
| 2010-01-19T00:08 | 9071 | 328 | -24.5 | -29.3 | 172 | 10 |
| 2010-01-19T00:08 | 9109 | 326 | -24.8 | -29.4 | 172 | 10 |
| 2010-01-19T00:08 | 9147 | 325 | -25.1 | -29.5 | 172 | 9 |
| 2010-01-19T00:08 | 9186 | 323 | -25.4 | -29.8 | 171 | 9 |
| 2010-01-19T00:08 | 9226 | 321 | -25.7 | -30.2 | 169 | 9 |
| 2010-01-19T00:08 | 9265 | 319 | -25.9 | -30.9 | 166 | 9 |
| 2010-01-19T00:09 | 9303 | 318 | -26.1 | -31.3 | 164 | 9 |
| 2010-01-19T00:09 | 9344 | 316 | -26.4 | -31.6 | 162 | 9 |
| 2010-01-19T00:09 | 9384 | 314 | -26.8 | -31.9 | 160 | 9 |
| 2010-01-19T00:09 | 9426 | 312 | -27.3 | -32.1 | 156 | 9 |
| 2010-01-19T00:09 | 9466 | 311 | -27.5 | -32.2 | 153 | 9 |
| 2010-01-19T00:09 | 9505 | 309 | -27.8 | -32.7 | 150 | 10 |
| 2010-01-19T00:10 | 9544 | 307 | -28.1 | -33.1 | 147 | 10 |
| 2010-01-19T00:10 | 9583 | 306 | -28.4 | -33.4 | 144 | 10 |
| 2010-01-19T00:10 | 9624 | 304 | -28.6 | -34.4 | 141 | 10 |
| 2010-01-19T00:10 | 9664 | 302 | -28.9 | -34.8 | 138 | 11 |
| 2010-01-19T00:10 | 9703 | 301 | -29.1 | -34.9 | 135 | 10 |
| 2010-01-19T00:10 | 9741 | 299 | -29.3 | -35.8 | 134 | 10 |
| 2010-01-19T00:11 | 9781 | 297 | -29.5 | -37.0 | 132 | 10 |
| 2010-01-19T00:11 | 9822 | 296 | -29.8 | -37.5 | 131 | 10 |
| 2010-01-19T00:11 | 9863 | 294 | -30.2 | -37.7 | 131 | 10 |
| 2010-01-19T00:11 | 9902 | 292 | -30.7 | -38.0 | 132 | 11 |
| 2010-01-19T00:11 | 9941 | 291 | -31.0 | -38.0 | 131 | 11 |
| 2010-01-19T00:11 | 9980 | 289 | -31.3 | -38.1 | 130 | 11 |
| 2010-01-19T00:12 | 10018 | 288 | -31.7 | -38.1 | 128 | 11 |
| 2010-01-19T00:12 | 10056 | 286 | -32.0 | -38.5 | 127 | 11 |
| 2010-01-19T00:12 | 10096 | 284 | -32.3 | -39.1 | 126 | 10 |
| 2010-01-19T00:12 | 10135 | 283 | -32.7 | -39.3 | 125 | 11 |
| 2010-01-19T00:12 | 10176 | 281 | -33.1 | -39.6 | 122 | 11 |
| 2010-01-19T00:12 | 10214 | 280 | -33.4 | -39.9 | 121 | 12 |
| 2010-01-19T00:13 | 10251 | 278 | -33.7 | -40.5 | 122 | 12 |
| 2010-01-19T00:13 | 10287 | 277 | -33.9 | -41.1 | 123 | 11 |
| 2010-01-19T00:13 | 10323 | 275 | -34.2 | -42.3 | 123 | 11 |
| 2010-01-19T00:13 | 10357 | 274 | -34.4 | -43.2 | 123 | 11 |
| 2010-01-19T00:13 | 10393 | 273 | -34.7 | -43.7 | 122 | 11 |
| 2010-01-19T00:13 | 10431 | 271 | -35.0 | -43.8 | 122 | 11 |
| 2010-01-19T00:14 | 10468 | 270 | -35.4 | -43.8 | 122 | 11 |
| 2010-01-19T00:14 | 10507 | 268 | -35.7 | -43.6 | 122 | 11 |
| 2010-01-19T00:14 | 10544 | 267 | -36.0 | -43.8 | 121 | 11 |
| 2010-01-19T00:14 | 10580 | 265 | -36.2 | -44.0 | 120 | 10 |
| 2010-01-19T00:14 | 10616 | 264 | -36.5 | -44.3 | 119 | 10 |
| 2010-01-19T00:14 | 10651 | 263 | -36.8 | -44.4 | 119 | 10 |
| 2010-01-19T00:15 | 10685 | 261 | -37.1 | -44.4 | 119 | 10 |
| 2010-01-19T00:15 | 10722 | 260 | -37.5 | -44.8 | 119 | 11 |
| 2010-01-19T00:15 | 10756 | 259 | -37.7 | -44.8 | 119 | 10 |
| 2010-01-19T00:15 | 10790 | 257 | -37.9 | -44.9 | 120 | 10 |
| 2010-01-19T00:15 | 10827 | 256 | -38.1 | -46.0 | 121 | 10 |
| 2010-01-19T00:15 | 10864 | 255 | -38.5 | -45.5 | 122 | 9 |
| 2010-01-19T00:16 | 10900 | 253 | -38.8 | -45.7 | 123 | 9 |
| 2010-01-19T00:16 | 10933 | 252 | -39.1 | -46.2 | 124 | 9 |
| 2010-01-19T00:16 | 10967 | 251 | -39.5 | -46.8 | 126 | 9 |
| 2010-01-19T00:16 | 11002 | 250 | -39.7 | -47.0 | 126 | 9 |
| 2010-01-19T00:16 | 11036 | 248 | -40.1 | -47.5 | 126 | 9 |
| 2010-01-19T00:16 | 11069 | 247 | -40.4 | -47.9 | 125 | 9 |
| 2010-01-19T00:17 | 11105 | 246 | -40.6 | -47.8 | 125 | 9 |
| 2010-01-19T00:17 | 11139 | 245 | -41.0 | -48.3 | 126 | 9 |
| 2010-01-19T00:17 | 11174 | 243 | -41.2 | -48.7 | 126 | 9 |
| 2010-01-19T00:17 | 11210 | 242 | -41.5 | -48.7 | 125 | 9 |
| 2010-01-19T00:17 | 11246 | 241 | -41.9 | -48.5 | 124 | 9 |
| 2010-01-19T00:17 | 11281 | 240 | -42.2 | -48.3 | 124 | 9 |
| 2010-01-19T00:18 | 11317 | 238 | -42.5 | -48.8 | 126 | 9 |
| 2010-01-19T00:18 | 11355 | 237 | -42.7 | -49.2 | 128 | 9 |
| 2010-01-19T00:18 | 11393 | 236 | -43.0 | -49.5 | 129 | 9 |
| 2010-01-19T00:18 | 11429 | 234 | -43.2 | -50.0 | 129 | 9 |
| 2010-01-19T00:18 | 11467 | 233 | -43.7 | -50.6 | 128 | 9 |
| 2010-01-19T00:18 | 11504 | 232 | -43.8 | -50.8 | 127 | 9 |
| 2010-01-19T00:19 | 11541 | 230 | -44.2 | -51.7 | 127 | 10 |
| 2010-01-19T00:19 | 11577 | 229 | -44.6 | -52.5 | 127 | 10 |
| 2010-01-19T00:19 | 11615 | 228 | -44.9 | -53.0 | 126 | 10 |
| 2010-01-19T00:19 | 11652 | 227 | -45.2 | -53.5 | 125 | 11 |
| 2010-01-19T00:19 | 11689 | 225 | -45.5 | -53.7 | 122 | 11 |
| 2010-01-19T00:19 | 11726 | 224 | -45.8 | -53.8 | 120 | 11 |
| 2010-01-19T00:20 | 11765 | 223 | -46.2 | -54.8 | 120 | 11 |
| 2010-01-19T00:20 | 11803 | 222 | -46.6 | -55.5 | 119 | 11 |
| 2010-01-19T00:20 | 11843 | 220 | -46.8 | -56.0 | 119 | 11 |
| 2010-01-19T00:20 | 11883 | 219 | -47.1 | -56.9 | 117 | 11 |
| 2010-01-19T00:20 | 11926 | 217 | -47.6 | -57.8 | 116 | 12 |
| 2010-01-19T00:20 | 11970 | 216 | -47.8 | -58.0 | 115 | 12 |
| 2010-01-19T00:21 | 12010 | 215 | -48.4 | -58.5 | 114 | 12 |
| 2010-01-19T00:21 | 12053 | 213 | -48.8 | -58.8 | 113 | 12 |
| 2010-01-19T00:21 | 12099 | 212 | -49.0 | -59.0 | 113 | 12 |
| 2010-01-19T00:21 | 12144 | 210 | -49.5 | -59.6 | 113 | 13 |
| 2010-01-19T00:21 | 12188 | 209 | -50.0 | -59.8 | 113 | 13 |
| 2010-01-19T00:21 | 12234 | 208 | -50.4 | -59.9 | 113 | 13 |
| 2010-01-19T00:22 | 12278 | 206 | -50.7 | -59.9 | 113 | 14 |
| 2010-01-19T00:22 | 12324 | 205 | -51.2 | -60.2 | 114 | 14 |
| 2010-01-19T00:22 | 12363 | 203 | -51.6 | -60.4 | 116 | 14 |
| 2010-01-19T00:22 | 12406 | 202 | -52.1 | -60.6 | 118 | 14 |
| 2010-01-19T00:22 | 12450 | 201 | -52.5 | -60.7 | 120 | 14 |
| 2010-01-19T00:22 | 12500 | 199 | -52.8 | -62.1 | 120 | 14 |
| 2010-01-19T00:23 | 12550 | 198 | -53.3 | -63.2 | 120 | 15 |
| 2010-01-19T00:23 | 12597 | 196 | -53.8 | -63.9 | 120 | 15 |
| 2010-01-19T00:23 | 12642 | 195 | -54.2 | -64.4 | 121 | 15 |
| 2010-01-19T00:23 | 12687 | 193 | -54.6 | -64.6 | 121 | 15 |
| 2010-01-19T00:23 | 12735 | 192 | -55.2 | -64.8 | 121 | 16 |
| 2010-01-19T00:23 | 12780 | 191 | -55.6 | -64.8 | 121 | 16 |
| 2010-01-19T00:24 | 12826 | 189 | -56.0 | -64.8 | 121 | 16 |
| 2010-01-19T00:24 | 12873 | 188 | -56.5 | -64.8 | 122 | 17 |
| 2010-01-19T00:24 | 12918 | 187 | -56.9 | -64.7 | 124 | 17 |
| 2010-01-19T00:24 | 12960 | 185 | -57.2 | -64.5 | 125 | 17 |
| 2010-01-19T00:24 | 13004 | 184 | -57.5 | -64.5 | 125 | 17 |
| 2010-01-19T00:24 | 13049 | 183 | -58.0 | -64.9 | 125 | 17 |
| 2010-01-19T00:25 | 13094 | 181 | -58.4 | -65.0 | 125 | 17 |
| 2010-01-19T00:25 | 13138 | 180 | -58.6 | -65.1 | 124 | 18 |
| 2010-01-19T00:25 | 13183 | 179 | -59.0 | -65.5 | 122 | 18 |
| 2010-01-19T00:25 | 13228 | 178 | -59.5 | -65.8 | 120 | 18 |
| 2010-01-19T00:25 | 13275 | 176 | -60.0 | -66.1 | 119 | 18 |
| 2010-01-19T00:25 | 13319 | 175 | -60.3 | -66.2 | 118 | 18 |
| 2010-01-19T00:26 | 13358 | 174 | -60.8 | -66.7 | 118 | 18 |
| 2010-01-19T00:26 | 13399 | 173 | -60.9 | -66.7 | 118 | 17 |
| 2010-01-19T00:26 | 13439 | 172 | -61.4 | -67.1 | 118 | 17 |
| 2010-01-19T00:26 | 13486 | 170 | -61.9 | -67.6 | 119 | 17 |
| 2010-01-19T00:26 | 13537 | 169 | -62.4 | -68.1 | 121 | 18 |
| 2010-01-19T00:26 | 13595 | 167 | -62.9 | -68.5 | 122 | 19 |
| 2010-01-19T00:27 | 13651 | 166 | -63.3 | -69.0 | 123 | 21 |
| 2010-01-19T00:27 | 13695 | 165 | -63.6 | -69.5 | 125 | 22 |
| 2010-01-19T00:27 | 13743 | 163 | -64.0 | -70.2 | 126 | 22 |
| 2010-01-19T00:27 | 13791 | 162 | -64.4 | -70.7 | 127 | 22 |
| 2010-01-19T00:27 | 13840 | 161 | -64.9 | -71.4 | 127 | 21 |
| 2010-01-19T00:27 | 13889 | 160 | -65.4 | -72.1 | 126 | 21 |
| 2010-01-19T00:28 | 13938 | 158 | -65.8 | -72.7 | 124 | 21 |
| 2010-01-19T00:28 | 13985 | 157 | -66.3 | -73.4 | 123 | 22 |
| 2010-01-19T00:28 | 14033 | 156 | -66.7 | -73.8 | 123 | 22 |
| 2010-01-19T00:28 | 14082 | 155 | -67.1 | -74.3 | 122 | 23 |
| 2010-01-19T00:28 | 14133 | 153 | -67.5 | -74.7 | 122 | 23 |
| 2010-01-19T00:28 | 14181 | 152 | -67.9 | -75.2 | 122 | 23 |
| 2010-01-19T00:29 | 14232 | 151 | -68.3 | -75.5 | 122 | 23 |
| 2010-01-19T00:29 | 14282 | 149 | -68.7 | -75.9 | 121 | 23 |
| 2010-01-19T00:29 | 14335 | 148 | -69.2 | -76.4 | 121 | 23 |
| 2010-01-19T00:29 | 14386 | 147 | -69.7 | -76.8 | 120 | 23 |
| 2010-01-19T00:29 | 14432 | 146 | -70.1 | -77.2 | 120 | 23 |
| 2010-01-19T00:29 | 14478 | 145 | -70.5 | -77.5 | 119 | 23 |
| 2010-01-19T00:30 | 14525 | 143 | -70.8 | -77.8 | 118 | 24 |
| 2010-01-19T00:30 | 14572 | 142 | -71.3 | -78.2 | 117 | 24 |
| 2010-01-19T00:30 | 14619 | 141 | -71.6 | -78.6 | 116 | 25 |
| 2010-01-19T00:30 | 14665 | 140 | -71.9 | -78.8 | 116 | 25 |
| 2010-01-19T00:30 | 14710 | 139 | -72.3 | -79.1 | 115 | 24 |
| 2010-01-19T00:30 | 14754 | 138 | -72.7 | -79.5 | 115 | 24 |
| 2010-01-19T00:31 | 14799 | 137 | -73.2 | -79.9 | 115 | 24 |
| 2010-01-19T00:31 | 14844 | 136 | -73.7 | -80.3 | 115 | 24 |
| 2010-01-19T00:31 | 14898 | 135 | -74.2 | -80.8 | 114 | 25 |
| 2010-01-19T00:31 | 14970 | 133 | -74.8 | -81.5 | 113 | 25 |
| 2010-01-19T00:31 | 15040 | 131 | -75.3 | -82.0 | 111 | 26 |
| 2010-01-19T00:31 | 15103 | 130 | -75.7 | -82.3 | 107 | 26 |
| 2010-01-19T00:32 | 15143 | 129 | -75.8 | -82.3 | 104 | 26 |
| 2010-01-19T00:32 | 15182 | 128 | -76.0 | -82.6 | 103 | 26 |
| 2010-01-19T00:32 | 15223 | 127 | -76.3 | -82.9 | 102 | 26 |
| 2010-01-19T00:32 | 15266 | 126 | -76.8 | -83.5 | 102 | 25 |
| 2010-01-19T00:32 | 15311 | 125 | -77.3 | -84.0 | 102 | 25 |
| 2010-01-19T00:32 | 15360 | 124 | -77.6 | -84.4 | 102 | 25 |
| 2010-01-19T00:33 | 15407 | 123 | -78.1 | -84.9 | 101 | 25 |
| 2010-01-19T00:33 | 15457 | 122 | -78.4 | -85.3 | 100 | 25 |
| 2010-01-19T00:33 | 15514 | 121 | -79.0 | -85.9 | 100 | 25 |
| 2010-01-19T00:33 | 15570 | 120 | -79.5 | -86.4 | 99 | 25 |
| 2010-01-19T00:33 | 15628 | 119 | -80.1 | -87.0 | 99 | 25 |
| 2010-01-19T00:33 | 15685 | 117 | -80.7 | -87.7 | 98 | 25 |
| 2010-01-19T00:34 | 15736 | 116 | -81.2 | -88.1 | 98 | 25 |
| 2010-01-19T00:34 | 15792 | 115 | -81.8 | -88.7 | 97 | 26 |
| 2010-01-19T00:34 | 15843 | 114 | -82.3 | -89.2 | 97 | 26 |
| 2010-01-19T00:34 | 15891 | 113 | -82.6 | -89.4 | 96 | 27 |
| 2010-01-19T00:34 | 15942 | 112 | -83.1 | -89.9 | 95 | 28 |
| 2010-01-19T00:34 | 15986 | 111 | -83.3 | -90.2 | 95 | 29 |
| 2010-01-19T00:35 | 16030 | 110 | -83.7 | -90.5 | 94 | 29 |
| 2010-01-19T00:35 | 16076 | 109 | -84.1 | -90.9 | 94 | 30 |
| 2010-01-19T00:35 | 16122 | 109 | -84.5 | -91.4 | 94 | 31 |
| 2010-01-19T00:35 | 16166 | 108 | -84.8 | -91.7 | 94 | 31 |
| 2010-01-19T00:35 | 16216 | 107 | -85.3 | -92.2 | 93 | 33 |
| 2010-01-19T00:35 | 16279 | 106 | -85.4 | -92.4 | 93 | 35 |
| 2010-01-19T00:36 | 16330 | 105 | -85.3 | -92.3 | 92 | 38 |
| 2010-01-19T00:36 | 16382 | 104 | -85.5 | -92.5 | 92 | 40 |
| 2010-01-19T00:36 | 16433 | 103 | -85.3 | -92.3 | 92 | 43 |
| 2010-01-19T00:36 | 16480 | 102 | -84.4 | -91.5 | 92 | 44 |
| 2010-01-19T00:36 | 16533 | 101 | -83.5 | -90.8 | 92 | 41 |
| 2010-01-19T00:36 | 16596 | 100 | -81.7 | -89.2 | 93 | 37 |
| 2010-01-19T00:37 | 16659 | 99 | -80.5 | -88.2 | 94 | 33 |
| 2010-01-19T00:37 | 16708 | 98 | -80.3 | -88.0 | 95 | 30 |
| 2010-01-19T00:37 | 16756 | 97 | -79.9 | -87.8 | 95 | 28 |
| 2010-01-19T00:37 | 16803 | 96 | -79.6 | -87.6 | 96 | 25 |
| 2010-01-19T00:37 | 16853 | 95 | -79.3 | -87.6 | 97 | 23 |
| 2010-01-19T00:37 | 16905 | 94 | -79.4 | -87.8 | 100 | 22 |
| 2010-01-19T00:38 | 16951 | 94 | -79.5 | -88.1 | 103 | 20 |
| 2010-01-19T00:38 | 16995 | 93 | -79.4 | -88.2 | 106 | 19 |
| 2010-01-19T00:38 | 17042 | 92 | -79.7 | -88.6 | 109 | 18 |
| 2010-01-19T00:38 | 17088 | 91 | -79.8 | -88.8 | 110 | 16 |
| 2010-01-19T00:38 | 17140 | 90 | -79.6 | -88.8 | 110 | 15 |
| 2010-01-19T00:38 | 17187 | 90 | -79.8 | -89.2 | 109 | 14 |
| 2010-01-19T00:39 | 17235 | 89 | -80.2 | -89.6 | 106 | 13 |
| 2010-01-19T00:39 | 17283 | 88 | -80.3 | -89.8 | 103 | 12 |
| 2010-01-19T00:39 | 17329 | 88 | -80.3 | -90.0 | 102 | 11 |
| 2010-01-19T00:39 | 17377 | 87 | -79.9 | -89.8 | 104 | 9 |
| 2010-01-19T00:39 | 17425 | 86 | -79.9 | -89.8 | 111 | 8 |
| 2010-01-19T00:39 | 17472 | 85 | -79.7 | -89.8 | 123 | 7 |
| 2010-01-19T00:40 | 17519 | 85 | -79.5 | -89.8 | 140 | 6 |
| 2010-01-19T00:40 | 17566 | 84 | -79.3 | -89.7 | 157 | 6 |
| 2010-01-19T00:40 | 17614 | 83 | -78.2 | -88.9 | 170 | 6 |
| 2010-01-19T00:40 | 17660 | 83 | -78.3 | -89.0 | 174 | 6 |
| 2010-01-19T00:40 | 17706 | 82 | -78.4 | -89.2 | 172 | 6 |
| 2010-01-19T00:40 | 17752 | 81 | -78.4 | -89.3 | 172 | 5 |
| 2010-01-19T00:41 | 17798 | 81 | -78.1 | -89.2 | 182 | 3 |
| 2010-01-19T00:41 | 17845 | 80 | -74.6 | -86.5 | 219 | 2 |
| 2010-01-19T00:41 | 17889 | 79 | -74.3 | -86.3 | 253 | 2 |
| 2010-01-19T00:41 | 17931 | 79 | -73.7 | -86.0 | 257 | 2 |
| 2010-01-19T00:41 | 17976 | 78 | -73.6 | -86.2 | 243 | 2 |
| 2010-01-19T00:41 | 18022 | 78 | -72.8 | -85.8 | 231 | 2 |
| 2010-01-19T00:42 | 18067 | 77 | -71.7 | -85.1 | 234 | 3 |
| 2010-01-19T00:42 | 18113 | 76 | -71.2 | -85.1 | 238 | 4 |
| 2010-01-19T00:42 | 18159 | 76 | -71.3 | -85.5 | 239 | 5 |
| 2010-01-19T00:42 | 18203 | 75 | -71.4 | -86.0 | 239 | 7 |
| 2010-01-19T00:42 | 18249 | 75 | -69.4 | -84.8 | 240 | 10 |
| 2010-01-19T00:42 | 18297 | 74 | -68.1 | -84.2 | 241 | 12 |
| 2010-01-19T00:43 | 18344 | 73 | -67.9 | -84.5 | 240 | 14 |
| 2010-01-19T00:43 | 18391 | 73 | -68.3 | -85.3 | 241 | 14 |
| 2010-01-19T00:43 | 18438 | 72 | -68.5 | -86.0 | 244 | 14 |
| 2010-01-19T00:43 | 18484 | 72 | -68.7 | -86.6 | 249 | 14 |
| 2010-01-19T00:43 | 18533 | 71 | -68.4 | -86.9 | 252 | 15 |
| 2010-01-19T00:43 | 18581 | 71 | -68.0 | -86.9 | 253 | 17 |
| 2010-01-19T00:44 | 18629 | 70 | -67.7 | -87.0 | 253 | 19 |
| 2010-01-19T00:44 | 18676 | 69 | -67.6 | -87.3 | 253 | 20 |
| 2010-01-19T00:44 | 18722 | 69 | -67.7 | -87.6 | 253 | 21 |
| 2010-01-19T00:44 | 18769 | 68 | -68.1 | -88.1 | 254 | 21 |
| 2010-01-19T00:44 | 18815 | 68 | -68.4 | -88.6 | 255 | 20 |
| 2010-01-19T00:44 | 18863 | 67 | -68.7 | -89.1 | 255 | 20 |
| 2010-01-19T00:45 | 18910 | 67 | -69.1 | -89.5 | 256 | 19 |
| 2010-01-19T00:45 | 18958 | 66 | -69.3 | -89.8 | 257 | 19 |
| 2010-01-19T00:45 | 19005 | 66 | -69.8 | -90.3 | 258 | 18 |
| 2010-01-19T00:45 | 19054 | 65 | -70.2 | -90.6 | 258 | 18 |
| 2010-01-19T00:45 | 19100 | 65 | -70.2 | -90.7 | 259 | 18 |
| 2010-01-19T00:45 | 19149 | 64 | -70.5 | -91.0 | 261 | 19 |
| 2010-01-19T00:46 | 19197 | 64 | -70.5 | -91.0 | 266 | 19 |
| 2010-01-19T00:46 | 19245 | 63 | -70.4 | -91.0 | 271 | 19 |
| 2010-01-19T00:46 | 19292 | 63 | -69.9 | -90.6 | 275 | 19 |
| 2010-01-19T00:46 | 19340 | 62 | -70.1 | -90.8 | 277 | 19 |
| 2010-01-19T00:46 | 19389 | 62 | -69.9 | -90.6 | 277 | 19 |
| 2010-01-19T00:46 | 19436 | 61 | -70.3 | -90.9 | 275 | 20 |
| 2010-01-19T00:47 | 19486 | 61 | -70.5 | -91.0 | 274 | 21 |
| 2010-01-19T00:47 | 19537 | 60 | -70.5 | -91.1 | 272 | 22 |
| 2010-01-19T00:47 | 19585 | 60 | -70.9 | -91.5 | 270 | 23 |
| 2010-01-19T00:47 | 19634 | 59 | -71.4 | -91.8 | 269 | 24 |
| 2010-01-19T00:47 | 19683 | 59 | -71.8 | -92.2 | 267 | 24 |
| 2010-01-19T00:47 | 19733 | 58 | -71.8 | -92.1 | 266 | 25 |
| 2010-01-19T00:48 | 19782 | 58 | -72.2 | -92.4 | 266 | 25 |
| 2010-01-19T00:48 | 19831 | 57 | -72.3 | -92.4 | 267 | 26 |
| 2010-01-19T00:48 | 19880 | 57 | -72.6 | -92.6 | 268 | 26 |
| 2010-01-19T00:48 | 19928 | 56 | -72.3 | -92.4 | 269 | 25 |
| 2010-01-19T00:48 | 19976 | 56 | -72.5 | -92.5 | 271 | 25 |
| 2010-01-19T00:48 | 20024 | 55 | -72.7 | -92.6 | 272 | 24 |
| 2010-01-19T00:49 | 20072 | 55 | -73.1 | -92.8 | 273 | 23 |
| 2010-01-19T00:49 | 20119 | 54 | -73.5 | -93.1 | 274 | 23 |
| 2010-01-19T00:49 | 20168 | 54 | -73.9 | -93.3 | 275 | 23 |
| 2010-01-19T00:49 | 20216 | 54 | -74.4 | -93.7 | 275 | 22 |
| 2010-01-19T00:49 | 20266 | 53 | -74.9 | -94.1 | 275 | 21 |
| 2010-01-19T00:49 | 20313 | 53 | -74.4 | -93.7 | 272 | 20 |
| 2010-01-19T00:50 | 20360 | 52 | -74.2 | -93.4 | 268 | 20 |
| 2010-01-19T00:50 | 20408 | 52 | -73.7 | -93.0 | 266 | 19 |
| 2010-01-19T00:50 | 20455 | 51 | -72.9 | -92.3 | 264 | 17 |
| 2010-01-19T00:50 | 20502 | 51 | -72.2 | -91.8 | 261 | 15 |
| 2010-01-19T00:50 | 20548 | 51 | -71.8 | -91.4 | 258 | 14 |
| 2010-01-19T00:50 | 20596 | 50 | -71.5 | -91.2 | 255 | 15 |
| 2010-01-19T00:51 | 20644 | 50 | -71.2 | -91.1 | 253 | 15 |
| 2010-01-19T00:51 | 20693 | 49 | -71.6 | -91.4 | 250 | 15 |
| 2010-01-19T00:51 | 20744 | 49 | -72.1 | -91.9 | 247 | 14 |
| 2010-01-19T00:51 | 20791 | 49 | -72.4 | -92.2 | 243 | 13 |
| 2010-01-19T00:51 | 20840 | 48 | -72.4 | -92.3 | 240 | 12 |
| 2010-01-19T00:51 | 20890 | 48 | -71.7 | -91.9 | 241 | 12 |
| 2010-01-19T00:52 | 20940 | 47 | -72.0 | -92.2 | 243 | 13 |
| 2010-01-19T00:52 | 20988 | 47 | -72.3 | -92.4 | 245 | 13 |
| 2010-01-19T00:52 | 21038 | 47 | -72.7 | -92.8 | 242 | 13 |
| 2010-01-19T00:52 | 21088 | 46 | -72.8 | -92.8 | 235 | 12 |
| 2010-01-19T00:52 | 21138 | 46 | -73.0 | -93.0 | 224 | 12 |
| 2010-01-19T00:52 | 21187 | 45 | -72.1 | -92.5 | 214 | 12 |
| 2010-01-19T00:53 | 21235 | 45 | -71.3 | -92.0 | 205 | 13 |
| 2010-01-19T00:53 | 21285 | 45 | -71.1 | -91.9 | 197 | 13 |
| 2010-01-19T00:53 | 21336 | 44 | -71.0 | -91.9 | 189 | 12 |
| 2010-01-19T00:53 | 21385 | 44 | -71.0 | -92.0 | 178 | 12 |
| 2010-01-19T00:53 | 21435 | 44 | -70.9 | -92.0 | 167 | 12 |
| 2010-01-19T00:53 | 21484 | 43 | -69.6 | -91.4 | 157 | 12 |
| 2010-01-19T00:54 | 21531 | 43 | -69.7 | -91.4 | 149 | 12 |
| 2010-01-19T00:54 | 21580 | 42 | -69.8 | -91.5 | 143 | 12 |
| 2010-01-19T00:54 | 21628 | 42 | -69.8 | -91.6 | 137 | 12 |
| 2010-01-19T00:54 | 21676 | 42 | -69.9 | -91.8 | 129 | 12 |
| 2010-01-19T00:54 | 21725 | 41 | -69.8 | -91.9 | 120 | 12 |
| 2010-01-19T00:54 | 21773 | 41 | -69.0 | -91.6 | 110 | 11 |
| 2010-01-19T00:55 | 21821 | 41 | -68.7 | -91.4 | 98 | 11 |
| 2010-01-19T00:55 | 21870 | 40 | -68.0 | -91.2 | 85 | 11 |
| 2010-01-19T00:55 | 21921 | 40 | -67.6 | -91.0 | 73 | 12 |
| 2010-01-19T00:55 | 21969 | 40 | -67.5 | -91.0 | 64 | 13 |
| 2010-01-19T00:55 | 22017 | 39 | -67.4 | -91.0 | 59 | 15 |
| 2010-01-19T00:55 | 22068 | 39 | -67.0 | -90.9 | 59 | 16 |
| 2010-01-19T00:56 | 22118 | 39 | -67.0 | -91.0 | 60 | 16 |
| 2010-01-19T00:56 | 22170 | 39 | -67.3 | -91.3 | 62 | 17 |
| 2010-01-19T00:56 | 22221 | 38 | -67.5 | -91.5 | 62 | 18 |
| 2010-01-19T00:56 | 22275 | 38 | -67.1 | -91.4 | 60 | 19 |
| 2010-01-19T00:56 | 22325 | 38 | -67.0 | -91.5 | 59 | 20 |
| 2010-01-19T00:56 | 22378 | 37 | -67.3 | -91.7 | 60 | 20 |
| 2010-01-19T00:57 | 22431 | 37 | -67.5 | -91.9 | 61 | 21 |
| 2010-01-19T00:57 | 22486 | 37 | -67.4 | -91.9 | 62 | 22 |
| 2010-01-19T00:57 | 22538 | 36 | -67.2 | -91.9 | 64 | 22 |
| 2010-01-19T00:57 | 22592 | 36 | -67.1 | -91.9 | 68 | 23 |
| 2010-01-19T00:57 | 22642 | 36 | -66.9 | -91.9 | 74 | 23 |
| 2010-01-19T00:57 | 22693 | 35 | -66.7 | -91.8 | 80 | 23 |
| 2010-01-19T00:58 | 22745 | 35 | -66.1 | -91.6 | 85 | 23 |
| 2010-01-19T00:58 | 22796 | 35 | -66.2 | -91.5 | 87 | 24 |
| 2010-01-19T00:58 | 22848 | 34 | -66.2 | -91.6 | 88 | 24 |
| 2010-01-19T00:58 | 22898 | 34 | -66.4 | -91.7 | 88 | 25 |
| 2010-01-19T00:58 | 22948 | 34 | -66.6 | -91.8 | 88 | 26 |
| 2010-01-19T00:58 | 23000 | 34 | -66.7 | -92.0 | 87 | 26 |
| 2010-01-19T00:59 | 23050 | 33 | -67.0 | -92.2 | 86 | 26 |
| 2010-01-19T00:59 | 23101 | 33 | -67.2 | -92.3 | 86 | 25 |
| 2010-01-19T00:59 | 23151 | 33 | -67.4 | -92.5 | 86 | 24 |
| 2010-01-19T00:59 | 23202 | 32 | -67.3 | -92.4 | 86 | 24 |
| 2010-01-19T00:59 | 23252 | 32 | -66.9 | -92.4 | 85 | 25 |
| 2010-01-19T00:59 | 23303 | 32 | -66.1 | -92.0 | 84 | 27 |
| 2010-01-19T01:00 | 23354 | 32 | -64.8 | -91.3 | 83 | 28 |
| 2010-01-19T01:00 | 23403 | 31 | -64.1 | -90.8 | 81 | 28 |
| 2010-01-19T01:00 | 23455 | 31 | -64.1 | -90.7 | 81 | 28 |
| 2010-01-19T01:00 | 23506 | 31 | -64.1 | -90.6 | 82 | 29 |
| 2010-01-19T01:00 | 23556 | 31 | -64.0 | -90.6 | 85 | 29 |
| 2010-01-19T01:00 | 23611 | 30 | -63.3 | -90.3 | 90 | 29 |
| 2010-01-19T01:01 | 23663 | 30 | -62.9 | -90.1 | 94 | 28 |
| 2010-01-19T01:01 | 23716 | 30 | -63.1 | -90.1 | 96 | 28 |
| 2010-01-19T01:01 | 23770 | 30 | -63.2 | -90.1 | 97 | 29 |
| 2010-01-19T01:01 | 23821 | 29 | -63.2 | -90.1 | 96 | 30 |
| 2010-01-19T01:01 | 23879 | 29 | -63.4 | -90.2 | 94 | 31 |
| 2010-01-19T01:01 | 23933 | 29 | -63.3 | -90.2 | 92 | 32 |
| 2010-01-19T01:02 | 23985 | 29 | -62.5 | -89.9 | 89 | 32 |
| 2010-01-19T01:02 | 24037 | 28 | -61.8 | -89.4 | 87 | 32 |
| 2010-01-19T01:02 | 24089 | 28 | -61.4 | -89.2 | 86 | 32 |
| 2010-01-19T01:02 | 24140 | 28 | -60.7 | -88.9 | 86 | 32 |
| 2010-01-19T01:02 | 24195 | 28 | -60.1 | -88.4 | 87 | 32 |
| 2010-01-19T01:02 | 24247 | 27 | -59.9 | -88.3 | 88 | 32 |
| 2010-01-19T01:03 | 24299 | 27 | -59.7 | -88.0 | 89 | 32 |
| 2010-01-19T01:03 | 24351 | 27 | -59.7 | -88.0 | 90 | 31 |
| 2010-01-19T01:03 | 24403 | 27 | -59.4 | -87.8 | 91 | 30 |
| 2010-01-19T01:03 | 24454 | 26 | -59.4 | -87.8 | 91 | 30 |
| 2010-01-19T01:03 | 24507 | 26 | -59.3 | -87.6 | 93 | 29 |
| 2010-01-19T01:03 | 24558 | 26 | -59.4 | -87.7 | 94 | 30 |
| 2010-01-19T01:04 | 24612 | 26 | -59.2 | -87.6 | 96 | 30 |
| 2010-01-19T01:04 | 24665 | 26 | -59.3 | -87.6 | 97 | 31 |
| 2010-01-19T01:04 | 24717 | 25 | -59.5 | -87.7 | 97 | 32 |
| 2010-01-19T01:04 | 24771 | 25 | -59.6 | -87.7 | 96 | 33 |
| 2010-01-19T01:04 | 24823 | 25 | -59.4 | -87.6 | 94 | 35 |
| 2010-01-19T01:04 | 24871 | 25 | -59.3 | -87.6 | 93 | 36 |
| 2010-01-19T01:05 | 24926 | 25 | -59.1 | -87.5 | 92 | 37 |
| 2010-01-19T01:05 | 24978 | 24 | -58.8 | -87.3 | 92 | 37 |
| 2010-01-19T01:05 | 25031 | 24 | -58.0 | -86.9 | 91 | 38 |
| 2010-01-19T01:05 | 25084 | 24 | -57.4 | -86.6 | 91 | 38 |
| 2010-01-19T01:05 | 25139 | 24 | -56.9 | -86.2 | 90 | 38 |
| 2010-01-19T01:05 | 25190 | 24 | -56.0 | -85.8 | 89 | 38 |
| 2010-01-19T01:06 | 25243 | 23 | -55.6 | -85.4 | 88 | 37 |
| 2010-01-19T01:06 | 25297 | 23 | -55.5 | -85.2 | 89 | 37 |
| 2010-01-19T01:06 | 25349 | 23 | -55.4 | -85.0 | 90 | 37 |
| 2010-01-19T01:06 | 25400 | 23 | -55.4 | -85.0 | 91 | 37 |
| 2010-01-19T01:06 | 25452 | 23 | -55.2 | -84.8 | 92 | 38 |
| 2010-01-19T01:06 | 25504 | 22 | -54.7 | -84.5 | 92 | 38 |
| 2010-01-19T01:07 | 25557 | 22 | -54.4 | -84.3 | 92 | 39 |
| 2010-01-19T01:07 | 25608 | 22 | -54.4 | -84.2 | 91 | 39 |
| 2010-01-19T01:07 | 25661 | 22 | -54.4 | -84.2 | 91 | 39 |
| 2010-01-19T01:07 | 25717 | 22 | -54.4 | -84.1 | 91 | 39 |
| 2010-01-19T01:07 | 25767 | 22 | -54.7 | -84.3 | 91 | 40 |
| 2010-01-19T01:07 | 25819 | 21 | -54.8 | -84.3 | 90 | 40 |
| 2010-01-19T01:08 | 25873 | 21 | -54.9 | -84.3 | 89 | 40 |
| 2010-01-19T01:08 | 25927 | 21 | -54.9 | -84.4 | 89 | 41 |
| 2010-01-19T01:08 | 25978 | 21 | -55.1 | -84.5 | 88 | 40 |
| 2010-01-19T01:08 | 26033 | 21 | -54.9 | -84.4 | 88 | 40 |
| 2010-01-19T01:08 | 26085 | 20 | -54.8 | -84.3 | 87 | 41 |
| 2010-01-19T01:08 | 26138 | 20 | -54.6 | -84.3 | 87 | 41 |
| 2010-01-19T01:09 | 26190 | 20 | -54.5 | -84.2 | 87 | 41 |
| 2010-01-19T01:09 | 26244 | 20 | -54.6 | -84.2 | 86 | 41 |
| 2010-01-19T01:09 | 26294 | 20 | -54.8 | -84.3 | 86 | 41 |
| 2010-01-19T01:09 | 26347 | 20 | -54.8 | -84.2 | 85 | 41 |
| 2010-01-19T01:09 | 26401 | 19 | -54.8 | -84.3 | 86 | 41 |
| 2010-01-19T01:09 | 26453 | 19 | -54.8 | -84.2 | 86 | 41 |
| 2010-01-19T01:10 | 26505 | 19 | -54.4 | -84.1 | 87 | 42 |
| 2010-01-19T01:10 | 26555 | 19 | -54.5 | -84.1 | 87 | 43 |
| 2010-01-19T01:10 | 26610 | 19 | -54.3 | -84.0 | 86 | 43 |
| 2010-01-19T01:10 | 26663 | 19 | -54.2 | -83.8 | 86 | 43 |
| 2010-01-19T01:10 | 26714 | 19 | -53.7 | -83.7 | 86 | 43 |
| 2010-01-19T01:10 | 26769 | 18 | -53.2 | -83.4 | 87 | 43 |
| 2010-01-19T01:11 | 26818 | 18 | -53.2 | -83.4 | 86 | 43 |
| 2010-01-19T01:11 | 26874 | 18 | -53.1 | -83.2 | 85 | 43 |
| 2010-01-19T01:11 | 26925 | 18 | -52.9 | -83.1 | 84 | 43 |
| 2010-01-19T01:11 | 26979 | 18 | -52.3 | -83.0 | 84 | 43 |
| 2010-01-19T01:11 | 27030 | 18 | -52.3 | -82.7 | 84 | 43 |
| 2010-01-19T01:11 | 27085 | 18 | -51.9 | -82.5 | 84 | 43 |
| 2010-01-19T01:12 | 27138 | 17 | -51.7 | -82.4 | 84 | 43 |
| 2010-01-19T01:12 | 27195 | 17 | -51.7 | -82.4 | 84 | 43 |
| 2010-01-19T01:12 | 27249 | 17 | -51.2 | -82.1 | 85 | 44 |
| 2010-01-19T01:12 | 27302 | 17 | -51.2 | -82.0 | 86 | 44 |
| 2010-01-19T01:12 | 27363 | 17 | -50.9 | -81.9 | 86 | 44 |
| 2010-01-19T01:12 | 27415 | 17 | -50.6 | -81.8 | 86 | 43 |
| 2010-01-19T01:13 | 27473 | 17 | -50.3 | -81.6 | 86 | 42 |
| 2010-01-19T01:13 | 27528 | 16 | -50.3 | -81.6 | 85 | 42 |
| 2010-01-19T01:13 | 27584 | 16 | -50.4 | -81.5 | 85 | 42 |
| 2010-01-19T01:13 | 27637 | 16 | -50.1 | -81.4 | 85 | 41 |
| 2010-01-19T01:13 | 27697 | 16 | -50.1 | -81.3 | 86 | 41 |
| 2010-01-19T01:13 | 27750 | 16 | -49.9 | -81.3 | 86 | 42 |
| 2010-01-19T01:14 | 27804 | 16 | -49.6 | -81.2 | 86 | 43 |
| 2010-01-19T01:14 | 27855 | 16 | -49.6 | -81.1 | 86 | 43 |
| 2010-01-19T01:14 | 27910 | 15 | -49.4 | -81.0 | 86 | 44 |
| 2010-01-19T01:14 | 27969 | 15 | -49.2 | -80.8 | 86 | 44 |
| 2010-01-19T01:14 | 28017 | 15 | -49.1 | -80.6 | 86 | 44 |
| 2010-01-19T01:14 | 28074 | 15 | -49.2 | -80.7 | 86 | 44 |
| 2010-01-19T01:15 | 28127 | 15 | -49.0 | -80.6 | 85 | 45 |
| 2010-01-19T01:15 | 28179 | 15 | -48.9 | -80.6 | 85 | 44 |
| 2010-01-19T01:15 | 28239 | 15 | -48.8 | -80.4 | 85 | 44 |
| 2010-01-19T01:15 | 28291 | 15 | -48.5 | -80.3 | 84 | 44 |
| 2010-01-19T01:15 | 28346 | 14 | -47.8 | -80.0 | 84 | 44 |
| 2010-01-19T01:15 | 28399 | 14 | -47.6 | -79.9 | 84 | 45 |
| 2010-01-19T01:16 | 28456 | 14 | -47.0 | -79.5 | 83 | 45 |
| 2010-01-19T01:16 | 28507 | 14 | -46.7 | -79.4 | 83 | 45 |
| 2010-01-19T01:16 | 28566 | 14 | -46.4 | -79.1 | 83 | 44 |
| 2010-01-19T01:16 | 28622 | 14 | -46.1 | -79.0 | 84 | 44 |
| 2010-01-19T01:16 | 28680 | 14 | -45.9 | -78.9 | 84 | 44 |
| 2010-01-19T01:16 | 28737 | 14 | -45.7 | -78.7 | 84 | 44 |
| 2010-01-19T01:17 | 28789 | 14 | -45.5 | -78.6 | 84 | 44 |
| 2010-01-19T01:17 | 28842 | 13 | -45.0 | -78.3 | 84 | 43 |
| 2010-01-19T01:17 | 28904 | 13 | -44.7 | -78.1 | 83 | 41 |
| 2010-01-19T01:17 | 28958 | 13 | -44.1 | -77.9 | 82 | 39 |
| 2010-01-19T01:17 | 29013 | 13 | -43.2 | -77.5 | 82 | 37 |
| 2010-01-19T01:17 | 29064 | 13 | -42.7 | -77.2 | 81 | 35 |
| 2010-01-19T01:18 | 29120 | 13 | -42.7 | -77.0 | 80 | 33 |
| 2010-01-19T01:18 | 29173 | 13 | -42.7 | -77.0 | 79 | 33 |
| 2010-01-19T01:18 | 29231 | 13 | -42.9 | -77.0 | 78 | 33 |
| 2010-01-19T01:18 | 29282 | 13 | -43.1 | -77.1 | 77 | 33 |
| 2010-01-19T01:18 | 29334 | 12 | -42.9 | -76.9 | 75 | 33 |
| 2010-01-19T11:29 | 4 | 1010 | 27.2 | 24.6 | 325 | 4 |
| 2010-01-19T11:29 | 12 | 1009 | 27.9 | 25.1 | 324 | 3 |
| 2010-01-19T11:29 | 19 | 1008 | 28.0 | 25.0 | 324 | 3 |
| 2010-01-19T11:29 | 28 | 1007 | 28.0 | 24.8 | 323 | 4 |
| 2010-01-19T11:29 | 37 | 1006 | 28.0 | 24.7 | 323 | 4 |
| 2010-01-19T11:29 | 45 | 1005 | 27.9 | 24.7 | 323 | 5 |
| 2010-01-19T11:29 | 53 | 1004 | 27.8 | 24.6 | 323 | 5 |
| 2010-01-19T11:29 | 60 | 1003 | 27.7 | 24.5 | 322 | 5 |
| 2010-01-19T11:29 | 67 | 1003 | 27.7 | 24.5 | 322 | 6 |
| 2010-01-19T11:29 | 74 | 1002 | 27.6 | 24.5 | 322 | 6 |
| 2010-01-19T11:29 | 81 | 1001 | 27.5 | 24.4 | 322 | 6 |
| 2010-01-19T11:29 | 89 | 1000 | 27.5 | 24.4 | 322 | 7 |
| 2010-01-19T11:29 | 97 | 999 | 27.4 | 24.3 | 322 | 7 |
| 2010-01-19T11:29 | 104 | 999 | 27.3 | 24.3 | 321 | 7 |
| 2010-01-19T11:29 | 112 | 998 | 27.2 | 24.3 | 321 | 7 |
| 2010-01-19T11:29 | 120 | 997 | 27.2 | 24.3 | 321 | 7 |
| 2010-01-19T11:29 | 128 | 996 | 27.1 | 24.2 | 321 | 7 |
| 2010-01-19T11:29 | 134 | 995 | 27.1 | 24.1 | 321 | 7 |
| 2010-01-19T11:29 | 141 | 994 | 27.0 | 24.1 | 321 | 8 |
| 2010-01-19T11:29 | 148 | 994 | 26.9 | 24.2 | 321 | 8 |
| 2010-01-19T11:29 | 156 | 993 | 26.9 | 24.2 | 320 | 8 |
| 2010-01-19T11:29 | 164 | 992 | 26.8 | 24.1 | 320 | 8 |
| 2010-01-19T11:29 | 172 | 991 | 26.7 | 24.1 | 320 | 8 |
| 2010-01-19T11:29 | 180 | 990 | 26.7 | 24.0 | 319 | 8 |
| 2010-01-19T11:29 | 189 | 989 | 26.6 | 24.0 | 319 | 8 |
| 2010-01-19T11:29 | 198 | 988 | 26.5 | 24.0 | 319 | 8 |
| 2010-01-19T11:29 | 208 | 987 | 26.4 | 24.0 | 319 | 8 |
| 2010-01-19T11:29 | 217 | 986 | 26.3 | 24.0 | 318 | 8 |
| 2010-01-19T11:29 | 226 | 985 | 26.2 | 24.0 | 318 | 8 |
| 2010-01-19T11:29 | 234 | 984 | 26.1 | 24.0 | 318 | 8 |
| 2010-01-19T11:30 | 242 | 983 | 26.0 | 24.0 | 318 | 8 |
| 2010-01-19T11:30 | 250 | 982 | 26.0 | 24.0 | 318 | 8 |
| 2010-01-19T11:30 | 257 | 981 | 25.9 | 24.0 | 318 | 8 |
| 2010-01-19T11:30 | 265 | 981 | 25.9 | 23.9 | 319 | 8 |
| 2010-01-19T11:30 | 272 | 980 | 25.8 | 23.9 | 319 | 8 |
| 2010-01-19T11:30 | 280 | 979 | 25.7 | 23.9 | 319 | 8 |
| 2010-01-19T11:30 | 287 | 978 | 25.6 | 23.9 | 320 | 8 |
| 2010-01-19T11:30 | 294 | 977 | 25.6 | 23.9 | 320 | 8 |
| 2010-01-19T11:30 | 301 | 977 | 25.5 | 23.9 | 320 | 8 |
| 2010-01-19T11:30 | 308 | 976 | 25.4 | 23.8 | 321 | 8 |
| 2010-01-19T11:30 | 315 | 975 | 25.3 | 23.8 | 321 | 8 |
| 2010-01-19T11:30 | 323 | 974 | 25.3 | 23.8 | 322 | 8 |
| 2010-01-19T11:30 | 331 | 973 | 25.2 | 23.9 | 322 | 9 |
| 2010-01-19T11:30 | 339 | 972 | 25.1 | 23.9 | 322 | 9 |
| 2010-01-19T11:30 | 348 | 972 | 25.1 | 23.8 | 322 | 9 |
| 2010-01-19T11:30 | 356 | 971 | 25.0 | 23.6 | 323 | 9 |
| 2010-01-19T11:30 | 365 | 970 | 25.0 | 23.4 | 323 | 9 |
| 2010-01-19T11:30 | 372 | 969 | 25.0 | 23.3 | 323 | 9 |
| 2010-01-19T11:30 | 379 | 968 | 24.9 | 23.3 | 323 | 9 |
| 2010-01-19T11:30 | 385 | 967 | 24.8 | 23.4 | 323 | 9 |
| 2010-01-19T11:30 | 391 | 967 | 24.8 | 23.2 | 323 | 9 |
| 2010-01-19T11:30 | 398 | 966 | 24.7 | 23.1 | 323 | 9 |
| 2010-01-19T11:30 | 406 | 965 | 24.7 | 23.1 | 323 | 9 |
| 2010-01-19T11:30 | 414 | 964 | 24.6 | 23.0 | 323 | 9 |
| 2010-01-19T11:30 | 421 | 963 | 24.6 | 22.9 | 323 | 9 |
| 2010-01-19T11:30 | 427 | 963 | 24.6 | 22.8 | 323 | 9 |
| 2010-01-19T11:30 | 432 | 962 | 24.5 | 22.8 | 323 | 9 |
| 2010-01-19T11:30 | 438 | 962 | 24.5 | 22.6 | 323 | 9 |
| 2010-01-19T11:30 | 444 | 961 | 24.5 | 22.4 | 324 | 9 |
| 2010-01-19T11:30 | 451 | 960 | 24.5 | 22.3 | 324 | 9 |
| 2010-01-19T11:31 | 457 | 959 | 24.5 | 22.3 | 324 | 9 |
| 2010-01-19T11:31 | 463 | 959 | 24.4 | 22.2 | 325 | 9 |
| 2010-01-19T11:31 | 469 | 958 | 24.4 | 22.1 | 325 | 10 |
| 2010-01-19T11:31 | 475 | 958 | 24.4 | 22.0 | 325 | 10 |
| 2010-01-19T11:31 | 481 | 957 | 24.3 | 21.8 | 326 | 10 |
| 2010-01-19T11:31 | 486 | 956 | 24.3 | 21.6 | 326 | 10 |
| 2010-01-19T11:31 | 491 | 956 | 24.3 | 21.4 | 326 | 10 |
| 2010-01-19T11:31 | 495 | 955 | 24.3 | 21.2 | 326 | 10 |
| 2010-01-19T11:31 | 500 | 955 | 24.3 | 21.2 | 327 | 10 |
| 2010-01-19T11:31 | 504 | 954 | 24.3 | 21.2 | 327 | 10 |
| 2010-01-19T11:31 | 509 | 954 | 24.2 | 21.2 | 327 | 10 |
| 2010-01-19T11:31 | 514 | 953 | 24.2 | 21.3 | 328 | 10 |
| 2010-01-19T11:31 | 517 | 953 | 24.2 | 21.3 | 328 | 10 |
| 2010-01-19T11:31 | 522 | 952 | 24.1 | 21.4 | 328 | 10 |
| 2010-01-19T11:31 | 527 | 952 | 24.0 | 21.6 | 328 | 10 |
| 2010-01-19T11:31 | 531 | 952 | 24.0 | 21.7 | 328 | 10 |
| 2010-01-19T11:31 | 535 | 951 | 23.9 | 21.7 | 329 | 10 |
| 2010-01-19T11:31 | 540 | 951 | 23.9 | 21.6 | 329 | 10 |
| 2010-01-19T11:31 | 544 | 950 | 23.9 | 21.6 | 329 | 10 |
| 2010-01-19T11:31 | 548 | 950 | 23.8 | 21.6 | 329 | 10 |
| 2010-01-19T11:31 | 553 | 949 | 23.8 | 21.6 | 329 | 10 |
| 2010-01-19T11:31 | 558 | 949 | 23.7 | 21.6 | 329 | 10 |
| 2010-01-19T11:31 | 562 | 948 | 23.7 | 21.7 | 328 | 10 |
| 2010-01-19T11:31 | 566 | 948 | 23.6 | 21.7 | 328 | 10 |
| 2010-01-19T11:31 | 570 | 947 | 23.6 | 21.8 | 328 | 10 |
| 2010-01-19T11:31 | 574 | 947 | 23.5 | 21.8 | 328 | 10 |
| 2010-01-19T11:31 | 578 | 946 | 23.5 | 21.8 | 328 | 10 |
| 2010-01-19T11:31 | 582 | 946 | 23.5 | 21.8 | 327 | 10 |
| 2010-01-19T11:31 | 587 | 945 | 23.4 | 21.7 | 327 | 10 |
| 2010-01-19T11:31 | 590 | 945 | 23.4 | 21.7 | 327 | 10 |
| 2010-01-19T11:32 | 595 | 945 | 23.4 | 21.6 | 327 | 10 |
| 2010-01-19T11:32 | 599 | 944 | 23.4 | 21.6 | 326 | 10 |
| 2010-01-19T11:32 | 604 | 944 | 23.4 | 21.5 | 326 | 10 |
| 2010-01-19T11:32 | 608 | 943 | 23.3 | 21.4 | 326 | 10 |
| 2010-01-19T11:32 | 613 | 943 | 23.3 | 21.2 | 325 | 10 |
| 2010-01-19T11:32 | 617 | 942 | 23.3 | 21.1 | 325 | 10 |
| 2010-01-19T11:32 | 621 | 942 | 23.4 | 21.0 | 325 | 10 |
| 2010-01-19T11:32 | 625 | 941 | 23.4 | 21.0 | 325 | 10 |
| 2010-01-19T11:32 | 630 | 941 | 23.4 | 20.9 | 324 | 10 |
| 2010-01-19T11:32 | 634 | 940 | 23.4 | 20.8 | 324 | 10 |
| 2010-01-19T11:32 | 639 | 940 | 23.4 | 20.8 | 324 | 10 |
| 2010-01-19T11:32 | 643 | 939 | 23.4 | 20.7 | 324 | 10 |
| 2010-01-19T11:32 | 648 | 939 | 23.4 | 20.7 | 324 | 10 |
| 2010-01-19T11:32 | 653 | 938 | 23.4 | 20.6 | 323 | 10 |
| 2010-01-19T11:32 | 658 | 938 | 23.4 | 20.6 | 323 | 10 |
| 2010-01-19T11:32 | 662 | 937 | 23.4 | 20.6 | 323 | 10 |
| 2010-01-19T11:32 | 666 | 937 | 23.4 | 20.5 | 323 | 10 |
| 2010-01-19T11:32 | 670 | 937 | 23.3 | 20.5 | 322 | 11 |
| 2010-01-19T11:32 | 675 | 936 | 23.3 | 20.4 | 322 | 11 |
| 2010-01-19T11:32 | 680 | 935 | 23.2 | 20.4 | 322 | 11 |
| 2010-01-19T11:32 | 685 | 935 | 23.2 | 20.4 | 322 | 11 |
| 2010-01-19T11:32 | 689 | 935 | 23.2 | 20.4 | 322 | 11 |
| 2010-01-19T11:32 | 693 | 934 | 23.1 | 20.3 | 322 | 11 |
| 2010-01-19T11:32 | 697 | 934 | 23.1 | 20.3 | 322 | 11 |
| 2010-01-19T11:32 | 702 | 933 | 23.1 | 20.3 | 322 | 11 |
| 2010-01-19T11:32 | 706 | 933 | 23.1 | 20.3 | 322 | 11 |
| 2010-01-19T11:32 | 709 | 932 | 23.1 | 20.3 | 322 | 11 |
| 2010-01-19T11:32 | 713 | 932 | 23.0 | 20.3 | 322 | 11 |
| 2010-01-19T11:32 | 717 | 931 | 23.0 | 20.3 | 322 | 11 |
| 2010-01-19T11:32 | 722 | 931 | 23.0 | 20.3 | 322 | 11 |
| 2010-01-19T11:33 | 726 | 931 | 22.9 | 20.2 | 322 | 11 |
| 2010-01-19T11:33 | 731 | 930 | 22.9 | 20.0 | 322 | 11 |
| 2010-01-19T11:33 | 735 | 930 | 22.8 | 19.9 | 323 | 11 |
| 2010-01-19T11:33 | 739 | 929 | 22.8 | 20.0 | 323 | 11 |
| 2010-01-19T11:33 | 743 | 929 | 22.8 | 20.0 | 323 | 11 |
| 2010-01-19T11:33 | 747 | 928 | 22.7 | 20.1 | 323 | 11 |
| 2010-01-19T11:33 | 751 | 928 | 22.7 | 20.1 | 323 | 11 |
| 2010-01-19T11:33 | 755 | 928 | 22.6 | 20.1 | 323 | 11 |
| 2010-01-19T11:33 | 759 | 927 | 22.6 | 20.1 | 323 | 11 |
| 2010-01-19T11:33 | 764 | 926 | 22.6 | 20.1 | 322 | 11 |
| 2010-01-19T11:33 | 769 | 926 | 22.5 | 20.1 | 322 | 11 |
| 2010-01-19T11:33 | 774 | 926 | 22.5 | 20.2 | 322 | 11 |
| 2010-01-19T11:33 | 778 | 925 | 22.4 | 20.2 | 322 | 11 |
| 2010-01-19T11:33 | 784 | 924 | 22.4 | 20.2 | 322 | 11 |
| 2010-01-19T11:33 | 789 | 924 | 22.3 | 20.2 | 322 | 11 |
| 2010-01-19T11:33 | 794 | 923 | 22.3 | 20.2 | 322 | 11 |
| 2010-01-19T11:33 | 799 | 923 | 22.2 | 20.2 | 322 | 11 |
| 2010-01-19T11:33 | 804 | 922 | 22.2 | 20.2 | 322 | 11 |
| 2010-01-19T11:33 | 810 | 922 | 22.1 | 20.2 | 321 | 11 |
| 2010-01-19T11:33 | 816 | 921 | 22.1 | 20.2 | 321 | 11 |
| 2010-01-19T11:33 | 822 | 920 | 22.0 | 20.1 | 321 | 11 |
| 2010-01-19T11:33 | 826 | 920 | 22.0 | 20.1 | 321 | 11 |
| 2010-01-19T11:33 | 831 | 919 | 21.9 | 20.1 | 321 | 10 |
| 2010-01-19T11:33 | 835 | 919 | 21.9 | 20.2 | 321 | 10 |
| 2010-01-19T11:33 | 840 | 919 | 21.8 | 20.2 | 320 | 10 |
| 2010-01-19T11:33 | 844 | 918 | 21.8 | 20.2 | 320 | 10 |
| 2010-01-19T11:33 | 848 | 918 | 21.8 | 20.2 | 320 | 10 |
| 2010-01-19T11:33 | 853 | 917 | 21.8 | 20.2 | 320 | 10 |
| 2010-01-19T11:33 | 857 | 917 | 21.9 | 20.0 | 320 | 10 |
| 2010-01-19T11:33 | 861 | 916 | 21.9 | 19.8 | 320 | 10 |
| 2010-01-19T11:34 | 865 | 916 | 21.9 | 19.9 | 320 | 10 |
| 2010-01-19T11:34 | 870 | 915 | 21.9 | 19.9 | 320 | 11 |
| 2010-01-19T11:34 | 875 | 915 | 21.8 | 20.0 | 320 | 11 |
| 2010-01-19T11:34 | 879 | 914 | 21.8 | 20.0 | 320 | 11 |
| 2010-01-19T11:34 | 883 | 914 | 21.8 | 20.0 | 320 | 11 |
| 2010-01-19T11:34 | 888 | 913 | 21.7 | 20.0 | 320 | 11 |
| 2010-01-19T11:34 | 893 | 913 | 21.7 | 19.9 | 320 | 11 |
| 2010-01-19T11:34 | 899 | 912 | 21.7 | 19.9 | 320 | 11 |
| 2010-01-19T11:34 | 904 | 912 | 21.6 | 19.9 | 320 | 11 |
| 2010-01-19T11:34 | 909 | 911 | 21.6 | 19.9 | 320 | 11 |
| 2010-01-19T11:34 | 914 | 911 | 21.5 | 19.9 | 320 | 11 |
| 2010-01-19T11:34 | 919 | 910 | 21.5 | 19.9 | 320 | 11 |
| 2010-01-19T11:34 | 923 | 910 | 21.4 | 19.9 | 320 | 11 |
| 2010-01-19T11:34 | 928 | 909 | 21.4 | 19.9 | 320 | 11 |
| 2010-01-19T11:34 | 932 | 909 | 21.4 | 19.9 | 320 | 11 |
| 2010-01-19T11:34 | 937 | 908 | 21.3 | 19.9 | 320 | 11 |
| 2010-01-19T11:34 | 942 | 908 | 21.3 | 20.0 | 320 | 11 |
| 2010-01-19T11:34 | 946 | 907 | 21.3 | 20.0 | 320 | 10 |
| 2010-01-19T11:34 | 951 | 907 | 21.3 | 20.0 | 319 | 10 |
| 2010-01-19T11:34 | 956 | 906 | 21.2 | 20.0 | 319 | 10 |
| 2010-01-19T11:34 | 961 | 906 | 21.2 | 20.0 | 319 | 10 |
| 2010-01-19T11:34 | 965 | 905 | 21.2 | 20.0 | 319 | 10 |
| 2010-01-19T11:34 | 970 | 905 | 21.2 | 20.0 | 318 | 11 |
| 2010-01-19T11:34 | 975 | 904 | 21.2 | 20.0 | 318 | 11 |
| 2010-01-19T11:34 | 980 | 904 | 21.2 | 20.0 | 318 | 11 |
| 2010-01-19T11:34 | 985 | 903 | 21.2 | 19.9 | 318 | 11 |
| 2010-01-19T11:34 | 990 | 903 | 21.1 | 19.6 | 317 | 11 |
| 2010-01-19T11:34 | 995 | 902 | 21.1 | 19.6 | 317 | 11 |
| 2010-01-19T11:34 | 1000 | 902 | 21.1 | 19.6 | 317 | 11 |
| 2010-01-19T11:34 | 1004 | 901 | 21.1 | 19.6 | 317 | 11 |
| 2010-01-19T11:35 | 1008 | 901 | 21.1 | 19.6 | 317 | 11 |
| 2010-01-19T11:35 | 1013 | 900 | 21.1 | 19.6 | 317 | 11 |
| 2010-01-19T11:35 | 1019 | 900 | 21.1 | 19.5 | 317 | 11 |
| 2010-01-19T11:35 | 1024 | 899 | 21.1 | 19.3 | 316 | 11 |
| 2010-01-19T11:35 | 1028 | 899 | 21.1 | 19.2 | 316 | 11 |
| 2010-01-19T11:35 | 1032 | 898 | 21.1 | 19.1 | 316 | 11 |
| 2010-01-19T11:35 | 1036 | 898 | 21.1 | 19.0 | 316 | 11 |
| 2010-01-19T11:35 | 1041 | 898 | 21.1 | 18.9 | 316 | 11 |
| 2010-01-19T11:35 | 1046 | 897 | 21.0 | 18.8 | 316 | 11 |
| 2010-01-19T11:35 | 1050 | 897 | 21.0 | 18.7 | 315 | 11 |
| 2010-01-19T11:35 | 1055 | 896 | 21.0 | 18.6 | 315 | 11 |
| 2010-01-19T11:35 | 1059 | 896 | 21.0 | 18.4 | 315 | 11 |
| 2010-01-19T11:35 | 1064 | 895 | 21.0 | 18.3 | 315 | 11 |
| 2010-01-19T11:35 | 1069 | 895 | 21.0 | 18.3 | 315 | 11 |
| 2010-01-19T11:35 | 1074 | 894 | 21.0 | 18.3 | 315 | 11 |
| 2010-01-19T11:35 | 1078 | 894 | 21.1 | 18.3 | 314 | 11 |
| 2010-01-19T11:35 | 1082 | 893 | 21.1 | 18.2 | 314 | 11 |
| 2010-01-19T11:35 | 1087 | 893 | 21.1 | 18.0 | 314 | 11 |
| 2010-01-19T11:35 | 1092 | 892 | 21.1 | 18.0 | 314 | 11 |
| 2010-01-19T11:35 | 1096 | 892 | 21.1 | 18.0 | 314 | 11 |
| 2010-01-19T11:35 | 1101 | 891 | 21.1 | 18.0 | 314 | 11 |
| 2010-01-19T11:35 | 1106 | 891 | 21.0 | 18.0 | 314 | 11 |
| 2010-01-19T11:35 | 1110 | 890 | 21.0 | 18.0 | 314 | 11 |
| 2010-01-19T11:35 | 1115 | 890 | 21.0 | 18.0 | 313 | 11 |
| 2010-01-19T11:35 | 1120 | 889 | 20.9 | 17.9 | 313 | 11 |
| 2010-01-19T11:35 | 1124 | 889 | 20.9 | 17.9 | 313 | 11 |
| 2010-01-19T11:35 | 1129 | 888 | 20.9 | 18.0 | 313 | 11 |
| 2010-01-19T11:35 | 1134 | 888 | 20.9 | 18.0 | 313 | 11 |
| 2010-01-19T11:35 | 1140 | 887 | 20.9 | 18.0 | 312 | 11 |
| 2010-01-19T11:35 | 1145 | 887 | 20.9 | 17.9 | 312 | 11 |
| 2010-01-19T11:36 | 1150 | 886 | 20.9 | 17.9 | 312 | 11 |
| 2010-01-19T11:36 | 1155 | 886 | 20.9 | 17.9 | 312 | 11 |
| 2010-01-19T11:36 | 1159 | 885 | 20.9 | 17.9 | 311 | 11 |
| 2010-01-19T11:36 | 1163 | 885 | 20.9 | 17.9 | 311 | 11 |
| 2010-01-19T11:36 | 1169 | 884 | 20.8 | 17.9 | 311 | 11 |
| 2010-01-19T11:36 | 1174 | 884 | 20.8 | 17.9 | 311 | 11 |
| 2010-01-19T11:36 | 1179 | 883 | 20.8 | 17.9 | 311 | 11 |
| 2010-01-19T11:36 | 1184 | 883 | 20.8 | 17.9 | 311 | 11 |
| 2010-01-19T11:36 | 1189 | 882 | 20.8 | 17.9 | 310 | 11 |
| 2010-01-19T11:36 | 1194 | 882 | 20.8 | 18.0 | 310 | 11 |
| 2010-01-19T11:36 | 1199 | 881 | 20.8 | 17.9 | 310 | 11 |
| 2010-01-19T11:36 | 1204 | 881 | 20.8 | 17.8 | 310 | 11 |
| 2010-01-19T11:36 | 1209 | 880 | 20.8 | 17.8 | 310 | 11 |
| 2010-01-19T11:36 | 1213 | 880 | 20.8 | 17.8 | 310 | 11 |
| 2010-01-19T11:36 | 1218 | 879 | 20.8 | 17.8 | 310 | 11 |
| 2010-01-19T11:36 | 1223 | 879 | 20.8 | 17.7 | 310 | 11 |
| 2010-01-19T11:36 | 1228 | 878 | 20.8 | 17.6 | 310 | 11 |
| 2010-01-19T11:36 | 1232 | 878 | 20.8 | 17.7 | 310 | 11 |
| 2010-01-19T11:36 | 1237 | 877 | 20.7 | 17.7 | 310 | 11 |
| 2010-01-19T11:36 | 1242 | 877 | 20.7 | 17.6 | 310 | 11 |
| 2010-01-19T11:36 | 1247 | 877 | 20.7 | 17.5 | 310 | 11 |
| 2010-01-19T11:36 | 1252 | 876 | 20.7 | 17.3 | 310 | 11 |
| 2010-01-19T11:36 | 1256 | 876 | 20.7 | 17.2 | 310 | 11 |
| 2010-01-19T11:36 | 1260 | 875 | 20.7 | 17.3 | 310 | 11 |
| 2010-01-19T11:36 | 1265 | 875 | 20.7 | 17.4 | 310 | 11 |
| 2010-01-19T11:36 | 1271 | 874 | 20.7 | 17.4 | 310 | 11 |
| 2010-01-19T11:36 | 1276 | 874 | 20.7 | 17.4 | 310 | 11 |
| 2010-01-19T11:36 | 1281 | 873 | 20.7 | 17.3 | 310 | 11 |
| 2010-01-19T11:36 | 1286 | 873 | 20.7 | 17.3 | 310 | 11 |
| 2010-01-19T11:36 | 1291 | 872 | 20.6 | 17.3 | 310 | 11 |
| 2010-01-19T11:37 | 1296 | 872 | 20.6 | 17.3 | 309 | 11 |
| 2010-01-19T11:37 | 1301 | 871 | 20.6 | 17.2 | 309 | 11 |
| 2010-01-19T11:37 | 1307 | 871 | 20.5 | 17.2 | 309 | 11 |
| 2010-01-19T11:37 | 1312 | 870 | 20.5 | 17.2 | 309 | 11 |
| 2010-01-19T11:37 | 1317 | 869 | 20.5 | 17.1 | 308 | 11 |
| 2010-01-19T11:37 | 1323 | 869 | 20.4 | 17.1 | 308 | 11 |
| 2010-01-19T11:37 | 1327 | 868 | 20.4 | 17.1 | 308 | 11 |
| 2010-01-19T11:37 | 1332 | 868 | 20.4 | 17.0 | 307 | 11 |
| 2010-01-19T11:37 | 1338 | 867 | 20.4 | 16.8 | 307 | 12 |
| 2010-01-19T11:37 | 1343 | 867 | 20.5 | 16.7 | 307 | 12 |
| 2010-01-19T11:37 | 1348 | 866 | 20.5 | 16.6 | 307 | 12 |
| 2010-01-19T11:37 | 1353 | 866 | 20.5 | 16.6 | 307 | 12 |
| 2010-01-19T11:37 | 1359 | 865 | 20.5 | 16.6 | 306 | 12 |
| 2010-01-19T11:37 | 1365 | 865 | 20.5 | 16.6 | 306 | 12 |
| 2010-01-19T11:37 | 1370 | 864 | 20.5 | 16.5 | 306 | 12 |
| 2010-01-19T11:37 | 1376 | 864 | 20.5 | 16.4 | 306 | 12 |
| 2010-01-19T11:37 | 1381 | 863 | 20.5 | 16.3 | 306 | 12 |
| 2010-01-19T11:37 | 1387 | 862 | 20.5 | 16.1 | 305 | 12 |
| 2010-01-19T11:37 | 1392 | 862 | 20.4 | 15.7 | 305 | 12 |
| 2010-01-19T11:37 | 1398 | 861 | 20.4 | 15.4 | 305 | 12 |
| 2010-01-19T11:37 | 1403 | 861 | 20.4 | 15.4 | 305 | 12 |
| 2010-01-19T11:37 | 1409 | 860 | 20.3 | 15.5 | 304 | 12 |
| 2010-01-19T11:37 | 1414 | 860 | 20.3 | 15.6 | 304 | 12 |
| 2010-01-19T11:37 | 1419 | 859 | 20.2 | 15.8 | 304 | 12 |
| 2010-01-19T11:37 | 1425 | 859 | 20.2 | 16.0 | 303 | 12 |
| 2010-01-19T11:37 | 1431 | 858 | 20.2 | 15.9 | 303 | 12 |
| 2010-01-19T11:37 | 1436 | 858 | 20.2 | 15.8 | 303 | 12 |
| 2010-01-19T11:37 | 1442 | 857 | 20.3 | 15.6 | 302 | 12 |
| 2010-01-19T11:37 | 1448 | 856 | 20.3 | 15.3 | 302 | 12 |
| 2010-01-19T11:37 | 1454 | 856 | 20.3 | 15.1 | 301 | 12 |
| 2010-01-19T11:38 | 1460 | 855 | 20.3 | 15.1 | 301 | 12 |
| 2010-01-19T11:38 | 1466 | 855 | 20.2 | 15.1 | 301 | 12 |
| 2010-01-19T11:38 | 1471 | 854 | 20.2 | 15.0 | 300 | 12 |
| 2010-01-19T11:38 | 1477 | 854 | 20.2 | 14.9 | 300 | 12 |
| 2010-01-19T11:38 | 1482 | 853 | 20.2 | 14.7 | 300 | 12 |
| 2010-01-19T11:38 | 1487 | 853 | 20.2 | 14.5 | 299 | 12 |
| 2010-01-19T11:38 | 1491 | 852 | 20.2 | 14.3 | 299 | 12 |
| 2010-01-19T11:38 | 1497 | 852 | 20.2 | 14.0 | 299 | 12 |
| 2010-01-19T11:38 | 1502 | 851 | 20.2 | 13.8 | 299 | 12 |
| 2010-01-19T11:38 | 1508 | 851 | 20.1 | 13.6 | 299 | 12 |
| 2010-01-19T11:38 | 1513 | 850 | 20.1 | 13.5 | 298 | 12 |
| 2010-01-19T11:38 | 1519 | 849 | 20.1 | 13.3 | 298 | 12 |
| 2010-01-19T11:38 | 1524 | 849 | 20.0 | 13.1 | 298 | 12 |
| 2010-01-19T11:38 | 1530 | 848 | 20.0 | 13.0 | 298 | 12 |
| 2010-01-19T11:38 | 1536 | 848 | 20.0 | 13.0 | 298 | 12 |
| 2010-01-19T11:38 | 1542 | 847 | 19.9 | 13.0 | 298 | 12 |
| 2010-01-19T11:38 | 1547 | 847 | 19.9 | 12.9 | 298 | 12 |
| 2010-01-19T11:38 | 1553 | 846 | 19.8 | 13.1 | 298 | 12 |
| 2010-01-19T11:38 | 1558 | 846 | 19.7 | 13.3 | 298 | 12 |
| 2010-01-19T11:38 | 1563 | 845 | 19.7 | 13.5 | 298 | 12 |
| 2010-01-19T11:38 | 1569 | 845 | 19.7 | 13.6 | 298 | 12 |
| 2010-01-19T11:38 | 1574 | 844 | 19.6 | 13.8 | 298 | 12 |
| 2010-01-19T11:38 | 1580 | 843 | 19.6 | 13.9 | 298 | 12 |
| 2010-01-19T11:38 | 1587 | 843 | 19.6 | 14.0 | 298 | 12 |
| 2010-01-19T11:38 | 1593 | 842 | 19.5 | 13.9 | 298 | 12 |
| 2010-01-19T11:38 | 1599 | 842 | 19.5 | 13.8 | 298 | 12 |
| 2010-01-19T11:38 | 1605 | 841 | 19.5 | 13.7 | 298 | 12 |
| 2010-01-19T11:38 | 1611 | 840 | 19.5 | 13.6 | 298 | 12 |
| 2010-01-19T11:38 | 1617 | 840 | 19.5 | 13.7 | 298 | 12 |
| 2010-01-19T11:38 | 1622 | 839 | 19.5 | 13.7 | 298 | 12 |
| 2010-01-19T11:39 | 1628 | 839 | 19.4 | 13.5 | 298 | 13 |
| 2010-01-19T11:39 | 1635 | 838 | 19.4 | 13.4 | 298 | 13 |
| 2010-01-19T11:39 | 1640 | 838 | 19.4 | 13.4 | 298 | 13 |
| 2010-01-19T11:39 | 1646 | 837 | 19.4 | 13.3 | 298 | 13 |
| 2010-01-19T11:39 | 1652 | 836 | 19.3 | 13.3 | 298 | 13 |
| 2010-01-19T11:39 | 1658 | 836 | 19.3 | 13.2 | 297 | 13 |
| 2010-01-19T11:39 | 1664 | 835 | 19.3 | 13.2 | 297 | 13 |
| 2010-01-19T11:39 | 1669 | 835 | 19.2 | 13.2 | 297 | 13 |
| 2010-01-19T11:39 | 1674 | 834 | 19.2 | 13.2 | 297 | 13 |
| 2010-01-19T11:39 | 1680 | 834 | 19.2 | 13.1 | 297 | 13 |
| 2010-01-19T11:39 | 1686 | 833 | 19.1 | 13.1 | 297 | 13 |
| 2010-01-19T11:39 | 1691 | 833 | 19.1 | 13.1 | 297 | 13 |
| 2010-01-19T11:39 | 1698 | 832 | 19.0 | 13.1 | 297 | 13 |
| 2010-01-19T11:39 | 1704 | 831 | 19.0 | 13.0 | 297 | 13 |
| 2010-01-19T11:39 | 1709 | 831 | 18.9 | 12.8 | 296 | 13 |
| 2010-01-19T11:39 | 1715 | 830 | 18.9 | 12.9 | 296 | 13 |
| 2010-01-19T11:39 | 1720 | 830 | 18.9 | 13.0 | 296 | 13 |
| 2010-01-19T11:39 | 1725 | 829 | 18.8 | 13.2 | 296 | 13 |
| 2010-01-19T11:39 | 1732 | 829 | 18.8 | 13.2 | 295 | 13 |
| 2010-01-19T11:39 | 1739 | 828 | 18.8 | 13.1 | 295 | 13 |
| 2010-01-19T11:39 | 1745 | 827 | 18.7 | 13.1 | 295 | 13 |
| 2010-01-19T11:39 | 1751 | 827 | 18.7 | 13.1 | 294 | 13 |
| 2010-01-19T11:39 | 1757 | 826 | 18.7 | 13.2 | 294 | 13 |
| 2010-01-19T11:39 | 1763 | 826 | 18.6 | 13.3 | 294 | 13 |
| 2010-01-19T11:39 | 1769 | 825 | 18.6 | 13.3 | 294 | 13 |
| 2010-01-19T11:39 | 1776 | 824 | 18.6 | 13.3 | 293 | 12 |
| 2010-01-19T11:39 | 1783 | 824 | 18.6 | 13.1 | 293 | 12 |
| 2010-01-19T11:39 | 1790 | 823 | 18.6 | 13.0 | 293 | 12 |
| 2010-01-19T11:39 | 1797 | 822 | 18.5 | 13.0 | 293 | 12 |
| 2010-01-19T11:39 | 1804 | 822 | 18.5 | 13.0 | 293 | 12 |
| 2010-01-19T11:40 | 1811 | 821 | 18.4 | 13.0 | 293 | 12 |
| 2010-01-19T11:40 | 1817 | 821 | 18.4 | 12.9 | 293 | 12 |
| 2010-01-19T11:40 | 1823 | 820 | 18.3 | 12.9 | 292 | 12 |
| 2010-01-19T11:40 | 1828 | 819 | 18.3 | 12.8 | 292 | 12 |
| 2010-01-19T11:40 | 1834 | 819 | 18.3 | 12.7 | 292 | 12 |
| 2010-01-19T11:40 | 1841 | 818 | 18.3 | 12.5 | 292 | 12 |
| 2010-01-19T11:40 | 1847 | 818 | 18.3 | 12.4 | 292 | 12 |
| 2010-01-19T11:40 | 1853 | 817 | 18.2 | 12.4 | 292 | 12 |
| 2010-01-19T11:40 | 1859 | 816 | 18.1 | 12.3 | 292 | 12 |
| 2010-01-19T11:40 | 1865 | 816 | 18.1 | 12.3 | 292 | 12 |
| 2010-01-19T11:40 | 1871 | 815 | 18.1 | 12.2 | 291 | 12 |
| 2010-01-19T11:40 | 1877 | 815 | 18.0 | 12.0 | 291 | 12 |
| 2010-01-19T11:40 | 1884 | 814 | 18.0 | 11.9 | 291 | 12 |
| 2010-01-19T11:40 | 1892 | 813 | 17.9 | 11.9 | 291 | 12 |
| 2010-01-19T11:40 | 1899 | 813 | 17.9 | 11.9 | 291 | 12 |
| 2010-01-19T11:40 | 1906 | 812 | 17.8 | 11.9 | 291 | 12 |
| 2010-01-19T11:40 | 1914 | 811 | 17.8 | 11.7 | 290 | 12 |
| 2010-01-19T11:40 | 1922 | 811 | 17.8 | 11.6 | 290 | 12 |
| 2010-01-19T11:40 | 1929 | 810 | 17.7 | 11.5 | 290 | 12 |
| 2010-01-19T11:40 | 1937 | 809 | 17.7 | 11.5 | 289 | 13 |
| 2010-01-19T11:40 | 1945 | 808 | 17.7 | 11.5 | 289 | 13 |
| 2010-01-19T11:40 | 1952 | 808 | 17.6 | 11.6 | 289 | 13 |
| 2010-01-19T11:40 | 1960 | 807 | 17.6 | 11.7 | 288 | 13 |
| 2010-01-19T11:40 | 1968 | 806 | 17.5 | 11.7 | 288 | 13 |
| 2010-01-19T11:40 | 1975 | 806 | 17.5 | 11.6 | 288 | 13 |
| 2010-01-19T11:40 | 1983 | 805 | 17.5 | 11.6 | 287 | 13 |
| 2010-01-19T11:40 | 1991 | 804 | 17.4 | 11.6 | 287 | 14 |
| 2010-01-19T11:40 | 1999 | 803 | 17.3 | 11.5 | 287 | 14 |
| 2010-01-19T11:41 | 2020 | 801 | 17.2 | 11.4 | 286 | 14 |
| 2010-01-19T11:41 | 2051 | 798 | 17.1 | 11.1 | 285 | 14 |
| 2010-01-19T11:41 | 2084 | 795 | 16.9 | 10.8 | 284 | 14 |
| 2010-01-19T11:41 | 2116 | 792 | 16.5 | 11.1 | 283 | 14 |
| 2010-01-19T11:41 | 2158 | 788 | 16.3 | 11.0 | 282 | 13 |
| 2010-01-19T11:41 | 2206 | 784 | 15.9 | 10.7 | 281 | 12 |
| 2010-01-19T11:42 | 2248 | 780 | 15.6 | 10.4 | 278 | 12 |
| 2010-01-19T11:42 | 2299 | 776 | 15.1 | 10.2 | 273 | 12 |
| 2010-01-19T11:42 | 2343 | 772 | 15.1 | 9.4 | 270 | 12 |
| 2010-01-19T11:42 | 2385 | 768 | 14.8 | 8.9 | 269 | 12 |
| 2010-01-19T11:42 | 2428 | 764 | 14.5 | 8.7 | 269 | 12 |
| 2010-01-19T11:42 | 2464 | 761 | 14.2 | 8.6 | 270 | 12 |
| 2010-01-19T11:43 | 2495 | 758 | 13.9 | 8.7 | 271 | 12 |
| 2010-01-19T11:43 | 2525 | 755 | 13.8 | 8.6 | 271 | 12 |
| 2010-01-19T11:43 | 2554 | 753 | 13.5 | 8.8 | 271 | 12 |
| 2010-01-19T11:43 | 2585 | 750 | 13.4 | 9.2 | 271 | 12 |
| 2010-01-19T11:43 | 2617 | 747 | 13.4 | 9.1 | 272 | 12 |
| 2010-01-19T11:43 | 2650 | 744 | 13.1 | 8.7 | 272 | 12 |
| 2010-01-19T11:44 | 2680 | 741 | 12.9 | 8.8 | 272 | 12 |
| 2010-01-19T11:44 | 2707 | 739 | 12.8 | 8.9 | 272 | 12 |
| 2010-01-19T11:44 | 2732 | 737 | 12.9 | 8.3 | 270 | 12 |
| 2010-01-19T11:44 | 2757 | 735 | 12.8 | 8.1 | 270 | 12 |
| 2010-01-19T11:44 | 2783 | 732 | 12.6 | 8.1 | 269 | 12 |
| 2010-01-19T11:44 | 2809 | 730 | 12.5 | 8.1 | 269 | 12 |
| 2010-01-19T11:45 | 2837 | 728 | 12.2 | 7.8 | 270 | 12 |
| 2010-01-19T11:45 | 2864 | 725 | 12.1 | 7.7 | 269 | 12 |
| 2010-01-19T11:45 | 2893 | 723 | 11.9 | 7.6 | 268 | 12 |
| 2010-01-19T11:45 | 2918 | 721 | 11.9 | 7.0 | 266 | 12 |
| 2010-01-19T11:45 | 2944 | 718 | 11.9 | 6.8 | 266 | 13 |
| 2010-01-19T11:45 | 2972 | 716 | 11.9 | 6.1 | 266 | 12 |
| 2010-01-19T11:46 | 3001 | 714 | 11.7 | 6.2 | 266 | 12 |
| 2010-01-19T11:46 | 3030 | 711 | 11.4 | 6.2 | 265 | 12 |
| 2010-01-19T11:46 | 3057 | 709 | 11.2 | 6.1 | 265 | 12 |
| 2010-01-19T11:46 | 3085 | 706 | 11.0 | 5.9 | 264 | 12 |
| 2010-01-19T11:46 | 3110 | 704 | 10.9 | 5.8 | 264 | 12 |
| 2010-01-19T11:46 | 3138 | 702 | 10.7 | 4.6 | 265 | 11 |
| 2010-01-19T11:47 | 3166 | 700 | 10.6 | 4.3 | 265 | 11 |
| 2010-01-19T11:47 | 3203 | 697 | 10.4 | 4.4 | 264 | 11 |
| 2010-01-19T11:47 | 3238 | 694 | 10.4 | 2.6 | 262 | 10 |
| 2010-01-19T11:47 | 3278 | 690 | 10.2 | 2.0 | 261 | 10 |
| 2010-01-19T11:47 | 3313 | 687 | 10.0 | 0.7 | 260 | 10 |
| 2010-01-19T11:47 | 3346 | 685 | 9.8 | 2.5 | 258 | 10 |
| 2010-01-19T11:48 | 3376 | 682 | 9.7 | 1.5 | 258 | 10 |
| 2010-01-19T11:48 | 3407 | 680 | 9.5 | 1.7 | 259 | 9 |
| 2010-01-19T11:48 | 3435 | 677 | 9.2 | 2.8 | 260 | 9 |
| 2010-01-19T11:48 | 3462 | 675 | 8.9 | 3.9 | 260 | 9 |
| 2010-01-19T11:48 | 3486 | 673 | 8.7 | 3.1 | 260 | 9 |
| 2010-01-19T11:48 | 3514 | 671 | 8.5 | 3.1 | 260 | 9 |
| 2010-01-19T11:49 | 3541 | 669 | 8.4 | 3.1 | 261 | 9 |
| 2010-01-19T11:49 | 3567 | 667 | 8.2 | 3.3 | 262 | 9 |
| 2010-01-19T11:49 | 3593 | 665 | 7.9 | 3.4 | 261 | 9 |
| 2010-01-19T11:49 | 3622 | 662 | 7.7 | 3.4 | 260 | 8 |
| 2010-01-19T11:49 | 3650 | 660 | 7.4 | 3.4 | 260 | 8 |
| 2010-01-19T11:49 | 3680 | 658 | 7.2 | 3.5 | 261 | 8 |
| 2010-01-19T11:50 | 3709 | 655 | 7.1 | 3.7 | 261 | 8 |
| 2010-01-19T11:50 | 3739 | 653 | 6.9 | 3.4 | 259 | 9 |
| 2010-01-19T11:50 | 3769 | 651 | 6.7 | 3.3 | 258 | 9 |
| 2010-01-19T11:50 | 3800 | 648 | 6.4 | 3.0 | 257 | 9 |
| 2010-01-19T11:50 | 3825 | 646 | 6.3 | 3.3 | 257 | 9 |
| 2010-01-19T11:50 | 3854 | 644 | 6.0 | 3.0 | 257 | 9 |
| 2010-01-19T11:51 | 3882 | 642 | 5.8 | 3.2 | 258 | 9 |
| 2010-01-19T11:51 | 3909 | 640 | 5.6 | 3.3 | 257 | 9 |
| 2010-01-19T11:51 | 3934 | 638 | 5.4 | 3.2 | 256 | 9 |
| 2010-01-19T11:51 | 3967 | 635 | 5.1 | 2.9 | 254 | 9 |
| 2010-01-19T11:51 | 3998 | 633 | 5.2 | 0.3 | 252 | 9 |
| 2010-01-19T11:51 | 4030 | 630 | 5.3 | -4.4 | 250 | 9 |
| 2010-01-19T11:52 | 4068 | 627 | 5.1 | -7.1 | 249 | 9 |
| 2010-01-19T11:52 | 4104 | 624 | 5.4 | -22.2 | 247 | 9 |
| 2010-01-19T11:52 | 4146 | 621 | 5.2 | -22.4 | 247 | 9 |
| 2010-01-19T11:52 | 4189 | 618 | 4.8 | -22.7 | 246 | 10 |
| 2010-01-19T11:52 | 4226 | 615 | 4.5 | -9.2 | 246 | 10 |
| 2010-01-19T11:52 | 4263 | 612 | 5.1 | -7.0 | 246 | 10 |
| 2010-01-19T11:53 | 4307 | 609 | 4.8 | -7.8 | 246 | 10 |
| 2010-01-19T11:53 | 4350 | 606 | 4.4 | -8.1 | 246 | 9 |
| 2010-01-19T11:53 | 4393 | 603 | 4.0 | -8.2 | 246 | 9 |
| 2010-01-19T11:53 | 4434 | 600 | 3.8 | -8.4 | 246 | 9 |
| 2010-01-19T11:53 | 4472 | 597 | 3.4 | -8.3 | 246 | 10 |
| 2010-01-19T11:53 | 4514 | 594 | 3.0 | -8.4 | 247 | 10 |
| 2010-01-19T11:54 | 4562 | 590 | 2.5 | -8.3 | 248 | 10 |
| 2010-01-19T11:54 | 4611 | 587 | 2.0 | -8.4 | 250 | 10 |
| 2010-01-19T11:54 | 4658 | 583 | 1.7 | -8.8 | 251 | 10 |
| 2010-01-19T11:54 | 4704 | 580 | 1.3 | -8.9 | 251 | 10 |
| 2010-01-19T11:54 | 4749 | 577 | 0.9 | -9.1 | 251 | 9 |
| 2010-01-19T11:54 | 4797 | 573 | 0.4 | -9.3 | 251 | 9 |
| 2010-01-19T11:55 | 4840 | 570 | 0.0 | -9.4 | 253 | 8 |
| 2010-01-19T11:55 | 4883 | 567 | -0.1 | -11.2 | 257 | 8 |
| 2010-01-19T11:55 | 4929 | 564 | -0.5 | -11.3 | 259 | 8 |
| 2010-01-19T11:55 | 4975 | 561 | -0.9 | -11.2 | 260 | 8 |
| 2010-01-19T11:55 | 5013 | 558 | -1.2 | -11.3 | 262 | 7 |
| 2010-01-19T11:55 | 5057 | 555 | -1.6 | -11.5 | 264 | 8 |
| 2010-01-19T11:56 | 5106 | 552 | -2.0 | -11.6 | 265 | 8 |
| 2010-01-19T11:56 | 5152 | 548 | -2.3 | -9.5 | 261 | 9 |
| 2010-01-19T11:56 | 5197 | 545 | -2.3 | -5.7 | 253 | 10 |
| 2010-01-19T11:56 | 5248 | 542 | -2.5 | -4.4 | 246 | 10 |
| 2010-01-19T11:56 | 5297 | 538 | -2.7 | -3.9 | 241 | 11 |
| 2010-01-19T11:56 | 5343 | 535 | -2.7 | -3.6 | 240 | 10 |
| 2010-01-19T11:57 | 5390 | 532 | -2.8 | -3.5 | 240 | 10 |
| 2010-01-19T11:57 | 5438 | 529 | -2.7 | -3.1 | 240 | 9 |
| 2010-01-19T11:57 | 5485 | 526 | -2.7 | -3.3 | 240 | 9 |
| 2010-01-19T11:57 | 5531 | 523 | -2.8 | -3.7 | 241 | 9 |
| 2010-01-19T11:57 | 5577 | 520 | -3.1 | -4.0 | 242 | 9 |
| 2010-01-19T11:57 | 5620 | 517 | -3.3 | -4.7 | 242 | 9 |
| 2010-01-19T11:58 | 5669 | 514 | -3.5 | -5.1 | 241 | 8 |
| 2010-01-19T11:58 | 5716 | 511 | -3.9 | -5.2 | 240 | 8 |
| 2010-01-19T11:58 | 5762 | 508 | -4.2 | -5.3 | 240 | 7 |
| 2010-01-19T11:58 | 5807 | 505 | -4.5 | -5.3 | 238 | 7 |
| 2010-01-19T11:58 | 5853 | 502 | -4.9 | -5.5 | 236 | 7 |
| 2010-01-19T11:58 | 5899 | 499 | -5.2 | -5.6 | 233 | 7 |
| 2010-01-19T11:59 | 5944 | 496 | -5.2 | -5.5 | 231 | 6 |
| 2010-01-19T11:59 | 5989 | 493 | -5.2 | -5.5 | 228 | 6 |
| 2010-01-19T11:59 | 6034 | 491 | -5.3 | -5.6 | 226 | 6 |
| 2010-01-19T11:59 | 6080 | 488 | -5.5 | -5.8 | 224 | 5 |
| 2010-01-19T11:59 | 6120 | 485 | -5.8 | -6.0 | 221 | 5 |
| 2010-01-19T11:59 | 6160 | 483 | -5.9 | -6.2 | 217 | 5 |
| 2010-01-19T12:00 | 6201 | 480 | -6.0 | -6.3 | 211 | 5 |
| 2010-01-19T12:00 | 6239 | 478 | -6.2 | -6.7 | 208 | 4 |
| 2010-01-19T12:00 | 6269 | 476 | -6.4 | -6.9 | 208 | 4 |
| 2010-01-19T12:00 | 6297 | 474 | -6.5 | -7.0 | 209 | 3 |
| 2010-01-19T12:00 | 6327 | 473 | -6.6 | -7.4 | 210 | 2 |
| 2010-01-19T12:00 | 6354 | 471 | -6.8 | -8.0 | 212 | 2 |
| 2010-01-19T12:01 | 6380 | 469 | -6.9 | -8.2 | 214 | 2 |
| 2010-01-19T12:01 | 6406 | 468 | -7.1 | -8.1 | 215 | 2 |
| 2010-01-19T12:01 | 6433 | 466 | -7.3 | -8.5 | 219 | 2 |
| 2010-01-19T12:01 | 6462 | 464 | -7.5 | -8.7 | 228 | 1 |
| 2010-01-19T12:01 | 6488 | 463 | -7.7 | -9.0 | 237 | 1 |
| 2010-01-19T12:01 | 6513 | 461 | -7.9 | -9.2 | 240 | 1 |
| 2010-01-19T12:02 | 6540 | 460 | -8.1 | -9.2 | 238 | 1 |
| 2010-01-19T12:02 | 6566 | 458 | -8.3 | -9.3 | 237 | 1 |
| 2010-01-19T12:02 | 6591 | 457 | -8.4 | -9.6 | 237 | 2 |
| 2010-01-19T12:02 | 6621 | 455 | -8.4 | -9.8 | 231 | 2 |
| 2010-01-19T12:02 | 6650 | 453 | -8.5 | -9.9 | 223 | 2 |
| 2010-01-19T12:02 | 6680 | 452 | -8.6 | -10.3 | 216 | 3 |
| 2010-01-19T12:03 | 6710 | 450 | -8.9 | -10.3 | 212 | 3 |
| 2010-01-19T12:03 | 6737 | 448 | -9.1 | -10.5 | 212 | 3 |
| 2010-01-19T12:03 | 6766 | 447 | -9.1 | -10.6 | 213 | 3 |
| 2010-01-19T12:03 | 6794 | 445 | -9.3 | -10.7 | 213 | 3 |
| 2010-01-19T12:03 | 6822 | 443 | -9.4 | -10.9 | 210 | 2 |
| 2010-01-19T12:03 | 6850 | 442 | -9.6 | -11.2 | 205 | 2 |
| 2010-01-19T12:04 | 6881 | 440 | -9.8 | -11.4 | 201 | 2 |
| 2010-01-19T12:04 | 6909 | 438 | -10.0 | -11.6 | 200 | 2 |
| 2010-01-19T12:04 | 6939 | 437 | -10.2 | -11.8 | 202 | 2 |
| 2010-01-19T12:04 | 6967 | 435 | -10.5 | -11.8 | 206 | 2 |
| 2010-01-19T12:04 | 6999 | 433 | -10.7 | -12.1 | 212 | 2 |
| 2010-01-19T12:04 | 7044 | 431 | -10.8 | -12.1 | 214 | 2 |
| 2010-01-19T12:05 | 7092 | 428 | -11.1 | -12.3 | 211 | 2 |
| 2010-01-19T12:05 | 7140 | 426 | -11.3 | -12.6 | 207 | 2 |
| 2010-01-19T12:05 | 7186 | 423 | -11.6 | -13.6 | 208 | 2 |
| 2010-01-19T12:05 | 7229 | 421 | -11.9 | -13.6 | 209 | 2 |
| 2010-01-19T12:05 | 7272 | 418 | -12.3 | -14.1 | 209 | 2 |
| 2010-01-19T12:05 | 7314 | 416 | -12.6 | -14.4 | 209 | 2 |
| 2010-01-19T12:06 | 7354 | 414 | -12.8 | -14.4 | 211 | 3 |
| 2010-01-19T12:06 | 7397 | 411 | -13.1 | -14.5 | 212 | 3 |
| 2010-01-19T12:06 | 7439 | 409 | -13.4 | -14.9 | 206 | 3 |
| 2010-01-19T12:06 | 7468 | 408 | -13.7 | -15.2 | 198 | 3 |
| 2010-01-19T12:06 | 7493 | 406 | -13.9 | -15.3 | 195 | 3 |
| 2010-01-19T12:06 | 7523 | 405 | -14.0 | -15.6 | 199 | 3 |
| 2010-01-19T12:07 | 7553 | 403 | -14.3 | -15.6 | 203 | 3 |
| 2010-01-19T12:07 | 7585 | 401 | -14.5 | -15.7 | 204 | 3 |
| 2010-01-19T12:07 | 7616 | 400 | -14.6 | -15.7 | 200 | 3 |
| 2010-01-19T12:07 | 7655 | 398 | -14.8 | -16.0 | 193 | 3 |
| 2010-01-19T12:07 | 7690 | 396 | -15.1 | -16.3 | 185 | 3 |
| 2010-01-19T12:07 | 7724 | 394 | -15.4 | -16.6 | 176 | 4 |
| 2010-01-19T12:08 | 7756 | 392 | -15.6 | -16.7 | 168 | 4 |
| 2010-01-19T12:08 | 7787 | 391 | -15.9 | -16.8 | 163 | 4 |
| 2010-01-19T12:08 | 7818 | 389 | -16.0 | -17.0 | 159 | 4 |
| 2010-01-19T12:08 | 7847 | 388 | -16.2 | -17.2 | 158 | 4 |
| 2010-01-19T12:08 | 7877 | 386 | -16.4 | -17.4 | 159 | 4 |
| 2010-01-19T12:08 | 7907 | 385 | -16.6 | -17.7 | 161 | 4 |
| 2010-01-19T12:09 | 7936 | 383 | -16.8 | -17.7 | 163 | 4 |
| 2010-01-19T12:09 | 7967 | 382 | -16.9 | -17.9 | 163 | 4 |
| 2010-01-19T12:09 | 7995 | 380 | -17.1 | -18.0 | 162 | 4 |
| 2010-01-19T12:09 | 8023 | 379 | -17.3 | -18.1 | 160 | 5 |
| 2010-01-19T12:09 | 8050 | 377 | -17.4 | -18.4 | 160 | 5 |
| 2010-01-19T12:09 | 8077 | 376 | -17.5 | -18.8 | 161 | 5 |
| 2010-01-19T12:10 | 8105 | 375 | -17.6 | -18.9 | 161 | 5 |
| 2010-01-19T12:10 | 8132 | 373 | -17.8 | -19.0 | 161 | 5 |
| 2010-01-19T12:10 | 8159 | 372 | -17.9 | -19.1 | 161 | 5 |
| 2010-01-19T12:10 | 8185 | 371 | -18.1 | -19.2 | 159 | 5 |
| 2010-01-19T12:10 | 8213 | 369 | -18.4 | -19.4 | 155 | 5 |
| 2010-01-19T12:10 | 8241 | 368 | -18.6 | -19.5 | 148 | 5 |
| 2010-01-19T12:11 | 8268 | 367 | -18.8 | -19.3 | 144 | 5 |
| 2010-01-19T12:11 | 8295 | 365 | -18.9 | -19.2 | 141 | 5 |
| 2010-01-19T12:11 | 8321 | 364 | -19.1 | -19.3 | 139 | 5 |
| 2010-01-19T12:11 | 8349 | 363 | -19.2 | -19.4 | 137 | 4 |
| 2010-01-19T12:11 | 8378 | 361 | -19.4 | -19.7 | 135 | 4 |
| 2010-01-19T12:11 | 8407 | 360 | -19.6 | -20.0 | 133 | 4 |
| 2010-01-19T12:12 | 8436 | 358 | -19.9 | -20.2 | 134 | 5 |
| 2010-01-19T12:12 | 8463 | 357 | -20.1 | -20.8 | 136 | 5 |
| 2010-01-19T12:12 | 8489 | 356 | -20.3 | -20.9 | 137 | 5 |
| 2010-01-19T12:12 | 8515 | 355 | -20.4 | -20.8 | 137 | 5 |
| 2010-01-19T12:12 | 8540 | 353 | -20.5 | -21.2 | 137 | 6 |
| 2010-01-19T12:12 | 8568 | 352 | -20.8 | -21.7 | 137 | 6 |
| 2010-01-19T12:13 | 8596 | 351 | -20.9 | -21.6 | 134 | 6 |
| 2010-01-19T12:13 | 8623 | 349 | -21.2 | -21.7 | 132 | 6 |
| 2010-01-19T12:13 | 8649 | 348 | -21.4 | -21.9 | 132 | 7 |
| 2010-01-19T12:13 | 8675 | 347 | -21.7 | -22.1 | 132 | 7 |
| 2010-01-19T12:13 | 8702 | 346 | -21.8 | -22.0 | 133 | 7 |
| 2010-01-19T12:13 | 8729 | 344 | -22.0 | -22.3 | 134 | 7 |
| 2010-01-19T12:14 | 8755 | 343 | -22.2 | -22.6 | 135 | 7 |
| 2010-01-19T12:14 | 8782 | 342 | -22.4 | -22.6 | 134 | 8 |
| 2010-01-19T12:14 | 8808 | 341 | -22.6 | -22.8 | 128 | 8 |
| 2010-01-19T12:14 | 8836 | 339 | -22.7 | -22.9 | 124 | 8 |
| 2010-01-19T12:14 | 8863 | 338 | -22.9 | -23.4 | 122 | 8 |
| 2010-01-19T12:14 | 8896 | 337 | -23.2 | -23.7 | 122 | 8 |
| 2010-01-19T12:15 | 8923 | 335 | -23.4 | -24.1 | 122 | 8 |
| 2010-01-19T12:15 | 8949 | 334 | -23.6 | -24.3 | 122 | 8 |
| 2010-01-19T12:15 | 8974 | 333 | -23.8 | -24.5 | 123 | 8 |
| 2010-01-19T12:15 | 9000 | 332 | -23.9 | -25.5 | 123 | 8 |
| 2010-01-19T12:15 | 9024 | 331 | -24.0 | -26.1 | 124 | 8 |
| 2010-01-19T12:15 | 9049 | 330 | -24.2 | -26.4 | 125 | 9 |
| 2010-01-19T12:16 | 9075 | 329 | -24.4 | -26.9 | 127 | 9 |
| 2010-01-19T12:16 | 9100 | 327 | -24.6 | -27.5 | 128 | 9 |
| 2010-01-19T12:16 | 9126 | 326 | -24.8 | -27.7 | 129 | 9 |
| 2010-01-19T12:16 | 9153 | 325 | -25.0 | -27.9 | 130 | 9 |
| 2010-01-19T12:16 | 9180 | 324 | -25.3 | -28.2 | 131 | 10 |
| 2010-01-19T12:16 | 9208 | 323 | -25.5 | -28.2 | 132 | 10 |
| 2010-01-19T12:17 | 9234 | 321 | -25.7 | -28.6 | 132 | 10 |
| 2010-01-19T12:17 | 9262 | 320 | -25.9 | -29.1 | 132 | 10 |
| 2010-01-19T12:17 | 9291 | 319 | -26.1 | -28.9 | 132 | 9 |
| 2010-01-19T12:17 | 9321 | 318 | -26.4 | -28.6 | 131 | 9 |
| 2010-01-19T12:17 | 9349 | 316 | -26.6 | -28.9 | 131 | 9 |
| 2010-01-19T12:17 | 9378 | 315 | -26.9 | -29.3 | 130 | 9 |
| 2010-01-19T12:18 | 9407 | 314 | -27.1 | -29.5 | 129 | 9 |
| 2010-01-19T12:18 | 9437 | 313 | -27.3 | -29.8 | 128 | 9 |
| 2010-01-19T12:18 | 9468 | 311 | -27.5 | -30.3 | 127 | 9 |
| 2010-01-19T12:18 | 9497 | 310 | -27.8 | -30.4 | 127 | 10 |
| 2010-01-19T12:18 | 9527 | 309 | -28.0 | -30.6 | 128 | 10 |
| 2010-01-19T12:18 | 9556 | 307 | -28.3 | -30.8 | 128 | 10 |
| 2010-01-19T12:19 | 9586 | 306 | -28.5 | -31.2 | 127 | 10 |
| 2010-01-19T12:19 | 9615 | 305 | -28.7 | -31.4 | 126 | 10 |
| 2010-01-19T12:19 | 9648 | 304 | -29.0 | -31.8 | 124 | 10 |
| 2010-01-19T12:19 | 9676 | 302 | -29.2 | -31.8 | 123 | 11 |
| 2010-01-19T12:19 | 9705 | 301 | -29.4 | -31.9 | 122 | 11 |
| 2010-01-19T12:19 | 9733 | 300 | -29.6 | -32.0 | 122 | 11 |
| 2010-01-19T12:20 | 9760 | 299 | -29.9 | -32.1 | 122 | 10 |
| 2010-01-19T12:20 | 9788 | 298 | -30.1 | -32.3 | 121 | 10 |
| 2010-01-19T12:20 | 9817 | 296 | -30.3 | -32.3 | 120 | 11 |
| 2010-01-19T12:20 | 9845 | 295 | -30.4 | -32.5 | 120 | 11 |
| 2010-01-19T12:20 | 9875 | 294 | -30.7 | -32.5 | 119 | 11 |
| 2010-01-19T12:20 | 9903 | 293 | -30.9 | -32.9 | 119 | 11 |
| 2010-01-19T12:21 | 9930 | 292 | -31.1 | -33.2 | 119 | 11 |
| 2010-01-19T12:21 | 9957 | 291 | -31.3 | -33.3 | 119 | 11 |
| 2010-01-19T12:21 | 9984 | 289 | -31.5 | -33.5 | 120 | 11 |
| 2010-01-19T12:21 | 10011 | 288 | -31.8 | -33.7 | 120 | 11 |
| 2010-01-19T12:21 | 10039 | 287 | -32.0 | -34.0 | 121 | 11 |
| 2010-01-19T12:21 | 10065 | 286 | -32.3 | -34.2 | 122 | 11 |
| 2010-01-19T12:22 | 10092 | 285 | -32.5 | -34.4 | 123 | 11 |
| 2010-01-19T12:22 | 10117 | 284 | -32.7 | -34.7 | 124 | 10 |
| 2010-01-19T12:22 | 10142 | 283 | -32.9 | -35.0 | 125 | 10 |
| 2010-01-19T12:22 | 10168 | 282 | -33.1 | -35.2 | 125 | 10 |
| 2010-01-19T12:22 | 10193 | 281 | -33.3 | -35.5 | 125 | 10 |
| 2010-01-19T12:22 | 10217 | 280 | -33.5 | -36.4 | 125 | 10 |
| 2010-01-19T12:23 | 10242 | 279 | -33.8 | -36.4 | 123 | 10 |
| 2010-01-19T12:23 | 10269 | 278 | -33.9 | -36.6 | 121 | 10 |
| 2010-01-19T12:23 | 10294 | 277 | -34.1 | -37.2 | 120 | 10 |
| 2010-01-19T12:23 | 10319 | 276 | -34.3 | -37.3 | 119 | 11 |
| 2010-01-19T12:23 | 10344 | 275 | -34.6 | -37.5 | 119 | 11 |
| 2010-01-19T12:23 | 10366 | 274 | -34.8 | -37.5 | 118 | 11 |
| 2010-01-19T12:24 | 10390 | 273 | -35.0 | -38.0 | 117 | 11 |
| 2010-01-19T12:24 | 10415 | 272 | -35.2 | -37.9 | 116 | 11 |
| 2010-01-19T12:24 | 10437 | 271 | -35.4 | -38.1 | 115 | 11 |
| 2010-01-19T12:24 | 10458 | 271 | -35.6 | -38.4 | 115 | 12 |
| 2010-01-19T12:24 | 10479 | 270 | -35.8 | -38.6 | 116 | 12 |
| 2010-01-19T12:24 | 10501 | 269 | -35.9 | -38.9 | 117 | 12 |
| 2010-01-19T12:25 | 10524 | 268 | -36.1 | -39.0 | 117 | 13 |
| 2010-01-19T12:25 | 10546 | 267 | -36.2 | -39.7 | 117 | 13 |
| 2010-01-19T12:25 | 10567 | 266 | -36.4 | -39.8 | 116 | 14 |
| 2010-01-19T12:25 | 10589 | 266 | -36.5 | -39.9 | 115 | 14 |
| 2010-01-19T12:25 | 10610 | 265 | -36.8 | -40.0 | 115 | 14 |
| 2010-01-19T12:25 | 10633 | 264 | -37.0 | -40.2 | 116 | 14 |
| 2010-01-19T12:26 | 10655 | 263 | -37.1 | -40.4 | 116 | 14 |
| 2010-01-19T12:26 | 10678 | 262 | -37.3 | -40.5 | 117 | 14 |
| 2010-01-19T12:26 | 10702 | 261 | -37.5 | -41.1 | 117 | 14 |
| 2010-01-19T12:26 | 10726 | 260 | -37.7 | -40.9 | 117 | 14 |
| 2010-01-19T12:26 | 10750 | 259 | -37.9 | -41.0 | 117 | 14 |
| 2010-01-19T12:26 | 10775 | 258 | -38.1 | -41.2 | 117 | 15 |
| 2010-01-19T12:27 | 10800 | 258 | -38.3 | -41.4 | 117 | 15 |
| 2010-01-19T12:27 | 10826 | 257 | -38.5 | -41.6 | 117 | 15 |
| 2010-01-19T12:27 | 10851 | 256 | -38.8 | -41.8 | 117 | 15 |
| 2010-01-19T12:27 | 10877 | 255 | -39.0 | -42.7 | 116 | 15 |
| 2010-01-19T12:27 | 10904 | 254 | -39.2 | -42.5 | 116 | 16 |
| 2010-01-19T12:27 | 10930 | 253 | -39.4 | -42.7 | 115 | 17 |
| 2010-01-19T12:28 | 10955 | 252 | -39.6 | -42.9 | 115 | 17 |
| 2010-01-19T12:28 | 10980 | 251 | -39.8 | -43.1 | 115 | 18 |
| 2010-01-19T12:28 | 11005 | 250 | -39.9 | -43.2 | 116 | 18 |
| 2010-01-19T12:28 | 11031 | 249 | -40.1 | -43.4 | 116 | 19 |
| 2010-01-19T12:28 | 11058 | 248 | -40.3 | -43.6 | 116 | 19 |
| 2010-01-19T12:28 | 11083 | 247 | -40.5 | -43.9 | 116 | 20 |
| 2010-01-19T12:29 | 11110 | 246 | -40.7 | -44.0 | 115 | 20 |
| 2010-01-19T12:29 | 11137 | 245 | -40.8 | -44.2 | 115 | 21 |
| 2010-01-19T12:29 | 11164 | 244 | -41.0 | -44.4 | 114 | 21 |
| 2010-01-19T12:29 | 11190 | 243 | -41.2 | -44.6 | 114 | 21 |
| 2010-01-19T12:29 | 11218 | 242 | -41.5 | -44.9 | 114 | 21 |
| 2010-01-19T12:29 | 11245 | 241 | -41.7 | -45.1 | 114 | 21 |
| 2010-01-19T12:30 | 11273 | 240 | -42.0 | -45.3 | 114 | 21 |
| 2010-01-19T12:30 | 11300 | 239 | -42.2 | -45.6 | 114 | 21 |
| 2010-01-19T12:30 | 11328 | 238 | -42.5 | -45.7 | 114 | 21 |
| 2010-01-19T12:30 | 11357 | 237 | -42.7 | -45.9 | 114 | 21 |
| 2010-01-19T12:30 | 11387 | 236 | -43.0 | -46.2 | 115 | 21 |
| 2010-01-19T12:30 | 11416 | 235 | -43.2 | -46.4 | 115 | 22 |
| 2010-01-19T12:31 | 11445 | 234 | -43.5 | -46.8 | 116 | 22 |
| 2010-01-19T12:31 | 11475 | 233 | -43.8 | -47.0 | 116 | 22 |
| 2010-01-19T12:31 | 11505 | 232 | -44.0 | -47.2 | 117 | 22 |
| 2010-01-19T12:31 | 11535 | 231 | -44.3 | -47.4 | 118 | 22 |
| 2010-01-19T12:31 | 11565 | 230 | -44.6 | -47.7 | 119 | 22 |
| 2010-01-19T12:31 | 11593 | 229 | -44.8 | -48.0 | 120 | 22 |
| 2010-01-19T12:32 | 11622 | 228 | -45.0 | -48.3 | 121 | 22 |
| 2010-01-19T12:32 | 11651 | 227 | -45.2 | -48.5 | 121 | 22 |
| 2010-01-19T12:32 | 11679 | 226 | -45.4 | -48.6 | 122 | 22 |
| 2010-01-19T12:32 | 11708 | 225 | -45.7 | -48.9 | 122 | 23 |
| 2010-01-19T12:32 | 11738 | 224 | -45.9 | -49.1 | 122 | 23 |
| 2010-01-19T12:32 | 11766 | 223 | -46.2 | -49.2 | 122 | 23 |
| 2010-01-19T12:33 | 11794 | 222 | -46.5 | -49.3 | 122 | 23 |
| 2010-01-19T12:33 | 11822 | 221 | -46.7 | -49.5 | 122 | 23 |
| 2010-01-19T12:33 | 11851 | 220 | -46.9 | -49.8 | 122 | 23 |
| 2010-01-19T12:33 | 11879 | 219 | -47.2 | -50.0 | 122 | 23 |
| 2010-01-19T12:33 | 11908 | 218 | -47.5 | -50.3 | 121 | 22 |
| 2010-01-19T12:33 | 11937 | 218 | -47.7 | -50.7 | 121 | 22 |
| 2010-01-19T12:34 | 11965 | 217 | -48.0 | -51.0 | 120 | 22 |
| 2010-01-19T12:34 | 11993 | 216 | -48.2 | -51.3 | 120 | 22 |
| 2010-01-19T12:34 | 12019 | 215 | -48.5 | -51.4 | 120 | 22 |
| 2010-01-19T12:34 | 12046 | 214 | -48.7 | -51.7 | 120 | 22 |
| 2010-01-19T12:34 | 12073 | 213 | -49.0 | -51.9 | 120 | 21 |
| 2010-01-19T12:34 | 12099 | 212 | -49.2 | -52.2 | 120 | 21 |
| 2010-01-19T12:35 | 12124 | 211 | -49.5 | -52.3 | 120 | 21 |
| 2010-01-19T12:35 | 12151 | 211 | -49.7 | -52.3 | 119 | 21 |
| 2010-01-19T12:35 | 12178 | 210 | -50.0 | -52.7 | 119 | 22 |
| 2010-01-19T12:35 | 12205 | 209 | -50.3 | -53.1 | 118 | 21 |
| 2010-01-19T12:35 | 12229 | 208 | -50.5 | -53.4 | 117 | 21 |
| 2010-01-19T12:35 | 12255 | 207 | -50.7 | -53.5 | 117 | 21 |
| 2010-01-19T12:36 | 12283 | 206 | -51.0 | -53.7 | 117 | 21 |
| 2010-01-19T12:36 | 12308 | 206 | -51.3 | -53.8 | 115 | 21 |
| 2010-01-19T12:36 | 12335 | 205 | -51.5 | -54.0 | 114 | 21 |
| 2010-01-19T12:36 | 12363 | 204 | -51.7 | -54.3 | 113 | 21 |
| 2010-01-19T12:36 | 12390 | 203 | -52.0 | -54.7 | 112 | 20 |
| 2010-01-19T12:36 | 12418 | 202 | -52.2 | -55.1 | 111 | 20 |
| 2010-01-19T12:37 | 12445 | 201 | -52.5 | -55.5 | 110 | 20 |
| 2010-01-19T12:37 | 12472 | 200 | -52.7 | -55.8 | 109 | 20 |
| 2010-01-19T12:37 | 12497 | 200 | -53.0 | -56.0 | 109 | 20 |
| 2010-01-19T12:37 | 12525 | 199 | -53.2 | -56.2 | 108 | 21 |
| 2010-01-19T12:37 | 12552 | 198 | -53.5 | -56.3 | 107 | 21 |
| 2010-01-19T12:37 | 12577 | 197 | -53.7 | -56.5 | 106 | 20 |
| 2010-01-19T12:38 | 12604 | 196 | -54.0 | -56.6 | 105 | 21 |
| 2010-01-19T12:38 | 12633 | 195 | -54.2 | -56.8 | 105 | 21 |
| 2010-01-19T12:38 | 12660 | 195 | -54.4 | -56.9 | 104 | 21 |
| 2010-01-19T12:38 | 12688 | 194 | -54.7 | -57.1 | 104 | 22 |
| 2010-01-19T12:38 | 12717 | 193 | -54.9 | -57.3 | 103 | 22 |
| 2010-01-19T12:38 | 12745 | 192 | -55.1 | -57.5 | 103 | 22 |
| 2010-01-19T12:39 | 12771 | 191 | -55.3 | -57.8 | 102 | 22 |
| 2010-01-19T12:39 | 12800 | 190 | -55.6 | -58.0 | 102 | 22 |
| 2010-01-19T12:39 | 12828 | 190 | -55.8 | -58.3 | 102 | 21 |
| 2010-01-19T12:39 | 12854 | 189 | -56.0 | -58.7 | 102 | 21 |
| 2010-01-19T12:39 | 12881 | 188 | -56.2 | -58.9 | 101 | 21 |
| 2010-01-19T12:39 | 12908 | 187 | -56.3 | -59.2 | 101 | 21 |
| 2010-01-19T12:40 | 12934 | 186 | -56.6 | -59.5 | 100 | 21 |
| 2010-01-19T12:40 | 12960 | 186 | -56.8 | -59.7 | 100 | 21 |
| 2010-01-19T12:40 | 12986 | 185 | -57.0 | -60.0 | 100 | 21 |
| 2010-01-19T12:40 | 13013 | 184 | -57.3 | -60.3 | 100 | 21 |
| 2010-01-19T12:40 | 13039 | 183 | -57.5 | -60.5 | 100 | 22 |
| 2010-01-19T12:40 | 13065 | 183 | -57.6 | -60.6 | 99 | 22 |
| 2010-01-19T12:41 | 13092 | 182 | -57.8 | -60.8 | 99 | 22 |
| 2010-01-19T12:41 | 13119 | 181 | -58.0 | -61.0 | 99 | 21 |
| 2010-01-19T12:41 | 13145 | 180 | -58.3 | -61.3 | 98 | 21 |
| 2010-01-19T12:41 | 13170 | 180 | -58.5 | -61.6 | 98 | 22 |
| 2010-01-19T12:41 | 13198 | 179 | -58.8 | -61.8 | 98 | 22 |
| 2010-01-19T12:41 | 13224 | 178 | -59.0 | -62.1 | 98 | 23 |
| 2010-01-19T12:42 | 13250 | 177 | -59.2 | -62.3 | 98 | 23 |
| 2010-01-19T12:42 | 13277 | 177 | -59.4 | -62.6 | 98 | 23 |
| 2010-01-19T12:42 | 13303 | 176 | -59.6 | -62.9 | 98 | 23 |
| 2010-01-19T12:42 | 13330 | 175 | -59.9 | -63.2 | 98 | 24 |
| 2010-01-19T12:42 | 13356 | 174 | -60.1 | -63.4 | 98 | 24 |
| 2010-01-19T12:42 | 13382 | 174 | -60.4 | -63.7 | 97 | 24 |
| 2010-01-19T12:43 | 13408 | 173 | -60.6 | -64.0 | 97 | 24 |
| 2010-01-19T12:43 | 13436 | 172 | -60.9 | -64.2 | 97 | 24 |
| 2010-01-19T12:43 | 13463 | 171 | -61.2 | -64.4 | 97 | 24 |
| 2010-01-19T12:43 | 13487 | 171 | -61.4 | -64.7 | 96 | 24 |
| 2010-01-19T12:43 | 13513 | 170 | -61.6 | -64.9 | 96 | 25 |
| 2010-01-19T12:43 | 13538 | 169 | -61.9 | -65.1 | 96 | 25 |
| 2010-01-19T12:44 | 13564 | 169 | -62.1 | -65.3 | 95 | 25 |
| 2010-01-19T12:44 | 13585 | 168 | -62.3 | -65.7 | 94 | 25 |
| 2010-01-19T12:44 | 13608 | 167 | -62.5 | -66.0 | 94 | 25 |
| 2010-01-19T12:44 | 13632 | 167 | -62.8 | -66.4 | 94 | 25 |
| 2010-01-19T12:44 | 13657 | 166 | -63.0 | -66.7 | 94 | 25 |
| 2010-01-19T12:44 | 13683 | 165 | -63.3 | -67.0 | 93 | 26 |
| 2010-01-19T12:45 | 13704 | 165 | -63.5 | -67.3 | 93 | 26 |
| 2010-01-19T12:45 | 13725 | 164 | -63.7 | -67.6 | 93 | 26 |
| 2010-01-19T12:45 | 13746 | 164 | -63.9 | -67.9 | 93 | 26 |
| 2010-01-19T12:45 | 13765 | 163 | -64.1 | -68.1 | 93 | 26 |
| 2010-01-19T12:45 | 13784 | 163 | -64.3 | -68.3 | 93 | 26 |
| 2010-01-19T12:45 | 13804 | 162 | -64.5 | -68.6 | 93 | 26 |
| 2010-01-19T12:46 | 13825 | 162 | -64.7 | -68.8 | 93 | 27 |
| 2010-01-19T12:46 | 13845 | 161 | -64.8 | -68.9 | 93 | 27 |
| 2010-01-19T12:46 | 13864 | 161 | -65.0 | -69.1 | 93 | 27 |
| 2010-01-19T12:46 | 13887 | 160 | -65.2 | -69.3 | 93 | 27 |
| 2010-01-19T12:46 | 13909 | 159 | -65.4 | -69.5 | 93 | 27 |
| 2010-01-19T12:46 | 13933 | 159 | -65.6 | -69.7 | 93 | 27 |
| 2010-01-19T12:47 | 13955 | 158 | -65.8 | -69.8 | 93 | 27 |
| 2010-01-19T12:47 | 13979 | 158 | -65.8 | -69.9 | 93 | 27 |
| 2010-01-19T12:47 | 14001 | 157 | -66.0 | -70.0 | 94 | 27 |
| 2010-01-19T12:47 | 14025 | 156 | -66.2 | -70.2 | 94 | 27 |
| 2010-01-19T12:47 | 14048 | 156 | -66.5 | -70.4 | 94 | 27 |
| 2010-01-19T12:47 | 14071 | 155 | -66.6 | -70.6 | 94 | 27 |
| 2010-01-19T12:48 | 14094 | 155 | -66.8 | -70.8 | 94 | 27 |
| 2010-01-19T12:48 | 14116 | 154 | -67.0 | -71.0 | 94 | 27 |
| 2010-01-19T12:48 | 14138 | 153 | -67.2 | -71.2 | 94 | 27 |
| 2010-01-19T12:48 | 14161 | 153 | -67.4 | -71.3 | 94 | 27 |
| 2010-01-19T12:48 | 14183 | 152 | -67.6 | -71.5 | 94 | 28 |
| 2010-01-19T12:48 | 14206 | 152 | -67.8 | -71.7 | 94 | 28 |
| 2010-01-19T12:49 | 14228 | 151 | -68.0 | -71.9 | 94 | 28 |
| 2010-01-19T12:49 | 14251 | 151 | -68.2 | -72.1 | 94 | 28 |
| 2010-01-19T12:49 | 14273 | 150 | -68.4 | -72.2 | 93 | 28 |
| 2010-01-19T12:49 | 14295 | 150 | -68.5 | -72.4 | 93 | 28 |
| 2010-01-19T12:49 | 14316 | 149 | -68.7 | -72.5 | 93 | 28 |
| 2010-01-19T12:49 | 14338 | 148 | -68.8 | -72.7 | 93 | 29 |
| 2010-01-19T12:50 | 14360 | 148 | -69.0 | -72.8 | 93 | 29 |
| 2010-01-19T12:50 | 14383 | 147 | -69.2 | -73.0 | 94 | 29 |
| 2010-01-19T12:50 | 14405 | 147 | -69.4 | -73.2 | 94 | 30 |
| 2010-01-19T12:50 | 14427 | 146 | -69.5 | -73.3 | 94 | 30 |
| 2010-01-19T12:50 | 14449 | 146 | -69.8 | -73.5 | 95 | 30 |
| 2010-01-19T12:50 | 14471 | 145 | -69.9 | -73.7 | 95 | 30 |
| 2010-01-19T12:51 | 14493 | 145 | -70.1 | -73.9 | 95 | 30 |
| 2010-01-19T12:51 | 14515 | 144 | -70.3 | -74.1 | 95 | 30 |
| 2010-01-19T12:51 | 14537 | 144 | -70.5 | -74.3 | 95 | 30 |
| 2010-01-19T12:51 | 14559 | 143 | -70.7 | -74.5 | 95 | 30 |
| 2010-01-19T12:51 | 14581 | 142 | -70.9 | -74.7 | 95 | 30 |
| 2010-01-19T12:51 | 14604 | 142 | -71.1 | -74.9 | 95 | 30 |
| 2010-01-19T12:52 | 14626 | 141 | -71.3 | -75.1 | 95 | 29 |
| 2010-01-19T12:52 | 14649 | 141 | -71.5 | -75.3 | 95 | 29 |
| 2010-01-19T12:52 | 14670 | 140 | -71.7 | -75.5 | 95 | 29 |
| 2010-01-19T12:52 | 14693 | 140 | -71.9 | -75.8 | 95 | 29 |
| 2010-01-19T12:52 | 14715 | 139 | -72.1 | -76.0 | 95 | 29 |
| 2010-01-19T12:52 | 14738 | 139 | -72.3 | -76.2 | 95 | 30 |
| 2010-01-19T12:53 | 14761 | 138 | -72.5 | -76.4 | 95 | 30 |
| 2010-01-19T12:53 | 14784 | 138 | -72.7 | -76.6 | 96 | 30 |
| 2010-01-19T12:53 | 14806 | 137 | -72.9 | -76.8 | 96 | 30 |
| 2010-01-19T12:53 | 14830 | 137 | -73.2 | -77.0 | 96 | 30 |
| 2010-01-19T12:53 | 14853 | 136 | -73.4 | -77.2 | 96 | 30 |
| 2010-01-19T12:53 | 14877 | 136 | -73.6 | -77.4 | 96 | 30 |
| 2010-01-19T12:54 | 14899 | 135 | -73.8 | -77.6 | 96 | 29 |
| 2010-01-19T12:54 | 14922 | 134 | -74.0 | -77.8 | 96 | 29 |
| 2010-01-19T12:54 | 14945 | 134 | -74.2 | -78.1 | 96 | 29 |
| 2010-01-19T12:54 | 14966 | 133 | -74.4 | -78.3 | 96 | 29 |
| 2010-01-19T12:54 | 14989 | 133 | -74.7 | -78.5 | 96 | 29 |
| 2010-01-19T12:54 | 15012 | 132 | -74.8 | -78.7 | 96 | 29 |
| 2010-01-19T12:55 | 15034 | 132 | -75.0 | -78.9 | 97 | 29 |
| 2010-01-19T12:55 | 15056 | 131 | -75.2 | -79.1 | 97 | 29 |
| 2010-01-19T12:55 | 15078 | 131 | -75.5 | -79.3 | 96 | 29 |
| 2010-01-19T12:55 | 15102 | 130 | -75.7 | -79.5 | 97 | 29 |
| 2010-01-19T12:55 | 15125 | 130 | -75.9 | -79.7 | 97 | 29 |
| 2010-01-19T12:55 | 15147 | 129 | -76.1 | -79.9 | 97 | 29 |
| 2010-01-19T12:56 | 15171 | 129 | -76.3 | -80.1 | 97 | 29 |
| 2010-01-19T12:56 | 15194 | 128 | -76.5 | -80.3 | 97 | 29 |
| 2010-01-19T12:56 | 15218 | 128 | -76.7 | -80.5 | 96 | 28 |
| 2010-01-19T12:56 | 15241 | 127 | -76.9 | -80.7 | 96 | 28 |
| 2010-01-19T12:56 | 15266 | 127 | -77.1 | -80.9 | 97 | 28 |
| 2010-01-19T12:56 | 15290 | 126 | -77.3 | -81.2 | 96 | 29 |
| 2010-01-19T12:57 | 15314 | 126 | -77.6 | -81.4 | 96 | 29 |
| 2010-01-19T12:57 | 15339 | 125 | -77.7 | -81.5 | 96 | 29 |
| 2010-01-19T12:57 | 15364 | 125 | -77.9 | -81.7 | 95 | 29 |
| 2010-01-19T12:57 | 15388 | 124 | -78.1 | -81.9 | 95 | 30 |
| 2010-01-19T12:57 | 15414 | 123 | -78.3 | -82.1 | 94 | 30 |
| 2010-01-19T12:57 | 15438 | 123 | -78.4 | -82.2 | 94 | 31 |
| 2010-01-19T12:58 | 15463 | 122 | -78.6 | -82.4 | 94 | 31 |
| 2010-01-19T12:58 | 15487 | 122 | -78.8 | -82.6 | 94 | 32 |
| 2010-01-19T12:58 | 15512 | 121 | -79.0 | -82.8 | 94 | 32 |
| 2010-01-19T12:58 | 15537 | 121 | -79.2 | -83.0 | 94 | 32 |
| 2010-01-19T12:58 | 15561 | 120 | -79.4 | -83.3 | 94 | 32 |
| 2010-01-19T12:58 | 15585 | 120 | -79.7 | -83.5 | 94 | 32 |
| 2010-01-19T12:59 | 15609 | 119 | -79.9 | -83.7 | 94 | 33 |
| 2010-01-19T12:59 | 15632 | 119 | -80.1 | -83.9 | 94 | 33 |
| 2010-01-19T12:59 | 15653 | 118 | -80.3 | -84.1 | 94 | 33 |
| 2010-01-19T12:59 | 15675 | 118 | -80.5 | -84.3 | 94 | 33 |
| 2010-01-19T12:59 | 15696 | 117 | -80.7 | -84.5 | 94 | 34 |
| 2010-01-19T12:59 | 15716 | 117 | -80.9 | -84.6 | 95 | 34 |
| 2010-01-19T13:00 | 15738 | 117 | -81.1 | -84.8 | 95 | 34 |
| 2010-01-19T13:00 | 15758 | 116 | -81.3 | -85.0 | 96 | 35 |
| 2010-01-19T13:00 | 15778 | 116 | -81.5 | -85.2 | 96 | 35 |
| 2010-01-19T13:00 | 15797 | 115 | -81.6 | -85.3 | 96 | 35 |
| 2010-01-19T13:00 | 15819 | 115 | -81.8 | -85.5 | 96 | 35 |
| 2010-01-19T13:00 | 15840 | 114 | -82.0 | -85.7 | 97 | 36 |
| 2010-01-19T13:01 | 15862 | 114 | -82.2 | -85.9 | 97 | 36 |
| 2010-01-19T13:01 | 15883 | 114 | -82.4 | -86.1 | 97 | 36 |
| 2010-01-19T13:01 | 15904 | 113 | -82.6 | -86.2 | 97 | 36 |
| 2010-01-19T13:01 | 15926 | 113 | -82.7 | -86.4 | 98 | 36 |
| 2010-01-19T13:01 | 15946 | 112 | -82.9 | -86.6 | 98 | 37 |
| 2010-01-19T13:01 | 15966 | 112 | -83.1 | -86.7 | 98 | 37 |
| 2010-01-19T13:02 | 15983 | 112 | -83.2 | -86.9 | 97 | 38 |
| 2010-01-19T13:02 | 16002 | 111 | -83.3 | -87.0 | 97 | 38 |
| 2010-01-19T13:02 | 16020 | 111 | -83.5 | -87.2 | 98 | 38 |
| 2010-01-19T13:02 | 16038 | 110 | -83.6 | -87.3 | 98 | 39 |
| 2010-01-19T13:02 | 16057 | 110 | -83.8 | -87.5 | 98 | 39 |
| 2010-01-19T13:02 | 16077 | 110 | -83.9 | -87.6 | 98 | 39 |
| 2010-01-19T13:03 | 16097 | 109 | -83.9 | -87.7 | 97 | 40 |
| 2010-01-19T13:03 | 16119 | 109 | -83.7 | -87.5 | 95 | 40 |
| 2010-01-19T13:03 | 16141 | 108 | -83.3 | -87.1 | 93 | 39 |
| 2010-01-19T13:03 | 16166 | 108 | -83.1 | -87.0 | 92 | 39 |
| 2010-01-19T13:03 | 16189 | 108 | -83.2 | -87.1 | 91 | 39 |
| 2010-01-19T13:03 | 16211 | 107 | -83.3 | -87.3 | 91 | 39 |
| 2010-01-19T13:04 | 16232 | 107 | -83.4 | -87.4 | 91 | 38 |
| 2010-01-19T13:04 | 16251 | 106 | -83.5 | -87.5 | 90 | 38 |
| 2010-01-19T13:04 | 16271 | 106 | -83.6 | -87.7 | 90 | 38 |
| 2010-01-19T13:04 | 16293 | 106 | -83.8 | -87.9 | 89 | 38 |
| 2010-01-19T13:04 | 16310 | 105 | -83.9 | -88.1 | 89 | 38 |
| 2010-01-19T13:04 | 16330 | 105 | -84.1 | -88.3 | 89 | 38 |
| 2010-01-19T13:05 | 16354 | 104 | -84.3 | -88.5 | 88 | 38 |
| 2010-01-19T13:05 | 16381 | 104 | -84.6 | -88.8 | 87 | 39 |
| 2010-01-19T13:05 | 16407 | 103 | -84.8 | -89.1 | 86 | 38 |
| 2010-01-19T13:05 | 16435 | 103 | -85.1 | -89.3 | 86 | 38 |
| 2010-01-19T13:05 | 16460 | 102 | -85.3 | -89.5 | 86 | 38 |
| 2010-01-19T13:05 | 16486 | 102 | -85.5 | -89.8 | 85 | 39 |
| 2010-01-19T13:06 | 16510 | 101 | -85.8 | -90.0 | 85 | 39 |
| 2010-01-19T13:06 | 16532 | 101 | -86.0 | -90.2 | 85 | 39 |
| 2010-01-19T13:06 | 16552 | 101 | -86.1 | -90.4 | 85 | 39 |
| 2010-01-19T13:06 | 16572 | 100 | -86.3 | -90.6 | 85 | 39 |
| 2010-01-19T13:06 | 16591 | 100 | -86.4 | -90.7 | 85 | 40 |
| 2010-01-19T13:06 | 16611 | 100 | -86.6 | -90.9 | 85 | 40 |
| 2010-01-19T13:07 | 16632 | 99 | -86.8 | -91.1 | 85 | 40 |
| 2010-01-19T13:07 | 16653 | 99 | -86.9 | -91.2 | 85 | 39 |
| 2010-01-19T13:07 | 16676 | 98 | -86.9 | -91.2 | 84 | 37 |
| 2010-01-19T13:07 | 16702 | 98 | -84.8 | -89.2 | 83 | 34 |
| 2010-01-19T13:07 | 16734 | 97 | -81.9 | -86.6 | 82 | 30 |
| 2010-01-19T13:07 | 16765 | 97 | -79.0 | -83.8 | 81 | 26 |
| 2010-01-19T13:08 | 16800 | 96 | -78.9 | -83.7 | 80 | 24 |
| 2010-01-19T13:08 | 16827 | 96 | -78.6 | -83.5 | 79 | 22 |
| 2010-01-19T13:08 | 16860 | 95 | -78.0 | -83.0 | 79 | 20 |
| 2010-01-19T13:08 | 16889 | 95 | -77.7 | -82.9 | 80 | 18 |
| 2010-01-19T13:08 | 16918 | 94 | -76.7 | -82.1 | 83 | 16 |
| 2010-01-19T13:08 | 16945 | 94 | -76.1 | -81.6 | 87 | 14 |
| 2010-01-19T13:09 | 16974 | 93 | -75.3 | -81.0 | 90 | 12 |
| 2010-01-19T13:09 | 16992 | 93 | -75.3 | -81.1 | 92 | 11 |
| 2010-01-19T13:09 | 17011 | 93 | -75.2 | -81.2 | 96 | 10 |
| 2010-01-19T13:09 | 17032 | 92 | -75.0 | -81.1 | 100 | 10 |
| 2010-01-19T13:09 | 17058 | 92 | -75.0 | -81.2 | 104 | 10 |
| 2010-01-19T13:09 | 17079 | 92 | -75.1 | -81.5 | 106 | 9 |
| 2010-01-19T13:10 | 17098 | 91 | -75.2 | -81.7 | 107 | 9 |
| 2010-01-19T13:10 | 17117 | 91 | -75.3 | -81.9 | 109 | 9 |
| 2010-01-19T13:10 | 17136 | 91 | -75.5 | -82.3 | 113 | 8 |
| 2010-01-19T13:10 | 17157 | 90 | -75.7 | -82.6 | 118 | 7 |
| 2010-01-19T13:10 | 17179 | 90 | -75.8 | -82.8 | 122 | 7 |
| 2010-01-19T13:10 | 17203 | 90 | -75.9 | -83.0 | 125 | 7 |
| 2010-01-19T13:11 | 17226 | 89 | -76.1 | -83.3 | 129 | 7 |
| 2010-01-19T13:11 | 17250 | 89 | -76.3 | -83.6 | 133 | 7 |
| 2010-01-19T13:11 | 17272 | 89 | -76.4 | -83.8 | 138 | 7 |
| 2010-01-19T13:11 | 17296 | 88 | -76.6 | -84.1 | 142 | 7 |
| 2010-01-19T13:11 | 17320 | 88 | -76.8 | -84.3 | 145 | 7 |
| 2010-01-19T13:11 | 17340 | 88 | -77.0 | -84.5 | 148 | 7 |
| 2010-01-19T13:12 | 17361 | 87 | -77.2 | -84.7 | 150 | 7 |
| 2010-01-19T13:12 | 17383 | 87 | -77.3 | -84.8 | 153 | 8 |
| 2010-01-19T13:12 | 17404 | 87 | -77.4 | -85.0 | 156 | 8 |
| 2010-01-19T13:12 | 17425 | 86 | -77.4 | -85.1 | 157 | 9 |
| 2010-01-19T13:12 | 17446 | 86 | -77.2 | -84.9 | 158 | 9 |
| 2010-01-19T13:12 | 17466 | 86 | -77.1 | -84.9 | 162 | 8 |
| 2010-01-19T13:13 | 17486 | 85 | -77.0 | -84.8 | 168 | 7 |
| 2010-01-19T13:13 | 17506 | 85 | -76.5 | -84.4 | 174 | 5 |
| 2010-01-19T13:13 | 17527 | 85 | -75.8 | -83.9 | 182 | 4 |
| 2010-01-19T13:13 | 17545 | 85 | -75.5 | -83.6 | 194 | 4 |
| 2010-01-19T13:13 | 17566 | 84 | -75.3 | -83.5 | 208 | 4 |
| 2010-01-19T13:13 | 17585 | 84 | -75.2 | -83.4 | 224 | 4 |
| 2010-01-19T13:14 | 17605 | 84 | -74.9 | -83.3 | 237 | 4 |
| 2010-01-19T13:14 | 17624 | 83 | -74.8 | -83.2 | 244 | 5 |
| 2010-01-19T13:14 | 17641 | 83 | -74.7 | -83.1 | 250 | 6 |
| 2010-01-19T13:14 | 17660 | 83 | -74.5 | -83.1 | 254 | 7 |
| 2010-01-19T13:14 | 17679 | 83 | -74.3 | -83.0 | 257 | 8 |
| 2010-01-19T13:14 | 17697 | 82 | -74.3 | -83.1 | 259 | 8 |
| 2010-01-19T13:15 | 17716 | 82 | -74.4 | -83.1 | 260 | 9 |
| 2010-01-19T13:15 | 17736 | 82 | -74.4 | -83.2 | 261 | 9 |
| 2010-01-19T13:15 | 17755 | 82 | -74.4 | -83.3 | 260 | 9 |
| 2010-01-19T13:15 | 17773 | 81 | -74.5 | -83.4 | 259 | 9 |
| 2010-01-19T13:15 | 17792 | 81 | -74.5 | -83.4 | 258 | 8 |
| 2010-01-19T13:15 | 17810 | 81 | -74.4 | -83.3 | 256 | 8 |
| 2010-01-19T13:16 | 17830 | 81 | -74.3 | -83.3 | 253 | 8 |
| 2010-01-19T13:16 | 17849 | 80 | -74.2 | -83.2 | 251 | 9 |
| 2010-01-19T13:16 | 17867 | 80 | -73.9 | -82.9 | 252 | 9 |
| 2010-01-19T13:16 | 17887 | 80 | -73.7 | -82.9 | 253 | 11 |
| 2010-01-19T13:16 | 17905 | 80 | -73.2 | -82.5 | 252 | 11 |
| 2010-01-19T13:16 | 17925 | 79 | -72.9 | -82.3 | 251 | 12 |
| 2010-01-19T13:17 | 17943 | 79 | -72.8 | -82.3 | 251 | 13 |
| 2010-01-19T13:17 | 17962 | 79 | -72.8 | -82.3 | 252 | 13 |
| 2010-01-19T13:17 | 17980 | 78 | -72.8 | -82.4 | 252 | 14 |
| 2010-01-19T13:17 | 17999 | 78 | -72.8 | -82.4 | 252 | 14 |
| 2010-01-19T13:17 | 18017 | 78 | -72.8 | -82.5 | 251 | 14 |
| 2010-01-19T13:17 | 18038 | 78 | -72.9 | -82.6 | 250 | 14 |
| 2010-01-19T13:18 | 18057 | 77 | -73.0 | -82.7 | 249 | 14 |
| 2010-01-19T13:18 | 18075 | 77 | -73.1 | -82.8 | 249 | 14 |
| 2010-01-19T13:18 | 18096 | 77 | -73.3 | -83.1 | 250 | 14 |
| 2010-01-19T13:18 | 18115 | 77 | -73.2 | -83.2 | 251 | 13 |
| 2010-01-19T13:18 | 18133 | 76 | -73.2 | -83.3 | 252 | 12 |
| 2010-01-19T13:18 | 18152 | 76 | -73.1 | -83.3 | 253 | 11 |
| 2010-01-19T13:19 | 18172 | 76 | -73.0 | -83.2 | 253 | 11 |
| 2010-01-19T13:19 | 18191 | 76 | -72.7 | -83.0 | 252 | 10 |
| 2010-01-19T13:19 | 18211 | 75 | -72.7 | -82.9 | 250 | 10 |
| 2010-01-19T13:19 | 18230 | 75 | -72.6 | -82.8 | 249 | 10 |
| 2010-01-19T13:19 | 18250 | 75 | -72.7 | -82.9 | 248 | 10 |
| 2010-01-19T13:19 | 18270 | 75 | -72.7 | -83.0 | 246 | 10 |
| 2010-01-19T13:20 | 18289 | 74 | -72.4 | -82.9 | 246 | 11 |
| 2010-01-19T13:20 | 18310 | 74 | -72.3 | -82.8 | 247 | 11 |
| 2010-01-19T13:20 | 18332 | 74 | -72.2 | -82.9 | 247 | 11 |
| 2010-01-19T13:20 | 18353 | 74 | -72.2 | -82.8 | 248 | 11 |
| 2010-01-19T13:20 | 18374 | 73 | -72.2 | -82.9 | 247 | 11 |
| 2010-01-19T13:20 | 18393 | 73 | -72.2 | -83.0 | 247 | 11 |
| 2010-01-19T13:21 | 18412 | 73 | -72.2 | -83.2 | 247 | 11 |
| 2010-01-19T13:21 | 18429 | 73 | -72.1 | -83.2 | 249 | 12 |
| 2010-01-19T13:21 | 18446 | 73 | -71.5 | -82.8 | 251 | 12 |
| 2010-01-19T13:21 | 18463 | 72 | -71.0 | -82.5 | 253 | 13 |
| 2010-01-19T13:21 | 18481 | 72 | -71.0 | -82.5 | 255 | 13 |
| 2010-01-19T13:21 | 18498 | 72 | -70.8 | -82.6 | 258 | 13 |
| 2010-01-19T13:22 | 18517 | 72 | -70.9 | -82.8 | 261 | 14 |
| 2010-01-19T13:22 | 18534 | 71 | -70.8 | -82.9 | 264 | 14 |
| 2010-01-19T13:22 | 18552 | 71 | -70.6 | -82.9 | 266 | 14 |
| 2010-01-19T13:22 | 18569 | 71 | -70.1 | -82.8 | 265 | 14 |
| 2010-01-19T13:22 | 18588 | 71 | -69.7 | -82.7 | 264 | 15 |
| 2010-01-19T13:22 | 18604 | 71 | -69.1 | -82.4 | 262 | 16 |
| 2010-01-19T13:23 | 18622 | 70 | -68.9 | -82.5 | 260 | 17 |
| 2010-01-19T13:23 | 18639 | 70 | -68.8 | -82.6 | 258 | 17 |
| 2010-01-19T13:23 | 18655 | 70 | -68.9 | -82.9 | 257 | 18 |
| 2010-01-19T13:23 | 18672 | 70 | -68.9 | -83.2 | 257 | 18 |
| 2010-01-19T13:23 | 18689 | 70 | -69.0 | -83.6 | 258 | 19 |
| 2010-01-19T13:23 | 18706 | 69 | -69.1 | -83.9 | 260 | 19 |
| 2010-01-19T13:24 | 18723 | 69 | -69.0 | -84.0 | 262 | 19 |
| 2010-01-19T13:24 | 18741 | 69 | -68.9 | -84.2 | 264 | 19 |
| 2010-01-19T13:24 | 18758 | 69 | -69.1 | -84.4 | 266 | 19 |
| 2010-01-19T13:24 | 18776 | 69 | -69.1 | -84.6 | 267 | 19 |
| 2010-01-19T23:50 | 4 | 1009 | 30.4 | 25.0 | 320 | 6 |
| 2010-01-19T23:50 | 14 | 1008 | 28.9 | 23.6 | 329 | 4 |
| 2010-01-19T23:50 | 25 | 1007 | 28.7 | 23.8 | 329 | 4 |
| 2010-01-19T23:50 | 37 | 1005 | 28.6 | 23.9 | 328 | 4 |
| 2010-01-19T23:50 | 50 | 1004 | 28.5 | 24.0 | 326 | 5 |
| 2010-01-19T23:50 | 62 | 1003 | 28.3 | 23.9 | 325 | 5 |
| 2010-01-19T23:50 | 73 | 1001 | 28.0 | 23.6 | 324 | 6 |
| 2010-01-19T23:50 | 84 | 1000 | 27.8 | 23.6 | 322 | 6 |
| 2010-01-19T23:50 | 95 | 999 | 27.7 | 23.7 | 320 | 6 |
| 2010-01-19T23:50 | 105 | 998 | 27.6 | 23.7 | 319 | 7 |
| 2010-01-19T23:50 | 116 | 996 | 27.5 | 23.8 | 317 | 7 |
| 2010-01-19T23:50 | 127 | 995 | 27.5 | 23.8 | 315 | 7 |
| 2010-01-19T23:50 | 137 | 994 | 27.4 | 23.8 | 314 | 7 |
| 2010-01-19T23:50 | 147 | 993 | 27.3 | 23.9 | 312 | 7 |
| 2010-01-19T23:50 | 157 | 992 | 27.2 | 23.9 | 311 | 7 |
| 2010-01-19T23:50 | 167 | 991 | 27.1 | 23.9 | 310 | 8 |
| 2010-01-19T23:50 | 177 | 990 | 27.0 | 24.0 | 310 | 8 |
| 2010-01-19T23:50 | 189 | 988 | 26.9 | 24.0 | 309 | 8 |
| 2010-01-19T23:50 | 200 | 987 | 26.7 | 23.8 | 309 | 8 |
| 2010-01-19T23:50 | 211 | 986 | 26.6 | 23.5 | 309 | 8 |
| 2010-01-19T23:50 | 222 | 985 | 26.5 | 23.4 | 309 | 8 |
| 2010-01-19T23:50 | 233 | 983 | 26.4 | 23.5 | 310 | 8 |
| 2010-01-19T23:50 | 245 | 982 | 26.3 | 23.5 | 310 | 8 |
| 2010-01-19T23:50 | 257 | 981 | 26.1 | 23.3 | 310 | 8 |
| 2010-01-19T23:50 | 269 | 979 | 26.0 | 23.3 | 310 | 8 |
| 2010-01-19T23:50 | 280 | 978 | 25.9 | 23.4 | 311 | 8 |
| 2010-01-19T23:50 | 292 | 977 | 25.8 | 23.3 | 311 | 8 |
| 2010-01-19T23:50 | 305 | 975 | 25.7 | 23.3 | 311 | 8 |
| 2010-01-19T23:50 | 318 | 974 | 25.5 | 23.4 | 312 | 8 |
| 2010-01-19T23:50 | 330 | 973 | 25.4 | 23.4 | 312 | 8 |
| 2010-01-19T23:51 | 343 | 971 | 25.3 | 23.4 | 313 | 8 |
| 2010-01-19T23:51 | 357 | 970 | 25.2 | 23.4 | 313 | 8 |
| 2010-01-19T23:51 | 371 | 968 | 25.0 | 23.4 | 314 | 7 |
| 2010-01-19T23:51 | 385 | 967 | 24.9 | 23.3 | 314 | 7 |
| 2010-01-19T23:51 | 400 | 965 | 24.7 | 23.2 | 315 | 7 |
| 2010-01-19T23:51 | 413 | 964 | 24.6 | 23.2 | 315 | 7 |
| 2010-01-19T23:51 | 425 | 962 | 24.5 | 23.2 | 315 | 7 |
| 2010-01-19T23:51 | 436 | 961 | 24.4 | 23.1 | 316 | 7 |
| 2010-01-19T23:51 | 448 | 960 | 24.3 | 23.1 | 316 | 7 |
| 2010-01-19T23:51 | 460 | 958 | 24.1 | 23.1 | 316 | 7 |
| 2010-01-19T23:51 | 471 | 957 | 24.0 | 23.0 | 316 | 8 |
| 2010-01-19T23:51 | 482 | 956 | 24.0 | 23.0 | 316 | 8 |
| 2010-01-19T23:51 | 492 | 955 | 23.9 | 23.0 | 316 | 8 |
| 2010-01-19T23:51 | 503 | 954 | 23.8 | 22.9 | 317 | 8 |
| 2010-01-19T23:51 | 515 | 952 | 23.6 | 22.9 | 317 | 8 |
| 2010-01-19T23:51 | 527 | 951 | 23.5 | 22.9 | 317 | 8 |
| 2010-01-19T23:51 | 539 | 950 | 23.4 | 22.9 | 317 | 8 |
| 2010-01-19T23:51 | 551 | 949 | 23.3 | 22.8 | 317 | 8 |
| 2010-01-19T23:51 | 563 | 947 | 23.2 | 22.8 | 317 | 9 |
| 2010-01-19T23:51 | 575 | 946 | 23.1 | 22.8 | 317 | 9 |
| 2010-01-19T23:51 | 588 | 945 | 23.1 | 22.7 | 317 | 9 |
| 2010-01-19T23:51 | 599 | 943 | 23.0 | 22.7 | 317 | 9 |
| 2010-01-19T23:51 | 610 | 942 | 22.9 | 22.6 | 317 | 9 |
| 2010-01-19T23:51 | 622 | 941 | 22.9 | 22.6 | 317 | 9 |
| 2010-01-19T23:51 | 633 | 940 | 22.8 | 22.4 | 316 | 9 |
| 2010-01-19T23:51 | 644 | 939 | 22.7 | 22.0 | 316 | 9 |
| 2010-01-19T23:51 | 654 | 937 | 22.7 | 21.7 | 316 | 9 |
| 2010-01-19T23:51 | 666 | 936 | 22.6 | 21.6 | 315 | 10 |
| 2010-01-19T23:51 | 678 | 935 | 22.4 | 21.6 | 315 | 10 |
| 2010-01-19T23:51 | 690 | 934 | 22.3 | 21.5 | 314 | 10 |
| 2010-01-19T23:52 | 701 | 932 | 22.3 | 21.5 | 314 | 10 |
| 2010-01-19T23:52 | 712 | 931 | 22.1 | 21.4 | 313 | 10 |
| 2010-01-19T23:52 | 723 | 930 | 22.0 | 21.4 | 313 | 10 |
| 2010-01-19T23:52 | 733 | 929 | 22.0 | 21.3 | 313 | 10 |
| 2010-01-19T23:52 | 743 | 928 | 21.9 | 21.2 | 313 | 10 |
| 2010-01-19T23:52 | 754 | 927 | 21.9 | 21.1 | 313 | 10 |
| 2010-01-19T23:52 | 764 | 926 | 21.8 | 21.0 | 313 | 10 |
| 2010-01-19T23:52 | 774 | 925 | 21.9 | 20.9 | 313 | 10 |
| 2010-01-19T23:52 | 784 | 924 | 21.8 | 21.0 | 314 | 10 |
| 2010-01-19T23:52 | 797 | 922 | 21.8 | 21.0 | 314 | 10 |
| 2010-01-19T23:52 | 809 | 921 | 21.7 | 20.9 | 315 | 10 |
| 2010-01-19T23:52 | 820 | 920 | 21.8 | 20.8 | 315 | 10 |
| 2010-01-19T23:52 | 832 | 919 | 21.7 | 20.7 | 315 | 10 |
| 2010-01-19T23:52 | 844 | 917 | 21.6 | 20.6 | 316 | 10 |
| 2010-01-19T23:52 | 855 | 916 | 21.6 | 20.5 | 316 | 10 |
| 2010-01-19T23:52 | 867 | 915 | 21.7 | 20.3 | 316 | 10 |
| 2010-01-19T23:52 | 879 | 914 | 21.8 | 20.1 | 316 | 10 |
| 2010-01-19T23:52 | 889 | 913 | 21.7 | 20.0 | 316 | 10 |
| 2010-01-19T23:52 | 898 | 912 | 21.6 | 19.9 | 315 | 10 |
| 2010-01-19T23:52 | 906 | 911 | 21.5 | 19.9 | 315 | 10 |
| 2010-01-19T23:52 | 916 | 910 | 21.3 | 19.8 | 314 | 10 |
| 2010-01-19T23:52 | 927 | 909 | 21.2 | 19.7 | 314 | 10 |
| 2010-01-19T23:52 | 936 | 908 | 21.3 | 19.6 | 313 | 10 |
| 2010-01-19T23:52 | 944 | 907 | 21.4 | 19.5 | 313 | 10 |
| 2010-01-19T23:52 | 952 | 906 | 21.3 | 19.4 | 313 | 10 |
| 2010-01-19T23:52 | 961 | 905 | 21.3 | 19.5 | 312 | 10 |
| 2010-01-19T23:52 | 969 | 904 | 21.1 | 19.5 | 312 | 10 |
| 2010-01-19T23:52 | 976 | 903 | 21.0 | 19.5 | 311 | 10 |
| 2010-01-19T23:52 | 986 | 902 | 20.9 | 19.5 | 311 | 10 |
| 2010-01-19T23:52 | 996 | 901 | 20.8 | 19.5 | 311 | 10 |
| 2010-01-19T23:53 | 1006 | 900 | 20.8 | 19.4 | 310 | 10 |
| 2010-01-19T23:53 | 1016 | 899 | 20.7 | 19.3 | 310 | 10 |
| 2010-01-19T23:53 | 1026 | 898 | 20.7 | 19.2 | 309 | 10 |
| 2010-01-19T23:53 | 1034 | 897 | 20.6 | 19.2 | 309 | 10 |
| 2010-01-19T23:53 | 1044 | 896 | 20.6 | 19.2 | 308 | 10 |
| 2010-01-19T23:53 | 1055 | 895 | 20.5 | 19.1 | 308 | 10 |
| 2010-01-19T23:53 | 1065 | 894 | 20.4 | 19.0 | 307 | 10 |
| 2010-01-19T23:53 | 1075 | 893 | 20.4 | 18.9 | 307 | 10 |
| 2010-01-19T23:53 | 1084 | 892 | 20.3 | 18.9 | 306 | 10 |
| 2010-01-19T23:53 | 1095 | 891 | 20.2 | 18.8 | 306 | 10 |
| 2010-01-19T23:53 | 1106 | 890 | 20.2 | 18.8 | 305 | 11 |
| 2010-01-19T23:53 | 1117 | 889 | 20.2 | 18.7 | 305 | 11 |
| 2010-01-19T23:53 | 1128 | 888 | 20.2 | 18.7 | 304 | 11 |
| 2010-01-19T23:53 | 1138 | 887 | 20.2 | 18.6 | 304 | 11 |
| 2010-01-19T23:53 | 1150 | 886 | 20.1 | 18.5 | 304 | 11 |
| 2010-01-19T23:53 | 1159 | 885 | 20.2 | 18.5 | 303 | 11 |
| 2010-01-19T23:53 | 1170 | 884 | 20.1 | 18.3 | 303 | 11 |
| 2010-01-19T23:53 | 1183 | 882 | 20.1 | 18.1 | 302 | 11 |
| 2010-01-19T23:53 | 1195 | 881 | 20.1 | 17.8 | 302 | 11 |
| 2010-01-19T23:53 | 1206 | 880 | 20.1 | 17.5 | 301 | 11 |
| 2010-01-19T23:53 | 1217 | 879 | 20.1 | 17.4 | 301 | 11 |
| 2010-01-19T23:53 | 1228 | 878 | 20.0 | 17.3 | 301 | 11 |
| 2010-01-19T23:53 | 1240 | 876 | 20.0 | 17.2 | 300 | 11 |
| 2010-01-19T23:53 | 1252 | 875 | 19.9 | 17.3 | 300 | 11 |
| 2010-01-19T23:53 | 1264 | 874 | 19.9 | 17.3 | 299 | 11 |
| 2010-01-19T23:53 | 1276 | 873 | 19.8 | 17.2 | 299 | 11 |
| 2010-01-19T23:53 | 1288 | 872 | 19.7 | 17.2 | 299 | 11 |
| 2010-01-19T23:53 | 1299 | 870 | 19.6 | 17.1 | 298 | 11 |
| 2010-01-19T23:53 | 1310 | 869 | 19.5 | 17.1 | 298 | 11 |
| 2010-01-19T23:53 | 1319 | 868 | 19.5 | 17.0 | 298 | 11 |
| 2010-01-19T23:54 | 1329 | 867 | 19.4 | 17.0 | 298 | 11 |
| 2010-01-19T23:54 | 1340 | 866 | 19.3 | 17.0 | 297 | 11 |
| 2010-01-19T23:54 | 1352 | 865 | 19.3 | 17.0 | 297 | 11 |
| 2010-01-19T23:54 | 1362 | 864 | 19.3 | 17.0 | 297 | 11 |
| 2010-01-19T23:54 | 1373 | 863 | 19.3 | 16.9 | 297 | 11 |
| 2010-01-19T23:54 | 1384 | 862 | 19.2 | 16.9 | 296 | 11 |
| 2010-01-19T23:54 | 1394 | 861 | 19.1 | 16.9 | 296 | 11 |
| 2010-01-19T23:54 | 1405 | 860 | 19.0 | 16.8 | 296 | 11 |
| 2010-01-19T23:54 | 1413 | 859 | 19.0 | 16.8 | 295 | 11 |
| 2010-01-19T23:54 | 1421 | 858 | 18.9 | 16.7 | 295 | 11 |
| 2010-01-19T23:54 | 1429 | 857 | 18.8 | 16.7 | 294 | 11 |
| 2010-01-19T23:54 | 1439 | 856 | 18.7 | 16.7 | 294 | 11 |
| 2010-01-19T23:54 | 1451 | 855 | 18.6 | 16.7 | 293 | 11 |
| 2010-01-19T23:54 | 1463 | 854 | 18.5 | 16.6 | 292 | 12 |
| 2010-01-19T23:54 | 1473 | 853 | 18.5 | 16.4 | 292 | 12 |
| 2010-01-19T23:54 | 1484 | 852 | 18.6 | 16.1 | 291 | 12 |
| 2010-01-19T23:54 | 1496 | 851 | 18.6 | 16.0 | 290 | 12 |
| 2010-01-19T23:54 | 1508 | 850 | 18.5 | 15.9 | 290 | 12 |
| 2010-01-19T23:54 | 1519 | 849 | 18.4 | 15.8 | 289 | 12 |
| 2010-01-19T23:54 | 1530 | 847 | 18.3 | 15.8 | 288 | 12 |
| 2010-01-19T23:54 | 1542 | 846 | 18.1 | 15.7 | 288 | 12 |
| 2010-01-19T23:54 | 1553 | 845 | 18.2 | 15.5 | 287 | 12 |
| 2010-01-19T23:54 | 1564 | 844 | 18.3 | 15.4 | 287 | 12 |
| 2010-01-19T23:54 | 1575 | 843 | 18.3 | 15.2 | 286 | 11 |
| 2010-01-19T23:54 | 1585 | 842 | 18.3 | 14.9 | 286 | 11 |
| 2010-01-19T23:54 | 1596 | 841 | 18.3 | 14.6 | 286 | 11 |
| 2010-01-19T23:54 | 1606 | 840 | 18.3 | 14.4 | 285 | 11 |
| 2010-01-19T23:54 | 1615 | 839 | 18.3 | 14.1 | 285 | 11 |
| 2010-01-19T23:54 | 1625 | 838 | 18.3 | 13.8 | 285 | 11 |
| 2010-01-19T23:54 | 1636 | 837 | 18.4 | 13.6 | 285 | 11 |
| 2010-01-19T23:55 | 1645 | 836 | 18.4 | 13.6 | 285 | 11 |
| 2010-01-19T23:55 | 1656 | 835 | 18.4 | 13.4 | 285 | 11 |
| 2010-01-19T23:55 | 1667 | 834 | 18.4 | 13.1 | 285 | 11 |
| 2010-01-19T23:55 | 1677 | 833 | 18.3 | 12.9 | 285 | 11 |
| 2010-01-19T23:55 | 1688 | 832 | 18.3 | 12.7 | 285 | 11 |
| 2010-01-19T23:55 | 1698 | 831 | 18.2 | 12.5 | 285 | 11 |
| 2010-01-19T23:55 | 1710 | 830 | 18.2 | 12.4 | 285 | 10 |
| 2010-01-19T23:55 | 1721 | 829 | 18.1 | 12.5 | 285 | 10 |
| 2010-01-19T23:55 | 1732 | 828 | 18.0 | 12.6 | 285 | 10 |
| 2010-01-19T23:55 | 1742 | 827 | 17.9 | 12.7 | 285 | 10 |
| 2010-01-19T23:55 | 1753 | 826 | 17.9 | 12.7 | 284 | 10 |
| 2010-01-19T23:55 | 1763 | 825 | 17.8 | 12.6 | 284 | 10 |
| 2010-01-19T23:55 | 1773 | 824 | 17.7 | 12.5 | 284 | 10 |
| 2010-01-19T23:55 | 1784 | 823 | 17.6 | 12.3 | 284 | 11 |
| 2010-01-19T23:55 | 1796 | 822 | 17.5 | 12.2 | 283 | 11 |
| 2010-01-19T23:55 | 1807 | 821 | 17.5 | 12.2 | 283 | 11 |
| 2010-01-19T23:55 | 1818 | 820 | 17.4 | 12.2 | 282 | 11 |
| 2010-01-19T23:55 | 1828 | 819 | 17.3 | 12.1 | 282 | 11 |
| 2010-01-19T23:55 | 1838 | 818 | 17.2 | 12.1 | 281 | 11 |
| 2010-01-19T23:55 | 1850 | 816 | 17.1 | 12.1 | 281 | 11 |
| 2010-01-19T23:55 | 1860 | 815 | 17.1 | 12.3 | 280 | 11 |
| 2010-01-19T23:55 | 1871 | 814 | 17.0 | 12.4 | 279 | 11 |
| 2010-01-19T23:55 | 1883 | 813 | 16.9 | 12.4 | 279 | 11 |
| 2010-01-19T23:55 | 1895 | 812 | 16.9 | 12.5 | 278 | 11 |
| 2010-01-19T23:55 | 1906 | 811 | 16.8 | 12.5 | 277 | 11 |
| 2010-01-19T23:55 | 1916 | 810 | 16.7 | 12.6 | 277 | 11 |
| 2010-01-19T23:55 | 1925 | 809 | 16.6 | 12.6 | 276 | 11 |
| 2010-01-19T23:55 | 1936 | 808 | 16.5 | 12.6 | 276 | 11 |
| 2010-01-19T23:55 | 1948 | 807 | 16.4 | 12.7 | 275 | 11 |
| 2010-01-19T23:55 | 1958 | 806 | 16.3 | 12.9 | 275 | 11 |
| 2010-01-19T23:56 | 1968 | 805 | 16.3 | 12.9 | 275 | 11 |
| 2010-01-19T23:56 | 1978 | 804 | 16.2 | 12.9 | 274 | 11 |
| 2010-01-19T23:56 | 1989 | 803 | 16.1 | 12.9 | 274 | 11 |
| 2010-01-19T23:56 | 2000 | 802 | 16.0 | 12.8 | 274 | 11 |
| 2010-01-19T23:56 | 2023 | 800 | 15.8 | 12.8 | 274 | 11 |
| 2010-01-19T23:56 | 2076 | 795 | 15.3 | 12.7 | 273 | 11 |
| 2010-01-19T23:56 | 2135 | 790 | 14.9 | 12.5 | 273 | 11 |
| 2010-01-19T23:56 | 2193 | 784 | 15.0 | 12.3 | 272 | 11 |
| 2010-01-19T23:56 | 2251 | 779 | 14.8 | 11.8 | 270 | 11 |
| 2010-01-19T23:57 | 2304 | 774 | 14.6 | 11.4 | 268 | 11 |
| 2010-01-19T23:57 | 2357 | 769 | 14.4 | 11.3 | 266 | 11 |
| 2010-01-19T23:57 | 2411 | 764 | 14.4 | 9.3 | 264 | 11 |
| 2010-01-19T23:57 | 2465 | 759 | 14.0 | 9.4 | 264 | 12 |
| 2010-01-19T23:57 | 2516 | 755 | 13.9 | 8.7 | 265 | 12 |
| 2010-01-19T23:57 | 2570 | 750 | 13.9 | 8.8 | 266 | 13 |
| 2010-01-19T23:58 | 2623 | 745 | 13.9 | 7.7 | 267 | 12 |
| 2010-01-19T23:58 | 2673 | 741 | 13.5 | 7.6 | 267 | 12 |
| 2010-01-19T23:58 | 2721 | 737 | 13.1 | 7.3 | 267 | 12 |
| 2010-01-19T23:58 | 2775 | 732 | 12.9 | 7.1 | 269 | 13 |
| 2010-01-19T23:58 | 2823 | 728 | 12.8 | 6.6 | 269 | 13 |
| 2010-01-19T23:58 | 2874 | 724 | 12.4 | 6.9 | 267 | 12 |
| 2010-01-19T23:59 | 2923 | 719 | 12.1 | 6.9 | 266 | 12 |
| 2010-01-19T23:59 | 2974 | 715 | 11.8 | 5.6 | 267 | 12 |
| 2010-01-19T23:59 | 3028 | 710 | 11.4 | 5.7 | 269 | 12 |
| 2010-01-19T23:59 | 3078 | 706 | 11.1 | 4.3 | 272 | 12 |
| 2010-01-19T23:59 | 3128 | 702 | 11.1 | 0.8 | 273 | 12 |
| 2010-01-19T23:59 | 3183 | 697 | 10.8 | 2.3 | 271 | 12 |
| 2010-01-20T00:00 | 3239 | 693 | 10.3 | 4.5 | 269 | 12 |
| 2010-01-20T00:00 | 3290 | 688 | 10.0 | 4.5 | 268 | 12 |
| 2010-01-20T00:00 | 3344 | 684 | 9.6 | 4.1 | 268 | 12 |
| 2010-01-20T00:00 | 3399 | 679 | 9.3 | 4.0 | 268 | 12 |
| 2010-01-20T00:00 | 3452 | 675 | 9.0 | 2.8 | 268 | 12 |
| 2010-01-20T00:00 | 3504 | 671 | 8.6 | 2.6 | 269 | 12 |
| 2010-01-20T00:01 | 3555 | 667 | 8.3 | 2.4 | 270 | 12 |
| 2010-01-20T00:01 | 3607 | 663 | 8.0 | 2.1 | 270 | 12 |
| 2010-01-20T00:01 | 3656 | 659 | 7.6 | 2.1 | 270 | 12 |
| 2010-01-20T00:01 | 3709 | 654 | 7.3 | 1.9 | 269 | 13 |
| 2010-01-20T00:01 | 3757 | 651 | 6.9 | 1.8 | 269 | 13 |
| 2010-01-20T00:01 | 3809 | 647 | 6.5 | 1.7 | 269 | 13 |
| 2010-01-20T00:02 | 3860 | 643 | 6.3 | 1.1 | 269 | 13 |
| 2010-01-20T00:02 | 3913 | 638 | 6.2 | 0.8 | 268 | 14 |
| 2010-01-20T00:02 | 3967 | 634 | 6.0 | 0.0 | 269 | 13 |
| 2010-01-20T00:02 | 4023 | 630 | 5.8 | 0.3 | 271 | 13 |
| 2010-01-20T00:02 | 4076 | 626 | 5.6 | -0.6 | 273 | 12 |
| 2010-01-20T00:02 | 4132 | 622 | 5.5 | -2.5 | 274 | 11 |
| 2010-01-20T00:03 | 4189 | 617 | 5.5 | -7.5 | 274 | 10 |
| 2010-01-20T00:03 | 4246 | 613 | 5.2 | -5.3 | 272 | 10 |
| 2010-01-20T00:03 | 4303 | 609 | 5.1 | -5.8 | 270 | 9 |
| 2010-01-20T00:03 | 4350 | 605 | 4.7 | -6.4 | 266 | 9 |
| 2010-01-20T00:03 | 4403 | 601 | 4.3 | -3.6 | 262 | 8 |
| 2010-01-20T00:03 | 4459 | 597 | 3.9 | -2.8 | 260 | 8 |
| 2010-01-20T00:04 | 4519 | 593 | 3.4 | -2.9 | 259 | 8 |
| 2010-01-20T00:04 | 4574 | 589 | 2.9 | -2.8 | 259 | 8 |
| 2010-01-20T00:04 | 4635 | 584 | 2.3 | -3.0 | 256 | 8 |
| 2010-01-20T00:04 | 4696 | 580 | 1.9 | -4.3 | 254 | 8 |
| 2010-01-20T00:04 | 4750 | 576 | 1.5 | -6.2 | 254 | 8 |
| 2010-01-20T00:04 | 4804 | 572 | 1.0 | -6.8 | 255 | 8 |
| 2010-01-20T00:05 | 4860 | 568 | 0.6 | -6.4 | 255 | 8 |
| 2010-01-20T00:05 | 4920 | 564 | 0.0 | -5.4 | 255 | 9 |
| 2010-01-20T00:05 | 4977 | 560 | -0.5 | -5.3 | 255 | 9 |
| 2010-01-20T00:05 | 5033 | 556 | -0.7 | -6.9 | 253 | 9 |
| 2010-01-20T00:05 | 5091 | 552 | -0.8 | -10.2 | 250 | 9 |
| 2010-01-20T00:05 | 5148 | 548 | -1.0 | -10.6 | 248 | 9 |
| 2010-01-20T00:06 | 5201 | 545 | -1.1 | -7.1 | 247 | 8 |
| 2010-01-20T00:06 | 5255 | 541 | -1.1 | -11.1 | 244 | 7 |
| 2010-01-20T00:06 | 5301 | 538 | -1.0 | -14.3 | 242 | 7 |
| 2010-01-20T00:06 | 5357 | 534 | -1.0 | -20.9 | 239 | 8 |
| 2010-01-20T00:06 | 5414 | 530 | -0.9 | -18.3 | 236 | 9 |
| 2010-01-20T00:06 | 5468 | 527 | -1.3 | -14.1 | 234 | 10 |
| 2010-01-20T00:07 | 5522 | 523 | -1.9 | -11.4 | 233 | 10 |
| 2010-01-20T00:07 | 5573 | 520 | -2.4 | -10.0 | 233 | 10 |
| 2010-01-20T00:07 | 5625 | 516 | -2.9 | -6.5 | 233 | 10 |
| 2010-01-20T00:07 | 5684 | 512 | -3.5 | -6.6 | 232 | 10 |
| 2010-01-20T00:07 | 5740 | 509 | -3.7 | -6.7 | 230 | 10 |
| 2010-01-20T00:07 | 5801 | 505 | -3.9 | -6.6 | 229 | 8 |
| 2010-01-20T00:08 | 5859 | 501 | -4.1 | -6.8 | 231 | 7 |
| 2010-01-20T00:08 | 5918 | 498 | -4.3 | -7.1 | 236 | 6 |
| 2010-01-20T00:08 | 5976 | 494 | -4.4 | -8.2 | 237 | 6 |
| 2010-01-20T00:08 | 6032 | 490 | -4.8 | -8.5 | 233 | 5 |
| 2010-01-20T00:08 | 6088 | 487 | -5.2 | -8.7 | 228 | 5 |
| 2010-01-20T00:08 | 6145 | 483 | -5.7 | -8.9 | 222 | 4 |
| 2010-01-20T00:09 | 6191 | 481 | -6.0 | -9.0 | 219 | 4 |
| 2010-01-20T00:09 | 6231 | 478 | -6.3 | -9.1 | 217 | 3 |
| 2010-01-20T00:09 | 6272 | 476 | -6.6 | -9.5 | 215 | 3 |
| 2010-01-20T00:09 | 6312 | 473 | -6.8 | -9.6 | 216 | 3 |
| 2010-01-20T00:09 | 6353 | 471 | -7.1 | -9.9 | 221 | 3 |
| 2010-01-20T00:09 | 6395 | 468 | -7.3 | -10.3 | 229 | 3 |
| 2010-01-20T00:10 | 6437 | 466 | -7.5 | -10.6 | 241 | 3 |
| 2010-01-20T00:10 | 6479 | 463 | -7.8 | -10.8 | 249 | 3 |
| 2010-01-20T00:10 | 6532 | 460 | -8.3 | -10.9 | 247 | 3 |
| 2010-01-20T00:10 | 6591 | 457 | -8.6 | -11.0 | 236 | 2 |
| 2010-01-20T00:10 | 6637 | 454 | -9.0 | -11.3 | 219 | 1 |
| 2010-01-20T00:10 | 6676 | 452 | -9.3 | -11.6 | 206 | 2 |
| 2010-01-20T00:11 | 6716 | 449 | -9.6 | -11.7 | 199 | 2 |
| 2010-01-20T00:11 | 6756 | 447 | -9.9 | -11.8 | 196 | 1 |
| 2010-01-20T00:11 | 6795 | 445 | -10.1 | -12.1 | 196 | 1 |
| 2010-01-20T00:11 | 6837 | 442 | -10.4 | -12.3 | 196 | 1 |
| 2010-01-20T00:11 | 6878 | 440 | -10.6 | -12.5 | 199 | 2 |
| 2010-01-20T00:11 | 6918 | 438 | -10.8 | -12.9 | 202 | 2 |
| 2010-01-20T00:12 | 6955 | 436 | -11.1 | -13.1 | 202 | 2 |
| 2010-01-20T00:12 | 6994 | 433 | -11.4 | -13.4 | 199 | 2 |
| 2010-01-20T00:12 | 7030 | 431 | -11.7 | -13.7 | 198 | 2 |
| 2010-01-20T00:12 | 7069 | 429 | -12.0 | -13.7 | 203 | 2 |
| 2010-01-20T00:12 | 7107 | 427 | -12.2 | -13.8 | 213 | 2 |
| 2010-01-20T00:12 | 7144 | 425 | -12.5 | -14.2 | 219 | 2 |
| 2010-01-20T00:13 | 7179 | 423 | -12.7 | -14.4 | 221 | 2 |
| 2010-01-20T00:13 | 7218 | 421 | -12.9 | -14.6 | 226 | 1 |
| 2010-01-20T00:13 | 7256 | 419 | -13.1 | -15.1 | 238 | 1 |
| 2010-01-20T00:13 | 7293 | 417 | -13.4 | -15.0 | 247 | 1 |
| 2010-01-20T00:13 | 7329 | 415 | -13.6 | -15.2 | 254 | 1 |
| 2010-01-20T00:13 | 7363 | 413 | -13.8 | -15.2 | 257 | 1 |
| 2010-01-20T00:14 | 7400 | 411 | -14.2 | -15.5 | 253 | 1 |
| 2010-01-20T00:14 | 7436 | 409 | -14.1 | -15.9 | 242 | 0 |
| 2010-01-20T00:14 | 7472 | 407 | -14.2 | -16.5 | 225 | 0 |
| 2010-01-20T00:14 | 7508 | 405 | -14.5 | -16.8 | 213 | 0 |
| 2010-01-20T00:14 | 7542 | 403 | -14.6 | -17.2 | 205 | 0 |
| 2010-01-20T00:14 | 7577 | 401 | -14.9 | -17.4 | 0 | 0 |
| 2010-01-20T00:15 | 7613 | 400 | -15.0 | -17.9 | 0 | 0 |
| 2010-01-20T00:15 | 7647 | 398 | -15.3 | -18.0 | 0 | 0 |
| 2010-01-20T00:15 | 7681 | 396 | -15.5 | -18.5 | 126 | 0 |
| 2010-01-20T00:15 | 7717 | 394 | -15.6 | -18.7 | 117 | 1 |
| 2010-01-20T00:15 | 7752 | 392 | -15.9 | -19.1 | 115 | 1 |
| 2010-01-20T00:15 | 7787 | 390 | -16.1 | -19.2 | 121 | 1 |
| 2010-01-20T00:16 | 7822 | 389 | -16.2 | -19.6 | 131 | 1 |
| 2010-01-20T00:16 | 7857 | 387 | -16.4 | -20.0 | 136 | 1 |
| 2010-01-20T00:16 | 7890 | 385 | -16.6 | -20.4 | 141 | 2 |
| 2010-01-20T00:16 | 7923 | 383 | -16.6 | -21.0 | 144 | 2 |
| 2010-01-20T00:16 | 7958 | 382 | -16.9 | -21.2 | 142 | 3 |
| 2010-01-20T00:16 | 7991 | 380 | -17.0 | -21.4 | 138 | 3 |
| 2010-01-20T00:17 | 8028 | 378 | -17.1 | -22.1 | 136 | 3 |
| 2010-01-20T00:17 | 8062 | 376 | -17.4 | -22.4 | 139 | 3 |
| 2010-01-20T00:17 | 8098 | 375 | -17.7 | -22.9 | 142 | 3 |
| 2010-01-20T00:17 | 8134 | 373 | -18.1 | -23.0 | 142 | 3 |
| 2010-01-20T00:17 | 8168 | 371 | -18.3 | -22.9 | 140 | 3 |
| 2010-01-20T00:17 | 8202 | 369 | -18.5 | -23.2 | 137 | 3 |
| 2010-01-20T00:18 | 8236 | 368 | -18.7 | -23.2 | 133 | 4 |
| 2010-01-20T00:18 | 8272 | 366 | -18.9 | -23.8 | 131 | 4 |
| 2010-01-20T00:18 | 8307 | 364 | -19.0 | -24.7 | 130 | 5 |
| 2010-01-20T00:18 | 8343 | 362 | -19.3 | -25.0 | 131 | 5 |
| 2010-01-20T00:18 | 8380 | 361 | -19.5 | -25.5 | 132 | 5 |
| 2010-01-20T00:18 | 8417 | 359 | -19.8 | -26.1 | 134 | 5 |
| 2010-01-20T00:19 | 8455 | 357 | -19.9 | -26.9 | 135 | 5 |
| 2010-01-20T00:19 | 8491 | 355 | -20.1 | -27.1 | 137 | 5 |
| 2010-01-20T00:19 | 8528 | 354 | -20.4 | -27.6 | 139 | 5 |
| 2010-01-20T00:19 | 8566 | 352 | -20.7 | -27.8 | 142 | 5 |
| 2010-01-20T00:19 | 8604 | 350 | -21.0 | -28.0 | 143 | 5 |
| 2010-01-20T00:19 | 8641 | 348 | -21.3 | -28.1 | 145 | 5 |
| 2010-01-20T00:20 | 8679 | 346 | -21.6 | -28.1 | 145 | 6 |
| 2010-01-20T00:20 | 8716 | 345 | -22.0 | -28.2 | 144 | 6 |
| 2010-01-20T00:20 | 8754 | 343 | -22.3 | -28.9 | 141 | 6 |
| 2010-01-20T00:20 | 8789 | 341 | -22.6 | -29.1 | 139 | 6 |
| 2010-01-20T00:20 | 8830 | 339 | -23.0 | -29.2 | 138 | 6 |
| 2010-01-20T00:20 | 8869 | 338 | -23.4 | -29.4 | 140 | 6 |
| 2010-01-20T00:21 | 8905 | 336 | -23.6 | -29.5 | 143 | 7 |
| 2010-01-20T00:21 | 8941 | 334 | -23.9 | -29.1 | 147 | 7 |
| 2010-01-20T00:21 | 8979 | 333 | -24.1 | -28.7 | 150 | 7 |
| 2010-01-20T00:21 | 9016 | 331 | -24.5 | -29.2 | 152 | 7 |
| 2010-01-20T00:21 | 9052 | 329 | -24.8 | -29.5 | 152 | 7 |
| 2010-01-20T00:21 | 9090 | 327 | -25.1 | -30.1 | 151 | 7 |
| 2010-01-20T00:22 | 9127 | 326 | -25.5 | -30.6 | 150 | 7 |
| 2010-01-20T00:22 | 9165 | 324 | -25.7 | -30.5 | 149 | 7 |
| 2010-01-20T00:22 | 9201 | 322 | -26.0 | -30.7 | 149 | 7 |
| 2010-01-20T00:22 | 9238 | 321 | -26.4 | -30.9 | 147 | 7 |
| 2010-01-20T00:22 | 9275 | 319 | -26.7 | -31.3 | 143 | 7 |
| 2010-01-20T00:22 | 9311 | 318 | -27.1 | -32.4 | 140 | 7 |
| 2010-01-20T00:23 | 9348 | 316 | -27.3 | -32.8 | 140 | 7 |
| 2010-01-20T00:23 | 9386 | 314 | -27.6 | -33.1 | 140 | 6 |
| 2010-01-20T00:23 | 9422 | 313 | -28.0 | -33.4 | 138 | 6 |
| 2010-01-20T00:23 | 9461 | 311 | -28.4 | -33.5 | 137 | 6 |
| 2010-01-20T00:23 | 9499 | 309 | -28.8 | -33.8 | 136 | 7 |
| 2010-01-20T00:23 | 9536 | 308 | -29.0 | -33.5 | 136 | 7 |
| 2010-01-20T00:24 | 9574 | 306 | -29.3 | -33.5 | 136 | 7 |
| 2010-01-20T00:24 | 9611 | 305 | -29.5 | -33.6 | 137 | 8 |
| 2010-01-20T00:24 | 9648 | 303 | -29.8 | -33.7 | 138 | 8 |
| 2010-01-20T00:24 | 9684 | 301 | -29.9 | -34.4 | 138 | 9 |
| 2010-01-20T00:24 | 9722 | 300 | -30.3 | -34.9 | 138 | 10 |
| 2010-01-20T00:24 | 9758 | 298 | -30.5 | -35.1 | 138 | 10 |
| 2010-01-20T00:25 | 9796 | 297 | -30.6 | -35.8 | 137 | 10 |
| 2010-01-20T00:25 | 9834 | 295 | -30.7 | -36.4 | 135 | 11 |
| 2010-01-20T00:25 | 9871 | 294 | -30.9 | -37.0 | 132 | 10 |
| 2010-01-20T00:25 | 9909 | 292 | -31.2 | -37.6 | 128 | 10 |
| 2010-01-20T00:25 | 9951 | 290 | -31.6 | -38.0 | 124 | 10 |
| 2010-01-20T00:25 | 9994 | 289 | -31.9 | -38.2 | 120 | 10 |
| 2010-01-20T00:26 | 10035 | 287 | -32.2 | -38.7 | 117 | 10 |
| 2010-01-20T00:26 | 10076 | 285 | -32.6 | -39.1 | 113 | 10 |
| 2010-01-20T00:26 | 10114 | 284 | -32.7 | -39.4 | 110 | 10 |
| 2010-01-20T00:26 | 10153 | 282 | -33.0 | -39.8 | 106 | 10 |
| 2010-01-20T00:26 | 10192 | 281 | -33.4 | -40.2 | 104 | 10 |
| 2010-01-20T00:26 | 10231 | 279 | -33.7 | -40.3 | 102 | 10 |
| 2010-01-20T00:27 | 10274 | 277 | -34.0 | -41.2 | 100 | 11 |
| 2010-01-20T00:27 | 10315 | 276 | -34.4 | -41.8 | 96 | 11 |
| 2010-01-20T00:27 | 10355 | 274 | -34.7 | -42.0 | 93 | 11 |
| 2010-01-20T00:27 | 10394 | 273 | -34.8 | -42.5 | 92 | 12 |
| 2010-01-20T00:27 | 10432 | 271 | -35.2 | -43.2 | 94 | 12 |
| 2010-01-20T00:27 | 10473 | 270 | -35.3 | -43.9 | 96 | 13 |
| 2010-01-20T00:28 | 10513 | 268 | -35.8 | -45.4 | 98 | 13 |
| 2010-01-20T00:28 | 10552 | 266 | -36.0 | -45.5 | 100 | 13 |
| 2010-01-20T00:28 | 10590 | 265 | -36.5 | -46.5 | 102 | 13 |
| 2010-01-20T00:28 | 10629 | 264 | -36.7 | -46.7 | 102 | 13 |
| 2010-01-20T00:28 | 10668 | 262 | -37.0 | -47.0 | 102 | 14 |
| 2010-01-20T00:28 | 10707 | 261 | -37.3 | -48.3 | 101 | 13 |
| 2010-01-20T00:29 | 10747 | 259 | -37.7 | -48.8 | 101 | 14 |
| 2010-01-20T00:29 | 10787 | 258 | -38.1 | -49.0 | 101 | 14 |
| 2010-01-20T00:29 | 10825 | 256 | -38.4 | -49.1 | 102 | 14 |
| 2010-01-20T00:29 | 10864 | 255 | -38.8 | -49.2 | 102 | 14 |
| 2010-01-20T00:29 | 10903 | 253 | -39.2 | -49.6 | 102 | 14 |
| 2010-01-20T00:29 | 10941 | 252 | -39.6 | -49.5 | 102 | 14 |
| 2010-01-20T00:30 | 10978 | 251 | -40.0 | -49.8 | 103 | 14 |
| 2010-01-20T00:30 | 11017 | 249 | -40.3 | -49.8 | 103 | 14 |
| 2010-01-20T00:30 | 11056 | 248 | -40.6 | -49.9 | 103 | 14 |
| 2010-01-20T00:30 | 11094 | 246 | -41.0 | -50.0 | 102 | 14 |
| 2010-01-20T00:30 | 11134 | 245 | -41.4 | -50.5 | 101 | 15 |
| 2010-01-20T00:30 | 11170 | 244 | -41.7 | -50.9 | 100 | 15 |
| 2010-01-20T00:31 | 11206 | 242 | -41.9 | -52.0 | 98 | 15 |
| 2010-01-20T00:31 | 11246 | 241 | -42.2 | -53.0 | 97 | 15 |
| 2010-01-20T00:31 | 11286 | 239 | -42.6 | -52.9 | 95 | 15 |
| 2010-01-20T00:31 | 11324 | 238 | -43.0 | -52.9 | 94 | 15 |
| 2010-01-20T00:31 | 11363 | 237 | -43.3 | -52.7 | 94 | 15 |
| 2010-01-20T00:31 | 11400 | 235 | -43.5 | -52.5 | 94 | 15 |
| 2010-01-20T00:32 | 11439 | 234 | -44.0 | -52.4 | 93 | 16 |
| 2010-01-20T00:32 | 11477 | 233 | -44.3 | -52.5 | 93 | 16 |
| 2010-01-20T00:32 | 11517 | 231 | -44.7 | -52.4 | 92 | 16 |
| 2010-01-20T00:32 | 11558 | 230 | -45.1 | -52.4 | 91 | 16 |
| 2010-01-20T00:32 | 11597 | 229 | -45.4 | -52.5 | 90 | 17 |
| 2010-01-20T00:32 | 11636 | 227 | -45.8 | -52.6 | 90 | 17 |
| 2010-01-20T00:33 | 11676 | 226 | -46.0 | -52.5 | 90 | 17 |
| 2010-01-20T00:33 | 11714 | 225 | -46.3 | -52.7 | 90 | 18 |
| 2010-01-20T00:33 | 11752 | 223 | -46.7 | -53.4 | 91 | 18 |
| 2010-01-20T00:33 | 11790 | 222 | -46.9 | -54.5 | 92 | 18 |
| 2010-01-20T00:33 | 11828 | 221 | -47.4 | -55.3 | 92 | 18 |
| 2010-01-20T00:33 | 11868 | 219 | -47.7 | -55.4 | 92 | 19 |
| 2010-01-20T00:34 | 11908 | 218 | -48.1 | -55.7 | 92 | 19 |
| 2010-01-20T00:34 | 11947 | 217 | -48.4 | -55.7 | 91 | 19 |
| 2010-01-20T00:34 | 11988 | 215 | -48.9 | -55.8 | 90 | 19 |
| 2010-01-20T00:34 | 12029 | 214 | -49.2 | -55.7 | 90 | 19 |
| 2010-01-20T00:34 | 12077 | 213 | -49.7 | -55.7 | 90 | 19 |
| 2010-01-20T00:34 | 12126 | 211 | -50.2 | -56.9 | 90 | 19 |
| 2010-01-20T00:35 | 12168 | 210 | -50.6 | -56.7 | 90 | 19 |
| 2010-01-20T00:35 | 12208 | 208 | -51.0 | -57.1 | 89 | 19 |
| 2010-01-20T00:35 | 12244 | 207 | -51.3 | -57.2 | 89 | 19 |
| 2010-01-20T00:35 | 12287 | 206 | -51.6 | -57.2 | 89 | 19 |
| 2010-01-20T00:35 | 12325 | 205 | -52.1 | -57.3 | 88 | 19 |
| 2010-01-20T00:35 | 12357 | 204 | -52.2 | -57.4 | 88 | 19 |
| 2010-01-20T00:36 | 12396 | 202 | -52.5 | -58.5 | 89 | 19 |
| 2010-01-20T00:36 | 12436 | 201 | -52.9 | -59.2 | 90 | 19 |
| 2010-01-20T00:36 | 12476 | 200 | -53.2 | -59.7 | 91 | 19 |
| 2010-01-20T00:36 | 12516 | 199 | -53.3 | -59.8 | 92 | 19 |
| 2010-01-20T00:36 | 12556 | 197 | -53.9 | -60.5 | 93 | 19 |
| 2010-01-20T00:36 | 12598 | 196 | -54.3 | -60.9 | 94 | 19 |
| 2010-01-20T00:37 | 12642 | 195 | -54.6 | -61.3 | 95 | 19 |
| 2010-01-20T00:37 | 12687 | 193 | -54.9 | -61.7 | 96 | 20 |
| 2010-01-20T00:37 | 12727 | 192 | -55.3 | -62.1 | 96 | 20 |
| 2010-01-20T00:37 | 12769 | 191 | -55.7 | -62.6 | 96 | 20 |
| 2010-01-20T00:37 | 12811 | 190 | -56.0 | -62.8 | 96 | 20 |
| 2010-01-20T00:37 | 12851 | 188 | -56.4 | -63.1 | 97 | 20 |
| 2010-01-20T00:38 | 12894 | 187 | -56.6 | -63.3 | 98 | 20 |
| 2010-01-20T00:38 | 12938 | 186 | -57.1 | -63.6 | 98 | 20 |
| 2010-01-20T00:38 | 12981 | 185 | -57.5 | -64.1 | 98 | 20 |
| 2010-01-20T00:38 | 13024 | 183 | -57.9 | -64.5 | 98 | 20 |
| 2010-01-20T00:38 | 13066 | 182 | -58.1 | -64.6 | 99 | 20 |
| 2010-01-20T00:38 | 13113 | 181 | -58.6 | -65.2 | 99 | 21 |
| 2010-01-20T00:39 | 13158 | 180 | -59.2 | -65.7 | 100 | 21 |
| 2010-01-20T00:39 | 13204 | 178 | -59.6 | -66.4 | 101 | 21 |
| 2010-01-20T00:39 | 13249 | 177 | -60.0 | -66.8 | 101 | 21 |
| 2010-01-20T00:39 | 13296 | 176 | -60.5 | -67.3 | 101 | 21 |
| 2010-01-20T00:39 | 13342 | 174 | -60.9 | -67.8 | 100 | 21 |
| 2010-01-20T00:39 | 13386 | 173 | -61.3 | -68.2 | 100 | 21 |
| 2010-01-20T00:40 | 13430 | 172 | -61.8 | -68.6 | 100 | 22 |
| 2010-01-20T00:40 | 13479 | 170 | -62.1 | -68.9 | 100 | 22 |
| 2010-01-20T00:40 | 13531 | 169 | -62.6 | -69.3 | 101 | 22 |
| 2010-01-20T00:40 | 13589 | 167 | -63.2 | -69.8 | 101 | 23 |
| 2010-01-20T00:40 | 13636 | 166 | -63.6 | -70.1 | 101 | 23 |
| 2010-01-20T00:40 | 13689 | 165 | -64.1 | -70.7 | 102 | 23 |
| 2010-01-20T00:41 | 13750 | 163 | -64.8 | -71.4 | 103 | 24 |
| 2010-01-20T00:41 | 13810 | 162 | -65.4 | -72.0 | 103 | 24 |
| 2010-01-20T00:41 | 13860 | 160 | -65.7 | -72.2 | 102 | 25 |
| 2010-01-20T00:41 | 13914 | 159 | -66.1 | -72.7 | 101 | 26 |
| 2010-01-20T00:41 | 13997 | 157 | -66.8 | -73.5 | 100 | 27 |
| 2010-01-20T00:41 | 14074 | 155 | -67.5 | -74.1 | 101 | 29 |
| 2010-01-20T00:42 | 14134 | 153 | -67.9 | -74.5 | 101 | 30 |
| 2010-01-20T00:42 | 14183 | 152 | -68.4 | -74.9 | 101 | 31 |
| 2010-01-20T00:42 | 14227 | 151 | -68.7 | -75.4 | 102 | 31 |
| 2010-01-20T00:42 | 14265 | 150 | -69.1 | -76.0 | 102 | 31 |
| 2010-01-20T00:42 | 14308 | 149 | -69.5 | -76.6 | 102 | 31 |
| 2010-01-20T00:42 | 14364 | 147 | -70.0 | -77.3 | 101 | 30 |
| 2010-01-20T00:43 | 14426 | 146 | -70.6 | -78.0 | 101 | 30 |
| 2010-01-20T00:43 | 14488 | 144 | -71.2 | -78.7 | 100 | 30 |
| 2010-01-20T00:43 | 14542 | 143 | -71.6 | -79.1 | 99 | 30 |
| 2010-01-20T00:43 | 14586 | 142 | -71.9 | -79.5 | 98 | 30 |
| 2010-01-20T00:43 | 14632 | 141 | -72.3 | -79.9 | 97 | 29 |
| 2010-01-20T00:43 | 14677 | 140 | -72.8 | -80.4 | 97 | 29 |
| 2010-01-20T00:44 | 14723 | 139 | -73.3 | -80.8 | 97 | 29 |
| 2010-01-20T00:44 | 14767 | 138 | -73.7 | -81.1 | 96 | 29 |
| 2010-01-20T00:44 | 14814 | 136 | -74.1 | -81.4 | 96 | 29 |
| 2010-01-20T00:44 | 14860 | 135 | -74.6 | -81.8 | 97 | 29 |
| 2010-01-20T00:44 | 14906 | 134 | -75.0 | -82.1 | 97 | 29 |
| 2010-01-20T00:44 | 14956 | 133 | -75.5 | -82.6 | 97 | 29 |
| 2010-01-20T00:45 | 15012 | 132 | -76.1 | -83.1 | 96 | 29 |
| 2010-01-20T00:45 | 15059 | 131 | -76.6 | -83.5 | 96 | 29 |
| 2010-01-20T00:45 | 15106 | 130 | -76.9 | -83.7 | 95 | 29 |
| 2010-01-20T00:45 | 15152 | 129 | -77.1 | -83.8 | 94 | 29 |
| 2010-01-20T00:45 | 15199 | 128 | -77.6 | -84.2 | 93 | 29 |
| 2010-01-20T00:45 | 15244 | 127 | -77.9 | -84.5 | 93 | 29 |
| 2010-01-20T00:46 | 15291 | 126 | -78.2 | -84.7 | 92 | 30 |
| 2010-01-20T00:46 | 15338 | 125 | -78.5 | -85.0 | 91 | 30 |
| 2010-01-20T00:46 | 15382 | 124 | -78.8 | -85.3 | 91 | 30 |
| 2010-01-20T00:46 | 15429 | 123 | -78.8 | -85.4 | 92 | 31 |
| 2010-01-20T00:46 | 15477 | 122 | -78.3 | -85.1 | 93 | 33 |
| 2010-01-20T00:46 | 15525 | 121 | -78.4 | -85.2 | 94 | 34 |
| 2010-01-20T00:47 | 15572 | 120 | -78.7 | -85.6 | 94 | 36 |
| 2010-01-20T00:47 | 15621 | 119 | -79.0 | -86.0 | 95 | 37 |
| 2010-01-20T00:47 | 15675 | 117 | -79.4 | -86.4 | 96 | 37 |
| 2010-01-20T00:47 | 15744 | 116 | -79.9 | -86.9 | 96 | 38 |
| 2010-01-20T00:47 | 15811 | 115 | -80.4 | -87.5 | 95 | 38 |
| 2010-01-20T00:47 | 15870 | 113 | -80.9 | -88.0 | 94 | 38 |
| 2010-01-20T00:48 | 15918 | 112 | -81.4 | -88.5 | 94 | 38 |
| 2010-01-20T00:48 | 15967 | 112 | -81.9 | -88.9 | 93 | 38 |
| 2010-01-20T00:48 | 16015 | 111 | -82.5 | -89.5 | 92 | 38 |
| 2010-01-20T00:48 | 16065 | 110 | -82.9 | -89.9 | 91 | 38 |
| 2010-01-20T00:48 | 16113 | 109 | -83.3 | -90.3 | 91 | 39 |
| 2010-01-20T00:48 | 16163 | 108 | -83.6 | -90.5 | 91 | 39 |
| 2010-01-20T00:49 | 16209 | 107 | -83.8 | -90.7 | 91 | 39 |
| 2010-01-20T00:49 | 16257 | 106 | -84.1 | -91.0 | 91 | 39 |
| 2010-01-20T00:49 | 16301 | 105 | -83.9 | -91.0 | 90 | 38 |
| 2010-01-20T00:49 | 16343 | 104 | -84.2 | -91.3 | 90 | 38 |
| 2010-01-20T00:49 | 16387 | 103 | -84.3 | -91.5 | 90 | 38 |
| 2010-01-20T00:49 | 16433 | 103 | -84.5 | -91.7 | 89 | 39 |
| 2010-01-20T00:50 | 16483 | 102 | -84.5 | -91.8 | 88 | 39 |
| 2010-01-20T00:50 | 16538 | 101 | -83.4 | -90.9 | 87 | 37 |
| 2010-01-20T00:50 | 16604 | 99 | -80.0 | -88.0 | 84 | 33 |
| 2010-01-20T00:50 | 16669 | 98 | -78.4 | -86.6 | 81 | 28 |
| 2010-01-20T00:50 | 16734 | 97 | -77.6 | -86.1 | 78 | 24 |
| 2010-01-20T00:50 | 16800 | 96 | -75.7 | -84.5 | 74 | 20 |
| 2010-01-20T00:51 | 16848 | 95 | -74.7 | -83.9 | 69 | 17 |
| 2010-01-20T00:51 | 16896 | 94 | -74.1 | -83.7 | 65 | 15 |
| 2010-01-20T00:51 | 16942 | 94 | -74.1 | -84.1 | 63 | 13 |
| 2010-01-20T00:51 | 16989 | 93 | -74.0 | -84.4 | 62 | 11 |
| 2010-01-20T00:51 | 17038 | 92 | -74.2 | -84.9 | 61 | 10 |
| 2010-01-20T00:51 | 17084 | 91 | -74.3 | -85.4 | 58 | 9 |
| 2010-01-20T00:52 | 17132 | 91 | -74.5 | -86.0 | 50 | 6 |
| 2010-01-20T00:52 | 17197 | 90 | -74.7 | -86.6 | 24 | 4 |
| 2010-01-20T00:52 | 17266 | 89 | -73.6 | -86.0 | 332 | 3 |
| 2010-01-20T00:52 | 17328 | 88 | -73.5 | -86.1 | 306 | 5 |
| 2010-01-20T00:52 | 17387 | 87 | -73.4 | -86.4 | 299 | 7 |
| 2010-01-20T00:52 | 17437 | 86 | -73.8 | -87.0 | 297 | 8 |
| 2010-01-20T00:53 | 17485 | 85 | -74.1 | -87.6 | 293 | 8 |
| 2010-01-20T00:53 | 17533 | 85 | -74.0 | -87.8 | 287 | 8 |
| 2010-01-20T00:53 | 17578 | 84 | -74.2 | -88.2 | 280 | 7 |
| 2010-01-20T00:53 | 17621 | 83 | -74.3 | -88.6 | 271 | 7 |
| 2010-01-20T00:53 | 17667 | 83 | -74.2 | -88.8 | 261 | 6 |
| 2010-01-20T00:53 | 17709 | 82 | -74.0 | -88.8 | 256 | 6 |
| 2010-01-20T00:54 | 17752 | 82 | -72.9 | -88.2 | 256 | 7 |
| 2010-01-20T00:54 | 17794 | 81 | -71.6 | -87.3 | 254 | 9 |
| 2010-01-20T00:54 | 17836 | 80 | -71.6 | -87.4 | 252 | 10 |
| 2010-01-20T00:54 | 17877 | 80 | -71.2 | -87.5 | 251 | 10 |
| 2010-01-20T00:54 | 17921 | 79 | -70.8 | -87.5 | 251 | 9 |
| 2010-01-20T00:54 | 17966 | 79 | -70.3 | -87.4 | 249 | 9 |
| 2010-01-20T00:55 | 18012 | 78 | -69.8 | -87.3 | 246 | 9 |
| 2010-01-20T00:55 | 18060 | 77 | -69.8 | -87.6 | 250 | 10 |
| 2010-01-20T00:55 | 18110 | 77 | -69.6 | -87.8 | 261 | 11 |
| 2010-01-20T00:55 | 18168 | 76 | -69.3 | -87.9 | 272 | 13 |
| 2010-01-20T00:55 | 18225 | 75 | -69.3 | -88.2 | 278 | 15 |
| 2010-01-20T00:55 | 18278 | 75 | -69.2 | -88.5 | 280 | 17 |
| 2010-01-20T00:56 | 18331 | 74 | -69.0 | -88.6 | 282 | 19 |
| 2010-01-20T00:56 | 18383 | 73 | -69.2 | -88.9 | 283 | 21 |
| 2010-01-20T00:56 | 18436 | 73 | -69.5 | -89.4 | 282 | 22 |
| 2010-01-20T00:56 | 18484 | 72 | -69.2 | -89.3 | 280 | 24 |
| 2010-01-20T00:56 | 18530 | 72 | -69.4 | -89.8 | 278 | 24 |
| 2010-01-20T00:56 | 18576 | 71 | -69.6 | -90.0 | 276 | 25 |
| 2010-01-20T00:57 | 18624 | 70 | -69.4 | -90.1 | 275 | 25 |
| 2010-01-20T00:57 | 18671 | 70 | -69.4 | -90.2 | 275 | 26 |
| 2010-01-20T00:57 | 18718 | 69 | -69.4 | -90.3 | 274 | 26 |
| 2010-01-20T00:57 | 18765 | 69 | -69.9 | -90.8 | 273 | 26 |
| 2010-01-20T00:57 | 18812 | 68 | -70.5 | -91.4 | 273 | 26 |
| 2010-01-20T00:57 | 18859 | 68 | -70.9 | -91.7 | 272 | 27 |
| 2010-01-20T00:58 | 18909 | 67 | -71.2 | -91.9 | 272 | 27 |
| 2010-01-20T00:58 | 18957 | 67 | -71.3 | -92.0 | 272 | 28 |
| 2010-01-20T00:58 | 19005 | 66 | -71.7 | -92.3 | 272 | 28 |
| 2010-01-20T00:58 | 19053 | 66 | -71.9 | -92.5 | 272 | 28 |
| 2010-01-20T00:58 | 19102 | 65 | -72.0 | -92.4 | 271 | 28 |
| 2010-01-20T00:58 | 19149 | 64 | -72.4 | -92.8 | 271 | 27 |
| 2010-01-20T00:59 | 19198 | 64 | -72.5 | -92.8 | 272 | 26 |
| 2010-01-20T00:59 | 19246 | 63 | -72.7 | -92.9 | 273 | 25 |
| 2010-01-20T00:59 | 19292 | 63 | -73.0 | -93.0 | 273 | 24 |
| 2010-01-20T00:59 | 19337 | 62 | -72.9 | -92.9 | 273 | 24 |
| 2010-01-20T00:59 | 19385 | 62 | -73.6 | -93.4 | 272 | 24 |
| 2010-01-20T00:59 | 19434 | 61 | -73.4 | -93.3 | 271 | 24 |
| 2010-01-20T01:00 | 19481 | 61 | -73.6 | -93.4 | 270 | 24 |
| 2010-01-20T01:00 | 19531 | 60 | -74.3 | -93.8 | 269 | 24 |
| 2010-01-20T01:00 | 19580 | 60 | -74.5 | -93.8 | 269 | 25 |
| 2010-01-20T01:00 | 19627 | 59 | -74.9 | -94.0 | 269 | 25 |
| 2010-01-20T01:00 | 19676 | 59 | -75.0 | -94.0 | 271 | 25 |
| 2010-01-20T01:00 | 19723 | 58 | -75.1 | -93.9 | 274 | 26 |
| 2010-01-20T01:01 | 19773 | 58 | -75.0 | -93.8 | 277 | 26 |
| 2010-01-20T01:01 | 19822 | 57 | -75.3 | -93.9 | 279 | 26 |
| 2010-01-20T01:01 | 19871 | 57 | -75.6 | -94.0 | 280 | 25 |
| 2010-01-20T01:01 | 19921 | 56 | -75.8 | -94.1 | 280 | 25 |
| 2010-01-20T01:01 | 19970 | 56 | -76.0 | -94.2 | 279 | 24 |
| 2010-01-20T01:01 | 20021 | 56 | -75.3 | -93.6 | 278 | 23 |
| 2010-01-20T01:02 | 20072 | 55 | -75.3 | -93.4 | 275 | 22 |
| 2010-01-20T01:02 | 20123 | 55 | -75.1 | -93.3 | 273 | 22 |
| 2010-01-20T01:02 | 20173 | 54 | -74.8 | -93.0 | 271 | 22 |
| 2010-01-20T01:02 | 20224 | 54 | -75.0 | -93.1 | 270 | 21 |
| 2010-01-20T01:02 | 20275 | 53 | -75.0 | -93.2 | 270 | 21 |
| 2010-01-20T01:02 | 20324 | 53 | -74.8 | -93.1 | 272 | 20 |
| 2010-01-20T01:03 | 20374 | 52 | -74.8 | -93.0 | 274 | 20 |
| 2010-01-20T01:03 | 20426 | 52 | -74.8 | -92.9 | 276 | 20 |
| 2010-01-20T01:03 | 20477 | 51 | -74.2 | -92.4 | 278 | 19 |
| 2010-01-20T01:03 | 20529 | 51 | -73.2 | -91.8 | 279 | 17 |
| 2010-01-20T01:03 | 20580 | 50 | -72.7 | -91.4 | 279 | 15 |
| 2010-01-20T01:03 | 20630 | 50 | -71.8 | -90.9 | 277 | 13 |
| 2010-01-20T01:04 | 20681 | 50 | -71.9 | -91.1 | 274 | 12 |
| 2010-01-20T01:04 | 20733 | 49 | -72.3 | -91.5 | 271 | 12 |
| 2010-01-20T01:04 | 20783 | 49 | -72.7 | -91.9 | 269 | 12 |
| 2010-01-20T01:04 | 20831 | 48 | -73.0 | -92.4 | 267 | 12 |
| 2010-01-20T01:04 | 20884 | 48 | -73.4 | -92.8 | 264 | 11 |
| 2010-01-20T01:04 | 20936 | 47 | -73.7 | -93.1 | 261 | 11 |
| 2010-01-20T01:05 | 20987 | 47 | -73.9 | -93.4 | 259 | 10 |
| 2010-01-20T01:05 | 21037 | 47 | -73.9 | -93.4 | 260 | 8 |
| 2010-01-20T01:05 | 21090 | 46 | -74.0 | -93.7 | 259 | 8 |
| 2010-01-20T01:05 | 21139 | 46 | -73.5 | -93.3 | 253 | 8 |
| 2010-01-20T01:05 | 21190 | 45 | -72.7 | -92.8 | 245 | 8 |
| 2010-01-20T01:05 | 21239 | 45 | -72.5 | -92.7 | 235 | 7 |
| 2010-01-20T01:06 | 21290 | 45 | -71.5 | -92.2 | 222 | 6 |
| 2010-01-20T01:06 | 21342 | 44 | -71.4 | -92.1 | 204 | 4 |
| 2010-01-20T01:06 | 21393 | 44 | -71.1 | -92.2 | 174 | 3 |
| 2010-01-20T01:06 | 21445 | 44 | -71.3 | -92.3 | 128 | 3 |
| 2010-01-20T01:06 | 21496 | 43 | -70.6 | -92.2 | 106 | 5 |
| 2010-01-20T01:06 | 21546 | 43 | -70.3 | -92.2 | 96 | 8 |
| 2010-01-20T01:07 | 21597 | 42 | -69.1 | -91.5 | 92 | 9 |
| 2010-01-20T01:07 | 21647 | 42 | -68.5 | -91.3 | 91 | 10 |
| 2010-01-20T01:07 | 21697 | 42 | -68.2 | -91.2 | 91 | 10 |
| 2010-01-20T01:07 | 21747 | 41 | -68.2 | -91.3 | 90 | 9 |
| 2010-01-20T01:07 | 21797 | 41 | -68.3 | -91.7 | 85 | 8 |
| 2010-01-20T01:07 | 21845 | 41 | -68.1 | -91.9 | 79 | 8 |
| 2010-01-20T01:08 | 21894 | 40 | -68.2 | -92.2 | 74 | 9 |
| 2010-01-20T01:08 | 21944 | 40 | -68.4 | -92.5 | 71 | 10 |
| 2010-01-20T01:08 | 21992 | 40 | -68.5 | -92.8 | 70 | 10 |
| 2010-01-20T01:08 | 22042 | 39 | -68.5 | -93.1 | 72 | 11 |
| 2010-01-20T01:08 | 22092 | 39 | -68.7 | -93.4 | 77 | 12 |
| 2010-01-20T01:08 | 22145 | 39 | -68.7 | -93.6 | 82 | 13 |
| 2010-01-20T01:09 | 22194 | 38 | -68.4 | -93.6 | 86 | 14 |
| 2010-01-20T01:09 | 22247 | 38 | -68.5 | -93.8 | 90 | 14 |
| 2010-01-20T01:09 | 22298 | 38 | -68.3 | -93.7 | 91 | 15 |
| 2010-01-20T01:09 | 22350 | 37 | -68.3 | -93.8 | 90 | 16 |
| 2010-01-20T01:09 | 22400 | 37 | -68.7 | -94.1 | 89 | 16 |
| 2010-01-20T01:09 | 22451 | 37 | -69.0 | -94.3 | 88 | 17 |
| 2010-01-20T01:10 | 22502 | 36 | -68.9 | -94.4 | 89 | 17 |
| 2010-01-20T01:10 | 22553 | 36 | -69.2 | -94.8 | 94 | 17 |
| 2010-01-20T01:10 | 22604 | 36 | -68.7 | -94.7 | 100 | 18 |
| 2010-01-20T01:10 | 22656 | 36 | -68.1 | -94.3 | 104 | 19 |
| 2010-01-20T01:10 | 22706 | 35 | -67.8 | -94.1 | 105 | 21 |
| 2010-01-20T01:10 | 22756 | 35 | -67.9 | -94.4 | 105 | 22 |
| 2010-01-20T01:11 | 22805 | 35 | -67.5 | -94.5 | 107 | 23 |
| 2010-01-20T01:11 | 22856 | 34 | -67.8 | -94.4 | 108 | 23 |
| 2010-01-20T01:11 | 22907 | 34 | -67.2 | -93.9 | 109 | 24 |
| 2010-01-20T01:11 | 22958 | 34 | -66.6 | -93.8 | 109 | 25 |
| 2010-01-20T01:11 | 23005 | 34 | -66.4 | -93.6 | 108 | 26 |
| 2010-01-20T01:11 | 23053 | 33 | -66.1 | -93.4 | 106 | 28 |
| 2010-01-20T01:12 | 23101 | 33 | -66.0 | -93.4 | 103 | 29 |
| 2010-01-20T01:12 | 23149 | 33 | -65.5 | -93.3 | 101 | 29 |
| 2010-01-20T01:12 | 23197 | 33 | -64.9 | -93.0 | 98 | 28 |
| 2010-01-20T01:12 | 23246 | 32 | -65.0 | -93.0 | 97 | 28 |
| 2010-01-20T01:12 | 23294 | 32 | -64.3 | -92.8 | 95 | 28 |
| 2010-01-20T01:12 | 23341 | 32 | -64.3 | -92.7 | 95 | 28 |
| 2010-01-20T01:13 | 23394 | 31 | -64.3 | -92.8 | 96 | 28 |
| 2010-01-20T01:13 | 23444 | 31 | -64.3 | -92.8 | 96 | 29 |
| 2010-01-20T01:13 | 23497 | 31 | -64.1 | -92.7 | 95 | 30 |
| 2010-01-20T01:13 | 23546 | 31 | -63.6 | -92.5 | 94 | 31 |
| 2010-01-20T01:13 | 23599 | 30 | -63.0 | -92.2 | 93 | 32 |
| 2010-01-20T01:13 | 23652 | 30 | -62.6 | -92.0 | 93 | 33 |
| 2010-01-20T01:14 | 23706 | 30 | -61.7 | -91.6 | 93 | 35 |
| 2010-01-20T01:14 | 23755 | 30 | -60.7 | -91.1 | 93 | 36 |
| 2010-01-20T01:14 | 23809 | 29 | -60.5 | -90.8 | 93 | 37 |
| 2010-01-20T01:14 | 23861 | 29 | -60.6 | -90.6 | 92 | 37 |
| 2010-01-20T01:14 | 23911 | 29 | -60.6 | -90.6 | 91 | 36 |
| 2010-01-20T01:14 | 23965 | 29 | -60.5 | -90.6 | 90 | 36 |
| 2010-01-20T01:15 | 24018 | 28 | -60.6 | -90.6 | 88 | 35 |
| 2010-01-20T01:15 | 24067 | 28 | -60.4 | -90.5 | 86 | 33 |
| 2010-01-20T01:15 | 24115 | 28 | -59.3 | -90.1 | 85 | 32 |
| 2010-01-20T01:15 | 24167 | 28 | -59.2 | -89.8 | 85 | 31 |
| 2010-01-20T01:15 | 24217 | 28 | -59.2 | -89.8 | 86 | 30 |
| 2010-01-20T01:15 | 24263 | 27 | -59.2 | -89.6 | 87 | 30 |
| 2010-01-20T01:16 | 24316 | 27 | -59.3 | -89.7 | 87 | 31 |
| 2010-01-20T01:16 | 24363 | 27 | -59.3 | -89.6 | 88 | 31 |
| 2010-01-20T01:16 | 24411 | 27 | -59.3 | -89.5 | 89 | 32 |
| 2010-01-20T01:16 | 24462 | 26 | -59.3 | -89.6 | 88 | 33 |
| 2010-01-20T01:16 | 24511 | 26 | -59.3 | -89.4 | 88 | 34 |
| 2010-01-20T01:16 | 24561 | 26 | -59.4 | -89.5 | 88 | 35 |
| 2010-01-20T01:17 | 24609 | 26 | -59.6 | -89.5 | 87 | 35 |
| 2010-01-20T01:17 | 24662 | 26 | -59.4 | -89.5 | 85 | 35 |
| 2010-01-20T01:17 | 24711 | 25 | -59.5 | -89.5 | 84 | 35 |
| 2010-01-20T01:17 | 24766 | 25 | -58.6 | -89.2 | 82 | 36 |
| 2010-01-20T01:17 | 24815 | 25 | -57.8 | -88.8 | 80 | 36 |
| 2010-01-20T01:17 | 24867 | 25 | -57.0 | -88.4 | 78 | 36 |
| 2010-01-20T01:18 | 24920 | 25 | -56.1 | -87.9 | 76 | 37 |
| 2010-01-20T01:18 | 24973 | 24 | -56.3 | -87.7 | 75 | 36 |
| 2010-01-20T01:18 | 25025 | 24 | -56.4 | -87.5 | 74 | 35 |
| 2010-01-20T01:18 | 25078 | 24 | -56.3 | -87.4 | 74 | 34 |
| 2010-01-20T01:18 | 25132 | 24 | -56.0 | -87.2 | 74 | 32 |
| 2010-01-20T01:18 | 25184 | 24 | -56.0 | -87.1 | 75 | 32 |
| 2010-01-20T01:19 | 25239 | 23 | -55.6 | -86.8 | 76 | 32 |
| 2010-01-20T01:19 | 25289 | 23 | -55.3 | -86.7 | 78 | 32 |
| 2010-01-20T01:19 | 25340 | 23 | -54.8 | -86.4 | 79 | 32 |
| 2010-01-20T01:19 | 25392 | 23 | -54.4 | -86.1 | 80 | 32 |
| 2010-01-20T01:19 | 25445 | 23 | -54.4 | -86.1 | 81 | 33 |
| 2010-01-20T01:19 | 25496 | 23 | -54.4 | -85.9 | 82 | 33 |
| 2010-01-20T01:20 | 25548 | 22 | -54.1 | -85.7 | 83 | 33 |
| 2010-01-20T01:20 | 25601 | 22 | -54.0 | -85.7 | 84 | 33 |
| 2010-01-20T01:20 | 25649 | 22 | -54.0 | -85.5 | 84 | 33 |
| 2010-01-20T01:20 | 25698 | 22 | -54.3 | -85.6 | 84 | 33 |
| 2010-01-20T01:20 | 25750 | 22 | -54.4 | -85.6 | 84 | 34 |
| 2010-01-20T01:20 | 25801 | 21 | -54.6 | -85.7 | 85 | 34 |
| 2010-01-20T01:21 | 25857 | 21 | -54.5 | -85.6 | 86 | 35 |
| 2010-01-20T01:21 | 25908 | 21 | -54.5 | -85.7 | 86 | 35 |
| 2010-01-20T01:21 | 25958 | 21 | -54.9 | -85.8 | 87 | 36 |
| 2010-01-20T01:21 | 26013 | 21 | -55.3 | -86.0 | 89 | 36 |
| 2010-01-20T01:21 | 26064 | 21 | -55.5 | -86.3 | 89 | 37 |
| 2010-01-20T01:21 | 26119 | 20 | -55.3 | -86.1 | 88 | 37 |
| 2010-01-20T01:22 | 26175 | 20 | -55.5 | -86.1 | 88 | 37 |
| 2010-01-20T01:22 | 26227 | 20 | -55.2 | -86.2 | 88 | 37 |
| 2010-01-20T01:22 | 26280 | 20 | -55.5 | -86.3 | 89 | 38 |
| 2010-01-20T01:22 | 26333 | 20 | -56.0 | -86.4 | 88 | 38 |
| 2010-01-20T01:22 | 26385 | 20 | -56.0 | -86.4 | 87 | 38 |
| 2010-01-20T01:22 | 26438 | 19 | -54.1 | -86.2 | 87 | 38 |
| 2010-01-20T01:23 | 26490 | 19 | -53.6 | -85.6 | 87 | 38 |
| 2010-01-20T01:23 | 26545 | 19 | -53.3 | -85.0 | 87 | 37 |
| 2010-01-20T01:23 | 26595 | 19 | -52.8 | -84.9 | 87 | 37 |
| 2010-01-20T01:23 | 26645 | 19 | -52.4 | -84.6 | 87 | 37 |
| 2010-01-20T01:23 | 26700 | 19 | -51.8 | -84.2 | 87 | 38 |
| 2010-01-20T01:23 | 26752 | 18 | -50.6 | -83.7 | 88 | 39 |
| 2010-01-20T01:24 | 26805 | 18 | -50.8 | -83.6 | 88 | 40 |
| 2010-01-20T01:24 | 26860 | 18 | -50.6 | -83.4 | 89 | 41 |
| 2010-01-20T01:24 | 26909 | 18 | -50.4 | -83.1 | 89 | 42 |
| 2010-01-20T01:24 | 26963 | 18 | -49.7 | -82.8 | 89 | 41 |
| 2010-01-20T01:24 | 27016 | 18 | -49.8 | -82.6 | 88 | 41 |
| 2010-01-20T01:24 | 27067 | 18 | -49.3 | -82.5 | 88 | 42 |
| 2010-01-20T01:25 | 27123 | 17 | -48.9 | -82.2 | 88 | 43 |
| 2010-01-20T01:25 | 27174 | 17 | -48.7 | -82.0 | 89 | 44 |
| 2010-01-20T01:25 | 27225 | 17 | -48.2 | -81.7 | 90 | 44 |
| 2010-01-20T01:25 | 27278 | 17 | -48.3 | -81.6 | 91 | 44 |
| 2010-01-20T01:25 | 27333 | 17 | -48.5 | -81.7 | 91 | 44 |
| 2010-01-20T01:25 | 27388 | 17 | -48.2 | -81.4 | 91 | 44 |
| 2010-01-20T01:26 | 27432 | 17 | -47.9 | -81.2 | 90 | 42 |
| 2010-01-20T01:26 | 27488 | 17 | -47.7 | -81.2 | 90 | 41 |
| 2010-01-20T01:26 | 27539 | 16 | -47.1 | -80.9 | 89 | 40 |
| 2010-01-20T01:26 | 27590 | 16 | -46.9 | -80.7 | 89 | 39 |
| 2010-01-20T01:26 | 27641 | 16 | -47.1 | -80.8 | 88 | 38 |
| 2010-01-20T01:26 | 27692 | 16 | -47.1 | -80.7 | 87 | 37 |
| 2010-01-20T01:27 | 27744 | 16 | -46.5 | -80.5 | 87 | 37 |
| 2010-01-20T01:27 | 27795 | 16 | -46.0 | -80.2 | 87 | 37 |
| 2010-01-20T01:27 | 27849 | 16 | -46.3 | -80.2 | 88 | 38 |
| 2010-01-20T01:27 | 27905 | 16 | -46.5 | -80.2 | 88 | 39 |
| 2010-01-20T01:27 | 27956 | 15 | -47.0 | -80.5 | 89 | 40 |
| 2010-01-20T01:27 | 28011 | 15 | -47.4 | -80.6 | 89 | 41 |
| 2010-01-20T01:28 | 28067 | 15 | -47.8 | -80.8 | 90 | 42 |
| 2010-01-20T01:28 | 28120 | 15 | -47.1 | -80.7 | 91 | 42 |
| 2010-01-20T01:28 | 28174 | 15 | -46.8 | -80.5 | 91 | 42 |
| 2010-01-20T01:28 | 28234 | 15 | -46.7 | -80.5 | 90 | 42 |
| 2010-01-20T01:28 | 28286 | 15 | -46.5 | -80.3 | 90 | 41 |
| 2010-01-20T01:28 | 28342 | 15 | -46.4 | -80.3 | 89 | 41 |
| 2010-01-20T01:29 | 28403 | 14 | -46.0 | -80.0 | 90 | 40 |
| 2010-01-20T01:29 | 28455 | 14 | -45.9 | -79.9 | 91 | 40 |
| 2010-01-20T01:29 | 28511 | 14 | -45.7 | -79.9 | 91 | 39 |
| 2010-01-20T01:29 | 28566 | 14 | -45.6 | -79.8 | 91 | 39 |
| 2010-01-20T01:29 | 28615 | 14 | -45.4 | -79.6 | 91 | 39 |
| 2010-01-20T01:29 | 28669 | 14 | -45.4 | -79.5 | 91 | 38 |
| 2010-01-20T01:30 | 28721 | 14 | -45.5 | -79.7 | 91 | 39 |
| 2010-01-20T01:30 | 28776 | 14 | -45.8 | -79.7 | 91 | 40 |
| 2010-01-20T01:30 | 28824 | 14 | -45.7 | -79.7 | 92 | 41 |
| 2010-01-20T01:30 | 28878 | 13 | -45.1 | -79.4 | 92 | 42 |
| 2010-01-20T01:30 | 28929 | 13 | -44.6 | -79.3 | 93 | 41 |
| 2010-01-20T01:30 | 28981 | 13 | -43.5 | -78.9 | 93 | 39 |
| 2010-01-20T01:31 | 29034 | 13 | -42.8 | -78.7 | 92 | 36 |
| 2010-01-20T01:31 | 29085 | 13 | -42.4 | -78.2 | 91 | 34 |
| 2010-01-20T01:31 | 29137 | 13 | -42.3 | -78.0 | 90 | 33 |
| 2010-01-20T11:30 | 4 | 1008 | 25.3 | 22.8 | 340 | 4 |
| 2010-01-20T11:30 | 13 | 1007 | 26.5 | 24.7 | 336 | 3 |
| 2010-01-20T11:30 | 22 | 1006 | 26.5 | 24.6 | 337 | 3 |
| 2010-01-20T11:30 | 31 | 1005 | 26.5 | 24.4 | 337 | 4 |
| 2010-01-20T11:30 | 39 | 1004 | 26.5 | 24.3 | 338 | 4 |
| 2010-01-20T11:30 | 48 | 1003 | 26.7 | 24.0 | 338 | 5 |
| 2010-01-20T11:30 | 57 | 1002 | 26.7 | 23.8 | 338 | 5 |
| 2010-01-20T11:30 | 67 | 1001 | 26.6 | 23.7 | 338 | 6 |
| 2010-01-20T11:30 | 77 | 1000 | 26.5 | 23.6 | 338 | 6 |
| 2010-01-20T11:30 | 86 | 999 | 26.5 | 23.5 | 338 | 7 |
| 2010-01-20T11:30 | 95 | 998 | 26.5 | 23.4 | 338 | 7 |
| 2010-01-20T11:30 | 104 | 997 | 26.5 | 23.3 | 338 | 8 |
| 2010-01-20T11:30 | 113 | 996 | 26.6 | 23.2 | 337 | 8 |
| 2010-01-20T11:30 | 123 | 995 | 26.6 | 23.1 | 337 | 8 |
| 2010-01-20T11:30 | 132 | 994 | 26.6 | 22.9 | 337 | 9 |
| 2010-01-20T11:30 | 141 | 993 | 26.7 | 22.8 | 336 | 9 |
| 2010-01-20T11:30 | 150 | 992 | 26.7 | 22.7 | 336 | 9 |
| 2010-01-20T11:30 | 159 | 991 | 26.8 | 22.6 | 336 | 10 |
| 2010-01-20T11:30 | 168 | 990 | 26.8 | 22.5 | 336 | 10 |
| 2010-01-20T11:30 | 177 | 989 | 26.8 | 22.4 | 336 | 10 |
| 2010-01-20T11:30 | 185 | 988 | 26.9 | 22.4 | 336 | 10 |
| 2010-01-20T11:30 | 194 | 987 | 26.9 | 22.5 | 336 | 10 |
| 2010-01-20T11:30 | 204 | 986 | 26.8 | 22.6 | 336 | 10 |
| 2010-01-20T11:30 | 214 | 985 | 26.7 | 22.8 | 336 | 10 |
| 2010-01-20T11:30 | 223 | 984 | 26.6 | 22.9 | 336 | 10 |
| 2010-01-20T11:30 | 231 | 983 | 26.6 | 23.0 | 336 | 11 |
| 2010-01-20T11:30 | 237 | 982 | 26.5 | 22.9 | 336 | 11 |
| 2010-01-20T11:30 | 245 | 981 | 26.5 | 22.8 | 335 | 11 |
| 2010-01-20T11:30 | 253 | 980 | 26.5 | 22.7 | 335 | 11 |
| 2010-01-20T11:30 | 260 | 980 | 26.6 | 22.5 | 335 | 11 |
| 2010-01-20T11:31 | 267 | 979 | 26.6 | 22.3 | 335 | 11 |
| 2010-01-20T11:31 | 275 | 978 | 26.6 | 22.3 | 334 | 11 |
| 2010-01-20T11:31 | 284 | 977 | 26.5 | 22.2 | 334 | 11 |
| 2010-01-20T11:31 | 294 | 976 | 26.5 | 22.1 | 334 | 11 |
| 2010-01-20T11:31 | 303 | 975 | 26.4 | 22.0 | 334 | 11 |
| 2010-01-20T11:31 | 313 | 974 | 26.3 | 21.9 | 334 | 11 |
| 2010-01-20T11:31 | 323 | 973 | 26.3 | 21.8 | 334 | 11 |
| 2010-01-20T11:31 | 332 | 972 | 26.2 | 21.8 | 334 | 11 |
| 2010-01-20T11:31 | 342 | 971 | 26.1 | 21.7 | 334 | 11 |
| 2010-01-20T11:31 | 350 | 970 | 26.0 | 21.7 | 334 | 11 |
| 2010-01-20T11:31 | 355 | 969 | 26.0 | 21.7 | 335 | 11 |
| 2010-01-20T11:31 | 361 | 968 | 25.9 | 21.6 | 335 | 11 |
| 2010-01-20T11:31 | 369 | 968 | 25.9 | 21.5 | 335 | 11 |
| 2010-01-20T11:31 | 377 | 967 | 25.8 | 21.6 | 335 | 11 |
| 2010-01-20T11:31 | 384 | 966 | 25.7 | 21.7 | 335 | 11 |
| 2010-01-20T11:31 | 391 | 965 | 25.7 | 21.7 | 335 | 11 |
| 2010-01-20T11:31 | 398 | 964 | 25.6 | 21.7 | 335 | 11 |
| 2010-01-20T11:31 | 405 | 964 | 25.6 | 21.6 | 335 | 11 |
| 2010-01-20T11:31 | 411 | 963 | 25.5 | 21.6 | 335 | 11 |
| 2010-01-20T11:31 | 417 | 962 | 25.5 | 21.6 | 335 | 11 |
| 2010-01-20T11:31 | 422 | 962 | 25.4 | 21.6 | 335 | 11 |
| 2010-01-20T11:31 | 428 | 961 | 25.4 | 21.6 | 335 | 11 |
| 2010-01-20T11:31 | 433 | 961 | 25.3 | 21.5 | 334 | 11 |
| 2010-01-20T11:31 | 438 | 960 | 25.3 | 21.5 | 334 | 11 |
| 2010-01-20T11:31 | 444 | 959 | 25.2 | 21.5 | 334 | 11 |
| 2010-01-20T11:31 | 450 | 959 | 25.2 | 21.5 | 334 | 10 |
| 2010-01-20T11:31 | 457 | 958 | 25.1 | 21.6 | 333 | 10 |
| 2010-01-20T11:31 | 463 | 957 | 25.0 | 21.7 | 333 | 10 |
| 2010-01-20T11:31 | 470 | 957 | 25.0 | 21.9 | 333 | 10 |
| 2010-01-20T11:31 | 478 | 956 | 24.9 | 22.0 | 333 | 10 |
| 2010-01-20T11:32 | 485 | 955 | 24.8 | 22.0 | 332 | 10 |
| 2010-01-20T11:32 | 493 | 954 | 24.7 | 22.0 | 332 | 10 |
| 2010-01-20T11:32 | 500 | 953 | 24.6 | 22.1 | 332 | 10 |
| 2010-01-20T11:32 | 507 | 953 | 24.6 | 22.1 | 331 | 10 |
| 2010-01-20T11:32 | 514 | 952 | 24.5 | 22.1 | 331 | 10 |
| 2010-01-20T11:32 | 520 | 951 | 24.5 | 22.1 | 331 | 10 |
| 2010-01-20T11:32 | 526 | 950 | 24.4 | 22.1 | 331 | 10 |
| 2010-01-20T11:32 | 533 | 950 | 24.3 | 22.1 | 330 | 10 |
| 2010-01-20T11:32 | 539 | 949 | 24.3 | 22.1 | 330 | 10 |
| 2010-01-20T11:32 | 546 | 948 | 24.2 | 22.0 | 330 | 11 |
| 2010-01-20T11:32 | 553 | 948 | 24.1 | 22.0 | 329 | 11 |
| 2010-01-20T11:32 | 558 | 947 | 24.1 | 22.0 | 329 | 11 |
| 2010-01-20T11:32 | 565 | 946 | 24.0 | 22.0 | 329 | 11 |
| 2010-01-20T11:32 | 571 | 946 | 24.0 | 22.0 | 328 | 11 |
| 2010-01-20T11:32 | 578 | 945 | 23.9 | 22.0 | 328 | 11 |
| 2010-01-20T11:32 | 587 | 944 | 23.8 | 22.0 | 328 | 11 |
| 2010-01-20T11:32 | 597 | 943 | 23.8 | 21.9 | 328 | 11 |
| 2010-01-20T11:32 | 607 | 942 | 23.7 | 21.8 | 328 | 11 |
| 2010-01-20T11:32 | 616 | 941 | 23.7 | 21.7 | 327 | 11 |
| 2010-01-20T11:32 | 625 | 940 | 23.6 | 21.6 | 327 | 11 |
| 2010-01-20T11:32 | 636 | 939 | 23.6 | 21.5 | 327 | 11 |
| 2010-01-20T11:32 | 646 | 938 | 23.6 | 21.4 | 327 | 11 |
| 2010-01-20T11:32 | 656 | 937 | 23.5 | 21.3 | 327 | 11 |
| 2010-01-20T11:32 | 665 | 936 | 23.5 | 21.2 | 327 | 11 |
| 2010-01-20T11:32 | 675 | 935 | 23.4 | 21.1 | 327 | 11 |
| 2010-01-20T11:32 | 686 | 933 | 23.4 | 20.9 | 327 | 11 |
| 2010-01-20T11:32 | 695 | 932 | 23.4 | 20.7 | 327 | 11 |
| 2010-01-20T11:32 | 705 | 931 | 23.3 | 20.6 | 327 | 11 |
| 2010-01-20T11:32 | 715 | 930 | 23.2 | 20.6 | 326 | 11 |
| 2010-01-20T11:32 | 724 | 929 | 23.1 | 20.5 | 326 | 11 |
| 2010-01-20T11:33 | 734 | 928 | 23.0 | 20.5 | 326 | 11 |
| 2010-01-20T11:33 | 744 | 927 | 22.9 | 20.4 | 325 | 11 |
| 2010-01-20T11:33 | 754 | 926 | 22.8 | 20.4 | 325 | 11 |
| 2010-01-20T11:33 | 763 | 925 | 22.8 | 20.4 | 324 | 11 |
| 2010-01-20T11:33 | 772 | 924 | 22.7 | 20.3 | 324 | 11 |
| 2010-01-20T11:33 | 781 | 923 | 22.6 | 20.3 | 323 | 11 |
| 2010-01-20T11:33 | 789 | 922 | 22.5 | 20.2 | 323 | 11 |
| 2010-01-20T11:33 | 797 | 922 | 22.5 | 20.0 | 323 | 11 |
| 2010-01-20T11:33 | 805 | 921 | 22.5 | 19.6 | 323 | 11 |
| 2010-01-20T11:33 | 811 | 920 | 22.6 | 19.5 | 322 | 11 |
| 2010-01-20T11:33 | 817 | 920 | 22.5 | 19.4 | 322 | 11 |
| 2010-01-20T11:33 | 823 | 919 | 22.5 | 19.3 | 322 | 11 |
| 2010-01-20T11:33 | 830 | 918 | 22.4 | 19.3 | 322 | 11 |
| 2010-01-20T11:33 | 838 | 917 | 22.4 | 19.3 | 322 | 11 |
| 2010-01-20T11:33 | 846 | 917 | 22.3 | 19.2 | 322 | 11 |
| 2010-01-20T11:33 | 855 | 916 | 22.2 | 19.3 | 322 | 11 |
| 2010-01-20T11:33 | 865 | 914 | 22.1 | 19.4 | 323 | 11 |
| 2010-01-20T11:33 | 876 | 913 | 22.0 | 19.4 | 323 | 11 |
| 2010-01-20T11:33 | 885 | 912 | 21.9 | 19.4 | 323 | 11 |
| 2010-01-20T11:33 | 894 | 911 | 21.8 | 19.4 | 323 | 10 |
| 2010-01-20T11:33 | 903 | 910 | 21.8 | 19.3 | 323 | 10 |
| 2010-01-20T11:33 | 915 | 909 | 21.6 | 19.2 | 323 | 10 |
| 2010-01-20T11:33 | 926 | 908 | 21.5 | 19.3 | 324 | 10 |
| 2010-01-20T11:33 | 935 | 907 | 21.4 | 19.3 | 324 | 10 |
| 2010-01-20T11:33 | 942 | 906 | 21.3 | 19.3 | 324 | 10 |
| 2010-01-20T11:33 | 949 | 906 | 21.3 | 19.5 | 324 | 10 |
| 2010-01-20T11:33 | 957 | 905 | 21.2 | 19.6 | 324 | 10 |
| 2010-01-20T11:33 | 965 | 904 | 21.1 | 19.6 | 324 | 10 |
| 2010-01-20T11:33 | 973 | 903 | 21.0 | 19.6 | 324 | 10 |
| 2010-01-20T11:33 | 981 | 902 | 20.9 | 19.6 | 324 | 10 |
| 2010-01-20T11:34 | 989 | 902 | 20.9 | 19.6 | 324 | 10 |
| 2010-01-20T11:34 | 995 | 901 | 20.8 | 19.6 | 324 | 10 |
| 2010-01-20T11:34 | 1001 | 900 | 20.7 | 19.6 | 323 | 10 |
| 2010-01-20T11:34 | 1008 | 900 | 20.7 | 19.6 | 323 | 10 |
| 2010-01-20T11:34 | 1017 | 899 | 20.6 | 19.6 | 323 | 10 |
| 2010-01-20T11:34 | 1025 | 898 | 20.6 | 19.6 | 323 | 10 |
| 2010-01-20T11:34 | 1033 | 897 | 20.5 | 19.6 | 323 | 10 |
| 2010-01-20T11:34 | 1043 | 896 | 20.5 | 19.6 | 322 | 10 |
| 2010-01-20T11:34 | 1052 | 895 | 20.4 | 19.6 | 322 | 10 |
| 2010-01-20T11:34 | 1062 | 894 | 20.3 | 19.6 | 321 | 10 |
| 2010-01-20T11:34 | 1073 | 893 | 20.3 | 19.6 | 321 | 10 |
| 2010-01-20T11:34 | 1083 | 892 | 20.2 | 19.6 | 320 | 10 |
| 2010-01-20T11:34 | 1093 | 891 | 20.1 | 19.5 | 319 | 10 |
| 2010-01-20T11:34 | 1102 | 890 | 20.0 | 19.5 | 319 | 10 |
| 2010-01-20T11:34 | 1113 | 889 | 19.9 | 19.5 | 318 | 10 |
| 2010-01-20T11:34 | 1123 | 888 | 19.8 | 19.4 | 318 | 10 |
| 2010-01-20T11:34 | 1132 | 887 | 19.8 | 19.4 | 317 | 10 |
| 2010-01-20T11:34 | 1140 | 886 | 19.7 | 19.4 | 317 | 10 |
| 2010-01-20T11:34 | 1148 | 885 | 19.6 | 19.4 | 317 | 10 |
| 2010-01-20T11:34 | 1155 | 884 | 19.6 | 19.4 | 316 | 10 |
| 2010-01-20T11:34 | 1162 | 884 | 19.5 | 19.4 | 316 | 10 |
| 2010-01-20T11:34 | 1168 | 883 | 19.5 | 19.4 | 316 | 10 |
| 2010-01-20T11:34 | 1174 | 883 | 19.4 | 19.4 | 316 | 10 |
| 2010-01-20T11:34 | 1181 | 882 | 19.4 | 19.4 | 316 | 10 |
| 2010-01-20T11:34 | 1188 | 881 | 19.4 | 19.4 | 316 | 10 |
| 2010-01-20T11:34 | 1194 | 880 | 19.3 | 19.3 | 315 | 10 |
| 2010-01-20T11:34 | 1200 | 880 | 19.3 | 19.3 | 315 | 10 |
| 2010-01-20T11:34 | 1207 | 879 | 19.3 | 19.3 | 315 | 10 |
| 2010-01-20T11:34 | 1214 | 878 | 19.3 | 19.3 | 315 | 10 |
| 2010-01-20T11:34 | 1221 | 878 | 19.2 | 19.2 | 314 | 10 |
| 2010-01-20T11:35 | 1227 | 877 | 19.2 | 19.2 | 314 | 10 |
| 2010-01-20T11:35 | 1233 | 876 | 19.2 | 19.1 | 314 | 10 |
| 2010-01-20T11:35 | 1240 | 876 | 19.3 | 18.9 | 314 | 10 |
| 2010-01-20T11:35 | 1247 | 875 | 19.4 | 18.7 | 313 | 10 |
| 2010-01-20T11:35 | 1254 | 874 | 19.4 | 18.7 | 313 | 10 |
| 2010-01-20T11:35 | 1260 | 874 | 19.4 | 18.7 | 313 | 10 |
| 2010-01-20T11:35 | 1267 | 873 | 19.3 | 18.6 | 313 | 10 |
| 2010-01-20T11:35 | 1275 | 872 | 19.2 | 18.6 | 313 | 10 |
| 2010-01-20T11:35 | 1282 | 872 | 19.2 | 18.6 | 313 | 10 |
| 2010-01-20T11:35 | 1289 | 871 | 19.2 | 18.5 | 313 | 10 |
| 2010-01-20T11:35 | 1297 | 870 | 19.2 | 18.5 | 312 | 10 |
| 2010-01-20T11:35 | 1306 | 869 | 19.2 | 18.4 | 312 | 10 |
| 2010-01-20T11:35 | 1315 | 868 | 19.1 | 18.4 | 312 | 10 |
| 2010-01-20T11:35 | 1324 | 867 | 19.0 | 18.3 | 312 | 10 |
| 2010-01-20T11:35 | 1333 | 866 | 19.0 | 18.3 | 311 | 10 |
| 2010-01-20T11:35 | 1342 | 866 | 19.0 | 18.2 | 311 | 10 |
| 2010-01-20T11:35 | 1352 | 864 | 18.9 | 18.2 | 311 | 10 |
| 2010-01-20T11:35 | 1363 | 863 | 18.9 | 18.1 | 310 | 10 |
| 2010-01-20T11:35 | 1373 | 862 | 18.8 | 18.0 | 310 | 10 |
| 2010-01-20T11:35 | 1381 | 862 | 18.9 | 18.0 | 310 | 10 |
| 2010-01-20T11:35 | 1389 | 861 | 19.1 | 17.9 | 309 | 10 |
| 2010-01-20T11:35 | 1397 | 860 | 19.3 | 17.7 | 309 | 10 |
| 2010-01-20T11:35 | 1404 | 859 | 19.4 | 17.5 | 309 | 10 |
| 2010-01-20T11:35 | 1412 | 859 | 19.4 | 17.4 | 308 | 10 |
| 2010-01-20T11:35 | 1420 | 858 | 19.4 | 17.3 | 308 | 10 |
| 2010-01-20T11:35 | 1428 | 857 | 19.3 | 17.1 | 307 | 10 |
| 2010-01-20T11:35 | 1436 | 856 | 19.3 | 17.1 | 307 | 10 |
| 2010-01-20T11:35 | 1446 | 855 | 19.3 | 16.9 | 306 | 10 |
| 2010-01-20T11:35 | 1456 | 854 | 19.2 | 16.8 | 306 | 10 |
| 2010-01-20T11:35 | 1464 | 853 | 19.2 | 16.6 | 305 | 10 |
| 2010-01-20T11:36 | 1474 | 852 | 19.2 | 16.4 | 304 | 10 |
| 2010-01-20T11:36 | 1486 | 851 | 19.3 | 16.1 | 303 | 10 |
| 2010-01-20T11:36 | 1499 | 850 | 19.3 | 16.0 | 302 | 10 |
| 2010-01-20T11:36 | 1512 | 849 | 19.2 | 15.9 | 301 | 9 |
| 2010-01-20T11:36 | 1524 | 847 | 19.2 | 15.7 | 299 | 9 |
| 2010-01-20T11:36 | 1536 | 846 | 19.3 | 15.4 | 298 | 9 |
| 2010-01-20T11:36 | 1548 | 845 | 19.3 | 15.3 | 297 | 9 |
| 2010-01-20T11:36 | 1558 | 844 | 19.4 | 15.1 | 296 | 9 |
| 2010-01-20T11:36 | 1570 | 843 | 19.4 | 14.9 | 295 | 9 |
| 2010-01-20T11:36 | 1581 | 842 | 19.3 | 14.8 | 294 | 9 |
| 2010-01-20T11:36 | 1590 | 841 | 19.3 | 14.8 | 293 | 9 |
| 2010-01-20T11:36 | 1600 | 840 | 19.2 | 14.8 | 292 | 8 |
| 2010-01-20T11:36 | 1610 | 839 | 19.4 | 14.7 | 291 | 8 |
| 2010-01-20T11:36 | 1619 | 838 | 19.4 | 14.6 | 290 | 8 |
| 2010-01-20T11:36 | 1630 | 837 | 19.4 | 14.5 | 289 | 8 |
| 2010-01-20T11:36 | 1641 | 836 | 19.3 | 14.4 | 289 | 8 |
| 2010-01-20T11:36 | 1653 | 835 | 19.2 | 14.3 | 288 | 8 |
| 2010-01-20T11:36 | 1665 | 834 | 19.1 | 14.3 | 287 | 8 |
| 2010-01-20T11:36 | 1677 | 833 | 19.0 | 14.2 | 286 | 8 |
| 2010-01-20T11:36 | 1689 | 831 | 18.9 | 14.1 | 286 | 8 |
| 2010-01-20T11:36 | 1700 | 830 | 18.8 | 14.2 | 285 | 8 |
| 2010-01-20T11:36 | 1710 | 829 | 18.7 | 14.2 | 284 | 8 |
| 2010-01-20T11:36 | 1719 | 829 | 18.6 | 14.1 | 284 | 8 |
| 2010-01-20T11:36 | 1728 | 828 | 18.5 | 14.1 | 283 | 8 |
| 2010-01-20T11:36 | 1738 | 827 | 18.4 | 14.1 | 282 | 8 |
| 2010-01-20T11:36 | 1746 | 826 | 18.3 | 14.0 | 282 | 8 |
| 2010-01-20T11:36 | 1755 | 825 | 18.2 | 13.9 | 281 | 8 |
| 2010-01-20T11:36 | 1765 | 824 | 18.1 | 13.8 | 280 | 8 |
| 2010-01-20T11:36 | 1776 | 823 | 18.0 | 13.8 | 279 | 8 |
| 2010-01-20T11:36 | 1785 | 822 | 17.9 | 13.9 | 278 | 8 |
| 2010-01-20T11:37 | 1792 | 822 | 17.9 | 14.0 | 277 | 8 |
| 2010-01-20T11:37 | 1797 | 821 | 17.9 | 14.1 | 276 | 8 |
| 2010-01-20T11:37 | 1804 | 820 | 17.9 | 14.1 | 275 | 8 |
| 2010-01-20T11:37 | 1810 | 820 | 17.9 | 14.1 | 274 | 8 |
| 2010-01-20T11:37 | 1816 | 819 | 17.8 | 14.1 | 273 | 8 |
| 2010-01-20T11:37 | 1822 | 819 | 17.8 | 14.2 | 272 | 8 |
| 2010-01-20T11:37 | 1829 | 818 | 17.8 | 14.3 | 272 | 8 |
| 2010-01-20T11:37 | 1835 | 817 | 17.8 | 14.3 | 271 | 8 |
| 2010-01-20T11:37 | 1841 | 817 | 17.8 | 14.4 | 271 | 8 |
| 2010-01-20T11:37 | 1848 | 816 | 17.7 | 14.3 | 271 | 8 |
| 2010-01-20T11:37 | 1854 | 816 | 17.7 | 14.3 | 271 | 8 |
| 2010-01-20T11:37 | 1861 | 815 | 17.6 | 14.3 | 271 | 8 |
| 2010-01-20T11:37 | 1866 | 814 | 17.6 | 14.3 | 271 | 8 |
| 2010-01-20T11:37 | 1872 | 814 | 17.5 | 14.3 | 271 | 8 |
| 2010-01-20T11:37 | 1879 | 813 | 17.5 | 14.3 | 271 | 8 |
| 2010-01-20T11:37 | 1886 | 813 | 17.4 | 14.3 | 271 | 8 |
| 2010-01-20T11:37 | 1892 | 812 | 17.4 | 14.3 | 271 | 8 |
| 2010-01-20T11:37 | 1898 | 811 | 17.5 | 14.2 | 271 | 8 |
| 2010-01-20T11:37 | 1906 | 811 | 17.5 | 14.0 | 271 | 8 |
| 2010-01-20T11:37 | 1915 | 810 | 17.5 | 13.9 | 271 | 8 |
| 2010-01-20T11:37 | 1923 | 809 | 17.5 | 13.6 | 272 | 8 |
| 2010-01-20T11:37 | 1932 | 808 | 17.5 | 13.4 | 272 | 9 |
| 2010-01-20T11:37 | 1940 | 807 | 17.5 | 13.1 | 272 | 9 |
| 2010-01-20T11:37 | 1948 | 807 | 17.5 | 12.9 | 272 | 9 |
| 2010-01-20T11:37 | 1955 | 806 | 17.4 | 12.8 | 272 | 9 |
| 2010-01-20T11:37 | 1962 | 805 | 17.4 | 12.7 | 271 | 9 |
| 2010-01-20T11:37 | 1970 | 805 | 17.3 | 12.6 | 271 | 9 |
| 2010-01-20T11:37 | 1977 | 804 | 17.2 | 12.5 | 271 | 10 |
| 2010-01-20T11:37 | 1983 | 803 | 17.2 | 12.5 | 271 | 10 |
| 2010-01-20T11:37 | 1990 | 803 | 17.1 | 12.4 | 270 | 10 |
| 2010-01-20T11:38 | 1997 | 802 | 17.1 | 12.3 | 270 | 10 |
| 2010-01-20T11:38 | 2031 | 799 | 16.8 | 12.1 | 267 | 10 |
| 2010-01-20T11:38 | 2066 | 796 | 16.6 | 11.2 | 267 | 11 |
| 2010-01-20T11:38 | 2108 | 792 | 16.6 | 10.4 | 270 | 11 |
| 2010-01-20T11:38 | 2153 | 788 | 16.8 | 10.1 | 273 | 11 |
| 2010-01-20T11:38 | 2192 | 784 | 16.5 | 10.8 | 274 | 10 |
| 2010-01-20T11:39 | 2236 | 780 | 16.0 | 11.2 | 274 | 10 |
| 2010-01-20T11:39 | 2279 | 776 | 15.6 | 11.3 | 273 | 10 |
| 2010-01-20T11:39 | 2310 | 773 | 15.4 | 11.5 | 272 | 10 |
| 2010-01-20T11:39 | 2339 | 771 | 15.6 | 11.1 | 272 | 10 |
| 2010-01-20T11:39 | 2369 | 768 | 15.6 | 10.6 | 272 | 10 |
| 2010-01-20T11:39 | 2402 | 765 | 15.5 | 9.9 | 272 | 9 |
| 2010-01-20T11:40 | 2434 | 762 | 15.4 | 8.8 | 272 | 9 |
| 2010-01-20T11:40 | 2467 | 759 | 15.3 | 8.9 | 272 | 9 |
| 2010-01-20T11:40 | 2500 | 756 | 15.2 | 8.1 | 273 | 9 |
| 2010-01-20T11:40 | 2534 | 753 | 15.0 | 7.8 | 274 | 9 |
| 2010-01-20T11:40 | 2570 | 750 | 14.9 | 6.2 | 275 | 9 |
| 2010-01-20T11:40 | 2607 | 747 | 14.5 | 7.1 | 275 | 9 |
| 2010-01-20T11:41 | 2642 | 744 | 14.5 | 6.5 | 273 | 9 |
| 2010-01-20T11:41 | 2676 | 741 | 14.4 | 6.6 | 272 | 9 |
| 2010-01-20T11:41 | 2711 | 737 | 14.2 | 6.6 | 272 | 9 |
| 2010-01-20T11:41 | 2748 | 734 | 13.9 | 7.7 | 273 | 9 |
| 2010-01-20T11:41 | 2786 | 731 | 13.7 | 6.7 | 272 | 10 |
| 2010-01-20T11:41 | 2826 | 728 | 13.7 | 6.3 | 270 | 10 |
| 2010-01-20T11:42 | 2874 | 723 | 13.4 | 5.8 | 269 | 11 |
| 2010-01-20T11:42 | 2918 | 720 | 13.1 | 6.2 | 270 | 11 |
| 2010-01-20T11:42 | 2960 | 716 | 12.7 | 6.8 | 270 | 12 |
| 2010-01-20T11:42 | 3000 | 713 | 12.4 | 6.6 | 268 | 12 |
| 2010-01-20T11:42 | 3046 | 709 | 12.0 | 6.6 | 267 | 12 |
| 2010-01-20T11:42 | 3093 | 705 | 11.8 | 5.3 | 267 | 11 |
| 2010-01-20T11:43 | 3132 | 701 | 11.5 | 4.5 | 267 | 12 |
| 2010-01-20T11:43 | 3164 | 699 | 11.3 | 4.2 | 268 | 12 |
| 2010-01-20T11:43 | 3197 | 696 | 11.1 | 4.1 | 268 | 12 |
| 2010-01-20T11:43 | 3231 | 693 | 10.7 | 4.4 | 268 | 12 |
| 2010-01-20T11:43 | 3269 | 690 | 10.5 | 5.2 | 266 | 12 |
| 2010-01-20T11:43 | 3312 | 687 | 10.2 | 5.5 | 266 | 12 |
| 2010-01-20T11:44 | 3349 | 684 | 10.2 | 3.9 | 267 | 12 |
| 2010-01-20T11:44 | 3386 | 681 | 9.9 | 3.7 | 267 | 12 |
| 2010-01-20T11:44 | 3427 | 677 | 9.9 | 4.0 | 266 | 12 |
| 2010-01-20T11:44 | 3464 | 674 | 9.8 | 3.2 | 265 | 13 |
| 2010-01-20T11:44 | 3506 | 671 | 9.4 | 2.8 | 263 | 13 |
| 2010-01-20T11:44 | 3550 | 667 | 9.4 | 2.2 | 261 | 13 |
| 2010-01-20T11:45 | 3589 | 664 | 9.1 | 2.3 | 259 | 14 |
| 2010-01-20T11:45 | 3626 | 661 | 8.8 | 2.1 | 259 | 14 |
| 2010-01-20T11:45 | 3662 | 658 | 8.5 | 2.3 | 259 | 14 |
| 2010-01-20T11:45 | 3696 | 656 | 8.3 | 2.1 | 259 | 14 |
| 2010-01-20T11:45 | 3728 | 653 | 8.1 | 1.3 | 260 | 14 |
| 2010-01-20T11:45 | 3762 | 650 | 7.8 | 1.0 | 260 | 14 |
| 2010-01-20T11:46 | 3792 | 648 | 7.6 | 0.7 | 260 | 14 |
| 2010-01-20T11:46 | 3824 | 645 | 7.5 | 1.2 | 258 | 13 |
| 2010-01-20T11:46 | 3863 | 642 | 7.5 | 1.3 | 258 | 13 |
| 2010-01-20T11:46 | 3907 | 639 | 7.4 | 2.0 | 259 | 12 |
| 2010-01-20T11:46 | 3952 | 636 | 7.3 | 1.0 | 258 | 11 |
| 2010-01-20T11:46 | 3991 | 633 | 7.0 | 0.9 | 254 | 11 |
| 2010-01-20T11:47 | 4029 | 630 | 6.8 | 0.4 | 251 | 11 |
| 2010-01-20T11:47 | 4062 | 627 | 6.5 | 0.2 | 249 | 12 |
| 2010-01-20T11:47 | 4093 | 625 | 6.3 | 0.6 | 249 | 12 |
| 2010-01-20T11:47 | 4124 | 622 | 6.0 | 0.7 | 248 | 12 |
| 2010-01-20T11:47 | 4156 | 620 | 5.8 | 0.3 | 247 | 11 |
| 2010-01-20T11:47 | 4193 | 617 | 5.5 | 0.1 | 245 | 10 |
| 2010-01-20T11:48 | 4225 | 615 | 5.3 | -0.5 | 243 | 10 |
| 2010-01-20T11:48 | 4262 | 612 | 5.0 | -0.6 | 242 | 10 |
| 2010-01-20T11:48 | 4297 | 609 | 4.7 | -0.5 | 241 | 10 |
| 2010-01-20T11:48 | 4329 | 607 | 4.5 | -0.3 | 242 | 9 |
| 2010-01-20T11:48 | 4370 | 604 | 4.4 | -0.3 | 243 | 9 |
| 2010-01-20T11:48 | 4410 | 601 | 4.1 | 0.3 | 244 | 9 |
| 2010-01-20T11:49 | 4453 | 598 | 3.8 | 0.2 | 246 | 8 |
| 2010-01-20T11:49 | 4504 | 594 | 3.6 | 0.1 | 249 | 9 |
| 2010-01-20T11:49 | 4556 | 590 | 3.3 | -1.0 | 253 | 9 |
| 2010-01-20T11:49 | 4607 | 587 | 2.8 | -1.5 | 257 | 9 |
| 2010-01-20T11:49 | 4662 | 583 | 2.3 | -1.3 | 258 | 9 |
| 2010-01-20T11:49 | 4714 | 579 | 1.9 | -1.9 | 256 | 9 |
| 2010-01-20T11:50 | 4771 | 575 | 1.4 | -1.8 | 255 | 9 |
| 2010-01-20T11:50 | 4827 | 571 | 0.9 | -1.4 | 255 | 9 |
| 2010-01-20T11:50 | 4889 | 566 | 0.3 | -2.7 | 252 | 8 |
| 2010-01-20T11:50 | 4948 | 562 | -0.1 | -3.8 | 248 | 9 |
| 2010-01-20T11:50 | 5005 | 558 | -0.5 | -4.4 | 250 | 9 |
| 2010-01-20T11:50 | 5062 | 554 | -0.6 | -2.8 | 256 | 8 |
| 2010-01-20T11:51 | 5118 | 550 | -0.9 | -3.1 | 259 | 8 |
| 2010-01-20T11:51 | 5183 | 546 | -1.3 | -3.7 | 257 | 8 |
| 2010-01-20T11:51 | 5234 | 543 | -1.6 | -3.9 | 254 | 7 |
| 2010-01-20T11:51 | 5280 | 539 | -1.9 | -4.1 | 252 | 7 |
| 2010-01-20T11:51 | 5326 | 536 | -2.1 | -4.7 | 254 | 7 |
| 2010-01-20T11:51 | 5374 | 533 | -2.3 | -4.6 | 257 | 7 |
| 2010-01-20T11:52 | 5421 | 530 | -2.3 | -4.4 | 261 | 7 |
| 2010-01-20T11:52 | 5469 | 527 | -2.4 | -4.3 | 263 | 6 |
| 2010-01-20T11:52 | 5519 | 523 | -2.5 | -4.3 | 263 | 6 |
| 2010-01-20T11:52 | 5569 | 520 | -2.8 | -5.0 | 262 | 7 |
| 2010-01-20T11:52 | 5621 | 517 | -3.2 | -5.3 | 262 | 7 |
| 2010-01-20T11:52 | 5683 | 513 | -3.6 | -5.4 | 266 | 8 |
| 2010-01-20T11:53 | 5731 | 510 | -3.9 | -5.4 | 271 | 8 |
| 2010-01-20T11:53 | 5781 | 506 | -4.1 | -5.4 | 277 | 8 |
| 2010-01-20T11:53 | 5831 | 503 | -4.4 | -5.7 | 280 | 8 |
| 2010-01-20T11:53 | 5881 | 500 | -4.6 | -5.9 | 282 | 8 |
| 2010-01-20T11:53 | 5935 | 497 | -4.8 | -6.1 | 283 | 8 |
| 2010-01-20T11:53 | 5993 | 493 | -5.0 | -6.4 | 282 | 9 |
| 2010-01-20T11:54 | 6042 | 490 | -5.3 | -6.7 | 281 | 9 |
| 2010-01-20T11:54 | 6096 | 487 | -5.6 | -7.0 | 278 | 8 |
| 2010-01-20T11:54 | 6145 | 484 | -5.9 | -7.2 | 276 | 8 |
| 2010-01-20T11:54 | 6194 | 481 | -6.2 | -7.6 | 276 | 8 |
| 2010-01-20T11:54 | 6241 | 478 | -6.5 | -8.0 | 276 | 8 |
| 2010-01-20T11:54 | 6298 | 474 | -6.7 | -8.1 | 275 | 8 |
| 2010-01-20T11:55 | 6350 | 471 | -7.0 | -8.6 | 272 | 8 |
| 2010-01-20T11:55 | 6399 | 468 | -7.3 | -9.0 | 268 | 8 |
| 2010-01-20T11:55 | 6443 | 465 | -7.5 | -9.3 | 264 | 8 |
| 2010-01-20T11:55 | 6491 | 463 | -7.7 | -9.8 | 259 | 8 |
| 2010-01-20T11:55 | 6540 | 460 | -8.0 | -10.2 | 255 | 8 |
| 2010-01-20T11:55 | 6592 | 457 | -8.2 | -10.6 | 252 | 8 |
| 2010-01-20T11:56 | 6644 | 454 | -8.6 | -11.0 | 252 | 8 |
| 2010-01-20T11:56 | 6699 | 450 | -8.9 | -11.1 | 254 | 8 |
| 2010-01-20T11:56 | 6758 | 447 | -9.3 | -11.3 | 258 | 7 |
| 2010-01-20T11:56 | 6815 | 444 | -9.8 | -11.6 | 261 | 7 |
| 2010-01-20T11:56 | 6877 | 440 | -10.1 | -12.0 | 263 | 7 |
| 2010-01-20T11:56 | 6932 | 437 | -10.4 | -12.7 | 261 | 7 |
| 2010-01-20T11:57 | 6988 | 434 | -10.6 | -13.1 | 259 | 7 |
| 2010-01-20T11:57 | 7042 | 431 | -10.8 | -13.6 | 257 | 7 |
| 2010-01-20T11:57 | 7095 | 428 | -11.1 | -14.2 | 258 | 6 |
| 2010-01-20T11:57 | 7150 | 425 | -11.4 | -14.7 | 258 | 6 |
| 2010-01-20T11:57 | 7206 | 422 | -11.9 | -15.0 | 256 | 6 |
| 2010-01-20T11:57 | 7260 | 419 | -12.3 | -15.3 | 255 | 5 |
| 2010-01-20T11:58 | 7320 | 415 | -12.8 | -15.4 | 257 | 5 |
| 2010-01-20T11:58 | 7374 | 413 | -13.2 | -15.5 | 263 | 4 |
| 2010-01-20T11:58 | 7434 | 409 | -13.7 | -15.8 | 270 | 5 |
| 2010-01-20T11:58 | 7489 | 406 | -14.0 | -16.1 | 273 | 5 |
| 2010-01-20T11:58 | 7542 | 404 | -14.4 | -16.4 | 272 | 5 |
| 2010-01-20T11:58 | 7603 | 400 | -14.8 | -16.8 | 271 | 5 |
| 2010-01-20T11:59 | 7658 | 397 | -15.2 | -17.1 | 269 | 6 |
| 2010-01-20T11:59 | 7711 | 395 | -15.6 | -17.4 | 268 | 6 |
| 2010-01-20T11:59 | 7763 | 392 | -15.8 | -17.9 | 269 | 5 |
| 2010-01-20T11:59 | 7822 | 389 | -16.3 | -18.3 | 276 | 5 |
| 2010-01-20T11:59 | 7881 | 386 | -16.8 | -18.5 | 282 | 5 |
| 2010-01-20T11:59 | 7936 | 383 | -17.1 | -18.9 | 284 | 5 |
| 2010-01-20T12:00 | 7995 | 380 | -17.7 | -19.2 | 283 | 5 |
| 2010-01-20T12:00 | 8057 | 377 | -18.1 | -19.6 | 280 | 5 |
| 2010-01-20T12:00 | 8111 | 374 | -18.5 | -19.9 | 273 | 5 |
| 2010-01-20T12:00 | 8167 | 371 | -18.9 | -20.2 | 268 | 6 |
| 2010-01-20T12:00 | 8222 | 369 | -19.2 | -20.4 | 268 | 6 |
| 2010-01-20T12:00 | 8274 | 366 | -19.5 | -20.8 | 267 | 7 |
| 2010-01-20T12:01 | 8322 | 364 | -19.8 | -21.3 | 261 | 7 |
| 2010-01-20T12:01 | 8368 | 361 | -20.1 | -21.6 | 257 | 6 |
| 2010-01-20T12:01 | 8410 | 359 | -20.3 | -21.9 | 256 | 6 |
| 2010-01-20T12:01 | 8451 | 357 | -20.6 | -22.3 | 259 | 5 |
| 2010-01-20T12:01 | 8487 | 356 | -20.9 | -23.0 | 261 | 4 |
| 2010-01-20T12:01 | 8518 | 354 | -21.1 | -23.4 | 260 | 4 |
| 2010-01-20T12:02 | 8549 | 353 | -21.3 | -24.0 | 250 | 3 |
| 2010-01-20T12:02 | 8587 | 351 | -21.4 | -24.5 | 230 | 2 |
| 2010-01-20T12:02 | 8625 | 349 | -21.7 | -24.8 | 212 | 2 |
| 2010-01-20T12:02 | 8666 | 347 | -21.9 | -25.3 | 208 | 1 |
| 2010-01-20T12:02 | 8709 | 345 | -22.2 | -25.6 | 203 | 1 |
| 2010-01-20T12:02 | 8752 | 343 | -22.5 | -25.9 | 181 | 1 |
| 2010-01-20T12:03 | 8797 | 341 | -22.9 | -26.1 | 160 | 1 |
| 2010-01-20T12:03 | 8839 | 339 | -23.2 | -26.3 | 160 | 1 |
| 2010-01-20T12:03 | 8880 | 337 | -23.5 | -26.5 | 164 | 1 |
| 2010-01-20T12:03 | 8919 | 335 | -23.9 | -26.6 | 162 | 1 |
| 2010-01-20T12:03 | 8963 | 333 | -24.3 | -26.9 | 165 | 1 |
| 2010-01-20T12:03 | 8997 | 332 | -24.6 | -26.9 | 173 | 0 |
| 2010-01-20T12:04 | 9032 | 330 | -24.8 | -27.1 | 158 | 0 |
| 2010-01-20T12:04 | 9068 | 329 | -25.1 | -27.4 | 139 | 0 |
| 2010-01-20T12:04 | 9108 | 327 | -25.4 | -27.8 | 128 | 0 |
| 2010-01-20T12:04 | 9145 | 325 | -25.7 | -28.0 | 119 | 0 |
| 2010-01-20T12:04 | 9181 | 323 | -26.0 | -28.5 | 113 | 0 |
| 2010-01-20T12:04 | 9219 | 322 | -26.4 | -28.9 | 0 | 0 |
| 2010-01-20T12:05 | 9257 | 320 | -26.6 | -29.0 | 289 | 0 |
| 2010-01-20T12:05 | 9300 | 318 | -26.9 | -29.6 | 292 | 1 |
| 2010-01-20T12:05 | 9338 | 317 | -27.2 | -29.8 | 298 | 1 |
| 2010-01-20T12:05 | 9373 | 315 | -27.4 | -30.2 | 302 | 1 |
| 2010-01-20T12:05 | 9409 | 313 | -27.5 | -30.6 | 301 | 2 |
| 2010-01-20T12:05 | 9446 | 312 | -27.8 | -31.4 | 300 | 2 |
| 2010-01-20T12:06 | 9481 | 310 | -28.1 | -31.5 | 298 | 2 |
| 2010-01-20T12:06 | 9519 | 309 | -28.4 | -31.5 | 294 | 2 |
| 2010-01-20T12:06 | 9556 | 307 | -28.7 | -31.8 | 293 | 3 |
| 2010-01-20T12:06 | 9590 | 306 | -28.9 | -32.3 | 298 | 3 |
| 2010-01-20T12:06 | 9625 | 304 | -29.2 | -32.6 | 305 | 3 |
| 2010-01-20T12:06 | 9660 | 303 | -29.4 | -32.8 | 312 | 3 |
| 2010-01-20T12:07 | 9695 | 301 | -29.7 | -33.3 | 317 | 3 |
| 2010-01-20T12:07 | 9729 | 300 | -30.0 | -33.4 | 320 | 2 |
| 2010-01-20T12:07 | 9764 | 298 | -30.3 | -33.6 | 324 | 2 |
| 2010-01-20T12:07 | 9803 | 297 | -30.6 | -34.0 | 326 | 2 |
| 2010-01-20T12:07 | 9843 | 295 | -31.0 | -34.2 | 336 | 1 |
| 2010-01-20T12:07 | 9880 | 293 | -31.3 | -34.4 | 352 | 1 |
| 2010-01-20T12:08 | 9922 | 292 | -31.7 | -34.6 | 3 | 1 |
| 2010-01-20T12:08 | 9964 | 290 | -31.9 | -35.2 | 14 | 1 |
| 2010-01-20T12:08 | 10009 | 288 | -32.3 | -35.5 | 29 | 2 |
| 2010-01-20T12:08 | 10056 | 286 | -32.8 | -35.9 | 42 | 3 |
| 2010-01-20T12:08 | 10106 | 284 | -33.2 | -36.2 | 47 | 3 |
| 2010-01-20T12:08 | 10164 | 282 | -33.7 | -36.6 | 41 | 2 |
| 2010-01-20T12:09 | 10220 | 280 | -34.2 | -37.1 | 30 | 2 |
| 2010-01-20T12:09 | 10256 | 278 | -34.5 | -37.6 | 32 | 2 |
| 2010-01-20T12:09 | 10303 | 276 | -34.8 | -38.4 | 44 | 2 |
| 2010-01-20T12:09 | 10353 | 274 | -35.2 | -39.0 | 57 | 3 |
| 2010-01-20T12:09 | 10412 | 272 | -35.7 | -39.3 | 74 | 4 |
| 2010-01-20T12:09 | 10472 | 270 | -36.0 | -39.5 | 86 | 6 |
| 2010-01-20T12:10 | 10532 | 267 | -36.6 | -39.8 | 90 | 8 |
| 2010-01-20T12:10 | 10599 | 265 | -37.3 | -40.2 | 85 | 9 |
| 2010-01-20T12:10 | 10677 | 262 | -38.0 | -40.5 | 72 | 10 |
| 2010-01-20T12:10 | 10726 | 260 | -38.5 | -41.2 | 64 | 11 |
| 2010-01-20T12:10 | 10747 | 259 | -38.3 | -40.2 | 67 | 13 |
| 2010-01-20T12:10 | 10767 | 258 | -38.4 | -39.9 | 70 | 13 |
| 2010-01-20T12:11 | 10786 | 258 | -38.5 | -40.3 | 72 | 13 |
| 2010-01-20T12:11 | 10807 | 257 | -38.7 | -40.6 | 74 | 14 |
| 2010-01-20T12:11 | 10827 | 256 | -38.8 | -41.2 | 76 | 13 |
| 2010-01-20T12:11 | 10847 | 255 | -38.9 | -41.6 | 79 | 13 |
| 2010-01-20T12:11 | 10872 | 254 | -39.1 | -41.7 | 81 | 13 |
| 2010-01-20T12:11 | 10898 | 253 | -39.3 | -42.7 | 82 | 13 |
| 2010-01-20T12:12 | 10925 | 253 | -39.5 | -43.2 | 83 | 12 |
| 2010-01-20T12:12 | 10953 | 251 | -39.8 | -43.3 | 84 | 12 |
| 2010-01-20T12:12 | 10984 | 250 | -40.0 | -43.4 | 87 | 12 |
| 2010-01-20T12:12 | 11023 | 249 | -40.4 | -43.5 | 90 | 12 |
| 2010-01-20T12:12 | 11056 | 248 | -40.7 | -43.8 | 92 | 12 |
| 2010-01-20T12:12 | 11087 | 247 | -41.0 | -44.3 | 93 | 12 |
| 2010-01-20T12:13 | 11119 | 245 | -41.3 | -44.5 | 93 | 12 |
| 2010-01-20T12:13 | 11150 | 244 | -41.6 | -44.7 | 93 | 12 |
| 2010-01-20T12:13 | 11180 | 243 | -41.8 | -45.0 | 94 | 12 |
| 2010-01-20T12:13 | 11211 | 242 | -42.1 | -45.2 | 95 | 12 |
| 2010-01-20T12:13 | 11239 | 241 | -42.4 | -45.4 | 98 | 13 |
| 2010-01-20T12:13 | 11270 | 240 | -42.6 | -45.8 | 100 | 13 |
| 2010-01-20T12:14 | 11300 | 239 | -42.8 | -46.2 | 102 | 14 |
| 2010-01-20T12:14 | 11333 | 238 | -43.0 | -46.3 | 103 | 14 |
| 2010-01-20T12:14 | 11363 | 237 | -43.3 | -46.5 | 103 | 14 |
| 2010-01-20T12:14 | 11392 | 236 | -43.6 | -46.7 | 103 | 15 |
| 2010-01-20T12:14 | 11422 | 235 | -43.8 | -47.0 | 102 | 15 |
| 2010-01-20T12:14 | 11454 | 234 | -44.0 | -47.5 | 102 | 15 |
| 2010-01-20T12:15 | 11485 | 232 | -44.3 | -48.1 | 102 | 15 |
| 2010-01-20T12:15 | 11519 | 231 | -44.6 | -48.5 | 103 | 16 |
| 2010-01-20T12:15 | 11550 | 230 | -44.8 | -48.8 | 103 | 16 |
| 2010-01-20T12:15 | 11582 | 229 | -45.1 | -49.1 | 103 | 16 |
| 2010-01-20T12:15 | 11613 | 228 | -45.4 | -49.3 | 103 | 16 |
| 2010-01-20T12:15 | 11645 | 227 | -45.7 | -49.7 | 104 | 16 |
| 2010-01-20T12:16 | 11677 | 226 | -46.0 | -49.9 | 104 | 16 |
| 2010-01-20T12:16 | 11710 | 225 | -46.3 | -50.7 | 105 | 16 |
| 2010-01-20T12:16 | 11743 | 224 | -46.5 | -51.5 | 106 | 15 |
| 2010-01-20T12:16 | 11774 | 223 | -46.8 | -52.3 | 108 | 15 |
| 2010-01-20T12:16 | 11804 | 222 | -47.0 | -52.8 | 109 | 15 |
| 2010-01-20T12:16 | 11837 | 220 | -47.3 | -53.1 | 110 | 15 |
| 2010-01-20T12:17 | 11870 | 219 | -47.6 | -53.3 | 111 | 16 |
| 2010-01-20T12:17 | 11902 | 218 | -47.7 | -53.4 | 112 | 16 |
| 2010-01-20T12:17 | 11933 | 217 | -48.0 | -53.5 | 113 | 17 |
| 2010-01-20T12:17 | 11965 | 216 | -48.3 | -53.6 | 112 | 17 |
| 2010-01-20T12:17 | 11997 | 215 | -48.5 | -53.9 | 112 | 18 |
| 2010-01-20T12:17 | 12029 | 214 | -48.8 | -54.0 | 112 | 18 |
| 2010-01-20T12:18 | 12062 | 213 | -49.1 | -54.1 | 112 | 18 |
| 2010-01-20T12:18 | 12094 | 212 | -49.3 | -54.3 | 113 | 19 |
| 2010-01-20T12:18 | 12126 | 211 | -49.5 | -54.9 | 114 | 19 |
| 2010-01-20T12:18 | 12158 | 210 | -49.8 | -55.4 | 114 | 20 |
| 2010-01-20T12:18 | 12190 | 209 | -50.0 | -55.9 | 115 | 20 |
| 2010-01-20T12:18 | 12222 | 208 | -50.3 | -56.3 | 115 | 20 |
| 2010-01-20T12:19 | 12254 | 207 | -50.6 | -56.8 | 115 | 20 |
| 2010-01-20T12:19 | 12287 | 206 | -50.9 | -57.2 | 115 | 20 |
| 2010-01-20T12:19 | 12319 | 205 | -51.2 | -57.4 | 114 | 20 |
| 2010-01-20T12:19 | 12352 | 204 | -51.5 | -57.6 | 114 | 20 |
| 2010-01-20T12:19 | 12384 | 203 | -51.8 | -57.7 | 114 | 20 |
| 2010-01-20T12:19 | 12417 | 202 | -52.1 | -57.9 | 113 | 20 |
| 2010-01-20T12:20 | 12450 | 201 | -52.4 | -58.1 | 113 | 20 |
| 2010-01-20T12:20 | 12482 | 200 | -52.7 | -58.3 | 114 | 20 |
| 2010-01-20T12:20 | 12514 | 199 | -53.0 | -58.5 | 114 | 20 |
| 2010-01-20T12:20 | 12546 | 198 | -53.3 | -58.6 | 114 | 20 |
| 2010-01-20T12:20 | 12579 | 197 | -53.7 | -58.7 | 115 | 20 |
| 2010-01-20T12:20 | 12610 | 196 | -54.0 | -58.7 | 116 | 21 |
| 2010-01-20T12:21 | 12641 | 195 | -54.3 | -58.8 | 116 | 21 |
| 2010-01-20T12:21 | 12672 | 194 | -54.5 | -58.8 | 116 | 21 |
| 2010-01-20T12:21 | 12703 | 193 | -54.8 | -58.9 | 116 | 21 |
| 2010-01-20T12:21 | 12735 | 192 | -55.1 | -59.2 | 116 | 21 |
| 2010-01-20T12:21 | 12767 | 191 | -55.4 | -59.5 | 115 | 21 |
| 2010-01-20T12:21 | 12800 | 190 | -55.7 | -59.8 | 114 | 21 |
| 2010-01-20T12:22 | 12829 | 189 | -56.0 | -60.0 | 113 | 21 |
| 2010-01-20T12:22 | 12859 | 188 | -56.3 | -60.2 | 112 | 21 |
| 2010-01-20T12:22 | 12888 | 187 | -56.5 | -60.4 | 111 | 21 |
| 2010-01-20T12:22 | 12916 | 187 | -56.7 | -60.6 | 111 | 21 |
| 2010-01-20T12:22 | 12946 | 186 | -57.0 | -60.9 | 111 | 21 |
| 2010-01-20T12:22 | 12977 | 185 | -57.3 | -61.0 | 111 | 21 |
| 2010-01-20T12:23 | 13010 | 184 | -57.6 | -61.1 | 112 | 22 |
| 2010-01-20T12:23 | 13041 | 183 | -57.9 | -61.2 | 113 | 22 |
| 2010-01-20T12:23 | 13074 | 182 | -58.2 | -61.3 | 113 | 22 |
| 2010-01-20T12:23 | 13108 | 181 | -58.5 | -61.5 | 113 | 23 |
| 2010-01-20T12:23 | 13141 | 180 | -58.8 | -61.8 | 113 | 23 |
| 2010-01-20T12:23 | 13176 | 179 | -59.2 | -62.0 | 114 | 23 |
| 2010-01-20T12:24 | 13208 | 178 | -59.5 | -62.2 | 114 | 23 |
| 2010-01-20T12:24 | 13238 | 177 | -59.8 | -62.5 | 114 | 23 |
| 2010-01-20T12:24 | 13271 | 176 | -60.1 | -62.8 | 114 | 23 |
| 2010-01-20T12:24 | 13302 | 176 | -60.4 | -63.1 | 114 | 23 |
| 2010-01-20T12:24 | 13334 | 175 | -60.7 | -63.5 | 114 | 23 |
| 2010-01-20T12:24 | 13368 | 174 | -61.0 | -63.8 | 115 | 23 |
| 2010-01-20T12:25 | 13401 | 173 | -61.3 | -64.1 | 115 | 23 |
| 2010-01-20T12:25 | 13435 | 172 | -61.6 | -64.5 | 115 | 23 |
| 2010-01-20T12:25 | 13469 | 171 | -62.0 | -65.1 | 115 | 24 |
| 2010-01-20T12:25 | 13503 | 170 | -62.3 | -65.6 | 115 | 24 |
| 2010-01-20T12:25 | 13537 | 169 | -62.6 | -66.0 | 114 | 24 |
| 2010-01-20T12:25 | 13571 | 168 | -63.0 | -66.4 | 114 | 24 |
| 2010-01-20T12:26 | 13605 | 167 | -63.2 | -66.8 | 114 | 24 |
| 2010-01-20T12:26 | 13641 | 166 | -63.5 | -67.1 | 115 | 24 |
| 2010-01-20T12:26 | 13677 | 165 | -63.9 | -67.4 | 115 | 24 |
| 2010-01-20T12:26 | 13710 | 164 | -64.2 | -67.8 | 115 | 24 |
| 2010-01-20T12:26 | 13745 | 163 | -64.5 | -68.0 | 115 | 24 |
| 2010-01-20T12:26 | 13779 | 162 | -64.9 | -68.3 | 114 | 24 |
| 2010-01-20T12:27 | 13814 | 162 | -65.2 | -68.4 | 114 | 24 |
| 2010-01-20T12:27 | 13850 | 161 | -65.5 | -68.6 | 114 | 24 |
| 2010-01-20T12:27 | 13883 | 160 | -65.7 | -68.8 | 114 | 25 |
| 2010-01-20T12:27 | 13919 | 159 | -66.0 | -69.1 | 114 | 25 |
| 2010-01-20T12:27 | 13955 | 158 | -66.3 | -69.4 | 114 | 25 |
| 2010-01-20T12:27 | 13990 | 157 | -66.6 | -69.7 | 114 | 25 |
| 2010-01-20T12:28 | 14026 | 156 | -66.9 | -70.0 | 114 | 25 |
| 2010-01-20T12:28 | 14060 | 155 | -67.2 | -70.3 | 113 | 25 |
| 2010-01-20T12:28 | 14094 | 154 | -67.5 | -70.6 | 113 | 25 |
| 2010-01-20T12:28 | 14128 | 153 | -67.7 | -70.9 | 112 | 26 |
| 2010-01-20T12:28 | 14162 | 152 | -67.9 | -71.1 | 111 | 26 |
| 2010-01-20T12:28 | 14196 | 152 | -68.2 | -71.4 | 111 | 27 |
| 2010-01-20T12:29 | 14232 | 151 | -68.5 | -71.7 | 110 | 27 |
| 2010-01-20T12:29 | 14266 | 150 | -68.8 | -71.9 | 109 | 27 |
| 2010-01-20T12:29 | 14302 | 149 | -69.1 | -72.3 | 109 | 28 |
| 2010-01-20T12:29 | 14336 | 148 | -69.4 | -72.6 | 108 | 28 |
| 2010-01-20T12:29 | 14370 | 147 | -69.7 | -72.8 | 108 | 28 |
| 2010-01-20T12:29 | 14405 | 146 | -70.0 | -73.2 | 107 | 28 |
| 2010-01-20T12:30 | 14439 | 146 | -70.3 | -73.5 | 107 | 28 |
| 2010-01-20T12:30 | 14473 | 145 | -70.6 | -73.8 | 106 | 28 |
| 2010-01-20T12:30 | 14507 | 144 | -70.9 | -74.1 | 106 | 28 |
| 2010-01-20T12:30 | 14540 | 143 | -71.2 | -74.4 | 105 | 28 |
| 2010-01-20T12:30 | 14574 | 142 | -71.5 | -74.7 | 105 | 28 |
| 2010-01-20T12:30 | 14607 | 141 | -71.8 | -75.0 | 104 | 28 |
| 2010-01-20T12:31 | 14641 | 141 | -72.0 | -75.2 | 103 | 28 |
| 2010-01-20T12:31 | 14674 | 140 | -72.3 | -75.5 | 102 | 28 |
| 2010-01-20T12:31 | 14708 | 139 | -72.6 | -75.8 | 101 | 28 |
| 2010-01-20T12:31 | 14741 | 138 | -72.8 | -76.1 | 101 | 28 |
| 2010-01-20T12:31 | 14774 | 138 | -73.1 | -76.3 | 101 | 27 |
| 2010-01-20T12:31 | 14804 | 137 | -73.3 | -76.5 | 100 | 27 |
| 2010-01-20T12:32 | 14835 | 136 | -73.6 | -76.8 | 100 | 28 |
| 2010-01-20T12:32 | 14872 | 135 | -73.8 | -77.1 | 100 | 28 |
| 2010-01-20T12:32 | 14907 | 134 | -74.1 | -77.3 | 100 | 29 |
| 2010-01-20T12:32 | 14940 | 134 | -74.4 | -77.7 | 99 | 29 |
| 2010-01-20T12:32 | 14969 | 133 | -74.7 | -77.9 | 99 | 30 |
| 2010-01-20T12:32 | 14997 | 132 | -74.8 | -78.0 | 99 | 30 |
| 2010-01-20T12:33 | 15026 | 132 | -74.9 | -78.2 | 99 | 30 |
| 2010-01-20T12:33 | 15058 | 131 | -75.1 | -78.4 | 100 | 31 |
| 2010-01-20T12:33 | 15090 | 130 | -75.5 | -78.9 | 99 | 31 |
| 2010-01-20T12:33 | 15122 | 130 | -75.8 | -79.1 | 98 | 32 |
| 2010-01-20T12:33 | 15153 | 129 | -76.0 | -79.4 | 98 | 33 |
| 2010-01-20T12:33 | 15181 | 128 | -76.2 | -79.6 | 99 | 33 |
| 2010-01-20T12:34 | 15212 | 128 | -76.5 | -79.9 | 99 | 34 |
| 2010-01-20T12:34 | 15242 | 127 | -76.7 | -80.1 | 99 | 35 |
| 2010-01-20T12:34 | 15275 | 126 | -77.0 | -80.4 | 99 | 35 |
| 2010-01-20T12:34 | 15304 | 126 | -77.2 | -80.6 | 98 | 36 |
| 2010-01-20T12:34 | 15337 | 125 | -77.5 | -80.9 | 97 | 37 |
| 2010-01-20T12:34 | 15372 | 124 | -77.8 | -81.3 | 97 | 37 |
| 2010-01-20T12:35 | 15410 | 123 | -78.2 | -81.7 | 98 | 38 |
| 2010-01-20T12:35 | 15446 | 122 | -78.3 | -81.9 | 99 | 38 |
| 2010-01-20T12:35 | 15477 | 122 | -78.6 | -82.2 | 100 | 39 |
| 2010-01-20T12:35 | 15509 | 121 | -78.9 | -82.4 | 100 | 39 |
| 2010-01-20T12:35 | 15540 | 120 | -79.1 | -82.7 | 100 | 40 |
| 2010-01-20T12:35 | 15572 | 120 | -79.4 | -83.0 | 100 | 40 |
| 2010-01-20T12:36 | 15604 | 119 | -79.6 | -83.2 | 100 | 40 |
| 2010-01-20T12:36 | 15635 | 118 | -79.8 | -83.4 | 100 | 41 |
| 2010-01-20T12:36 | 15664 | 118 | -80.0 | -83.7 | 100 | 41 |
| 2010-01-20T12:36 | 15695 | 117 | -80.3 | -83.9 | 100 | 41 |
| 2010-01-20T12:36 | 15725 | 117 | -80.6 | -84.3 | 100 | 41 |
| 2010-01-20T12:36 | 15755 | 116 | -80.9 | -84.6 | 100 | 41 |
| 2010-01-20T12:37 | 15787 | 115 | -81.2 | -84.9 | 101 | 41 |
| 2010-01-20T12:37 | 15815 | 115 | -81.4 | -85.2 | 102 | 40 |
| 2010-01-20T12:37 | 15842 | 114 | -81.6 | -85.4 | 103 | 40 |
| 2010-01-20T12:37 | 15870 | 114 | -81.9 | -85.7 | 103 | 40 |
| 2010-01-20T12:37 | 15896 | 113 | -82.1 | -85.9 | 103 | 40 |
| 2010-01-20T12:37 | 15925 | 112 | -82.3 | -86.1 | 104 | 40 |
| 2010-01-20T12:38 | 15953 | 112 | -82.5 | -86.4 | 104 | 40 |
| 2010-01-20T12:38 | 15981 | 111 | -82.8 | -86.6 | 104 | 40 |
| 2010-01-20T12:38 | 16012 | 111 | -83.0 | -86.9 | 105 | 40 |
| 2010-01-20T12:38 | 16042 | 110 | -83.3 | -87.2 | 105 | 40 |
| 2010-01-20T12:38 | 16073 | 110 | -83.6 | -87.5 | 105 | 40 |
| 2010-01-20T12:38 | 16104 | 109 | -83.8 | -87.8 | 106 | 40 |
| 2010-01-20T12:39 | 16139 | 108 | -84.1 | -88.1 | 106 | 40 |
| 2010-01-20T12:39 | 16173 | 108 | -84.5 | -88.4 | 106 | 41 |
| 2010-01-20T12:39 | 16208 | 107 | -84.7 | -88.7 | 106 | 41 |
| 2010-01-20T12:39 | 16244 | 106 | -84.9 | -88.9 | 107 | 41 |
| 2010-01-20T12:39 | 16281 | 105 | -85.1 | -89.1 | 106 | 41 |
| 2010-01-20T12:39 | 16320 | 105 | -85.4 | -89.4 | 106 | 41 |
| 2010-01-20T12:40 | 16357 | 104 | -85.8 | -89.8 | 106 | 41 |
| 2010-01-20T12:40 | 16398 | 103 | -86.2 | -90.2 | 105 | 40 |
| 2010-01-20T12:40 | 16444 | 102 | -85.3 | -89.4 | 103 | 38 |
| 2010-01-20T12:40 | 16487 | 102 | -83.6 | -87.8 | 99 | 35 |
| 2010-01-20T12:40 | 16525 | 101 | -82.1 | -86.4 | 96 | 33 |
| 2010-01-20T12:40 | 16564 | 100 | -80.7 | -85.1 | 92 | 30 |
| 2010-01-20T12:41 | 16603 | 100 | -79.8 | -84.2 | 88 | 28 |
| 2010-01-20T12:41 | 16642 | 99 | -79.4 | -83.9 | 84 | 25 |
| 2010-01-20T12:41 | 16680 | 98 | -78.6 | -83.1 | 81 | 23 |
| 2010-01-20T12:41 | 16723 | 97 | -78.5 | -83.1 | 77 | 19 |
| 2010-01-20T12:41 | 16760 | 97 | -78.3 | -83.0 | 70 | 15 |
| 2010-01-20T12:41 | 16811 | 96 | -76.4 | -81.3 | 61 | 13 |
| 2010-01-20T12:42 | 16867 | 95 | -76.3 | -81.3 | 58 | 11 |
| 2010-01-20T12:42 | 16904 | 94 | -76.3 | -81.4 | 58 | 11 |
| 2010-01-20T12:42 | 16944 | 94 | -76.4 | -81.6 | 58 | 10 |
| 2010-01-20T12:42 | 16977 | 93 | -76.5 | -81.8 | 57 | 9 |
| 2010-01-20T12:42 | 17013 | 93 | -76.8 | -82.1 | 55 | 8 |
| 2010-01-20T12:42 | 17049 | 92 | -76.9 | -82.3 | 50 | 7 |
| 2010-01-20T12:43 | 17086 | 91 | -76.9 | -82.5 | 42 | 6 |
| 2010-01-20T12:43 | 17120 | 91 | -77.1 | -82.7 | 33 | 5 |
| 2010-01-20T12:43 | 17154 | 90 | -77.0 | -82.7 | 22 | 5 |
| 2010-01-20T12:43 | 17187 | 90 | -76.9 | -82.7 | 6 | 4 |
| 2010-01-20T12:43 | 17219 | 89 | -76.7 | -82.6 | 342 | 4 |
| 2010-01-20T12:43 | 17253 | 89 | -76.3 | -82.3 | 319 | 4 |
| 2010-01-20T12:44 | 17285 | 88 | -75.9 | -82.0 | 306 | 6 |
| 2010-01-20T12:44 | 17318 | 88 | -75.6 | -81.8 | 298 | 7 |
| 2010-01-20T12:44 | 17350 | 87 | -75.5 | -81.8 | 295 | 8 |
| 2010-01-20T12:44 | 17381 | 87 | -75.5 | -81.8 | 294 | 9 |
| 2010-01-20T12:44 | 17411 | 86 | -75.5 | -81.9 | 294 | 9 |
| 2010-01-20T12:44 | 17440 | 86 | -75.8 | -82.2 | 294 | 9 |
| 2010-01-20T12:45 | 17473 | 86 | -76.0 | -82.5 | 293 | 9 |
| 2010-01-20T12:45 | 17501 | 85 | -75.9 | -82.5 | 289 | 9 |
| 2010-01-20T12:45 | 17531 | 85 | -75.7 | -82.4 | 283 | 9 |
| 2010-01-20T12:45 | 17559 | 84 | -75.8 | -82.5 | 278 | 9 |
| 2010-01-20T12:45 | 17588 | 84 | -75.9 | -82.7 | 272 | 9 |
| 2010-01-20T12:45 | 17616 | 83 | -76.0 | -82.9 | 267 | 9 |
| 2010-01-20T12:46 | 17644 | 83 | -75.2 | -82.3 | 264 | 10 |
| 2010-01-20T12:46 | 17672 | 83 | -75.0 | -82.2 | 264 | 10 |
| 2010-01-20T12:46 | 17699 | 82 | -74.8 | -82.1 | 265 | 10 |
| 2010-01-20T12:46 | 17727 | 82 | -74.9 | -82.2 | 266 | 10 |
| 2010-01-20T12:46 | 17754 | 81 | -75.1 | -82.4 | 267 | 10 |
| 2010-01-20T12:46 | 17782 | 81 | -74.6 | -82.1 | 265 | 9 |
| 2010-01-20T12:47 | 17811 | 81 | -74.6 | -82.2 | 260 | 9 |
| 2010-01-20T12:47 | 17839 | 80 | -74.7 | -82.3 | 254 | 9 |
| 2010-01-20T12:47 | 17869 | 80 | -74.3 | -82.1 | 252 | 9 |
| 2010-01-20T12:47 | 17900 | 79 | -72.4 | -80.7 | 256 | 10 |
| 2010-01-20T12:47 | 17928 | 79 | -71.4 | -80.0 | 259 | 11 |
| 2010-01-20T12:47 | 17959 | 79 | -71.5 | -80.1 | 260 | 12 |
| 2010-01-20T12:48 | 17992 | 78 | -71.7 | -80.4 | 262 | 13 |
| 2010-01-20T12:48 | 18023 | 78 | -71.4 | -80.4 | 264 | 14 |
| 2010-01-20T12:48 | 18056 | 77 | -70.9 | -80.3 | 267 | 15 |
| 2010-01-20T12:48 | 18089 | 77 | -70.8 | -80.5 | 269 | 17 |
| 2010-01-20T12:48 | 18119 | 77 | -70.9 | -80.8 | 272 | 18 |
| 2010-01-20T12:48 | 18152 | 76 | -71.0 | -81.2 | 274 | 19 |
| 2010-01-20T12:49 | 18186 | 76 | -71.0 | -81.6 | 276 | 20 |
| 2010-01-20T12:49 | 18217 | 75 | -71.1 | -81.9 | 277 | 21 |
| 2010-01-20T12:49 | 18246 | 75 | -71.4 | -82.4 | 278 | 22 |
| 2010-01-20T12:49 | 18280 | 75 | -71.6 | -82.8 | 280 | 22 |
| 2010-01-20T12:49 | 18315 | 74 | -71.8 | -83.2 | 281 | 23 |
| 2010-01-20T12:49 | 18350 | 74 | -72.1 | -83.6 | 283 | 23 |
| 2010-01-20T12:50 | 18383 | 73 | -72.1 | -83.8 | 284 | 24 |
| 2010-01-20T12:50 | 18414 | 73 | -72.3 | -84.2 | 285 | 25 |
| 2010-01-20T12:50 | 18446 | 72 | -72.6 | -84.6 | 285 | 25 |
| 2010-01-20T12:50 | 18477 | 72 | -72.8 | -84.8 | 284 | 26 |
| 2010-01-20T12:50 | 18508 | 72 | -73.0 | -85.2 | 284 | 26 |
| 2010-01-20T12:50 | 18537 | 71 | -73.3 | -85.5 | 283 | 27 |
| 2010-01-20T12:51 | 18566 | 71 | -73.5 | -85.8 | 283 | 27 |
| 2010-01-20T12:51 | 18596 | 71 | -73.7 | -86.1 | 283 | 27 |
| 2010-01-20T12:51 | 18624 | 70 | -74.0 | -86.4 | 283 | 27 |
| 2010-01-20T12:51 | 18651 | 70 | -74.3 | -86.8 | 282 | 28 |
| 2010-01-20T12:51 | 18677 | 70 | -74.5 | -87.1 | 282 | 28 |
| 2010-01-20T12:51 | 18705 | 69 | -74.8 | -87.3 | 281 | 28 |
| 2010-01-20T12:52 | 18734 | 69 | -75.0 | -87.6 | 281 | 28 |
| 2010-01-20T12:52 | 18760 | 69 | -75.3 | -87.8 | 280 | 29 |
| 2010-01-20T12:52 | 18787 | 68 | -75.5 | -88.1 | 279 | 29 |
| 2010-01-20T12:52 | 18816 | 68 | -75.8 | -88.4 | 278 | 29 |
| 2010-01-20T12:52 | 18843 | 68 | -76.0 | -88.6 | 278 | 29 |
| 2010-01-20T12:52 | 18870 | 67 | -76.2 | -88.8 | 276 | 29 |
| 2010-01-20T12:53 | 18899 | 67 | -76.4 | -89.0 | 274 | 29 |
| 2010-01-20T12:53 | 18926 | 67 | -76.3 | -88.9 | 272 | 29 |
| 2010-01-20T12:53 | 18954 | 66 | -76.0 | -88.7 | 271 | 29 |
| 2010-01-20T12:53 | 18983 | 66 | -75.6 | -88.4 | 271 | 29 |
| 2010-01-20T12:53 | 19011 | 66 | -75.6 | -88.3 | 271 | 29 |
| 2010-01-20T12:53 | 19041 | 65 | -75.7 | -88.4 | 272 | 29 |
| 2010-01-20T12:54 | 19070 | 65 | -75.8 | -88.5 | 272 | 29 |
| 2010-01-20T12:54 | 19099 | 65 | -76.1 | -88.7 | 272 | 29 |
| 2010-01-20T12:54 | 19130 | 64 | -76.3 | -88.9 | 272 | 29 |
| 2010-01-20T12:54 | 19159 | 64 | -76.5 | -89.1 | 272 | 29 |
| 2010-01-20T12:54 | 19188 | 64 | -76.7 | -89.3 | 272 | 29 |
| 2010-01-20T12:54 | 19217 | 63 | -76.9 | -89.4 | 272 | 29 |
| 2010-01-20T12:55 | 19247 | 63 | -77.0 | -89.5 | 272 | 28 |
| 2010-01-20T12:55 | 19277 | 63 | -76.7 | -89.3 | 271 | 27 |
| 2010-01-20T12:55 | 19308 | 62 | -76.6 | -89.1 | 270 | 27 |
| 2010-01-20T12:55 | 19335 | 62 | -76.6 | -89.1 | 269 | 26 |
| 2010-01-20T12:55 | 19364 | 62 | -76.3 | -88.9 | 269 | 25 |
| 2010-01-20T12:55 | 19393 | 62 | -76.0 | -88.6 | 270 | 24 |
| 2010-01-20T12:56 | 19422 | 61 | -75.8 | -88.4 | 270 | 24 |
| 2010-01-20T12:56 | 19449 | 61 | -75.5 | -88.2 | 271 | 23 |
| 2010-01-20T12:56 | 19479 | 61 | -75.5 | -88.1 | 271 | 23 |
| 2010-01-20T12:56 | 19508 | 60 | -75.3 | -87.9 | 271 | 23 |
| 2010-01-20T12:56 | 19535 | 60 | -75.1 | -87.8 | 270 | 23 |
| 2010-01-20T12:56 | 19564 | 60 | -75.1 | -87.9 | 270 | 22 |
| 2010-01-20T12:57 | 19592 | 59 | -75.3 | -88.0 | 269 | 22 |
| 2010-01-20T12:57 | 19620 | 59 | -75.2 | -88.0 | 269 | 21 |
| 2010-01-20T12:57 | 19649 | 59 | -75.2 | -88.0 | 269 | 21 |
| 2010-01-20T12:57 | 19677 | 59 | -75.4 | -88.2 | 271 | 21 |
| 2010-01-20T12:57 | 19707 | 58 | -75.3 | -88.2 | 272 | 20 |
| 2010-01-20T12:57 | 19738 | 58 | -75.4 | -88.3 | 274 | 20 |
| 2010-01-20T12:58 | 19768 | 58 | -75.5 | -88.4 | 276 | 19 |
| 2010-01-20T12:58 | 19797 | 57 | -75.4 | -88.3 | 277 | 19 |
| 2010-01-20T12:58 | 19827 | 57 | -75.5 | -88.4 | 278 | 18 |
| 2010-01-20T12:58 | 19857 | 57 | -75.6 | -88.5 | 280 | 18 |
| 2010-01-20T12:58 | 19887 | 56 | -75.1 | -88.2 | 281 | 18 |
| 2010-01-20T12:58 | 19915 | 56 | -74.8 | -87.9 | 282 | 19 |
| 2010-01-20T12:59 | 19944 | 56 | -74.8 | -87.9 | 282 | 19 |
| 2010-01-20T12:59 | 19972 | 56 | -74.9 | -88.0 | 281 | 19 |
| 2010-01-20T12:59 | 20000 | 55 | -74.9 | -88.0 | 280 | 19 |
| 2010-01-20T23:29 | 4 | 1008 | 31.0 | 24.9 | 350 | 8 |
| 2010-01-20T23:29 | 14 | 1007 | 29.3 | 23.2 | 342 | 4 |
| 2010-01-20T23:29 | 22 | 1006 | 29.0 | 23.3 | 341 | 5 |
| 2010-01-20T23:29 | 30 | 1005 | 28.9 | 23.4 | 340 | 5 |
| 2010-01-20T23:29 | 37 | 1004 | 28.9 | 23.5 | 339 | 6 |
| 2010-01-20T23:29 | 45 | 1003 | 28.8 | 23.6 | 338 | 6 |
| 2010-01-20T23:29 | 53 | 1002 | 28.7 | 23.6 | 337 | 7 |
| 2010-01-20T23:29 | 61 | 1001 | 28.6 | 23.6 | 336 | 7 |
| 2010-01-20T23:29 | 68 | 1001 | 28.6 | 23.7 | 335 | 7 |
| 2010-01-20T23:29 | 76 | 1000 | 28.5 | 23.7 | 334 | 8 |
| 2010-01-20T23:29 | 84 | 999 | 28.4 | 23.7 | 332 | 8 |
| 2010-01-20T23:29 | 93 | 998 | 28.3 | 23.8 | 331 | 8 |
| 2010-01-20T23:29 | 102 | 997 | 28.3 | 23.8 | 330 | 8 |
| 2010-01-20T23:29 | 112 | 996 | 28.1 | 23.6 | 329 | 8 |
| 2010-01-20T23:29 | 121 | 995 | 28.0 | 23.6 | 328 | 9 |
| 2010-01-20T23:29 | 130 | 994 | 27.9 | 23.5 | 327 | 9 |
| 2010-01-20T23:29 | 138 | 993 | 27.9 | 23.5 | 327 | 9 |
| 2010-01-20T23:29 | 148 | 992 | 27.8 | 23.5 | 326 | 9 |
| 2010-01-20T23:29 | 157 | 991 | 27.7 | 23.5 | 326 | 10 |
| 2010-01-20T23:29 | 168 | 990 | 27.6 | 23.5 | 326 | 10 |
| 2010-01-20T23:29 | 177 | 989 | 27.5 | 23.5 | 326 | 10 |
| 2010-01-20T23:29 | 185 | 988 | 27.5 | 23.4 | 327 | 10 |
| 2010-01-20T23:29 | 194 | 987 | 27.4 | 23.4 | 327 | 10 |
| 2010-01-20T23:29 | 204 | 986 | 27.2 | 23.3 | 327 | 11 |
| 2010-01-20T23:29 | 213 | 984 | 27.1 | 23.3 | 328 | 11 |
| 2010-01-20T23:29 | 222 | 984 | 27.0 | 23.1 | 328 | 11 |
| 2010-01-20T23:29 | 231 | 983 | 26.9 | 23.1 | 329 | 11 |
| 2010-01-20T23:29 | 240 | 982 | 26.8 | 23.1 | 329 | 11 |
| 2010-01-20T23:29 | 249 | 980 | 26.7 | 23.0 | 330 | 11 |
| 2010-01-20T23:29 | 259 | 979 | 26.6 | 23.0 | 330 | 11 |
| 2010-01-20T23:30 | 270 | 978 | 26.5 | 23.0 | 330 | 11 |
| 2010-01-20T23:30 | 282 | 977 | 26.4 | 23.0 | 330 | 11 |
| 2010-01-20T23:30 | 293 | 976 | 26.3 | 23.0 | 330 | 11 |
| 2010-01-20T23:30 | 304 | 974 | 26.2 | 23.0 | 330 | 11 |
| 2010-01-20T23:30 | 315 | 973 | 26.1 | 23.0 | 330 | 11 |
| 2010-01-20T23:30 | 325 | 972 | 26.0 | 23.0 | 330 | 11 |
| 2010-01-20T23:30 | 334 | 971 | 25.9 | 22.9 | 330 | 11 |
| 2010-01-20T23:30 | 344 | 970 | 25.8 | 22.9 | 330 | 11 |
| 2010-01-20T23:30 | 354 | 969 | 25.7 | 22.9 | 330 | 11 |
| 2010-01-20T23:30 | 363 | 968 | 25.6 | 22.9 | 330 | 11 |
| 2010-01-20T23:30 | 372 | 967 | 25.6 | 22.8 | 330 | 11 |
| 2010-01-20T23:30 | 380 | 966 | 25.5 | 22.7 | 330 | 11 |
| 2010-01-20T23:30 | 388 | 965 | 25.5 | 22.6 | 330 | 11 |
| 2010-01-20T23:30 | 395 | 964 | 25.5 | 22.4 | 330 | 11 |
| 2010-01-20T23:30 | 403 | 964 | 25.4 | 22.2 | 330 | 11 |
| 2010-01-20T23:30 | 412 | 963 | 25.4 | 22.1 | 330 | 11 |
| 2010-01-20T23:30 | 421 | 962 | 25.3 | 22.1 | 330 | 11 |
| 2010-01-20T23:30 | 430 | 961 | 25.2 | 22.0 | 330 | 11 |
| 2010-01-20T23:30 | 439 | 960 | 25.1 | 21.9 | 330 | 11 |
| 2010-01-20T23:30 | 448 | 959 | 25.1 | 21.9 | 331 | 11 |
| 2010-01-20T23:30 | 457 | 958 | 25.0 | 21.9 | 331 | 11 |
| 2010-01-20T23:30 | 465 | 957 | 24.9 | 21.8 | 331 | 11 |
| 2010-01-20T23:30 | 473 | 956 | 24.8 | 21.8 | 331 | 11 |
| 2010-01-20T23:30 | 480 | 955 | 24.8 | 21.7 | 331 | 11 |
| 2010-01-20T23:30 | 488 | 954 | 24.7 | 21.7 | 331 | 11 |
| 2010-01-20T23:30 | 497 | 953 | 24.7 | 21.7 | 331 | 11 |
| 2010-01-20T23:30 | 506 | 952 | 24.6 | 21.6 | 331 | 11 |
| 2010-01-20T23:30 | 516 | 951 | 24.5 | 21.5 | 331 | 11 |
| 2010-01-20T23:30 | 525 | 950 | 24.4 | 21.4 | 331 | 11 |
| 2010-01-20T23:30 | 535 | 949 | 24.3 | 21.4 | 330 | 11 |
| 2010-01-20T23:31 | 544 | 948 | 24.2 | 21.4 | 330 | 11 |
| 2010-01-20T23:31 | 554 | 947 | 24.1 | 21.4 | 330 | 11 |
| 2010-01-20T23:31 | 564 | 946 | 24.0 | 21.4 | 330 | 11 |
| 2010-01-20T23:31 | 573 | 945 | 24.0 | 21.4 | 329 | 11 |
| 2010-01-20T23:31 | 582 | 944 | 23.9 | 21.4 | 329 | 11 |
| 2010-01-20T23:31 | 593 | 943 | 23.8 | 21.3 | 328 | 11 |
| 2010-01-20T23:31 | 603 | 942 | 23.7 | 21.2 | 328 | 11 |
| 2010-01-20T23:31 | 613 | 941 | 23.6 | 21.1 | 327 | 11 |
| 2010-01-20T23:31 | 622 | 940 | 23.5 | 21.1 | 327 | 11 |
| 2010-01-20T23:31 | 632 | 939 | 23.5 | 21.0 | 326 | 11 |
| 2010-01-20T23:31 | 641 | 938 | 23.4 | 21.0 | 326 | 11 |
| 2010-01-20T23:31 | 651 | 937 | 23.3 | 20.9 | 326 | 11 |
| 2010-01-20T23:31 | 662 | 936 | 23.2 | 20.9 | 325 | 11 |
| 2010-01-20T23:31 | 673 | 935 | 23.1 | 21.0 | 325 | 11 |
| 2010-01-20T23:31 | 683 | 933 | 23.0 | 20.9 | 325 | 11 |
| 2010-01-20T23:31 | 693 | 932 | 22.9 | 20.9 | 325 | 11 |
| 2010-01-20T23:31 | 703 | 931 | 22.9 | 20.9 | 325 | 11 |
| 2010-01-20T23:31 | 714 | 930 | 22.8 | 20.7 | 325 | 11 |
| 2010-01-20T23:31 | 725 | 929 | 22.8 | 20.6 | 325 | 11 |
| 2010-01-20T23:31 | 735 | 928 | 22.7 | 20.5 | 325 | 11 |
| 2010-01-20T23:31 | 745 | 927 | 22.7 | 20.4 | 325 | 11 |
| 2010-01-20T23:31 | 754 | 926 | 22.6 | 20.3 | 325 | 11 |
| 2010-01-20T23:31 | 765 | 925 | 22.5 | 20.3 | 325 | 11 |
| 2010-01-20T23:31 | 776 | 924 | 22.4 | 20.2 | 325 | 11 |
| 2010-01-20T23:31 | 787 | 922 | 22.3 | 20.2 | 325 | 11 |
| 2010-01-20T23:31 | 797 | 921 | 22.2 | 20.1 | 325 | 11 |
| 2010-01-20T23:31 | 808 | 920 | 22.1 | 20.1 | 325 | 11 |
| 2010-01-20T23:31 | 818 | 919 | 22.0 | 20.0 | 325 | 11 |
| 2010-01-20T23:31 | 828 | 918 | 22.0 | 19.9 | 325 | 11 |
| 2010-01-20T23:31 | 839 | 917 | 21.9 | 19.8 | 325 | 11 |
| 2010-01-20T23:32 | 850 | 916 | 21.8 | 19.8 | 324 | 11 |
| 2010-01-20T23:32 | 861 | 915 | 21.7 | 19.8 | 324 | 11 |
| 2010-01-20T23:32 | 871 | 914 | 21.6 | 19.7 | 324 | 11 |
| 2010-01-20T23:32 | 883 | 912 | 21.5 | 19.7 | 324 | 11 |
| 2010-01-20T23:32 | 894 | 911 | 21.4 | 19.7 | 323 | 12 |
| 2010-01-20T23:32 | 906 | 910 | 21.3 | 19.6 | 323 | 12 |
| 2010-01-20T23:32 | 918 | 909 | 21.2 | 19.6 | 322 | 12 |
| 2010-01-20T23:32 | 929 | 907 | 21.1 | 19.5 | 321 | 12 |
| 2010-01-20T23:32 | 941 | 906 | 21.0 | 19.6 | 321 | 13 |
| 2010-01-20T23:32 | 953 | 905 | 20.8 | 19.6 | 320 | 13 |
| 2010-01-20T23:32 | 965 | 904 | 20.7 | 19.6 | 319 | 13 |
| 2010-01-20T23:32 | 977 | 902 | 20.7 | 19.5 | 319 | 13 |
| 2010-01-20T23:32 | 989 | 901 | 20.7 | 19.5 | 318 | 14 |
| 2010-01-20T23:32 | 1003 | 900 | 20.6 | 19.5 | 317 | 14 |
| 2010-01-20T23:32 | 1015 | 899 | 20.6 | 19.4 | 317 | 14 |
| 2010-01-20T23:32 | 1026 | 897 | 20.5 | 19.4 | 316 | 14 |
| 2010-01-20T23:32 | 1037 | 896 | 20.5 | 19.4 | 315 | 14 |
| 2010-01-20T23:32 | 1048 | 895 | 20.3 | 19.3 | 315 | 14 |
| 2010-01-20T23:32 | 1060 | 894 | 20.2 | 19.3 | 314 | 14 |
| 2010-01-20T23:32 | 1072 | 893 | 20.1 | 19.3 | 313 | 14 |
| 2010-01-20T23:32 | 1084 | 891 | 20.0 | 19.2 | 313 | 14 |
| 2010-01-20T23:32 | 1095 | 890 | 19.9 | 19.2 | 312 | 14 |
| 2010-01-20T23:32 | 1107 | 889 | 19.8 | 19.1 | 312 | 14 |
| 2010-01-20T23:32 | 1118 | 888 | 19.8 | 19.0 | 311 | 14 |
| 2010-01-20T23:32 | 1129 | 887 | 19.7 | 18.9 | 311 | 14 |
| 2010-01-20T23:32 | 1138 | 886 | 19.7 | 18.9 | 311 | 14 |
| 2010-01-20T23:32 | 1148 | 885 | 19.6 | 18.9 | 310 | 15 |
| 2010-01-20T23:32 | 1158 | 884 | 19.6 | 19.0 | 310 | 15 |
| 2010-01-20T23:32 | 1168 | 883 | 19.7 | 19.0 | 310 | 15 |
| 2010-01-20T23:32 | 1180 | 882 | 19.7 | 19.0 | 309 | 15 |
| 2010-01-20T23:33 | 1191 | 880 | 19.7 | 18.9 | 309 | 15 |
| 2010-01-20T23:33 | 1202 | 879 | 19.6 | 18.8 | 309 | 15 |
| 2010-01-20T23:33 | 1214 | 878 | 19.5 | 18.8 | 309 | 15 |
| 2010-01-20T23:33 | 1226 | 877 | 19.5 | 18.7 | 309 | 15 |
| 2010-01-20T23:33 | 1237 | 876 | 19.5 | 18.6 | 309 | 15 |
| 2010-01-20T23:33 | 1249 | 875 | 19.4 | 18.5 | 309 | 15 |
| 2010-01-20T23:33 | 1262 | 873 | 19.3 | 18.5 | 309 | 15 |
| 2010-01-20T23:33 | 1273 | 872 | 19.2 | 18.4 | 309 | 15 |
| 2010-01-20T23:33 | 1283 | 871 | 19.1 | 18.3 | 309 | 15 |
| 2010-01-20T23:33 | 1294 | 870 | 19.1 | 18.2 | 308 | 15 |
| 2010-01-20T23:33 | 1306 | 869 | 19.0 | 18.2 | 308 | 15 |
| 2010-01-20T23:33 | 1317 | 868 | 18.9 | 18.1 | 308 | 15 |
| 2010-01-20T23:33 | 1327 | 867 | 18.9 | 18.1 | 308 | 15 |
| 2010-01-20T23:33 | 1338 | 866 | 18.8 | 18.1 | 308 | 14 |
| 2010-01-20T23:33 | 1349 | 864 | 18.8 | 18.0 | 308 | 14 |
| 2010-01-20T23:33 | 1360 | 863 | 18.7 | 18.0 | 308 | 14 |
| 2010-01-20T23:33 | 1371 | 862 | 18.6 | 18.0 | 308 | 14 |
| 2010-01-20T23:33 | 1380 | 861 | 18.6 | 18.0 | 308 | 14 |
| 2010-01-20T23:33 | 1391 | 860 | 18.6 | 17.9 | 308 | 14 |
| 2010-01-20T23:33 | 1403 | 859 | 18.6 | 17.8 | 309 | 14 |
| 2010-01-20T23:33 | 1414 | 858 | 18.6 | 17.7 | 309 | 14 |
| 2010-01-20T23:33 | 1425 | 857 | 18.7 | 17.6 | 309 | 14 |
| 2010-01-20T23:33 | 1437 | 856 | 18.7 | 17.6 | 309 | 14 |
| 2010-01-20T23:33 | 1448 | 855 | 18.6 | 17.5 | 309 | 14 |
| 2010-01-20T23:33 | 1458 | 854 | 18.6 | 17.4 | 309 | 13 |
| 2010-01-20T23:33 | 1468 | 853 | 18.6 | 17.3 | 308 | 13 |
| 2010-01-20T23:33 | 1479 | 852 | 18.5 | 17.2 | 308 | 13 |
| 2010-01-20T23:33 | 1492 | 850 | 18.4 | 17.2 | 308 | 13 |
| 2010-01-20T23:33 | 1504 | 849 | 18.3 | 17.1 | 308 | 13 |
| 2010-01-20T23:33 | 1516 | 848 | 18.1 | 17.1 | 308 | 13 |
| 2010-01-20T23:34 | 1527 | 847 | 18.0 | 17.0 | 307 | 13 |
| 2010-01-20T23:34 | 1539 | 846 | 18.0 | 17.0 | 307 | 13 |
| 2010-01-20T23:34 | 1552 | 844 | 18.0 | 17.0 | 307 | 13 |
| 2010-01-20T23:34 | 1563 | 843 | 17.9 | 17.0 | 306 | 13 |
| 2010-01-20T23:34 | 1574 | 842 | 17.8 | 16.9 | 306 | 13 |
| 2010-01-20T23:34 | 1584 | 841 | 17.8 | 16.9 | 306 | 13 |
| 2010-01-20T23:34 | 1595 | 840 | 17.8 | 16.9 | 305 | 13 |
| 2010-01-20T23:34 | 1607 | 839 | 17.7 | 16.9 | 305 | 13 |
| 2010-01-20T23:34 | 1619 | 838 | 17.6 | 17.0 | 305 | 13 |
| 2010-01-20T23:34 | 1630 | 837 | 17.6 | 16.9 | 304 | 13 |
| 2010-01-20T23:34 | 1641 | 836 | 17.5 | 16.9 | 304 | 13 |
| 2010-01-20T23:34 | 1651 | 835 | 17.4 | 16.8 | 303 | 13 |
| 2010-01-20T23:34 | 1663 | 834 | 17.3 | 16.8 | 302 | 13 |
| 2010-01-20T23:34 | 1675 | 832 | 17.2 | 16.8 | 302 | 13 |
| 2010-01-20T23:34 | 1687 | 831 | 17.1 | 16.8 | 301 | 13 |
| 2010-01-20T23:34 | 1699 | 830 | 17.0 | 16.7 | 300 | 13 |
| 2010-01-20T23:34 | 1711 | 829 | 17.0 | 16.7 | 299 | 13 |
| 2010-01-20T23:34 | 1722 | 828 | 16.9 | 16.6 | 297 | 13 |
| 2010-01-20T23:34 | 1734 | 827 | 16.8 | 16.5 | 296 | 13 |
| 2010-01-20T23:34 | 1747 | 825 | 16.8 | 16.4 | 294 | 13 |
| 2010-01-20T23:34 | 1760 | 824 | 16.7 | 16.3 | 293 | 13 |
| 2010-01-20T23:34 | 1773 | 823 | 16.6 | 16.2 | 291 | 13 |
| 2010-01-20T23:34 | 1784 | 822 | 16.7 | 16.1 | 289 | 13 |
| 2010-01-20T23:34 | 1795 | 821 | 16.7 | 16.0 | 288 | 13 |
| 2010-01-20T23:34 | 1807 | 820 | 16.7 | 15.8 | 286 | 13 |
| 2010-01-20T23:34 | 1817 | 819 | 16.9 | 15.7 | 284 | 13 |
| 2010-01-20T23:34 | 1827 | 818 | 17.3 | 15.4 | 282 | 13 |
| 2010-01-20T23:34 | 1838 | 817 | 17.4 | 15.2 | 281 | 14 |
| 2010-01-20T23:34 | 1849 | 816 | 17.3 | 15.0 | 279 | 14 |
| 2010-01-20T23:34 | 1861 | 814 | 17.4 | 14.8 | 278 | 14 |
| 2010-01-20T23:35 | 1872 | 813 | 17.5 | 14.5 | 276 | 14 |
| 2010-01-20T23:35 | 1883 | 812 | 17.6 | 14.3 | 275 | 14 |
| 2010-01-20T23:35 | 1895 | 811 | 17.6 | 14.1 | 274 | 14 |
| 2010-01-20T23:35 | 1906 | 810 | 17.5 | 14.0 | 274 | 14 |
| 2010-01-20T23:35 | 1915 | 809 | 17.5 | 13.9 | 273 | 14 |
| 2010-01-20T23:35 | 1926 | 808 | 17.5 | 13.7 | 272 | 14 |
| 2010-01-20T23:35 | 1936 | 807 | 17.7 | 13.5 | 272 | 14 |
| 2010-01-20T23:35 | 1945 | 807 | 17.7 | 13.4 | 271 | 14 |
| 2010-01-20T23:35 | 1954 | 806 | 17.6 | 13.3 | 271 | 14 |
| 2010-01-20T23:35 | 1965 | 805 | 17.5 | 13.2 | 270 | 14 |
| 2010-01-20T23:35 | 1976 | 804 | 17.4 | 13.1 | 270 | 14 |
| 2010-01-20T23:35 | 1986 | 803 | 17.3 | 13.0 | 269 | 14 |
| 2010-01-20T23:35 | 1996 | 802 | 17.3 | 12.9 | 269 | 14 |
| 2010-01-20T23:35 | 2027 | 799 | 17.0 | 12.7 | 268 | 14 |
| 2010-01-20T23:35 | 2078 | 794 | 16.7 | 12.3 | 265 | 14 |
| 2010-01-20T23:35 | 2131 | 789 | 16.2 | 12.2 | 263 | 13 |
| 2010-01-20T23:36 | 2186 | 784 | 15.8 | 12.1 | 262 | 13 |
| 2010-01-20T23:36 | 2236 | 780 | 15.4 | 12.2 | 261 | 13 |
| 2010-01-20T23:36 | 2288 | 775 | 14.9 | 12.1 | 262 | 13 |
| 2010-01-20T23:36 | 2341 | 770 | 14.5 | 11.9 | 264 | 13 |
| 2010-01-20T23:36 | 2394 | 765 | 14.2 | 11.7 | 266 | 13 |
| 2010-01-20T23:36 | 2444 | 761 | 13.8 | 11.5 | 266 | 12 |
| 2010-01-20T23:37 | 2494 | 756 | 13.4 | 11.3 | 264 | 12 |
| 2010-01-20T23:37 | 2545 | 752 | 13.1 | 11.2 | 261 | 12 |
| 2010-01-20T23:37 | 2600 | 747 | 12.6 | 10.9 | 259 | 13 |
| 2010-01-20T23:37 | 2651 | 742 | 12.2 | 10.7 | 259 | 13 |
| 2010-01-20T23:37 | 2705 | 737 | 12.4 | 10.3 | 259 | 14 |
| 2010-01-20T23:37 | 2755 | 733 | 12.3 | 9.5 | 258 | 14 |
| 2010-01-20T23:38 | 2807 | 729 | 12.1 | 9.1 | 256 | 14 |
| 2010-01-20T23:38 | 2856 | 724 | 12.1 | 8.8 | 253 | 13 |
| 2010-01-20T23:38 | 2909 | 720 | 12.0 | 8.4 | 250 | 13 |
| 2010-01-20T23:38 | 2957 | 716 | 11.8 | 8.2 | 250 | 14 |
| 2010-01-20T23:38 | 3009 | 711 | 11.3 | 8.0 | 250 | 14 |
| 2010-01-20T23:38 | 3061 | 707 | 11.1 | 7.8 | 249 | 14 |
| 2010-01-20T23:39 | 3112 | 703 | 11.0 | 7.2 | 250 | 14 |
| 2010-01-20T23:39 | 3160 | 698 | 10.9 | 6.7 | 251 | 14 |
| 2010-01-20T23:39 | 3210 | 694 | 10.7 | 6.5 | 252 | 14 |
| 2010-01-20T23:39 | 3258 | 690 | 10.5 | 6.0 | 253 | 14 |
| 2010-01-20T23:39 | 3308 | 686 | 10.4 | 5.3 | 253 | 14 |
| 2010-01-20T23:39 | 3359 | 682 | 10.1 | 5.1 | 254 | 14 |
| 2010-01-20T23:40 | 3409 | 678 | 9.8 | 5.0 | 253 | 15 |
| 2010-01-20T23:40 | 3460 | 674 | 9.4 | 4.9 | 253 | 15 |
| 2010-01-20T23:40 | 3510 | 670 | 9.0 | 4.8 | 251 | 15 |
| 2010-01-20T23:40 | 3559 | 666 | 8.6 | 4.8 | 248 | 15 |
| 2010-01-20T23:40 | 3609 | 662 | 8.4 | 4.7 | 244 | 15 |
| 2010-01-20T23:40 | 3660 | 658 | 8.1 | 4.6 | 242 | 14 |
| 2010-01-20T23:41 | 3711 | 654 | 7.8 | 4.1 | 242 | 13 |
| 2010-01-20T23:41 | 3762 | 650 | 7.6 | 4.2 | 242 | 13 |
| 2010-01-20T23:41 | 3814 | 646 | 7.3 | 3.8 | 243 | 13 |
| 2010-01-20T23:41 | 3867 | 641 | 7.1 | 3.6 | 244 | 13 |
| 2010-01-20T23:41 | 3919 | 637 | 6.9 | 3.1 | 245 | 13 |
| 2010-01-20T23:41 | 3969 | 634 | 6.5 | 2.3 | 246 | 12 |
| 2010-01-20T23:42 | 4021 | 630 | 6.3 | 1.6 | 246 | 12 |
| 2010-01-20T23:42 | 4072 | 626 | 6.1 | 1.6 | 245 | 12 |
| 2010-01-20T23:42 | 4126 | 622 | 5.7 | 1.3 | 245 | 12 |
| 2010-01-20T23:42 | 4176 | 618 | 5.4 | 1.3 | 245 | 12 |
| 2010-01-20T23:42 | 4228 | 614 | 5.2 | 0.9 | 246 | 11 |
| 2010-01-20T23:42 | 4281 | 610 | 5.0 | 0.1 | 247 | 11 |
| 2010-01-20T23:43 | 4332 | 606 | 4.6 | -0.3 | 249 | 10 |
| 2010-01-20T23:43 | 4386 | 602 | 4.2 | -1.1 | 252 | 10 |
| 2010-01-20T23:43 | 4444 | 598 | 3.7 | -1.6 | 255 | 9 |
| 2010-01-20T23:43 | 4498 | 594 | 3.2 | -2.0 | 257 | 9 |
| 2010-01-20T23:43 | 4555 | 590 | 2.7 | -2.5 | 258 | 9 |
| 2010-01-20T23:43 | 4612 | 586 | 2.5 | -3.8 | 260 | 10 |
| 2010-01-20T23:44 | 4666 | 582 | 2.2 | -4.1 | 259 | 10 |
| 2010-01-20T23:44 | 4725 | 577 | 1.9 | -4.4 | 257 | 10 |
| 2010-01-20T23:44 | 4780 | 574 | 1.6 | -5.1 | 255 | 10 |
| 2010-01-20T23:44 | 4838 | 569 | 1.5 | -5.3 | 253 | 9 |
| 2010-01-20T23:44 | 4896 | 565 | 1.2 | -5.8 | 253 | 9 |
| 2010-01-20T23:44 | 4951 | 561 | 1.0 | -6.9 | 254 | 8 |
| 2010-01-20T23:45 | 5008 | 558 | 0.6 | -7.1 | 255 | 7 |
| 2010-01-20T23:45 | 5069 | 553 | 0.0 | -6.6 | 258 | 6 |
| 2010-01-20T23:45 | 5127 | 549 | -0.3 | -7.3 | 265 | 6 |
| 2010-01-20T23:45 | 5184 | 545 | -0.7 | -7.8 | 273 | 6 |
| 2010-01-20T23:45 | 5242 | 541 | -1.0 | -8.4 | 280 | 7 |
| 2010-01-20T23:45 | 5303 | 537 | -1.2 | -11.4 | 284 | 7 |
| 2010-01-20T23:46 | 5361 | 533 | -1.4 | -10.6 | 285 | 8 |
| 2010-01-20T23:46 | 5420 | 530 | -1.6 | -9.0 | 283 | 8 |
| 2010-01-20T23:46 | 5482 | 525 | -2.1 | -8.5 | 280 | 8 |
| 2010-01-20T23:46 | 5544 | 521 | -2.6 | -8.1 | 277 | 8 |
| 2010-01-20T23:46 | 5607 | 517 | -3.1 | -8.2 | 274 | 8 |
| 2010-01-20T23:46 | 5673 | 513 | -3.5 | -7.4 | 271 | 8 |
| 2010-01-20T23:47 | 5736 | 509 | -3.8 | -9.6 | 272 | 8 |
| 2010-01-20T23:47 | 5795 | 505 | -4.1 | -9.7 | 275 | 8 |
| 2010-01-20T23:47 | 5852 | 501 | -4.6 | -7.2 | 281 | 7 |
| 2010-01-20T23:47 | 5903 | 498 | -5.0 | -7.4 | 287 | 7 |
| 2010-01-20T23:47 | 5962 | 494 | -5.2 | -7.9 | 289 | 7 |
| 2010-01-20T23:47 | 6022 | 491 | -5.2 | -8.4 | 289 | 7 |
| 2010-01-20T23:48 | 6090 | 486 | -4.9 | -8.4 | 293 | 7 |
| 2010-01-20T23:48 | 6148 | 483 | -5.0 | -8.9 | 303 | 7 |
| 2010-01-20T23:48 | 6216 | 479 | -5.1 | -9.6 | 316 | 7 |
| 2010-01-20T23:48 | 6275 | 475 | -5.5 | -10.4 | 327 | 7 |
| 2010-01-20T23:48 | 6338 | 471 | -5.9 | -11.2 | 332 | 7 |
| 2010-01-20T23:48 | 6397 | 468 | -6.3 | -11.9 | 334 | 7 |
| 2010-01-20T23:49 | 6464 | 464 | -6.8 | -12.3 | 335 | 7 |
| 2010-01-20T23:49 | 6524 | 460 | -7.2 | -12.6 | 337 | 8 |
| 2010-01-20T23:49 | 6584 | 457 | -7.4 | -13.4 | 339 | 7 |
| 2010-01-20T23:49 | 6635 | 454 | -7.3 | -13.6 | 340 | 7 |
| 2010-01-20T23:49 | 6692 | 450 | -7.5 | -13.7 | 339 | 7 |
| 2010-01-20T23:49 | 6752 | 447 | -7.5 | -13.7 | 334 | 7 |
| 2010-01-20T23:50 | 6804 | 444 | -7.8 | -13.9 | 331 | 7 |
| 2010-01-20T23:50 | 6859 | 441 | -8.1 | -14.4 | 329 | 7 |
| 2010-01-20T23:50 | 6917 | 438 | -8.5 | -14.8 | 327 | 7 |
| 2010-01-20T23:50 | 6973 | 434 | -8.8 | -15.4 | 324 | 7 |
| 2010-01-20T23:50 | 7033 | 431 | -9.3 | -15.9 | 323 | 7 |
| 2010-01-20T23:50 | 7084 | 428 | -9.5 | -16.4 | 325 | 6 |
| 2010-01-21T11:32 | 4 | 1007 | 28.1 | 23.8 | 310 | 5 |
| 2010-01-21T11:32 | 10 | 1006 | 28.6 | 24.9 | 336 | 3 |
| 2010-01-21T11:32 | 17 | 1006 | 28.6 | 25.1 | 338 | 4 |
| 2010-01-21T11:32 | 23 | 1005 | 28.6 | 24.7 | 336 | 4 |
| 2010-01-21T11:32 | 29 | 1004 | 28.5 | 24.3 | 336 | 5 |
| 2010-01-21T11:32 | 36 | 1003 | 28.5 | 24.4 | 336 | 5 |
| 2010-01-21T11:32 | 44 | 1003 | 28.4 | 24.5 | 336 | 6 |
| 2010-01-21T11:32 | 50 | 1002 | 28.4 | 24.6 | 335 | 6 |
| 2010-01-21T11:32 | 57 | 1001 | 28.3 | 24.7 | 335 | 7 |
| 2010-01-21T11:32 | 64 | 1000 | 28.3 | 24.7 | 334 | 7 |
| 2010-01-21T11:32 | 70 | 1000 | 28.3 | 24.8 | 334 | 7 |
| 2010-01-21T11:32 | 76 | 999 | 28.2 | 24.8 | 334 | 7 |
| 2010-01-21T11:32 | 82 | 998 | 28.2 | 24.8 | 333 | 8 |
| 2010-01-21T11:32 | 89 | 998 | 28.1 | 24.8 | 333 | 8 |
| 2010-01-21T11:32 | 96 | 997 | 28.0 | 24.7 | 332 | 8 |
| 2010-01-21T11:32 | 103 | 996 | 28.0 | 24.7 | 332 | 8 |
| 2010-01-21T11:32 | 109 | 995 | 27.9 | 24.7 | 332 | 8 |
| 2010-01-21T11:32 | 115 | 995 | 27.9 | 24.7 | 331 | 8 |
| 2010-01-21T11:32 | 122 | 994 | 27.8 | 24.7 | 331 | 8 |
| 2010-01-21T11:32 | 128 | 993 | 27.8 | 24.6 | 330 | 8 |
| 2010-01-21T11:32 | 133 | 993 | 27.7 | 24.6 | 329 | 8 |
| 2010-01-21T11:32 | 137 | 992 | 27.7 | 24.6 | 329 | 8 |
| 2010-01-21T11:32 | 143 | 992 | 27.6 | 24.6 | 328 | 8 |
| 2010-01-21T11:32 | 148 | 991 | 27.6 | 24.6 | 328 | 8 |
| 2010-01-21T11:32 | 155 | 990 | 27.5 | 24.6 | 327 | 8 |
| 2010-01-21T11:32 | 163 | 989 | 27.5 | 24.6 | 326 | 8 |
| 2010-01-21T11:32 | 171 | 988 | 27.4 | 24.6 | 326 | 8 |
| 2010-01-21T11:32 | 180 | 987 | 27.3 | 24.6 | 326 | 8 |
| 2010-01-21T11:32 | 188 | 987 | 27.2 | 24.5 | 326 | 8 |
| 2010-01-21T11:32 | 196 | 986 | 27.1 | 24.5 | 325 | 8 |
| 2010-01-21T11:33 | 205 | 985 | 27.1 | 24.5 | 325 | 8 |
| 2010-01-21T11:33 | 215 | 984 | 27.0 | 24.4 | 326 | 8 |
| 2010-01-21T11:33 | 225 | 982 | 26.9 | 24.4 | 326 | 8 |
| 2010-01-21T11:33 | 236 | 981 | 26.7 | 24.4 | 326 | 8 |
| 2010-01-21T11:33 | 247 | 980 | 26.6 | 24.3 | 327 | 8 |
| 2010-01-21T11:33 | 257 | 979 | 26.5 | 24.3 | 327 | 8 |
| 2010-01-21T11:33 | 267 | 978 | 26.4 | 24.3 | 327 | 8 |
| 2010-01-21T11:33 | 276 | 977 | 26.3 | 24.3 | 328 | 8 |
| 2010-01-21T11:33 | 287 | 976 | 26.3 | 24.3 | 328 | 8 |
| 2010-01-21T11:33 | 297 | 975 | 26.2 | 24.3 | 328 | 9 |
| 2010-01-21T11:33 | 306 | 974 | 26.1 | 24.3 | 328 | 9 |
| 2010-01-21T11:33 | 316 | 972 | 26.0 | 24.2 | 328 | 9 |
| 2010-01-21T11:33 | 325 | 971 | 25.9 | 24.1 | 328 | 9 |
| 2010-01-21T11:33 | 335 | 970 | 25.8 | 24.1 | 328 | 9 |
| 2010-01-21T11:33 | 345 | 969 | 25.8 | 24.0 | 328 | 9 |
| 2010-01-21T11:33 | 355 | 968 | 25.7 | 24.0 | 328 | 9 |
| 2010-01-21T11:33 | 366 | 967 | 25.6 | 24.0 | 328 | 9 |
| 2010-01-21T11:33 | 376 | 966 | 25.5 | 23.9 | 328 | 9 |
| 2010-01-21T11:33 | 387 | 965 | 25.4 | 23.9 | 328 | 9 |
| 2010-01-21T11:33 | 397 | 964 | 25.3 | 23.9 | 328 | 10 |
| 2010-01-21T11:33 | 407 | 963 | 25.2 | 23.9 | 328 | 10 |
| 2010-01-21T11:33 | 416 | 962 | 25.1 | 23.7 | 328 | 10 |
| 2010-01-21T11:33 | 425 | 961 | 25.0 | 23.6 | 328 | 10 |
| 2010-01-21T11:33 | 434 | 960 | 25.0 | 23.6 | 328 | 10 |
| 2010-01-21T11:33 | 443 | 959 | 24.9 | 23.6 | 328 | 10 |
| 2010-01-21T11:33 | 452 | 958 | 24.8 | 23.5 | 329 | 10 |
| 2010-01-21T11:33 | 461 | 957 | 24.7 | 23.5 | 329 | 10 |
| 2010-01-21T11:33 | 470 | 956 | 24.6 | 23.4 | 330 | 10 |
| 2010-01-21T11:33 | 479 | 955 | 24.5 | 23.4 | 330 | 11 |
| 2010-01-21T11:33 | 489 | 954 | 24.5 | 23.4 | 330 | 11 |
| 2010-01-21T11:34 | 499 | 953 | 24.4 | 23.4 | 331 | 11 |
| 2010-01-21T11:34 | 508 | 952 | 24.3 | 23.4 | 331 | 11 |
| 2010-01-21T11:34 | 517 | 951 | 24.2 | 23.3 | 332 | 11 |
| 2010-01-21T11:34 | 525 | 950 | 24.1 | 23.3 | 332 | 11 |
| 2010-01-21T11:34 | 534 | 949 | 24.0 | 23.3 | 332 | 11 |
| 2010-01-21T11:34 | 543 | 948 | 23.9 | 23.2 | 332 | 11 |
| 2010-01-21T11:34 | 552 | 947 | 23.9 | 23.0 | 332 | 11 |
| 2010-01-21T11:34 | 560 | 946 | 23.8 | 23.0 | 332 | 11 |
| 2010-01-21T11:34 | 569 | 945 | 23.7 | 23.1 | 332 | 11 |
| 2010-01-21T11:34 | 577 | 944 | 23.6 | 23.1 | 332 | 11 |
| 2010-01-21T11:34 | 586 | 943 | 23.6 | 22.9 | 332 | 11 |
| 2010-01-21T11:34 | 595 | 942 | 23.7 | 22.4 | 331 | 12 |
| 2010-01-21T11:34 | 603 | 941 | 23.7 | 22.2 | 331 | 12 |
| 2010-01-21T11:34 | 612 | 940 | 23.5 | 22.2 | 331 | 12 |
| 2010-01-21T11:34 | 620 | 939 | 23.5 | 22.2 | 330 | 12 |
| 2010-01-21T11:34 | 629 | 939 | 23.4 | 22.0 | 330 | 12 |
| 2010-01-21T11:34 | 638 | 938 | 23.3 | 22.0 | 330 | 12 |
| 2010-01-21T11:34 | 648 | 937 | 23.2 | 22.1 | 330 | 12 |
| 2010-01-21T11:34 | 656 | 936 | 23.1 | 22.0 | 330 | 12 |
| 2010-01-21T11:34 | 664 | 935 | 23.0 | 22.0 | 330 | 12 |
| 2010-01-21T11:34 | 672 | 934 | 23.0 | 21.9 | 330 | 12 |
| 2010-01-21T11:34 | 680 | 933 | 22.9 | 21.8 | 330 | 12 |
| 2010-01-21T11:34 | 689 | 932 | 22.9 | 21.8 | 330 | 12 |
| 2010-01-21T11:34 | 698 | 931 | 22.8 | 21.7 | 329 | 12 |
| 2010-01-21T11:34 | 707 | 930 | 22.7 | 21.7 | 329 | 11 |
| 2010-01-21T11:34 | 715 | 929 | 22.6 | 21.6 | 329 | 11 |
| 2010-01-21T11:34 | 722 | 929 | 22.6 | 21.6 | 329 | 12 |
| 2010-01-21T11:34 | 730 | 928 | 22.5 | 21.6 | 329 | 12 |
| 2010-01-21T11:34 | 739 | 927 | 22.4 | 21.6 | 329 | 12 |
| 2010-01-21T11:34 | 748 | 926 | 22.4 | 21.5 | 328 | 12 |
| 2010-01-21T11:35 | 756 | 925 | 22.4 | 21.3 | 328 | 12 |
| 2010-01-21T11:35 | 765 | 924 | 22.3 | 21.3 | 328 | 12 |
| 2010-01-21T11:35 | 774 | 923 | 22.2 | 21.2 | 328 | 12 |
| 2010-01-21T11:35 | 782 | 922 | 22.1 | 21.2 | 327 | 12 |
| 2010-01-21T11:35 | 790 | 921 | 22.0 | 21.1 | 327 | 12 |
| 2010-01-21T11:35 | 799 | 921 | 22.0 | 21.0 | 326 | 12 |
| 2010-01-21T11:35 | 808 | 920 | 22.0 | 20.5 | 326 | 12 |
| 2010-01-21T11:35 | 817 | 919 | 22.1 | 20.1 | 326 | 12 |
| 2010-01-21T11:35 | 824 | 918 | 22.1 | 20.0 | 325 | 12 |
| 2010-01-21T11:35 | 830 | 917 | 22.1 | 19.5 | 325 | 13 |
| 2010-01-21T11:35 | 837 | 917 | 22.1 | 19.3 | 325 | 13 |
| 2010-01-21T11:35 | 844 | 916 | 22.1 | 19.3 | 324 | 13 |
| 2010-01-21T11:35 | 853 | 915 | 22.0 | 19.3 | 324 | 13 |
| 2010-01-21T11:35 | 862 | 914 | 22.0 | 19.0 | 323 | 13 |
| 2010-01-21T11:35 | 869 | 913 | 22.0 | 18.7 | 323 | 13 |
| 2010-01-21T11:35 | 877 | 912 | 21.9 | 18.6 | 323 | 13 |
| 2010-01-21T11:35 | 885 | 911 | 21.9 | 18.5 | 322 | 13 |
| 2010-01-21T11:35 | 894 | 911 | 21.8 | 18.4 | 322 | 13 |
| 2010-01-21T11:35 | 901 | 910 | 21.8 | 18.4 | 322 | 13 |
| 2010-01-21T11:35 | 907 | 909 | 21.7 | 18.4 | 322 | 13 |
| 2010-01-21T11:35 | 914 | 908 | 21.7 | 18.3 | 321 | 13 |
| 2010-01-21T11:35 | 921 | 908 | 21.7 | 18.2 | 321 | 14 |
| 2010-01-21T11:35 | 928 | 907 | 21.6 | 18.1 | 321 | 14 |
| 2010-01-21T11:35 | 935 | 906 | 21.6 | 18.0 | 320 | 14 |
| 2010-01-21T11:35 | 943 | 905 | 21.6 | 17.9 | 320 | 14 |
| 2010-01-21T11:35 | 952 | 904 | 21.5 | 17.8 | 320 | 14 |
| 2010-01-21T11:35 | 962 | 903 | 21.5 | 17.6 | 319 | 14 |
| 2010-01-21T11:35 | 969 | 903 | 21.5 | 17.5 | 319 | 14 |
| 2010-01-21T11:35 | 976 | 902 | 21.5 | 17.4 | 318 | 14 |
| 2010-01-21T11:35 | 985 | 901 | 21.4 | 17.3 | 318 | 14 |
| 2010-01-21T11:36 | 995 | 900 | 21.4 | 17.1 | 317 | 14 |
| 2010-01-21T11:36 | 1004 | 899 | 21.3 | 16.9 | 317 | 14 |
| 2010-01-21T11:36 | 1013 | 898 | 21.3 | 16.9 | 316 | 14 |
| 2010-01-21T11:36 | 1022 | 897 | 21.2 | 16.9 | 316 | 14 |
| 2010-01-21T11:36 | 1030 | 896 | 21.1 | 16.8 | 315 | 14 |
| 2010-01-21T11:36 | 1039 | 895 | 21.0 | 16.9 | 315 | 14 |
| 2010-01-21T11:36 | 1048 | 895 | 21.0 | 17.0 | 315 | 14 |
| 2010-01-21T11:36 | 1056 | 894 | 20.9 | 17.0 | 314 | 14 |
| 2010-01-21T11:36 | 1064 | 893 | 20.8 | 17.0 | 314 | 14 |
| 2010-01-21T11:36 | 1071 | 892 | 20.8 | 17.0 | 314 | 14 |
| 2010-01-21T11:36 | 1078 | 891 | 20.7 | 17.0 | 314 | 14 |
| 2010-01-21T11:36 | 1085 | 891 | 20.6 | 17.0 | 313 | 14 |
| 2010-01-21T11:36 | 1092 | 890 | 20.5 | 17.0 | 313 | 14 |
| 2010-01-21T11:36 | 1099 | 889 | 20.5 | 16.9 | 312 | 14 |
| 2010-01-21T11:36 | 1108 | 888 | 20.4 | 16.9 | 312 | 14 |
| 2010-01-21T11:36 | 1117 | 887 | 20.3 | 16.9 | 311 | 14 |
| 2010-01-21T11:36 | 1127 | 886 | 20.2 | 16.9 | 311 | 14 |
| 2010-01-21T11:36 | 1136 | 886 | 20.2 | 17.0 | 310 | 14 |
| 2010-01-21T11:36 | 1145 | 885 | 20.1 | 17.1 | 309 | 14 |
| 2010-01-21T11:36 | 1152 | 884 | 20.1 | 17.2 | 309 | 14 |
| 2010-01-21T11:36 | 1160 | 883 | 20.0 | 17.2 | 308 | 14 |
| 2010-01-21T11:36 | 1168 | 882 | 20.0 | 17.2 | 308 | 14 |
| 2010-01-21T11:36 | 1176 | 881 | 19.9 | 17.2 | 307 | 14 |
| 2010-01-21T11:36 | 1185 | 881 | 19.9 | 17.2 | 307 | 14 |
| 2010-01-21T11:36 | 1192 | 880 | 19.8 | 17.2 | 306 | 14 |
| 2010-01-21T11:36 | 1200 | 879 | 19.7 | 17.2 | 306 | 14 |
| 2010-01-21T11:36 | 1208 | 878 | 19.7 | 17.2 | 305 | 14 |
| 2010-01-21T11:36 | 1216 | 877 | 19.6 | 17.2 | 305 | 14 |
| 2010-01-21T11:36 | 1225 | 876 | 19.6 | 17.1 | 304 | 14 |
| 2010-01-21T11:36 | 1233 | 876 | 19.5 | 17.1 | 304 | 14 |
| 2010-01-21T11:37 | 1241 | 875 | 19.5 | 17.1 | 303 | 14 |
| 2010-01-21T11:37 | 1248 | 874 | 19.5 | 17.1 | 303 | 14 |
| 2010-01-21T11:37 | 1254 | 873 | 19.4 | 17.1 | 302 | 14 |
| 2010-01-21T11:37 | 1261 | 873 | 19.4 | 17.1 | 302 | 14 |
| 2010-01-21T11:37 | 1270 | 872 | 19.3 | 17.2 | 301 | 14 |
| 2010-01-21T11:37 | 1278 | 871 | 19.3 | 17.2 | 301 | 14 |
| 2010-01-21T11:37 | 1286 | 870 | 19.2 | 17.1 | 301 | 14 |
| 2010-01-21T11:37 | 1293 | 870 | 19.2 | 17.2 | 300 | 14 |
| 2010-01-21T11:37 | 1301 | 869 | 19.1 | 17.2 | 300 | 14 |
| 2010-01-21T11:37 | 1309 | 868 | 19.1 | 17.2 | 300 | 14 |
| 2010-01-21T11:37 | 1317 | 867 | 19.1 | 17.2 | 300 | 15 |
| 2010-01-21T11:37 | 1325 | 866 | 19.1 | 17.1 | 299 | 15 |
| 2010-01-21T11:37 | 1333 | 866 | 19.1 | 17.0 | 299 | 15 |
| 2010-01-21T11:37 | 1340 | 865 | 19.1 | 16.8 | 299 | 15 |
| 2010-01-21T11:37 | 1348 | 864 | 19.1 | 16.8 | 299 | 15 |
| 2010-01-21T11:37 | 1356 | 863 | 19.1 | 16.7 | 299 | 15 |
| 2010-01-21T11:37 | 1365 | 862 | 19.1 | 16.5 | 299 | 15 |
| 2010-01-21T11:37 | 1372 | 862 | 19.2 | 16.3 | 299 | 15 |
| 2010-01-21T11:37 | 1378 | 861 | 19.2 | 16.3 | 299 | 15 |
| 2010-01-21T11:37 | 1385 | 860 | 19.2 | 16.4 | 299 | 15 |
| 2010-01-21T11:37 | 1393 | 860 | 19.2 | 16.5 | 299 | 15 |
| 2010-01-21T11:37 | 1401 | 859 | 19.1 | 16.4 | 299 | 15 |
| 2010-01-21T11:37 | 1409 | 858 | 19.0 | 16.4 | 299 | 15 |
| 2010-01-21T11:37 | 1417 | 857 | 19.0 | 16.4 | 299 | 15 |
| 2010-01-21T11:37 | 1425 | 856 | 18.9 | 16.3 | 299 | 14 |
| 2010-01-21T11:37 | 1432 | 856 | 18.9 | 16.3 | 298 | 14 |
| 2010-01-21T11:37 | 1439 | 855 | 18.8 | 16.1 | 298 | 14 |
| 2010-01-21T11:37 | 1446 | 854 | 18.8 | 16.1 | 298 | 14 |
| 2010-01-21T11:37 | 1455 | 853 | 18.8 | 16.1 | 297 | 14 |
| 2010-01-21T11:37 | 1464 | 852 | 18.9 | 16.0 | 296 | 14 |
| 2010-01-21T11:38 | 1474 | 852 | 19.0 | 15.6 | 296 | 14 |
| 2010-01-21T11:38 | 1483 | 851 | 19.2 | 15.3 | 295 | 14 |
| 2010-01-21T11:38 | 1491 | 850 | 19.4 | 15.1 | 294 | 14 |
| 2010-01-21T11:38 | 1499 | 849 | 19.6 | 14.9 | 293 | 14 |
| 2010-01-21T11:38 | 1508 | 848 | 19.7 | 14.7 | 292 | 14 |
| 2010-01-21T11:38 | 1516 | 847 | 19.9 | 14.6 | 291 | 14 |
| 2010-01-21T11:38 | 1525 | 846 | 20.1 | 14.4 | 290 | 14 |
| 2010-01-21T11:38 | 1533 | 846 | 20.2 | 14.3 | 289 | 13 |
| 2010-01-21T11:38 | 1540 | 845 | 20.2 | 14.1 | 288 | 13 |
| 2010-01-21T11:38 | 1548 | 844 | 20.3 | 14.0 | 287 | 13 |
| 2010-01-21T11:38 | 1557 | 843 | 20.3 | 13.8 | 286 | 13 |
| 2010-01-21T11:38 | 1566 | 842 | 20.4 | 13.7 | 285 | 13 |
| 2010-01-21T11:38 | 1576 | 842 | 20.5 | 13.5 | 284 | 13 |
| 2010-01-21T11:38 | 1585 | 841 | 20.4 | 13.4 | 283 | 13 |
| 2010-01-21T11:38 | 1594 | 840 | 20.5 | 13.3 | 282 | 13 |
| 2010-01-21T11:38 | 1602 | 839 | 20.5 | 13.2 | 281 | 13 |
| 2010-01-21T11:38 | 1610 | 838 | 20.5 | 13.1 | 280 | 13 |
| 2010-01-21T11:38 | 1617 | 838 | 20.5 | 13.1 | 279 | 13 |
| 2010-01-21T11:38 | 1625 | 837 | 20.6 | 13.0 | 278 | 13 |
| 2010-01-21T11:38 | 1634 | 836 | 20.5 | 12.9 | 278 | 13 |
| 2010-01-21T11:38 | 1642 | 835 | 20.5 | 12.9 | 277 | 13 |
| 2010-01-21T11:38 | 1650 | 834 | 20.4 | 12.8 | 276 | 13 |
| 2010-01-21T11:38 | 1659 | 834 | 20.3 | 12.7 | 275 | 13 |
| 2010-01-21T11:38 | 1667 | 833 | 20.4 | 12.6 | 274 | 13 |
| 2010-01-21T11:38 | 1676 | 832 | 20.4 | 12.4 | 274 | 13 |
| 2010-01-21T11:38 | 1685 | 831 | 20.4 | 12.3 | 273 | 13 |
| 2010-01-21T11:38 | 1694 | 830 | 20.3 | 12.3 | 272 | 13 |
| 2010-01-21T11:38 | 1703 | 829 | 20.3 | 12.2 | 272 | 13 |
| 2010-01-21T11:38 | 1711 | 829 | 20.2 | 12.1 | 271 | 13 |
| 2010-01-21T11:38 | 1718 | 828 | 20.1 | 12.0 | 271 | 13 |
| 2010-01-21T11:39 | 1726 | 827 | 20.1 | 12.0 | 271 | 13 |
| 2010-01-21T11:39 | 1733 | 826 | 20.0 | 11.9 | 270 | 13 |
| 2010-01-21T11:39 | 1740 | 826 | 20.0 | 11.9 | 270 | 13 |
| 2010-01-21T11:39 | 1748 | 825 | 19.9 | 11.9 | 270 | 13 |
| 2010-01-21T11:39 | 1756 | 824 | 19.8 | 11.8 | 270 | 13 |
| 2010-01-21T11:39 | 1762 | 824 | 19.8 | 11.8 | 269 | 13 |
| 2010-01-21T11:39 | 1770 | 823 | 19.7 | 11.7 | 269 | 13 |
| 2010-01-21T11:39 | 1779 | 822 | 19.6 | 11.7 | 269 | 14 |
| 2010-01-21T11:39 | 1786 | 821 | 19.5 | 11.7 | 269 | 14 |
| 2010-01-21T11:39 | 1792 | 821 | 19.5 | 11.7 | 269 | 14 |
| 2010-01-21T11:39 | 1799 | 820 | 19.4 | 11.7 | 269 | 14 |
| 2010-01-21T11:39 | 1808 | 819 | 19.4 | 11.7 | 268 | 14 |
| 2010-01-21T11:39 | 1817 | 818 | 19.3 | 11.7 | 268 | 14 |
| 2010-01-21T11:39 | 1826 | 818 | 19.2 | 11.7 | 268 | 14 |
| 2010-01-21T11:39 | 1835 | 817 | 19.1 | 11.6 | 268 | 14 |
| 2010-01-21T11:39 | 1845 | 816 | 19.0 | 11.6 | 268 | 14 |
| 2010-01-21T11:39 | 1854 | 815 | 18.9 | 11.6 | 267 | 14 |
| 2010-01-21T11:39 | 1864 | 814 | 18.9 | 11.5 | 267 | 14 |
| 2010-01-21T11:39 | 1874 | 813 | 18.8 | 11.4 | 267 | 14 |
| 2010-01-21T11:39 | 1882 | 812 | 18.7 | 11.4 | 266 | 14 |
| 2010-01-21T11:39 | 1890 | 811 | 18.6 | 11.3 | 266 | 14 |
| 2010-01-21T11:39 | 1899 | 811 | 18.6 | 11.2 | 266 | 14 |
| 2010-01-21T11:39 | 1907 | 810 | 18.5 | 11.1 | 266 | 14 |
| 2010-01-21T11:39 | 1915 | 809 | 18.5 | 11.1 | 265 | 14 |
| 2010-01-21T11:39 | 1923 | 808 | 18.4 | 11.1 | 265 | 14 |
| 2010-01-21T11:39 | 1932 | 808 | 18.3 | 11.1 | 265 | 14 |
| 2010-01-21T11:39 | 1941 | 807 | 18.2 | 11.1 | 265 | 14 |
| 2010-01-21T11:39 | 1949 | 806 | 18.1 | 11.1 | 265 | 14 |
| 2010-01-21T11:39 | 1958 | 805 | 18.0 | 11.1 | 265 | 14 |
| 2010-01-21T11:39 | 1966 | 804 | 18.0 | 11.0 | 265 | 14 |
| 2010-01-21T11:40 | 1974 | 804 | 18.0 | 11.0 | 265 | 14 |
| 2010-01-21T11:40 | 1982 | 803 | 18.0 | 10.8 | 266 | 14 |
| 2010-01-21T11:40 | 1989 | 802 | 18.3 | 10.6 | 266 | 14 |
| 2010-01-21T11:40 | 1997 | 801 | 18.4 | 10.5 | 266 | 14 |
| 2010-01-21T11:40 | 2012 | 800 | 18.5 | 10.3 | 267 | 14 |
| 2010-01-21T11:40 | 2052 | 796 | 18.2 | 9.9 | 268 | 14 |
| 2010-01-21T11:40 | 2092 | 793 | 17.9 | 9.8 | 269 | 13 |
| 2010-01-21T11:40 | 2134 | 789 | 17.5 | 9.5 | 269 | 12 |
| 2010-01-21T11:40 | 2173 | 785 | 17.5 | 9.4 | 270 | 12 |
| 2010-01-21T11:41 | 2217 | 781 | 17.2 | 9.2 | 270 | 13 |
| 2010-01-21T11:41 | 2260 | 777 | 16.9 | 9.0 | 269 | 13 |
| 2010-01-21T11:41 | 2303 | 773 | 16.6 | 8.9 | 267 | 14 |
| 2010-01-21T11:41 | 2346 | 769 | 16.2 | 8.7 | 266 | 15 |
| 2010-01-21T11:41 | 2392 | 765 | 15.8 | 8.6 | 263 | 15 |
| 2010-01-21T11:41 | 2436 | 761 | 15.6 | 8.4 | 261 | 15 |
| 2010-01-21T11:42 | 2478 | 757 | 15.4 | 8.3 | 260 | 15 |
| 2010-01-21T11:42 | 2520 | 754 | 15.1 | 8.3 | 260 | 15 |
| 2010-01-21T11:42 | 2562 | 750 | 14.8 | 8.6 | 260 | 15 |
| 2010-01-21T11:42 | 2604 | 746 | 14.4 | 8.1 | 260 | 15 |
| 2010-01-21T11:42 | 2647 | 743 | 14.1 | 8.0 | 259 | 14 |
| 2010-01-21T11:42 | 2687 | 739 | 13.8 | 8.2 | 258 | 14 |
| 2010-01-21T11:43 | 2728 | 735 | 13.4 | 8.6 | 257 | 15 |
| 2010-01-21T11:43 | 2766 | 732 | 13.3 | 8.6 | 256 | 15 |
| 2010-01-21T11:43 | 2806 | 729 | 13.1 | 8.2 | 257 | 15 |
| 2010-01-21T11:43 | 2846 | 725 | 12.9 | 8.1 | 259 | 15 |
| 2010-01-21T11:43 | 2887 | 722 | 12.6 | 7.9 | 260 | 15 |
| 2010-01-21T11:43 | 2930 | 718 | 12.4 | 7.6 | 260 | 15 |
| 2010-01-21T11:44 | 2974 | 714 | 11.9 | 7.5 | 261 | 14 |
| 2010-01-21T11:44 | 3014 | 711 | 11.6 | 7.3 | 261 | 14 |
| 2010-01-21T11:44 | 3054 | 707 | 11.2 | 7.1 | 262 | 14 |
| 2010-01-21T11:44 | 3096 | 704 | 10.9 | 7.0 | 265 | 13 |
| 2010-01-21T11:44 | 3140 | 700 | 10.7 | 6.9 | 267 | 13 |
| 2010-01-21T11:44 | 3182 | 697 | 10.6 | 6.6 | 268 | 13 |
| 2010-01-21T11:45 | 3226 | 693 | 10.3 | 6.3 | 268 | 14 |
| 2010-01-21T11:45 | 3269 | 690 | 10.1 | 5.9 | 268 | 14 |
| 2010-01-21T11:45 | 3311 | 686 | 10.1 | 5.7 | 269 | 14 |
| 2010-01-21T11:45 | 3355 | 682 | 9.9 | 5.4 | 268 | 15 |
| 2010-01-21T11:45 | 3396 | 679 | 9.7 | 5.3 | 267 | 15 |
| 2010-01-21T11:45 | 3437 | 676 | 9.6 | 5.2 | 266 | 16 |
| 2010-01-21T11:46 | 3476 | 673 | 9.4 | 5.0 | 265 | 16 |
| 2010-01-21T11:46 | 3516 | 669 | 9.3 | 4.2 | 263 | 16 |
| 2010-01-21T11:46 | 3561 | 666 | 9.4 | 4.0 | 259 | 15 |
| 2010-01-21T11:46 | 3604 | 662 | 9.3 | 3.3 | 254 | 14 |
| 2010-01-21T11:46 | 3647 | 659 | 9.1 | 2.8 | 250 | 14 |
| 2010-01-21T11:46 | 3686 | 656 | 9.3 | 2.4 | 249 | 14 |
| 2010-01-21T11:47 | 3727 | 653 | 9.0 | 2.3 | 249 | 14 |
| 2010-01-21T11:47 | 3768 | 649 | 8.6 | 2.1 | 250 | 13 |
| 2010-01-21T11:47 | 3809 | 646 | 8.2 | 2.1 | 251 | 13 |
| 2010-01-21T11:47 | 3851 | 643 | 7.8 | 2.0 | 252 | 13 |
| 2010-01-21T11:47 | 3894 | 640 | 7.4 | 1.9 | 254 | 13 |
| 2010-01-21T11:47 | 3935 | 636 | 7.2 | 1.7 | 254 | 14 |
| 2010-01-21T11:48 | 3977 | 633 | 6.9 | 1.1 | 254 | 14 |
| 2010-01-21T11:48 | 4020 | 630 | 6.5 | 1.2 | 254 | 14 |
| 2010-01-21T11:48 | 4063 | 627 | 6.1 | 1.1 | 254 | 14 |
| 2010-01-21T11:48 | 4106 | 623 | 5.7 | 1.1 | 255 | 14 |
| 2010-01-21T11:48 | 4149 | 620 | 5.3 | 1.0 | 255 | 14 |
| 2010-01-21T11:48 | 4192 | 617 | 4.9 | 1.0 | 257 | 14 |
| 2010-01-21T11:49 | 4235 | 613 | 4.5 | 1.0 | 258 | 14 |
| 2010-01-21T11:49 | 4278 | 610 | 4.2 | 1.0 | 259 | 14 |
| 2010-01-21T11:49 | 4320 | 607 | 3.8 | 1.0 | 260 | 14 |
| 2010-01-21T11:49 | 4364 | 604 | 3.6 | 0.9 | 260 | 14 |
| 2010-01-21T11:49 | 4409 | 601 | 3.3 | 0.7 | 261 | 13 |
| 2010-01-21T11:49 | 4454 | 597 | 2.8 | 0.5 | 261 | 13 |
| 2010-01-21T11:50 | 4501 | 594 | 2.4 | 0.5 | 263 | 12 |
| 2010-01-21T11:50 | 4550 | 590 | 2.1 | 0.4 | 265 | 12 |
| 2010-01-21T11:50 | 4597 | 587 | 1.8 | 0.4 | 269 | 13 |
| 2010-01-21T11:50 | 4646 | 583 | 1.7 | 0.5 | 272 | 13 |
| 2010-01-21T11:50 | 4697 | 580 | 1.5 | 0.4 | 275 | 13 |
| 2010-01-21T11:50 | 4740 | 576 | 1.3 | 0.2 | 278 | 13 |
| 2010-01-21T11:51 | 4784 | 573 | 0.9 | 0.1 | 280 | 13 |
| 2010-01-21T11:51 | 4827 | 570 | 0.6 | 0.0 | 281 | 13 |
| 2010-01-21T11:51 | 4868 | 567 | 0.5 | -0.1 | 280 | 12 |
| 2010-01-21T11:51 | 4906 | 565 | 0.4 | -0.3 | 280 | 12 |
| 2010-01-21T11:51 | 4948 | 562 | 0.0 | -0.7 | 281 | 12 |
| 2010-01-21T11:51 | 4991 | 559 | -0.3 | -0.7 | 281 | 13 |
| 2010-01-21T11:52 | 5037 | 556 | -0.6 | -0.7 | 282 | 13 |
| 2010-01-21T11:52 | 5086 | 552 | -0.9 | -0.9 | 282 | 13 |
| 2010-01-21T11:52 | 5132 | 549 | -1.2 | -1.2 | 283 | 13 |
| 2010-01-21T11:52 | 5174 | 546 | -1.5 | -1.7 | 285 | 13 |
| 2010-01-21T11:52 | 5210 | 544 | -1.6 | -2.3 | 285 | 13 |
| 2010-01-21T11:52 | 5245 | 541 | -1.9 | -2.5 | 285 | 13 |
| 2010-01-21T11:53 | 5275 | 539 | -2.1 | -2.6 | 284 | 13 |
| 2010-01-21T11:53 | 5306 | 537 | -2.1 | -2.8 | 284 | 13 |
| 2010-01-21T11:53 | 5335 | 535 | -2.4 | -3.0 | 285 | 13 |
| 2010-01-21T11:53 | 5367 | 533 | -2.6 | -3.5 | 286 | 13 |
| 2010-01-21T11:53 | 5410 | 530 | -3.0 | -3.2 | 288 | 13 |
| 2010-01-21T11:53 | 5446 | 528 | -3.3 | -3.3 | 289 | 13 |
| 2010-01-21T11:54 | 5486 | 525 | -3.4 | -3.5 | 289 | 12 |
| 2010-01-21T11:54 | 5522 | 523 | -3.4 | -3.6 | 290 | 12 |
| 2010-01-21T11:54 | 5553 | 521 | -3.5 | -3.9 | 292 | 12 |
| 2010-01-21T11:54 | 5594 | 518 | -3.6 | -4.5 | 293 | 12 |
| 2010-01-21T11:54 | 5627 | 516 | -3.9 | -4.5 | 294 | 12 |
| 2010-01-21T11:54 | 5655 | 514 | -3.9 | -5.1 | 295 | 11 |
| 2010-01-21T11:55 | 5680 | 512 | -4.0 | -5.3 | 296 | 12 |
| 2010-01-21T11:55 | 5709 | 510 | -4.1 | -5.3 | 297 | 12 |
| 2010-01-21T11:55 | 5735 | 509 | -4.3 | -6.0 | 297 | 11 |
| 2010-01-21T11:55 | 5761 | 507 | -4.5 | -5.8 | 299 | 11 |
| 2010-01-21T11:55 | 5792 | 505 | -4.6 | -5.8 | 300 | 11 |
| 2010-01-21T11:55 | 5821 | 503 | -4.5 | -6.4 | 300 | 10 |
| 2010-01-21T11:56 | 5846 | 502 | -4.6 | -6.8 | 300 | 10 |
| 2010-01-21T11:56 | 5874 | 500 | -4.8 | -7.0 | 300 | 9 |
| 2010-01-21T11:56 | 5901 | 498 | -5.0 | -7.6 | 300 | 9 |
| 2010-01-21T11:56 | 5928 | 497 | -5.0 | -7.7 | 299 | 9 |
| 2010-01-21T11:56 | 5954 | 495 | -5.2 | -7.8 | 298 | 8 |
| 2010-01-21T11:56 | 5979 | 493 | -5.4 | -7.9 | 297 | 8 |
| 2010-01-21T11:57 | 6003 | 492 | -5.6 | -7.9 | 296 | 8 |
| 2010-01-21T11:57 | 6029 | 490 | -5.8 | -8.5 | 296 | 8 |
| 2010-01-21T11:57 | 6054 | 489 | -6.0 | -8.8 | 295 | 8 |
| 2010-01-21T11:57 | 6080 | 487 | -6.2 | -8.9 | 295 | 8 |
| 2010-01-21T11:57 | 6106 | 485 | -6.4 | -9.1 | 295 | 8 |
| 2010-01-21T11:57 | 6132 | 484 | -6.6 | -9.1 | 294 | 8 |
| 2010-01-21T11:58 | 6158 | 482 | -6.8 | -9.4 | 295 | 8 |
| 2010-01-21T11:58 | 6185 | 481 | -7.0 | -9.6 | 295 | 8 |
| 2010-01-21T11:58 | 6215 | 479 | -7.3 | -10.0 | 296 | 7 |
| 2010-01-21T11:58 | 6241 | 477 | -7.6 | -9.9 | 297 | 7 |
| 2010-01-21T11:58 | 6267 | 476 | -7.6 | -10.2 | 297 | 7 |
| 2010-01-21T11:58 | 6294 | 474 | -7.8 | -10.4 | 298 | 7 |
| 2010-01-21T11:59 | 6321 | 472 | -8.1 | -10.5 | 300 | 6 |
| 2010-01-21T11:59 | 6348 | 471 | -8.2 | -10.8 | 305 | 6 |
| 2010-01-21T11:59 | 6375 | 469 | -8.3 | -11.8 | 311 | 6 |
| 2010-01-21T11:59 | 6402 | 467 | -8.4 | -12.4 | 315 | 7 |
| 2010-01-21T11:59 | 6428 | 466 | -8.5 | -12.9 | 318 | 7 |
| 2010-01-21T11:59 | 6455 | 464 | -8.6 | -13.0 | 320 | 7 |
| 2010-01-21T12:00 | 6481 | 463 | -8.8 | -13.3 | 324 | 7 |
| 2010-01-21T12:00 | 6507 | 461 | -8.9 | -13.8 | 328 | 7 |
| 2010-01-21T12:00 | 6533 | 459 | -8.9 | -15.0 | 332 | 7 |
| 2010-01-21T12:00 | 6558 | 458 | -9.1 | -15.3 | 334 | 7 |
| 2010-01-21T12:00 | 6584 | 456 | -9.3 | -15.7 | 337 | 7 |
| 2010-01-21T12:00 | 6608 | 455 | -9.4 | -16.2 | 339 | 7 |
| 2010-01-21T12:01 | 6632 | 454 | -9.5 | -16.7 | 341 | 7 |
| 2010-01-21T12:01 | 6656 | 452 | -9.7 | -16.8 | 343 | 7 |
| 2010-01-21T12:01 | 6680 | 451 | -9.6 | -17.5 | 345 | 7 |
| 2010-01-21T12:01 | 6705 | 449 | -9.8 | -17.6 | 347 | 7 |
| 2010-01-21T12:01 | 6729 | 448 | -9.9 | -17.4 | 348 | 7 |
| 2010-01-21T12:01 | 6754 | 447 | -10.0 | -16.5 | 348 | 7 |
| 2010-01-21T12:02 | 6777 | 445 | -10.1 | -16.6 | 350 | 7 |
| 2010-01-21T12:02 | 6801 | 444 | -10.3 | -17.0 | 351 | 7 |
| 2010-01-21T12:02 | 6825 | 442 | -10.4 | -17.7 | 353 | 7 |
| 2010-01-21T12:02 | 6847 | 441 | -10.4 | -19.3 | 354 | 7 |
| 2010-01-21T12:02 | 6870 | 440 | -10.4 | -21.6 | 356 | 7 |
| 2010-01-21T12:02 | 6893 | 439 | -10.4 | -24.2 | 359 | 7 |
| 2010-01-21T12:03 | 6917 | 437 | -10.4 | -26.3 | 1 | 7 |
| 2010-01-21T12:03 | 6942 | 436 | -10.6 | -23.5 | 2 | 7 |
| 2010-01-21T12:03 | 6967 | 434 | -10.6 | -23.3 | 1 | 7 |
| 2010-01-21T12:03 | 6992 | 433 | -10.6 | -23.3 | 1 | 7 |
| 2010-01-21T12:03 | 7017 | 432 | -10.8 | -23.5 | 359 | 7 |
| 2010-01-21T12:03 | 7042 | 430 | -10.8 | -21.5 | 357 | 7 |
| 2010-01-21T12:04 | 7068 | 429 | -10.9 | -22.2 | 355 | 7 |
| 2010-01-21T12:04 | 7094 | 427 | -11.0 | -21.6 | 354 | 6 |
| 2010-01-21T12:04 | 7121 | 426 | -11.2 | -22.9 | 355 | 6 |
| 2010-01-21T12:04 | 7148 | 424 | -11.3 | -23.3 | 356 | 6 |
| 2010-01-21T12:04 | 7175 | 423 | -11.5 | -22.8 | 357 | 7 |
| 2010-01-21T12:04 | 7202 | 421 | -11.7 | -22.6 | 358 | 6 |
| 2010-01-21T12:05 | 7229 | 420 | -11.9 | -21.6 | 360 | 6 |
| 2010-01-21T12:05 | 7256 | 418 | -12.0 | -21.9 | 0 | 6 |
| 2010-01-21T12:05 | 7282 | 417 | -12.0 | -21.6 | 0 | 6 |
| 2010-01-21T12:05 | 7309 | 415 | -12.2 | -22.3 | 2 | 6 |
| 2010-01-21T12:05 | 7336 | 414 | -12.4 | -22.9 | 4 | 6 |
| 2010-01-21T12:05 | 7362 | 413 | -12.6 | -23.2 | 6 | 6 |
| 2010-01-21T12:06 | 7389 | 411 | -12.7 | -24.1 | 8 | 6 |
| 2010-01-21T12:06 | 7416 | 410 | -12.9 | -22.6 | 10 | 6 |
| 2010-01-21T12:06 | 7443 | 408 | -13.1 | -22.6 | 12 | 6 |
| 2010-01-21T12:06 | 7470 | 407 | -13.2 | -21.9 | 12 | 6 |
| 2010-01-21T12:06 | 7498 | 405 | -13.4 | -21.9 | 13 | 6 |
| 2010-01-21T12:06 | 7524 | 404 | -13.6 | -21.2 | 13 | 6 |
| 2010-01-21T12:07 | 7550 | 402 | -13.8 | -20.3 | 11 | 6 |
| 2010-01-21T12:07 | 7578 | 401 | -14.0 | -20.9 | 8 | 6 |
| 2010-01-21T12:07 | 7604 | 400 | -14.2 | -22.0 | 7 | 6 |
| 2010-01-21T12:07 | 7631 | 398 | -14.3 | -23.2 | 6 | 6 |
| 2010-01-21T12:07 | 7657 | 397 | -14.4 | -22.5 | 7 | 6 |
| 2010-01-21T12:07 | 7684 | 395 | -14.6 | -22.6 | 7 | 6 |
| 2010-01-21T12:08 | 7710 | 394 | -14.8 | -22.9 | 7 | 6 |
| 2010-01-21T12:08 | 7737 | 393 | -15.0 | -22.9 | 6 | 6 |
| 2010-01-21T12:08 | 7763 | 391 | -15.2 | -23.0 | 4 | 6 |
| 2010-01-21T12:08 | 7789 | 390 | -15.4 | -23.2 | 4 | 6 |
| 2010-01-21T12:08 | 7815 | 389 | -15.6 | -23.7 | 4 | 6 |
| 2010-01-21T12:08 | 7840 | 387 | -15.8 | -24.3 | 4 | 6 |
| 2010-01-21T12:09 | 7864 | 386 | -16.0 | -24.2 | 5 | 6 |
| 2010-01-21T12:09 | 7890 | 385 | -16.2 | -24.4 | 6 | 6 |
| 2010-01-21T12:09 | 7916 | 383 | -16.4 | -24.7 | 7 | 6 |
| 2010-01-21T12:09 | 7942 | 382 | -16.6 | -24.5 | 8 | 6 |
| 2010-01-21T12:09 | 7969 | 381 | -16.8 | -24.5 | 7 | 6 |
| 2010-01-21T12:09 | 7994 | 379 | -17.0 | -24.4 | 6 | 6 |
| 2010-01-21T12:10 | 8020 | 378 | -17.2 | -24.3 | 6 | 6 |
| 2010-01-21T12:10 | 8045 | 377 | -17.5 | -24.3 | 6 | 6 |
| 2010-01-21T12:10 | 8070 | 376 | -17.7 | -24.8 | 5 | 6 |
| 2010-01-21T12:10 | 8097 | 374 | -17.9 | -25.2 | 6 | 6 |
| 2010-01-21T12:10 | 8122 | 373 | -18.1 | -25.9 | 6 | 6 |
| 2010-01-21T12:10 | 8149 | 372 | -18.3 | -25.6 | 7 | 6 |
| 2010-01-21T12:11 | 8174 | 371 | -18.4 | -25.6 | 8 | 6 |
| 2010-01-21T12:11 | 8198 | 369 | -18.6 | -26.0 | 10 | 6 |
| 2010-01-21T12:11 | 8222 | 368 | -18.8 | -26.6 | 12 | 6 |
| 2010-01-21T12:11 | 8248 | 367 | -19.0 | -26.4 | 12 | 6 |
| 2010-01-21T12:11 | 8275 | 366 | -19.2 | -26.4 | 12 | 6 |
| 2010-01-21T12:11 | 8301 | 364 | -19.5 | -26.3 | 12 | 6 |
| 2010-01-21T12:12 | 8326 | 363 | -19.7 | -26.4 | 11 | 6 |
| 2010-01-21T12:12 | 8352 | 362 | -19.9 | -27.0 | 11 | 6 |
| 2010-01-21T12:12 | 8378 | 360 | -20.1 | -27.5 | 11 | 6 |
| 2010-01-21T12:12 | 8405 | 359 | -20.3 | -28.0 | 11 | 6 |
| 2010-01-21T12:12 | 8432 | 358 | -20.6 | -28.0 | 11 | 6 |
| 2010-01-21T12:12 | 8460 | 356 | -20.8 | -28.3 | 12 | 6 |
| 2010-01-21T12:13 | 8488 | 355 | -21.1 | -28.5 | 12 | 6 |
| 2010-01-21T12:13 | 8521 | 354 | -21.4 | -28.7 | 12 | 7 |
| 2010-01-21T12:13 | 8551 | 352 | -21.6 | -29.5 | 11 | 8 |
| 2010-01-21T12:13 | 8577 | 351 | -21.8 | -30.0 | 11 | 8 |
| 2010-01-21T12:13 | 8604 | 350 | -22.0 | -30.1 | 11 | 8 |
| 2010-01-21T12:13 | 8636 | 348 | -22.3 | -30.3 | 9 | 8 |
| 2010-01-21T12:14 | 8668 | 347 | -22.6 | -30.4 | 7 | 8 |
| 2010-01-21T12:14 | 8699 | 345 | -22.9 | -30.4 | 7 | 8 |
| 2010-01-21T12:14 | 8732 | 344 | -23.2 | -30.4 | 9 | 8 |
| 2010-01-21T12:14 | 8763 | 342 | -23.5 | -30.6 | 10 | 9 |
| 2010-01-21T12:14 | 8790 | 341 | -23.8 | -30.5 | 10 | 9 |
| 2010-01-21T12:14 | 8820 | 339 | -24.1 | -30.5 | 11 | 9 |
| 2010-01-21T12:15 | 8848 | 338 | -24.4 | -30.5 | 13 | 9 |
| 2010-01-21T12:15 | 8875 | 337 | -24.6 | -30.5 | 15 | 8 |
| 2010-01-21T12:15 | 8900 | 336 | -24.9 | -30.5 | 16 | 8 |
| 2010-01-21T12:15 | 8924 | 335 | -25.2 | -30.7 | 16 | 8 |
| 2010-01-21T12:15 | 8950 | 333 | -25.4 | -30.5 | 15 | 9 |
| 2010-01-21T12:15 | 8973 | 332 | -25.6 | -30.4 | 14 | 8 |
| 2010-01-21T12:16 | 8996 | 331 | -25.8 | -30.5 | 15 | 8 |
| 2010-01-21T12:16 | 9020 | 330 | -25.5 | -30.0 | 17 | 8 |
| 2010-01-21T12:16 | 9043 | 329 | -25.5 | -29.7 | 19 | 8 |
| 2010-01-21T12:16 | 9066 | 328 | -25.7 | -29.9 | 21 | 9 |
| 2010-01-21T12:16 | 9090 | 327 | -25.7 | -30.1 | 23 | 9 |
| 2010-01-21T12:16 | 9114 | 326 | -25.9 | -30.0 | 25 | 10 |
| 2010-01-21T12:17 | 9138 | 325 | -26.0 | -30.2 | 27 | 10 |
| 2010-01-21T12:17 | 9163 | 324 | -26.1 | -30.2 | 28 | 10 |
| 2010-01-21T12:17 | 9189 | 323 | -26.3 | -30.3 | 29 | 10 |
| 2010-01-21T12:17 | 9213 | 322 | -26.4 | -30.5 | 30 | 10 |
| 2010-01-21T12:17 | 9236 | 321 | -26.6 | -31.1 | 29 | 10 |
| 2010-01-21T12:17 | 9260 | 319 | -26.8 | -31.1 | 28 | 9 |
| 2010-01-21T12:18 | 9282 | 318 | -27.0 | -31.4 | 27 | 9 |
| 2010-01-21T12:18 | 9306 | 317 | -27.1 | -31.5 | 27 | 9 |
| 2010-01-21T12:18 | 9328 | 316 | -27.3 | -31.6 | 26 | 9 |
| 2010-01-21T12:18 | 9354 | 315 | -27.5 | -31.7 | 26 | 9 |
| 2010-01-21T12:18 | 9378 | 314 | -27.8 | -31.9 | 26 | 9 |
| 2010-01-21T12:18 | 9403 | 313 | -27.9 | -32.3 | 25 | 9 |
| 2010-01-21T12:19 | 9428 | 312 | -28.1 | -32.2 | 25 | 9 |
| 2010-01-21T12:19 | 9453 | 311 | -28.4 | -32.3 | 25 | 9 |
| 2010-01-21T12:19 | 9479 | 310 | -28.6 | -32.5 | 24 | 9 |
| 2010-01-21T12:19 | 9505 | 309 | -28.9 | -32.7 | 23 | 8 |
| 2010-01-21T12:19 | 9531 | 308 | -29.1 | -33.1 | 21 | 8 |
| 2010-01-21T12:19 | 9560 | 306 | -29.3 | -33.8 | 19 | 8 |
| 2010-01-21T12:20 | 9588 | 305 | -29.6 | -33.7 | 18 | 8 |
| 2010-01-21T12:20 | 9615 | 304 | -29.9 | -34.0 | 18 | 7 |
| 2010-01-21T12:20 | 9642 | 303 | -30.1 | -34.2 | 18 | 7 |
| 2010-01-21T12:20 | 9669 | 302 | -30.3 | -34.4 | 19 | 7 |
| 2010-01-21T12:20 | 9696 | 301 | -30.6 | -34.6 | 19 | 7 |
| 2010-01-21T12:20 | 9724 | 299 | -30.8 | -34.7 | 18 | 7 |
| 2010-01-21T12:21 | 9753 | 298 | -31.0 | -35.5 | 15 | 7 |
| 2010-01-21T12:21 | 9782 | 297 | -31.3 | -35.7 | 14 | 7 |
| 2010-01-21T12:21 | 9814 | 296 | -31.6 | -35.7 | 12 | 7 |
| 2010-01-21T12:21 | 9845 | 294 | -31.9 | -35.7 | 9 | 6 |
| 2010-01-21T12:21 | 9872 | 293 | -32.2 | -35.7 | 5 | 6 |
| 2010-01-21T12:21 | 9896 | 292 | -32.4 | -36.1 | 4 | 6 |
| 2010-01-21T12:22 | 9919 | 291 | -32.6 | -36.5 | 5 | 6 |
| 2010-01-21T12:22 | 9943 | 290 | -32.8 | -37.3 | 8 | 6 |
| 2010-01-21T12:22 | 9970 | 289 | -33.0 | -37.6 | 12 | 6 |
| 2010-01-21T12:22 | 9996 | 288 | -33.1 | -37.8 | 15 | 6 |
| 2010-01-21T12:22 | 10022 | 287 | -33.4 | -37.9 | 16 | 5 |
| 2010-01-21T12:22 | 10048 | 286 | -33.6 | -38.1 | 17 | 5 |
| 2010-01-21T12:23 | 10074 | 285 | -33.8 | -38.2 | 18 | 5 |
| 2010-01-21T12:23 | 10102 | 284 | -34.1 | -38.3 | 17 | 5 |
| 2010-01-21T12:23 | 10129 | 283 | -34.3 | -38.9 | 14 | 5 |
| 2010-01-21T12:23 | 10156 | 282 | -34.6 | -38.9 | 9 | 5 |
| 2010-01-21T12:23 | 10183 | 280 | -34.8 | -39.1 | 4 | 5 |
| 2010-01-21T12:23 | 10211 | 279 | -35.0 | -39.3 | 2 | 4 |
| 2010-01-21T12:24 | 10238 | 278 | -35.0 | -39.4 | 6 | 4 |
| 2010-01-21T12:24 | 10265 | 277 | -35.1 | -39.5 | 14 | 4 |
| 2010-01-21T12:24 | 10291 | 276 | -35.0 | -39.4 | 20 | 4 |
| 2010-01-21T12:24 | 10318 | 275 | -35.2 | -40.0 | 24 | 4 |
| 2010-01-21T12:24 | 10344 | 274 | -35.3 | -39.9 | 28 | 3 |
| 2010-01-21T12:24 | 10371 | 273 | -35.5 | -40.1 | 33 | 2 |
| 2010-01-21T12:25 | 10398 | 272 | -35.6 | -40.2 | 38 | 2 |
| 2010-01-21T12:25 | 10425 | 271 | -35.8 | -40.3 | 45 | 1 |
| 2010-01-21T12:25 | 10454 | 270 | -36.0 | -40.3 | 62 | 1 |
| 2010-01-21T12:25 | 10483 | 269 | -36.2 | -40.3 | 89 | 0 |
| 2010-01-21T12:25 | 10511 | 268 | -36.4 | -40.9 | 106 | 1 |
| 2010-01-21T12:25 | 10540 | 266 | -36.7 | -40.9 | 114 | 1 |
| 2010-01-21T12:26 | 10568 | 265 | -36.9 | -41.0 | 121 | 1 |
| 2010-01-21T12:26 | 10596 | 264 | -37.2 | -41.2 | 133 | 0 |
| 2010-01-21T12:26 | 10624 | 263 | -37.4 | -41.3 | 157 | 0 |
| 2010-01-21T12:26 | 10652 | 262 | -37.7 | -41.5 | 183 | 0 |
| 2010-01-21T12:26 | 10680 | 261 | -37.9 | -41.7 | 196 | 0 |
| 2010-01-21T12:26 | 10709 | 260 | -38.2 | -42.4 | 198 | 1 |
| 2010-01-21T12:27 | 10738 | 259 | -38.5 | -42.5 | 187 | 1 |
| 2010-01-21T12:27 | 10768 | 258 | -38.7 | -42.7 | 163 | 1 |
| 2010-01-21T12:27 | 10798 | 257 | -38.9 | -42.9 | 142 | 1 |
| 2010-01-21T12:27 | 10828 | 256 | -39.1 | -43.3 | 127 | 2 |
| 2010-01-21T12:27 | 10860 | 254 | -39.4 | -43.3 | 115 | 2 |
| 2010-01-21T12:27 | 10892 | 253 | -39.6 | -43.4 | 107 | 3 |
| 2010-01-21T12:28 | 10922 | 252 | -39.9 | -44.0 | 104 | 3 |
| 2010-01-21T12:28 | 10950 | 251 | -40.1 | -43.8 | 104 | 3 |
| 2010-01-21T12:28 | 10977 | 250 | -40.4 | -43.9 | 105 | 4 |
| 2010-01-21T12:28 | 11004 | 249 | -40.6 | -44.0 | 105 | 4 |
| 2010-01-21T12:28 | 11034 | 248 | -40.8 | -44.3 | 105 | 4 |
| 2010-01-21T12:28 | 11063 | 247 | -41.1 | -44.5 | 104 | 5 |
| 2010-01-21T12:29 | 11092 | 246 | -41.4 | -44.6 | 104 | 5 |
| 2010-01-21T12:29 | 11119 | 245 | -41.6 | -44.9 | 103 | 5 |
| 2010-01-21T12:29 | 11147 | 244 | -41.8 | -45.3 | 102 | 6 |
| 2010-01-21T12:29 | 11175 | 243 | -42.0 | -45.5 | 100 | 6 |
| 2010-01-21T12:29 | 11203 | 242 | -42.3 | -45.7 | 99 | 6 |
| 2010-01-21T12:29 | 11230 | 241 | -42.6 | -45.9 | 98 | 7 |
| 2010-01-21T12:30 | 11256 | 240 | -42.8 | -46.2 | 97 | 7 |
| 2010-01-21T12:30 | 11283 | 239 | -43.0 | -46.5 | 96 | 7 |
| 2010-01-21T12:30 | 11310 | 238 | -43.3 | -46.7 | 94 | 7 |
| 2010-01-21T12:30 | 11336 | 237 | -43.5 | -46.9 | 92 | 7 |
| 2010-01-21T12:30 | 11363 | 236 | -43.7 | -47.0 | 91 | 8 |
| 2010-01-21T12:30 | 11391 | 235 | -43.9 | -47.2 | 92 | 8 |
| 2010-01-21T12:31 | 11419 | 234 | -44.1 | -47.3 | 93 | 8 |
| 2010-01-21T12:31 | 11446 | 233 | -44.3 | -47.6 | 93 | 9 |
| 2010-01-21T12:31 | 11472 | 232 | -44.5 | -47.8 | 93 | 9 |
| 2010-01-21T12:31 | 11500 | 231 | -44.8 | -48.1 | 94 | 9 |
| 2010-01-21T12:31 | 11528 | 230 | -45.0 | -48.3 | 96 | 9 |
| 2010-01-21T12:31 | 11555 | 229 | -45.2 | -48.5 | 98 | 10 |
| 2010-01-21T12:32 | 11583 | 229 | -45.4 | -48.7 | 100 | 10 |
| 2010-01-21T12:32 | 11611 | 228 | -45.6 | -48.9 | 101 | 10 |
| 2010-01-21T12:32 | 11637 | 227 | -45.8 | -49.2 | 103 | 10 |
| 2010-01-21T12:32 | 11663 | 226 | -46.0 | -49.4 | 105 | 11 |
| 2010-01-21T12:32 | 11689 | 225 | -46.2 | -49.6 | 107 | 11 |
| 2010-01-21T12:32 | 11715 | 224 | -46.4 | -49.9 | 109 | 11 |
| 2010-01-21T12:33 | 11741 | 223 | -46.6 | -50.2 | 111 | 11 |
| 2010-01-21T12:33 | 11767 | 222 | -46.9 | -50.4 | 112 | 11 |
| 2010-01-21T12:33 | 11794 | 221 | -47.1 | -50.8 | 114 | 11 |
| 2010-01-21T12:33 | 11819 | 221 | -47.3 | -51.0 | 115 | 11 |
| 2010-01-21T12:33 | 11844 | 220 | -47.6 | -51.3 | 116 | 11 |
| 2010-01-21T12:33 | 11869 | 219 | -47.8 | -51.6 | 117 | 11 |
| 2010-01-21T12:34 | 11894 | 218 | -48.0 | -52.0 | 117 | 11 |
| 2010-01-21T12:34 | 11919 | 217 | -48.2 | -52.3 | 117 | 11 |
| 2010-01-21T12:34 | 11944 | 216 | -48.4 | -52.6 | 118 | 11 |
| 2010-01-21T12:34 | 11969 | 216 | -48.7 | -52.8 | 119 | 11 |
| 2010-01-21T12:34 | 11995 | 215 | -48.9 | -52.9 | 120 | 11 |
| 2010-01-21T12:34 | 12020 | 214 | -49.1 | -53.1 | 121 | 11 |
| 2010-01-21T12:35 | 12045 | 213 | -49.3 | -53.3 | 122 | 11 |
| 2010-01-21T12:35 | 12072 | 212 | -49.5 | -53.5 | 123 | 11 |
| 2010-01-21T12:35 | 12096 | 211 | -49.7 | -53.7 | 124 | 11 |
| 2010-01-21T12:35 | 12121 | 211 | -49.9 | -53.9 | 125 | 11 |
| 2010-01-21T12:35 | 12146 | 210 | -50.1 | -54.1 | 126 | 11 |
| 2010-01-21T12:35 | 12171 | 209 | -50.3 | -54.4 | 127 | 12 |
| 2010-01-21T12:36 | 12196 | 208 | -50.5 | -54.6 | 127 | 12 |
| 2010-01-21T12:36 | 12220 | 207 | -50.7 | -54.9 | 127 | 12 |
| 2010-01-21T12:36 | 12245 | 207 | -51.0 | -55.1 | 129 | 12 |
| 2010-01-21T12:36 | 12270 | 206 | -51.2 | -55.4 | 130 | 12 |
| 2010-01-21T12:36 | 12296 | 205 | -51.4 | -55.6 | 131 | 12 |
| 2010-01-21T12:36 | 12323 | 204 | -51.7 | -55.9 | 133 | 12 |
| 2010-01-21T12:37 | 12350 | 203 | -51.9 | -56.3 | 134 | 12 |
| 2010-01-21T12:37 | 12377 | 203 | -52.2 | -56.5 | 135 | 12 |
| 2010-01-21T12:37 | 12406 | 202 | -52.5 | -56.7 | 136 | 12 |
| 2010-01-21T12:37 | 12432 | 201 | -52.7 | -56.9 | 138 | 12 |
| 2010-01-21T12:37 | 12456 | 200 | -52.9 | -57.2 | 140 | 12 |
| 2010-01-21T12:37 | 12480 | 199 | -53.2 | -57.5 | 141 | 13 |
| 2010-01-21T12:38 | 12504 | 199 | -53.4 | -57.8 | 141 | 13 |
| 2010-01-21T12:38 | 12529 | 198 | -53.6 | -58.1 | 140 | 13 |
| 2010-01-21T12:38 | 12556 | 197 | -53.9 | -58.3 | 140 | 13 |
| 2010-01-21T12:38 | 12582 | 196 | -54.1 | -58.5 | 140 | 13 |
| 2010-01-21T12:38 | 12609 | 195 | -54.3 | -58.8 | 140 | 14 |
| 2010-01-21T12:38 | 12635 | 195 | -54.5 | -59.0 | 140 | 14 |
| 2010-01-21T12:39 | 12662 | 194 | -54.7 | -59.3 | 140 | 15 |
| 2010-01-21T12:39 | 12690 | 193 | -54.9 | -59.6 | 140 | 15 |
| 2010-01-21T12:39 | 12717 | 192 | -55.1 | -59.9 | 140 | 15 |
| 2010-01-21T12:39 | 12744 | 191 | -55.3 | -60.1 | 140 | 15 |
| 2010-01-21T12:39 | 12771 | 190 | -55.6 | -60.4 | 140 | 15 |
| 2010-01-21T12:39 | 12797 | 190 | -55.8 | -60.6 | 140 | 15 |
| 2010-01-21T12:40 | 12825 | 189 | -56.1 | -60.9 | 140 | 15 |
| 2010-01-21T12:40 | 12853 | 188 | -56.4 | -61.1 | 139 | 15 |
| 2010-01-21T12:40 | 12882 | 187 | -56.6 | -61.3 | 138 | 15 |
| 2010-01-21T12:40 | 12911 | 186 | -56.9 | -61.5 | 138 | 15 |
| 2010-01-21T12:40 | 12940 | 185 | -57.2 | -61.7 | 138 | 15 |
| 2010-01-21T12:40 | 12971 | 185 | -57.5 | -61.8 | 138 | 15 |
| 2010-01-21T12:41 | 13001 | 184 | -57.8 | -62.0 | 138 | 15 |
| 2010-01-21T12:41 | 13032 | 183 | -58.1 | -62.2 | 138 | 16 |
| 2010-01-21T12:41 | 13063 | 182 | -58.4 | -62.3 | 138 | 16 |
| 2010-01-21T12:41 | 13094 | 181 | -58.7 | -62.6 | 138 | 16 |
| 2010-01-21T12:41 | 13125 | 180 | -59.0 | -62.8 | 137 | 15 |
| 2010-01-21T12:41 | 13156 | 179 | -59.2 | -63.2 | 136 | 15 |
| 2010-01-21T12:42 | 13187 | 178 | -59.5 | -63.5 | 135 | 15 |
| 2010-01-21T12:42 | 13216 | 177 | -59.8 | -63.8 | 134 | 15 |
| 2010-01-21T12:42 | 13246 | 177 | -60.1 | -64.1 | 133 | 15 |
| 2010-01-21T12:42 | 13276 | 176 | -60.3 | -64.3 | 132 | 15 |
| 2010-01-21T12:42 | 13305 | 175 | -60.6 | -64.6 | 132 | 15 |
| 2010-01-21T12:42 | 13334 | 174 | -60.8 | -64.8 | 132 | 15 |
| 2010-01-21T12:43 | 13364 | 173 | -61.2 | -65.1 | 132 | 15 |
| 2010-01-21T12:43 | 13395 | 172 | -61.4 | -65.3 | 131 | 15 |
| 2010-01-21T12:43 | 13423 | 172 | -61.7 | -65.5 | 131 | 15 |
| 2010-01-21T12:43 | 13452 | 171 | -62.0 | -65.8 | 130 | 15 |
| 2010-01-21T12:43 | 13482 | 170 | -62.3 | -66.0 | 129 | 15 |
| 2010-01-21T12:43 | 13511 | 169 | -62.5 | -66.3 | 128 | 16 |
| 2010-01-21T12:44 | 13540 | 168 | -62.8 | -66.5 | 128 | 16 |
| 2010-01-21T12:44 | 13568 | 168 | -63.1 | -66.8 | 127 | 16 |
| 2010-01-21T12:44 | 13595 | 167 | -63.3 | -67.0 | 127 | 16 |
| 2010-01-21T12:44 | 13623 | 166 | -63.6 | -67.3 | 127 | 16 |
| 2010-01-21T12:44 | 13649 | 165 | -63.8 | -67.5 | 127 | 16 |
| 2010-01-21T12:44 | 13676 | 165 | -64.1 | -67.7 | 127 | 16 |
| 2010-01-21T12:45 | 13703 | 164 | -64.4 | -68.0 | 126 | 16 |
| 2010-01-21T12:45 | 13729 | 163 | -64.6 | -68.3 | 125 | 16 |
| 2010-01-21T12:45 | 13754 | 163 | -64.8 | -68.5 | 124 | 16 |
| 2010-01-21T12:45 | 13781 | 162 | -65.1 | -68.7 | 124 | 17 |
| 2010-01-21T12:45 | 13806 | 161 | -65.3 | -68.9 | 124 | 17 |
| 2010-01-21T12:45 | 13830 | 161 | -65.5 | -69.2 | 124 | 17 |
| 2010-01-21T12:46 | 13854 | 160 | -65.8 | -69.4 | 124 | 16 |
| 2010-01-21T12:46 | 13878 | 159 | -66.0 | -69.6 | 124 | 16 |
| 2010-01-21T12:46 | 13902 | 159 | -66.2 | -69.8 | 125 | 16 |
| 2010-01-21T12:46 | 13925 | 158 | -66.4 | -70.0 | 125 | 16 |
| 2010-01-21T12:46 | 13948 | 158 | -66.6 | -70.3 | 125 | 17 |
| 2010-01-21T12:46 | 13968 | 157 | -66.8 | -70.5 | 125 | 17 |
| 2010-01-21T12:47 | 13992 | 156 | -67.0 | -70.7 | 126 | 17 |
| 2010-01-21T12:47 | 14018 | 156 | -67.2 | -71.0 | 126 | 18 |
| 2010-01-21T12:47 | 14044 | 155 | -67.3 | -71.1 | 125 | 18 |
| 2010-01-21T12:47 | 14070 | 154 | -67.6 | -71.4 | 125 | 18 |
| 2010-01-21T12:47 | 14095 | 154 | -67.8 | -71.7 | 124 | 18 |
| 2010-01-21T12:47 | 14122 | 153 | -68.1 | -72.0 | 124 | 19 |
| 2010-01-21T12:48 | 14149 | 152 | -68.4 | -72.3 | 124 | 19 |
| 2010-01-21T12:48 | 14180 | 152 | -68.6 | -72.5 | 124 | 19 |
| 2010-01-21T12:48 | 14211 | 151 | -68.9 | -72.9 | 124 | 19 |
| 2010-01-21T12:48 | 14243 | 150 | -69.2 | -73.3 | 124 | 20 |
| 2010-01-21T12:48 | 14277 | 149 | -69.5 | -73.6 | 125 | 20 |
| 2010-01-21T12:48 | 14307 | 148 | -69.8 | -73.9 | 126 | 20 |
| 2010-01-21T12:49 | 14333 | 148 | -70.1 | -74.2 | 125 | 20 |
| 2010-01-21T12:49 | 14359 | 147 | -70.3 | -74.5 | 124 | 20 |
| 2010-01-21T12:49 | 14388 | 146 | -70.6 | -74.9 | 124 | 20 |
| 2010-01-21T12:49 | 14414 | 146 | -70.9 | -75.2 | 123 | 20 |
| 2010-01-21T12:49 | 14440 | 145 | -71.1 | -75.5 | 122 | 20 |
| 2010-01-21T12:49 | 14466 | 144 | -71.4 | -75.8 | 122 | 20 |
| 2010-01-21T12:50 | 14489 | 144 | -71.6 | -76.0 | 121 | 21 |
| 2010-01-21T12:50 | 14514 | 143 | -71.8 | -76.2 | 121 | 21 |
| 2010-01-21T12:50 | 14540 | 143 | -72.1 | -76.5 | 122 | 21 |
| 2010-01-21T12:50 | 14566 | 142 | -72.3 | -76.7 | 122 | 21 |
| 2010-01-21T12:50 | 14592 | 141 | -72.6 | -76.9 | 123 | 21 |
| 2010-01-21T12:50 | 14617 | 141 | -72.9 | -77.2 | 123 | 21 |
| 2010-01-21T12:51 | 14641 | 140 | -73.1 | -77.3 | 124 | 21 |
| 2010-01-21T12:51 | 14664 | 140 | -73.3 | -77.6 | 124 | 21 |
| 2010-01-21T12:51 | 14688 | 139 | -73.5 | -77.9 | 124 | 21 |
| 2010-01-21T12:51 | 14713 | 139 | -73.8 | -78.2 | 125 | 21 |
| 2010-01-21T12:51 | 14738 | 138 | -74.0 | -78.5 | 124 | 21 |
| 2010-01-21T12:51 | 14764 | 137 | -74.2 | -78.8 | 124 | 21 |
| 2010-01-21T12:52 | 14789 | 137 | -74.4 | -79.0 | 124 | 21 |
| 2010-01-21T12:52 | 14813 | 136 | -74.7 | -79.3 | 124 | 21 |
| 2010-01-21T12:52 | 14837 | 136 | -74.9 | -79.6 | 124 | 21 |
| 2010-01-21T12:52 | 14859 | 135 | -75.1 | -79.8 | 124 | 21 |
| 2010-01-21T12:52 | 14880 | 135 | -75.3 | -80.0 | 124 | 21 |
| 2010-01-21T12:52 | 14903 | 134 | -75.5 | -80.3 | 123 | 21 |
| 2010-01-21T12:53 | 14928 | 134 | -75.8 | -80.5 | 123 | 21 |
| 2010-01-21T12:53 | 14952 | 133 | -76.0 | -80.7 | 123 | 21 |
| 2010-01-21T12:53 | 14976 | 132 | -76.2 | -81.0 | 122 | 21 |
| 2010-01-21T12:53 | 15001 | 132 | -76.5 | -81.2 | 122 | 21 |
| 2010-01-21T12:53 | 15024 | 131 | -76.7 | -81.4 | 122 | 21 |
| 2010-01-21T12:53 | 15049 | 131 | -76.9 | -81.7 | 122 | 22 |
| 2010-01-21T12:54 | 15075 | 130 | -77.2 | -81.9 | 122 | 22 |
| 2010-01-21T12:54 | 15100 | 130 | -77.4 | -82.1 | 123 | 22 |
| 2010-01-21T12:54 | 15125 | 129 | -77.6 | -82.3 | 122 | 22 |
| 2010-01-21T12:54 | 15150 | 128 | -77.8 | -82.5 | 122 | 22 |
| 2010-01-21T12:54 | 15174 | 128 | -78.1 | -82.7 | 122 | 22 |
| 2010-01-21T12:54 | 15197 | 127 | -78.3 | -82.9 | 123 | 22 |
| 2010-01-21T12:55 | 15219 | 127 | -78.5 | -83.1 | 122 | 22 |
| 2010-01-21T12:55 | 15243 | 126 | -78.7 | -83.3 | 121 | 22 |
| 2010-01-21T12:55 | 15268 | 126 | -79.0 | -83.5 | 119 | 22 |
| 2010-01-21T12:55 | 15294 | 125 | -79.1 | -83.6 | 117 | 23 |
| 2010-01-21T12:55 | 15319 | 125 | -79.0 | -83.5 | 115 | 24 |
| 2010-01-21T12:55 | 15341 | 124 | -79.0 | -83.5 | 114 | 25 |
| 2010-01-21T12:56 | 15366 | 124 | -79.0 | -83.6 | 113 | 25 |
| 2010-01-21T12:56 | 15391 | 123 | -79.2 | -83.7 | 113 | 26 |
| 2010-01-21T12:56 | 15412 | 123 | -79.2 | -83.8 | 113 | 27 |
| 2010-01-21T12:56 | 15434 | 122 | -79.3 | -83.8 | 112 | 27 |
| 2010-01-21T12:56 | 15458 | 122 | -79.4 | -84.0 | 112 | 28 |
| 2010-01-21T12:56 | 15483 | 121 | -79.5 | -84.1 | 112 | 29 |
| 2010-01-21T12:57 | 15507 | 121 | -79.6 | -84.1 | 111 | 30 |
| 2010-01-21T12:57 | 15533 | 120 | -79.7 | -84.2 | 111 | 31 |
| 2010-01-21T12:57 | 15557 | 120 | -79.7 | -84.3 | 110 | 32 |
| 2010-01-21T12:57 | 15581 | 119 | -79.6 | -84.2 | 109 | 32 |
| 2010-01-21T12:57 | 15606 | 119 | -79.7 | -84.2 | 109 | 33 |
| 2010-01-21T12:57 | 15631 | 118 | -79.7 | -84.2 | 108 | 33 |
| 2010-01-21T12:58 | 15655 | 118 | -79.9 | -84.4 | 108 | 34 |
| 2010-01-21T12:58 | 15679 | 117 | -80.1 | -84.5 | 109 | 34 |
| 2010-01-21T12:58 | 15705 | 116 | -80.3 | -84.7 | 109 | 35 |
| 2010-01-21T12:58 | 15727 | 116 | -80.3 | -84.8 | 109 | 36 |
| 2010-01-21T12:58 | 15751 | 116 | -80.5 | -84.9 | 109 | 36 |
| 2010-01-21T12:58 | 15779 | 115 | -80.6 | -85.1 | 109 | 37 |
| 2010-01-21T12:59 | 15805 | 114 | -80.5 | -85.0 | 109 | 38 |
| 2010-01-21T12:59 | 15833 | 114 | -80.8 | -85.2 | 109 | 39 |
| 2010-01-21T12:59 | 15857 | 113 | -80.9 | -85.3 | 109 | 39 |
| 2010-01-21T12:59 | 15879 | 113 | -81.2 | -85.6 | 109 | 40 |
| 2010-01-21T12:59 | 15897 | 113 | -81.3 | -85.7 | 109 | 40 |
| 2010-01-21T12:59 | 15914 | 112 | -81.3 | -85.8 | 109 | 41 |
| 2010-01-21T13:00 | 15933 | 112 | -81.5 | -85.9 | 108 | 41 |
| 2010-01-21T13:00 | 15952 | 111 | -81.7 | -86.1 | 108 | 41 |
| 2010-01-21T13:00 | 15973 | 111 | -81.8 | -86.3 | 108 | 41 |
| 2010-01-21T13:00 | 15993 | 111 | -81.9 | -86.4 | 108 | 42 |
| 2010-01-21T13:00 | 16014 | 110 | -82.2 | -86.7 | 107 | 42 |
| 2010-01-21T13:00 | 16037 | 110 | -82.4 | -86.9 | 107 | 43 |
| 2010-01-21T13:01 | 16059 | 109 | -82.5 | -87.0 | 106 | 42 |
| 2010-01-21T13:01 | 16082 | 109 | -82.6 | -87.1 | 104 | 41 |
| 2010-01-21T13:01 | 16106 | 108 | -80.8 | -85.6 | 101 | 40 |
| 2010-01-21T13:01 | 16130 | 108 | -79.7 | -84.5 | 100 | 39 |
| 2010-01-21T13:01 | 16154 | 108 | -79.1 | -84.0 | 99 | 38 |
| 2010-01-21T13:01 | 16181 | 107 | -78.9 | -83.9 | 98 | 36 |
| 2010-01-21T13:02 | 16208 | 107 | -78.2 | -83.4 | 97 | 34 |
| 2010-01-21T13:02 | 16235 | 106 | -77.9 | -83.3 | 97 | 32 |
| 2010-01-21T13:02 | 16262 | 106 | -77.0 | -82.6 | 96 | 30 |
| 2010-01-21T13:02 | 16292 | 105 | -77.2 | -82.9 | 95 | 28 |
| 2010-01-21T13:02 | 16322 | 104 | -76.7 | -82.6 | 94 | 26 |
| 2010-01-21T13:02 | 16350 | 104 | -75.9 | -82.1 | 93 | 24 |
| 2010-01-21T13:03 | 16383 | 103 | -75.6 | -82.0 | 93 | 22 |
| 2010-01-21T13:03 | 16414 | 103 | -75.4 | -82.0 | 93 | 21 |
| 2010-01-21T13:03 | 16443 | 102 | -75.2 | -82.1 | 93 | 19 |
| 2010-01-21T13:03 | 16468 | 102 | -75.2 | -82.2 | 93 | 18 |
| 2010-01-21T13:03 | 16500 | 101 | -75.1 | -82.4 | 92 | 17 |
| 2010-01-21T13:03 | 16538 | 101 | -74.9 | -82.4 | 90 | 15 |
| 2010-01-21T13:04 | 16568 | 100 | -74.9 | -82.7 | 88 | 14 |
| 2010-01-21T13:04 | 16596 | 100 | -74.9 | -82.9 | 85 | 13 |
| 2010-01-21T13:04 | 16621 | 99 | -74.7 | -83.0 | 83 | 12 |
| 2010-01-21T13:04 | 16651 | 99 | -74.7 | -83.2 | 82 | 10 |
| 2010-01-21T13:04 | 16679 | 98 | -74.5 | -83.2 | 79 | 9 |
| 2010-01-21T13:04 | 16708 | 98 | -74.4 | -83.3 | 75 | 8 |
| 2010-01-21T13:05 | 16735 | 97 | -74.4 | -83.6 | 71 | 6 |
| 2010-01-21T13:05 | 16760 | 97 | -74.4 | -83.8 | 68 | 5 |
| 2010-01-21T13:05 | 16781 | 96 | -74.3 | -83.9 | 61 | 5 |
| 2010-01-21T13:05 | 16805 | 96 | -74.2 | -84.0 | 52 | 4 |
| 2010-01-21T13:05 | 16826 | 96 | -74.2 | -84.2 | 42 | 4 |
| 2010-01-21T13:05 | 16849 | 95 | -74.2 | -84.5 | 33 | 4 |
| 2010-01-21T13:06 | 16870 | 95 | -74.2 | -84.7 | 23 | 4 |
| 2010-01-21T13:06 | 16891 | 95 | -74.3 | -84.9 | 11 | 3 |
| 2010-01-21T13:06 | 16912 | 94 | -74.2 | -85.1 | 355 | 3 |
| 2010-01-21T13:06 | 16933 | 94 | -74.3 | -85.3 | 340 | 3 |
| 2010-01-21T13:06 | 16955 | 94 | -74.2 | -85.5 | 329 | 4 |
| 2010-01-21T13:06 | 16980 | 93 | -74.3 | -85.7 | 322 | 4 |
| 2010-01-21T13:07 | 17002 | 93 | -74.3 | -85.9 | 315 | 5 |
| 2010-01-21T13:07 | 17027 | 92 | -74.5 | -86.2 | 308 | 5 |
| 2010-01-21T13:07 | 17049 | 92 | -74.5 | -86.4 | 302 | 6 |
| 2010-01-21T13:07 | 17071 | 92 | -74.7 | -86.7 | 296 | 6 |
| 2010-01-21T13:07 | 17092 | 91 | -74.8 | -86.9 | 291 | 7 |
| 2010-01-21T13:07 | 17112 | 91 | -74.7 | -87.1 | 288 | 8 |
| 2010-01-21T13:08 | 17133 | 91 | -74.6 | -87.1 | 285 | 9 |
| 2010-01-21T13:08 | 17157 | 90 | -74.3 | -87.0 | 284 | 10 |
| 2010-01-21T13:08 | 17178 | 90 | -74.3 | -87.1 | 281 | 10 |
| 2010-01-21T13:08 | 17200 | 90 | -74.4 | -87.3 | 278 | 11 |
| 2010-01-21T13:08 | 17219 | 89 | -74.5 | -87.4 | 275 | 11 |
| 2010-01-21T13:08 | 17238 | 89 | -74.3 | -87.4 | 272 | 11 |
| 2010-01-21T13:09 | 17256 | 89 | -73.4 | -86.8 | 270 | 11 |
| 2010-01-21T13:09 | 17274 | 89 | -73.2 | -86.7 | 270 | 11 |
| 2010-01-21T13:09 | 17290 | 88 | -73.1 | -86.7 | 271 | 11 |
| 2010-01-21T13:09 | 17309 | 88 | -72.7 | -86.5 | 272 | 11 |
| 2010-01-21T13:09 | 17327 | 88 | -72.3 | -86.3 | 274 | 12 |
| 2010-01-21T13:09 | 17348 | 88 | -72.3 | -86.4 | 275 | 12 |
| 2010-01-21T13:10 | 17367 | 87 | -72.0 | -86.2 | 275 | 12 |
| 2010-01-21T13:10 | 17388 | 87 | -71.9 | -86.3 | 275 | 13 |
| 2010-01-21T13:10 | 17408 | 87 | -71.8 | -86.3 | 273 | 14 |
| 2010-01-21T13:10 | 17428 | 86 | -71.8 | -86.5 | 272 | 14 |
| 2010-01-21T13:10 | 17450 | 86 | -71.8 | -86.6 | 271 | 15 |
| 2010-01-21T13:10 | 17469 | 86 | -72.0 | -86.9 | 271 | 15 |
| 2010-01-21T13:11 | 17489 | 85 | -72.1 | -87.1 | 271 | 16 |
| 2010-01-21T13:11 | 17510 | 85 | -72.2 | -87.3 | 273 | 16 |
| 2010-01-21T13:11 | 17531 | 85 | -72.4 | -87.6 | 273 | 16 |
| 2010-01-21T13:11 | 17553 | 85 | -72.6 | -87.8 | 273 | 16 |
| 2010-01-21T13:11 | 17575 | 84 | -72.8 | -88.1 | 273 | 16 |
| 2010-01-21T13:11 | 17597 | 84 | -73.0 | -88.3 | 273 | 16 |
| 2010-01-21T13:12 | 17620 | 84 | -73.2 | -88.5 | 274 | 17 |
| 2010-01-21T13:12 | 17646 | 83 | -73.4 | -88.8 | 274 | 17 |
| 2010-01-21T13:12 | 17670 | 83 | -73.7 | -89.1 | 274 | 18 |
| 2010-01-21T13:12 | 17698 | 82 | -73.9 | -89.3 | 274 | 19 |
| 2010-01-21T13:12 | 17723 | 82 | -74.1 | -89.4 | 274 | 19 |
| 2010-01-21T13:12 | 17745 | 82 | -74.3 | -89.6 | 273 | 20 |
| 2010-01-21T13:13 | 17763 | 82 | -74.4 | -89.8 | 273 | 20 |
| 2010-01-21T13:13 | 17781 | 81 | -74.6 | -89.9 | 272 | 20 |
| 2010-01-21T13:13 | 17801 | 81 | -74.8 | -90.1 | 272 | 19 |
| 2010-01-21T23:31 | 4 | 1008 | 30.6 | 25.0 | 320 | 7 |
| 2010-01-21T23:31 | 11 | 1008 | 29.2 | 24.2 | 311 | 4 |
| 2010-01-21T23:31 | 18 | 1007 | 28.8 | 24.1 | 311 | 4 |
| 2010-01-21T23:31 | 26 | 1006 | 28.6 | 24.2 | 312 | 5 |
| 2010-01-21T23:31 | 35 | 1005 | 28.5 | 24.4 | 312 | 5 |
| 2010-01-21T23:31 | 43 | 1004 | 28.4 | 24.5 | 313 | 6 |
| 2010-01-21T23:31 | 49 | 1003 | 28.4 | 24.6 | 314 | 6 |
| 2010-01-21T23:31 | 55 | 1003 | 28.3 | 24.7 | 314 | 6 |
| 2010-01-21T23:31 | 62 | 1002 | 28.3 | 24.7 | 315 | 7 |
| 2010-01-21T23:31 | 68 | 1001 | 28.1 | 24.7 | 316 | 7 |
| 2010-01-21T23:31 | 74 | 1001 | 28.1 | 24.7 | 316 | 7 |
| 2010-01-21T23:31 | 79 | 1000 | 28.0 | 24.7 | 317 | 8 |
| 2010-01-21T23:31 | 85 | 999 | 28.0 | 24.6 | 317 | 8 |
| 2010-01-21T23:31 | 93 | 998 | 27.9 | 24.6 | 318 | 8 |
| 2010-01-21T23:31 | 104 | 997 | 27.8 | 24.6 | 318 | 8 |
| 2010-01-21T23:31 | 113 | 996 | 27.7 | 24.5 | 318 | 9 |
| 2010-01-21T23:31 | 121 | 995 | 27.6 | 24.4 | 319 | 9 |
| 2010-01-21T23:31 | 130 | 994 | 27.5 | 24.4 | 319 | 9 |
| 2010-01-21T23:31 | 138 | 993 | 27.4 | 24.4 | 320 | 9 |
| 2010-01-21T23:31 | 147 | 992 | 27.3 | 24.4 | 320 | 9 |
| 2010-01-21T23:31 | 155 | 992 | 27.3 | 24.4 | 320 | 9 |
| 2010-01-21T23:31 | 165 | 991 | 27.2 | 24.4 | 321 | 9 |
| 2010-01-21T23:31 | 174 | 989 | 27.1 | 24.3 | 321 | 9 |
| 2010-01-21T23:31 | 183 | 988 | 27.0 | 24.2 | 322 | 9 |
| 2010-01-21T23:31 | 194 | 987 | 26.9 | 24.1 | 322 | 9 |
| 2010-01-21T23:31 | 205 | 986 | 26.8 | 23.9 | 322 | 9 |
| 2010-01-21T23:31 | 217 | 985 | 26.7 | 23.8 | 323 | 9 |
| 2010-01-21T23:31 | 230 | 983 | 26.6 | 23.9 | 323 | 9 |
| 2010-01-21T23:31 | 242 | 982 | 26.5 | 23.9 | 323 | 9 |
| 2010-01-21T23:31 | 255 | 980 | 26.4 | 23.7 | 323 | 9 |
| 2010-01-21T23:32 | 267 | 979 | 26.3 | 23.7 | 323 | 10 |
| 2010-01-21T23:32 | 278 | 978 | 26.1 | 23.7 | 323 | 10 |
| 2010-01-21T23:32 | 289 | 977 | 26.0 | 23.7 | 323 | 10 |
| 2010-01-21T23:32 | 300 | 976 | 25.9 | 23.6 | 323 | 10 |
| 2010-01-21T23:32 | 312 | 974 | 25.8 | 23.6 | 322 | 10 |
| 2010-01-21T23:32 | 321 | 973 | 25.6 | 23.7 | 322 | 10 |
| 2010-01-21T23:32 | 330 | 972 | 25.6 | 23.7 | 322 | 10 |
| 2010-01-21T23:32 | 340 | 971 | 25.5 | 23.7 | 322 | 10 |
| 2010-01-21T23:32 | 349 | 970 | 25.4 | 23.8 | 322 | 10 |
| 2010-01-21T23:32 | 359 | 969 | 25.3 | 23.8 | 322 | 10 |
| 2010-01-21T23:32 | 368 | 968 | 25.2 | 23.6 | 322 | 10 |
| 2010-01-21T23:32 | 377 | 967 | 25.2 | 23.3 | 322 | 10 |
| 2010-01-21T23:32 | 386 | 966 | 25.2 | 23.0 | 322 | 10 |
| 2010-01-21T23:32 | 395 | 965 | 25.1 | 23.0 | 322 | 10 |
| 2010-01-21T23:32 | 404 | 964 | 25.0 | 23.3 | 323 | 10 |
| 2010-01-21T23:32 | 414 | 963 | 24.9 | 23.4 | 323 | 10 |
| 2010-01-21T23:32 | 425 | 962 | 24.8 | 23.3 | 323 | 10 |
| 2010-01-21T23:32 | 436 | 961 | 24.7 | 23.3 | 323 | 10 |
| 2010-01-21T23:32 | 446 | 959 | 24.6 | 23.2 | 323 | 10 |
| 2010-01-21T23:32 | 457 | 958 | 24.5 | 23.0 | 323 | 10 |
| 2010-01-21T23:32 | 467 | 957 | 24.4 | 22.8 | 323 | 10 |
| 2010-01-21T23:32 | 478 | 956 | 24.3 | 22.8 | 323 | 10 |
| 2010-01-21T23:32 | 488 | 955 | 24.4 | 22.9 | 323 | 10 |
| 2010-01-21T23:32 | 498 | 954 | 24.3 | 23.1 | 323 | 10 |
| 2010-01-21T23:32 | 509 | 953 | 24.4 | 21.9 | 322 | 10 |
| 2010-01-21T23:32 | 520 | 951 | 24.4 | 21.7 | 322 | 11 |
| 2010-01-21T23:32 | 531 | 950 | 24.3 | 21.5 | 321 | 11 |
| 2010-01-21T23:32 | 541 | 949 | 24.1 | 21.5 | 321 | 11 |
| 2010-01-21T23:32 | 551 | 948 | 24.0 | 21.5 | 320 | 11 |
| 2010-01-21T23:32 | 560 | 947 | 23.9 | 21.5 | 320 | 11 |
| 2010-01-21T23:33 | 571 | 946 | 23.8 | 21.4 | 319 | 11 |
| 2010-01-21T23:33 | 581 | 945 | 23.8 | 21.4 | 319 | 11 |
| 2010-01-21T23:33 | 590 | 944 | 23.7 | 21.3 | 318 | 11 |
| 2010-01-21T23:33 | 600 | 943 | 23.6 | 21.3 | 318 | 11 |
| 2010-01-21T23:33 | 610 | 942 | 23.5 | 21.3 | 318 | 11 |
| 2010-01-21T23:33 | 620 | 941 | 23.5 | 21.2 | 317 | 11 |
| 2010-01-21T23:33 | 629 | 940 | 23.4 | 21.0 | 317 | 11 |
| 2010-01-21T23:33 | 640 | 939 | 23.3 | 21.0 | 317 | 11 |
| 2010-01-21T23:33 | 652 | 937 | 23.2 | 20.8 | 317 | 11 |
| 2010-01-21T23:33 | 664 | 936 | 23.2 | 20.6 | 317 | 11 |
| 2010-01-21T23:33 | 675 | 935 | 23.1 | 20.5 | 316 | 11 |
| 2010-01-21T23:33 | 686 | 934 | 23.0 | 20.2 | 316 | 11 |
| 2010-01-21T23:33 | 697 | 933 | 23.0 | 20.0 | 316 | 11 |
| 2010-01-21T23:33 | 707 | 931 | 22.9 | 20.0 | 315 | 12 |
| 2010-01-21T23:33 | 717 | 930 | 22.8 | 19.9 | 315 | 12 |
| 2010-01-21T23:33 | 726 | 929 | 22.6 | 19.9 | 314 | 12 |
| 2010-01-21T23:33 | 737 | 928 | 22.5 | 20.0 | 314 | 12 |
| 2010-01-21T23:33 | 748 | 927 | 22.5 | 19.7 | 313 | 12 |
| 2010-01-21T23:33 | 759 | 926 | 22.5 | 19.4 | 312 | 12 |
| 2010-01-21T23:33 | 770 | 925 | 22.4 | 19.5 | 312 | 12 |
| 2010-01-21T23:33 | 781 | 924 | 22.4 | 19.0 | 311 | 13 |
| 2010-01-21T23:33 | 793 | 922 | 22.6 | 18.3 | 311 | 13 |
| 2010-01-21T23:33 | 802 | 921 | 22.6 | 18.1 | 310 | 13 |
| 2010-01-21T23:33 | 812 | 920 | 22.6 | 18.0 | 310 | 13 |
| 2010-01-21T23:33 | 821 | 919 | 22.5 | 17.8 | 310 | 13 |
| 2010-01-21T23:33 | 830 | 918 | 22.4 | 17.8 | 309 | 13 |
| 2010-01-21T23:33 | 838 | 918 | 22.4 | 17.7 | 309 | 13 |
| 2010-01-21T23:33 | 847 | 917 | 22.3 | 17.6 | 309 | 13 |
| 2010-01-21T23:33 | 857 | 916 | 22.2 | 17.6 | 309 | 13 |
| 2010-01-21T23:33 | 868 | 914 | 22.1 | 17.6 | 309 | 13 |
| 2010-01-21T23:34 | 880 | 913 | 21.9 | 17.8 | 308 | 13 |
| 2010-01-21T23:34 | 891 | 912 | 21.6 | 18.0 | 308 | 13 |
| 2010-01-21T23:34 | 902 | 911 | 21.5 | 18.2 | 308 | 13 |
| 2010-01-21T23:34 | 912 | 910 | 21.3 | 18.3 | 308 | 13 |
| 2010-01-21T23:34 | 923 | 909 | 21.4 | 18.1 | 308 | 13 |
| 2010-01-21T23:34 | 933 | 908 | 21.4 | 17.7 | 308 | 13 |
| 2010-01-21T23:34 | 944 | 906 | 21.3 | 17.5 | 308 | 13 |
| 2010-01-21T23:34 | 955 | 905 | 21.2 | 17.5 | 309 | 13 |
| 2010-01-21T23:34 | 968 | 904 | 21.0 | 17.5 | 309 | 13 |
| 2010-01-21T23:34 | 981 | 903 | 20.9 | 17.5 | 309 | 13 |
| 2010-01-21T23:34 | 992 | 901 | 20.9 | 17.3 | 309 | 13 |
| 2010-01-21T23:34 | 1002 | 900 | 20.8 | 17.2 | 310 | 13 |
| 2010-01-21T23:34 | 1012 | 899 | 20.6 | 17.3 | 310 | 13 |
| 2010-01-21T23:34 | 1023 | 898 | 20.6 | 17.2 | 310 | 13 |
| 2010-01-21T23:34 | 1033 | 897 | 20.6 | 16.9 | 311 | 13 |
| 2010-01-21T23:34 | 1043 | 896 | 20.5 | 16.7 | 311 | 13 |
| 2010-01-21T23:34 | 1052 | 895 | 20.5 | 16.8 | 311 | 13 |
| 2010-01-21T23:34 | 1062 | 894 | 20.3 | 16.9 | 311 | 14 |
| 2010-01-21T23:34 | 1074 | 893 | 20.2 | 16.9 | 311 | 14 |
| 2010-01-21T23:34 | 1086 | 892 | 20.2 | 16.7 | 310 | 14 |
| 2010-01-21T23:34 | 1098 | 891 | 20.1 | 16.6 | 310 | 14 |
| 2010-01-21T23:34 | 1109 | 889 | 20.0 | 16.7 | 309 | 14 |
| 2010-01-21T23:34 | 1120 | 888 | 19.8 | 16.8 | 308 | 14 |
| 2010-01-21T23:34 | 1131 | 887 | 19.6 | 16.8 | 308 | 14 |
| 2010-01-21T23:34 | 1141 | 886 | 19.5 | 16.6 | 307 | 14 |
| 2010-01-21T23:34 | 1153 | 885 | 19.4 | 16.6 | 306 | 14 |
| 2010-01-21T23:34 | 1165 | 884 | 19.3 | 16.5 | 305 | 14 |
| 2010-01-21T23:34 | 1176 | 883 | 19.3 | 16.4 | 304 | 14 |
| 2010-01-21T23:34 | 1186 | 881 | 19.2 | 16.4 | 303 | 14 |
| 2010-01-21T23:34 | 1198 | 880 | 19.2 | 16.2 | 302 | 14 |
| 2010-01-21T23:35 | 1209 | 879 | 19.3 | 16.0 | 301 | 14 |
| 2010-01-21T23:35 | 1220 | 878 | 19.3 | 16.0 | 300 | 14 |
| 2010-01-21T23:35 | 1230 | 877 | 19.2 | 16.1 | 300 | 14 |
| 2010-01-21T23:35 | 1239 | 876 | 19.1 | 16.0 | 299 | 14 |
| 2010-01-21T23:35 | 1248 | 875 | 19.0 | 16.0 | 299 | 14 |
| 2010-01-21T23:35 | 1259 | 874 | 18.9 | 15.9 | 299 | 14 |
| 2010-01-21T23:35 | 1270 | 873 | 18.8 | 15.9 | 299 | 14 |
| 2010-01-21T23:35 | 1280 | 872 | 18.7 | 15.9 | 299 | 14 |
| 2010-01-21T23:35 | 1288 | 871 | 18.6 | 15.9 | 299 | 15 |
| 2010-01-21T23:35 | 1298 | 870 | 18.5 | 15.8 | 298 | 15 |
| 2010-01-21T23:35 | 1309 | 869 | 18.5 | 15.8 | 298 | 15 |
| 2010-01-21T23:35 | 1321 | 868 | 18.4 | 15.8 | 298 | 15 |
| 2010-01-21T23:35 | 1333 | 867 | 18.3 | 15.9 | 298 | 15 |
| 2010-01-21T23:35 | 1343 | 866 | 18.3 | 16.1 | 298 | 15 |
| 2010-01-21T23:35 | 1354 | 864 | 18.2 | 16.0 | 298 | 15 |
| 2010-01-21T23:35 | 1365 | 863 | 18.1 | 15.8 | 298 | 15 |
| 2010-01-21T23:35 | 1376 | 862 | 18.1 | 15.6 | 298 | 16 |
| 2010-01-21T23:35 | 1388 | 861 | 18.1 | 15.5 | 298 | 16 |
| 2010-01-21T23:35 | 1399 | 860 | 18.1 | 15.3 | 298 | 16 |
| 2010-01-21T23:35 | 1409 | 859 | 18.1 | 15.1 | 298 | 16 |
| 2010-01-21T23:35 | 1419 | 858 | 18.0 | 15.0 | 298 | 16 |
| 2010-01-21T23:35 | 1430 | 857 | 18.0 | 15.0 | 298 | 16 |
| 2010-01-21T23:35 | 1441 | 856 | 17.9 | 14.9 | 297 | 16 |
| 2010-01-21T23:35 | 1452 | 855 | 17.9 | 14.9 | 297 | 16 |
| 2010-01-21T23:35 | 1463 | 854 | 17.9 | 14.6 | 297 | 16 |
| 2010-01-21T23:35 | 1473 | 853 | 17.9 | 14.6 | 297 | 16 |
| 2010-01-21T23:35 | 1483 | 852 | 17.8 | 14.6 | 296 | 16 |
| 2010-01-21T23:35 | 1493 | 851 | 17.7 | 14.6 | 296 | 16 |
| 2010-01-21T23:35 | 1503 | 850 | 17.7 | 14.6 | 296 | 17 |
| 2010-01-21T23:35 | 1513 | 849 | 17.6 | 14.5 | 295 | 17 |
| 2010-01-21T23:36 | 1523 | 848 | 17.5 | 14.3 | 295 | 17 |
| 2010-01-21T23:36 | 1532 | 847 | 17.5 | 13.7 | 294 | 17 |
| 2010-01-21T23:36 | 1542 | 846 | 17.8 | 13.0 | 294 | 17 |
| 2010-01-21T23:36 | 1553 | 845 | 17.8 | 12.8 | 293 | 17 |
| 2010-01-21T23:36 | 1564 | 844 | 17.8 | 12.8 | 293 | 17 |
| 2010-01-21T23:36 | 1574 | 843 | 17.8 | 12.7 | 292 | 17 |
| 2010-01-21T23:36 | 1584 | 842 | 17.8 | 12.4 | 292 | 18 |
| 2010-01-21T23:36 | 1594 | 841 | 17.8 | 11.8 | 291 | 18 |
| 2010-01-21T23:36 | 1604 | 840 | 17.9 | 11.1 | 291 | 18 |
| 2010-01-21T23:36 | 1614 | 839 | 17.9 | 10.8 | 291 | 18 |
| 2010-01-21T23:36 | 1625 | 838 | 17.9 | 10.6 | 290 | 18 |
| 2010-01-21T23:36 | 1636 | 836 | 18.0 | 10.6 | 290 | 18 |
| 2010-01-21T23:36 | 1647 | 835 | 18.1 | 10.3 | 290 | 18 |
| 2010-01-21T23:36 | 1657 | 834 | 18.2 | 9.5 | 290 | 18 |
| 2010-01-21T23:36 | 1668 | 833 | 18.3 | 9.0 | 290 | 18 |
| 2010-01-21T23:36 | 1678 | 832 | 18.3 | 8.8 | 290 | 18 |
| 2010-01-21T23:36 | 1690 | 831 | 18.3 | 8.7 | 290 | 18 |
| 2010-01-21T23:36 | 1700 | 830 | 18.3 | 8.6 | 290 | 18 |
| 2010-01-21T23:36 | 1711 | 829 | 18.3 | 8.3 | 290 | 18 |
| 2010-01-21T23:36 | 1722 | 828 | 18.4 | 7.7 | 290 | 18 |
| 2010-01-21T23:36 | 1734 | 827 | 18.5 | 7.5 | 290 | 18 |
| 2010-01-21T23:36 | 1744 | 826 | 18.7 | 7.5 | 290 | 17 |
| 2010-01-21T23:36 | 1755 | 825 | 18.8 | 7.4 | 290 | 17 |
| 2010-01-21T23:36 | 1765 | 824 | 18.8 | 7.3 | 290 | 17 |
| 2010-01-21T23:36 | 1777 | 823 | 18.9 | 7.2 | 290 | 17 |
| 2010-01-21T23:36 | 1787 | 822 | 18.8 | 7.0 | 290 | 17 |
| 2010-01-21T23:36 | 1797 | 821 | 18.8 | 6.9 | 290 | 16 |
| 2010-01-21T23:36 | 1806 | 820 | 18.8 | 6.8 | 290 | 16 |
| 2010-01-21T23:36 | 1816 | 819 | 18.8 | 6.6 | 290 | 16 |
| 2010-01-21T23:36 | 1824 | 818 | 18.8 | 6.5 | 291 | 16 |
| 2010-01-21T23:37 | 1834 | 817 | 18.8 | 6.3 | 291 | 16 |
| 2010-01-21T23:37 | 1846 | 816 | 18.7 | 6.0 | 291 | 16 |
| 2010-01-21T23:37 | 1857 | 815 | 18.7 | 5.7 | 291 | 15 |
| 2010-01-21T23:37 | 1867 | 814 | 18.7 | 5.5 | 291 | 15 |
| 2010-01-21T23:37 | 1878 | 813 | 18.7 | 5.2 | 291 | 15 |
| 2010-01-21T23:37 | 1889 | 812 | 18.5 | 5.0 | 291 | 15 |
| 2010-01-21T23:37 | 1899 | 811 | 18.5 | 4.9 | 291 | 15 |
| 2010-01-21T23:37 | 1909 | 810 | 18.4 | 4.6 | 291 | 15 |
| 2010-01-21T23:37 | 1920 | 809 | 18.4 | 4.4 | 291 | 15 |
| 2010-01-21T23:37 | 1931 | 808 | 18.3 | 4.5 | 291 | 15 |
| 2010-01-21T23:37 | 1941 | 807 | 18.2 | 5.5 | 290 | 15 |
| 2010-01-21T23:37 | 1951 | 806 | 18.1 | 6.6 | 290 | 14 |
| 2010-01-21T23:37 | 1961 | 805 | 18.0 | 7.1 | 290 | 14 |
| 2010-01-21T23:37 | 1972 | 804 | 17.9 | 7.5 | 289 | 14 |
| 2010-01-21T23:37 | 1982 | 803 | 17.8 | 7.9 | 289 | 14 |
| 2010-01-21T23:37 | 1992 | 802 | 17.7 | 8.1 | 289 | 14 |
| 2010-01-21T23:37 | 2042 | 798 | 17.5 | 7.2 | 287 | 14 |
| 2010-01-21T23:37 | 2091 | 793 | 17.4 | 5.4 | 287 | 13 |
| 2010-01-21T23:38 | 2144 | 788 | 17.2 | 3.9 | 286 | 13 |
| 2010-01-21T23:38 | 2197 | 784 | 17.1 | 3.6 | 285 | 12 |
| 2010-01-21T23:38 | 2250 | 779 | 17.0 | 1.5 | 283 | 12 |
| 2010-01-21T23:38 | 2305 | 774 | 16.8 | 0.3 | 281 | 12 |
| 2010-01-21T23:38 | 2360 | 769 | 16.5 | 4.3 | 279 | 13 |
| 2010-01-21T23:38 | 2414 | 764 | 15.9 | 7.0 | 279 | 13 |
| 2010-01-21T23:39 | 2466 | 759 | 15.4 | 6.9 | 280 | 14 |
| 2010-01-21T23:39 | 2524 | 754 | 14.9 | 7.2 | 281 | 14 |
| 2010-01-21T23:39 | 2576 | 749 | 14.4 | 7.5 | 281 | 13 |
| 2010-01-21T23:39 | 2629 | 745 | 13.9 | 7.4 | 282 | 13 |
| 2010-01-21T23:39 | 2680 | 740 | 13.6 | 7.1 | 283 | 13 |
| 2010-01-21T23:39 | 2737 | 735 | 13.1 | 6.6 | 282 | 12 |
| 2010-01-21T23:40 | 2790 | 731 | 12.6 | 6.5 | 282 | 12 |
| 2010-01-21T23:40 | 2844 | 726 | 12.2 | 6.3 | 280 | 12 |
| 2010-01-21T23:40 | 2897 | 721 | 11.7 | 6.0 | 278 | 13 |
| 2010-01-21T23:40 | 2953 | 716 | 11.3 | 6.3 | 274 | 13 |
| 2010-01-21T23:40 | 3007 | 712 | 11.0 | 6.2 | 271 | 14 |
| 2010-01-21T23:40 | 3066 | 707 | 10.5 | 5.6 | 266 | 15 |
| 2010-01-21T23:41 | 3123 | 702 | 10.0 | 5.5 | 262 | 16 |
| 2010-01-21T23:41 | 3182 | 697 | 9.6 | 5.2 | 258 | 16 |
| 2010-01-21T23:41 | 3241 | 692 | 10.0 | 4.7 | 255 | 17 |
| 2010-01-21T23:41 | 3302 | 687 | 9.5 | 4.1 | 253 | 18 |
| 2010-01-21T23:41 | 3361 | 682 | 9.1 | 3.9 | 254 | 18 |
| 2010-01-21T23:41 | 3419 | 677 | 8.7 | 3.3 | 257 | 18 |
| 2010-01-21T23:42 | 3477 | 673 | 8.5 | 3.6 | 260 | 18 |
| 2010-01-21T23:42 | 3536 | 668 | 8.6 | 3.0 | 262 | 18 |
| 2010-01-21T23:42 | 3589 | 664 | 8.5 | 2.6 | 262 | 17 |
| 2010-01-21T23:42 | 3645 | 659 | 8.3 | 2.1 | 260 | 16 |
| 2010-01-21T23:42 | 3703 | 655 | 7.9 | 1.6 | 259 | 15 |
| 2010-01-21T23:42 | 3760 | 650 | 7.3 | 1.8 | 259 | 14 |
| 2010-01-21T23:43 | 3819 | 645 | 7.1 | 1.3 | 261 | 14 |
| 2010-01-21T23:43 | 3876 | 641 | 6.6 | 1.5 | 262 | 13 |
| 2010-01-21T23:43 | 3929 | 637 | 6.3 | 1.4 | 263 | 13 |
| 2010-01-21T23:43 | 3983 | 633 | 5.9 | 1.0 | 263 | 13 |
| 2010-01-21T23:43 | 4040 | 628 | 5.5 | 0.7 | 264 | 12 |
| 2010-01-21T23:43 | 4102 | 624 | 4.9 | 0.4 | 267 | 12 |
| 2010-01-21T23:44 | 4165 | 619 | 4.3 | 0.2 | 269 | 12 |
| 2010-01-21T23:44 | 4222 | 614 | 3.9 | 0.1 | 270 | 11 |
| 2010-01-21T23:44 | 4274 | 611 | 3.9 | -0.6 | 268 | 12 |
| 2010-01-21T23:44 | 4329 | 606 | 3.5 | -0.8 | 265 | 12 |
| 2010-01-21T23:44 | 4386 | 602 | 3.1 | -0.5 | 261 | 12 |
| 2010-01-21T23:44 | 4445 | 598 | 2.9 | -0.8 | 258 | 12 |
| 2010-01-21T23:45 | 4505 | 593 | 2.4 | -0.9 | 255 | 12 |
| 2010-01-21T23:45 | 4567 | 589 | 1.9 | -1.2 | 255 | 11 |
| 2010-01-21T23:45 | 4625 | 585 | 1.5 | -1.4 | 257 | 11 |
| 2010-01-21T23:45 | 4684 | 580 | 1.0 | -1.5 | 259 | 10 |
| 2010-01-21T23:45 | 4741 | 576 | 0.5 | -1.8 | 262 | 10 |
| 2010-01-21T23:45 | 4792 | 573 | 0.4 | -2.5 | 265 | 10 |
| 2010-01-21T23:46 | 4847 | 569 | 0.4 | -2.8 | 267 | 10 |
| 2010-01-21T23:46 | 4905 | 565 | 0.3 | -3.4 | 268 | 10 |
| 2010-01-21T23:46 | 4967 | 560 | 0.3 | -5.4 | 268 | 10 |
| 2010-01-21T23:46 | 5025 | 556 | -0.2 | -5.7 | 269 | 10 |
| 2010-01-21T23:46 | 5084 | 552 | -0.6 | -5.8 | 269 | 10 |
| 2010-01-21T23:46 | 5141 | 548 | -0.7 | -5.8 | 269 | 10 |
| 2010-01-21T23:47 | 5203 | 544 | -1.1 | -5.6 | 270 | 10 |
| 2010-01-21T23:47 | 5265 | 540 | -1.7 | -6.1 | 272 | 10 |
| 2010-01-21T23:47 | 5328 | 536 | -2.1 | -6.1 | 274 | 11 |
| 2010-01-21T23:47 | 5387 | 532 | -2.4 | -6.5 | 276 | 11 |
| 2010-01-21T23:47 | 5447 | 528 | -2.8 | -7.1 | 276 | 11 |
| 2010-01-21T23:47 | 5508 | 524 | -3.3 | -7.7 | 273 | 11 |
| 2010-01-21T23:48 | 5569 | 520 | -3.6 | -8.5 | 269 | 11 |
| 2010-01-21T23:48 | 5631 | 515 | -4.1 | -8.3 | 269 | 10 |
| 2010-01-21T23:48 | 5696 | 511 | -4.4 | -9.2 | 269 | 9 |
| 2010-01-21T23:48 | 5758 | 507 | -4.8 | -10.3 | 271 | 9 |
| 2010-01-21T23:48 | 5817 | 504 | -5.3 | -10.7 | 275 | 8 |
| 2010-01-21T23:48 | 5873 | 500 | -5.7 | -12.1 | 278 | 7 |
| 2010-01-21T23:49 | 5937 | 496 | -6.2 | -13.7 | 284 | 6 |
| 2010-01-21T23:49 | 6002 | 492 | -6.4 | -14.8 | 299 | 5 |
| 2010-01-21T23:49 | 6067 | 488 | -6.5 | -17.5 | 325 | 5 |
| 2010-01-21T23:49 | 6134 | 483 | -6.0 | -23.6 | 352 | 5 |
| 2010-01-21T23:49 | 6208 | 479 | -6.2 | -28.3 | 11 | 7 |
| 2010-01-21T23:49 | 6275 | 475 | -6.1 | -35.1 | 20 | 8 |
| 2010-01-21T23:50 | 6329 | 472 | -6.2 | -41.7 | 23 | 9 |
| 2010-01-21T23:50 | 6373 | 469 | -6.3 | -43.1 | 23 | 10 |
| 2010-01-21T23:50 | 6418 | 466 | -6.6 | -44.0 | 23 | 10 |
| 2010-01-21T23:50 | 6464 | 464 | -7.0 | -44.4 | 24 | 10 |
| 2010-01-21T23:50 | 6512 | 461 | -7.4 | -44.5 | 27 | 10 |
| 2010-01-21T23:50 | 6566 | 457 | -7.6 | -45.2 | 30 | 10 |
| 2010-01-21T23:51 | 6613 | 455 | -7.9 | -45.6 | 33 | 11 |
| 2010-01-21T23:51 | 6675 | 451 | -8.2 | -46.3 | 35 | 11 |
| 2010-01-21T23:51 | 6733 | 448 | -8.3 | -47.9 | 36 | 11 |
| 2010-01-21T23:51 | 6787 | 445 | -8.5 | -48.3 | 37 | 11 |
| 2010-01-21T23:51 | 6841 | 442 | -8.8 | -48.7 | 38 | 12 |
| 2010-01-21T23:51 | 6886 | 439 | -9.0 | -48.9 | 39 | 12 |
| 2010-01-21T23:52 | 6937 | 436 | -9.4 | -49.3 | 39 | 13 |
| 2010-01-21T23:52 | 6994 | 433 | -9.9 | -49.2 | 41 | 13 |
| 2010-01-21T23:52 | 7053 | 430 | -10.5 | -49.1 | 42 | 13 |
| 2010-01-21T23:52 | 7110 | 426 | -10.9 | -49.5 | 42 | 14 |
| 2010-01-21T23:52 | 7167 | 423 | -11.4 | -49.2 | 41 | 14 |
| 2010-01-21T23:52 | 7225 | 420 | -11.6 | -48.7 | 40 | 14 |
| 2010-01-21T23:53 | 7278 | 417 | -11.9 | -49.1 | 41 | 15 |
| 2010-01-21T23:53 | 7328 | 414 | -12.4 | -49.3 | 42 | 15 |
| 2010-01-21T23:53 | 7372 | 412 | -12.7 | -49.4 | 40 | 15 |
| 2010-01-21T23:53 | 7415 | 410 | -13.0 | -49.8 | 38 | 14 |
| 2010-01-21T23:53 | 7454 | 408 | -13.4 | -50.2 | 37 | 14 |
| 2010-01-21T23:53 | 7497 | 405 | -13.8 | -50.4 | 37 | 13 |
| 2010-01-21T23:54 | 7537 | 403 | -14.1 | -50.7 | 35 | 13 |
| 2010-01-21T23:54 | 7579 | 401 | -14.5 | -51.0 | 34 | 14 |
| 2010-01-21T23:54 | 7626 | 399 | -15.0 | -51.5 | 33 | 14 |
| 2010-01-21T23:54 | 7665 | 396 | -15.4 | -51.4 | 32 | 13 |
| 2010-01-21T23:54 | 7704 | 394 | -15.7 | -51.3 | 31 | 13 |
| 2010-01-21T23:54 | 7741 | 392 | -16.1 | -51.3 | 30 | 12 |
| 2010-01-21T23:55 | 7782 | 390 | -16.2 | -50.2 | 30 | 12 |
| 2010-01-21T23:55 | 7820 | 388 | -16.5 | -50.1 | 29 | 12 |
| 2010-01-21T23:55 | 7861 | 386 | -17.0 | -50.0 | 30 | 12 |
| 2010-01-21T23:55 | 7908 | 384 | -17.3 | -50.1 | 33 | 11 |
| 2010-01-21T23:55 | 7953 | 381 | -17.5 | -51.1 | 35 | 11 |
| 2010-01-21T23:55 | 7991 | 380 | -17.7 | -52.1 | 37 | 11 |
| 2010-01-21T23:56 | 8030 | 378 | -18.1 | -52.6 | 39 | 10 |
| 2010-01-21T23:56 | 8073 | 375 | -18.5 | -53.0 | 42 | 10 |
| 2010-01-21T23:56 | 8115 | 373 | -18.7 | -53.6 | 44 | 10 |
| 2010-01-21T23:56 | 8156 | 371 | -19.1 | -53.9 | 45 | 10 |
| 2010-01-21T23:56 | 8195 | 369 | -19.5 | -54.1 | 46 | 10 |
| 2010-01-21T23:56 | 8235 | 367 | -19.7 | -54.4 | 47 | 10 |
| 2010-01-21T23:57 | 8278 | 365 | -20.0 | -55.0 | 48 | 11 |
| 2010-01-21T23:57 | 8318 | 363 | -20.3 | -55.8 | 48 | 11 |
| 2010-01-21T23:57 | 8361 | 361 | -20.8 | -56.0 | 48 | 11 |
| 2010-01-21T23:57 | 8404 | 359 | -21.2 | -56.1 | 48 | 10 |
| 2010-01-21T23:57 | 8449 | 357 | -21.6 | -56.2 | 50 | 10 |
| 2010-01-21T23:57 | 8496 | 355 | -22.0 | -56.2 | 50 | 10 |
| 2010-01-21T23:58 | 8539 | 353 | -22.3 | -55.8 | 48 | 10 |
| 2010-01-21T23:58 | 8580 | 351 | -22.8 | -55.9 | 46 | 10 |
| 2010-01-21T23:58 | 8620 | 349 | -23.1 | -55.5 | 46 | 9 |
| 2010-01-21T23:58 | 8661 | 347 | -23.3 | -54.5 | 48 | 9 |
| 2010-01-21T23:58 | 8703 | 345 | -23.4 | -54.6 | 52 | 9 |
| 2010-01-21T23:58 | 8746 | 343 | -23.7 | -55.2 | 55 | 10 |
| 2010-01-21T23:59 | 8791 | 341 | -24.0 | -55.6 | 56 | 11 |
| 2010-01-21T23:59 | 8834 | 339 | -24.3 | -56.3 | 56 | 11 |
| 2010-01-21T23:59 | 8875 | 337 | -24.5 | -56.6 | 55 | 12 |
| 2010-01-21T23:59 | 8917 | 335 | -24.8 | -56.9 | 54 | 13 |
| 2010-01-21T23:59 | 8959 | 333 | -25.1 | -56.0 | 54 | 13 |
| 2010-01-21T23:59 | 8999 | 331 | -25.2 | -53.8 | 53 | 14 |
| 2010-01-22T00:00 | 9044 | 329 | -25.4 | -50.5 | 52 | 15 |
| 2010-01-22T00:00 | 9084 | 327 | -25.8 | -51.8 | 51 | 15 |
| 2010-01-22T00:00 | 9127 | 325 | -26.0 | -57.2 | 50 | 15 |
| 2010-01-22T00:00 | 9168 | 323 | -26.2 | -61.5 | 49 | 15 |
| 2010-01-22T00:00 | 9210 | 321 | -26.3 | -47.9 | 47 | 15 |
| 2010-01-22T00:00 | 9251 | 320 | -26.5 | -39.3 | 45 | 15 |
| 2010-01-22T00:01 | 9292 | 318 | -26.8 | -39.3 | 44 | 15 |
| 2010-01-22T00:01 | 9335 | 316 | -27.2 | -39.3 | 43 | 15 |
| 2010-01-22T00:01 | 9381 | 314 | -27.8 | -39.3 | 41 | 14 |
| 2010-01-22T00:01 | 9441 | 311 | -28.5 | -37.8 | 42 | 14 |
| 2010-01-22T00:01 | 9499 | 309 | -29.1 | -37.2 | 44 | 14 |
| 2010-01-22T00:01 | 9551 | 307 | -29.5 | -38.3 | 44 | 15 |
| 2010-01-22T00:02 | 9601 | 304 | -30.1 | -36.3 | 43 | 15 |
| 2010-01-22T00:02 | 9648 | 302 | -30.5 | -36.2 | 43 | 15 |
| 2010-01-22T00:02 | 9698 | 300 | -30.9 | -36.5 | 43 | 14 |
| 2010-01-22T00:02 | 9749 | 298 | -31.4 | -36.7 | 43 | 14 |
| 2010-01-22T00:02 | 9802 | 296 | -31.9 | -37.0 | 43 | 15 |
| 2010-01-22T00:02 | 9852 | 294 | -32.2 | -37.3 | 43 | 14 |
| 2010-01-22T00:03 | 9904 | 292 | -32.5 | -37.8 | 43 | 14 |
| 2010-01-22T00:03 | 9950 | 290 | -32.6 | -37.7 | 42 | 14 |
| 2010-01-22T00:03 | 10002 | 288 | -33.0 | -38.3 | 41 | 14 |
| 2010-01-22T00:03 | 10051 | 286 | -33.4 | -38.3 | 41 | 13 |
| 2010-01-22T00:03 | 10097 | 284 | -33.6 | -38.7 | 42 | 13 |
| 2010-01-22T00:03 | 10149 | 282 | -34.0 | -39.0 | 45 | 12 |
| 2010-01-22T00:04 | 10199 | 280 | -34.3 | -39.1 | 47 | 11 |
| 2010-01-22T00:04 | 10249 | 278 | -34.7 | -39.5 | 49 | 11 |
| 2010-01-22T00:04 | 10298 | 276 | -35.0 | -39.9 | 51 | 10 |
| 2010-01-22T00:04 | 10339 | 274 | -35.2 | -40.1 | 53 | 10 |
| 2010-01-22T00:04 | 10385 | 272 | -35.6 | -40.7 | 56 | 10 |
| 2010-01-22T00:04 | 10431 | 271 | -36.0 | -41.3 | 58 | 10 |
| 2010-01-22T00:05 | 10475 | 269 | -36.2 | -41.4 | 60 | 10 |
| 2010-01-22T00:05 | 10517 | 267 | -36.4 | -42.1 | 62 | 9 |
| 2010-01-22T00:05 | 10561 | 266 | -36.8 | -42.8 | 65 | 9 |
| 2010-01-22T00:05 | 10608 | 264 | -37.2 | -42.8 | 68 | 8 |
| 2010-01-22T00:05 | 10655 | 262 | -37.5 | -42.8 | 72 | 7 |
| 2010-01-22T00:05 | 10699 | 260 | -37.6 | -43.1 | 75 | 6 |
| 2010-01-22T00:06 | 10742 | 259 | -37.9 | -43.8 | 79 | 6 |
| 2010-01-22T00:06 | 10790 | 257 | -38.5 | -44.2 | 85 | 6 |
| 2010-01-22T00:06 | 10840 | 255 | -39.0 | -44.4 | 90 | 5 |
| 2010-01-22T00:06 | 10887 | 253 | -39.4 | -44.9 | 94 | 5 |
| 2010-01-22T00:06 | 10938 | 251 | -40.0 | -45.7 | 97 | 5 |
| 2010-01-22T00:06 | 10985 | 250 | -40.4 | -46.1 | 97 | 4 |
| 2010-01-22T00:07 | 11031 | 248 | -40.8 | -46.4 | 96 | 4 |
| 2010-01-22T00:07 | 11077 | 246 | -41.3 | -46.4 | 96 | 4 |
| 2010-01-22T00:07 | 11124 | 245 | -41.7 | -46.7 | 97 | 4 |
| 2010-01-22T00:07 | 11171 | 243 | -42.0 | -47.4 | 100 | 4 |
| 2010-01-22T00:07 | 11222 | 241 | -42.5 | -48.0 | 104 | 4 |
| 2010-01-22T00:07 | 11272 | 239 | -43.0 | -48.6 | 108 | 5 |
| 2010-01-22T00:08 | 11320 | 238 | -43.3 | -48.9 | 113 | 5 |
| 2010-01-22T00:08 | 11375 | 236 | -43.8 | -49.8 | 121 | 5 |
| 2010-01-22T00:08 | 11426 | 234 | -44.2 | -49.8 | 128 | 5 |
| 2010-01-22T00:08 | 11476 | 232 | -44.6 | -50.0 | 134 | 5 |
| 2010-01-22T00:08 | 11529 | 230 | -45.1 | -50.7 | 139 | 4 |
| 2010-01-22T00:08 | 11591 | 228 | -45.7 | -51.7 | 144 | 4 |
| 2010-01-22T00:09 | 11654 | 226 | -46.3 | -52.3 | 148 | 4 |
| 2010-01-22T00:09 | 11708 | 224 | -46.9 | -52.8 | 151 | 4 |
| 2010-01-22T00:09 | 11758 | 222 | -47.3 | -53.2 | 150 | 4 |
| 2010-01-22T00:09 | 11809 | 221 | -47.8 | -53.7 | 146 | 4 |
| 2010-01-22T00:09 | 11866 | 219 | -48.4 | -54.7 | 139 | 5 |
| 2010-01-22T00:09 | 11930 | 217 | -48.9 | -55.2 | 134 | 5 |
| 2010-01-22T00:10 | 11984 | 215 | -49.3 | -55.5 | 131 | 5 |
| 2010-01-22T00:10 | 12036 | 213 | -49.6 | -55.8 | 130 | 5 |
| 2010-01-22T00:10 | 12088 | 212 | -50.3 | -56.5 | 131 | 5 |
| 2010-01-22T00:10 | 12139 | 210 | -50.7 | -56.8 | 131 | 6 |
| 2010-01-22T00:10 | 12191 | 208 | -51.3 | -57.3 | 130 | 6 |
| 2010-01-22T00:10 | 12244 | 207 | -51.7 | -57.4 | 127 | 6 |
| 2010-01-22T00:11 | 12297 | 205 | -52.1 | -57.6 | 124 | 6 |
| 2010-01-22T00:11 | 12351 | 203 | -52.6 | -58.1 | 123 | 6 |
| 2010-01-22T00:11 | 12406 | 201 | -53.2 | -58.7 | 123 | 6 |
| 2010-01-22T00:11 | 12459 | 200 | -53.6 | -59.0 | 123 | 7 |
| 2010-01-22T00:11 | 12511 | 198 | -53.9 | -59.4 | 123 | 7 |
| 2010-01-22T00:11 | 12562 | 197 | -54.5 | -60.0 | 124 | 7 |
| 2010-01-22T00:12 | 12615 | 195 | -54.9 | -60.6 | 126 | 8 |
| 2010-01-22T00:12 | 12667 | 193 | -55.5 | -61.3 | 128 | 8 |
| 2010-01-22T00:12 | 12717 | 192 | -56.0 | -61.9 | 129 | 7 |
| 2010-01-22T00:12 | 12769 | 190 | -56.4 | -62.3 | 131 | 8 |
| 2010-01-22T00:12 | 12820 | 189 | -56.8 | -62.6 | 133 | 8 |
| 2010-01-22T00:12 | 12870 | 187 | -57.3 | -63.0 | 133 | 8 |
| 2010-01-22T00:13 | 12923 | 186 | -57.8 | -63.5 | 131 | 8 |
| 2010-01-22T00:13 | 12978 | 184 | -58.5 | -64.2 | 128 | 9 |
| 2010-01-22T00:13 | 13031 | 183 | -58.9 | -64.4 | 126 | 9 |
| 2010-01-22T00:13 | 13100 | 181 | -59.6 | -64.9 | 125 | 10 |
| 2010-01-22T00:13 | 13168 | 179 | -60.2 | -65.3 | 127 | 11 |
| 2010-01-22T00:13 | 13232 | 177 | -60.9 | -65.9 | 130 | 13 |
| 2010-01-22T00:14 | 13308 | 175 | -61.4 | -66.4 | 133 | 14 |
| 2010-01-22T00:14 | 13387 | 172 | -62.1 | -67.3 | 134 | 15 |
| 2010-01-22T00:14 | 13453 | 171 | -62.7 | -67.8 | 134 | 17 |
| 2010-01-22T00:14 | 13510 | 169 | -63.1 | -68.4 | 135 | 18 |
| 2010-01-22T00:14 | 13566 | 167 | -63.5 | -69.1 | 136 | 19 |
| 2010-01-22T00:14 | 13618 | 166 | -64.0 | -69.9 | 136 | 20 |
| 2010-01-22T00:15 | 13673 | 165 | -64.5 | -70.5 | 136 | 20 |
| 2010-01-22T00:15 | 13725 | 163 | -65.0 | -71.1 | 135 | 20 |
| 2010-01-22T00:15 | 13779 | 162 | -65.4 | -71.8 | 135 | 21 |
| 2010-01-22T00:15 | 13834 | 160 | -66.0 | -72.4 | 135 | 21 |
| 2010-01-22T00:15 | 13890 | 159 | -66.6 | -73.0 | 135 | 22 |
| 2010-01-22T00:15 | 13941 | 157 | -66.9 | -73.4 | 134 | 22 |
| 2010-01-22T00:16 | 13996 | 156 | -67.4 | -73.9 | 133 | 22 |
| 2010-01-22T00:16 | 14048 | 155 | -67.8 | -74.2 | 132 | 23 |
| 2010-01-22T00:16 | 14099 | 153 | -68.3 | -74.9 | 131 | 23 |
| 2010-01-22T00:16 | 14151 | 152 | -68.8 | -75.5 | 130 | 23 |
| 2010-01-22T00:16 | 14201 | 151 | -69.3 | -76.2 | 129 | 24 |
| 2010-01-22T00:16 | 14252 | 150 | -69.6 | -76.7 | 129 | 24 |
| 2010-01-22T00:17 | 14304 | 148 | -70.1 | -77.3 | 129 | 24 |
| 2010-01-22T00:17 | 14355 | 147 | -70.7 | -77.9 | 128 | 25 |
| 2010-01-22T00:17 | 14408 | 146 | -71.2 | -78.5 | 128 | 25 |
| 2010-01-22T00:17 | 14460 | 144 | -71.6 | -79.0 | 127 | 26 |
| 2010-01-22T00:17 | 14509 | 143 | -72.2 | -79.7 | 126 | 26 |
| 2010-01-22T00:17 | 14565 | 142 | -72.8 | -80.3 | 126 | 25 |
| 2010-01-22T00:18 | 14612 | 141 | -73.2 | -80.8 | 126 | 25 |
| 2010-01-22T00:18 | 14657 | 140 | -73.4 | -81.1 | 126 | 25 |
| 2010-01-22T00:18 | 14701 | 139 | -73.7 | -81.4 | 127 | 25 |
| 2010-01-22T00:18 | 14745 | 138 | -74.1 | -81.8 | 127 | 26 |
| 2010-01-22T00:18 | 14788 | 136 | -74.2 | -82.0 | 127 | 27 |
| 2010-01-22T00:18 | 14838 | 135 | -74.8 | -82.6 | 126 | 28 |
| 2010-01-22T00:19 | 14884 | 134 | -75.0 | -82.8 | 124 | 29 |
| 2010-01-22T00:19 | 14942 | 133 | -75.3 | -83.2 | 123 | 30 |
| 2010-01-22T00:19 | 14994 | 132 | -75.3 | -83.2 | 122 | 32 |
| 2010-01-22T00:19 | 15047 | 131 | -75.6 | -83.3 | 122 | 33 |
| 2010-01-22T00:19 | 15090 | 130 | -76.0 | -83.7 | 122 | 34 |
| 2010-01-22T00:19 | 15135 | 129 | -76.1 | -83.7 | 122 | 34 |
| 2010-01-22T00:20 | 15183 | 128 | -76.6 | -84.2 | 121 | 35 |
| 2010-01-22T00:20 | 15236 | 126 | -77.1 | -84.6 | 121 | 36 |
| 2010-01-22T00:20 | 15287 | 125 | -77.7 | -85.2 | 120 | 37 |
| 2010-01-22T00:20 | 15334 | 124 | -77.5 | -85.1 | 119 | 37 |
| 2010-01-22T00:20 | 15386 | 123 | -78.0 | -85.5 | 119 | 38 |
| 2010-01-22T00:20 | 15446 | 122 | -78.1 | -85.8 | 118 | 40 |
| 2010-01-22T00:21 | 15523 | 120 | -78.4 | -86.1 | 117 | 43 |
| 2010-01-22T00:21 | 15580 | 119 | -78.5 | -86.3 | 117 | 45 |
| 2010-01-22T00:21 | 15631 | 118 | -77.9 | -85.9 | 115 | 45 |
| 2010-01-22T00:21 | 15693 | 117 | -77.1 | -85.4 | 112 | 41 |
| 2010-01-22T00:21 | 15766 | 115 | -75.2 | -83.9 | 107 | 37 |
| 2010-01-22T00:21 | 15841 | 114 | -74.1 | -83.2 | 102 | 34 |
| 2010-01-22T00:22 | 15914 | 112 | -74.4 | -83.7 | 98 | 33 |
| 2010-01-22T00:22 | 15976 | 111 | -74.7 | -84.2 | 95 | 33 |
| 2010-01-22T00:22 | 16030 | 110 | -74.9 | -84.8 | 93 | 32 |
| 2010-01-22T00:22 | 16096 | 109 | -74.8 | -85.0 | 91 | 30 |
| 2010-01-22T00:22 | 16173 | 107 | -73.7 | -84.4 | 88 | 26 |
| 2010-01-22T00:22 | 16236 | 106 | -73.2 | -84.4 | 85 | 22 |
| 2010-01-22T00:23 | 16287 | 105 | -72.9 | -84.3 | 84 | 20 |
| 2010-01-22T00:23 | 16336 | 104 | -72.7 | -84.5 | 83 | 17 |
| 2010-01-22T00:23 | 16396 | 103 | -72.3 | -84.7 | 79 | 13 |
| 2010-01-22T00:23 | 16465 | 102 | -71.5 | -84.4 | 69 | 10 |
| 2010-01-22T00:23 | 16537 | 101 | -71.8 | -84.9 | 47 | 7 |
| 2010-01-22T00:23 | 16604 | 100 | -71.1 | -84.6 | 19 | 5 |
| 2010-01-22T00:24 | 16689 | 98 | -71.6 | -85.5 | 336 | 5 |
| 2010-01-22T00:24 | 16776 | 97 | -71.5 | -85.8 | 304 | 7 |
| 2010-01-22T00:24 | 16857 | 96 | -71.4 | -86.1 | 294 | 10 |
| 2010-01-22T00:24 | 16930 | 94 | -72.1 | -87.0 | 291 | 12 |
| 2010-01-22T00:24 | 16991 | 93 | -72.3 | -87.5 | 289 | 13 |
| 2010-01-22T00:24 | 17038 | 93 | -72.4 | -87.8 | 288 | 15 |
| 2010-01-22T00:25 | 17085 | 92 | -72.6 | -88.2 | 286 | 16 |
| 2010-01-22T00:25 | 17134 | 91 | -72.9 | -88.7 | 284 | 17 |
| 2010-01-22T00:25 | 17178 | 91 | -72.8 | -88.9 | 283 | 17 |
| 2010-01-22T00:25 | 17224 | 90 | -73.0 | -89.1 | 281 | 18 |
| 2010-01-22T00:25 | 17272 | 89 | -73.4 | -89.6 | 278 | 20 |
| 2010-01-22T00:25 | 17327 | 88 | -73.6 | -90.1 | 275 | 22 |
| 2010-01-22T00:26 | 17382 | 87 | -74.1 | -90.6 | 274 | 23 |
| 2010-01-22T00:26 | 17446 | 86 | -74.3 | -90.9 | 272 | 25 |
| 2010-01-22T00:26 | 17499 | 86 | -74.3 | -91.1 | 270 | 26 |
| 2010-01-22T00:26 | 17544 | 85 | -74.4 | -91.1 | 268 | 26 |
| 2010-01-22T00:26 | 17590 | 84 | -74.4 | -91.1 | 267 | 27 |
| 2010-01-22T00:26 | 17636 | 84 | -74.5 | -91.3 | 267 | 27 |
| 2010-01-22T00:27 | 17684 | 83 | -74.8 | -91.5 | 266 | 27 |
| 2010-01-22T00:27 | 17732 | 82 | -74.5 | -91.4 | 267 | 27 |
| 2010-01-22T00:27 | 17781 | 82 | -74.6 | -91.6 | 268 | 27 |
| 2010-01-22T00:27 | 17832 | 81 | -74.7 | -91.8 | 269 | 26 |
| 2010-01-22T00:27 | 17883 | 80 | -74.9 | -92.1 | 269 | 26 |
| 2010-01-22T00:27 | 17933 | 80 | -75.2 | -92.3 | 270 | 26 |
| 2010-01-22T00:28 | 17984 | 79 | -75.4 | -92.5 | 271 | 26 |
| 2010-01-22T00:28 | 18033 | 78 | -75.7 | -92.8 | 273 | 26 |
| 2010-01-22T00:28 | 18082 | 77 | -75.9 | -93.0 | 273 | 26 |
| 2010-01-22T00:28 | 18132 | 77 | -76.0 | -93.1 | 273 | 25 |
| 2010-01-22T00:28 | 18182 | 76 | -76.3 | -93.3 | 273 | 25 |
| 2010-01-22T00:28 | 18231 | 76 | -76.7 | -93.6 | 272 | 24 |
| 2010-01-22T00:29 | 18278 | 75 | -77.0 | -93.9 | 270 | 24 |
| 2010-01-22T00:29 | 18327 | 74 | -77.0 | -94.0 | 268 | 24 |
| 2010-01-22T00:29 | 18376 | 74 | -76.9 | -93.9 | 267 | 24 |
| 2010-01-22T00:29 | 18423 | 73 | -77.1 | -93.9 | 266 | 24 |
| 2010-01-22T00:29 | 18472 | 72 | -77.5 | -94.1 | 266 | 24 |
| 2010-01-22T00:29 | 18520 | 72 | -77.9 | -94.5 | 265 | 24 |
| 2010-01-22T00:30 | 18569 | 71 | -78.3 | -94.8 | 264 | 24 |
| 2010-01-22T00:30 | 18617 | 71 | -78.9 | -95.2 | 264 | 24 |
| 2010-01-22T00:30 | 18664 | 70 | -79.3 | -95.6 | 264 | 24 |
| 2010-01-22T00:30 | 18714 | 69 | -79.4 | -95.6 | 262 | 24 |
| 2010-01-22T00:30 | 18763 | 69 | -79.4 | -95.6 | 260 | 24 |
| 2010-01-22T00:30 | 18812 | 68 | -79.2 | -95.3 | 258 | 23 |
| 2010-01-22T00:31 | 18858 | 68 | -79.5 | -95.5 | 258 | 23 |
| 2010-01-22T00:31 | 18906 | 67 | -79.8 | -95.7 | 258 | 22 |
| 2010-01-22T00:31 | 18953 | 67 | -78.8 | -94.9 | 258 | 21 |
| 2010-01-22T00:31 | 19000 | 66 | -79.3 | -95.1 | 259 | 21 |
| 2010-01-22T00:31 | 19047 | 65 | -78.9 | -94.7 | 261 | 20 |
| 2010-01-22T00:31 | 19093 | 65 | -78.5 | -94.4 | 263 | 19 |
| 2010-01-22T00:32 | 19140 | 64 | -78.5 | -94.3 | 265 | 19 |
| 2010-01-22T00:32 | 19185 | 64 | -78.7 | -94.4 | 267 | 18 |
| 2010-01-22T00:32 | 19232 | 63 | -77.8 | -93.6 | 269 | 17 |
| 2010-01-22T00:32 | 19279 | 63 | -77.3 | -93.3 | 271 | 16 |
| 2010-01-22T00:32 | 19324 | 62 | -77.6 | -93.3 | 272 | 15 |
| 2010-01-22T00:32 | 19369 | 62 | -78.1 | -93.8 | 272 | 15 |
| 2010-01-22T00:33 | 19417 | 61 | -78.6 | -94.2 | 273 | 15 |
| 2010-01-22T00:33 | 19463 | 61 | -78.9 | -94.3 | 273 | 14 |
| 2010-01-22T00:33 | 19510 | 60 | -78.9 | -94.4 | 275 | 13 |
| 2010-01-22T00:33 | 19556 | 60 | -78.8 | -94.4 | 279 | 13 |
| 2010-01-22T00:33 | 19603 | 59 | -78.8 | -94.3 | 284 | 12 |
| 2010-01-22T00:33 | 19647 | 59 | -78.8 | -94.2 | 287 | 12 |
| 2010-01-22T00:34 | 19694 | 58 | -78.1 | -93.7 | 285 | 12 |
| 2010-01-22T00:34 | 19739 | 58 | -78.0 | -93.5 | 283 | 12 |
| 2010-01-22T00:34 | 19785 | 57 | -77.8 | -93.4 | 283 | 12 |
| 2010-01-22T00:34 | 19831 | 57 | -78.3 | -93.6 | 287 | 12 |
| 2010-01-22T00:34 | 19877 | 57 | -77.5 | -93.1 | 290 | 11 |
| 2010-01-22T00:34 | 19924 | 56 | -77.2 | -92.9 | 289 | 10 |
| 2010-01-22T00:35 | 19971 | 56 | -76.5 | -92.3 | 287 | 9 |
| 2010-01-22T00:35 | 20018 | 55 | -75.8 | -91.8 | 288 | 8 |
| 2010-01-22T00:35 | 20065 | 55 | -75.0 | -91.2 | 291 | 8 |
| 2010-01-22T00:35 | 20113 | 54 | -75.3 | -91.4 | 294 | 8 |
| 2010-01-22T00:35 | 20162 | 54 | -75.6 | -91.7 | 298 | 7 |
| 2010-01-22T00:35 | 20212 | 53 | -75.7 | -91.8 | 297 | 6 |
| 2010-01-22T00:36 | 20262 | 53 | -75.2 | -91.6 | 289 | 5 |
| 2010-01-22T00:36 | 20313 | 52 | -74.2 | -91.0 | 270 | 4 |
| 2010-01-22T00:36 | 20362 | 52 | -74.3 | -91.1 | 249 | 5 |
| 2010-01-22T00:36 | 20413 | 52 | -74.3 | -91.2 | 235 | 6 |
| 2010-01-22T00:36 | 20464 | 51 | -73.7 | -90.8 | 225 | 7 |
| 2010-01-22T00:36 | 20514 | 51 | -74.4 | -91.5 | 214 | 8 |
| 2010-01-22T00:37 | 20567 | 50 | -74.6 | -91.8 | 204 | 8 |
| 2010-01-22T00:37 | 20615 | 50 | -74.8 | -92.1 | 194 | 9 |
| 2010-01-22T00:37 | 20665 | 49 | -75.0 | -92.3 | 185 | 9 |
| 2010-01-22T00:37 | 20715 | 49 | -75.0 | -92.6 | 175 | 9 |
| 2010-01-22T00:37 | 20766 | 49 | -75.2 | -92.9 | 165 | 8 |
| 2010-01-22T00:37 | 20817 | 48 | -74.8 | -92.6 | 152 | 8 |
| 2010-01-22T00:38 | 20868 | 48 | -74.0 | -92.2 | 136 | 7 |
| 2010-01-22T00:38 | 20921 | 47 | -73.3 | -91.7 | 122 | 7 |
| 2010-01-22T00:38 | 20971 | 47 | -72.2 | -91.1 | 109 | 7 |
| 2010-01-22T00:38 | 21024 | 46 | -71.5 | -90.7 | 96 | 7 |
| 2010-01-22T00:38 | 21076 | 46 | -70.3 | -90.0 | 85 | 7 |
| 2010-01-22T00:38 | 21128 | 46 | -69.1 | -89.4 | 77 | 7 |
| 2010-01-22T00:39 | 21180 | 45 | -68.8 | -89.3 | 66 | 7 |
| 2010-01-22T00:39 | 21230 | 45 | -68.4 | -89.3 | 56 | 7 |
| 2010-01-22T00:39 | 21280 | 44 | -68.6 | -89.7 | 52 | 7 |
| 2010-01-22T00:39 | 21328 | 44 | -68.8 | -90.1 | 55 | 7 |
| 2010-01-22T00:39 | 21377 | 44 | -68.9 | -90.6 | 64 | 8 |
| 2010-01-22T00:39 | 21425 | 43 | -68.6 | -90.8 | 77 | 8 |
| 2010-01-22T00:40 | 21472 | 43 | -68.8 | -91.3 | 92 | 8 |
| 2010-01-22T00:40 | 21522 | 43 | -68.5 | -91.5 | 107 | 9 |
| 2010-01-22T00:40 | 21571 | 42 | -68.3 | -91.6 | 118 | 10 |
| 2010-01-22T00:40 | 21620 | 42 | -68.0 | -91.8 | 124 | 11 |
| 2010-01-22T00:40 | 21669 | 42 | -67.9 | -91.9 | 126 | 12 |
| 2010-01-22T00:40 | 21718 | 41 | -67.7 | -92.1 | 126 | 12 |
| 2010-01-22T00:41 | 21766 | 41 | -67.6 | -92.2 | 126 | 13 |
| 2010-01-22T00:41 | 21816 | 41 | -67.8 | -92.4 | 124 | 13 |
| 2010-01-22T00:41 | 21868 | 40 | -68.1 | -92.9 | 120 | 14 |
| 2010-01-22T00:41 | 21920 | 40 | -68.1 | -93.1 | 114 | 16 |
| 2010-01-22T00:41 | 21971 | 40 | -67.6 | -93.2 | 108 | 17 |
| 2010-01-22T00:41 | 22025 | 39 | -67.4 | -93.3 | 103 | 19 |
| 2010-01-22T00:42 | 22077 | 39 | -67.3 | -93.2 | 100 | 20 |
| 2010-01-22T00:42 | 22130 | 39 | -67.2 | -93.1 | 98 | 21 |
| 2010-01-22T00:42 | 22184 | 38 | -66.6 | -93.1 | 95 | 21 |
| 2010-01-22T00:42 | 22239 | 38 | -66.1 | -92.9 | 92 | 22 |
| 2010-01-22T00:42 | 22294 | 38 | -65.0 | -92.5 | 88 | 23 |
| 2010-01-22T00:42 | 22347 | 37 | -64.6 | -92.4 | 85 | 24 |
| 2010-01-22T00:43 | 22400 | 37 | -63.2 | -91.7 | 83 | 26 |
| 2010-01-22T00:43 | 22456 | 37 | -61.7 | -90.9 | 81 | 28 |
| 2010-01-22T00:43 | 22507 | 36 | -61.6 | -90.6 | 80 | 30 |
| 2010-01-22T00:43 | 22560 | 36 | -60.1 | -90.2 | 82 | 30 |
| 2010-01-22T00:43 | 22613 | 36 | -60.2 | -90.2 | 84 | 29 |
| 2010-01-22T00:43 | 22667 | 35 | -60.0 | -90.0 | 88 | 29 |
| 2010-01-22T00:44 | 22720 | 35 | -60.5 | -90.3 | 91 | 29 |
| 2010-01-22T00:44 | 22772 | 35 | -60.8 | -90.4 | 92 | 29 |
| 2010-01-22T00:44 | 22824 | 35 | -60.8 | -90.5 | 93 | 29 |
| 2010-01-22T00:44 | 22876 | 34 | -61.2 | -90.8 | 92 | 29 |
| 2010-01-22T00:44 | 22928 | 34 | -61.5 | -91.1 | 91 | 30 |
| 2010-01-22T00:44 | 22978 | 34 | -61.1 | -91.1 | 89 | 30 |
| 2010-01-22T00:45 | 23030 | 33 | -60.6 | -90.8 | 86 | 30 |
| 2010-01-22T00:45 | 23080 | 33 | -60.6 | -91.0 | 84 | 31 |
| 2010-01-22T00:45 | 23134 | 33 | -60.7 | -90.9 | 83 | 31 |
| 2010-01-22T00:45 | 23186 | 33 | -60.2 | -90.7 | 81 | 31 |
| 2010-01-22T00:45 | 23241 | 32 | -59.3 | -90.4 | 78 | 30 |
| 2010-01-22T00:45 | 23293 | 32 | -59.6 | -90.4 | 76 | 30 |
| 2010-01-22T00:46 | 23346 | 32 | -59.2 | -90.3 | 75 | 29 |
| 2010-01-22T00:46 | 23400 | 31 | -59.3 | -90.1 | 76 | 29 |
| 2010-01-22T00:46 | 23452 | 31 | -59.5 | -90.1 | 78 | 29 |
| 2010-01-22T00:46 | 23507 | 31 | -59.4 | -90.1 | 81 | 29 |
| 2010-01-22T00:46 | 23559 | 31 | -59.2 | -90.1 | 84 | 28 |
| 2010-01-22T00:46 | 23613 | 30 | -58.5 | -89.8 | 86 | 29 |
| 2010-01-22T00:47 | 23666 | 30 | -58.1 | -89.5 | 86 | 29 |
| 2010-01-22T00:47 | 23718 | 30 | -57.9 | -89.3 | 86 | 30 |
| 2010-01-22T00:47 | 23775 | 30 | -57.9 | -89.2 | 86 | 30 |
| 2010-01-22T00:47 | 23828 | 29 | -58.1 | -89.1 | 86 | 30 |
| 2010-01-22T00:47 | 23883 | 29 | -58.4 | -89.2 | 85 | 30 |
| 2010-01-22T00:47 | 23937 | 29 | -58.4 | -89.1 | 83 | 31 |
| 2010-01-22T00:48 | 23993 | 29 | -58.1 | -89.0 | 82 | 30 |
| 2010-01-22T00:48 | 24046 | 28 | -57.6 | -88.9 | 80 | 30 |
| 2010-01-22T00:48 | 24102 | 28 | -56.8 | -88.6 | 79 | 29 |
| 2010-01-22T00:48 | 24157 | 28 | -57.2 | -88.7 | 80 | 28 |
| 2010-01-22T00:48 | 24210 | 28 | -57.0 | -88.6 | 81 | 29 |
| 2010-01-22T00:48 | 24267 | 27 | -55.9 | -87.9 | 83 | 28 |
| 2010-01-22T00:49 | 24322 | 27 | -55.4 | -87.6 | 85 | 28 |
| 2010-01-22T00:49 | 24376 | 27 | -55.0 | -87.3 | 86 | 28 |
| 2010-01-22T00:49 | 24431 | 27 | -55.0 | -87.3 | 88 | 28 |
| 2010-01-22T00:49 | 24484 | 26 | -54.5 | -86.9 | 91 | 28 |
| 2010-01-22T00:49 | 24539 | 26 | -54.2 | -86.7 | 94 | 28 |
| 2010-01-22T00:49 | 24594 | 26 | -53.7 | -86.3 | 97 | 28 |
| 2010-01-22T00:50 | 24648 | 26 | -53.5 | -86.1 | 100 | 27 |
| 2010-01-22T00:50 | 24705 | 26 | -53.6 | -85.9 | 103 | 27 |
| 2010-01-22T00:50 | 24759 | 25 | -54.0 | -85.9 | 105 | 27 |
| 2010-01-22T00:50 | 24817 | 25 | -54.2 | -86.1 | 107 | 27 |
| 2010-01-22T00:50 | 24872 | 25 | -54.2 | -86.0 | 107 | 27 |
| 2010-01-22T00:50 | 24925 | 25 | -54.7 | -86.1 | 105 | 28 |
| 2010-01-22T00:51 | 24979 | 25 | -55.2 | -86.4 | 103 | 29 |
| 2010-01-22T00:51 | 25035 | 24 | -55.4 | -86.7 | 100 | 30 |
| 2010-01-22T00:51 | 25093 | 24 | -55.3 | -86.7 | 99 | 31 |
| 2010-01-22T00:51 | 25149 | 24 | -55.2 | -86.6 | 97 | 31 |
| 2010-01-22T00:51 | 25206 | 24 | -54.8 | -86.6 | 95 | 32 |
| 2010-01-22T00:51 | 25264 | 23 | -54.6 | -86.4 | 93 | 32 |
| 2010-01-22T00:52 | 25320 | 23 | -54.3 | -86.3 | 91 | 33 |
| 2010-01-22T00:52 | 25374 | 23 | -54.5 | -86.3 | 90 | 33 |
| 2010-01-22T00:52 | 25433 | 23 | -54.4 | -86.2 | 89 | 34 |
| 2010-01-22T00:52 | 25488 | 23 | -54.2 | -86.1 | 88 | 33 |
| 2010-01-22T00:52 | 25544 | 22 | -54.1 | -86.0 | 87 | 33 |
| 2010-01-22T00:52 | 25602 | 22 | -54.0 | -85.9 | 86 | 32 |
| 2010-01-22T00:53 | 25655 | 22 | -54.6 | -86.1 | 85 | 31 |
| 2010-01-22T00:53 | 25713 | 22 | -54.1 | -85.8 | 85 | 31 |
| 2010-01-22T00:53 | 25768 | 22 | -54.0 | -85.9 | 85 | 31 |
| 2010-01-22T00:53 | 25824 | 21 | -53.7 | -85.6 | 85 | 32 |
| 2010-01-22T00:53 | 25880 | 21 | -53.6 | -85.6 | 85 | 33 |
| 2010-01-22T00:53 | 25938 | 21 | -53.4 | -85.5 | 86 | 33 |
| 2010-01-22T00:54 | 25989 | 21 | -53.5 | -85.6 | 86 | 33 |
| 2010-01-22T00:54 | 26047 | 21 | -52.9 | -85.3 | 86 | 31 |
| 2010-01-22T00:54 | 26103 | 21 | -52.4 | -85.0 | 86 | 30 |
| 2010-01-22T00:54 | 26159 | 20 | -52.5 | -85.0 | 86 | 30 |
| 2010-01-22T00:54 | 26215 | 20 | -52.3 | -84.9 | 86 | 29 |
| 2010-01-22T00:54 | 26273 | 20 | -52.4 | -84.6 | 86 | 29 |
| 2010-01-22T00:55 | 26326 | 20 | -52.3 | -84.7 | 87 | 29 |
| 2010-01-22T00:55 | 26385 | 20 | -52.3 | -84.7 | 87 | 29 |
| 2010-01-22T00:55 | 26441 | 20 | -52.8 | -84.7 | 87 | 30 |
| 2010-01-22T00:55 | 26499 | 19 | -53.0 | -84.8 | 86 | 30 |
| 2010-01-22T00:55 | 26554 | 19 | -52.3 | -84.7 | 84 | 31 |
| 2010-01-22T00:55 | 26611 | 19 | -51.8 | -84.4 | 83 | 32 |
| 2010-01-22T00:56 | 26673 | 19 | -51.6 | -84.2 | 82 | 33 |
| 2010-01-22T00:56 | 26725 | 19 | -51.6 | -84.2 | 83 | 34 |
| 2010-01-22T00:56 | 26780 | 19 | -51.5 | -84.0 | 84 | 34 |
| 2010-01-22T00:56 | 26838 | 18 | -51.6 | -84.0 | 84 | 33 |
| 2010-01-22T00:56 | 26895 | 18 | -51.8 | -84.1 | 83 | 33 |
| 2010-01-22T00:56 | 26954 | 18 | -52.3 | -84.3 | 82 | 32 |
| 2010-01-22T00:57 | 27009 | 18 | -52.6 | -84.4 | 81 | 32 |
| 2010-01-22T00:57 | 27065 | 18 | -52.3 | -84.4 | 81 | 32 |
| 2010-01-22T00:57 | 27123 | 18 | -52.6 | -84.6 | 80 | 32 |
| 2010-01-22T00:57 | 27181 | 17 | -52.4 | -84.4 | 80 | 31 |
| 2010-01-22T00:57 | 27241 | 17 | -52.2 | -84.4 | 81 | 31 |
| 2010-01-22T00:57 | 27298 | 17 | -52.1 | -84.4 | 82 | 30 |
| 2010-01-22T00:58 | 27353 | 17 | -52.3 | -84.4 | 82 | 31 |
| 2010-01-22T00:58 | 27412 | 17 | -52.4 | -84.4 | 82 | 31 |
| 2010-01-22T00:58 | 27472 | 17 | -52.3 | -84.4 | 82 | 32 |
| 2010-01-22T00:58 | 27532 | 16 | -51.6 | -84.2 | 82 | 31 |
| 2010-01-22T00:58 | 27588 | 16 | -51.9 | -84.2 | 82 | 31 |
| 2010-01-22T00:58 | 27648 | 16 | -51.3 | -84.0 | 82 | 31 |
| 2010-01-22T00:59 | 27706 | 16 | -51.2 | -84.0 | 82 | 31 |
| 2010-01-22T00:59 | 27766 | 16 | -51.0 | -83.8 | 81 | 32 |
| 2010-01-22T00:59 | 27822 | 16 | -50.6 | -83.6 | 82 | 32 |
| 2010-01-22T00:59 | 27881 | 16 | -50.7 | -83.6 | 82 | 33 |
| 2010-01-22T00:59 | 27940 | 15 | -50.4 | -83.4 | 82 | 33 |
| 2010-01-22T00:59 | 27995 | 15 | -50.2 | -83.2 | 83 | 34 |
| 2010-01-22T01:00 | 28059 | 15 | -50.3 | -83.2 | 83 | 33 |
| 2010-01-22T01:00 | 28114 | 15 | -50.0 | -83.1 | 82 | 33 |
| 2010-01-22T01:00 | 28171 | 15 | -49.7 | -82.9 | 82 | 33 |
| 2010-01-22T01:00 | 28230 | 15 | -50.0 | -82.9 | 82 | 34 |
| 2010-01-22T01:00 | 28287 | 15 | -49.5 | -82.7 | 83 | 35 |
| 2010-01-22T01:00 | 28343 | 15 | -49.5 | -82.7 | 84 | 36 |
| 2010-01-22T01:01 | 28398 | 14 | -49.6 | -82.7 | 85 | 36 |
| 2010-01-22T01:01 | 28452 | 14 | -49.1 | -82.4 | 87 | 36 |
| 2010-01-22T23:37 | 4 | 1009 | 30.1 | 25.2 | 320 | 6 |
| 2010-01-22T23:37 | 14 | 1008 | 28.6 | 24.2 | 307 | 4 |
| 2010-01-22T23:37 | 24 | 1006 | 28.5 | 24.4 | 307 | 4 |
| 2010-01-22T23:37 | 33 | 1005 | 28.4 | 24.5 | 307 | 5 |
| 2010-01-22T23:37 | 43 | 1004 | 28.3 | 24.6 | 307 | 6 |
| 2010-01-22T23:37 | 52 | 1003 | 28.2 | 24.7 | 307 | 6 |
| 2010-01-22T23:37 | 62 | 1002 | 28.1 | 24.7 | 307 | 7 |
| 2010-01-22T23:37 | 72 | 1001 | 28.0 | 24.6 | 306 | 7 |
| 2010-01-22T23:37 | 84 | 1000 | 27.9 | 24.5 | 306 | 8 |
| 2010-01-22T23:37 | 95 | 998 | 27.8 | 24.4 | 306 | 8 |
| 2010-01-22T23:37 | 104 | 997 | 27.7 | 24.3 | 306 | 8 |
| 2010-01-22T23:37 | 113 | 996 | 27.6 | 24.3 | 306 | 8 |
| 2010-01-22T23:37 | 121 | 996 | 27.6 | 24.3 | 305 | 9 |
| 2010-01-22T23:37 | 129 | 995 | 27.5 | 24.3 | 305 | 9 |
| 2010-01-22T23:37 | 139 | 994 | 27.4 | 24.3 | 305 | 9 |
| 2010-01-22T23:37 | 150 | 992 | 27.3 | 24.3 | 305 | 9 |
| 2010-01-22T23:37 | 161 | 991 | 27.2 | 24.3 | 305 | 9 |
| 2010-01-22T23:37 | 174 | 990 | 27.0 | 24.3 | 305 | 9 |
| 2010-01-22T23:37 | 185 | 988 | 26.9 | 24.3 | 305 | 9 |
| 2010-01-22T23:37 | 196 | 987 | 26.8 | 24.2 | 305 | 9 |
| 2010-01-22T23:37 | 206 | 986 | 26.8 | 24.2 | 305 | 9 |
| 2010-01-22T23:37 | 216 | 985 | 26.6 | 24.2 | 305 | 9 |
| 2010-01-22T23:37 | 226 | 984 | 26.6 | 24.1 | 305 | 9 |
| 2010-01-22T23:37 | 236 | 983 | 26.5 | 24.0 | 305 | 9 |
| 2010-01-22T23:37 | 247 | 982 | 26.4 | 23.8 | 304 | 9 |
| 2010-01-22T23:37 | 258 | 980 | 26.3 | 23.7 | 304 | 9 |
| 2010-01-22T23:37 | 269 | 979 | 26.2 | 23.7 | 304 | 9 |
| 2010-01-22T23:37 | 279 | 978 | 26.1 | 23.8 | 304 | 9 |
| 2010-01-22T23:37 | 290 | 977 | 26.0 | 23.7 | 304 | 9 |
| 2010-01-22T23:37 | 300 | 976 | 25.9 | 23.6 | 304 | 9 |
| 2010-01-22T23:38 | 311 | 974 | 25.8 | 23.6 | 304 | 9 |
| 2010-01-22T23:38 | 323 | 973 | 25.7 | 23.5 | 304 | 9 |
| 2010-01-22T23:38 | 334 | 972 | 25.6 | 23.5 | 304 | 9 |
| 2010-01-22T23:38 | 345 | 971 | 25.5 | 23.4 | 304 | 9 |
| 2010-01-22T23:38 | 356 | 970 | 25.3 | 23.5 | 304 | 9 |
| 2010-01-22T23:38 | 366 | 968 | 25.2 | 23.6 | 304 | 9 |
| 2010-01-22T23:38 | 377 | 967 | 25.1 | 23.7 | 304 | 9 |
| 2010-01-22T23:38 | 388 | 966 | 25.0 | 23.6 | 304 | 10 |
| 2010-01-22T23:38 | 398 | 965 | 24.9 | 23.6 | 304 | 10 |
| 2010-01-22T23:38 | 408 | 964 | 24.8 | 23.6 | 304 | 10 |
| 2010-01-22T23:38 | 417 | 963 | 24.7 | 23.6 | 304 | 10 |
| 2010-01-22T23:38 | 426 | 962 | 24.7 | 23.2 | 304 | 10 |
| 2010-01-22T23:38 | 437 | 961 | 24.8 | 22.7 | 304 | 10 |
| 2010-01-22T23:38 | 447 | 960 | 24.8 | 22.4 | 305 | 10 |
| 2010-01-22T23:38 | 456 | 959 | 24.8 | 22.2 | 305 | 10 |
| 2010-01-22T23:38 | 466 | 958 | 24.7 | 22.1 | 305 | 11 |
| 2010-01-22T23:38 | 475 | 957 | 24.7 | 22.0 | 305 | 11 |
| 2010-01-22T23:38 | 484 | 956 | 24.6 | 21.9 | 306 | 11 |
| 2010-01-22T23:38 | 495 | 954 | 24.5 | 21.9 | 306 | 11 |
| 2010-01-22T23:38 | 506 | 953 | 24.4 | 21.8 | 306 | 11 |
| 2010-01-22T23:38 | 517 | 952 | 24.3 | 21.7 | 307 | 11 |
| 2010-01-22T23:38 | 528 | 951 | 24.2 | 21.7 | 307 | 11 |
| 2010-01-22T23:38 | 538 | 950 | 24.1 | 21.7 | 307 | 11 |
| 2010-01-22T23:38 | 549 | 949 | 24.1 | 21.5 | 308 | 11 |
| 2010-01-22T23:38 | 560 | 947 | 24.0 | 21.5 | 308 | 11 |
| 2010-01-22T23:38 | 570 | 946 | 23.9 | 21.4 | 308 | 11 |
| 2010-01-22T23:38 | 580 | 945 | 23.8 | 21.3 | 308 | 11 |
| 2010-01-22T23:38 | 590 | 944 | 23.8 | 21.2 | 308 | 11 |
| 2010-01-22T23:38 | 600 | 943 | 23.7 | 21.2 | 308 | 11 |
| 2010-01-22T23:38 | 609 | 942 | 23.6 | 21.1 | 307 | 11 |
| 2010-01-22T23:39 | 619 | 941 | 23.5 | 21.0 | 307 | 11 |
| 2010-01-22T23:39 | 629 | 940 | 23.5 | 20.9 | 307 | 11 |
| 2010-01-22T23:39 | 639 | 939 | 23.5 | 20.9 | 306 | 11 |
| 2010-01-22T23:39 | 649 | 938 | 23.4 | 20.9 | 306 | 11 |
| 2010-01-22T23:39 | 659 | 937 | 23.3 | 20.8 | 305 | 11 |
| 2010-01-22T23:39 | 668 | 936 | 23.2 | 20.8 | 305 | 11 |
| 2010-01-22T23:39 | 676 | 935 | 23.1 | 20.8 | 305 | 11 |
| 2010-01-22T23:39 | 686 | 934 | 23.1 | 20.7 | 304 | 11 |
| 2010-01-22T23:39 | 695 | 933 | 23.1 | 20.7 | 304 | 11 |
| 2010-01-22T23:39 | 705 | 932 | 23.0 | 20.6 | 304 | 11 |
| 2010-01-22T23:39 | 715 | 931 | 22.9 | 20.5 | 304 | 10 |
| 2010-01-22T23:39 | 725 | 930 | 22.8 | 20.5 | 304 | 10 |
| 2010-01-22T23:39 | 734 | 929 | 22.8 | 20.5 | 304 | 10 |
| 2010-01-22T23:39 | 744 | 928 | 22.7 | 20.5 | 304 | 10 |
| 2010-01-22T23:39 | 754 | 927 | 22.6 | 20.4 | 304 | 10 |
| 2010-01-22T23:39 | 764 | 926 | 22.5 | 20.3 | 304 | 10 |
| 2010-01-22T23:39 | 774 | 924 | 22.5 | 20.3 | 304 | 10 |
| 2010-01-22T23:39 | 785 | 923 | 22.4 | 20.3 | 304 | 10 |
| 2010-01-22T23:39 | 795 | 922 | 22.3 | 20.2 | 304 | 10 |
| 2010-01-22T23:39 | 805 | 921 | 22.2 | 20.2 | 304 | 10 |
| 2010-01-22T23:39 | 816 | 920 | 22.2 | 20.1 | 304 | 11 |
| 2010-01-22T23:39 | 827 | 919 | 22.1 | 20.0 | 303 | 11 |
| 2010-01-22T23:39 | 838 | 918 | 22.0 | 20.0 | 303 | 11 |
| 2010-01-22T23:39 | 848 | 917 | 22.0 | 19.9 | 303 | 11 |
| 2010-01-22T23:39 | 859 | 916 | 21.9 | 19.9 | 302 | 11 |
| 2010-01-22T23:39 | 870 | 914 | 21.8 | 19.8 | 302 | 11 |
| 2010-01-22T23:39 | 883 | 913 | 21.6 | 19.8 | 302 | 11 |
| 2010-01-22T23:39 | 894 | 912 | 21.5 | 19.8 | 301 | 11 |
| 2010-01-22T23:39 | 904 | 911 | 21.4 | 19.8 | 301 | 12 |
| 2010-01-22T23:39 | 914 | 910 | 21.4 | 19.6 | 301 | 12 |
| 2010-01-22T23:40 | 922 | 909 | 21.6 | 19.4 | 300 | 12 |
| 2010-01-22T23:40 | 931 | 908 | 21.6 | 19.1 | 300 | 12 |
| 2010-01-22T23:40 | 939 | 907 | 21.6 | 19.0 | 300 | 12 |
| 2010-01-22T23:40 | 948 | 906 | 21.5 | 18.9 | 300 | 12 |
| 2010-01-22T23:40 | 958 | 905 | 21.4 | 18.8 | 299 | 12 |
| 2010-01-22T23:40 | 967 | 904 | 21.4 | 18.6 | 299 | 12 |
| 2010-01-22T23:40 | 977 | 903 | 21.4 | 18.5 | 299 | 12 |
| 2010-01-22T23:40 | 986 | 902 | 21.3 | 18.3 | 299 | 12 |
| 2010-01-22T23:40 | 996 | 901 | 21.3 | 18.2 | 299 | 12 |
| 2010-01-22T23:40 | 1006 | 900 | 21.2 | 18.1 | 299 | 12 |
| 2010-01-22T23:40 | 1015 | 899 | 21.1 | 18.1 | 299 | 12 |
| 2010-01-22T23:40 | 1024 | 898 | 21.0 | 18.1 | 299 | 12 |
| 2010-01-22T23:40 | 1032 | 898 | 21.0 | 18.0 | 299 | 12 |
| 2010-01-22T23:40 | 1042 | 897 | 20.9 | 18.0 | 299 | 12 |
| 2010-01-22T23:40 | 1053 | 895 | 20.8 | 17.9 | 299 | 12 |
| 2010-01-22T23:40 | 1062 | 894 | 20.8 | 17.8 | 299 | 12 |
| 2010-01-22T23:40 | 1071 | 894 | 20.8 | 17.8 | 300 | 12 |
| 2010-01-22T23:40 | 1081 | 892 | 20.7 | 17.7 | 300 | 12 |
| 2010-01-22T23:40 | 1092 | 891 | 20.6 | 17.5 | 300 | 12 |
| 2010-01-22T23:40 | 1103 | 890 | 20.6 | 17.3 | 300 | 12 |
| 2010-01-22T23:40 | 1112 | 889 | 20.6 | 17.1 | 300 | 12 |
| 2010-01-22T23:40 | 1121 | 888 | 20.5 | 17.0 | 300 | 12 |
| 2010-01-22T23:40 | 1131 | 887 | 20.5 | 17.0 | 300 | 12 |
| 2010-01-22T23:40 | 1142 | 886 | 20.4 | 17.0 | 300 | 12 |
| 2010-01-22T23:40 | 1152 | 885 | 20.3 | 17.0 | 300 | 12 |
| 2010-01-22T23:40 | 1162 | 884 | 20.3 | 16.9 | 300 | 12 |
| 2010-01-22T23:40 | 1173 | 883 | 20.2 | 16.8 | 300 | 12 |
| 2010-01-22T23:40 | 1184 | 882 | 20.2 | 16.6 | 300 | 12 |
| 2010-01-22T23:40 | 1196 | 881 | 20.2 | 16.3 | 299 | 12 |
| 2010-01-22T23:40 | 1207 | 880 | 20.1 | 16.1 | 299 | 12 |
| 2010-01-22T23:41 | 1218 | 878 | 20.0 | 16.0 | 299 | 12 |
| 2010-01-22T23:41 | 1228 | 877 | 20.0 | 16.0 | 298 | 12 |
| 2010-01-22T23:41 | 1239 | 876 | 19.9 | 16.0 | 298 | 12 |
| 2010-01-22T23:41 | 1251 | 875 | 19.8 | 16.0 | 298 | 12 |
| 2010-01-22T23:41 | 1261 | 874 | 19.6 | 16.0 | 298 | 12 |
| 2010-01-22T23:41 | 1271 | 873 | 19.5 | 16.1 | 298 | 12 |
| 2010-01-22T23:41 | 1282 | 872 | 19.4 | 16.2 | 297 | 13 |
| 2010-01-22T23:41 | 1293 | 871 | 19.4 | 16.2 | 297 | 13 |
| 2010-01-22T23:41 | 1304 | 870 | 19.3 | 16.1 | 297 | 13 |
| 2010-01-22T23:41 | 1314 | 869 | 19.3 | 16.0 | 297 | 13 |
| 2010-01-22T23:41 | 1324 | 868 | 19.2 | 15.9 | 297 | 13 |
| 2010-01-22T23:41 | 1335 | 867 | 19.1 | 15.8 | 297 | 13 |
| 2010-01-22T23:41 | 1347 | 865 | 19.0 | 15.8 | 297 | 13 |
| 2010-01-22T23:41 | 1358 | 864 | 18.9 | 15.6 | 297 | 13 |
| 2010-01-22T23:41 | 1370 | 863 | 18.9 | 15.4 | 297 | 13 |
| 2010-01-22T23:41 | 1382 | 862 | 18.8 | 15.3 | 297 | 13 |
| 2010-01-22T23:41 | 1394 | 861 | 18.7 | 15.1 | 297 | 13 |
| 2010-01-22T23:41 | 1406 | 860 | 18.6 | 15.0 | 297 | 13 |
| 2010-01-22T23:41 | 1417 | 858 | 18.5 | 15.0 | 297 | 13 |
| 2010-01-22T23:41 | 1428 | 857 | 18.5 | 14.8 | 298 | 13 |
| 2010-01-22T23:41 | 1440 | 856 | 18.4 | 14.4 | 298 | 13 |
| 2010-01-22T23:41 | 1452 | 855 | 18.4 | 14.2 | 298 | 13 |
| 2010-01-22T23:41 | 1464 | 854 | 18.3 | 14.3 | 299 | 13 |
| 2010-01-22T23:41 | 1477 | 852 | 18.2 | 14.1 | 299 | 13 |
| 2010-01-22T23:41 | 1490 | 851 | 18.1 | 13.8 | 299 | 13 |
| 2010-01-22T23:41 | 1503 | 850 | 18.0 | 13.8 | 299 | 13 |
| 2010-01-22T23:41 | 1514 | 849 | 17.9 | 14.1 | 300 | 13 |
| 2010-01-22T23:41 | 1525 | 848 | 17.7 | 14.3 | 300 | 13 |
| 2010-01-22T23:41 | 1538 | 846 | 17.6 | 14.5 | 300 | 13 |
| 2010-01-22T23:41 | 1549 | 845 | 17.5 | 14.4 | 300 | 13 |
| 2010-01-22T23:42 | 1560 | 844 | 17.5 | 14.4 | 299 | 13 |
| 2010-01-22T23:42 | 1571 | 843 | 17.5 | 14.4 | 299 | 13 |
| 2010-01-22T23:42 | 1584 | 842 | 17.4 | 14.1 | 299 | 13 |
| 2010-01-22T23:42 | 1597 | 841 | 17.4 | 13.9 | 299 | 13 |
| 2010-01-22T23:42 | 1609 | 839 | 17.4 | 13.9 | 298 | 13 |
| 2010-01-22T23:42 | 1621 | 838 | 17.4 | 14.0 | 298 | 13 |
| 2010-01-22T23:42 | 1633 | 837 | 17.3 | 14.0 | 298 | 13 |
| 2010-01-22T23:42 | 1644 | 836 | 17.3 | 14.0 | 298 | 13 |
| 2010-01-22T23:42 | 1654 | 835 | 17.2 | 13.8 | 298 | 13 |
| 2010-01-22T23:42 | 1665 | 834 | 17.4 | 13.3 | 297 | 13 |
| 2010-01-22T23:42 | 1675 | 833 | 17.6 | 12.6 | 297 | 13 |
| 2010-01-22T23:42 | 1685 | 832 | 17.7 | 12.4 | 297 | 13 |
| 2010-01-22T23:42 | 1696 | 831 | 17.8 | 12.1 | 297 | 13 |
| 2010-01-22T23:42 | 1706 | 830 | 17.9 | 11.6 | 297 | 13 |
| 2010-01-22T23:42 | 1715 | 829 | 18.0 | 11.2 | 296 | 14 |
| 2010-01-22T23:42 | 1725 | 828 | 18.0 | 10.7 | 296 | 14 |
| 2010-01-22T23:42 | 1737 | 827 | 18.0 | 10.0 | 296 | 14 |
| 2010-01-22T23:42 | 1748 | 826 | 18.1 | 9.5 | 296 | 14 |
| 2010-01-22T23:42 | 1760 | 825 | 18.1 | 9.2 | 296 | 14 |
| 2010-01-22T23:42 | 1771 | 824 | 18.0 | 9.0 | 295 | 14 |
| 2010-01-22T23:42 | 1782 | 823 | 18.0 | 8.9 | 295 | 14 |
| 2010-01-22T23:42 | 1791 | 822 | 17.9 | 8.9 | 295 | 14 |
| 2010-01-22T23:42 | 1802 | 821 | 17.8 | 9.0 | 295 | 14 |
| 2010-01-22T23:42 | 1813 | 820 | 17.7 | 9.0 | 295 | 14 |
| 2010-01-22T23:42 | 1825 | 819 | 17.6 | 9.0 | 295 | 14 |
| 2010-01-22T23:42 | 1835 | 818 | 17.5 | 8.8 | 295 | 14 |
| 2010-01-22T23:42 | 1845 | 817 | 17.5 | 8.6 | 295 | 14 |
| 2010-01-22T23:42 | 1856 | 816 | 17.5 | 8.3 | 295 | 14 |
| 2010-01-22T23:42 | 1868 | 814 | 17.5 | 7.9 | 295 | 14 |
| 2010-01-22T23:42 | 1878 | 813 | 17.5 | 7.6 | 295 | 14 |
| 2010-01-22T23:43 | 1888 | 812 | 17.5 | 7.3 | 295 | 14 |
| 2010-01-22T23:43 | 1899 | 811 | 17.6 | 7.0 | 295 | 13 |
| 2010-01-22T23:43 | 1910 | 810 | 17.6 | 6.8 | 295 | 13 |
| 2010-01-22T23:43 | 1920 | 810 | 17.6 | 6.8 | 294 | 13 |
| 2010-01-22T23:43 | 1931 | 808 | 17.5 | 6.9 | 294 | 13 |
| 2010-01-22T23:43 | 1942 | 807 | 17.5 | 7.2 | 294 | 13 |
| 2010-01-22T23:43 | 1952 | 806 | 17.4 | 7.3 | 294 | 13 |
| 2010-01-22T23:43 | 1963 | 805 | 17.4 | 7.0 | 294 | 12 |
| 2010-01-22T23:43 | 1974 | 804 | 17.3 | 6.6 | 295 | 12 |
| 2010-01-22T23:43 | 1986 | 803 | 17.2 | 6.4 | 295 | 12 |
| 2010-01-22T23:43 | 1998 | 802 | 17.1 | 6.3 | 295 | 12 |
| 2010-01-22T23:43 | 2054 | 797 | 16.6 | 6.4 | 298 | 11 |
| 2010-01-22T23:43 | 2108 | 792 | 16.1 | 7.8 | 302 | 11 |
| 2010-01-22T23:43 | 2165 | 787 | 15.5 | 8.1 | 305 | 11 |
| 2010-01-22T23:44 | 2221 | 781 | 15.0 | 8.1 | 308 | 11 |
| 2010-01-22T23:44 | 2271 | 777 | 14.6 | 9.8 | 309 | 11 |
| 2010-01-22T23:44 | 2321 | 772 | 14.1 | 9.6 | 310 | 11 |
| 2010-01-22T23:44 | 2378 | 767 | 13.6 | 10.4 | 312 | 11 |
| 2010-01-22T23:44 | 2428 | 762 | 13.4 | 10.2 | 314 | 12 |
| 2010-01-22T23:44 | 2482 | 758 | 13.2 | 8.8 | 315 | 12 |
| 2010-01-22T23:45 | 2532 | 753 | 13.1 | 9.3 | 315 | 12 |
| 2010-01-22T23:45 | 2580 | 749 | 13.1 | 8.4 | 312 | 13 |
| 2010-01-22T23:45 | 2635 | 744 | 13.2 | 5.6 | 310 | 13 |
| 2010-01-22T23:45 | 2693 | 739 | 12.9 | 4.4 | 307 | 13 |
| 2010-01-22T23:45 | 2757 | 733 | 12.3 | 3.5 | 304 | 14 |
| 2010-01-22T23:45 | 2820 | 728 | 11.8 | 2.7 | 302 | 14 |
| 2010-01-22T23:46 | 2877 | 723 | 11.3 | 2.1 | 301 | 15 |
| 2010-01-22T23:46 | 2934 | 718 | 10.8 | 1.6 | 301 | 15 |
| 2010-01-22T23:46 | 2992 | 713 | 10.3 | 1.0 | 301 | 16 |
| 2010-01-22T23:46 | 3047 | 708 | 9.9 | 0.1 | 301 | 16 |
| 2010-01-22T23:46 | 3103 | 703 | 9.4 | 0.5 | 300 | 16 |
| 2010-01-22T23:46 | 3161 | 699 | 9.0 | 0.1 | 301 | 16 |
| 2010-01-22T23:47 | 3218 | 694 | 8.6 | -0.4 | 302 | 16 |
| 2010-01-22T23:47 | 3274 | 689 | 8.2 | 0.7 | 302 | 16 |
| 2010-01-22T23:47 | 3330 | 685 | 7.8 | 1.3 | 304 | 16 |
| 2010-01-22T23:47 | 3387 | 680 | 7.6 | -0.9 | 305 | 16 |
| 2010-01-22T23:47 | 3445 | 675 | 7.1 | 0.7 | 306 | 16 |
| 2010-01-22T23:47 | 3502 | 670 | 6.6 | 1.1 | 306 | 15 |
| 2010-01-22T23:48 | 3561 | 666 | 6.0 | 3.0 | 305 | 14 |
| 2010-01-22T23:48 | 3621 | 661 | 5.7 | 3.7 | 304 | 13 |
| 2010-01-22T23:48 | 3679 | 656 | 6.0 | 3.3 | 303 | 13 |
| 2010-01-22T23:48 | 3738 | 651 | 5.9 | 2.7 | 304 | 12 |
| 2010-01-22T23:48 | 3796 | 647 | 5.6 | 2.3 | 305 | 12 |
| 2010-01-22T23:48 | 3853 | 642 | 5.1 | 2.3 | 307 | 12 |
| 2010-01-22T23:49 | 3906 | 638 | 4.6 | 2.2 | 308 | 11 |
| 2010-01-22T23:49 | 3962 | 634 | 4.2 | 2.3 | 310 | 11 |
| 2010-01-22T23:49 | 4020 | 629 | 3.9 | 2.1 | 311 | 11 |
| 2010-01-22T23:49 | 4078 | 625 | 3.6 | 1.9 | 309 | 11 |
| 2010-01-22T23:49 | 4130 | 621 | 3.4 | 1.5 | 309 | 11 |
| 2010-01-22T23:49 | 4188 | 616 | 3.2 | 1.0 | 310 | 12 |
| 2010-01-22T23:50 | 4245 | 612 | 2.9 | 0.8 | 310 | 12 |
| 2010-01-22T23:50 | 4301 | 608 | 2.9 | -0.3 | 309 | 12 |
| 2010-01-22T23:50 | 4357 | 604 | 2.6 | -1.4 | 307 | 11 |
| 2010-01-22T23:50 | 4411 | 600 | 2.5 | -2.0 | 305 | 11 |
| 2010-01-22T23:50 | 4469 | 595 | 3.4 | -5.3 | 301 | 10 |
| 2010-01-22T23:50 | 4528 | 591 | 3.3 | -4.0 | 296 | 10 |
| 2010-01-22T23:51 | 4586 | 587 | 3.1 | -3.3 | 293 | 9 |
| 2010-01-22T23:51 | 4647 | 582 | 2.8 | -4.4 | 291 | 9 |
| 2010-01-22T23:51 | 4711 | 578 | 2.8 | -7.3 | 290 | 9 |
| 2010-01-22T23:51 | 4768 | 574 | 2.5 | -9.4 | 291 | 8 |
| 2010-01-22T23:51 | 4829 | 569 | 2.0 | -10.3 | 291 | 7 |
| 2010-01-22T23:51 | 4889 | 565 | 1.7 | -10.0 | 289 | 7 |
| 2010-01-22T23:52 | 4950 | 561 | 1.3 | -10.1 | 282 | 6 |
| 2010-01-22T23:52 | 5010 | 557 | 0.7 | -10.9 | 273 | 6 |
| 2010-01-22T23:52 | 5072 | 553 | 0.3 | -11.3 | 264 | 6 |
| 2010-01-22T23:52 | 5134 | 548 | 0.0 | -11.3 | 255 | 6 |
| 2010-01-22T23:52 | 5194 | 544 | -0.5 | -10.9 | 248 | 6 |
| 2010-01-22T23:52 | 5253 | 540 | -1.0 | -10.8 | 246 | 6 |
| 2010-01-22T23:53 | 5312 | 536 | -1.5 | -10.8 | 245 | 6 |
| 2010-01-22T23:53 | 5373 | 532 | -2.0 | -11.0 | 244 | 5 |
| 2010-01-22T23:53 | 5435 | 528 | -2.6 | -13.6 | 246 | 5 |
| 2010-01-22T23:53 | 5501 | 524 | -3.1 | -14.5 | 252 | 4 |
| 2010-01-22T23:53 | 5567 | 519 | -3.8 | -15.0 | 259 | 4 |
| 2010-01-22T23:53 | 5632 | 515 | -4.3 | -16.0 | 263 | 4 |
| 2010-01-22T23:54 | 5700 | 511 | -5.0 | -16.5 | 268 | 3 |
| 2010-01-22T23:54 | 5770 | 506 | -5.4 | -19.6 | 287 | 2 |
| 2010-01-22T23:54 | 5833 | 502 | -5.7 | -20.9 | 315 | 2 |
| 2010-01-22T23:54 | 5888 | 498 | -6.0 | -21.7 | 341 | 2 |
| 2010-01-22T23:54 | 5953 | 494 | -6.6 | -22.5 | 12 | 2 |
| 2010-01-22T23:54 | 6010 | 491 | -7.1 | -22.3 | 29 | 3 |
| 2010-01-22T23:55 | 6068 | 487 | -7.6 | -21.7 | 30 | 3 |
| 2010-01-22T23:55 | 6136 | 483 | -8.2 | -20.8 | 30 | 4 |
| 2010-01-22T23:55 | 6201 | 479 | -8.8 | -20.2 | 30 | 5 |
| 2010-01-22T23:55 | 6256 | 475 | -8.8 | -28.5 | 31 | 6 |
| 2010-01-22T23:55 | 6310 | 472 | -8.8 | -34.1 | 31 | 6 |
| 2010-01-22T23:55 | 6371 | 468 | -9.1 | -29.5 | 36 | 5 |
| 2010-01-22T23:56 | 6428 | 465 | -9.2 | -34.8 | 46 | 6 |
| 2010-01-22T23:56 | 6480 | 462 | -9.3 | -21.5 | 52 | 6 |
| 2010-01-22T23:56 | 6525 | 459 | -9.8 | -19.6 | 52 | 7 |
| 2010-01-22T23:56 | 6567 | 457 | -10.0 | -17.8 | 50 | 8 |
| 2010-01-22T23:56 | 6607 | 454 | -10.2 | -18.5 | 52 | 7 |
| 2010-01-22T23:56 | 6647 | 452 | -10.1 | -20.6 | 56 | 7 |
| 2010-01-22T23:57 | 6693 | 449 | -10.3 | -21.4 | 60 | 8 |
| 2010-01-22T23:57 | 6741 | 446 | -10.4 | -21.1 | 63 | 8 |
| 2010-01-22T23:57 | 6784 | 444 | -10.3 | -22.2 | 65 | 8 |
| 2010-01-22T23:57 | 6825 | 442 | -10.6 | -22.8 | 66 | 9 |
| 2010-01-22T23:57 | 6865 | 439 | -10.9 | -22.2 | 68 | 9 |
| 2010-01-22T23:57 | 6904 | 437 | -11.3 | -19.9 | 72 | 9 |
| 2010-01-22T23:58 | 6943 | 435 | -11.6 | -18.8 | 76 | 9 |
| 2010-01-22T23:58 | 6986 | 432 | -11.8 | -18.7 | 79 | 9 |
| 2010-01-22T23:58 | 7025 | 430 | -11.9 | -17.9 | 84 | 9 |
| 2010-01-22T23:58 | 7064 | 428 | -11.9 | -18.4 | 89 | 9 |
| 2010-01-22T23:58 | 7103 | 426 | -12.1 | -18.7 | 91 | 9 |
| 2010-01-22T23:58 | 7143 | 424 | -12.3 | -18.9 | 93 | 8 |
| 2010-01-22T23:59 | 7180 | 422 | -12.5 | -18.9 | 95 | 8 |
| 2010-01-22T23:59 | 7222 | 419 | -12.8 | -19.7 | 96 | 8 |
| 2010-01-22T23:59 | 7266 | 417 | -12.9 | -22.4 | 97 | 8 |
| 2010-01-22T23:59 | 7311 | 414 | -13.3 | -21.4 | 99 | 9 |
| 2010-01-22T23:59 | 7354 | 412 | -13.7 | -21.2 | 98 | 9 |
| 2010-01-22T23:59 | 7394 | 410 | -14.1 | -20.8 | 97 | 10 |
| 2010-01-23T00:00 | 7435 | 408 | -14.5 | -21.2 | 96 | 10 |
| 2010-01-23T00:00 | 7475 | 406 | -14.7 | -21.3 | 98 | 10 |
| 2010-01-23T00:00 | 7513 | 404 | -15.1 | -21.6 | 99 | 10 |
| 2010-01-23T00:00 | 7553 | 401 | -15.4 | -21.5 | 98 | 10 |
| 2010-01-23T00:00 | 7594 | 399 | -15.8 | -21.7 | 96 | 11 |
| 2010-01-23T00:00 | 7636 | 397 | -16.2 | -21.9 | 94 | 12 |
| 2010-01-23T00:01 | 7676 | 395 | -16.3 | -22.8 | 92 | 13 |
| 2010-01-23T00:01 | 7715 | 393 | -16.4 | -23.4 | 90 | 14 |
| 2010-01-23T00:01 | 7755 | 391 | -16.6 | -23.3 | 89 | 14 |
| 2010-01-23T00:01 | 7792 | 389 | -16.7 | -23.2 | 87 | 15 |
| 2010-01-23T00:01 | 7829 | 387 | -17.0 | -23.2 | 86 | 16 |
| 2010-01-23T00:01 | 7865 | 385 | -17.3 | -22.9 | 86 | 16 |
| 2010-01-23T00:02 | 7902 | 383 | -17.6 | -21.5 | 87 | 17 |
| 2010-01-23T00:02 | 7940 | 381 | -17.7 | -21.0 | 86 | 17 |
| 2010-01-23T00:02 | 7978 | 379 | -17.7 | -21.6 | 86 | 17 |
| 2010-01-23T00:02 | 8017 | 377 | -18.1 | -21.8 | 86 | 18 |
| 2010-01-23T00:02 | 8057 | 375 | -18.5 | -21.9 | 87 | 18 |
| 2010-01-23T00:02 | 8098 | 373 | -18.8 | -22.0 | 87 | 18 |
| 2010-01-23T00:03 | 8137 | 371 | -19.2 | -22.5 | 87 | 18 |
| 2010-01-23T00:03 | 8177 | 369 | -19.5 | -22.5 | 88 | 17 |
| 2010-01-23T00:03 | 8216 | 367 | -19.7 | -22.6 | 90 | 17 |
| 2010-01-23T00:03 | 8255 | 366 | -19.7 | -23.3 | 91 | 16 |
| 2010-01-23T00:03 | 8294 | 364 | -19.6 | -24.0 | 92 | 16 |
| 2010-01-23T00:03 | 8336 | 362 | -19.9 | -24.3 | 92 | 15 |
| 2010-01-23T00:04 | 8373 | 360 | -19.9 | -25.5 | 94 | 14 |
| 2010-01-23T00:04 | 8413 | 358 | -20.0 | -26.8 | 98 | 13 |
| 2010-01-23T00:04 | 8453 | 356 | -20.2 | -27.1 | 105 | 12 |
| 2010-01-23T00:04 | 8510 | 353 | -20.3 | -27.9 | 111 | 12 |
| 2010-01-23T00:04 | 8556 | 351 | -20.6 | -28.4 | 113 | 12 |
| 2010-01-23T00:04 | 8604 | 349 | -21.1 | -28.5 | 115 | 12 |
| 2010-01-23T00:05 | 8642 | 347 | -21.1 | -28.8 | 118 | 12 |
| 2010-01-23T00:05 | 8677 | 345 | -21.6 | -29.2 | 120 | 11 |
| 2010-01-23T00:05 | 8716 | 343 | -21.8 | -29.4 | 123 | 11 |
| 2010-01-23T00:05 | 8753 | 342 | -22.1 | -29.5 | 125 | 10 |
| 2010-01-23T00:05 | 8791 | 340 | -22.5 | -29.7 | 128 | 9 |
| 2010-01-23T00:05 | 8836 | 338 | -23.0 | -29.9 | 130 | 9 |
| 2010-01-23T00:06 | 8878 | 336 | -23.4 | -30.0 | 129 | 9 |
| 2010-01-23T00:06 | 8914 | 334 | -23.6 | -30.4 | 129 | 9 |
| 2010-01-23T00:06 | 8954 | 332 | -24.1 | -30.8 | 132 | 9 |
| 2010-01-23T00:06 | 9001 | 330 | -24.4 | -31.3 | 136 | 8 |
| 2010-01-23T00:06 | 9061 | 328 | -25.1 | -31.8 | 142 | 8 |
| 2010-01-23T00:06 | 9109 | 325 | -25.3 | -32.7 | 148 | 7 |
| 2010-01-23T00:07 | 9151 | 324 | -25.5 | -33.8 | 156 | 6 |
| 2010-01-23T00:07 | 9196 | 322 | -25.9 | -34.4 | 163 | 6 |
| 2010-01-23T00:07 | 9236 | 320 | -26.2 | -34.6 | 167 | 6 |
| 2010-01-23T00:07 | 9277 | 318 | -26.5 | -35.4 | 171 | 7 |
| 2010-01-23T00:07 | 9317 | 316 | -26.8 | -36.6 | 175 | 7 |
| 2010-01-23T00:07 | 9358 | 314 | -27.1 | -37.4 | 179 | 7 |
| 2010-01-23T00:08 | 9399 | 313 | -27.5 | -38.0 | 184 | 8 |
| 2010-01-23T00:08 | 9441 | 311 | -27.8 | -39.2 | 187 | 9 |
| 2010-01-23T00:08 | 9482 | 309 | -28.0 | -40.9 | 189 | 9 |
| 2010-01-23T00:08 | 9523 | 307 | -28.3 | -42.2 | 190 | 9 |
| 2010-01-23T00:08 | 9565 | 306 | -28.6 | -42.7 | 191 | 9 |
| 2010-01-23T00:08 | 9607 | 304 | -28.9 | -43.2 | 190 | 9 |
| 2010-01-23T00:09 | 9646 | 302 | -29.3 | -43.1 | 189 | 9 |
| 2010-01-23T00:09 | 9688 | 300 | -29.6 | -43.3 | 189 | 8 |
| 2010-01-23T00:09 | 9729 | 299 | -29.9 | -44.1 | 188 | 8 |
| 2010-01-23T00:09 | 9770 | 297 | -30.2 | -45.2 | 186 | 8 |
| 2010-01-23T00:09 | 9813 | 295 | -30.5 | -45.2 | 181 | 7 |
| 2010-01-23T00:09 | 9855 | 293 | -30.6 | -45.8 | 175 | 7 |
| 2010-01-23T00:10 | 9899 | 292 | -30.9 | -47.1 | 167 | 8 |
| 2010-01-23T00:10 | 9941 | 290 | -31.0 | -48.9 | 162 | 8 |
| 2010-01-23T00:10 | 9981 | 288 | -31.4 | -49.1 | 159 | 8 |
| 2010-01-23T00:10 | 10025 | 286 | -31.6 | -49.3 | 157 | 9 |
| 2010-01-23T00:10 | 10069 | 285 | -31.9 | -49.6 | 154 | 9 |
| 2010-01-23T00:10 | 10112 | 283 | -32.0 | -51.0 | 150 | 9 |
| 2010-01-23T00:11 | 10154 | 281 | -32.2 | -51.6 | 147 | 10 |
| 2010-01-23T00:11 | 10196 | 280 | -32.5 | -52.0 | 145 | 10 |
| 2010-01-23T00:11 | 10241 | 278 | -32.8 | -52.0 | 144 | 10 |
| 2010-01-23T00:11 | 10291 | 276 | -33.3 | -52.1 | 141 | 10 |
| 2010-01-23T00:11 | 10337 | 274 | -33.7 | -52.2 | 134 | 10 |
| 2010-01-23T00:11 | 10383 | 272 | -34.1 | -52.3 | 127 | 10 |
| 2010-01-23T00:12 | 10424 | 271 | -34.4 | -52.2 | 124 | 11 |
| 2010-01-23T00:12 | 10466 | 269 | -34.8 | -52.3 | 123 | 11 |
| 2010-01-23T00:12 | 10509 | 267 | -35.2 | -52.1 | 121 | 11 |
| 2010-01-23T00:12 | 10551 | 266 | -35.6 | -52.0 | 120 | 11 |
| 2010-01-23T00:12 | 10589 | 264 | -35.9 | -52.1 | 119 | 11 |
| 2010-01-23T00:12 | 10629 | 263 | -36.3 | -52.1 | 118 | 11 |
| 2010-01-23T00:13 | 10671 | 261 | -36.8 | -52.2 | 117 | 11 |
| 2010-01-23T00:13 | 10712 | 260 | -37.3 | -52.2 | 117 | 12 |
| 2010-01-23T00:13 | 10751 | 258 | -37.6 | -51.8 | 118 | 12 |
| 2010-01-23T00:13 | 10797 | 256 | -38.1 | -51.9 | 119 | 12 |
| 2010-01-23T00:13 | 10837 | 255 | -38.4 | -52.0 | 118 | 12 |
| 2010-01-23T00:13 | 10876 | 253 | -38.8 | -51.9 | 117 | 12 |
| 2010-01-23T00:14 | 10915 | 252 | -39.1 | -52.0 | 117 | 13 |
| 2010-01-23T00:14 | 10954 | 251 | -39.5 | -52.2 | 117 | 13 |
| 2010-01-23T00:14 | 10993 | 249 | -39.9 | -52.3 | 116 | 14 |
| 2010-01-23T00:14 | 11030 | 248 | -40.2 | -52.5 | 117 | 14 |
| 2010-01-23T00:14 | 11068 | 246 | -40.5 | -52.9 | 117 | 14 |
| 2010-01-23T00:14 | 11104 | 245 | -40.8 | -53.2 | 118 | 15 |
| 2010-01-23T00:15 | 11143 | 244 | -41.0 | -53.4 | 120 | 15 |
| 2010-01-23T00:15 | 11184 | 242 | -41.3 | -54.2 | 121 | 16 |
| 2010-01-23T00:15 | 11225 | 241 | -41.6 | -56.7 | 121 | 16 |
| 2010-01-23T00:15 | 11267 | 239 | -41.9 | -57.9 | 120 | 17 |
| 2010-01-23T00:15 | 11306 | 238 | -42.0 | -59.0 | 118 | 17 |
| 2010-01-23T00:15 | 11346 | 237 | -42.4 | -59.9 | 117 | 18 |
| 2010-01-23T00:16 | 11389 | 235 | -42.8 | -60.4 | 117 | 18 |
| 2010-01-23T00:16 | 11435 | 233 | -43.3 | -60.9 | 116 | 18 |
| 2010-01-23T00:16 | 11489 | 232 | -43.8 | -61.0 | 114 | 18 |
| 2010-01-23T00:16 | 11538 | 230 | -44.3 | -61.0 | 111 | 18 |
| 2010-01-23T00:16 | 11589 | 228 | -44.7 | -61.2 | 109 | 17 |
| 2010-01-23T00:16 | 11642 | 226 | -45.3 | -61.4 | 108 | 18 |
| 2010-01-23T00:17 | 11697 | 224 | -45.7 | -61.5 | 109 | 18 |
| 2010-01-23T00:17 | 11751 | 223 | -46.2 | -61.6 | 109 | 18 |
| 2010-01-23T00:17 | 11797 | 221 | -46.7 | -61.8 | 109 | 19 |
| 2010-01-23T00:17 | 11842 | 220 | -47.2 | -61.9 | 109 | 19 |
| 2010-01-23T00:17 | 11883 | 218 | -47.5 | -61.9 | 108 | 19 |
| 2010-01-23T00:17 | 11928 | 217 | -48.0 | -62.2 | 107 | 19 |
| 2010-01-23T00:18 | 11974 | 215 | -48.5 | -62.3 | 106 | 19 |
| 2010-01-23T00:18 | 12020 | 214 | -49.0 | -62.5 | 107 | 19 |
| 2010-01-23T00:18 | 12063 | 212 | -49.3 | -62.4 | 107 | 20 |
| 2010-01-23T00:18 | 12108 | 211 | -49.9 | -62.6 | 108 | 20 |
| 2010-01-23T00:18 | 12149 | 210 | -50.3 | -62.7 | 107 | 20 |
| 2010-01-23T00:18 | 12194 | 208 | -50.6 | -62.6 | 107 | 20 |
| 2010-01-23T00:19 | 12240 | 207 | -51.1 | -62.7 | 106 | 20 |
| 2010-01-23T00:19 | 12290 | 205 | -51.5 | -62.8 | 105 | 20 |
| 2010-01-23T00:19 | 12337 | 204 | -52.0 | -63.1 | 105 | 20 |
| 2010-01-23T00:19 | 12382 | 202 | -52.4 | -63.3 | 103 | 21 |
| 2010-01-23T00:19 | 12432 | 201 | -52.8 | -63.6 | 102 | 21 |
| 2010-01-23T00:19 | 12478 | 199 | -53.2 | -64.1 | 100 | 22 |
| 2010-01-23T00:20 | 12526 | 198 | -53.5 | -64.3 | 99 | 23 |
| 2010-01-23T00:20 | 12573 | 196 | -53.8 | -64.7 | 97 | 23 |
| 2010-01-23T00:20 | 12620 | 195 | -54.4 | -65.7 | 95 | 24 |
| 2010-01-23T00:20 | 12664 | 194 | -54.5 | -66.4 | 95 | 24 |
| 2010-01-23T00:20 | 12709 | 192 | -54.7 | -67.2 | 95 | 24 |
| 2010-01-23T00:20 | 12752 | 191 | -55.0 | -67.9 | 95 | 24 |
| 2010-01-23T00:21 | 12795 | 190 | -55.4 | -68.5 | 96 | 24 |
| 2010-01-23T00:21 | 12835 | 188 | -55.7 | -69.4 | 96 | 25 |
| 2010-01-23T00:21 | 12877 | 187 | -56.0 | -70.7 | 96 | 25 |
| 2010-01-23T00:21 | 12921 | 186 | -56.2 | -71.8 | 95 | 24 |
| 2010-01-23T00:21 | 12964 | 185 | -56.6 | -72.4 | 93 | 24 |
| 2010-01-23T00:21 | 13010 | 183 | -57.0 | -72.9 | 92 | 24 |
| 2010-01-23T00:22 | 13053 | 182 | -57.5 | -73.2 | 90 | 24 |
| 2010-01-23T00:22 | 13097 | 181 | -57.8 | -73.2 | 89 | 24 |
| 2010-01-23T00:22 | 13139 | 180 | -58.1 | -73.1 | 88 | 24 |
| 2010-01-23T00:22 | 13182 | 178 | -58.4 | -73.4 | 88 | 24 |
| 2010-01-23T00:22 | 13228 | 177 | -58.7 | -73.5 | 89 | 24 |
| 2010-01-23T00:22 | 13270 | 176 | -59.1 | -73.4 | 91 | 24 |
| 2010-01-23T00:23 | 13312 | 175 | -59.6 | -73.6 | 92 | 25 |
| 2010-01-23T00:23 | 13354 | 174 | -59.7 | -73.6 | 93 | 26 |
| 2010-01-23T00:23 | 13395 | 172 | -59.8 | -73.7 | 94 | 26 |
| 2010-01-23T00:23 | 13439 | 171 | -60.3 | -74.1 | 94 | 26 |
| 2010-01-23T00:23 | 13483 | 170 | -60.5 | -74.3 | 93 | 27 |
| 2010-01-23T00:23 | 13528 | 169 | -61.0 | -74.2 | 93 | 28 |
| 2010-01-23T00:24 | 13573 | 168 | -61.2 | -73.8 | 92 | 28 |
| 2010-01-23T00:24 | 13615 | 166 | -61.6 | -73.9 | 91 | 28 |
| 2010-01-23T00:24 | 13660 | 165 | -62.0 | -74.3 | 91 | 28 |
| 2010-01-23T00:24 | 13704 | 164 | -62.2 | -74.7 | 91 | 28 |
| 2010-01-23T00:24 | 13751 | 163 | -62.6 | -75.1 | 92 | 29 |
| 2010-01-23T00:24 | 13799 | 162 | -63.1 | -75.6 | 93 | 29 |
| 2010-01-23T00:25 | 13844 | 160 | -63.5 | -75.9 | 94 | 29 |
| 2010-01-23T00:25 | 13892 | 159 | -64.0 | -76.3 | 95 | 29 |
| 2010-01-23T00:25 | 13938 | 158 | -64.3 | -76.6 | 95 | 29 |
| 2010-01-23T00:25 | 13986 | 157 | -64.9 | -77.3 | 96 | 29 |
| 2010-01-23T00:25 | 14037 | 155 | -65.4 | -77.9 | 97 | 28 |
| 2010-01-23T00:25 | 14084 | 154 | -65.8 | -78.4 | 98 | 28 |
| 2010-01-23T00:26 | 14130 | 153 | -66.2 | -78.8 | 98 | 28 |
| 2010-01-23T00:26 | 14177 | 152 | -66.6 | -79.3 | 99 | 28 |
| 2010-01-23T00:26 | 14226 | 151 | -66.9 | -79.6 | 99 | 28 |
| 2010-01-23T00:26 | 14276 | 149 | -67.5 | -80.3 | 100 | 28 |
| 2010-01-23T00:26 | 14325 | 148 | -68.1 | -80.9 | 100 | 29 |
| 2010-01-23T00:26 | 14378 | 147 | -68.6 | -81.3 | 101 | 29 |
| 2010-01-23T00:27 | 14429 | 146 | -68.9 | -81.5 | 101 | 29 |
| 2010-01-23T00:27 | 14477 | 144 | -69.3 | -81.7 | 101 | 29 |
| 2010-01-23T00:27 | 14525 | 143 | -69.8 | -81.9 | 101 | 30 |
| 2010-01-23T00:27 | 14575 | 142 | -70.3 | -82.3 | 101 | 30 |
| 2010-01-23T00:27 | 14623 | 141 | -70.8 | -82.5 | 102 | 30 |
| 2010-01-23T00:27 | 14673 | 140 | -71.4 | -82.8 | 102 | 31 |
| 2010-01-23T00:28 | 14719 | 139 | -71.8 | -82.9 | 103 | 31 |
| 2010-01-23T00:28 | 14766 | 138 | -72.3 | -83.2 | 103 | 31 |
| 2010-01-23T00:28 | 14814 | 136 | -72.5 | -83.2 | 103 | 32 |
| 2010-01-23T00:28 | 14861 | 135 | -72.7 | -83.2 | 103 | 32 |
| 2010-01-23T00:28 | 14909 | 134 | -72.8 | -83.2 | 103 | 32 |
| 2010-01-23T00:28 | 14957 | 133 | -73.3 | -83.6 | 103 | 32 |
| 2010-01-23T00:29 | 15003 | 132 | -73.7 | -84.0 | 104 | 32 |
| 2010-01-23T00:29 | 15053 | 131 | -74.1 | -84.5 | 104 | 32 |
| 2010-01-23T00:29 | 15104 | 130 | -74.1 | -84.6 | 105 | 33 |
| 2010-01-23T00:29 | 15149 | 129 | -74.1 | -84.8 | 105 | 33 |
| 2010-01-23T00:29 | 15195 | 128 | -74.2 | -85.0 | 105 | 34 |
| 2010-01-23T00:29 | 15241 | 127 | -74.3 | -85.2 | 105 | 34 |
| 2010-01-23T00:30 | 15287 | 126 | -74.7 | -85.5 | 105 | 34 |
| 2010-01-23T00:30 | 15334 | 125 | -74.7 | -85.7 | 106 | 34 |
| 2010-01-23T00:30 | 15386 | 124 | -75.2 | -86.2 | 107 | 34 |
| 2010-01-23T00:30 | 15435 | 123 | -75.6 | -86.6 | 109 | 35 |
| 2010-01-23T00:30 | 15482 | 122 | -75.9 | -86.8 | 109 | 35 |
| 2010-01-23T00:30 | 15528 | 121 | -76.3 | -87.3 | 110 | 34 |
| 2010-01-23T00:31 | 15575 | 120 | -76.8 | -87.7 | 110 | 34 |
| 2010-01-23T00:31 | 15622 | 119 | -77.2 | -88.1 | 109 | 33 |
| 2010-01-23T00:31 | 15675 | 118 | -77.4 | -88.3 | 108 | 33 |
| 2010-01-23T00:31 | 15724 | 117 | -77.9 | -88.6 | 108 | 33 |
| 2010-01-23T00:31 | 15774 | 116 | -78.5 | -89.1 | 107 | 34 |
| 2010-01-23T00:31 | 15821 | 115 | -79.1 | -89.6 | 106 | 33 |
| 2010-01-23T00:32 | 15869 | 114 | -79.3 | -89.8 | 106 | 33 |
| 2010-01-23T00:32 | 15916 | 113 | -79.7 | -90.2 | 107 | 33 |
| 2010-01-23T00:32 | 15963 | 112 | -80.0 | -90.4 | 107 | 33 |
| 2010-01-23T00:32 | 16012 | 111 | -79.9 | -90.5 | 108 | 33 |
| 2010-01-23T00:32 | 16061 | 110 | -80.1 | -90.6 | 108 | 33 |
| 2010-01-23T00:32 | 16110 | 109 | -79.7 | -90.3 | 107 | 32 |
| 2010-01-23T00:33 | 16161 | 108 | -79.8 | -90.5 | 105 | 32 |
| 2010-01-23T00:33 | 16211 | 107 | -79.9 | -90.6 | 102 | 31 |
| 2010-01-23T00:33 | 16262 | 106 | -80.2 | -90.9 | 98 | 31 |
| 2010-01-23T00:33 | 16315 | 105 | -80.2 | -91.0 | 95 | 32 |
| 2010-01-23T00:33 | 16367 | 104 | -80.0 | -90.9 | 92 | 32 |
| 2010-01-23T00:33 | 16418 | 103 | -80.2 | -91.1 | 90 | 31 |
| 2010-01-23T00:34 | 16471 | 102 | -80.3 | -91.3 | 88 | 30 |
| 2010-01-23T00:34 | 16521 | 101 | -80.3 | -91.4 | 86 | 29 |
| 2010-01-23T00:34 | 16576 | 100 | -79.5 | -90.8 | 86 | 26 |
| 2010-01-23T00:34 | 16628 | 99 | -79.6 | -91.1 | 87 | 24 |
| 2010-01-23T00:34 | 16685 | 98 | -79.0 | -90.6 | 88 | 21 |
| 2010-01-23T00:34 | 16747 | 97 | -78.3 | -90.1 | 87 | 18 |
| 2010-01-23T00:35 | 16802 | 96 | -78.4 | -90.2 | 87 | 15 |
| 2010-01-23T00:35 | 16854 | 96 | -78.5 | -90.3 | 86 | 13 |
| 2010-01-23T00:35 | 16905 | 95 | -78.5 | -90.5 | 83 | 10 |
| 2010-01-23T00:35 | 16954 | 94 | -77.8 | -90.0 | 77 | 8 |
| 2010-01-23T00:35 | 17001 | 93 | -77.4 | -89.7 | 71 | 6 |
| 2010-01-23T00:35 | 17051 | 92 | -77.8 | -90.1 | 60 | 5 |
| 2010-01-23T00:36 | 17107 | 91 | -77.6 | -90.2 | 32 | 3 |
| 2010-01-23T00:36 | 17165 | 90 | -77.6 | -90.3 | 335 | 2 |
| 2010-01-23T00:36 | 17230 | 89 | -77.8 | -90.5 | 305 | 4 |
| 2010-01-23T00:36 | 17299 | 88 | -78.2 | -90.9 | 292 | 6 |
| 2010-01-23T00:36 | 17363 | 87 | -78.5 | -91.3 | 284 | 8 |
| 2010-01-23T00:36 | 17417 | 87 | -78.7 | -91.5 | 280 | 10 |
| 2010-01-23T00:37 | 17470 | 86 | -78.6 | -91.5 | 278 | 13 |
| 2010-01-23T00:37 | 17526 | 85 | -78.3 | -91.3 | 276 | 15 |
| 2010-01-23T00:37 | 17581 | 84 | -78.3 | -91.3 | 274 | 18 |
| 2010-01-23T00:37 | 17634 | 83 | -77.6 | -90.8 | 273 | 20 |
| 2010-01-23T00:37 | 17688 | 83 | -77.2 | -90.5 | 272 | 21 |
| 2010-01-23T00:37 | 17741 | 82 | -77.2 | -90.5 | 271 | 22 |
| 2010-01-23T00:38 | 17792 | 81 | -77.7 | -91.0 | 268 | 23 |
| 2010-01-23T00:38 | 17841 | 80 | -77.8 | -91.1 | 265 | 24 |
| 2010-01-23T00:38 | 17889 | 80 | -77.8 | -91.2 | 262 | 24 |
| 2010-01-23T00:38 | 17938 | 79 | -78.0 | -91.5 | 259 | 25 |
| 2010-01-23T00:38 | 17985 | 78 | -78.2 | -91.7 | 257 | 25 |
| 2010-01-23T00:38 | 18030 | 78 | -78.3 | -91.9 | 255 | 25 |
| 2010-01-23T00:39 | 18076 | 77 | -78.4 | -92.0 | 254 | 25 |
| 2010-01-23T00:39 | 18122 | 77 | -78.6 | -92.3 | 254 | 24 |
| 2010-01-23T00:39 | 18167 | 76 | -78.8 | -92.4 | 254 | 24 |
| 2010-01-23T00:39 | 18211 | 75 | -78.8 | -92.6 | 256 | 23 |
| 2010-01-23T00:39 | 18257 | 75 | -78.6 | -92.4 | 258 | 23 |
| 2010-01-23T00:39 | 18303 | 74 | -78.6 | -92.5 | 259 | 22 |
| 2010-01-23T00:40 | 18347 | 74 | -78.4 | -92.3 | 260 | 22 |
| 2010-01-23T00:40 | 18394 | 73 | -78.9 | -92.7 | 260 | 22 |
| 2010-01-23T00:40 | 18440 | 72 | -79.6 | -93.3 | 261 | 21 |
| 2010-01-23T00:40 | 18489 | 72 | -79.5 | -93.3 | 262 | 20 |
| 2010-01-23T00:40 | 18538 | 71 | -79.2 | -93.1 | 264 | 20 |
| 2010-01-23T00:40 | 18588 | 71 | -78.6 | -92.6 | 266 | 18 |
| 2010-01-23T00:41 | 18637 | 70 | -78.2 | -92.3 | 266 | 17 |
| 2010-01-23T00:41 | 18688 | 69 | -77.9 | -92.0 | 266 | 16 |
| 2010-01-23T00:41 | 18738 | 69 | -77.4 | -91.6 | 265 | 15 |
| 2010-01-23T00:41 | 18788 | 68 | -77.6 | -91.8 | 264 | 15 |
| 2010-01-23T00:41 | 18840 | 67 | -78.0 | -92.2 | 264 | 16 |
| 2010-01-23T00:41 | 18889 | 67 | -78.6 | -92.7 | 266 | 15 |
| 2010-01-23T00:42 | 18940 | 66 | -78.7 | -93.0 | 269 | 15 |
| 2010-01-23T00:42 | 18992 | 66 | -77.9 | -92.3 | 273 | 14 |
| 2010-01-23T00:42 | 19040 | 65 | -78.2 | -92.4 | 277 | 13 |
| 2010-01-23T00:42 | 19090 | 65 | -77.7 | -92.1 | 279 | 14 |
| 2010-01-23T00:42 | 19138 | 64 | -77.5 | -92.0 | 281 | 14 |
| 2010-01-23T00:42 | 19187 | 63 | -77.5 | -92.0 | 284 | 14 |
| 2010-01-23T00:43 | 19234 | 63 | -76.8 | -91.5 | 287 | 13 |
| 2010-01-23T00:43 | 19281 | 62 | -76.6 | -91.4 | 291 | 13 |
| 2010-01-23T00:43 | 19330 | 62 | -76.3 | -91.2 | 295 | 13 |
| 2010-01-23T00:43 | 19374 | 61 | -76.0 | -91.1 | 299 | 13 |
| 2010-01-23T00:43 | 19422 | 61 | -75.8 | -91.0 | 302 | 12 |
| 2010-01-23T00:43 | 19469 | 60 | -74.3 | -89.9 | 304 | 10 |
| 2010-01-23T00:44 | 19518 | 60 | -71.8 | -87.9 | 306 | 8 |
| 2010-01-23T00:44 | 19564 | 59 | -71.9 | -88.0 | 309 | 7 |
| 2010-01-23T00:44 | 19609 | 59 | -71.3 | -87.7 | 312 | 6 |
| 2010-01-23T00:44 | 19660 | 59 | -71.6 | -88.1 | 306 | 5 |
| 2010-01-23T00:44 | 19707 | 58 | -71.7 | -88.4 | 291 | 4 |
| 2010-01-23T00:44 | 19756 | 58 | -71.8 | -88.8 | 270 | 4 |
| 2010-01-23T00:45 | 19806 | 57 | -71.6 | -89.0 | 248 | 5 |
| 2010-01-23T00:45 | 19857 | 57 | -71.9 | -89.4 | 234 | 6 |
| 2010-01-23T00:45 | 19909 | 56 | -72.3 | -89.9 | 227 | 7 |
| 2010-01-23T00:45 | 19959 | 56 | -72.2 | -90.1 | 221 | 8 |
| 2010-01-23T00:45 | 20015 | 55 | -72.7 | -90.7 | 217 | 9 |
| 2010-01-23T00:45 | 20067 | 55 | -73.2 | -91.3 | 213 | 9 |
| 2010-01-23T00:46 | 20115 | 54 | -73.7 | -91.7 | 210 | 9 |
| 2010-01-23T00:46 | 20166 | 54 | -74.1 | -92.3 | 208 | 9 |
| 2010-01-23T00:46 | 20215 | 53 | -74.3 | -92.5 | 206 | 8 |
| 2010-01-23T00:46 | 20266 | 53 | -74.8 | -93.0 | 203 | 7 |
| 2010-01-23T00:46 | 20316 | 52 | -74.8 | -93.1 | 193 | 5 |
| 2010-01-23T00:46 | 20365 | 52 | -74.5 | -93.0 | 169 | 4 |
| 2010-01-23T00:47 | 20414 | 51 | -73.9 | -92.5 | 132 | 4 |
| 2010-01-23T00:47 | 20464 | 51 | -73.0 | -91.9 | 107 | 5 |
| 2010-01-23T00:47 | 20514 | 51 | -72.8 | -91.7 | 95 | 6 |
| 2010-01-23T00:47 | 20563 | 50 | -72.7 | -91.7 | 89 | 6 |
| 2010-01-23T00:47 | 20613 | 50 | -71.2 | -90.7 | 83 | 6 |
| 2010-01-23T00:47 | 20661 | 49 | -69.3 | -89.3 | 73 | 5 |
| 2010-01-23T00:48 | 20711 | 49 | -69.3 | -89.4 | 56 | 4 |
| 2010-01-23T00:48 | 20761 | 49 | -69.5 | -89.8 | 35 | 4 |
| 2010-01-23T00:48 | 20810 | 48 | -70.0 | -90.4 | 14 | 4 |
| 2010-01-23T00:48 | 20860 | 48 | -69.8 | -90.6 | 2 | 5 |
| 2010-01-23T00:48 | 20911 | 47 | -69.9 | -90.9 | 357 | 6 |
| 2010-01-23T00:48 | 20963 | 47 | -70.1 | -91.4 | 357 | 6 |
| 2010-01-23T00:49 | 21013 | 47 | -69.9 | -91.5 | 2 | 7 |
| 2010-01-23T00:49 | 21065 | 46 | -69.9 | -91.7 | 10 | 7 |
| 2010-01-23T00:49 | 21117 | 46 | -70.0 | -91.9 | 17 | 7 |
| 2010-01-23T00:49 | 21171 | 45 | -70.4 | -92.3 | 25 | 6 |
| 2010-01-23T00:49 | 21225 | 45 | -70.7 | -92.8 | 33 | 6 |
| 2010-01-23T00:49 | 21278 | 44 | -70.8 | -93.2 | 43 | 5 |
| 2010-01-23T00:50 | 21329 | 44 | -70.8 | -93.3 | 60 | 4 |
| 2010-01-23T00:50 | 21383 | 44 | -69.8 | -92.8 | 84 | 4 |
| 2010-01-23T00:50 | 21436 | 43 | -70.2 | -93.0 | 102 | 5 |
| 2010-01-23T00:50 | 21488 | 43 | -70.0 | -92.9 | 112 | 6 |
| 2010-01-23T00:50 | 21540 | 43 | -70.0 | -92.9 | 120 | 6 |
| 2010-01-23T00:50 | 21591 | 42 | -70.1 | -93.2 | 126 | 6 |
| 2010-01-23T00:51 | 21643 | 42 | -69.8 | -93.1 | 122 | 6 |
| 2010-01-23T00:51 | 21696 | 41 | -69.8 | -93.2 | 107 | 8 |
| 2010-01-23T00:51 | 21746 | 41 | -68.5 | -92.5 | 92 | 10 |
| 2010-01-23T00:51 | 21797 | 41 | -67.1 | -92.0 | 82 | 11 |
| 2010-01-23T00:51 | 21848 | 40 | -65.7 | -91.0 | 78 | 13 |
| 2010-01-23T00:51 | 21899 | 40 | -65.3 | -90.7 | 77 | 14 |
| 2010-01-23T00:52 | 21953 | 40 | -65.4 | -90.9 | 77 | 15 |
| 2010-01-23T00:52 | 22004 | 39 | -65.7 | -91.1 | 77 | 15 |
| 2010-01-23T00:52 | 22057 | 39 | -65.9 | -91.4 | 77 | 15 |
| 2010-01-23T00:52 | 22110 | 39 | -66.3 | -92.0 | 76 | 15 |
| 2010-01-23T00:52 | 22165 | 38 | -66.5 | -92.4 | 75 | 15 |
| 2010-01-23T00:52 | 22217 | 38 | -66.7 | -92.7 | 77 | 14 |
| 2010-01-23T00:53 | 22273 | 38 | -66.7 | -92.9 | 80 | 14 |
| 2010-01-23T00:53 | 22328 | 37 | -65.5 | -92.6 | 85 | 15 |
| 2010-01-23T00:53 | 22381 | 37 | -65.5 | -92.5 | 88 | 16 |
| 2010-01-23T00:53 | 22434 | 37 | -65.6 | -92.6 | 87 | 17 |
| 2010-01-23T00:53 | 22489 | 36 | -64.7 | -92.2 | 83 | 19 |
| 2010-01-23T00:53 | 22544 | 36 | -63.5 | -91.7 | 81 | 20 |
| 2010-01-23T00:54 | 22598 | 36 | -62.7 | -91.3 | 83 | 21 |
| 2010-01-23T00:54 | 22650 | 35 | -62.7 | -91.1 | 85 | 22 |
| 2010-01-23T00:54 | 22703 | 35 | -62.9 | -91.2 | 88 | 22 |
| 2010-01-23T00:54 | 22755 | 35 | -63.2 | -91.5 | 89 | 22 |
| 2010-01-23T00:54 | 22807 | 35 | -63.3 | -91.6 | 89 | 22 |
| 2010-01-23T00:54 | 22857 | 34 | -62.7 | -91.6 | 89 | 23 |
| 2010-01-23T00:55 | 22910 | 34 | -61.1 | -90.9 | 90 | 23 |
| 2010-01-23T00:55 | 22960 | 34 | -60.2 | -90.4 | 91 | 22 |
| 2010-01-23T00:55 | 23010 | 33 | -59.9 | -90.0 | 92 | 22 |
| 2010-01-23T00:55 | 23058 | 33 | -59.5 | -89.7 | 93 | 22 |
| 2010-01-23T00:55 | 23111 | 33 | -59.3 | -89.5 | 94 | 22 |
| 2010-01-23T00:55 | 23166 | 33 | -59.2 | -89.3 | 95 | 23 |
| 2010-01-23T00:56 | 23216 | 32 | -58.8 | -89.2 | 95 | 23 |
| 2010-01-23T00:56 | 23271 | 32 | -58.5 | -89.0 | 94 | 23 |
| 2010-01-23T00:56 | 23325 | 32 | -58.2 | -88.9 | 96 | 23 |
| 2010-01-23T00:56 | 23379 | 32 | -58.1 | -88.7 | 97 | 24 |
| 2010-01-23T00:56 | 23435 | 31 | -57.1 | -88.3 | 97 | 25 |
| 2010-01-23T00:56 | 23488 | 31 | -57.1 | -88.1 | 97 | 26 |
| 2010-01-23T00:57 | 23545 | 31 | -56.6 | -87.8 | 95 | 26 |
| 2010-01-23T00:57 | 23601 | 30 | -55.9 | -87.5 | 95 | 27 |
| 2010-01-23T00:57 | 23659 | 30 | -55.4 | -87.1 | 94 | 26 |
| 2010-01-23T00:57 | 23716 | 30 | -55.3 | -86.8 | 94 | 26 |
| 2010-01-23T00:57 | 23771 | 30 | -55.6 | -86.8 | 93 | 25 |
| 2010-01-23T00:57 | 23830 | 29 | -55.8 | -86.8 | 93 | 24 |
| 2010-01-23T00:58 | 23884 | 29 | -56.1 | -86.9 | 94 | 24 |
| 2010-01-23T00:58 | 23940 | 29 | -56.3 | -87.0 | 95 | 25 |
| 2010-01-23T00:58 | 23998 | 29 | -56.6 | -87.2 | 96 | 26 |
| 2010-01-23T00:58 | 24053 | 28 | -56.8 | -87.3 | 95 | 26 |
| 2010-01-23T00:58 | 24108 | 28 | -57.0 | -87.4 | 94 | 27 |
| 2010-01-23T00:58 | 24163 | 28 | -56.7 | -87.4 | 94 | 27 |
| 2010-01-23T00:59 | 24216 | 28 | -56.4 | -87.3 | 95 | 26 |
| 2010-01-23T00:59 | 24269 | 27 | -56.1 | -87.1 | 95 | 26 |
| 2010-01-23T00:59 | 24324 | 27 | -56.1 | -87.0 | 94 | 26 |
| 2010-01-23T00:59 | 24378 | 27 | -56.2 | -87.0 | 94 | 26 |
| 2010-01-23T00:59 | 24430 | 27 | -56.4 | -87.0 | 93 | 25 |
| 2010-01-23T00:59 | 24483 | 26 | -56.5 | -87.1 | 93 | 25 |
| 2010-01-23T01:00 | 24537 | 26 | -56.6 | -87.1 | 93 | 25 |
| 2010-01-23T01:00 | 24589 | 26 | -56.6 | -87.1 | 92 | 25 |
| 2010-01-23T01:00 | 24648 | 26 | -56.9 | -87.2 | 92 | 25 |
| 2010-01-23T01:00 | 24698 | 26 | -57.0 | -87.3 | 93 | 25 |
| 2010-01-23T01:00 | 24751 | 25 | -57.2 | -87.4 | 94 | 26 |
| 2010-01-23T01:00 | 24807 | 25 | -57.5 | -87.6 | 94 | 26 |
| 2010-01-23T01:01 | 24863 | 25 | -57.6 | -87.7 | 95 | 26 |
| 2010-01-23T01:01 | 24918 | 25 | -57.7 | -87.7 | 96 | 27 |
| 2010-01-23T01:01 | 24977 | 24 | -58.0 | -87.8 | 95 | 28 |
| 2010-01-23T01:01 | 25034 | 24 | -57.7 | -87.8 | 95 | 29 |
| 2010-01-23T01:01 | 25093 | 24 | -58.1 | -88.0 | 94 | 29 |
| 2010-01-23T01:01 | 25150 | 24 | -58.6 | -88.3 | 94 | 29 |
| 2010-01-23T01:02 | 25210 | 24 | -58.1 | -88.2 | 93 | 29 |
| 2010-01-23T01:02 | 25267 | 23 | -58.1 | -88.0 | 92 | 29 |
| 2010-01-23T01:02 | 25326 | 23 | -58.1 | -88.1 | 91 | 30 |
| 2010-01-23T01:02 | 25384 | 23 | -58.7 | -88.3 | 88 | 30 |
| 2010-01-23T01:02 | 25440 | 23 | -58.7 | -88.6 | 87 | 31 |
| 2010-01-23T01:02 | 25499 | 23 | -58.3 | -88.2 | 85 | 31 |
| 2010-01-23T01:03 | 25560 | 22 | -57.9 | -88.0 | 84 | 31 |
| 2010-01-23T01:03 | 25614 | 22 | -57.8 | -87.9 | 83 | 30 |
| 2010-01-23T01:03 | 25673 | 22 | -57.6 | -87.7 | 83 | 30 |
| 2010-01-23T01:03 | 25732 | 22 | -58.0 | -87.9 | 82 | 30 |
| 2010-01-23T01:03 | 25791 | 22 | -58.3 | -88.0 | 81 | 29 |
| 2010-01-23T01:03 | 25849 | 21 | -57.8 | -87.7 | 80 | 29 |
| 2010-01-23T01:04 | 25905 | 21 | -57.2 | -87.5 | 79 | 29 |
| 2010-01-23T01:04 | 25961 | 21 | -57.3 | -87.7 | 79 | 29 |
| 2010-01-23T01:04 | 26017 | 21 | -57.1 | -87.7 | 80 | 29 |
| 2010-01-23T01:04 | 26068 | 21 | -56.0 | -87.2 | 81 | 30 |
| 2010-01-23T01:04 | 26128 | 20 | -56.5 | -87.1 | 81 | 30 |
| 2010-01-23T01:04 | 26180 | 20 | -56.1 | -86.8 | 81 | 31 |
| 2010-01-23T01:05 | 26240 | 20 | -56.5 | -86.8 | 80 | 31 |
| 2010-01-23T01:05 | 26296 | 20 | -56.6 | -86.9 | 79 | 31 |
| 2010-01-23T01:05 | 26350 | 20 | -56.7 | -86.9 | 79 | 31 |
| 2010-01-23T01:05 | 26403 | 20 | -56.8 | -86.9 | 79 | 31 |
| 2010-01-23T01:05 | 26464 | 19 | -56.1 | -86.7 | 79 | 31 |
| 2010-01-23T01:05 | 26520 | 19 | -56.1 | -86.8 | 79 | 32 |
| 2010-01-23T01:06 | 26580 | 19 | -56.0 | -86.6 | 78 | 32 |
| 2010-01-23T01:06 | 26634 | 19 | -55.7 | -86.6 | 78 | 32 |
| 2010-01-23T01:06 | 26692 | 19 | -56.0 | -86.6 | 77 | 31 |
| 2010-01-23T01:06 | 26752 | 19 | -55.0 | -86.1 | 76 | 31 |
| 2010-01-23T01:06 | 26806 | 18 | -54.9 | -85.9 | 75 | 30 |
| 2010-01-23T01:06 | 26865 | 18 | -55.0 | -85.9 | 75 | 30 |
| 2010-01-23T01:07 | 26923 | 18 | -54.3 | -85.4 | 75 | 30 |
| 2010-01-23T01:07 | 26986 | 18 | -54.4 | -85.4 | 75 | 31 |
| 2010-01-23T01:07 | 27042 | 18 | -54.3 | -85.3 | 75 | 33 |
| 2010-01-23T01:07 | 27103 | 18 | -53.7 | -84.9 | 75 | 33 |
| 2010-01-23T01:07 | 27160 | 17 | -53.2 | -84.7 | 74 | 34 |
| 2010-01-23T01:07 | 27220 | 17 | -52.9 | -84.6 | 74 | 34 |
| 2010-01-23T01:08 | 27282 | 17 | -52.8 | -84.4 | 75 | 34 |
| 2010-01-23T01:08 | 27340 | 17 | -52.9 | -84.4 | 75 | 34 |
| 2010-01-23T01:08 | 27403 | 17 | -52.4 | -84.1 | 75 | 34 |
| 2010-01-23T01:08 | 27456 | 17 | -52.6 | -84.1 | 75 | 34 |
| 2010-01-23T01:08 | 27517 | 16 | -52.6 | -84.1 | 74 | 34 |
| 2010-01-23T01:08 | 27581 | 16 | -52.9 | -84.1 | 74 | 34 |
| 2010-01-23T01:09 | 27637 | 16 | -53.0 | -84.2 | 74 | 34 |
| 2010-01-23T01:09 | 27694 | 16 | -52.6 | -83.9 | 74 | 34 |
| 2010-01-23T01:09 | 27755 | 16 | -52.3 | -83.8 | 75 | 33 |
| 2010-01-23T01:09 | 27811 | 16 | -52.2 | -83.7 | 74 | 33 |
| 2010-01-23T01:09 | 27872 | 16 | -52.2 | -83.7 | 74 | 32 |
| 2010-01-23T01:09 | 27925 | 15 | -52.4 | -83.7 | 74 | 32 |
| 2010-01-23T01:10 | 27985 | 15 | -52.6 | -83.8 | 75 | 32 |
| 2010-01-23T01:10 | 28044 | 15 | -52.5 | -83.7 | 75 | 32 |
| 2010-01-23T01:10 | 28105 | 15 | -52.3 | -83.7 | 76 | 32 |
| 2010-01-23T01:10 | 28163 | 15 | -52.4 | -83.6 | 76 | 33 |
| 2010-01-23T01:10 | 28219 | 15 | -52.5 | -83.7 | 76 | 33 |
| 2010-01-23T01:10 | 28277 | 15 | -52.3 | -83.7 | 76 | 33 |
| 2010-01-23T01:11 | 28336 | 14 | -52.4 | -83.6 | 76 | 34 |
| 2010-01-23T01:11 | 28399 | 14 | -52.5 | -83.7 | 76 | 35 |
| 2010-01-23T01:11 | 28460 | 14 | -52.5 | -83.7 | 77 | 37 |
| 2010-01-23T01:11 | 28518 | 14 | -52.6 | -83.8 | 79 | 38 |
| 2010-01-23T01:11 | 28581 | 14 | -51.7 | -83.4 | 81 | 39 |
| 2010-01-23T01:11 | 28641 | 14 | -51.2 | -83.2 | 82 | 39 |
| 2010-01-23T01:12 | 28704 | 14 | -50.9 | -83.0 | 82 | 40 |
| 2010-01-23T01:12 | 28770 | 14 | -50.8 | -82.8 | 82 | 40 |
| 2010-01-23T01:12 | 28833 | 13 | -50.5 | -82.7 | 82 | 40 |
| 2010-01-23T01:12 | 28897 | 13 | -50.1 | -82.4 | 82 | 39 |
| 2010-01-23T01:12 | 28957 | 13 | -49.8 | -82.3 | 81 | 38 |
| 2010-01-23T01:12 | 29024 | 13 | -49.7 | -82.1 | 80 | 37 |
| 2010-01-23T01:13 | 29081 | 13 | -49.6 | -82.0 | 79 | 37 |
| 2010-01-23T01:13 | 29141 | 13 | -49.3 | -81.7 | ||
| 2010-01-23T11:40 | 4 | 1008 | 27.0 | 23.7 | 340 | 4 |
| 2010-01-23T11:40 | 13 | 1007 | 27.5 | 25.0 | 342 | 2 |
| 2010-01-23T11:40 | 22 | 1006 | 27.6 | 25.4 | 342 | 3 |
| 2010-01-23T11:40 | 32 | 1004 | 27.5 | 25.5 | 342 | 3 |
| 2010-01-23T11:40 | 42 | 1003 | 27.4 | 25.5 | 341 | 4 |
| 2010-01-23T11:40 | 52 | 1002 | 27.4 | 25.6 | 341 | 4 |
| 2010-01-23T11:40 | 60 | 1001 | 27.4 | 25.6 | 340 | 5 |
| 2010-01-23T11:40 | 69 | 1000 | 27.4 | 25.6 | 340 | 5 |
| 2010-01-23T11:40 | 77 | 999 | 27.3 | 25.6 | 339 | 6 |
| 2010-01-23T11:40 | 86 | 998 | 27.2 | 25.6 | 338 | 6 |
| 2010-01-23T11:40 | 97 | 997 | 27.1 | 25.5 | 337 | 6 |
| 2010-01-23T11:40 | 105 | 996 | 27.0 | 25.5 | 336 | 7 |
| 2010-01-23T11:40 | 112 | 995 | 27.0 | 25.5 | 335 | 7 |
| 2010-01-23T11:40 | 120 | 995 | 26.9 | 25.5 | 334 | 7 |
| 2010-01-23T11:40 | 128 | 994 | 26.8 | 25.5 | 333 | 7 |
| 2010-01-23T11:40 | 137 | 993 | 26.8 | 25.4 | 332 | 8 |
| 2010-01-23T11:40 | 144 | 992 | 26.7 | 25.4 | 331 | 8 |
| 2010-01-23T11:40 | 153 | 991 | 26.7 | 25.4 | 329 | 8 |
| 2010-01-23T11:40 | 161 | 990 | 26.7 | 25.3 | 328 | 8 |
| 2010-01-23T11:40 | 170 | 989 | 26.6 | 25.3 | 327 | 8 |
| 2010-01-23T11:40 | 179 | 988 | 26.4 | 25.3 | 326 | 9 |
| 2010-01-23T11:40 | 188 | 987 | 26.3 | 25.3 | 326 | 9 |
| 2010-01-23T11:40 | 197 | 986 | 26.3 | 25.2 | 325 | 9 |
| 2010-01-23T11:40 | 206 | 985 | 26.2 | 25.2 | 324 | 9 |
| 2010-01-23T11:40 | 215 | 984 | 26.1 | 25.2 | 324 | 9 |
| 2010-01-23T11:40 | 224 | 983 | 26.0 | 25.1 | 323 | 10 |
| 2010-01-23T11:40 | 234 | 982 | 26.0 | 25.1 | 323 | 10 |
| 2010-01-23T11:40 | 244 | 981 | 26.0 | 25.1 | 323 | 10 |
| 2010-01-23T11:40 | 255 | 980 | 26.0 | 25.0 | 323 | 10 |
| 2010-01-23T11:40 | 266 | 978 | 25.9 | 24.9 | 322 | 10 |
| 2010-01-23T11:41 | 277 | 977 | 25.8 | 24.8 | 322 | 10 |
| 2010-01-23T11:41 | 289 | 976 | 25.7 | 24.7 | 322 | 10 |
| 2010-01-23T11:41 | 299 | 975 | 25.6 | 24.6 | 322 | 10 |
| 2010-01-23T11:41 | 309 | 974 | 25.6 | 24.6 | 322 | 10 |
| 2010-01-23T11:41 | 320 | 972 | 25.5 | 24.5 | 322 | 10 |
| 2010-01-23T11:41 | 330 | 971 | 25.4 | 24.5 | 322 | 10 |
| 2010-01-23T11:41 | 340 | 970 | 25.3 | 24.4 | 322 | 10 |
| 2010-01-23T11:41 | 350 | 969 | 25.2 | 24.4 | 322 | 10 |
| 2010-01-23T11:41 | 360 | 968 | 25.2 | 24.3 | 322 | 10 |
| 2010-01-23T11:41 | 370 | 967 | 25.1 | 24.2 | 322 | 10 |
| 2010-01-23T11:41 | 380 | 966 | 25.0 | 24.2 | 321 | 10 |
| 2010-01-23T11:41 | 390 | 965 | 24.9 | 24.1 | 321 | 10 |
| 2010-01-23T11:41 | 399 | 964 | 24.8 | 24.1 | 321 | 10 |
| 2010-01-23T11:41 | 408 | 963 | 24.8 | 24.1 | 321 | 10 |
| 2010-01-23T11:41 | 418 | 962 | 24.7 | 24.0 | 321 | 10 |
| 2010-01-23T11:41 | 428 | 961 | 24.6 | 24.0 | 320 | 10 |
| 2010-01-23T11:41 | 438 | 960 | 24.5 | 23.9 | 320 | 10 |
| 2010-01-23T11:41 | 448 | 958 | 24.4 | 23.9 | 320 | 10 |
| 2010-01-23T11:41 | 458 | 957 | 24.4 | 23.9 | 319 | 10 |
| 2010-01-23T11:41 | 468 | 956 | 24.3 | 23.8 | 319 | 10 |
| 2010-01-23T11:41 | 478 | 955 | 24.2 | 23.8 | 319 | 10 |
| 2010-01-23T11:41 | 488 | 954 | 24.1 | 23.8 | 319 | 10 |
| 2010-01-23T11:41 | 499 | 953 | 24.1 | 23.8 | 318 | 10 |
| 2010-01-23T11:41 | 510 | 952 | 24.0 | 23.8 | 318 | 10 |
| 2010-01-23T11:41 | 519 | 951 | 23.9 | 23.7 | 318 | 10 |
| 2010-01-23T11:41 | 530 | 950 | 23.8 | 23.7 | 318 | 10 |
| 2010-01-23T11:41 | 540 | 948 | 23.7 | 23.6 | 318 | 10 |
| 2010-01-23T11:41 | 551 | 947 | 23.6 | 23.6 | 318 | 10 |
| 2010-01-23T11:41 | 561 | 946 | 23.6 | 23.5 | 318 | 10 |
| 2010-01-23T11:41 | 571 | 945 | 23.6 | 23.4 | 317 | 11 |
| 2010-01-23T11:42 | 581 | 944 | 23.6 | 23.3 | 317 | 11 |
| 2010-01-23T11:42 | 590 | 943 | 23.5 | 23.2 | 317 | 11 |
| 2010-01-23T11:42 | 600 | 942 | 23.5 | 23.1 | 317 | 11 |
| 2010-01-23T11:42 | 610 | 941 | 23.4 | 23.0 | 317 | 11 |
| 2010-01-23T11:42 | 620 | 940 | 23.3 | 23.0 | 317 | 11 |
| 2010-01-23T11:42 | 631 | 939 | 23.2 | 22.9 | 316 | 11 |
| 2010-01-23T11:42 | 641 | 938 | 23.1 | 22.8 | 316 | 11 |
| 2010-01-23T11:42 | 651 | 937 | 23.1 | 22.8 | 316 | 11 |
| 2010-01-23T11:42 | 662 | 935 | 23.0 | 22.7 | 315 | 11 |
| 2010-01-23T11:42 | 673 | 934 | 23.0 | 22.6 | 315 | 11 |
| 2010-01-23T11:42 | 683 | 933 | 22.9 | 22.5 | 315 | 10 |
| 2010-01-23T11:42 | 694 | 932 | 22.8 | 22.5 | 314 | 10 |
| 2010-01-23T11:42 | 704 | 931 | 22.7 | 22.4 | 314 | 10 |
| 2010-01-23T11:42 | 715 | 930 | 22.6 | 22.2 | 314 | 10 |
| 2010-01-23T11:42 | 725 | 929 | 22.6 | 22.2 | 313 | 10 |
| 2010-01-23T11:42 | 736 | 928 | 22.5 | 22.1 | 313 | 10 |
| 2010-01-23T11:42 | 747 | 926 | 22.4 | 22.1 | 313 | 10 |
| 2010-01-23T11:42 | 758 | 925 | 22.4 | 22.0 | 312 | 10 |
| 2010-01-23T11:42 | 769 | 924 | 22.5 | 21.8 | 312 | 10 |
| 2010-01-23T11:42 | 780 | 923 | 22.5 | 21.6 | 312 | 10 |
| 2010-01-23T11:42 | 791 | 922 | 22.4 | 21.5 | 312 | 10 |
| 2010-01-23T11:42 | 801 | 921 | 22.3 | 21.4 | 312 | 10 |
| 2010-01-23T11:42 | 811 | 920 | 22.3 | 21.4 | 312 | 10 |
| 2010-01-23T11:42 | 821 | 919 | 22.3 | 21.3 | 312 | 10 |
| 2010-01-23T11:42 | 832 | 917 | 22.2 | 21.2 | 312 | 10 |
| 2010-01-23T11:42 | 843 | 916 | 22.1 | 21.1 | 312 | 10 |
| 2010-01-23T11:42 | 854 | 915 | 22.1 | 20.8 | 312 | 10 |
| 2010-01-23T11:42 | 865 | 914 | 22.1 | 20.7 | 312 | 10 |
| 2010-01-23T11:42 | 875 | 913 | 22.0 | 20.7 | 313 | 10 |
| 2010-01-23T11:42 | 886 | 912 | 21.8 | 20.7 | 313 | 10 |
| 2010-01-23T11:43 | 897 | 911 | 21.8 | 20.6 | 313 | 10 |
| 2010-01-23T11:43 | 908 | 909 | 21.7 | 20.6 | 314 | 10 |
| 2010-01-23T11:43 | 919 | 908 | 21.6 | 20.6 | 314 | 10 |
| 2010-01-23T11:43 | 930 | 907 | 21.6 | 20.7 | 314 | 10 |
| 2010-01-23T11:43 | 941 | 906 | 21.7 | 20.6 | 315 | 10 |
| 2010-01-23T11:43 | 952 | 905 | 21.6 | 20.6 | 315 | 10 |
| 2010-01-23T11:43 | 963 | 904 | 21.6 | 20.5 | 315 | 10 |
| 2010-01-23T11:43 | 975 | 903 | 21.6 | 20.4 | 315 | 10 |
| 2010-01-23T11:43 | 986 | 901 | 21.6 | 20.3 | 315 | 10 |
| 2010-01-23T11:43 | 998 | 900 | 21.6 | 20.2 | 315 | 10 |
| 2010-01-23T11:43 | 1010 | 899 | 21.5 | 20.0 | 314 | 11 |
| 2010-01-23T11:43 | 1021 | 898 | 21.4 | 19.9 | 314 | 11 |
| 2010-01-23T11:43 | 1032 | 897 | 21.3 | 19.8 | 314 | 11 |
| 2010-01-23T11:43 | 1043 | 895 | 21.4 | 19.7 | 314 | 11 |
| 2010-01-23T11:43 | 1054 | 894 | 21.4 | 19.6 | 314 | 11 |
| 2010-01-23T11:43 | 1065 | 893 | 21.3 | 19.6 | 314 | 11 |
| 2010-01-23T11:43 | 1076 | 892 | 21.2 | 19.5 | 313 | 11 |
| 2010-01-23T11:43 | 1086 | 891 | 21.2 | 19.3 | 313 | 11 |
| 2010-01-23T11:43 | 1098 | 890 | 21.2 | 19.1 | 313 | 11 |
| 2010-01-23T11:43 | 1110 | 889 | 21.1 | 19.0 | 313 | 11 |
| 2010-01-23T11:43 | 1122 | 887 | 21.0 | 18.9 | 313 | 11 |
| 2010-01-23T11:43 | 1133 | 886 | 21.0 | 18.8 | 313 | 11 |
| 2010-01-23T11:43 | 1144 | 885 | 20.9 | 18.7 | 313 | 11 |
| 2010-01-23T11:43 | 1155 | 884 | 20.8 | 18.6 | 313 | 11 |
| 2010-01-23T11:43 | 1166 | 883 | 20.8 | 18.5 | 313 | 11 |
| 2010-01-23T11:43 | 1176 | 882 | 20.7 | 18.4 | 313 | 11 |
| 2010-01-23T11:43 | 1188 | 881 | 20.7 | 18.3 | 313 | 11 |
| 2010-01-23T11:43 | 1200 | 879 | 20.6 | 18.2 | 313 | 11 |
| 2010-01-23T11:43 | 1212 | 878 | 20.5 | 18.1 | 312 | 11 |
| 2010-01-23T11:43 | 1223 | 877 | 20.4 | 18.0 | 312 | 11 |
| 2010-01-23T11:44 | 1235 | 876 | 20.3 | 17.9 | 312 | 10 |
| 2010-01-23T11:44 | 1246 | 875 | 20.2 | 17.8 | 311 | 10 |
| 2010-01-23T11:44 | 1258 | 874 | 20.1 | 17.6 | 311 | 10 |
| 2010-01-23T11:44 | 1271 | 872 | 20.1 | 17.4 | 311 | 10 |
| 2010-01-23T11:44 | 1283 | 871 | 20.1 | 17.0 | 311 | 10 |
| 2010-01-23T11:44 | 1295 | 870 | 20.1 | 16.7 | 311 | 10 |
| 2010-01-23T11:44 | 1306 | 869 | 20.0 | 16.6 | 311 | 10 |
| 2010-01-23T11:44 | 1319 | 867 | 20.0 | 16.4 | 311 | 10 |
| 2010-01-23T11:44 | 1331 | 866 | 19.9 | 16.1 | 311 | 10 |
| 2010-01-23T11:44 | 1343 | 865 | 19.8 | 15.9 | 311 | 10 |
| 2010-01-23T11:44 | 1355 | 864 | 19.8 | 15.7 | 311 | 11 |
| 2010-01-23T11:44 | 1366 | 863 | 19.7 | 15.6 | 311 | 11 |
| 2010-01-23T11:44 | 1379 | 861 | 19.6 | 15.6 | 312 | 11 |
| 2010-01-23T11:44 | 1391 | 860 | 19.5 | 15.6 | 312 | 11 |
| 2010-01-23T11:44 | 1403 | 859 | 19.4 | 15.7 | 312 | 11 |
| 2010-01-23T11:44 | 1415 | 858 | 19.3 | 15.7 | 313 | 11 |
| 2010-01-23T11:44 | 1428 | 857 | 19.2 | 15.8 | 313 | 11 |
| 2010-01-23T11:44 | 1441 | 855 | 19.2 | 16.2 | 313 | 11 |
| 2010-01-23T11:44 | 1452 | 854 | 19.1 | 16.4 | 314 | 11 |
| 2010-01-23T11:44 | 1464 | 853 | 19.0 | 16.3 | 314 | 11 |
| 2010-01-23T11:44 | 1475 | 852 | 18.9 | 16.4 | 314 | 11 |
| 2010-01-23T11:44 | 1486 | 851 | 18.8 | 16.4 | 315 | 11 |
| 2010-01-23T11:44 | 1498 | 850 | 18.7 | 16.4 | 315 | 11 |
| 2010-01-23T11:44 | 1509 | 849 | 18.6 | 16.3 | 315 | 11 |
| 2010-01-23T11:44 | 1520 | 847 | 18.5 | 16.3 | 316 | 11 |
| 2010-01-23T11:44 | 1532 | 846 | 18.4 | 16.4 | 316 | 11 |
| 2010-01-23T11:44 | 1542 | 845 | 18.3 | 16.5 | 316 | 11 |
| 2010-01-23T11:44 | 1553 | 844 | 18.2 | 16.5 | 316 | 11 |
| 2010-01-23T11:44 | 1564 | 843 | 18.1 | 16.5 | 316 | 11 |
| 2010-01-23T11:44 | 1574 | 842 | 18.0 | 16.6 | 315 | 11 |
| 2010-01-23T11:45 | 1584 | 841 | 18.0 | 16.7 | 315 | 11 |
| 2010-01-23T11:45 | 1596 | 840 | 17.9 | 16.7 | 314 | 11 |
| 2010-01-23T11:45 | 1608 | 839 | 17.8 | 16.8 | 314 | 11 |
| 2010-01-23T11:45 | 1619 | 838 | 17.8 | 17.0 | 313 | 11 |
| 2010-01-23T11:45 | 1630 | 837 | 17.7 | 17.1 | 312 | 11 |
| 2010-01-23T11:45 | 1640 | 836 | 17.7 | 17.1 | 311 | 11 |
| 2010-01-23T11:45 | 1651 | 835 | 17.8 | 16.8 | 311 | 11 |
| 2010-01-23T11:45 | 1663 | 834 | 17.9 | 16.3 | 310 | 11 |
| 2010-01-23T11:45 | 1674 | 832 | 18.0 | 15.8 | 310 | 11 |
| 2010-01-23T11:45 | 1685 | 831 | 18.0 | 15.5 | 309 | 11 |
| 2010-01-23T11:45 | 1697 | 830 | 18.0 | 15.1 | 309 | 11 |
| 2010-01-23T11:45 | 1708 | 829 | 18.1 | 14.7 | 309 | 11 |
| 2010-01-23T11:45 | 1719 | 828 | 18.1 | 14.4 | 309 | 11 |
| 2010-01-23T11:45 | 1730 | 827 | 18.1 | 14.1 | 309 | 11 |
| 2010-01-23T11:45 | 1741 | 826 | 18.1 | 13.7 | 309 | 11 |
| 2010-01-23T11:45 | 1753 | 825 | 18.1 | 13.3 | 309 | 11 |
| 2010-01-23T11:45 | 1763 | 824 | 18.1 | 13.0 | 310 | 12 |
| 2010-01-23T11:45 | 1774 | 823 | 18.0 | 12.9 | 310 | 12 |
| 2010-01-23T11:45 | 1785 | 822 | 17.9 | 12.9 | 310 | 12 |
| 2010-01-23T11:45 | 1796 | 821 | 18.0 | 13.0 | 310 | 12 |
| 2010-01-23T11:45 | 1808 | 820 | 18.0 | 12.9 | 311 | 12 |
| 2010-01-23T11:45 | 1819 | 819 | 18.0 | 12.9 | 311 | 12 |
| 2010-01-23T11:45 | 1829 | 817 | 18.0 | 13.0 | 311 | 12 |
| 2010-01-23T11:45 | 1841 | 816 | 17.9 | 13.0 | 311 | 12 |
| 2010-01-23T11:45 | 1852 | 815 | 17.9 | 13.0 | 311 | 12 |
| 2010-01-23T11:45 | 1864 | 814 | 17.8 | 13.0 | 311 | 12 |
| 2010-01-23T11:45 | 1875 | 813 | 17.7 | 12.9 | 311 | 12 |
| 2010-01-23T11:45 | 1887 | 812 | 17.6 | 12.9 | 311 | 12 |
| 2010-01-23T11:45 | 1898 | 811 | 17.6 | 12.9 | 311 | 12 |
| 2010-01-23T11:45 | 1909 | 810 | 17.5 | 12.8 | 311 | 12 |
| 2010-01-23T11:46 | 1919 | 809 | 17.5 | 12.6 | 310 | 12 |
| 2010-01-23T11:46 | 1930 | 808 | 17.5 | 12.6 | 310 | 12 |
| 2010-01-23T11:46 | 1942 | 807 | 17.5 | 12.5 | 310 | 12 |
| 2010-01-23T11:46 | 1953 | 806 | 17.3 | 12.4 | 310 | 12 |
| 2010-01-23T11:46 | 1965 | 805 | 17.3 | 12.4 | 309 | 12 |
| 2010-01-23T11:46 | 1976 | 804 | 17.2 | 12.3 | 309 | 12 |
| 2010-01-23T11:46 | 1986 | 803 | 17.1 | 12.3 | 309 | 12 |
| 2010-01-23T11:46 | 1997 | 802 | 17.0 | 12.2 | 308 | 12 |
| 2010-01-23T11:46 | 2029 | 799 | 16.9 | 11.7 | 306 | 12 |
| 2010-01-23T11:46 | 2085 | 793 | 16.5 | 10.8 | 301 | 12 |
| 2010-01-23T11:46 | 2145 | 788 | 17.8 | 5.6 | 295 | 12 |
| 2010-01-23T11:46 | 2202 | 783 | 17.5 | 3.8 | 292 | 12 |
| 2010-01-23T11:47 | 2263 | 777 | 17.0 | 3.5 | 291 | 12 |
| 2010-01-23T11:47 | 2324 | 772 | 16.4 | 3.5 | 290 | 13 |
| 2010-01-23T11:47 | 2385 | 766 | 15.8 | 3.5 | 289 | 13 |
| 2010-01-23T11:47 | 2436 | 761 | 15.4 | 3.8 | 289 | 14 |
| 2010-01-23T11:47 | 2494 | 756 | 14.9 | 3.5 | 287 | 14 |
| 2010-01-23T11:47 | 2550 | 751 | 14.7 | 2.3 | 286 | 15 |
| 2010-01-23T11:48 | 2608 | 746 | 14.2 | 1.6 | 286 | 16 |
| 2010-01-23T11:48 | 2667 | 741 | 13.7 | 1.6 | 287 | 16 |
| 2010-01-23T11:48 | 2727 | 736 | 13.1 | 1.7 | 287 | 16 |
| 2010-01-23T11:48 | 2787 | 730 | 12.6 | 1.7 | 286 | 17 |
| 2010-01-23T11:48 | 2842 | 726 | 12.1 | 2.8 | 283 | 18 |
| 2010-01-23T11:48 | 2898 | 721 | 11.6 | 3.0 | 278 | 18 |
| 2010-01-23T11:49 | 2958 | 716 | 11.3 | 3.2 | 275 | 19 |
| 2010-01-23T11:49 | 3008 | 711 | 11.1 | 2.4 | 273 | 20 |
| 2010-01-23T11:49 | 3063 | 707 | 10.8 | 3.1 | 273 | 20 |
| 2010-01-23T11:49 | 3104 | 703 | 10.3 | 4.2 | 273 | 20 |
| 2010-01-23T11:49 | 3147 | 700 | 9.9 | 5.1 | 272 | 19 |
| 2010-01-23T11:49 | 3204 | 695 | 9.3 | 5.8 | 272 | 18 |
| 2010-01-23T11:50 | 3261 | 690 | 8.8 | 6.4 | 271 | 17 |
| 2010-01-23T11:50 | 3316 | 686 | 8.5 | 6.3 | 272 | 16 |
| 2010-01-23T11:50 | 3371 | 681 | 8.1 | 6.0 | 272 | 15 |
| 2010-01-23T11:50 | 3429 | 676 | 7.9 | 6.0 | 271 | 14 |
| 2010-01-23T11:50 | 3485 | 672 | 8.0 | 5.7 | 267 | 13 |
| 2010-01-23T11:50 | 3543 | 667 | 7.8 | 4.8 | 265 | 13 |
| 2010-01-23T11:51 | 3599 | 662 | 7.5 | 4.7 | 266 | 13 |
| 2010-01-23T11:51 | 3659 | 658 | 7.0 | 4.9 | 269 | 13 |
| 2010-01-23T11:51 | 3718 | 653 | 6.6 | 4.8 | 271 | 12 |
| 2010-01-23T11:51 | 3775 | 648 | 6.5 | 2.9 | 271 | 12 |
| 2010-01-23T11:51 | 3836 | 644 | 6.6 | 1.2 | 270 | 13 |
| 2010-01-23T11:51 | 3899 | 639 | 6.3 | 1.1 | 269 | 13 |
| 2010-01-23T11:52 | 3954 | 634 | 5.9 | 0.9 | 267 | 12 |
| 2010-01-23T11:52 | 4012 | 630 | 5.3 | 1.3 | 265 | 12 |
| 2010-01-23T11:52 | 4071 | 626 | 4.8 | 1.4 | 263 | 12 |
| 2010-01-23T11:52 | 4132 | 621 | 4.3 | 2.1 | 261 | 12 |
| 2010-01-23T11:52 | 4192 | 616 | 3.8 | 2.0 | 261 | 12 |
| 2010-01-23T11:52 | 4245 | 612 | 3.3 | 2.0 | 261 | 12 |
| 2010-01-23T11:53 | 4300 | 608 | 2.8 | 1.8 | 261 | 12 |
| 2010-01-23T11:53 | 4352 | 604 | 2.3 | 1.7 | 259 | 12 |
| 2010-01-23T11:53 | 4403 | 600 | 1.9 | 1.9 | 257 | 12 |
| 2010-01-23T11:53 | 4454 | 597 | 1.6 | 1.2 | 257 | 12 |
| 2010-01-23T11:53 | 4516 | 592 | 1.3 | 1.1 | 257 | 12 |
| 2010-01-23T11:53 | 4577 | 588 | 1.0 | 0.2 | 259 | 13 |
| 2010-01-23T11:54 | 4632 | 584 | 1.1 | -0.7 | 260 | 13 |
| 2010-01-23T11:54 | 4687 | 580 | 1.0 | -1.8 | 261 | 13 |
| 2010-01-23T11:54 | 4743 | 576 | 0.7 | -2.6 | 260 | 13 |
| 2010-01-23T11:54 | 4799 | 572 | 0.3 | -3.0 | 258 | 13 |
| 2010-01-23T11:54 | 4853 | 568 | -0.1 | -3.3 | 259 | 12 |
| 2010-01-23T11:54 | 4915 | 563 | -0.5 | -3.5 | 261 | 12 |
| 2010-01-23T11:55 | 4967 | 560 | -0.8 | -4.5 | 262 | 11 |
| 2010-01-23T11:55 | 5021 | 556 | -1.1 | -5.4 | 261 | 11 |
| 2010-01-23T11:55 | 5071 | 553 | -1.5 | -6.1 | 260 | 10 |
| 2010-01-23T11:55 | 5120 | 549 | -1.8 | -6.1 | 260 | 10 |
| 2010-01-23T11:55 | 5169 | 546 | -2.3 | -6.3 | 258 | 10 |
| 2010-01-23T11:55 | 5207 | 543 | -2.6 | -6.2 | 256 | 10 |
| 2010-01-23T11:56 | 5243 | 541 | -2.8 | -6.7 | 253 | 10 |
| 2010-01-23T11:56 | 5284 | 538 | -3.1 | -8.2 | 253 | 9 |
| 2010-01-23T11:56 | 5318 | 536 | -3.3 | -9.8 | 254 | 9 |
| 2010-01-23T11:56 | 5355 | 533 | -3.5 | -10.4 | 254 | 8 |
| 2010-01-23T11:56 | 5389 | 531 | -3.6 | -13.6 | 252 | 8 |
| 2010-01-23T11:56 | 5423 | 529 | -3.8 | -12.6 | 249 | 8 |
| 2010-01-23T11:57 | 5456 | 526 | -4.1 | -10.4 | 246 | 8 |
| 2010-01-23T11:57 | 5488 | 524 | -4.3 | -11.3 | 245 | 8 |
| 2010-01-23T11:57 | 5526 | 522 | -4.6 | -10.1 | 244 | 8 |
| 2010-01-23T11:57 | 5557 | 520 | -4.9 | -6.9 | 242 | 8 |
| 2010-01-23T11:57 | 5591 | 517 | -5.1 | -7.1 | 238 | 7 |
| 2010-01-23T11:57 | 5626 | 515 | -5.3 | -7.7 | 232 | 7 |
| 2010-01-23T11:58 | 5661 | 513 | -5.2 | -9.0 | 226 | 6 |
| 2010-01-23T11:58 | 5700 | 510 | -4.8 | -13.3 | 219 | 5 |
| 2010-01-23T11:58 | 5741 | 508 | -4.8 | -17.3 | 210 | 5 |
| 2010-01-23T11:58 | 5784 | 505 | -5.1 | -18.0 | 197 | 5 |
| 2010-01-23T11:58 | 5830 | 502 | -5.2 | -19.4 | 184 | 5 |
| 2010-01-23T11:58 | 5863 | 500 | -5.3 | -20.1 | 178 | 5 |
| 2010-01-23T11:59 | 5893 | 498 | -5.3 | -17.2 | 178 | 5 |
| 2010-01-23T11:59 | 5922 | 496 | -5.6 | -16.3 | 178 | 5 |
| 2010-01-23T11:59 | 5952 | 494 | -5.5 | -17.5 | 175 | 5 |
| 2010-01-23T11:59 | 5982 | 492 | -5.7 | -16.0 | 171 | 6 |
| 2010-01-23T11:59 | 6015 | 490 | -5.9 | -16.0 | 168 | 5 |
| 2010-01-23T11:59 | 6046 | 488 | -6.2 | -15.5 | 166 | 5 |
| 2010-01-23T12:00 | 6076 | 486 | -6.3 | -16.0 | 166 | 5 |
| 2010-01-23T12:00 | 6108 | 484 | -6.6 | -16.8 | 166 | 5 |
| 2010-01-23T12:00 | 6146 | 482 | -6.9 | -15.0 | 164 | 5 |
| 2010-01-23T12:00 | 6179 | 480 | -7.2 | -13.7 | 156 | 5 |
| 2010-01-23T12:00 | 6214 | 478 | -7.4 | -11.4 | 146 | 5 |
| 2010-01-23T12:00 | 6246 | 476 | -7.7 | -9.4 | 137 | 6 |
| 2010-01-23T12:01 | 6283 | 474 | -7.9 | -9.6 | 128 | 6 |
| 2010-01-23T12:01 | 6322 | 471 | -8.0 | -10.0 | 118 | 6 |
| 2010-01-23T12:01 | 6361 | 469 | -7.9 | -9.9 | 112 | 6 |
| 2010-01-23T12:01 | 6394 | 467 | -8.0 | -10.0 | 110 | 6 |
| 2010-01-23T12:01 | 6430 | 465 | -8.2 | -10.0 | 109 | 6 |
| 2010-01-23T12:01 | 6470 | 462 | -7.9 | -10.4 | 109 | 7 |
| 2010-01-23T12:02 | 6513 | 460 | -8.2 | -10.8 | 110 | 8 |
| 2010-01-23T12:02 | 6564 | 457 | -8.4 | -11.1 | 111 | 9 |
| 2010-01-23T12:02 | 6602 | 455 | -8.7 | -11.2 | 112 | 9 |
| 2010-01-23T12:02 | 6640 | 452 | -9.1 | -11.3 | 113 | 10 |
| 2010-01-23T12:02 | 6676 | 450 | -9.4 | -11.4 | 112 | 10 |
| 2010-01-23T12:02 | 6718 | 448 | -9.7 | -11.8 | 111 | 11 |
| 2010-01-23T12:03 | 6768 | 445 | -9.9 | -12.1 | 109 | 13 |
| 2010-01-23T12:03 | 6810 | 443 | -9.6 | -12.7 | 107 | 14 |
| 2010-01-23T12:03 | 6847 | 440 | -9.8 | -12.9 | 106 | 14 |
| 2010-01-23T12:03 | 6882 | 439 | -10.1 | -13.0 | 105 | 14 |
| 2010-01-23T12:03 | 6917 | 436 | -10.4 | -13.1 | 105 | 15 |
| 2010-01-23T12:03 | 6954 | 434 | -10.7 | -13.3 | 106 | 15 |
| 2010-01-23T12:04 | 6991 | 432 | -11.0 | -13.4 | 106 | 16 |
| 2010-01-23T12:04 | 7027 | 430 | -11.1 | -14.0 | 107 | 15 |
| 2010-01-23T12:04 | 7059 | 428 | -11.3 | -14.1 | 108 | 15 |
| 2010-01-23T12:04 | 7093 | 427 | -11.4 | -14.2 | 109 | 15 |
| 2010-01-23T12:04 | 7132 | 424 | -11.4 | -14.4 | 110 | 14 |
| 2010-01-23T12:04 | 7169 | 422 | -11.1 | -14.8 | 111 | 13 |
| 2010-01-23T12:05 | 7203 | 421 | -11.2 | -15.5 | 110 | 12 |
| 2010-01-23T12:05 | 7236 | 419 | -11.4 | -16.0 | 109 | 12 |
| 2010-01-23T12:05 | 7270 | 417 | -11.7 | -16.1 | 107 | 12 |
| 2010-01-23T12:05 | 7305 | 415 | -11.8 | -16.4 | 105 | 12 |
| 2010-01-23T12:05 | 7339 | 413 | -12.1 | -16.5 | 104 | 12 |
| 2010-01-23T12:05 | 7372 | 411 | -12.3 | -16.7 | 104 | 12 |
| 2010-01-23T12:06 | 7407 | 410 | -12.6 | -16.8 | 104 | 12 |
| 2010-01-23T12:06 | 7439 | 408 | -12.9 | -17.2 | 104 | 13 |
| 2010-01-23T12:06 | 7475 | 406 | -13.1 | -17.2 | 103 | 13 |
| 2010-01-23T12:06 | 7511 | 404 | -13.4 | -17.4 | 103 | 13 |
| 2010-01-23T12:06 | 7545 | 402 | -13.6 | -17.7 | 102 | 13 |
| 2010-01-23T12:06 | 7579 | 400 | -13.9 | -17.8 | 101 | 13 |
| 2010-01-23T12:07 | 7613 | 399 | -14.1 | -18.0 | 100 | 13 |
| 2010-01-23T12:07 | 7649 | 397 | -14.5 | -18.6 | 100 | 14 |
| 2010-01-23T12:07 | 7683 | 395 | -14.8 | -18.8 | 101 | 14 |
| 2010-01-23T12:07 | 7718 | 393 | -15.0 | -19.3 | 103 | 14 |
| 2010-01-23T12:07 | 7755 | 391 | -15.2 | -19.8 | 106 | 14 |
| 2010-01-23T12:07 | 7794 | 389 | -15.4 | -20.9 | 109 | 13 |
| 2010-01-23T12:08 | 7834 | 387 | -15.6 | -21.4 | 110 | 12 |
| 2010-01-23T12:08 | 7881 | 385 | -16.0 | -22.0 | 112 | 12 |
| 2010-01-23T12:08 | 7917 | 383 | -16.3 | -22.3 | 115 | 11 |
| 2010-01-23T12:08 | 7959 | 381 | -16.6 | -22.4 | 119 | 10 |
| 2010-01-23T12:08 | 8011 | 378 | -17.0 | -23.0 | 124 | 9 |
| 2010-01-23T12:08 | 8050 | 376 | -17.4 | -22.9 | 129 | 10 |
| 2010-01-23T12:09 | 8086 | 374 | -17.8 | -23.0 | 134 | 10 |
| 2010-01-23T12:09 | 8128 | 372 | -18.2 | -23.3 | 138 | 10 |
| 2010-01-23T12:09 | 8165 | 370 | -18.4 | -23.6 | 141 | 10 |
| 2010-01-23T12:09 | 8200 | 369 | -18.6 | -24.1 | 143 | 9 |
| 2010-01-23T12:09 | 8234 | 367 | -18.9 | -24.3 | 147 | 10 |
| 2010-01-23T12:09 | 8269 | 365 | -19.2 | -24.5 | 150 | 10 |
| 2010-01-23T12:10 | 8301 | 364 | -19.4 | -24.4 | 152 | 10 |
| 2010-01-23T12:10 | 8335 | 362 | -19.7 | -24.7 | 155 | 10 |
| 2010-01-23T12:10 | 8368 | 360 | -20.0 | -24.2 | 158 | 10 |
| 2010-01-23T12:10 | 8403 | 359 | -20.3 | -24.0 | 162 | 10 |
| 2010-01-23T12:10 | 8437 | 357 | -20.6 | -23.7 | 166 | 10 |
| 2010-01-23T12:10 | 8475 | 355 | -20.9 | -23.6 | 169 | 11 |
| 2010-01-23T12:11 | 8508 | 354 | -21.1 | -23.6 | 170 | 11 |
| 2010-01-23T12:11 | 8540 | 352 | -21.4 | -23.8 | 169 | 11 |
| 2010-01-23T12:11 | 8573 | 351 | -21.7 | -23.9 | 169 | 11 |
| 2010-01-23T12:11 | 8607 | 349 | -22.0 | -24.0 | 169 | 11 |
| 2010-01-23T12:11 | 8640 | 347 | -22.3 | -24.1 | 168 | 11 |
| 2010-01-23T12:11 | 8674 | 346 | -22.5 | -24.4 | 166 | 11 |
| 2010-01-23T12:12 | 8708 | 344 | -22.7 | -25.1 | 165 | 12 |
| 2010-01-23T12:12 | 8741 | 343 | -22.8 | -25.7 | 163 | 12 |
| 2010-01-23T12:12 | 8775 | 341 | -23.1 | -26.5 | 163 | 12 |
| 2010-01-23T12:12 | 8810 | 339 | -23.4 | -26.9 | 163 | 13 |
| 2010-01-23T12:12 | 8844 | 338 | -23.7 | -27.3 | 165 | 13 |
| 2010-01-23T12:12 | 8877 | 336 | -24.0 | -27.3 | 167 | 14 |
| 2010-01-23T12:13 | 8910 | 335 | -24.3 | -27.5 | 170 | 14 |
| 2010-01-23T12:13 | 8942 | 333 | -24.3 | -28.4 | 170 | 15 |
| 2010-01-23T12:13 | 8976 | 332 | -24.5 | -29.3 | 170 | 15 |
| 2010-01-23T12:13 | 9010 | 330 | -24.6 | -30.0 | 170 | 15 |
| 2010-01-23T12:13 | 9045 | 329 | -24.9 | -30.3 | 170 | 15 |
| 2010-01-23T12:13 | 9079 | 327 | -25.1 | -30.5 | 170 | 14 |
| 2010-01-23T12:14 | 9120 | 325 | -25.4 | -30.4 | 168 | 14 |
| 2010-01-23T12:14 | 9157 | 324 | -25.6 | -30.9 | 165 | 13 |
| 2010-01-23T12:14 | 9194 | 322 | -25.9 | -31.2 | 161 | 13 |
| 2010-01-23T12:14 | 9227 | 321 | -26.1 | -31.4 | 157 | 12 |
| 2010-01-23T12:14 | 9262 | 319 | -26.4 | -31.4 | 154 | 12 |
| 2010-01-23T12:14 | 9294 | 318 | -26.6 | -31.5 | 151 | 12 |
| 2010-01-23T12:15 | 9328 | 316 | -26.9 | -31.6 | 148 | 11 |
| 2010-01-23T12:15 | 9365 | 314 | -27.2 | -31.8 | 146 | 11 |
| 2010-01-23T12:15 | 9397 | 313 | -27.4 | -32.0 | 144 | 12 |
| 2010-01-23T12:15 | 9440 | 311 | -27.6 | -32.6 | 140 | 12 |
| 2010-01-23T12:15 | 9480 | 309 | -27.9 | -33.0 | 134 | 12 |
| 2010-01-23T12:15 | 9527 | 307 | -28.2 | -33.7 | 127 | 12 |
| 2010-01-23T12:16 | 9580 | 305 | -28.6 | -34.8 | 122 | 12 |
| 2010-01-23T12:16 | 9620 | 303 | -28.8 | -37.0 | 121 | 13 |
| 2010-01-23T12:16 | 9669 | 301 | -29.3 | -37.5 | 120 | 14 |
| 2010-01-23T12:16 | 9715 | 299 | -29.6 | -38.1 | 120 | 14 |
| 2010-01-23T12:16 | 9761 | 298 | -30.0 | -38.8 | 120 | 14 |
| 2010-01-23T12:16 | 9819 | 295 | -30.6 | -38.9 | 118 | 14 |
| 2010-01-23T12:17 | 9881 | 293 | -31.2 | -39.2 | 113 | 14 |
| 2010-01-23T12:17 | 9916 | 291 | -31.4 | -40.4 | 110 | 15 |
| 2010-01-23T12:17 | 9947 | 290 | -31.7 | -41.0 | 109 | 15 |
| 2010-01-23T12:17 | 9978 | 289 | -32.0 | -41.0 | 110 | 15 |
| 2010-01-23T12:17 | 10008 | 287 | -32.3 | -41.1 | 110 | 16 |
| 2010-01-23T12:17 | 10041 | 286 | -32.6 | -41.6 | 109 | 16 |
| 2010-01-23T12:18 | 10073 | 285 | -32.9 | -41.7 | 109 | 16 |
| 2010-01-23T12:18 | 10105 | 283 | -33.2 | -41.7 | 109 | 16 |
| 2010-01-23T12:18 | 10137 | 282 | -33.5 | -41.9 | 108 | 17 |
| 2010-01-23T12:18 | 10168 | 281 | -33.8 | -42.2 | 107 | 17 |
| 2010-01-23T12:18 | 10202 | 280 | -34.1 | -42.5 | 106 | 17 |
| 2010-01-23T12:18 | 10233 | 278 | -34.4 | -43.1 | 105 | 17 |
| 2010-01-23T12:19 | 10266 | 277 | -34.7 | -43.4 | 105 | 18 |
| 2010-01-23T12:19 | 10300 | 276 | -35.0 | -43.5 | 105 | 18 |
| 2010-01-23T12:19 | 10332 | 274 | -35.3 | -43.7 | 105 | 18 |
| 2010-01-23T12:19 | 10364 | 273 | -35.6 | -43.8 | 105 | 18 |
| 2010-01-23T12:19 | 10395 | 272 | -35.8 | -44.2 | 105 | 18 |
| 2010-01-23T12:19 | 10428 | 271 | -36.1 | -44.7 | 105 | 17 |
| 2010-01-23T12:20 | 10460 | 269 | -36.3 | -45.1 | 104 | 17 |
| 2010-01-23T12:20 | 10492 | 268 | -36.6 | -45.5 | 104 | 18 |
| 2010-01-23T12:20 | 10526 | 267 | -37.0 | -45.3 | 104 | 18 |
| 2010-01-23T12:20 | 10559 | 266 | -37.2 | -45.1 | 105 | 18 |
| 2010-01-23T12:20 | 10592 | 264 | -37.3 | -46.7 | 106 | 18 |
| 2010-01-23T12:20 | 10626 | 263 | -37.6 | -48.1 | 106 | 18 |
| 2010-01-23T12:21 | 10659 | 262 | -37.8 | -48.8 | 105 | 18 |
| 2010-01-23T12:21 | 10694 | 260 | -38.2 | -48.8 | 103 | 18 |
| 2010-01-23T12:21 | 10731 | 259 | -38.5 | -48.7 | 100 | 18 |
| 2010-01-23T12:21 | 10765 | 258 | -38.6 | -47.5 | 97 | 19 |
| 2010-01-23T12:21 | 10801 | 256 | -38.9 | -46.8 | 96 | 19 |
| 2010-01-23T12:21 | 10836 | 255 | -39.2 | -46.8 | 95 | 19 |
| 2010-01-23T12:22 | 10872 | 254 | -39.5 | -47.0 | 93 | 20 |
| 2010-01-23T12:22 | 10908 | 252 | -39.8 | -47.0 | 92 | 20 |
| 2010-01-23T12:22 | 10946 | 251 | -40.0 | -47.0 | 90 | 21 |
| 2010-01-23T12:22 | 10986 | 250 | -40.3 | -47.2 | 87 | 21 |
| 2010-01-23T12:22 | 11029 | 248 | -40.5 | -47.1 | 83 | 21 |
| 2010-01-23T12:22 | 11077 | 246 | -40.8 | -47.1 | 80 | 21 |
| 2010-01-23T12:23 | 11130 | 244 | -41.1 | -47.1 | 77 | 21 |
| 2010-01-23T12:23 | 11180 | 242 | -41.5 | -46.8 | 76 | 21 |
| 2010-01-23T12:23 | 11234 | 241 | -42.0 | -46.5 | 75 | 22 |
| 2010-01-23T12:23 | 11281 | 239 | -42.4 | -46.6 | 73 | 22 |
| 2010-01-23T12:23 | 11323 | 237 | -42.8 | -46.7 | 72 | 22 |
| 2010-01-23T12:23 | 11363 | 236 | -43.1 | -46.8 | 72 | 21 |
| 2010-01-23T12:24 | 11403 | 235 | -43.4 | -47.2 | 72 | 21 |
| 2010-01-23T12:24 | 11439 | 233 | -43.7 | -47.6 | 72 | 21 |
| 2010-01-23T12:24 | 11477 | 232 | -44.0 | -48.3 | 72 | 21 |
| 2010-01-23T12:24 | 11516 | 231 | -44.4 | -49.5 | 72 | 21 |
| 2010-01-23T12:24 | 11555 | 229 | -44.7 | -50.3 | 73 | 21 |
| 2010-01-23T12:24 | 11594 | 228 | -45.1 | -50.8 | 73 | 21 |
| 2010-01-23T12:25 | 11634 | 227 | -45.4 | -51.5 | 74 | 21 |
| 2010-01-23T12:25 | 11671 | 225 | -45.8 | -51.8 | 75 | 21 |
| 2010-01-23T12:25 | 11706 | 224 | -46.0 | -51.9 | 76 | 20 |
| 2010-01-23T12:25 | 11743 | 223 | -46.3 | -52.2 | 77 | 21 |
| 2010-01-23T12:25 | 11781 | 222 | -46.7 | -52.4 | 77 | 21 |
| 2010-01-23T12:25 | 11820 | 220 | -47.1 | -52.4 | 78 | 21 |
| 2010-01-23T12:26 | 11858 | 219 | -47.4 | -52.9 | 78 | 21 |
| 2010-01-23T12:26 | 11894 | 218 | -47.8 | -53.3 | 79 | 21 |
| 2010-01-23T12:26 | 11932 | 217 | -48.1 | -53.6 | 79 | 22 |
| 2010-01-23T12:26 | 11970 | 215 | -48.3 | -54.3 | 80 | 22 |
| 2010-01-23T12:26 | 12009 | 214 | -48.6 | -55.2 | 80 | 23 |
| 2010-01-23T12:26 | 12051 | 213 | -48.8 | -56.1 | 79 | 24 |
| 2010-01-23T12:27 | 12096 | 211 | -49.1 | -57.5 | 79 | 25 |
| 2010-01-23T12:27 | 12145 | 210 | -49.4 | -58.8 | 78 | 25 |
| 2010-01-23T12:27 | 12189 | 208 | -49.8 | -59.8 | 78 | 26 |
| 2010-01-23T12:27 | 12232 | 207 | -50.2 | -60.6 | 77 | 26 |
| 2010-01-23T12:27 | 12274 | 206 | -50.6 | -61.2 | 77 | 26 |
| 2010-01-23T12:27 | 12316 | 204 | -51.0 | -61.6 | 76 | 26 |
| 2010-01-23T12:28 | 12358 | 203 | -51.4 | -61.8 | 76 | 26 |
| 2010-01-23T12:28 | 12401 | 202 | -51.8 | -62.0 | 74 | 26 |
| 2010-01-23T12:28 | 12444 | 200 | -52.1 | -62.0 | 73 | 26 |
| 2010-01-23T12:28 | 12488 | 199 | -52.5 | -62.1 | 73 | 27 |
| 2010-01-23T12:28 | 12532 | 198 | -52.9 | -62.2 | 73 | 27 |
| 2010-01-23T12:28 | 12576 | 196 | -53.3 | -62.3 | 73 | 27 |
| 2010-01-23T12:29 | 12625 | 195 | -53.8 | -62.4 | 73 | 28 |
| 2010-01-23T12:29 | 12676 | 193 | -54.3 | -62.5 | 72 | 28 |
| 2010-01-23T12:29 | 12723 | 192 | -54.8 | -62.6 | 71 | 27 |
| 2010-01-23T12:29 | 12767 | 191 | -55.2 | -62.5 | 71 | 27 |
| 2010-01-23T12:29 | 12810 | 189 | -55.6 | -62.5 | 71 | 27 |
| 2010-01-23T12:29 | 12854 | 188 | -56.1 | -62.5 | 71 | 27 |
| 2010-01-23T12:30 | 12898 | 187 | -56.5 | -62.5 | 71 | 27 |
| 2010-01-23T12:30 | 12940 | 185 | -56.9 | -62.6 | 71 | 27 |
| 2010-01-23T12:30 | 12977 | 184 | -57.3 | -62.6 | 71 | 27 |
| 2010-01-23T12:30 | 13014 | 183 | -57.5 | -62.5 | 72 | 27 |
| 2010-01-23T12:30 | 13049 | 182 | -57.6 | -62.6 | 73 | 28 |
| 2010-01-23T12:30 | 13082 | 181 | -57.8 | -62.9 | 74 | 28 |
| 2010-01-23T12:31 | 13115 | 180 | -58.0 | -63.3 | 74 | 29 |
| 2010-01-23T12:31 | 13147 | 179 | -58.3 | -63.6 | 74 | 29 |
| 2010-01-23T12:31 | 13176 | 179 | -58.5 | -64.0 | 73 | 30 |
| 2010-01-23T12:31 | 13209 | 178 | -58.8 | -64.4 | 73 | 30 |
| 2010-01-23T12:31 | 13238 | 177 | -59.0 | -64.8 | 73 | 30 |
| 2010-01-23T12:31 | 13270 | 176 | -59.2 | -65.2 | 72 | 31 |
| 2010-01-23T12:32 | 13302 | 175 | -59.4 | -65.7 | 72 | 31 |
| 2010-01-23T12:32 | 13336 | 174 | -59.6 | -66.2 | 71 | 30 |
| 2010-01-23T12:32 | 13369 | 173 | -59.9 | -66.8 | 71 | 30 |
| 2010-01-23T12:32 | 13402 | 172 | -60.2 | -67.3 | 71 | 30 |
| 2010-01-23T12:32 | 13437 | 171 | -60.5 | -67.8 | 71 | 30 |
| 2010-01-23T12:32 | 13471 | 170 | -60.8 | -68.4 | 72 | 30 |
| 2010-01-23T12:33 | 13506 | 169 | -61.0 | -69.1 | 72 | 30 |
| 2010-01-23T12:33 | 13542 | 168 | -61.3 | -69.7 | 73 | 30 |
| 2010-01-23T12:33 | 13574 | 168 | -61.6 | -70.2 | 73 | 30 |
| 2010-01-23T12:33 | 13609 | 167 | -61.9 | -70.6 | 73 | 29 |
| 2010-01-23T12:33 | 13646 | 166 | -62.2 | -71.0 | 74 | 29 |
| 2010-01-23T12:33 | 13682 | 165 | -62.6 | -71.3 | 74 | 29 |
| 2010-01-23T12:34 | 13720 | 164 | -62.9 | -71.6 | 74 | 29 |
| 2010-01-23T12:34 | 13755 | 163 | -63.2 | -71.9 | 75 | 29 |
| 2010-01-23T12:34 | 13794 | 162 | -63.6 | -72.1 | 76 | 28 |
| 2010-01-23T12:34 | 13837 | 161 | -64.0 | -72.3 | 77 | 28 |
| 2010-01-23T12:34 | 13881 | 159 | -64.3 | -72.4 | 79 | 28 |
| 2010-01-23T12:34 | 13921 | 158 | -64.7 | -72.6 | 80 | 28 |
| 2010-01-23T12:35 | 13959 | 157 | -65.0 | -72.7 | 80 | 27 |
| 2010-01-23T12:35 | 13998 | 156 | -65.2 | -72.7 | 81 | 27 |
| 2010-01-23T12:35 | 14036 | 155 | -65.6 | -72.9 | 83 | 26 |
| 2010-01-23T12:35 | 14074 | 154 | -65.7 | -73.1 | 84 | 26 |
| 2010-01-23T12:35 | 14111 | 154 | -66.0 | -73.5 | 85 | 27 |
| 2010-01-23T12:35 | 14155 | 152 | -66.3 | -73.8 | 86 | 27 |
| 2010-01-23T12:36 | 14201 | 151 | -66.7 | -74.1 | 87 | 27 |
| 2010-01-23T12:36 | 14243 | 150 | -67.1 | -74.4 | 88 | 27 |
| 2010-01-23T12:36 | 14285 | 149 | -67.6 | -74.7 | 89 | 28 |
| 2010-01-23T12:36 | 14327 | 148 | -67.9 | -75.0 | 90 | 28 |
| 2010-01-23T12:36 | 14366 | 147 | -68.3 | -75.1 | 91 | 28 |
| 2010-01-23T12:36 | 14407 | 146 | -68.7 | -75.3 | 91 | 28 |
| 2010-01-23T12:37 | 14448 | 145 | -69.1 | -75.5 | 91 | 28 |
| 2010-01-23T12:37 | 14491 | 144 | -69.5 | -75.7 | 91 | 28 |
| 2010-01-23T12:37 | 14528 | 143 | -69.8 | -75.8 | 92 | 28 |
| 2010-01-23T12:37 | 14569 | 142 | -70.1 | -76.0 | 92 | 28 |
| 2010-01-23T12:37 | 14607 | 141 | -70.4 | -76.1 | 93 | 28 |
| 2010-01-23T12:37 | 14648 | 140 | -70.7 | -76.3 | 94 | 29 |
| 2010-01-23T12:38 | 14690 | 139 | -71.0 | -76.4 | 95 | 29 |
| 2010-01-23T12:38 | 14728 | 138 | -71.2 | -76.5 | 96 | 30 |
| 2010-01-23T12:38 | 14768 | 138 | -71.6 | -76.8 | 96 | 30 |
| 2010-01-23T12:38 | 14806 | 137 | -72.0 | -77.1 | 96 | 30 |
| 2010-01-23T12:38 | 14845 | 136 | -72.3 | -77.4 | 97 | 31 |
| 2010-01-23T12:38 | 14885 | 135 | -72.7 | -77.7 | 96 | 31 |
| 2010-01-23T12:39 | 14922 | 134 | -73.1 | -78.0 | 96 | 31 |
| 2010-01-23T12:39 | 14961 | 133 | -73.4 | -78.3 | 96 | 32 |
| 2010-01-23T12:39 | 15001 | 132 | -73.7 | -78.6 | 96 | 32 |
| 2010-01-23T12:39 | 15040 | 131 | -74.0 | -78.9 | 97 | 33 |
| 2010-01-23T12:39 | 15077 | 130 | -74.3 | -79.3 | 96 | 33 |
| 2010-01-23T12:39 | 15114 | 130 | -74.6 | -79.6 | 96 | 33 |
| 2010-01-23T12:40 | 15149 | 129 | -74.8 | -79.9 | 96 | 34 |
| 2010-01-23T12:40 | 15186 | 128 | -75.1 | -80.3 | 96 | 34 |
| 2010-01-23T12:40 | 15223 | 127 | -75.3 | -80.6 | 96 | 34 |
| 2010-01-23T12:40 | 15260 | 126 | -75.2 | -80.6 | 97 | 33 |
| 2010-01-23T12:40 | 15296 | 126 | -75.3 | -80.8 | 98 | 32 |
| 2010-01-23T12:40 | 15332 | 125 | -75.3 | -81.0 | 99 | 31 |
| 2010-01-23T12:41 | 15370 | 124 | -75.4 | -81.2 | 100 | 31 |
| 2010-01-23T12:41 | 15407 | 123 | -75.6 | -81.6 | 101 | 30 |
| 2010-01-23T12:41 | 15443 | 122 | -75.8 | -81.9 | 102 | 30 |
| 2010-01-23T12:41 | 15480 | 122 | -76.2 | -82.4 | 103 | 29 |
| 2010-01-23T12:41 | 15519 | 121 | -76.6 | -82.8 | 104 | 29 |
| 2010-01-23T12:41 | 15557 | 120 | -76.9 | -83.2 | 105 | 29 |
| 2010-01-23T12:42 | 15596 | 119 | -77.2 | -83.6 | 106 | 28 |
| 2010-01-23T12:42 | 15634 | 118 | -77.5 | -84.0 | 107 | 28 |
| 2010-01-23T12:42 | 15673 | 118 | -77.8 | -84.3 | 108 | 28 |
| 2010-01-23T12:42 | 15712 | 117 | -78.2 | -84.6 | 109 | 28 |
| 2010-01-23T12:42 | 15751 | 116 | -78.6 | -85.0 | 109 | 28 |
| 2010-01-23T12:42 | 15791 | 115 | -78.9 | -85.4 | 109 | 28 |
| 2010-01-23T12:43 | 15829 | 115 | -79.3 | -85.7 | 109 | 27 |
| 2010-01-23T12:43 | 15867 | 114 | -79.7 | -86.0 | 109 | 27 |
| 2010-01-23T12:43 | 15905 | 113 | -80.0 | -86.3 | 109 | 27 |
| 2010-01-23T12:43 | 15945 | 112 | -80.3 | -86.6 | 109 | 27 |
| 2010-01-23T12:43 | 15986 | 111 | -80.7 | -86.9 | 108 | 28 |
| 2010-01-23T12:43 | 16024 | 111 | -80.9 | -87.1 | 107 | 29 |
| 2010-01-23T12:44 | 16061 | 110 | -80.9 | -87.1 | 106 | 29 |
| 2010-01-23T12:44 | 16097 | 109 | -81.0 | -87.1 | 104 | 29 |
| 2010-01-23T12:44 | 16135 | 108 | -81.2 | -87.3 | 103 | 30 |
| 2010-01-23T12:44 | 16171 | 108 | -80.7 | -86.8 | 101 | 31 |
| 2010-01-23T12:44 | 16208 | 107 | -80.6 | -86.7 | 100 | 31 |
| 2010-01-23T12:44 | 16244 | 106 | -80.8 | -86.9 | 98 | 30 |
| 2010-01-23T12:45 | 16279 | 106 | -80.8 | -87.0 | 97 | 28 |
| 2010-01-23T12:45 | 16316 | 105 | -79.5 | -85.8 | 96 | 26 |
| 2010-01-23T12:45 | 16352 | 104 | -78.8 | -85.3 | 95 | 24 |
| 2010-01-23T12:45 | 16388 | 104 | -78.2 | -84.8 | 96 | 21 |
| 2010-01-23T12:45 | 16424 | 103 | -77.2 | -84.0 | 98 | 19 |
| 2010-01-23T12:45 | 16459 | 102 | -76.9 | -83.9 | 102 | 18 |
| 2010-01-23T12:46 | 16493 | 102 | -76.7 | -83.9 | 104 | 17 |
| 2010-01-23T12:46 | 16530 | 101 | -76.7 | -84.0 | 104 | 15 |
| 2010-01-23T12:46 | 16564 | 101 | -75.8 | -83.4 | 103 | 12 |
| 2010-01-23T12:46 | 16600 | 100 | -75.5 | -83.2 | 101 | 10 |
| 2010-01-23T12:46 | 16636 | 99 | -75.3 | -83.3 | 100 | 9 |
| 2010-01-23T12:46 | 16671 | 99 | -75.4 | -83.6 | 101 | 8 |
| 2010-01-23T12:47 | 16707 | 98 | -75.5 | -83.8 | 104 | 6 |
| 2010-01-23T12:47 | 16745 | 97 | -75.4 | -83.9 | 107 | 5 |
| 2010-01-23T12:47 | 16780 | 97 | -75.3 | -84.0 | 114 | 3 |
| 2010-01-23T12:47 | 16820 | 96 | -75.3 | -84.2 | 124 | 2 |
| 2010-01-23T12:47 | 16861 | 96 | -75.4 | -84.5 | 145 | 2 |
| 2010-01-23T12:47 | 16903 | 95 | -75.6 | -84.8 | 177 | 2 |
| 2010-01-23T12:48 | 16944 | 94 | -75.7 | -85.1 | 205 | 2 |
| 2010-01-23T12:48 | 16981 | 94 | -76.1 | -85.6 | 226 | 3 |
| 2010-01-23T12:48 | 17019 | 93 | -76.3 | -85.9 | 240 | 4 |
| 2010-01-23T12:48 | 17058 | 92 | -76.5 | -86.2 | 247 | 5 |
| 2010-01-23T12:48 | 17096 | 92 | -76.7 | -86.5 | 248 | 6 |
| 2010-01-23T12:48 | 17132 | 91 | -76.9 | -86.8 | 247 | 7 |
| 2010-01-23T12:49 | 17169 | 91 | -77.0 | -87.0 | 245 | 9 |
| 2010-01-23T12:49 | 17205 | 90 | -77.2 | -87.3 | 247 | 10 |
| 2010-01-23T12:49 | 17241 | 89 | -76.8 | -87.0 | 251 | 12 |
| 2010-01-23T12:49 | 17275 | 89 | -76.2 | -86.7 | 255 | 13 |
| 2010-01-23T12:49 | 17312 | 88 | -75.9 | -86.4 | 258 | 15 |
| 2010-01-23T12:49 | 17350 | 88 | -76.0 | -86.6 | 260 | 16 |
| 2010-01-23T12:50 | 17389 | 87 | -76.2 | -86.8 | 262 | 17 |
| 2010-01-23T12:50 | 17425 | 87 | -76.4 | -87.0 | 262 | 18 |
| 2010-01-23T12:50 | 17461 | 86 | -76.6 | -87.3 | 262 | 18 |
| 2010-01-23T12:50 | 17498 | 86 | -76.9 | -87.6 | 261 | 19 |
| 2010-01-23T12:50 | 17533 | 85 | -77.2 | -87.9 | 261 | 19 |
| 2010-01-23T12:50 | 17569 | 84 | -77.4 | -88.2 | 259 | 20 |
| 2010-01-23T12:51 | 17605 | 84 | -77.7 | -88.5 | 258 | 22 |
| 2010-01-23T12:51 | 17639 | 83 | -77.8 | -88.7 | 258 | 23 |
| 2010-01-23T12:51 | 17673 | 83 | -77.8 | -88.8 | 259 | 23 |
| 2010-01-23T12:51 | 17706 | 82 | -77.9 | -88.8 | 260 | 23 |
| 2010-01-23T12:51 | 17741 | 82 | -78.2 | -89.1 | 261 | 23 |
| 2010-01-23T12:51 | 17777 | 81 | -78.4 | -89.3 | 261 | 22 |
| 2010-01-23T12:52 | 17811 | 81 | -78.5 | -89.4 | 260 | 22 |
| 2010-01-23T12:52 | 17845 | 81 | -78.5 | -89.4 | 260 | 21 |
| 2010-01-23T12:52 | 17879 | 80 | -78.5 | -89.5 | 261 | 20 |
| 2010-01-23T12:52 | 17915 | 80 | -78.7 | -89.6 | 263 | 19 |
| 2010-01-23T12:52 | 17949 | 79 | -78.3 | -89.3 | 265 | 18 |
| 2010-01-23T12:52 | 17983 | 79 | -77.9 | -89.0 | 265 | 18 |
| 2010-01-23T12:53 | 18019 | 78 | -78.0 | -89.0 | 263 | 17 |
| 2010-01-23T12:53 | 18053 | 78 | -78.0 | -89.1 | 261 | 17 |
| 2010-01-23T12:53 | 18088 | 77 | -77.8 | -89.0 | 261 | 17 |
| 2010-01-23T12:53 | 18122 | 77 | -77.9 | -89.1 | 263 | 17 |
| 2010-01-23T12:53 | 18158 | 76 | -78.0 | -89.2 | 265 | 17 |
| 2010-01-23T12:53 | 18193 | 76 | -78.0 | -89.2 | 267 | 16 |
| 2010-01-23T12:54 | 18227 | 75 | -78.2 | -89.4 | 268 | 16 |
| 2010-01-23T12:54 | 18263 | 75 | -78.5 | -89.6 | 269 | 17 |
| 2010-01-23T12:54 | 18299 | 74 | -78.8 | -89.9 | 270 | 17 |
| 2010-01-23T12:54 | 18336 | 74 | -79.1 | -90.2 | 270 | 18 |
| 2010-01-23T12:54 | 18371 | 73 | -79.3 | -90.4 | 271 | 17 |
| 2010-01-23T12:54 | 18407 | 73 | -79.2 | -90.3 | 272 | 17 |
| 2010-01-23T12:55 | 18443 | 72 | -79.4 | -90.5 | 273 | 16 |
| 2010-01-23T12:55 | 18480 | 72 | -79.6 | -90.6 | 275 | 16 |
| 2010-01-23T12:55 | 18515 | 72 | -79.6 | -90.6 | 276 | 15 |
| 2010-01-23T12:55 | 18549 | 71 | -79.1 | -90.2 | 280 | 15 |
| 2010-01-23T12:55 | 18583 | 71 | -78.4 | -89.7 | 283 | 15 |
| 2010-01-23T12:55 | 18617 | 70 | -78.0 | -89.3 | 285 | 15 |
| 2010-01-23T12:56 | 18652 | 70 | -78.0 | -89.2 | 286 | 15 |
| 2010-01-23T12:56 | 18685 | 69 | -78.0 | -89.2 | 287 | 14 |
| 2010-01-23T12:56 | 18720 | 69 | -78.0 | -89.2 | 285 | 13 |
| 2010-01-23T12:56 | 18755 | 69 | -77.9 | -89.2 | 282 | 12 |
| 2010-01-23T12:56 | 18790 | 68 | -77.9 | -89.3 | 278 | 13 |
| 2010-01-23T12:56 | 18825 | 68 | -78.1 | -89.4 | 275 | 13 |
| 2010-01-23T12:57 | 18861 | 67 | -78.4 | -89.7 | 274 | 13 |
| 2010-01-23T12:57 | 18895 | 67 | -78.7 | -89.9 | 275 | 13 |
| 2010-01-23T12:57 | 18929 | 67 | -78.8 | -90.1 | 276 | 13 |
| 2010-01-23T12:57 | 18964 | 66 | -79.0 | -90.2 | 278 | 12 |
| 2010-01-23T12:57 | 18998 | 66 | -79.1 | -90.3 | 281 | 12 |
| 2010-01-23T12:57 | 19033 | 65 | -79.1 | -90.3 | 284 | 11 |
| 2010-01-23T12:58 | 19067 | 65 | -78.4 | -89.8 | 285 | 11 |
| 2010-01-23T12:58 | 19101 | 65 | -78.2 | -89.6 | 282 | 11 |
| 2010-01-23T12:58 | 19137 | 64 | -78.1 | -89.4 | 277 | 10 |
| 2010-01-23T12:58 | 19172 | 64 | -78.2 | -89.5 | 273 | 9 |
| 2010-01-23T12:58 | 19206 | 63 | -78.2 | -89.6 | 271 | 8 |
| 2010-01-23T12:58 | 19239 | 63 | -77.9 | -89.3 | 271 | 8 |
| 2010-01-23T12:59 | 19272 | 63 | -77.6 | -89.0 | 272 | 8 |
| 2010-01-23T12:59 | 19306 | 62 | -77.5 | -88.9 | 274 | 9 |
| 2010-01-23T12:59 | 19340 | 62 | -77.7 | -89.1 | 277 | 10 |
| 2010-01-23T12:59 | 19373 | 62 | -77.8 | -89.2 | 279 | 10 |
| 2010-01-23T12:59 | 19407 | 61 | -77.9 | -89.3 | 278 | 10 |
| 2010-01-23T12:59 | 19439 | 61 | -77.8 | -89.3 | 275 | 9 |
| 2010-01-23T13:00 | 19474 | 61 | -77.9 | -89.4 | 272 | 9 |
| 2010-01-23T13:00 | 19508 | 60 | -77.8 | -89.3 | 269 | 9 |
| 2010-01-23T13:00 | 19542 | 60 | -77.6 | -89.2 | 269 | 8 |
| 2010-01-23T13:00 | 19577 | 59 | -77.8 | -89.3 | 269 | 9 |
| 2010-01-23T13:00 | 19613 | 59 | -78.1 | -89.6 | 270 | 9 |
| 2010-01-23T13:00 | 19647 | 59 | -78.3 | -89.8 | 271 | 9 |
| 2010-01-23T13:01 | 19683 | 58 | -78.4 | -89.9 | 275 | 8 |
| 2010-01-23T13:01 | 19719 | 58 | -78.4 | -89.9 | 280 | 8 |
| 2010-01-23T13:01 | 19753 | 58 | -78.6 | -90.1 | 285 | 7 |
| 2010-01-23T13:01 | 19789 | 57 | -78.5 | -90.0 | 289 | 7 |
| 2010-01-23T13:01 | 19824 | 57 | -78.6 | -90.0 | 292 | 7 |
| 2010-01-23T13:01 | 19860 | 57 | -78.5 | -90.0 | 293 | 7 |
| 2010-01-23T13:02 | 19893 | 56 | -78.1 | -89.7 | 292 | 8 |
| 2010-01-23T13:02 | 19928 | 56 | -77.6 | -89.3 | 291 | 7 |
| 2010-01-23T13:02 | 19962 | 56 | -77.1 | -88.8 | 290 | 6 |
| 2010-01-23T13:02 | 19996 | 55 | -77.0 | -88.7 | 285 | 5 |
| 2010-01-23T13:02 | 20031 | 55 | -76.8 | -88.5 | 275 | 5 |
| 2010-01-23T13:02 | 20065 | 55 | -76.5 | -88.3 | 267 | 4 |
| 2010-01-23T13:03 | 20099 | 54 | -76.4 | -88.3 | 264 | 4 |
| 2010-01-23T13:03 | 20134 | 54 | -76.6 | -88.4 | 265 | 4 |
| 2010-01-23T13:03 | 20169 | 54 | -76.8 | -88.6 | 265 | 4 |
| 2010-01-23T13:03 | 20202 | 53 | -76.9 | -88.8 | 264 | 5 |
| 2010-01-23T13:03 | 20234 | 53 | -77.1 | -88.9 | 263 | 5 |
| 2010-01-23T13:03 | 20267 | 53 | -77.2 | -89.1 | 262 | 5 |
| 2010-01-23T13:04 | 20299 | 52 | -77.3 | -89.2 | 266 | 4 |
| 2010-01-23T13:04 | 20332 | 52 | -76.9 | -88.9 | 280 | 3 |
| 2010-01-23T13:04 | 20363 | 52 | -76.7 | -88.7 | 336 | 2 |
| 2010-01-23T13:04 | 20396 | 52 | -74.9 | -87.4 | 18 | 3 |
| 2010-01-23T13:04 | 20429 | 51 | -72.8 | -85.8 | 18 | 5 |
| 2010-01-23T13:04 | 20462 | 51 | -70.4 | -84.0 | 9 | 7 |
| 2010-01-23T13:05 | 20496 | 51 | -68.6 | -82.5 | 1 | 9 |
| 2010-01-23T13:05 | 20531 | 50 | -68.6 | -82.6 | 356 | 10 |
| 2010-01-23T13:05 | 20566 | 50 | -68.8 | -83.1 | 353 | 11 |
| 2010-01-23T13:05 | 20599 | 50 | -69.1 | -83.6 | 352 | 12 |
| 2010-01-23T13:05 | 20632 | 50 | -69.2 | -84.1 | 353 | 13 |
| 2010-01-23T13:05 | 20665 | 49 | -69.3 | -84.6 | 355 | 13 |
| 2010-01-24T00:03 | 4 | 1008 | 29.6 | 24.5 | 320 | 5 |
| 2010-01-24T00:03 | 13 | 1007 | 27.8 | 22.6 | 318 | 5 |
| 2010-01-24T00:03 | 24 | 1006 | 27.6 | 22.7 | 317 | 4 |
| 2010-01-24T00:03 | 32 | 1005 | 27.4 | 22.7 | 316 | 4 |
| 2010-01-24T00:03 | 39 | 1004 | 27.2 | 22.8 | 316 | 5 |
| 2010-01-24T00:03 | 47 | 1004 | 27.1 | 22.9 | 316 | 5 |
| 2010-01-24T00:03 | 56 | 1003 | 26.9 | 22.8 | 317 | 5 |
| 2010-01-24T00:03 | 64 | 1002 | 26.8 | 22.8 | 317 | 6 |
| 2010-01-24T00:03 | 72 | 1001 | 26.7 | 22.8 | 318 | 6 |
| 2010-01-24T00:03 | 82 | 1000 | 26.6 | 22.8 | 319 | 6 |
| 2010-01-24T00:03 | 91 | 999 | 26.5 | 22.8 | 320 | 7 |
| 2010-01-24T00:03 | 102 | 997 | 26.4 | 22.7 | 321 | 7 |
| 2010-01-24T00:03 | 113 | 996 | 26.3 | 22.7 | 322 | 7 |
| 2010-01-24T00:03 | 124 | 995 | 26.1 | 22.7 | 322 | 7 |
| 2010-01-24T00:03 | 134 | 994 | 26.0 | 22.7 | 323 | 7 |
| 2010-01-24T00:03 | 145 | 993 | 25.9 | 22.7 | 323 | 7 |
| 2010-01-24T00:03 | 155 | 991 | 25.8 | 22.6 | 324 | 7 |
| 2010-01-24T00:03 | 166 | 990 | 25.7 | 22.5 | 324 | 8 |
| 2010-01-24T00:03 | 177 | 989 | 25.5 | 22.4 | 324 | 8 |
| 2010-01-24T00:03 | 187 | 988 | 25.4 | 22.4 | 324 | 8 |
| 2010-01-24T00:03 | 197 | 987 | 25.3 | 22.4 | 324 | 8 |
| 2010-01-24T00:03 | 206 | 986 | 25.2 | 22.4 | 324 | 8 |
| 2010-01-24T00:03 | 216 | 985 | 25.1 | 22.2 | 323 | 8 |
| 2010-01-24T00:03 | 227 | 983 | 25.0 | 22.3 | 323 | 8 |
| 2010-01-24T00:03 | 238 | 982 | 24.9 | 22.3 | 323 | 8 |
| 2010-01-24T00:03 | 249 | 981 | 24.7 | 22.2 | 323 | 8 |
| 2010-01-24T00:03 | 261 | 980 | 24.6 | 22.3 | 322 | 8 |
| 2010-01-24T00:03 | 274 | 978 | 24.5 | 22.2 | 322 | 8 |
| 2010-01-24T00:03 | 286 | 977 | 24.3 | 22.1 | 322 | 8 |
| 2010-01-24T00:03 | 298 | 976 | 24.2 | 22.0 | 322 | 8 |
| 2010-01-24T00:04 | 309 | 974 | 24.0 | 21.9 | 322 | 9 |
| 2010-01-24T00:04 | 320 | 973 | 23.9 | 21.9 | 321 | 9 |
| 2010-01-24T00:04 | 331 | 972 | 23.8 | 21.7 | 321 | 9 |
| 2010-01-24T00:04 | 343 | 971 | 23.7 | 21.6 | 321 | 9 |
| 2010-01-24T00:04 | 354 | 969 | 23.5 | 21.5 | 321 | 9 |
| 2010-01-24T00:04 | 365 | 968 | 23.4 | 21.5 | 321 | 9 |
| 2010-01-24T00:04 | 376 | 967 | 23.3 | 21.6 | 321 | 9 |
| 2010-01-24T00:04 | 386 | 966 | 23.2 | 21.5 | 321 | 9 |
| 2010-01-24T00:04 | 397 | 965 | 23.0 | 21.5 | 321 | 9 |
| 2010-01-24T00:04 | 407 | 963 | 22.9 | 21.5 | 321 | 9 |
| 2010-01-24T00:04 | 415 | 963 | 22.8 | 21.3 | 322 | 9 |
| 2010-01-24T00:04 | 426 | 961 | 22.7 | 21.2 | 322 | 9 |
| 2010-01-24T00:04 | 437 | 960 | 22.6 | 21.1 | 322 | 9 |
| 2010-01-24T00:04 | 447 | 959 | 22.5 | 21.0 | 322 | 9 |
| 2010-01-24T00:04 | 457 | 958 | 22.4 | 21.0 | 323 | 10 |
| 2010-01-24T00:04 | 468 | 957 | 22.2 | 21.0 | 323 | 10 |
| 2010-01-24T00:04 | 478 | 956 | 22.1 | 21.0 | 323 | 10 |
| 2010-01-24T00:04 | 490 | 954 | 22.0 | 20.9 | 323 | 10 |
| 2010-01-24T00:04 | 501 | 953 | 21.9 | 20.8 | 323 | 10 |
| 2010-01-24T00:04 | 511 | 952 | 21.8 | 20.6 | 323 | 10 |
| 2010-01-24T00:04 | 521 | 951 | 21.7 | 20.6 | 323 | 10 |
| 2010-01-24T00:04 | 532 | 950 | 21.6 | 20.5 | 323 | 10 |
| 2010-01-24T00:04 | 543 | 949 | 21.5 | 20.4 | 323 | 10 |
| 2010-01-24T00:04 | 552 | 948 | 21.4 | 20.2 | 323 | 10 |
| 2010-01-24T00:04 | 562 | 946 | 21.3 | 20.0 | 323 | 10 |
| 2010-01-24T00:04 | 573 | 945 | 21.2 | 19.8 | 323 | 10 |
| 2010-01-24T00:04 | 584 | 944 | 21.1 | 19.7 | 323 | 11 |
| 2010-01-24T00:04 | 594 | 943 | 21.0 | 19.7 | 322 | 11 |
| 2010-01-24T00:04 | 603 | 942 | 21.0 | 19.6 | 322 | 11 |
| 2010-01-24T00:04 | 613 | 941 | 20.9 | 19.6 | 322 | 11 |
| 2010-01-24T00:05 | 624 | 940 | 20.7 | 19.6 | 321 | 11 |
| 2010-01-24T00:05 | 636 | 939 | 20.5 | 19.6 | 321 | 11 |
| 2010-01-24T00:05 | 646 | 937 | 20.4 | 19.6 | 320 | 11 |
| 2010-01-24T00:05 | 656 | 936 | 20.3 | 19.4 | 320 | 11 |
| 2010-01-24T00:05 | 666 | 935 | 20.3 | 19.0 | 319 | 11 |
| 2010-01-24T00:05 | 676 | 934 | 20.2 | 19.0 | 319 | 11 |
| 2010-01-24T00:05 | 684 | 933 | 20.0 | 19.0 | 319 | 11 |
| 2010-01-24T00:05 | 693 | 932 | 20.0 | 18.8 | 319 | 11 |
| 2010-01-24T00:05 | 702 | 931 | 20.0 | 18.5 | 318 | 11 |
| 2010-01-24T00:05 | 710 | 931 | 20.0 | 18.3 | 318 | 12 |
| 2010-01-24T00:05 | 718 | 930 | 20.0 | 18.1 | 318 | 12 |
| 2010-01-24T00:05 | 729 | 929 | 19.9 | 18.1 | 318 | 12 |
| 2010-01-24T00:05 | 740 | 927 | 19.8 | 18.0 | 318 | 12 |
| 2010-01-24T00:05 | 750 | 926 | 19.7 | 18.0 | 318 | 11 |
| 2010-01-24T00:05 | 759 | 925 | 19.7 | 17.9 | 318 | 11 |
| 2010-01-24T00:05 | 768 | 924 | 19.6 | 17.8 | 318 | 11 |
| 2010-01-24T00:05 | 777 | 923 | 19.5 | 17.6 | 318 | 11 |
| 2010-01-24T00:05 | 787 | 922 | 19.4 | 17.6 | 318 | 11 |
| 2010-01-24T00:05 | 797 | 921 | 19.4 | 17.5 | 318 | 11 |
| 2010-01-24T00:05 | 807 | 920 | 19.3 | 17.5 | 319 | 11 |
| 2010-01-24T00:05 | 816 | 919 | 19.2 | 17.5 | 319 | 11 |
| 2010-01-24T00:05 | 826 | 918 | 19.1 | 17.4 | 319 | 11 |
| 2010-01-24T00:05 | 834 | 917 | 19.0 | 17.4 | 319 | 11 |
| 2010-01-24T00:05 | 844 | 916 | 18.9 | 17.4 | 318 | 11 |
| 2010-01-24T00:05 | 855 | 915 | 18.8 | 17.4 | 318 | 11 |
| 2010-01-24T00:05 | 865 | 914 | 18.8 | 17.4 | 318 | 11 |
| 2010-01-24T00:05 | 874 | 913 | 18.7 | 17.2 | 318 | 11 |
| 2010-01-24T00:05 | 883 | 912 | 18.6 | 17.1 | 318 | 11 |
| 2010-01-24T00:05 | 891 | 911 | 18.5 | 17.1 | 317 | 11 |
| 2010-01-24T00:05 | 900 | 910 | 18.5 | 17.0 | 317 | 11 |
| 2010-01-24T00:06 | 909 | 909 | 18.4 | 16.9 | 316 | 11 |
| 2010-01-24T00:06 | 919 | 908 | 18.3 | 16.9 | 315 | 11 |
| 2010-01-24T00:06 | 929 | 907 | 18.3 | 16.8 | 315 | 11 |
| 2010-01-24T00:06 | 938 | 906 | 18.3 | 16.7 | 314 | 11 |
| 2010-01-24T00:06 | 949 | 905 | 18.2 | 16.6 | 313 | 11 |
| 2010-01-24T00:06 | 958 | 904 | 18.1 | 16.5 | 312 | 11 |
| 2010-01-24T00:06 | 966 | 903 | 18.1 | 16.4 | 312 | 11 |
| 2010-01-24T00:06 | 976 | 902 | 18.0 | 16.3 | 311 | 11 |
| 2010-01-24T00:06 | 985 | 901 | 17.9 | 16.3 | 310 | 11 |
| 2010-01-24T00:06 | 995 | 900 | 17.8 | 16.3 | 309 | 11 |
| 2010-01-24T00:06 | 1004 | 899 | 17.8 | 16.2 | 309 | 11 |
| 2010-01-24T00:06 | 1013 | 898 | 17.7 | 16.2 | 308 | 11 |
| 2010-01-24T00:06 | 1022 | 897 | 17.7 | 16.0 | 307 | 11 |
| 2010-01-24T00:06 | 1032 | 896 | 17.7 | 15.9 | 307 | 10 |
| 2010-01-24T00:06 | 1043 | 895 | 17.6 | 15.8 | 306 | 10 |
| 2010-01-24T00:06 | 1053 | 894 | 17.5 | 15.7 | 306 | 10 |
| 2010-01-24T00:06 | 1064 | 893 | 17.4 | 15.6 | 305 | 10 |
| 2010-01-24T00:06 | 1073 | 892 | 17.5 | 15.4 | 305 | 11 |
| 2010-01-24T00:06 | 1082 | 891 | 17.5 | 15.3 | 304 | 11 |
| 2010-01-24T00:06 | 1093 | 890 | 17.4 | 15.2 | 304 | 11 |
| 2010-01-24T00:06 | 1102 | 889 | 17.3 | 15.1 | 304 | 11 |
| 2010-01-24T00:06 | 1112 | 888 | 17.2 | 15.0 | 303 | 11 |
| 2010-01-24T00:06 | 1122 | 887 | 17.1 | 15.0 | 303 | 11 |
| 2010-01-24T00:06 | 1131 | 886 | 17.0 | 14.9 | 303 | 11 |
| 2010-01-24T00:06 | 1141 | 885 | 16.9 | 14.9 | 302 | 11 |
| 2010-01-24T00:06 | 1148 | 884 | 16.8 | 14.9 | 302 | 11 |
| 2010-01-24T00:06 | 1158 | 883 | 16.8 | 14.9 | 302 | 11 |
| 2010-01-24T00:06 | 1168 | 882 | 16.7 | 14.8 | 302 | 11 |
| 2010-01-24T00:06 | 1177 | 881 | 16.6 | 14.7 | 302 | 11 |
| 2010-01-24T00:06 | 1187 | 880 | 16.5 | 14.5 | 302 | 11 |
| 2010-01-24T00:07 | 1197 | 879 | 16.5 | 14.4 | 302 | 11 |
| 2010-01-24T00:07 | 1207 | 878 | 16.4 | 14.3 | 302 | 11 |
| 2010-01-24T00:07 | 1217 | 877 | 16.3 | 14.3 | 302 | 11 |
| 2010-01-24T00:07 | 1228 | 876 | 16.3 | 14.2 | 302 | 11 |
| 2010-01-24T00:07 | 1238 | 875 | 16.2 | 14.1 | 302 | 11 |
| 2010-01-24T00:07 | 1248 | 874 | 16.2 | 14.0 | 302 | 11 |
| 2010-01-24T00:07 | 1257 | 873 | 16.1 | 13.9 | 302 | 11 |
| 2010-01-24T00:07 | 1264 | 872 | 16.1 | 13.8 | 302 | 11 |
| 2010-01-24T00:07 | 1272 | 872 | 16.0 | 13.8 | 302 | 11 |
| 2010-01-24T00:07 | 1279 | 871 | 16.0 | 13.6 | 301 | 11 |
| 2010-01-24T00:07 | 1288 | 870 | 15.9 | 13.6 | 301 | 11 |
| 2010-01-24T00:07 | 1298 | 869 | 15.8 | 13.6 | 300 | 11 |
| 2010-01-24T00:07 | 1308 | 868 | 15.7 | 13.6 | 299 | 11 |
| 2010-01-24T00:07 | 1317 | 867 | 15.6 | 13.5 | 299 | 11 |
| 2010-01-24T00:07 | 1327 | 866 | 15.6 | 13.3 | 298 | 11 |
| 2010-01-24T00:07 | 1337 | 865 | 15.5 | 13.3 | 298 | 11 |
| 2010-01-24T00:07 | 1348 | 864 | 15.4 | 13.2 | 297 | 11 |
| 2010-01-24T00:07 | 1358 | 863 | 15.4 | 13.1 | 297 | 11 |
| 2010-01-24T00:07 | 1367 | 862 | 15.4 | 12.9 | 296 | 11 |
| 2010-01-24T00:07 | 1375 | 861 | 15.5 | 12.5 | 296 | 11 |
| 2010-01-24T00:07 | 1383 | 860 | 15.5 | 12.4 | 296 | 11 |
| 2010-01-24T00:07 | 1392 | 859 | 15.5 | 12.4 | 296 | 11 |
| 2010-01-24T00:07 | 1403 | 858 | 15.5 | 12.7 | 296 | 12 |
| 2010-01-24T00:07 | 1413 | 857 | 15.5 | 12.8 | 296 | 12 |
| 2010-01-24T00:07 | 1423 | 856 | 15.5 | 12.9 | 297 | 12 |
| 2010-01-24T00:07 | 1432 | 855 | 15.4 | 12.8 | 297 | 12 |
| 2010-01-24T00:07 | 1442 | 854 | 15.4 | 12.8 | 297 | 12 |
| 2010-01-24T00:07 | 1452 | 853 | 15.3 | 12.8 | 297 | 12 |
| 2010-01-24T00:07 | 1461 | 852 | 15.3 | 12.8 | 297 | 12 |
| 2010-01-24T00:07 | 1470 | 852 | 15.2 | 12.7 | 297 | 12 |
| 2010-01-24T00:08 | 1478 | 851 | 15.2 | 12.7 | 297 | 12 |
| 2010-01-24T00:08 | 1487 | 850 | 15.1 | 12.5 | 297 | 12 |
| 2010-01-24T00:08 | 1496 | 849 | 15.1 | 12.4 | 297 | 12 |
| 2010-01-24T00:08 | 1505 | 848 | 15.1 | 12.3 | 297 | 12 |
| 2010-01-24T00:08 | 1514 | 847 | 15.1 | 12.2 | 297 | 12 |
| 2010-01-24T00:08 | 1523 | 846 | 15.1 | 12.1 | 297 | 12 |
| 2010-01-24T00:08 | 1531 | 845 | 15.1 | 12.1 | 298 | 12 |
| 2010-01-24T00:08 | 1540 | 845 | 15.0 | 11.9 | 298 | 12 |
| 2010-01-24T00:08 | 1549 | 844 | 15.0 | 11.8 | 298 | 13 |
| 2010-01-24T00:08 | 1559 | 843 | 15.0 | 11.6 | 298 | 13 |
| 2010-01-24T00:08 | 1570 | 841 | 15.0 | 11.5 | 298 | 13 |
| 2010-01-24T00:08 | 1581 | 840 | 15.0 | 11.4 | 298 | 13 |
| 2010-01-24T00:08 | 1590 | 840 | 14.9 | 11.3 | 298 | 13 |
| 2010-01-24T00:08 | 1599 | 839 | 14.9 | 11.2 | 299 | 13 |
| 2010-01-24T00:08 | 1608 | 838 | 14.8 | 11.2 | 299 | 13 |
| 2010-01-24T00:08 | 1618 | 837 | 14.8 | 11.2 | 299 | 13 |
| 2010-01-24T00:08 | 1628 | 836 | 14.7 | 11.1 | 299 | 12 |
| 2010-01-24T00:08 | 1637 | 835 | 14.7 | 11.1 | 299 | 12 |
| 2010-01-24T00:08 | 1647 | 834 | 14.6 | 11.1 | 299 | 12 |
| 2010-01-24T00:08 | 1657 | 833 | 14.6 | 11.0 | 299 | 12 |
| 2010-01-24T00:08 | 1667 | 832 | 14.5 | 10.9 | 299 | 12 |
| 2010-01-24T00:08 | 1677 | 831 | 14.5 | 10.8 | 299 | 12 |
| 2010-01-24T00:08 | 1687 | 830 | 14.5 | 10.6 | 299 | 12 |
| 2010-01-24T00:08 | 1697 | 829 | 14.4 | 10.4 | 299 | 12 |
| 2010-01-24T00:08 | 1707 | 828 | 14.4 | 10.3 | 299 | 12 |
| 2010-01-24T00:08 | 1716 | 827 | 14.3 | 10.3 | 299 | 12 |
| 2010-01-24T00:08 | 1727 | 826 | 14.3 | 10.3 | 299 | 12 |
| 2010-01-24T00:08 | 1738 | 825 | 14.2 | 10.2 | 299 | 12 |
| 2010-01-24T00:08 | 1748 | 824 | 14.3 | 10.1 | 299 | 12 |
| 2010-01-24T00:08 | 1758 | 823 | 14.3 | 10.0 | 299 | 12 |
| 2010-01-24T00:09 | 1769 | 822 | 14.4 | 9.9 | 299 | 12 |
| 2010-01-24T00:09 | 1779 | 821 | 14.3 | 9.8 | 299 | 12 |
| 2010-01-24T00:09 | 1789 | 820 | 14.3 | 9.7 | 299 | 12 |
| 2010-01-24T00:09 | 1800 | 819 | 14.3 | 9.5 | 299 | 12 |
| 2010-01-24T00:09 | 1810 | 818 | 14.3 | 9.4 | 299 | 12 |
| 2010-01-24T00:09 | 1819 | 817 | 14.2 | 9.4 | 299 | 12 |
| 2010-01-24T00:09 | 1829 | 816 | 14.2 | 9.3 | 300 | 12 |
| 2010-01-24T00:09 | 1840 | 815 | 14.2 | 9.1 | 300 | 12 |
| 2010-01-24T00:09 | 1849 | 814 | 14.2 | 9.1 | 301 | 12 |
| 2010-01-24T00:09 | 1859 | 813 | 14.1 | 9.0 | 302 | 12 |
| 2010-01-24T00:09 | 1870 | 812 | 14.1 | 8.9 | 303 | 12 |
| 2010-01-24T00:09 | 1880 | 811 | 14.1 | 8.8 | 303 | 12 |
| 2010-01-24T00:09 | 1892 | 810 | 14.1 | 8.6 | 304 | 12 |
| 2010-01-24T00:09 | 1903 | 809 | 14.1 | 8.5 | 305 | 12 |
| 2010-01-24T00:09 | 1913 | 808 | 14.0 | 8.4 | 305 | 12 |
| 2010-01-24T00:09 | 1922 | 807 | 14.0 | 8.4 | 305 | 12 |
| 2010-01-24T00:09 | 1933 | 806 | 14.0 | 8.2 | 306 | 12 |
| 2010-01-24T00:09 | 1941 | 805 | 14.0 | 8.1 | 306 | 12 |
| 2010-01-24T00:09 | 1951 | 804 | 14.0 | 7.9 | 306 | 12 |
| 2010-01-24T00:09 | 1962 | 803 | 13.9 | 7.8 | 306 | 12 |
| 2010-01-24T00:09 | 1972 | 802 | 13.9 | 7.7 | 305 | 12 |
| 2010-01-24T00:09 | 1983 | 801 | 13.9 | 7.6 | 305 | 12 |
| 2010-01-24T00:09 | 1993 | 801 | 13.8 | 7.6 | 304 | 12 |
| 2010-01-24T00:09 | 2021 | 798 | 13.8 | 7.4 | 303 | 12 |
| 2010-01-24T00:10 | 2072 | 793 | 13.5 | 7.3 | 301 | 12 |
| 2010-01-24T00:10 | 2123 | 788 | 13.4 | 6.6 | 299 | 13 |
| 2010-01-24T00:10 | 2174 | 783 | 13.5 | 6.1 | 296 | 14 |
| 2010-01-24T00:10 | 2223 | 779 | 13.3 | 6.0 | 294 | 14 |
| 2010-01-24T00:10 | 2272 | 774 | 12.9 | 6.0 | 291 | 15 |
| 2010-01-24T00:10 | 2324 | 770 | 12.7 | 6.1 | 288 | 16 |
| 2010-01-24T00:11 | 2374 | 765 | 12.5 | 5.9 | 285 | 16 |
| 2010-01-24T00:11 | 2424 | 761 | 12.2 | 6.0 | 283 | 16 |
| 2010-01-24T00:11 | 2471 | 756 | 11.9 | 5.9 | 282 | 16 |
| 2010-01-24T00:11 | 2518 | 752 | 11.6 | 5.8 | 281 | 17 |
| 2010-01-24T00:11 | 2568 | 748 | 11.1 | 6.7 | 281 | 17 |
| 2010-01-24T00:11 | 2618 | 743 | 10.7 | 7.3 | 281 | 17 |
| 2010-01-24T00:12 | 2666 | 739 | 10.6 | 6.6 | 280 | 17 |
| 2010-01-24T00:12 | 2719 | 734 | 10.1 | 6.3 | 278 | 17 |
| 2010-01-24T00:12 | 2769 | 730 | 9.7 | 6.5 | 276 | 18 |
| 2010-01-24T00:12 | 2817 | 726 | 9.8 | 4.9 | 274 | 19 |
| 2010-01-24T00:12 | 2865 | 721 | 9.5 | 4.4 | 272 | 19 |
| 2010-01-24T00:12 | 2908 | 718 | 9.3 | 4.3 | 270 | 18 |
| 2010-01-24T00:13 | 2952 | 714 | 9.0 | 5.1 | 271 | 18 |
| 2010-01-24T00:13 | 2999 | 710 | 8.7 | 5.9 | 273 | 18 |
| 2010-01-24T00:13 | 3048 | 706 | 8.4 | 5.4 | 276 | 17 |
| 2010-01-24T00:13 | 3095 | 702 | 8.3 | 4.8 | 278 | 17 |
| 2010-01-24T00:13 | 3145 | 697 | 8.2 | 4.1 | 279 | 16 |
| 2010-01-24T00:13 | 3194 | 693 | 7.9 | 3.6 | 280 | 16 |
| 2010-01-24T00:14 | 3240 | 690 | 7.7 | 3.3 | 281 | 15 |
| 2010-01-24T00:14 | 3290 | 685 | 7.4 | 3.2 | 280 | 15 |
| 2010-01-24T00:14 | 3344 | 681 | 7.0 | 3.1 | 279 | 15 |
| 2010-01-24T00:14 | 3402 | 676 | 6.5 | 2.9 | 280 | 14 |
| 2010-01-24T00:14 | 3456 | 672 | 6.1 | 2.6 | 282 | 14 |
| 2010-01-24T00:14 | 3515 | 667 | 5.7 | 2.4 | 283 | 13 |
| 2010-01-24T00:15 | 3572 | 662 | 5.5 | 2.1 | 283 | 13 |
| 2010-01-24T00:15 | 3627 | 658 | 5.0 | 1.9 | 282 | 13 |
| 2010-01-24T00:15 | 3677 | 654 | 5.2 | 1.8 | 282 | 12 |
| 2010-01-24T00:15 | 3736 | 649 | 5.1 | 1.2 | 283 | 13 |
| 2010-01-24T00:15 | 3789 | 645 | 4.7 | 0.8 | 282 | 13 |
| 2010-01-24T00:15 | 3844 | 641 | 4.3 | 0.6 | 281 | 13 |
| 2010-01-24T00:16 | 3898 | 636 | 4.0 | 0.2 | 281 | 12 |
| 2010-01-24T00:16 | 3951 | 632 | 3.8 | -0.4 | 284 | 12 |
| 2010-01-24T00:16 | 4010 | 628 | 3.4 | -0.5 | 285 | 12 |
| 2010-01-24T00:16 | 4069 | 623 | 2.9 | -0.6 | 285 | 12 |
| 2010-01-24T00:16 | 4125 | 619 | 2.5 | -0.7 | 285 | 12 |
| 2010-01-24T00:16 | 4183 | 614 | 2.1 | -0.9 | 284 | 12 |
| 2010-01-24T00:17 | 4243 | 610 | 1.6 | -1.0 | 284 | 12 |
| 2010-01-24T00:17 | 4299 | 606 | 1.2 | -1.2 | 285 | 12 |
| 2010-01-24T00:17 | 4356 | 601 | 0.8 | -1.5 | 287 | 12 |
| 2010-01-24T00:17 | 4414 | 597 | 0.5 | -2.2 | 289 | 12 |
| 2010-01-24T00:17 | 4473 | 593 | 0.3 | -3.7 | 292 | 12 |
| 2010-01-24T00:17 | 4532 | 588 | 0.0 | -4.6 | 295 | 12 |
| 2010-01-24T00:18 | 4595 | 584 | -0.3 | -6.4 | 297 | 12 |
| 2010-01-24T00:18 | 4651 | 580 | -0.7 | -6.4 | 298 | 13 |
| 2010-01-24T00:18 | 4709 | 575 | -0.9 | -5.8 | 299 | 14 |
| 2010-01-24T00:18 | 4764 | 571 | -1.2 | -6.2 | 300 | 13 |
| 2010-01-24T00:18 | 4821 | 567 | -1.5 | -8.2 | 300 | 13 |
| 2010-01-24T00:18 | 4876 | 564 | -1.7 | -10.8 | 300 | 12 |
| 2010-01-24T00:19 | 4927 | 560 | -1.8 | -11.8 | 301 | 12 |
| 2010-01-24T00:19 | 4977 | 556 | -1.7 | -17.7 | 300 | 12 |
| 2010-01-24T00:19 | 5030 | 553 | -1.9 | -18.1 | 298 | 12 |
| 2010-01-24T00:19 | 5083 | 549 | -2.2 | -18.0 | 298 | 12 |
| 2010-01-24T00:19 | 5139 | 545 | -2.5 | -16.2 | 298 | 13 |
| 2010-01-24T00:19 | 5194 | 541 | -2.8 | -16.2 | 299 | 12 |
| 2010-01-24T00:20 | 5243 | 538 | -3.1 | -15.1 | 299 | 12 |
| 2010-01-24T00:20 | 5302 | 534 | -3.5 | -14.9 | 298 | 12 |
| 2010-01-24T00:20 | 5361 | 530 | -3.9 | -15.9 | 295 | 11 |
| 2010-01-24T00:20 | 5422 | 526 | -4.4 | -16.2 | 292 | 11 |
| 2010-01-24T00:20 | 5481 | 522 | -4.9 | -16.3 | 290 | 11 |
| 2010-01-24T00:20 | 5541 | 518 | -5.4 | -15.6 | 288 | 10 |
| 2010-01-24T00:21 | 5605 | 514 | -6.0 | -14.7 | 284 | 10 |
| 2010-01-24T00:21 | 5660 | 510 | -6.4 | -13.3 | 280 | 9 |
| 2010-01-24T00:21 | 5723 | 506 | -6.9 | -12.3 | 273 | 8 |
| 2010-01-24T00:21 | 5788 | 502 | -7.4 | -10.9 | 264 | 8 |
| 2010-01-24T00:21 | 5845 | 498 | -7.1 | -11.7 | 252 | 8 |
| 2010-01-24T00:21 | 5907 | 494 | -7.1 | -15.7 | 240 | 7 |
| 2010-01-24T00:22 | 5964 | 491 | -7.4 | -16.8 | 233 | 6 |
| 2010-01-24T00:22 | 6019 | 487 | -7.3 | -17.0 | 227 | 6 |
| 2010-01-24T00:22 | 6081 | 483 | -7.7 | -19.0 | 223 | 5 |
| 2010-01-24T00:22 | 6140 | 480 | -7.9 | -22.8 | 222 | 5 |
| 2010-01-24T00:22 | 6198 | 476 | -8.4 | -22.0 | 222 | 5 |
| 2010-01-24T00:22 | 6260 | 472 | -9.0 | -21.1 | 215 | 5 |
| 2010-01-24T00:23 | 6318 | 469 | -9.2 | -25.8 | 202 | 5 |
| 2010-01-24T00:23 | 6382 | 465 | -9.5 | -25.8 | 188 | 6 |
| 2010-01-24T00:23 | 6445 | 461 | -9.9 | -25.0 | 176 | 7 |
| 2010-01-24T00:23 | 6504 | 458 | -10.2 | -19.3 | 166 | 7 |
| 2010-01-24T00:23 | 6564 | 454 | -10.2 | -16.1 | 159 | 8 |
| 2010-01-24T00:23 | 6618 | 451 | -10.4 | -17.3 | 155 | 9 |
| 2010-01-24T00:24 | 6665 | 448 | -10.7 | -17.4 | 153 | 9 |
| 2010-01-24T00:24 | 6703 | 446 | -10.7 | -16.6 | 152 | 9 |
| 2010-01-24T00:24 | 6748 | 443 | -10.3 | -17.7 | 154 | 9 |
| 2010-01-24T00:24 | 6793 | 441 | -10.3 | -19.7 | 156 | 8 |
| 2010-01-24T00:24 | 6835 | 438 | -10.7 | -19.7 | 159 | 9 |
| 2010-01-24T00:24 | 6879 | 436 | -11.0 | -18.8 | 162 | 9 |
| 2010-01-24T00:25 | 6921 | 434 | -11.3 | -17.8 | 167 | 8 |
| 2010-01-24T00:25 | 6966 | 431 | -11.7 | -18.1 | 171 | 8 |
| 2010-01-24T00:25 | 7007 | 429 | -11.9 | -19.2 | 174 | 8 |
| 2010-01-24T00:25 | 7049 | 426 | -12.2 | -20.7 | 177 | 8 |
| 2010-01-24T00:25 | 7095 | 424 | -12.4 | -22.1 | 177 | 8 |
| 2010-01-24T00:25 | 7149 | 421 | -12.4 | -22.0 | 174 | 8 |
| 2010-01-24T00:26 | 7192 | 419 | -12.7 | -22.4 | 170 | 9 |
| 2010-01-24T00:26 | 7235 | 416 | -13.1 | -22.4 | 167 | 9 |
| 2010-01-24T00:26 | 7285 | 413 | -13.5 | -22.6 | 167 | 9 |
| 2010-01-24T00:26 | 7335 | 411 | -13.9 | -22.9 | 169 | 9 |
| 2010-01-24T00:26 | 7379 | 408 | -14.4 | -23.3 | 172 | 9 |
| 2010-01-24T00:26 | 7419 | 406 | -14.7 | -23.4 | 171 | 10 |
| 2010-01-24T00:27 | 7460 | 404 | -15.1 | -23.8 | 168 | 10 |
| 2010-01-24T00:27 | 7501 | 402 | -15.3 | -24.0 | 167 | 11 |
| 2010-01-24T00:27 | 7536 | 400 | -15.6 | -23.7 | 166 | 11 |
| 2010-01-24T00:27 | 7571 | 398 | -15.9 | -23.5 | 164 | 11 |
| 2010-01-24T00:27 | 7624 | 395 | -16.1 | -22.6 | 163 | 11 |
| 2010-01-24T00:27 | 7663 | 393 | -16.3 | -22.7 | 164 | 11 |
| 2010-01-24T00:28 | 7702 | 391 | -16.8 | -22.9 | 165 | 12 |
| 2010-01-24T00:28 | 7747 | 389 | -17.1 | -23.0 | 165 | 12 |
| 2010-01-24T00:28 | 7792 | 387 | -17.6 | -23.1 | 165 | 12 |
| 2010-01-24T00:28 | 7838 | 384 | -18.0 | -23.2 | 166 | 13 |
| 2010-01-24T00:28 | 7879 | 382 | -18.2 | -23.5 | 164 | 13 |
| 2010-01-24T00:28 | 7918 | 380 | -18.6 | -24.0 | 160 | 13 |
| 2010-01-24T00:29 | 7959 | 378 | -18.8 | -24.1 | 157 | 13 |
| 2010-01-24T00:29 | 8003 | 376 | -19.0 | -24.4 | 155 | 13 |
| 2010-01-24T00:29 | 8040 | 374 | -19.3 | -24.7 | 153 | 12 |
| 2010-01-24T00:29 | 8076 | 372 | -19.2 | -24.4 | 150 | 12 |
| 2010-01-24T00:29 | 8115 | 370 | -19.3 | -24.2 | 149 | 11 |
| 2010-01-24T00:29 | 8149 | 368 | -19.6 | -24.2 | 147 | 11 |
| 2010-01-24T00:30 | 8186 | 367 | -19.8 | -24.4 | 144 | 11 |
| 2010-01-24T00:30 | 8227 | 365 | -20.0 | -24.5 | 140 | 11 |
| 2010-01-24T00:30 | 8268 | 363 | -20.3 | -24.6 | 135 | 11 |
| 2010-01-24T00:30 | 8315 | 360 | -20.4 | -24.4 | 130 | 11 |
| 2010-01-24T00:30 | 8363 | 358 | -20.6 | -24.5 | 127 | 10 |
| 2010-01-24T00:30 | 8408 | 356 | -21.0 | -24.8 | 124 | 10 |
| 2010-01-24T00:31 | 8450 | 354 | -21.3 | -25.2 | 119 | 9 |
| 2010-01-24T00:31 | 8487 | 352 | -21.3 | -26.2 | 116 | 9 |
| 2010-01-24T00:31 | 8532 | 350 | -21.6 | -27.2 | 114 | 8 |
| 2010-01-24T00:31 | 8576 | 348 | -21.9 | -27.8 | 112 | 8 |
| 2010-01-24T00:31 | 8621 | 346 | -22.3 | -28.1 | 109 | 9 |
| 2010-01-24T00:31 | 8673 | 343 | -22.8 | -28.4 | 107 | 10 |
| 2010-01-24T00:32 | 8720 | 341 | -23.2 | -28.6 | 106 | 10 |
| 2010-01-24T00:32 | 8763 | 339 | -23.6 | -28.8 | 104 | 11 |
| 2010-01-24T00:32 | 8811 | 337 | -24.0 | -29.1 | 103 | 11 |
| 2010-01-24T00:32 | 8865 | 334 | -24.3 | -29.1 | 102 | 12 |
| 2010-01-24T00:32 | 8905 | 333 | -24.7 | -29.2 | 100 | 13 |
| 2010-01-24T00:32 | 8944 | 331 | -24.9 | -29.4 | 99 | 14 |
| 2010-01-24T00:33 | 8978 | 329 | -25.0 | -30.0 | 97 | 14 |
| 2010-01-24T00:33 | 9014 | 328 | -25.2 | -30.5 | 95 | 14 |
| 2010-01-24T00:33 | 9047 | 326 | -25.4 | -30.7 | 93 | 15 |
| 2010-01-24T00:33 | 9082 | 325 | -25.7 | -30.6 | 93 | 15 |
| 2010-01-24T00:33 | 9116 | 323 | -26.0 | -30.5 | 93 | 15 |
| 2010-01-24T00:33 | 9149 | 322 | -26.2 | -31.0 | 93 | 15 |
| 2010-01-24T00:34 | 9182 | 320 | -26.5 | -31.4 | 93 | 15 |
| 2010-01-24T00:34 | 9218 | 318 | -26.7 | -31.8 | 93 | 15 |
| 2010-01-24T00:34 | 9253 | 317 | -26.9 | -33.1 | 93 | 14 |
| 2010-01-24T00:34 | 9290 | 315 | -27.1 | -34.1 | 94 | 13 |
| 2010-01-24T00:34 | 9328 | 314 | -27.4 | -34.3 | 95 | 13 |
| 2010-01-24T00:34 | 9363 | 312 | -27.6 | -34.8 | 97 | 13 |
| 2010-01-24T00:35 | 9399 | 311 | -27.9 | -35.2 | 98 | 13 |
| 2010-01-24T00:35 | 9437 | 309 | -28.2 | -35.7 | 98 | 13 |
| 2010-01-24T00:35 | 9475 | 307 | -28.6 | -35.7 | 96 | 13 |
| 2010-01-24T00:35 | 9514 | 306 | -28.9 | -36.3 | 94 | 13 |
| 2010-01-24T00:35 | 9554 | 304 | -29.2 | -36.8 | 93 | 13 |
| 2010-01-24T00:35 | 9594 | 302 | -29.5 | -37.3 | 92 | 12 |
| 2010-01-24T00:36 | 9633 | 301 | -29.7 | -37.9 | 92 | 12 |
| 2010-01-24T00:36 | 9674 | 299 | -30.0 | -38.4 | 91 | 11 |
| 2010-01-24T00:36 | 9714 | 297 | -30.3 | -38.6 | 91 | 11 |
| 2010-01-24T00:36 | 9754 | 295 | -30.7 | -39.1 | 91 | 11 |
| 2010-01-24T00:36 | 9796 | 294 | -31.1 | -39.3 | 91 | 11 |
| 2010-01-24T00:36 | 9837 | 292 | -31.5 | -39.5 | 90 | 11 |
| 2010-01-24T00:37 | 9881 | 290 | -31.9 | -39.8 | 89 | 11 |
| 2010-01-24T00:37 | 9923 | 289 | -32.3 | -39.9 | 89 | 10 |
| 2010-01-24T00:37 | 9963 | 287 | -32.5 | -40.9 | 89 | 9 |
| 2010-01-24T00:37 | 10005 | 285 | -32.8 | -41.7 | 88 | 9 |
| 2010-01-24T00:37 | 10046 | 284 | -33.1 | -42.0 | 87 | 9 |
| 2010-01-24T00:37 | 10089 | 282 | -33.5 | -42.2 | 86 | 9 |
| 2010-01-24T00:38 | 10131 | 280 | -33.8 | -42.5 | 86 | 9 |
| 2010-01-24T00:38 | 10173 | 278 | -34.2 | -43.0 | 85 | 9 |
| 2010-01-24T00:38 | 10216 | 277 | -34.6 | -43.0 | 85 | 9 |
| 2010-01-24T00:38 | 10259 | 275 | -35.0 | -43.3 | 84 | 10 |
| 2010-01-24T00:38 | 10304 | 273 | -35.5 | -43.4 | 84 | 11 |
| 2010-01-24T00:38 | 10345 | 272 | -35.7 | -44.3 | 85 | 11 |
| 2010-01-24T00:39 | 10385 | 270 | -36.0 | -45.9 | 85 | 12 |
| 2010-01-24T00:39 | 10427 | 268 | -36.3 | -48.2 | 85 | 12 |
| 2010-01-24T00:39 | 10468 | 267 | -36.6 | -49.2 | 85 | 12 |
| 2010-01-24T00:39 | 10510 | 265 | -37.0 | -49.8 | 84 | 12 |
| 2010-01-24T00:39 | 10552 | 264 | -37.3 | -50.2 | 83 | 12 |
| 2010-01-24T00:39 | 10594 | 262 | -37.8 | -49.8 | 82 | 13 |
| 2010-01-24T00:40 | 10635 | 261 | -38.1 | -49.7 | 81 | 13 |
| 2010-01-24T00:40 | 10676 | 259 | -38.4 | -51.5 | 80 | 13 |
| 2010-01-24T00:40 | 10717 | 257 | -38.7 | -52.7 | 80 | 13 |
| 2010-01-24T00:40 | 10758 | 256 | -39.0 | -53.5 | 79 | 14 |
| 2010-01-24T00:40 | 10798 | 254 | -39.4 | -53.4 | 79 | 14 |
| 2010-01-24T00:40 | 10837 | 253 | -39.7 | -54.7 | 79 | 13 |
| 2010-01-24T00:41 | 10876 | 252 | -40.1 | -55.3 | 79 | 13 |
| 2010-01-24T00:41 | 10916 | 250 | -40.5 | -55.1 | 78 | 13 |
| 2010-01-24T00:41 | 10956 | 249 | -40.7 | -56.3 | 77 | 13 |
| 2010-01-24T00:41 | 10995 | 247 | -41.1 | -57.9 | 76 | 14 |
| 2010-01-24T00:41 | 11034 | 246 | -41.4 | -58.2 | 75 | 13 |
| 2010-01-24T00:41 | 11072 | 244 | -41.8 | -58.3 | 75 | 13 |
| 2010-01-24T00:42 | 11111 | 243 | -42.1 | -58.3 | 73 | 13 |
| 2010-01-24T00:42 | 11147 | 242 | -42.4 | -58.7 | 73 | 13 |
| 2010-01-24T00:42 | 11186 | 240 | -42.7 | -60.3 | 72 | 13 |
| 2010-01-24T00:42 | 11224 | 239 | -43.0 | -60.8 | 72 | 13 |
| 2010-01-24T00:42 | 11262 | 238 | -43.4 | -61.8 | 71 | 13 |
| 2010-01-24T00:42 | 11301 | 236 | -43.7 | -61.8 | 71 | 13 |
| 2010-01-24T00:43 | 11339 | 235 | -44.1 | -62.6 | 71 | 13 |
| 2010-01-24T00:43 | 11379 | 233 | -44.4 | -63.6 | 72 | 13 |
| 2010-01-24T00:43 | 11418 | 232 | -44.8 | -64.5 | 72 | 14 |
| 2010-01-24T00:43 | 11455 | 231 | -45.1 | -64.7 | 72 | 14 |
| 2010-01-24T00:43 | 11491 | 230 | -45.5 | -65.0 | 73 | 14 |
| 2010-01-24T00:43 | 11529 | 228 | -45.8 | -65.1 | 73 | 14 |
| 2010-01-24T00:44 | 11570 | 227 | -46.2 | -65.3 | 73 | 14 |
| 2010-01-24T00:44 | 11606 | 226 | -46.5 | -65.5 | 74 | 14 |
| 2010-01-24T00:44 | 11645 | 224 | -46.9 | -65.7 | 75 | 14 |
| 2010-01-24T00:44 | 11685 | 223 | -47.3 | -65.8 | 76 | 14 |
| 2010-01-24T00:44 | 11727 | 222 | -47.7 | -65.4 | 77 | 14 |
| 2010-01-24T00:44 | 11768 | 220 | -48.0 | -64.6 | 78 | 15 |
| 2010-01-24T00:45 | 11807 | 219 | -48.5 | -63.5 | 78 | 15 |
| 2010-01-24T00:45 | 11845 | 218 | -48.8 | -61.9 | 78 | 16 |
| 2010-01-24T00:45 | 11882 | 216 | -49.2 | -61.5 | 77 | 16 |
| 2010-01-24T00:45 | 11919 | 215 | -49.5 | -61.2 | 78 | 16 |
| 2010-01-24T00:45 | 11957 | 214 | -49.9 | -61.2 | 79 | 17 |
| 2010-01-24T00:45 | 11993 | 213 | -50.2 | -61.6 | 80 | 17 |
| 2010-01-24T00:46 | 12031 | 212 | -50.5 | -62.9 | 80 | 17 |
| 2010-01-24T00:46 | 12072 | 210 | -50.8 | -64.1 | 80 | 17 |
| 2010-01-24T00:46 | 12113 | 209 | -51.2 | -65.3 | 80 | 18 |
| 2010-01-24T00:46 | 12151 | 208 | -51.5 | -66.0 | 80 | 18 |
| 2010-01-24T00:46 | 12191 | 206 | -51.9 | -66.4 | 80 | 18 |
| 2010-01-24T00:46 | 12229 | 205 | -52.3 | -66.8 | 80 | 18 |
| 2010-01-24T00:47 | 12268 | 204 | -52.6 | -67.2 | 80 | 18 |
| 2010-01-24T00:47 | 12308 | 203 | -53.0 | -67.3 | 80 | 18 |
| 2010-01-24T00:47 | 12348 | 201 | -53.4 | -67.3 | 79 | 18 |
| 2010-01-24T00:47 | 12389 | 200 | -53.7 | -67.5 | 78 | 19 |
| 2010-01-24T00:47 | 12431 | 199 | -54.0 | -67.8 | 78 | 19 |
| 2010-01-24T00:47 | 12472 | 198 | -54.5 | -68.2 | 77 | 19 |
| 2010-01-24T00:48 | 12512 | 196 | -54.8 | -68.4 | 76 | 20 |
| 2010-01-24T00:48 | 12552 | 195 | -55.2 | -68.7 | 76 | 20 |
| 2010-01-24T00:48 | 12591 | 194 | -55.5 | -68.8 | 75 | 20 |
| 2010-01-24T00:48 | 12632 | 193 | -55.9 | -69.0 | 76 | 20 |
| 2010-01-24T00:48 | 12672 | 191 | -56.3 | -69.3 | 77 | 20 |
| 2010-01-24T00:48 | 12712 | 190 | -56.7 | -69.6 | 77 | 20 |
| 2010-01-24T00:49 | 12753 | 189 | -57.0 | -69.9 | 77 | 20 |
| 2010-01-24T00:49 | 12792 | 188 | -57.5 | -70.3 | 77 | 20 |
| 2010-01-24T00:49 | 12832 | 187 | -57.8 | -70.5 | 78 | 20 |
| 2010-01-24T00:49 | 12871 | 186 | -58.2 | -70.9 | 79 | 20 |
| 2010-01-24T00:49 | 12912 | 184 | -58.6 | -71.1 | 79 | 20 |
| 2010-01-24T00:49 | 12953 | 183 | -59.0 | -71.1 | 79 | 19 |
| 2010-01-24T00:50 | 12995 | 182 | -59.3 | -71.0 | 80 | 19 |
| 2010-01-24T00:50 | 13035 | 181 | -59.7 | -70.9 | 81 | 19 |
| 2010-01-24T00:50 | 13075 | 180 | -60.1 | -70.8 | 81 | 19 |
| 2010-01-24T00:50 | 13114 | 178 | -60.4 | -71.0 | 82 | 20 |
| 2010-01-24T00:50 | 13154 | 177 | -60.9 | -71.5 | 83 | 20 |
| 2010-01-24T00:50 | 13195 | 176 | -61.3 | -71.8 | 83 | 20 |
| 2010-01-24T00:51 | 13236 | 175 | -61.6 | -72.0 | 83 | 20 |
| 2010-01-24T00:51 | 13276 | 174 | -62.0 | -71.8 | 82 | 20 |
| 2010-01-24T00:51 | 13316 | 173 | -62.3 | -71.8 | 80 | 20 |
| 2010-01-24T00:51 | 13357 | 172 | -62.7 | -72.0 | 79 | 20 |
| 2010-01-24T00:51 | 13400 | 170 | -63.1 | -72.2 | 79 | 21 |
| 2010-01-24T00:51 | 13441 | 169 | -63.4 | -72.4 | 78 | 21 |
| 2010-01-24T00:52 | 13483 | 168 | -63.8 | -72.7 | 78 | 22 |
| 2010-01-24T00:52 | 13524 | 167 | -64.1 | -72.9 | 79 | 23 |
| 2010-01-24T00:52 | 13566 | 166 | -64.4 | -73.2 | 80 | 24 |
| 2010-01-24T00:52 | 13607 | 165 | -64.6 | -73.5 | 80 | 24 |
| 2010-01-24T00:52 | 13650 | 164 | -64.9 | -74.0 | 80 | 25 |
| 2010-01-24T00:52 | 13691 | 162 | -65.3 | -74.3 | 80 | 25 |
| 2010-01-24T00:53 | 13734 | 161 | -65.7 | -74.6 | 80 | 25 |
| 2010-01-24T00:53 | 13775 | 160 | -66.0 | -74.8 | 80 | 26 |
| 2010-01-24T00:53 | 13816 | 159 | -66.3 | -74.9 | 81 | 27 |
| 2010-01-24T00:53 | 13858 | 158 | -66.5 | -74.8 | 82 | 28 |
| 2010-01-24T00:53 | 13900 | 157 | -66.7 | -74.8 | 82 | 29 |
| 2010-01-24T00:53 | 13942 | 156 | -66.8 | -74.9 | 83 | 29 |
| 2010-01-24T00:54 | 13985 | 155 | -67.0 | -75.1 | 83 | 30 |
| 2010-01-24T00:54 | 14029 | 154 | -67.3 | -75.4 | 83 | 30 |
| 2010-01-24T00:54 | 14073 | 153 | -67.7 | -75.8 | 84 | 30 |
| 2010-01-24T00:54 | 14116 | 151 | -68.0 | -76.0 | 85 | 30 |
| 2010-01-24T00:54 | 14159 | 150 | -68.3 | -76.3 | 86 | 30 |
| 2010-01-24T00:54 | 14203 | 149 | -68.5 | -76.6 | 87 | 31 |
| 2010-01-24T00:55 | 14249 | 148 | -68.7 | -76.8 | 88 | 32 |
| 2010-01-24T00:55 | 14295 | 147 | -69.0 | -77.0 | 88 | 32 |
| 2010-01-24T00:55 | 14341 | 146 | -69.3 | -77.4 | 89 | 33 |
| 2010-01-24T00:55 | 14384 | 145 | -69.7 | -77.7 | 89 | 33 |
| 2010-01-24T00:55 | 14426 | 144 | -70.1 | -78.1 | 89 | 32 |
| 2010-01-24T00:55 | 14471 | 143 | -70.6 | -78.5 | 89 | 32 |
| 2010-01-24T00:56 | 14516 | 142 | -71.0 | -78.8 | 89 | 32 |
| 2010-01-24T00:56 | 14564 | 140 | -71.4 | -79.1 | 88 | 32 |
| 2010-01-24T00:56 | 14609 | 139 | -71.6 | -79.3 | 88 | 32 |
| 2010-01-24T00:56 | 14651 | 138 | -71.9 | -79.7 | 88 | 32 |
| 2010-01-24T00:56 | 14697 | 137 | -72.0 | -80.1 | 89 | 33 |
| 2010-01-24T00:56 | 14746 | 136 | -72.0 | -80.3 | 90 | 35 |
| 2010-01-24T00:57 | 14790 | 135 | -72.2 | -80.6 | 91 | 35 |
| 2010-01-24T00:57 | 14845 | 134 | -72.7 | -81.3 | 91 | 36 |
| 2010-01-24T00:57 | 14891 | 133 | -73.1 | -81.8 | 92 | 36 |
| 2010-01-24T00:57 | 14935 | 132 | -73.4 | -82.2 | 92 | 36 |
| 2010-01-24T00:57 | 14982 | 131 | -73.9 | -82.7 | 92 | 36 |
| 2010-01-24T00:57 | 15026 | 130 | -74.3 | -83.1 | 91 | 37 |
| 2010-01-24T00:58 | 15074 | 129 | -74.7 | -83.5 | 91 | 37 |
| 2010-01-24T00:58 | 15118 | 128 | -75.1 | -84.0 | 90 | 37 |
| 2010-01-24T00:58 | 15165 | 127 | -75.5 | -84.4 | 90 | 38 |
| 2010-01-24T00:58 | 15212 | 126 | -75.8 | -84.8 | 89 | 38 |
| 2010-01-24T00:58 | 15259 | 125 | -76.0 | -84.9 | 88 | 39 |
| 2010-01-24T00:58 | 15304 | 124 | -76.3 | -85.2 | 87 | 39 |
| 2010-01-24T00:59 | 15350 | 123 | -76.7 | -85.4 | 86 | 38 |
| 2010-01-24T00:59 | 15395 | 122 | -75.6 | -84.7 | 84 | 36 |
| 2010-01-24T00:59 | 15443 | 121 | -74.7 | -84.2 | 82 | 34 |
| 2010-01-24T00:59 | 15488 | 120 | -74.2 | -84.1 | 80 | 31 |
| 2010-01-24T00:59 | 15538 | 119 | -73.4 | -83.7 | 79 | 29 |
| 2010-01-24T00:59 | 15590 | 118 | -73.2 | -83.9 | 77 | 26 |
| 2010-01-24T01:00 | 15641 | 117 | -72.8 | -83.9 | 75 | 24 |
| 2010-01-24T01:00 | 15690 | 116 | -72.7 | -84.3 | 72 | 22 |
| 2010-01-24T01:00 | 15737 | 115 | -72.5 | -84.6 | 68 | 21 |
| 2010-01-24T01:00 | 15784 | 114 | -72.6 | -85.0 | 64 | 20 |
| 2010-01-24T01:00 | 15832 | 113 | -72.7 | -85.5 | 61 | 19 |
| 2010-01-24T01:00 | 15876 | 112 | -72.8 | -86.0 | 59 | 18 |
| 2010-01-24T01:01 | 15921 | 111 | -73.0 | -86.5 | 56 | 17 |
| 2010-01-24T01:01 | 15974 | 110 | -73.1 | -87.0 | 54 | 15 |
| 2010-01-24T01:01 | 16037 | 109 | -73.4 | -87.6 | 52 | 14 |
| 2010-01-24T01:01 | 16081 | 108 | -73.4 | -87.8 | 53 | 12 |
| 2010-01-24T01:01 | 16130 | 107 | -73.7 | -88.3 | 55 | 11 |
| 2010-01-24T01:01 | 16180 | 107 | -73.7 | -88.6 | 57 | 9 |
| 2010-01-24T01:02 | 16232 | 106 | -73.8 | -88.9 | 63 | 7 |
| 2010-01-24T01:02 | 16288 | 105 | -74.1 | -89.3 | 74 | 5 |
| 2010-01-24T01:02 | 16337 | 104 | -74.2 | -89.6 | 93 | 4 |
| 2010-01-24T01:02 | 16384 | 103 | -74.1 | -89.7 | 113 | 4 |
| 2010-01-24T01:02 | 16431 | 102 | -74.3 | -90.0 | 126 | 4 |
| 2010-01-24T01:02 | 16478 | 101 | -74.5 | -90.4 | 135 | 4 |
| 2010-01-24T01:03 | 16523 | 100 | -74.8 | -90.8 | 142 | 5 |
| 2010-01-24T01:03 | 16570 | 100 | -75.1 | -91.2 | 148 | 5 |
| 2010-01-24T01:03 | 16616 | 99 | -75.3 | -91.5 | 149 | 5 |
| 2010-01-24T01:03 | 16662 | 98 | -75.5 | -91.8 | 148 | 4 |
| 2010-01-24T01:03 | 16707 | 97 | -75.7 | -92.1 | 149 | 3 |
| 2010-01-24T01:03 | 16753 | 97 | -75.8 | -92.3 | 163 | 2 |
| 2010-01-24T01:04 | 16800 | 96 | -75.8 | -92.3 | 200 | 2 |
| 2010-01-24T01:04 | 16849 | 95 | -75.7 | -92.4 | 233 | 3 |
| 2010-01-24T01:04 | 16903 | 94 | -75.9 | -92.6 | 253 | 4 |
| 2010-01-24T01:04 | 16959 | 93 | -75.9 | -92.7 | 262 | 6 |
| 2010-01-24T01:04 | 17017 | 92 | -76.2 | -92.9 | 265 | 8 |
| 2010-01-24T01:04 | 17069 | 91 | -76.3 | -93.0 | 265 | 10 |
| 2010-01-24T01:05 | 17122 | 91 | -76.6 | -93.2 | 266 | 11 |
| 2010-01-24T01:05 | 17177 | 90 | -76.9 | -93.4 | 266 | 13 |
| 2010-01-24T01:05 | 17235 | 89 | -77.1 | -93.6 | 266 | 15 |
| 2010-01-24T01:05 | 17290 | 88 | -77.1 | -93.6 | 266 | 17 |
| 2010-01-24T01:05 | 17343 | 87 | -77.1 | -93.5 | 265 | 19 |
| 2010-01-24T01:05 | 17398 | 86 | -77.2 | -93.6 | 263 | 21 |
| 2010-01-24T01:06 | 17455 | 85 | -77.7 | -93.9 | 262 | 23 |
| 2010-01-24T01:06 | 17509 | 85 | -77.5 | -93.8 | 263 | 24 |
| 2010-01-24T01:06 | 17560 | 84 | -77.3 | -93.6 | 265 | 24 |
| 2010-01-24T01:06 | 17610 | 83 | -77.5 | -93.7 | 266 | 24 |
| 2010-01-24T01:06 | 17659 | 82 | -77.9 | -93.9 | 267 | 23 |
| 2010-01-24T01:06 | 17708 | 82 | -78.3 | -94.2 | 267 | 22 |
| 2010-01-24T01:07 | 17758 | 81 | -78.7 | -94.6 | 267 | 22 |
| 2010-01-24T01:07 | 17806 | 80 | -79.0 | -94.8 | 267 | 23 |
| 2010-01-24T01:07 | 17853 | 80 | -79.3 | -95.0 | 268 | 23 |
| 2010-01-24T01:07 | 17902 | 79 | -79.5 | -95.1 | 267 | 22 |
| 2010-01-24T01:07 | 17950 | 78 | -79.6 | -95.1 | 265 | 21 |
| 2010-01-24T01:07 | 18000 | 78 | -79.8 | -95.2 | 263 | 20 |
| 2010-01-24T01:08 | 18049 | 77 | -80.0 | -95.3 | 261 | 19 |
| 2010-01-24T01:08 | 18101 | 76 | -80.2 | -95.4 | 260 | 18 |
| 2010-01-24T01:08 | 18151 | 76 | -80.0 | -95.3 | 260 | 16 |
| 2010-01-24T01:08 | 18202 | 75 | -80.2 | -95.3 | 261 | 15 |
| 2010-01-24T01:08 | 18251 | 74 | -80.1 | -95.3 | 262 | 15 |
| 2010-01-24T01:08 | 18298 | 74 | -80.3 | -95.3 | 263 | 16 |
| 2010-01-24T01:09 | 18347 | 73 | -80.6 | -95.5 | 264 | 16 |
| 2010-01-24T01:09 | 18394 | 72 | -80.2 | -95.2 | 266 | 16 |
| 2010-01-24T01:09 | 18443 | 72 | -80.7 | -95.5 | 268 | 17 |
| 2010-01-24T01:09 | 18492 | 71 | -80.6 | -95.4 | 271 | 16 |
| 2010-01-24T01:09 | 18540 | 71 | -80.8 | -95.5 | 277 | 16 |
| 2010-01-24T01:09 | 18588 | 70 | -79.8 | -94.7 | 283 | 16 |
| 2010-01-24T01:10 | 18635 | 69 | -79.5 | -94.3 | 288 | 16 |
| 2010-01-24T01:10 | 18684 | 69 | -79.8 | -94.5 | 291 | 16 |
| 2010-01-24T01:10 | 18732 | 68 | -79.7 | -94.5 | 293 | 15 |
| 2010-01-24T01:10 | 18780 | 68 | -79.6 | -94.3 | 295 | 14 |
| 2010-01-24T01:10 | 18828 | 67 | -79.4 | -94.2 | 293 | 14 |
| 2010-01-24T01:10 | 18876 | 67 | -79.5 | -94.2 | 290 | 14 |
| 2010-01-24T01:11 | 18923 | 66 | -79.4 | -94.1 | 286 | 14 |
| 2010-01-24T01:11 | 18970 | 65 | -79.1 | -93.8 | 284 | 14 |
| 2010-01-24T01:11 | 19018 | 65 | -79.2 | -93.9 | 284 | 14 |
| 2010-01-24T01:11 | 19065 | 64 | -79.2 | -93.9 | 285 | 15 |
| 2010-01-24T01:11 | 19115 | 64 | -79.1 | -93.8 | 284 | 15 |
| 2010-01-24T01:11 | 19159 | 63 | -78.8 | -93.7 | 282 | 14 |
| 2010-01-24T01:12 | 19208 | 63 | -79.0 | -93.8 | 281 | 14 |
| 2010-01-24T01:12 | 19256 | 62 | -79.1 | -93.8 | 278 | 13 |
| 2010-01-24T01:12 | 19303 | 62 | -79.4 | -94.1 | 274 | 12 |
| 2010-01-24T01:12 | 19352 | 61 | -79.6 | -94.3 | 271 | 12 |
| 2010-01-24T01:12 | 19399 | 61 | -79.6 | -94.3 | 268 | 11 |
| 2010-01-24T01:12 | 19445 | 60 | -78.3 | -93.3 | 262 | 11 |
| 2010-01-24T01:13 | 19495 | 60 | -77.9 | -92.9 | 256 | 11 |
| 2010-01-24T01:13 | 19541 | 59 | -77.8 | -92.8 | 253 | 11 |
| 2010-01-24T01:13 | 19591 | 59 | -77.9 | -92.9 | 253 | 11 |
| 2010-01-24T01:13 | 19640 | 58 | -78.3 | -93.3 | 253 | 11 |
| 2010-01-24T01:13 | 19688 | 58 | -78.4 | -93.4 | 249 | 10 |
| 2010-01-24T01:13 | 19739 | 57 | -77.3 | -92.6 | 241 | 9 |
| 2010-01-24T01:14 | 19787 | 57 | -76.4 | -91.9 | 231 | 9 |
| 2010-01-24T01:14 | 19832 | 56 | -74.9 | -90.7 | 225 | 9 |
| 2010-01-24T01:14 | 19877 | 56 | -74.7 | -90.6 | 224 | 9 |
| 2010-01-24T01:14 | 19925 | 55 | -74.5 | -90.6 | 223 | 8 |
| 2010-01-24T01:14 | 19973 | 55 | -73.3 | -89.8 | 220 | 5 |
| 2010-01-24T01:14 | 20026 | 54 | -71.2 | -88.4 | 217 | 2 |
| 2010-01-24T01:15 | 20070 | 54 | -67.0 | -85.6 | 271 | 0 |
| 2010-01-24T01:15 | 20115 | 54 | -66.4 | -85.4 | 316 | 1 |
| 2010-01-24T01:15 | 20162 | 53 | -66.5 | -86.0 | 318 | 3 |
| 2010-01-24T01:15 | 20207 | 53 | -66.8 | -86.9 | 319 | 4 |
| 2010-01-24T01:15 | 20253 | 52 | -67.2 | -87.8 | 324 | 5 |
| 2010-01-24T01:15 | 20303 | 52 | -67.5 | -88.7 | 332 | 7 |
| 2010-01-24T01:16 | 20351 | 52 | -67.4 | -89.2 | 340 | 8 |
| 2010-01-24T01:16 | 20398 | 51 | -67.6 | -89.8 | 346 | 9 |
| 2010-01-24T01:16 | 20447 | 51 | -67.6 | -90.2 | 351 | 9 |
| 2010-01-24T01:16 | 20495 | 50 | -67.9 | -90.8 | 355 | 8 |
| 2010-01-24T01:16 | 20544 | 50 | -68.0 | -91.2 | 360 | 6 |
| 2010-01-24T01:16 | 20591 | 50 | -68.3 | -91.7 | 6 | 5 |
| 2010-01-24T01:17 | 20643 | 49 | -68.4 | -92.0 | 12 | 3 |
| 2010-01-24T01:17 | 20688 | 49 | -68.5 | -92.3 | 15 | 2 |
| 2010-01-24T01:17 | 20739 | 48 | -68.8 | -92.7 | 28 | 1 |
| 2010-01-24T01:17 | 20789 | 48 | -69.1 | -93.0 | 107 | 1 |
| 2010-01-24T01:17 | 20838 | 48 | -69.3 | -93.3 | 149 | 2 |
| 2010-01-24T01:17 | 20892 | 47 | -68.9 | -93.3 | 172 | 4 |
| 2010-01-24T01:18 | 20942 | 47 | -68.4 | -93.0 | 184 | 6 |
| 2010-01-24T01:18 | 20997 | 46 | -68.0 | -92.8 | 185 | 8 |
| 2010-01-24T01:18 | 21050 | 46 | -67.5 | -92.6 | 181 | 10 |
| 2010-01-24T01:18 | 21102 | 45 | -67.5 | -92.6 | 177 | 12 |
| 2010-01-24T01:18 | 21151 | 45 | -68.0 | -92.9 | 175 | 12 |
| 2010-01-24T01:18 | 21204 | 45 | -68.2 | -93.3 | 175 | 13 |
| 2010-01-24T01:19 | 21255 | 44 | -68.3 | -93.5 | 174 | 13 |
| 2010-01-24T01:19 | 21307 | 44 | -68.6 | -93.8 | 169 | 13 |
| 2010-01-24T01:19 | 21355 | 44 | -68.2 | -93.7 | 161 | 12 |
| 2010-01-24T01:19 | 21406 | 43 | -68.1 | -93.7 | 150 | 12 |
| 2010-01-24T01:19 | 21457 | 43 | -67.9 | -93.7 | 139 | 11 |
| 2010-01-24T01:19 | 21505 | 43 | -67.1 | -93.3 | 127 | 11 |
| 2010-01-24T01:20 | 21556 | 42 | -66.8 | -93.1 | 115 | 10 |
| 2010-01-24T01:20 | 21604 | 42 | -66.2 | -92.8 | 103 | 10 |
| 2010-01-24T01:20 | 21655 | 41 | -64.8 | -92.1 | 95 | 10 |
| 2010-01-24T01:20 | 21702 | 41 | -64.7 | -92.0 | 91 | 10 |
| 2010-01-24T01:20 | 21750 | 41 | -64.7 | -92.1 | 90 | 10 |
| 2010-01-24T01:20 | 21796 | 41 | -64.7 | -92.3 | 91 | 11 |
| 2010-01-24T01:21 | 21846 | 40 | -64.4 | -92.2 | 94 | 11 |
| 2010-01-24T01:21 | 21895 | 40 | -64.6 | -92.4 | 96 | 12 |
| 2010-01-24T01:21 | 21945 | 40 | -64.8 | -92.6 | 97 | 12 |
| 2010-01-24T01:21 | 21994 | 39 | -65.0 | -92.9 | 97 | 13 |
| 2010-01-24T01:21 | 22043 | 39 | -65.2 | -93.1 | 96 | 13 |
| 2010-01-24T01:21 | 22095 | 39 | -65.5 | -93.3 | 97 | 14 |
| 2010-01-24T01:22 | 22144 | 38 | -65.5 | -93.6 | 98 | 15 |
| 2010-01-24T01:22 | 22195 | 38 | -65.6 | -93.7 | 99 | 16 |
| 2010-01-24T01:22 | 22245 | 38 | -65.9 | -93.9 | 99 | 16 |
| 2010-01-24T01:22 | 22297 | 37 | -66.2 | -94.1 | 100 | 17 |
| 2010-01-24T01:22 | 22350 | 37 | -66.5 | -94.3 | 100 | 17 |
| 2010-01-24T01:22 | 22403 | 37 | -66.7 | -94.5 | 100 | 18 |
| 2010-01-24T01:23 | 22454 | 36 | -67.1 | -94.7 | 100 | 19 |
| 2010-01-24T01:23 | 22506 | 36 | -67.0 | -94.7 | 99 | 19 |
| 2010-01-24T01:23 | 22556 | 36 | -66.7 | -94.7 | 99 | 19 |
| 2010-01-24T01:23 | 22607 | 35 | -66.1 | -94.4 | 98 | 19 |
| 2010-01-24T01:23 | 22658 | 35 | -65.2 | -93.9 | 99 | 19 |
| 2010-01-24T01:23 | 22708 | 35 | -65.2 | -93.7 | 102 | 19 |
| 2010-01-24T01:24 | 22760 | 35 | -65.5 | -93.8 | 104 | 20 |
| 2010-01-24T01:24 | 22810 | 34 | -65.9 | -94.0 | 104 | 20 |
| 2010-01-24T01:24 | 22860 | 34 | -66.2 | -94.2 | 103 | 20 |
| 2010-01-24T01:24 | 22912 | 34 | -66.3 | -94.3 | 100 | 20 |
| 2010-01-24T01:24 | 22962 | 33 | -66.1 | -94.4 | 97 | 20 |
| 2010-01-24T01:24 | 23013 | 33 | -66.0 | -94.3 | 94 | 21 |
| 2010-01-24T01:25 | 23064 | 33 | -66.0 | -94.3 | 92 | 21 |
| 2010-01-24T01:25 | 23118 | 33 | -65.4 | -94.1 | 92 | 21 |
| 2010-01-24T01:25 | 23166 | 32 | -65.2 | -93.9 | 92 | 21 |
| 2010-01-24T01:25 | 23219 | 32 | -64.6 | -93.6 | 93 | 21 |
| 2010-01-24T01:25 | 23276 | 32 | -64.5 | -93.4 | 96 | 21 |
| 2010-01-24T01:25 | 23326 | 32 | -64.2 | -93.3 | 98 | 22 |
| 2010-01-24T01:26 | 23377 | 31 | -64.3 | -93.3 | 99 | 22 |
| 2010-01-24T01:26 | 23429 | 31 | -64.3 | -93.2 | 98 | 23 |
| 2010-01-24T01:26 | 23485 | 31 | -64.2 | -93.2 | 96 | 23 |
| 2010-01-24T01:26 | 23535 | 30 | -63.8 | -93.1 | 94 | 24 |
| 2010-01-24T01:26 | 23585 | 30 | -63.7 | -92.9 | 93 | 24 |
| 2010-01-24T01:26 | 23635 | 30 | -63.2 | -92.8 | 92 | 24 |
| 2010-01-24T01:27 | 23686 | 30 | -63.0 | -92.6 | 92 | 24 |
| 2010-01-24T01:27 | 23735 | 29 | -62.8 | -92.4 | 92 | 24 |
| 2010-01-24T01:27 | 23786 | 29 | -62.8 | -92.3 | 91 | 24 |
| 2010-01-24T01:27 | 23833 | 29 | -62.6 | -92.3 | 88 | 25 |
| 2010-01-24T01:27 | 23883 | 29 | -62.1 | -92.1 | 86 | 26 |
| 2010-01-24T01:27 | 23935 | 29 | -61.9 | -91.9 | 83 | 26 |
| 2010-01-24T01:28 | 23979 | 28 | -61.6 | -91.7 | 81 | 26 |
| 2010-01-24T01:28 | 24028 | 28 | -61.4 | -91.5 | 80 | 26 |
| 2010-01-24T01:28 | 24079 | 28 | -61.1 | -91.3 | 80 | 26 |
| 2010-01-24T01:28 | 24127 | 28 | -61.0 | -91.2 | 80 | 25 |
| 2010-01-24T01:28 | 24182 | 27 | -60.5 | -91.0 | 80 | 25 |
| 2010-01-24T01:28 | 24228 | 27 | -60.2 | -90.7 | 82 | 25 |
| 2010-01-24T01:29 | 24281 | 27 | -59.7 | -90.5 | 83 | 25 |
| 2010-01-24T01:29 | 24331 | 27 | -59.5 | -90.2 | 84 | 25 |
| 2010-01-24T01:29 | 24386 | 27 | -59.2 | -89.9 | 85 | 25 |
| 2010-01-24T01:29 | 24439 | 26 | -59.2 | -89.9 | 84 | 25 |
| 2010-01-24T01:29 | 24494 | 26 | -59.3 | -89.8 | 82 | 26 |
| 2010-01-24T01:29 | 24549 | 26 | -58.8 | -89.6 | 80 | 25 |
| 2010-01-24T01:30 | 24602 | 26 | -58.5 | -89.3 | 80 | 25 |
| 2010-01-24T01:30 | 24658 | 25 | -58.7 | -89.4 | 81 | 25 |
| 2010-01-24T01:30 | 24716 | 25 | -58.6 | -89.3 | 82 | 26 |
| 2010-01-24T01:30 | 24771 | 25 | -58.6 | -89.2 | 83 | 27 |
| 2010-01-24T01:30 | 24828 | 25 | -58.7 | -89.2 | 83 | 28 |
| 2010-01-24T01:30 | 24883 | 25 | -58.4 | -89.2 | 82 | 28 |
| 2010-01-24T01:31 | 24937 | 24 | -58.3 | -89.1 | 80 | 28 |
| 2010-01-24T01:31 | 24994 | 24 | -57.8 | -88.8 | 78 | 29 |
| 2010-01-24T01:31 | 25051 | 24 | -57.3 | -88.5 | 77 | 31 |
| 2010-01-24T01:31 | 25104 | 24 | -57.4 | -88.4 | 77 | 33 |
| 2010-01-24T01:31 | 25161 | 23 | -56.8 | -88.2 | 77 | 34 |
| 2010-01-24T01:31 | 25217 | 23 | -56.7 | -88.0 | 76 | 34 |
| 2010-01-24T01:32 | 25270 | 23 | -56.3 | -87.8 | 75 | 33 |
| 2010-01-24T01:32 | 25323 | 23 | -56.4 | -87.7 | 74 | 32 |
| 2010-01-24T01:32 | 25378 | 23 | -56.5 | -87.6 | 73 | 32 |
| 2010-01-24T01:32 | 25431 | 22 | -56.6 | -87.6 | 72 | 32 |
| 2010-01-24T01:32 | 25482 | 22 | -57.0 | -87.8 | 72 | 32 |
| 2010-01-24T01:32 | 25539 | 22 | -57.1 | -87.8 | 72 | 32 |
| 2010-01-24T01:33 | 25588 | 22 | -57.2 | -87.9 | 74 | 32 |
| 2010-01-24T01:33 | 25643 | 22 | -57.5 | -88.0 | 75 | 32 |
| 2010-01-24T01:33 | 25696 | 22 | -57.7 | -88.1 | 75 | 32 |
| 2010-01-24T01:33 | 25757 | 21 | -57.9 | -88.2 | 76 | 32 |
| 2010-01-24T01:33 | 25811 | 21 | -58.1 | -88.3 | 77 | 32 |
| 2010-01-24T01:33 | 25868 | 21 | -58.0 | -88.3 | 78 | 32 |
| 2010-01-24T01:34 | 25924 | 21 | -58.1 | -88.4 | 79 | 32 |
| 2010-01-24T01:34 | 25981 | 21 | -58.4 | -88.6 | 81 | 32 |
| 2010-01-24T01:34 | 26039 | 20 | -57.9 | -88.5 | 82 | 33 |
| 2010-01-24T01:34 | 26097 | 20 | -57.8 | -88.4 | 83 | 33 |
| 2010-01-24T01:34 | 26157 | 20 | -58.0 | -88.5 | 83 | 34 |
| 2010-01-24T01:34 | 26210 | 20 | -58.0 | -88.5 | 84 | 35 |
| 2010-01-24T01:35 | 26268 | 20 | -57.9 | -88.4 | 84 | 35 |
| 2010-01-24T01:35 | 26328 | 20 | -57.8 | -88.5 | 84 | 34 |
| 2010-01-24T01:35 | 26381 | 19 | -57.9 | -88.3 | 83 | 33 |
| 2010-01-24T01:35 | 26435 | 19 | -57.9 | -88.3 | 83 | 33 |
| 2010-01-24T01:35 | 26497 | 19 | -58.1 | -88.3 | 83 | 34 |
| 2010-01-24T01:35 | 26548 | 19 | -58.3 | -88.4 | 83 | 34 |
| 2010-01-24T01:36 | 26608 | 19 | -58.0 | -88.4 | 83 | 34 |
| 2010-01-24T01:36 | 26660 | 19 | -58.3 | -88.4 | 83 | 34 |
| 2010-01-24T01:36 | 26717 | 18 | -58.6 | -88.5 | 85 | 33 |
| 2010-01-24T01:36 | 26770 | 18 | -58.3 | -88.5 | 88 | 33 |
| 2010-01-24T01:36 | 26822 | 18 | -57.6 | -88.3 | 90 | 33 |
| 2010-01-24T01:36 | 26881 | 18 | -57.2 | -88.1 | 91 | 33 |
| 2010-01-24T01:37 | 26928 | 18 | -57.0 | -87.9 | 92 | 33 |
| 2010-01-24T01:37 | 26981 | 18 | -56.8 | -87.8 | 93 | 34 |
| 2010-01-24T01:37 | 27037 | 17 | -56.5 | -87.5 | 94 | 34 |
| 2010-01-24T01:37 | 27090 | 17 | -56.2 | -87.3 | 94 | 35 |
| 2010-01-24T01:37 | 27142 | 17 | -55.8 | -87.1 | 94 | 35 |
| 2010-01-24T01:37 | 27195 | 17 | -55.6 | -86.9 | 93 | 36 |
| 2010-01-24T01:38 | 27244 | 17 | -54.8 | -86.5 | 92 | 36 |
| 2010-01-24T01:38 | 27305 | 17 | -53.7 | -86.0 | 92 | 36 |
| 2010-01-24T01:38 | 27359 | 17 | -53.0 | -85.5 | 91 | 36 |
| 2010-01-24T01:38 | 27412 | 16 | -52.2 | -85.0 | 91 | 37 |
| 2010-01-24T01:38 | 27473 | 16 | -51.6 | -84.6 | 90 | 38 |
| 2010-01-24T01:38 | 27524 | 16 | -51.3 | -84.2 | 90 | 38 |
| 2010-01-24T01:39 | 27581 | 16 | -51.4 | -84.1 | 90 | 38 |
| 2010-01-24T01:39 | 27643 | 16 | -51.5 | -84.0 | 91 | 38 |
| 2010-01-24T01:39 | 27697 | 16 | -51.6 | -84.0 | 93 | 38 |
| 2010-01-24T01:39 | 27756 | 16 | -51.7 | -84.0 | 94 | 39 |
| 2010-01-24T01:39 | 27810 | 15 | -51.5 | -83.9 | 95 | 39 |
| 2010-01-24T01:39 | 27866 | 15 | -51.7 | -83.9 | 96 | 40 |
| 2010-01-24T01:40 | 27924 | 15 | -51.7 | -83.9 | 95 | 41 |
| 2010-01-24T01:40 | 27981 | 15 | -51.9 | -84.0 | 93 | 42 |
| 2010-01-24T01:40 | 28042 | 15 | -52.3 | -84.2 | 92 | 42 |
| 2010-01-24T01:40 | 28092 | 15 | -52.2 | -84.2 | 91 | 42 |
| 2010-01-24T01:40 | 28148 | 15 | -52.0 | -84.1 | 91 | 43 |
| 2010-01-24T01:40 | 28200 | 15 | -51.6 | -84.0 | 92 | 43 |
| 2010-01-24T01:41 | 28257 | 14 | -51.1 | -83.8 | 93 | 43 |
| 2010-01-24T01:41 | 28318 | 14 | -51.0 | -83.6 | 93 | 43 |
| 2010-01-24T01:41 | 28367 | 14 | -49.8 | -83.2 | 93 | 43 |
| 2010-01-24T01:41 | 28422 | 14 | -49.6 | -83.0 | 93 | 43 |
| 2010-01-24T01:41 | 28472 | 14 | -49.3 | -82.7 | 94 | 43 |
| 2010-01-24T01:41 | 28531 | 14 | -48.9 | -82.6 | 94 | 43 |
| 2010-01-24T01:42 | 28585 | 14 | -48.7 | -82.2 | 94 | 43 |
| 2010-01-24T01:42 | 28638 | 14 | -48.3 | -81.9 | 94 | 43 |
| 2010-01-24T01:42 | 28693 | 14 | -47.9 | -81.9 | 94 | 42 |
| 2010-01-24T01:42 | 28750 | 13 | -47.7 | -81.6 | 94 | 41 |
| 2010-01-24T01:42 | 28806 | 13 | -47.5 | -81.4 | 94 | 41 |
| 2010-01-24T01:42 | 28868 | 13 | -47.4 | -81.3 | 93 | 40 |
| 2010-01-24T01:43 | 28919 | 13 | -47.3 | -81.2 | 94 | 40 |
| 2010-01-24T01:43 | 28975 | 13 | -46.7 | -81.0 | 95 | 39 |
| 2010-01-24T01:43 | 29030 | 13 | -46.0 | -80.7 | 96 | 38 |
| 2010-01-24T01:43 | 29088 | 13 | -45.3 | -80.4 | 97 | 37 |
| 2010-01-24T23:29 | 4 | 1008 | 33.9 | 25.0 | 320 | 5 |
| 2010-01-24T23:29 | 12 | 1007 | 29.3 | 21.7 | 323 | 2 |
| 2010-01-24T23:29 | 21 | 1006 | 29.0 | 22.1 | 322 | 3 |
| 2010-01-24T23:29 | 30 | 1005 | 28.9 | 22.5 | 321 | 3 |
| 2010-01-24T23:29 | 39 | 1004 | 28.7 | 22.8 | 320 | 3 |
| 2010-01-24T23:29 | 49 | 1003 | 28.7 | 22.9 | 318 | 3 |
| 2010-01-24T23:29 | 58 | 1002 | 28.6 | 23.1 | 317 | 4 |
| 2010-01-24T23:29 | 68 | 1001 | 28.4 | 23.1 | 315 | 4 |
| 2010-01-24T23:29 | 78 | 1000 | 28.4 | 23.2 | 314 | 4 |
| 2010-01-24T23:29 | 88 | 999 | 28.3 | 23.3 | 312 | 4 |
| 2010-01-24T23:29 | 98 | 998 | 28.3 | 23.3 | 311 | 5 |
| 2010-01-24T23:29 | 105 | 997 | 28.3 | 23.4 | 310 | 5 |
| 2010-01-24T23:29 | 112 | 996 | 28.2 | 23.4 | 309 | 5 |
| 2010-01-24T23:29 | 118 | 996 | 28.1 | 23.4 | 309 | 5 |
| 2010-01-24T23:29 | 124 | 995 | 27.9 | 23.3 | 308 | 5 |
| 2010-01-24T23:29 | 131 | 994 | 27.8 | 23.3 | 308 | 5 |
| 2010-01-24T23:29 | 140 | 993 | 27.7 | 23.2 | 308 | 5 |
| 2010-01-24T23:29 | 147 | 992 | 27.7 | 23.2 | 308 | 6 |
| 2010-01-24T23:29 | 154 | 992 | 27.7 | 23.1 | 308 | 6 |
| 2010-01-24T23:29 | 162 | 991 | 27.6 | 22.8 | 308 | 6 |
| 2010-01-24T23:29 | 170 | 990 | 27.5 | 22.5 | 308 | 6 |
| 2010-01-24T23:29 | 178 | 989 | 27.4 | 22.5 | 308 | 6 |
| 2010-01-24T23:29 | 186 | 988 | 27.3 | 22.6 | 309 | 6 |
| 2010-01-24T23:29 | 194 | 987 | 27.3 | 22.8 | 309 | 6 |
| 2010-01-24T23:29 | 201 | 986 | 27.3 | 22.8 | 309 | 6 |
| 2010-01-24T23:29 | 208 | 986 | 27.3 | 22.7 | 309 | 6 |
| 2010-01-24T23:29 | 216 | 985 | 27.1 | 22.3 | 309 | 6 |
| 2010-01-24T23:29 | 223 | 984 | 27.0 | 22.0 | 309 | 6 |
| 2010-01-24T23:29 | 230 | 983 | 26.9 | 22.0 | 309 | 7 |
| 2010-01-24T23:29 | 236 | 982 | 26.9 | 22.1 | 309 | 7 |
| 2010-01-24T23:30 | 243 | 982 | 26.8 | 22.2 | 309 | 7 |
| 2010-01-24T23:30 | 250 | 981 | 26.7 | 22.3 | 309 | 7 |
| 2010-01-24T23:30 | 256 | 980 | 26.7 | 22.3 | 309 | 7 |
| 2010-01-24T23:30 | 262 | 980 | 26.6 | 22.3 | 310 | 7 |
| 2010-01-24T23:30 | 269 | 979 | 26.5 | 22.2 | 310 | 7 |
| 2010-01-24T23:30 | 277 | 978 | 26.5 | 22.3 | 310 | 7 |
| 2010-01-24T23:30 | 283 | 977 | 26.4 | 22.3 | 310 | 7 |
| 2010-01-24T23:30 | 290 | 976 | 26.3 | 22.1 | 310 | 7 |
| 2010-01-24T23:30 | 297 | 976 | 26.3 | 22.0 | 311 | 7 |
| 2010-01-24T23:30 | 305 | 975 | 26.2 | 22.1 | 311 | 7 |
| 2010-01-24T23:30 | 312 | 974 | 26.2 | 22.2 | 311 | 7 |
| 2010-01-24T23:30 | 320 | 973 | 26.1 | 22.3 | 311 | 7 |
| 2010-01-24T23:30 | 328 | 972 | 26.0 | 22.4 | 311 | 7 |
| 2010-01-24T23:30 | 335 | 972 | 26.0 | 22.4 | 311 | 7 |
| 2010-01-24T23:30 | 342 | 971 | 25.9 | 22.4 | 312 | 7 |
| 2010-01-24T23:30 | 350 | 970 | 25.7 | 22.3 | 312 | 7 |
| 2010-01-24T23:30 | 358 | 969 | 25.6 | 22.3 | 312 | 7 |
| 2010-01-24T23:30 | 366 | 968 | 25.6 | 22.3 | 312 | 7 |
| 2010-01-24T23:30 | 374 | 967 | 25.5 | 22.4 | 312 | 7 |
| 2010-01-24T23:30 | 382 | 966 | 25.5 | 22.4 | 312 | 7 |
| 2010-01-24T23:30 | 389 | 966 | 25.4 | 22.3 | 312 | 7 |
| 2010-01-24T23:30 | 397 | 965 | 25.3 | 22.3 | 313 | 7 |
| 2010-01-24T23:30 | 404 | 964 | 25.3 | 22.2 | 313 | 7 |
| 2010-01-24T23:30 | 413 | 963 | 25.1 | 22.2 | 313 | 7 |
| 2010-01-24T23:30 | 421 | 962 | 25.1 | 22.3 | 313 | 7 |
| 2010-01-24T23:30 | 428 | 961 | 25.0 | 22.3 | 313 | 7 |
| 2010-01-24T23:30 | 436 | 961 | 24.9 | 22.2 | 313 | 7 |
| 2010-01-24T23:30 | 443 | 960 | 24.9 | 22.2 | 312 | 7 |
| 2010-01-24T23:30 | 450 | 959 | 24.8 | 22.2 | 312 | 7 |
| 2010-01-24T23:30 | 458 | 958 | 24.7 | 22.1 | 312 | 7 |
| 2010-01-24T23:31 | 465 | 957 | 24.7 | 22.1 | 312 | 7 |
| 2010-01-24T23:31 | 473 | 957 | 24.6 | 22.1 | 312 | 7 |
| 2010-01-24T23:31 | 481 | 956 | 24.6 | 22.1 | 312 | 7 |
| 2010-01-24T23:31 | 489 | 955 | 24.5 | 22.0 | 311 | 7 |
| 2010-01-24T23:31 | 496 | 954 | 24.4 | 21.8 | 311 | 7 |
| 2010-01-24T23:31 | 503 | 953 | 24.4 | 21.6 | 311 | 7 |
| 2010-01-24T23:31 | 511 | 952 | 24.3 | 21.5 | 311 | 7 |
| 2010-01-24T23:31 | 519 | 951 | 24.2 | 21.4 | 311 | 7 |
| 2010-01-24T23:31 | 526 | 951 | 24.2 | 21.3 | 311 | 7 |
| 2010-01-24T23:31 | 534 | 950 | 24.2 | 21.1 | 311 | 7 |
| 2010-01-24T23:31 | 542 | 949 | 24.1 | 20.9 | 311 | 7 |
| 2010-01-24T23:31 | 549 | 948 | 24.0 | 20.8 | 312 | 7 |
| 2010-01-24T23:31 | 556 | 947 | 23.9 | 20.7 | 312 | 7 |
| 2010-01-24T23:31 | 564 | 947 | 23.8 | 20.5 | 312 | 7 |
| 2010-01-24T23:31 | 572 | 946 | 23.8 | 20.4 | 312 | 7 |
| 2010-01-24T23:31 | 580 | 945 | 23.7 | 20.5 | 313 | 7 |
| 2010-01-24T23:31 | 588 | 944 | 23.7 | 20.5 | 313 | 7 |
| 2010-01-24T23:31 | 596 | 943 | 23.7 | 20.3 | 313 | 7 |
| 2010-01-24T23:31 | 604 | 942 | 23.6 | 20.3 | 314 | 7 |
| 2010-01-24T23:31 | 611 | 942 | 23.6 | 20.2 | 314 | 7 |
| 2010-01-24T23:31 | 619 | 941 | 23.6 | 20.0 | 314 | 7 |
| 2010-01-24T23:31 | 628 | 940 | 23.5 | 20.0 | 314 | 7 |
| 2010-01-24T23:31 | 636 | 939 | 23.4 | 20.1 | 314 | 7 |
| 2010-01-24T23:31 | 643 | 938 | 23.3 | 20.3 | 315 | 7 |
| 2010-01-24T23:31 | 650 | 937 | 23.2 | 20.4 | 315 | 7 |
| 2010-01-24T23:31 | 657 | 937 | 23.2 | 20.4 | 315 | 7 |
| 2010-01-24T23:31 | 665 | 936 | 23.1 | 20.3 | 315 | 7 |
| 2010-01-24T23:31 | 673 | 935 | 23.0 | 20.4 | 315 | 7 |
| 2010-01-24T23:31 | 681 | 934 | 23.0 | 20.4 | 315 | 7 |
| 2010-01-24T23:31 | 690 | 933 | 22.9 | 20.5 | 315 | 7 |
| 2010-01-24T23:32 | 699 | 932 | 22.9 | 20.5 | 315 | 8 |
| 2010-01-24T23:32 | 707 | 931 | 22.9 | 20.4 | 315 | 8 |
| 2010-01-24T23:32 | 715 | 930 | 22.8 | 20.2 | 315 | 8 |
| 2010-01-24T23:32 | 724 | 930 | 22.8 | 20.0 | 315 | 8 |
| 2010-01-24T23:32 | 732 | 929 | 22.7 | 20.0 | 315 | 8 |
| 2010-01-24T23:32 | 742 | 928 | 22.7 | 19.9 | 314 | 8 |
| 2010-01-24T23:32 | 750 | 927 | 22.7 | 19.9 | 314 | 8 |
| 2010-01-24T23:32 | 759 | 926 | 22.5 | 20.1 | 314 | 8 |
| 2010-01-24T23:32 | 768 | 925 | 22.3 | 20.3 | 314 | 8 |
| 2010-01-24T23:32 | 776 | 924 | 22.1 | 20.5 | 314 | 8 |
| 2010-01-24T23:32 | 784 | 923 | 22.0 | 20.6 | 314 | 8 |
| 2010-01-24T23:32 | 792 | 922 | 22.0 | 20.7 | 314 | 8 |
| 2010-01-24T23:32 | 800 | 922 | 22.0 | 20.6 | 314 | 8 |
| 2010-01-24T23:32 | 806 | 921 | 22.0 | 20.4 | 314 | 8 |
| 2010-01-24T23:32 | 812 | 920 | 22.0 | 20.4 | 313 | 8 |
| 2010-01-24T23:32 | 818 | 920 | 22.0 | 20.3 | 313 | 8 |
| 2010-01-24T23:32 | 824 | 919 | 22.0 | 20.5 | 313 | 9 |
| 2010-01-24T23:32 | 831 | 918 | 22.1 | 19.2 | 313 | 9 |
| 2010-01-24T23:32 | 836 | 918 | 22.1 | 20.1 | 313 | 9 |
| 2010-01-24T23:32 | 841 | 917 | 22.2 | 19.5 | 312 | 9 |
| 2010-01-24T23:32 | 846 | 917 | 22.5 | 18.9 | 312 | 9 |
| 2010-01-24T23:32 | 852 | 916 | 22.7 | 18.2 | 312 | 9 |
| 2010-01-24T23:32 | 857 | 915 | 22.8 | 17.8 | 311 | 9 |
| 2010-01-24T23:32 | 863 | 915 | 22.8 | 17.7 | 311 | 9 |
| 2010-01-24T23:32 | 869 | 914 | 22.8 | 17.5 | 311 | 9 |
| 2010-01-24T23:32 | 875 | 914 | 22.8 | 17.3 | 311 | 9 |
| 2010-01-24T23:32 | 881 | 913 | 22.8 | 17.2 | 310 | 9 |
| 2010-01-24T23:32 | 888 | 912 | 22.7 | 17.1 | 310 | 9 |
| 2010-01-24T23:32 | 894 | 912 | 22.7 | 17.1 | 310 | 9 |
| 2010-01-24T23:32 | 901 | 911 | 22.6 | 16.9 | 309 | 9 |
| 2010-01-24T23:33 | 907 | 910 | 22.5 | 16.5 | 309 | 9 |
| 2010-01-24T23:33 | 914 | 910 | 22.4 | 16.4 | 309 | 9 |
| 2010-01-24T23:33 | 921 | 909 | 22.3 | 16.3 | 308 | 9 |
| 2010-01-24T23:33 | 928 | 908 | 22.3 | 16.3 | 308 | 9 |
| 2010-01-24T23:33 | 935 | 907 | 22.3 | 16.1 | 308 | 9 |
| 2010-01-24T23:33 | 942 | 907 | 22.2 | 15.9 | 307 | 9 |
| 2010-01-24T23:33 | 950 | 906 | 22.1 | 15.9 | 307 | 9 |
| 2010-01-24T23:33 | 957 | 905 | 22.0 | 16.1 | 306 | 9 |
| 2010-01-24T23:33 | 964 | 904 | 21.9 | 16.0 | 306 | 9 |
| 2010-01-24T23:33 | 971 | 904 | 21.8 | 16.0 | 306 | 9 |
| 2010-01-24T23:33 | 978 | 903 | 21.8 | 15.9 | 305 | 9 |
| 2010-01-24T23:33 | 985 | 902 | 21.8 | 15.7 | 305 | 9 |
| 2010-01-24T23:33 | 993 | 901 | 21.7 | 15.6 | 305 | 9 |
| 2010-01-24T23:33 | 1001 | 901 | 21.6 | 15.6 | 304 | 9 |
| 2010-01-24T23:33 | 1008 | 900 | 21.6 | 15.4 | 304 | 9 |
| 2010-01-24T23:33 | 1015 | 899 | 21.6 | 15.3 | 304 | 9 |
| 2010-01-24T23:33 | 1023 | 898 | 21.6 | 15.2 | 304 | 9 |
| 2010-01-24T23:33 | 1031 | 897 | 21.5 | 15.2 | 304 | 9 |
| 2010-01-24T23:33 | 1039 | 897 | 21.4 | 15.2 | 304 | 9 |
| 2010-01-24T23:33 | 1047 | 896 | 21.4 | 15.3 | 303 | 9 |
| 2010-01-24T23:33 | 1054 | 895 | 21.3 | 15.3 | 303 | 9 |
| 2010-01-24T23:33 | 1062 | 894 | 21.2 | 15.4 | 303 | 9 |
| 2010-01-24T23:33 | 1069 | 893 | 21.1 | 15.4 | 303 | 9 |
| 2010-01-24T23:33 | 1077 | 893 | 21.1 | 15.4 | 303 | 9 |
| 2010-01-24T23:33 | 1084 | 892 | 21.1 | 15.4 | 303 | 9 |
| 2010-01-24T23:33 | 1091 | 891 | 21.0 | 15.4 | 302 | 9 |
| 2010-01-24T23:33 | 1098 | 890 | 21.0 | 15.4 | 302 | 9 |
| 2010-01-24T23:33 | 1105 | 890 | 20.9 | 15.3 | 302 | 9 |
| 2010-01-24T23:33 | 1112 | 889 | 20.8 | 15.1 | 302 | 9 |
| 2010-01-24T23:33 | 1120 | 888 | 20.7 | 15.1 | 302 | 9 |
| 2010-01-24T23:34 | 1127 | 887 | 20.7 | 15.2 | 302 | 9 |
| 2010-01-24T23:34 | 1135 | 887 | 20.6 | 15.3 | 302 | 9 |
| 2010-01-24T23:34 | 1141 | 886 | 20.6 | 15.4 | 303 | 9 |
| 2010-01-24T23:34 | 1149 | 885 | 20.5 | 15.4 | 303 | 9 |
| 2010-01-24T23:34 | 1156 | 885 | 20.5 | 15.5 | 303 | 9 |
| 2010-01-24T23:34 | 1163 | 884 | 20.5 | 15.4 | 303 | 9 |
| 2010-01-24T23:34 | 1170 | 883 | 20.4 | 15.4 | 303 | 9 |
| 2010-01-24T23:34 | 1176 | 882 | 20.4 | 15.3 | 304 | 9 |
| 2010-01-24T23:34 | 1183 | 882 | 20.4 | 15.3 | 304 | 9 |
| 2010-01-24T23:34 | 1191 | 881 | 20.4 | 15.2 | 304 | 9 |
| 2010-01-24T23:34 | 1199 | 880 | 20.4 | 15.2 | 304 | 9 |
| 2010-01-24T23:34 | 1206 | 879 | 20.4 | 15.2 | 304 | 9 |
| 2010-01-24T23:34 | 1213 | 879 | 20.3 | 15.1 | 304 | 9 |
| 2010-01-24T23:34 | 1220 | 878 | 20.3 | 15.1 | 304 | 9 |
| 2010-01-24T23:34 | 1227 | 877 | 20.2 | 14.9 | 304 | 9 |
| 2010-01-24T23:34 | 1235 | 877 | 20.1 | 14.9 | 304 | 9 |
| 2010-01-24T23:34 | 1242 | 876 | 20.1 | 14.9 | 304 | 9 |
| 2010-01-24T23:34 | 1249 | 875 | 20.1 | 15.0 | 304 | 9 |
| 2010-01-24T23:34 | 1255 | 874 | 20.0 | 14.9 | 304 | 9 |
| 2010-01-24T23:34 | 1261 | 874 | 20.0 | 14.9 | 304 | 9 |
| 2010-01-24T23:34 | 1268 | 873 | 20.0 | 14.8 | 304 | 9 |
| 2010-01-24T23:34 | 1274 | 873 | 19.9 | 14.8 | 304 | 9 |
| 2010-01-24T23:34 | 1281 | 872 | 19.9 | 14.6 | 303 | 9 |
| 2010-01-24T23:34 | 1287 | 871 | 19.9 | 14.4 | 303 | 9 |
| 2010-01-24T23:34 | 1295 | 870 | 19.9 | 14.0 | 303 | 9 |
| 2010-01-24T23:34 | 1302 | 870 | 19.9 | 13.5 | 303 | 9 |
| 2010-01-24T23:34 | 1310 | 869 | 19.9 | 13.4 | 302 | 9 |
| 2010-01-24T23:34 | 1318 | 868 | 19.9 | 13.5 | 302 | 9 |
| 2010-01-24T23:34 | 1325 | 867 | 19.9 | 13.6 | 302 | 9 |
| 2010-01-24T23:34 | 1332 | 867 | 19.8 | 13.8 | 302 | 9 |
| 2010-01-24T23:35 | 1340 | 866 | 19.7 | 14.1 | 302 | 9 |
| 2010-01-24T23:35 | 1348 | 865 | 19.6 | 14.0 | 301 | 9 |
| 2010-01-24T23:35 | 1355 | 864 | 19.6 | 13.8 | 301 | 9 |
| 2010-01-24T23:35 | 1363 | 864 | 19.5 | 13.9 | 301 | 9 |
| 2010-01-24T23:35 | 1370 | 863 | 19.4 | 13.8 | 301 | 10 |
| 2010-01-24T23:35 | 1377 | 862 | 19.4 | 13.7 | 301 | 10 |
| 2010-01-24T23:35 | 1384 | 861 | 19.3 | 14.0 | 300 | 10 |
| 2010-01-24T23:35 | 1391 | 861 | 19.3 | 14.1 | 300 | 10 |
| 2010-01-24T23:35 | 1399 | 860 | 19.3 | 13.9 | 300 | 10 |
| 2010-01-24T23:35 | 1406 | 859 | 19.2 | 13.8 | 300 | 10 |
| 2010-01-24T23:35 | 1415 | 858 | 19.1 | 13.8 | 300 | 10 |
| 2010-01-24T23:35 | 1422 | 858 | 19.0 | 13.9 | 299 | 10 |
| 2010-01-24T23:35 | 1430 | 857 | 19.0 | 14.1 | 299 | 10 |
| 2010-01-24T23:35 | 1438 | 856 | 18.9 | 14.1 | 299 | 10 |
| 2010-01-24T23:35 | 1446 | 855 | 19.0 | 14.0 | 299 | 10 |
| 2010-01-24T23:35 | 1454 | 855 | 18.9 | 13.9 | 299 | 10 |
| 2010-01-24T23:35 | 1462 | 854 | 18.9 | 13.9 | 298 | 11 |
| 2010-01-24T23:35 | 1470 | 853 | 18.8 | 13.9 | 298 | 11 |
| 2010-01-24T23:35 | 1478 | 852 | 18.8 | 13.9 | 298 | 11 |
| 2010-01-24T23:35 | 1486 | 851 | 18.7 | 13.9 | 298 | 11 |
| 2010-01-24T23:35 | 1493 | 851 | 18.7 | 13.9 | 297 | 11 |
| 2010-01-24T23:35 | 1501 | 850 | 18.6 | 13.9 | 297 | 11 |
| 2010-01-24T23:35 | 1508 | 849 | 18.6 | 13.8 | 297 | 11 |
| 2010-01-24T23:35 | 1515 | 848 | 18.6 | 13.6 | 297 | 11 |
| 2010-01-24T23:35 | 1523 | 848 | 18.5 | 13.6 | 297 | 11 |
| 2010-01-24T23:35 | 1530 | 847 | 18.5 | 13.5 | 297 | 10 |
| 2010-01-24T23:35 | 1537 | 846 | 18.5 | 13.5 | 296 | 10 |
| 2010-01-24T23:35 | 1544 | 846 | 18.5 | 13.6 | 296 | 10 |
| 2010-01-24T23:35 | 1551 | 845 | 18.4 | 13.5 | 296 | 10 |
| 2010-01-24T23:35 | 1559 | 844 | 18.4 | 13.5 | 296 | 10 |
| 2010-01-24T23:36 | 1566 | 843 | 18.3 | 13.5 | 296 | 10 |
| 2010-01-24T23:36 | 1574 | 843 | 18.3 | 13.5 | 296 | 10 |
| 2010-01-24T23:36 | 1581 | 842 | 18.2 | 13.5 | 295 | 10 |
| 2010-01-24T23:36 | 1589 | 841 | 18.1 | 13.5 | 295 | 10 |
| 2010-01-24T23:36 | 1596 | 841 | 18.1 | 13.6 | 295 | 10 |
| 2010-01-24T23:36 | 1604 | 840 | 18.1 | 13.5 | 294 | 10 |
| 2010-01-24T23:36 | 1612 | 839 | 18.1 | 13.5 | 294 | 10 |
| 2010-01-24T23:36 | 1620 | 838 | 18.1 | 13.4 | 294 | 10 |
| 2010-01-24T23:36 | 1628 | 837 | 18.1 | 13.4 | 293 | 10 |
| 2010-01-24T23:36 | 1635 | 837 | 18.0 | 13.2 | 293 | 10 |
| 2010-01-24T23:36 | 1643 | 836 | 18.0 | 13.2 | 292 | 10 |
| 2010-01-24T23:36 | 1650 | 835 | 18.0 | 13.2 | 291 | 10 |
| 2010-01-24T23:36 | 1657 | 835 | 17.9 | 13.3 | 291 | 10 |
| 2010-01-24T23:36 | 1665 | 834 | 17.9 | 13.3 | 290 | 10 |
| 2010-01-24T23:36 | 1673 | 833 | 18.0 | 13.2 | 290 | 10 |
| 2010-01-24T23:36 | 1681 | 832 | 17.9 | 13.0 | 290 | 10 |
| 2010-01-24T23:36 | 1688 | 832 | 17.9 | 12.8 | 289 | 10 |
| 2010-01-24T23:36 | 1695 | 831 | 17.9 | 12.6 | 289 | 10 |
| 2010-01-24T23:36 | 1703 | 830 | 17.9 | 12.4 | 289 | 10 |
| 2010-01-24T23:36 | 1711 | 829 | 17.9 | 12.1 | 288 | 10 |
| 2010-01-24T23:36 | 1718 | 829 | 17.9 | 11.5 | 288 | 10 |
| 2010-01-24T23:36 | 1726 | 828 | 18.0 | 10.8 | 288 | 10 |
| 2010-01-24T23:36 | 1734 | 827 | 17.9 | 10.5 | 288 | 10 |
| 2010-01-24T23:36 | 1742 | 826 | 17.9 | 10.3 | 288 | 10 |
| 2010-01-24T23:36 | 1750 | 826 | 17.9 | 10.0 | 288 | 10 |
| 2010-01-24T23:36 | 1758 | 825 | 17.9 | 9.7 | 288 | 11 |
| 2010-01-24T23:36 | 1766 | 824 | 17.8 | 9.5 | 288 | 11 |
| 2010-01-24T23:36 | 1775 | 823 | 17.8 | 9.3 | 288 | 11 |
| 2010-01-24T23:36 | 1783 | 822 | 17.7 | 9.1 | 287 | 11 |
| 2010-01-24T23:36 | 1790 | 822 | 17.6 | 8.9 | 287 | 11 |
| 2010-01-24T23:37 | 1798 | 821 | 17.6 | 8.7 | 287 | 11 |
| 2010-01-24T23:37 | 1807 | 820 | 17.6 | 8.4 | 287 | 11 |
| 2010-01-24T23:37 | 1815 | 819 | 17.6 | 8.2 | 286 | 11 |
| 2010-01-24T23:37 | 1822 | 819 | 17.5 | 8.4 | 286 | 11 |
| 2010-01-24T23:37 | 1830 | 818 | 17.5 | 8.6 | 286 | 12 |
| 2010-01-24T23:37 | 1839 | 817 | 17.4 | 8.8 | 286 | 12 |
| 2010-01-24T23:37 | 1847 | 816 | 17.4 | 8.8 | 285 | 12 |
| 2010-01-24T23:37 | 1855 | 816 | 17.4 | 8.8 | 285 | 12 |
| 2010-01-24T23:37 | 1863 | 815 | 17.4 | 8.7 | 285 | 12 |
| 2010-01-24T23:37 | 1871 | 814 | 17.4 | 8.7 | 284 | 12 |
| 2010-01-24T23:37 | 1879 | 813 | 17.3 | 8.7 | 284 | 12 |
| 2010-01-24T23:37 | 1887 | 813 | 17.2 | 8.6 | 284 | 12 |
| 2010-01-24T23:37 | 1894 | 812 | 17.2 | 8.5 | 284 | 12 |
| 2010-01-24T23:37 | 1902 | 811 | 17.2 | 8.2 | 283 | 12 |
| 2010-01-24T23:37 | 1910 | 810 | 17.1 | 8.0 | 283 | 13 |
| 2010-01-24T23:37 | 1919 | 809 | 17.1 | 7.9 | 283 | 13 |
| 2010-01-24T23:37 | 1928 | 809 | 17.0 | 7.7 | 283 | 13 |
| 2010-01-24T23:37 | 1936 | 808 | 17.0 | 7.3 | 282 | 13 |
| 2010-01-24T23:37 | 1944 | 807 | 16.9 | 7.1 | 282 | 13 |
| 2010-01-24T23:37 | 1952 | 806 | 16.9 | 7.0 | 282 | 13 |
| 2010-01-24T23:37 | 1960 | 806 | 16.9 | 6.9 | 282 | 13 |
| 2010-01-24T23:37 | 1967 | 805 | 16.8 | 6.8 | 282 | 13 |
| 2010-01-24T23:37 | 1975 | 804 | 16.7 | 6.7 | 282 | 13 |
| 2010-01-24T23:37 | 1983 | 803 | 16.7 | 6.7 | 281 | 14 |
| 2010-01-24T23:37 | 1991 | 803 | 16.8 | 6.6 | 281 | 14 |
| 2010-01-24T23:37 | 1999 | 802 | 16.8 | 6.4 | 281 | 14 |
| 2010-01-24T23:38 | 2038 | 798 | 16.7 | 6.8 | 281 | 14 |
| 2010-01-24T23:38 | 2077 | 795 | 16.5 | 5.8 | 282 | 14 |
| 2010-01-24T23:38 | 2117 | 791 | 16.2 | 5.5 | 282 | 14 |
| 2010-01-24T23:38 | 2157 | 787 | 15.9 | 5.0 | 282 | 14 |
| 2010-01-24T23:38 | 2195 | 784 | 15.8 | 5.3 | 281 | 14 |
| 2010-01-24T23:38 | 2233 | 780 | 15.5 | 5.5 | 281 | 14 |
| 2010-01-24T23:39 | 2270 | 777 | 15.2 | 6.3 | 280 | 14 |
| 2010-01-24T23:39 | 2307 | 773 | 14.8 | 7.3 | 279 | 15 |
| 2010-01-24T23:39 | 2344 | 770 | 14.4 | 7.6 | 279 | 15 |
| 2010-01-24T23:39 | 2380 | 767 | 14.0 | 8.6 | 278 | 16 |
| 2010-01-24T23:39 | 2417 | 763 | 13.8 | 8.9 | 278 | 16 |
| 2010-01-24T23:39 | 2454 | 760 | 13.5 | 9.1 | 277 | 16 |
| 2010-01-24T23:40 | 2489 | 757 | 13.2 | 9.6 | 275 | 16 |
| 2010-01-24T23:40 | 2527 | 753 | 13.1 | 9.8 | 274 | 16 |
| 2010-01-24T23:40 | 2562 | 750 | 12.9 | 9.1 | 273 | 16 |
| 2010-01-24T23:40 | 2597 | 747 | 12.6 | 8.7 | 273 | 15 |
| 2010-01-24T23:40 | 2634 | 744 | 12.3 | 8.7 | 272 | 15 |
| 2010-01-24T23:40 | 2670 | 741 | 12.4 | 7.8 | 271 | 15 |
| 2010-01-24T23:41 | 2707 | 738 | 12.1 | 7.9 | 270 | 15 |
| 2010-01-24T23:41 | 2744 | 734 | 11.9 | 8.0 | 270 | 14 |
| 2010-01-24T23:41 | 2781 | 731 | 11.9 | 7.4 | 270 | 14 |
| 2010-01-24T23:41 | 2820 | 728 | 11.7 | 7.9 | 269 | 14 |
| 2010-01-24T23:41 | 2859 | 724 | 11.4 | 8.0 | 270 | 14 |
| 2010-01-24T23:41 | 2898 | 721 | 11.0 | 8.1 | 271 | 14 |
| 2010-01-24T23:42 | 2938 | 717 | 11.1 | 7.5 | 274 | 14 |
| 2010-01-24T23:42 | 2979 | 714 | 10.8 | 6.5 | 277 | 14 |
| 2010-01-24T23:42 | 3022 | 710 | 10.7 | 4.5 | 278 | 13 |
| 2010-01-24T23:42 | 3063 | 707 | 10.6 | 3.3 | 278 | 13 |
| 2010-01-24T23:42 | 3106 | 703 | 10.4 | 3.1 | 278 | 13 |
| 2010-01-24T23:42 | 3148 | 700 | 10.3 | 4.3 | 279 | 13 |
| 2010-01-24T23:43 | 3190 | 696 | 10.1 | 4.3 | 279 | 13 |
| 2010-01-24T23:43 | 3232 | 693 | 10.0 | 3.2 | 280 | 13 |
| 2010-01-24T23:43 | 3278 | 689 | 9.6 | 3.1 | 282 | 13 |
| 2010-01-24T23:43 | 3321 | 685 | 9.3 | 3.8 | 283 | 13 |
| 2010-01-24T23:43 | 3365 | 682 | 9.0 | 2.6 | 283 | 13 |
| 2010-01-24T23:43 | 3408 | 678 | 8.6 | 2.3 | 282 | 13 |
| 2010-01-24T23:44 | 3451 | 675 | 8.4 | -0.2 | 281 | 13 |
| 2010-01-24T23:44 | 3494 | 671 | 8.2 | 0.5 | 279 | 12 |
| 2010-01-24T23:44 | 3538 | 668 | 8.0 | 1.3 | 278 | 12 |
| 2010-01-24T23:44 | 3583 | 664 | 7.8 | 0.9 | 275 | 12 |
| 2010-01-24T23:44 | 3626 | 660 | 7.7 | 1.8 | 272 | 12 |
| 2010-01-24T23:44 | 3667 | 657 | 7.4 | 2.1 | 270 | 12 |
| 2010-01-24T23:45 | 3710 | 654 | 7.1 | 1.9 | 268 | 12 |
| 2010-01-24T23:45 | 3751 | 650 | 6.9 | 2.2 | 266 | 12 |
| 2010-01-24T23:45 | 3789 | 647 | 6.5 | 2.0 | 264 | 11 |
| 2010-01-24T23:45 | 3828 | 644 | 6.5 | 2.1 | 263 | 11 |
| 2010-01-24T23:45 | 3869 | 641 | 6.3 | 1.5 | 262 | 10 |
| 2010-01-24T23:45 | 3907 | 638 | 6.0 | 0.3 | 260 | 10 |
| 2010-01-24T23:46 | 3947 | 635 | 5.9 | -0.5 | 259 | 10 |
| 2010-01-24T23:46 | 3987 | 632 | 5.7 | -0.2 | 260 | 10 |
| 2010-01-24T23:46 | 4027 | 629 | 5.7 | -1.1 | 262 | 11 |
| 2010-01-24T23:46 | 4067 | 626 | 5.5 | -0.2 | 264 | 10 |
| 2010-01-24T23:46 | 4107 | 623 | 5.5 | -1.3 | 265 | 10 |
| 2010-01-24T23:46 | 4148 | 620 | 5.3 | -2.7 | 266 | 10 |
| 2010-01-24T23:47 | 4189 | 617 | 5.2 | -4.5 | 269 | 10 |
| 2010-01-24T23:47 | 4229 | 614 | 5.2 | -5.7 | 273 | 10 |
| 2010-01-24T23:47 | 4268 | 611 | 5.2 | -6.2 | 276 | 10 |
| 2010-01-24T23:47 | 4308 | 608 | 5.1 | -7.1 | 277 | 10 |
| 2010-01-24T23:47 | 4348 | 605 | 4.9 | -8.3 | 278 | 9 |
| 2010-01-24T23:47 | 4388 | 602 | 4.5 | -8.8 | 279 | 9 |
| 2010-01-24T23:48 | 4428 | 599 | 4.3 | -10.1 | 281 | 9 |
| 2010-01-24T23:48 | 4469 | 596 | 4.0 | -10.9 | 283 | 9 |
| 2010-01-24T23:48 | 4510 | 593 | 3.7 | -10.7 | 286 | 9 |
| 2010-01-24T23:48 | 4551 | 590 | 3.4 | -10.9 | 290 | 9 |
| 2010-01-24T23:48 | 4592 | 587 | 3.0 | -11.6 | 293 | 9 |
| 2010-01-24T23:48 | 4633 | 584 | 2.7 | -11.1 | 295 | 8 |
| 2010-01-24T23:49 | 4675 | 581 | 2.4 | -11.3 | 298 | 8 |
| 2010-01-24T23:49 | 4717 | 578 | 2.0 | -12.3 | 300 | 8 |
| 2010-01-24T23:49 | 4759 | 575 | 1.8 | -13.1 | 302 | 7 |
| 2010-01-24T23:49 | 4801 | 572 | 1.5 | -13.0 | 305 | 6 |
| 2010-01-24T23:49 | 4844 | 569 | 1.1 | -13.2 | 309 | 6 |
| 2010-01-24T23:49 | 4887 | 566 | 0.8 | -14.0 | 313 | 5 |
| 2010-01-24T23:50 | 4931 | 563 | 0.6 | -15.2 | 318 | 4 |
| 2010-01-24T23:50 | 4974 | 560 | 0.4 | -16.6 | 321 | 4 |
| 2010-01-24T23:50 | 5017 | 557 | 0.6 | -16.4 | 321 | 5 |
| 2010-01-24T23:50 | 5060 | 554 | 0.9 | -23.0 | 318 | 4 |
| 2010-01-24T23:50 | 5103 | 551 | 0.9 | -17.9 | 314 | 4 |
| 2010-01-24T23:50 | 5147 | 548 | 0.5 | -17.1 | 313 | 3 |
| 2010-01-24T23:51 | 5191 | 545 | 0.2 | -17.1 | 313 | 3 |
| 2010-01-24T23:51 | 5233 | 542 | -0.2 | -16.2 | 312 | 3 |
| 2010-01-24T23:51 | 5276 | 539 | -0.6 | -16.7 | 308 | 3 |
| 2010-01-24T23:51 | 5318 | 536 | -1.0 | -17.0 | 302 | 2 |
| 2010-01-24T23:51 | 5361 | 533 | -1.4 | -16.9 | 296 | 2 |
| 2010-01-24T23:51 | 5404 | 530 | -1.7 | -16.0 | 287 | 1 |
| 2010-01-24T23:52 | 5445 | 528 | -2.1 | -15.5 | 279 | 1 |
| 2010-01-24T23:52 | 5486 | 525 | -2.4 | -15.4 | 264 | 1 |
| 2010-01-24T23:52 | 5529 | 522 | -2.8 | -16.0 | 241 | 2 |
| 2010-01-24T23:52 | 5571 | 519 | -3.0 | -13.5 | 222 | 2 |
| 2010-01-24T23:52 | 5613 | 517 | -3.3 | -11.7 | 212 | 3 |
| 2010-01-24T23:52 | 5655 | 514 | -3.7 | -10.0 | 205 | 3 |
| 2010-01-24T23:53 | 5696 | 511 | -3.9 | -9.5 | 197 | 3 |
| 2010-01-24T23:53 | 5739 | 508 | -4.3 | -9.6 | 184 | 4 |
| 2010-01-24T23:53 | 5780 | 506 | -4.3 | -11.4 | 173 | 4 |
| 2010-01-24T23:53 | 5823 | 503 | -4.5 | -12.0 | 165 | 5 |
| 2010-01-24T23:53 | 5866 | 500 | -4.9 | -9.8 | 163 | 5 |
| 2010-01-24T23:53 | 5908 | 498 | -5.0 | -10.0 | 164 | 5 |
| 2010-01-24T23:54 | 5951 | 495 | -5.3 | -9.5 | 166 | 5 |
| 2010-01-24T23:54 | 5994 | 492 | -5.5 | -9.6 | 168 | 5 |
| 2010-01-24T23:54 | 6037 | 490 | -5.8 | -9.9 | 170 | 5 |
| 2010-01-24T23:54 | 6081 | 487 | -6.0 | -9.8 | 175 | 5 |
| 2010-01-24T23:54 | 6124 | 484 | -6.3 | -10.3 | 182 | 5 |
| 2010-01-24T23:54 | 6168 | 481 | -6.4 | -10.3 | 184 | 5 |
| 2010-01-24T23:55 | 6212 | 479 | -6.5 | -10.8 | 181 | 6 |
| 2010-01-24T23:55 | 6256 | 476 | -6.7 | -12.0 | 177 | 6 |
| 2010-01-24T23:55 | 6299 | 473 | -6.4 | -12.4 | 175 | 6 |
| 2010-01-24T23:55 | 6343 | 471 | -6.6 | -13.3 | 175 | 6 |
| 2010-01-24T23:55 | 6387 | 468 | -6.9 | -13.8 | 173 | 7 |
| 2010-01-24T23:55 | 6433 | 465 | -7.3 | -13.1 | 169 | 8 |
| 2010-01-24T23:56 | 6481 | 463 | -7.7 | -12.7 | 164 | 8 |
| 2010-01-24T23:56 | 6527 | 460 | -7.9 | -13.6 | 159 | 8 |
| 2010-01-24T23:56 | 6572 | 457 | -7.9 | -14.5 | 154 | 7 |
| 2010-01-24T23:56 | 6616 | 455 | -8.1 | -14.7 | 148 | 6 |
| 2010-01-24T23:56 | 6661 | 452 | -8.4 | -14.8 | 143 | 6 |
| 2010-01-24T23:56 | 6705 | 449 | -8.5 | -15.3 | 141 | 7 |
| 2010-01-24T23:57 | 6749 | 447 | -8.8 | -15.4 | 141 | 7 |
| 2010-01-24T23:57 | 6793 | 444 | -9.1 | -16.2 | 141 | 7 |
| 2010-01-24T23:57 | 6838 | 442 | -9.5 | -16.9 | 139 | 7 |
| 2010-01-24T23:57 | 6883 | 439 | -9.6 | -17.5 | 137 | 7 |
| 2010-01-24T23:57 | 6928 | 437 | -9.8 | -18.9 | 136 | 8 |
| 2010-01-24T23:57 | 6972 | 434 | -9.9 | -19.5 | 138 | 8 |
| 2010-01-24T23:58 | 7016 | 432 | -10.3 | -19.5 | 141 | 8 |
| 2010-01-24T23:58 | 7060 | 429 | -10.5 | -19.7 | 141 | 8 |
| 2010-01-24T23:58 | 7105 | 427 | -10.9 | -21.2 | 139 | 9 |
| 2010-01-24T23:58 | 7151 | 424 | -11.2 | -22.3 | 136 | 10 |
| 2010-01-24T23:58 | 7197 | 422 | -11.4 | -23.7 | 134 | 10 |
| 2010-01-24T23:58 | 7240 | 419 | -11.8 | -24.4 | 134 | 10 |
| 2010-01-24T23:59 | 7285 | 417 | -12.1 | -24.5 | 134 | 10 |
| 2010-01-24T23:59 | 7329 | 414 | -12.5 | -25.0 | 133 | 10 |
| 2010-01-24T23:59 | 7374 | 412 | -12.9 | -23.8 | 134 | 9 |
| 2010-01-24T23:59 | 7420 | 410 | -13.1 | -23.1 | 135 | 9 |
| 2010-01-24T23:59 | 7466 | 407 | -13.3 | -23.4 | 132 | 9 |
| 2010-01-24T23:59 | 7511 | 405 | -13.5 | -22.5 | 128 | 8 |
| 2010-01-25T00:00 | 7555 | 402 | -13.7 | -22.0 | 128 | 8 |
| 2010-01-25T00:00 | 7600 | 400 | -14.1 | -22.6 | 129 | 7 |
| 2010-01-25T00:00 | 7644 | 398 | -14.4 | -22.9 | 129 | 8 |
| 2010-01-25T00:00 | 7689 | 395 | -14.8 | -23.0 | 129 | 7 |
| 2010-01-25T00:00 | 7733 | 393 | -15.1 | -23.2 | 129 | 7 |
| 2010-01-25T00:00 | 7778 | 391 | -15.7 | -23.4 | 132 | 7 |
| 2010-01-25T00:01 | 7822 | 388 | -16.0 | -23.6 | 134 | 7 |
| 2010-01-25T00:01 | 7866 | 386 | -16.2 | -24.4 | 136 | 7 |
| 2010-01-25T00:01 | 7912 | 384 | -16.6 | -25.4 | 138 | 6 |
| 2010-01-25T00:01 | 7955 | 382 | -17.0 | -26.6 | 142 | 6 |
| 2010-01-25T00:01 | 8000 | 379 | -17.4 | -26.8 | 145 | 6 |
| 2010-01-25T00:01 | 8045 | 377 | -17.5 | -26.7 | 147 | 5 |
| 2010-01-25T00:02 | 8089 | 375 | -17.6 | -26.6 | 152 | 4 |
| 2010-01-25T00:02 | 8134 | 373 | -17.5 | -27.3 | 163 | 3 |
| 2010-01-25T00:02 | 8177 | 370 | -17.6 | -27.9 | 176 | 3 |
| 2010-01-25T00:02 | 8222 | 368 | -17.8 | -27.9 | 182 | 4 |
| 2010-01-25T00:02 | 8266 | 366 | -18.0 | -28.1 | 187 | 4 |
| 2010-01-25T00:02 | 8309 | 364 | -18.0 | -29.9 | 191 | 4 |
| 2010-01-25T00:03 | 8345 | 362 | -18.1 | -31.0 | 192 | 5 |
| 2010-01-25T00:03 | 8373 | 361 | -18.1 | -31.7 | 189 | 5 |
| 2010-01-25T00:03 | 8406 | 359 | -18.3 | -32.5 | 188 | 4 |
| 2010-01-25T00:03 | 8440 | 358 | -18.6 | -32.9 | 188 | 4 |
| 2010-01-25T00:03 | 8480 | 356 | -18.9 | -33.1 | 186 | 4 |
| 2010-01-25T00:03 | 8516 | 354 | -19.1 | -33.5 | 180 | 4 |
| 2010-01-25T00:04 | 8551 | 352 | -19.6 | -33.8 | 173 | 3 |
| 2010-01-25T00:04 | 8590 | 350 | -20.0 | -33.9 | 167 | 3 |
| 2010-01-25T00:04 | 8623 | 349 | -20.3 | -33.9 | 167 | 3 |
| 2010-01-25T00:04 | 8655 | 347 | -20.5 | -33.8 | 168 | 3 |
| 2010-01-25T00:04 | 8688 | 346 | -20.8 | -33.9 | 165 | 3 |
| 2010-01-25T00:04 | 8722 | 344 | -21.2 | -34.1 | 159 | 3 |
| 2010-01-25T00:05 | 8754 | 343 | -21.5 | -34.1 | 155 | 3 |
| 2010-01-25T00:05 | 8788 | 341 | -21.8 | -34.2 | 155 | 3 |
| 2010-01-25T00:05 | 8821 | 340 | -21.9 | -34.5 | 154 | 4 |
| 2010-01-25T00:05 | 8859 | 338 | -22.3 | -35.0 | 152 | 4 |
| 2010-01-25T00:05 | 8899 | 336 | -22.6 | -35.4 | 149 | 5 |
| 2010-01-25T00:05 | 8933 | 335 | -22.9 | -35.5 | 145 | 6 |
| 2010-01-25T00:06 | 8972 | 333 | -23.3 | -35.8 | 141 | 6 |
| 2010-01-25T00:06 | 9010 | 331 | -23.6 | -36.0 | 140 | 6 |
| 2010-01-25T00:06 | 9046 | 329 | -23.9 | -36.5 | 138 | 7 |
| 2010-01-25T00:06 | 9084 | 328 | -24.3 | -36.6 | 136 | 7 |
| 2010-01-25T00:06 | 9125 | 326 | -24.6 | -36.6 | 134 | 7 |
| 2010-01-25T00:06 | 9161 | 324 | -24.9 | -36.8 | 130 | 8 |
| 2010-01-25T00:07 | 9221 | 322 | -25.4 | -37.5 | 125 | 8 |
| 2010-01-25T00:07 | 9272 | 319 | -25.8 | -37.6 | 120 | 9 |
| 2010-01-25T00:07 | 9322 | 317 | -26.1 | -37.7 | 117 | 9 |
| 2010-01-25T00:07 | 9372 | 315 | -26.7 | -38.2 | 114 | 9 |
| 2010-01-25T00:07 | 9420 | 313 | -27.0 | -39.2 | 112 | 10 |
| 2010-01-25T00:07 | 9457 | 311 | -27.3 | -40.0 | 111 | 10 |
| 2010-01-25T00:08 | 9482 | 310 | -27.6 | -39.8 | 109 | 10 |
| 2010-01-25T00:08 | 9510 | 309 | -27.8 | -39.6 | 109 | 10 |
| 2010-01-25T00:08 | 9537 | 308 | -28.0 | -39.5 | 109 | 10 |
| 2010-01-25T00:08 | 9564 | 307 | -28.3 | -39.8 | 109 | 10 |
| 2010-01-25T00:08 | 9589 | 306 | -28.7 | -39.7 | 109 | 10 |
| 2010-01-25T00:08 | 9615 | 304 | -28.8 | -39.6 | 109 | 10 |
| 2010-01-25T00:09 | 9640 | 303 | -29.0 | -39.6 | 110 | 10 |
| 2010-01-25T00:09 | 9667 | 302 | -29.2 | -40.0 | 110 | 10 |
| 2010-01-25T00:09 | 9694 | 301 | -29.5 | -40.3 | 111 | 10 |
| 2010-01-25T00:09 | 9722 | 300 | -29.8 | -40.5 | 111 | 10 |
| 2010-01-25T00:09 | 9750 | 299 | -30.0 | -40.8 | 110 | 10 |
| 2010-01-25T00:09 | 9781 | 297 | -30.4 | -41.3 | 110 | 10 |
| 2010-01-25T00:10 | 9809 | 296 | -30.6 | -41.3 | 109 | 10 |
| 2010-01-25T00:10 | 9838 | 295 | -30.8 | -41.5 | 107 | 10 |
| 2010-01-25T00:10 | 9867 | 294 | -31.2 | -41.3 | 106 | 9 |
| 2010-01-25T00:10 | 9899 | 293 | -31.5 | -41.2 | 106 | 9 |
| 2010-01-25T00:10 | 9930 | 291 | -31.8 | -41.1 | 106 | 9 |
| 2010-01-25T00:10 | 9957 | 290 | -32.0 | -41.4 | 106 | 9 |
| 2010-01-25T00:11 | 9986 | 289 | -32.3 | -41.5 | 105 | 9 |
| 2010-01-25T00:11 | 10014 | 288 | -32.6 | -41.4 | 104 | 9 |
| 2010-01-25T00:11 | 10043 | 287 | -32.8 | -41.5 | 104 | 9 |
| 2010-01-25T00:11 | 10072 | 285 | -33.1 | -41.7 | 103 | 9 |
| 2010-01-25T00:11 | 10100 | 284 | -33.3 | -41.6 | 101 | 9 |
| 2010-01-25T00:11 | 10127 | 283 | -33.5 | -42.1 | 99 | 9 |
| 2010-01-25T00:12 | 10154 | 282 | -33.8 | -43.1 | 97 | 9 |
| 2010-01-25T00:12 | 10184 | 281 | -34.1 | -43.0 | 94 | 9 |
| 2010-01-25T00:12 | 10215 | 280 | -34.4 | -43.4 | 93 | 10 |
| 2010-01-25T00:12 | 10245 | 278 | -34.7 | -43.5 | 92 | 10 |
| 2010-01-25T00:12 | 10273 | 277 | -34.9 | -43.7 | 91 | 11 |
| 2010-01-25T00:12 | 10303 | 276 | -35.2 | -44.0 | 90 | 11 |
| 2010-01-25T00:13 | 10332 | 275 | -35.5 | -44.3 | 89 | 11 |
| 2010-01-25T00:13 | 10363 | 274 | -35.6 | -44.8 | 88 | 12 |
| 2010-01-25T00:13 | 10393 | 273 | -35.8 | -45.4 | 85 | 13 |
| 2010-01-25T00:13 | 10424 | 271 | -36.0 | -47.1 | 82 | 13 |
| 2010-01-25T00:13 | 10452 | 270 | -36.1 | -48.4 | 82 | 13 |
| 2010-01-25T00:13 | 10481 | 269 | -36.3 | -49.5 | 82 | 14 |
| 2010-01-25T00:14 | 10509 | 268 | -36.6 | -49.8 | 82 | 14 |
| 2010-01-25T00:14 | 10538 | 267 | -36.7 | -50.6 | 82 | 15 |
| 2010-01-25T00:14 | 10566 | 266 | -36.8 | -52.2 | 82 | 15 |
| 2010-01-25T00:14 | 10594 | 265 | -37.0 | -53.1 | 83 | 16 |
| 2010-01-25T00:14 | 10623 | 264 | -37.1 | -53.6 | 83 | 15 |
| 2010-01-25T00:14 | 10651 | 263 | -37.3 | -54.4 | 83 | 15 |
| 2010-01-25T00:15 | 10679 | 262 | -37.7 | -54.2 | 82 | 15 |
| 2010-01-25T00:15 | 10708 | 261 | -37.9 | -54.5 | 81 | 15 |
| 2010-01-25T00:15 | 10737 | 259 | -38.1 | -54.7 | 81 | 15 |
| 2010-01-25T00:15 | 10765 | 258 | -38.2 | -55.3 | 80 | 16 |
| 2010-01-25T00:15 | 10793 | 257 | -38.3 | -55.3 | 79 | 16 |
| 2010-01-25T00:15 | 10820 | 256 | -38.7 | -56.2 | 78 | 16 |
| 2010-01-25T00:16 | 10850 | 255 | -38.6 | -56.8 | 77 | 16 |
| 2010-01-25T00:16 | 10880 | 254 | -38.9 | -57.6 | 77 | 16 |
| 2010-01-25T00:16 | 10908 | 253 | -39.3 | -57.7 | 78 | 16 |
| 2010-01-25T00:16 | 10937 | 252 | -39.4 | -57.1 | 78 | 15 |
| 2010-01-25T00:16 | 10967 | 251 | -39.8 | -57.7 | 79 | 15 |
| 2010-01-25T00:16 | 10996 | 250 | -40.1 | -57.7 | 80 | 15 |
| 2010-01-25T00:17 | 11027 | 249 | -40.3 | -57.7 | 81 | 15 |
| 2010-01-25T00:17 | 11055 | 248 | -40.6 | -57.8 | 81 | 15 |
| 2010-01-25T00:17 | 11084 | 247 | -40.9 | -57.6 | 82 | 15 |
| 2010-01-25T00:17 | 11113 | 246 | -41.0 | -57.3 | 83 | 15 |
| 2010-01-25T00:17 | 11144 | 244 | -41.5 | -57.5 | 83 | 15 |
| 2010-01-25T00:17 | 11173 | 243 | -41.7 | -57.3 | 84 | 16 |
| 2010-01-25T00:18 | 11201 | 242 | -42.0 | -57.3 | 84 | 16 |
| 2010-01-25T00:18 | 11231 | 241 | -42.3 | -57.2 | 84 | 16 |
| 2010-01-25T00:18 | 11260 | 240 | -42.7 | -57.3 | 85 | 16 |
| 2010-01-25T00:18 | 11289 | 239 | -42.9 | -57.4 | 84 | 16 |
| 2010-01-25T00:18 | 11318 | 238 | -43.0 | -57.4 | 84 | 17 |
| 2010-01-25T00:18 | 11347 | 237 | -43.2 | -58.2 | 82 | 17 |
| 2010-01-25T00:19 | 11376 | 236 | -43.4 | -58.9 | 82 | 17 |
| 2010-01-25T00:19 | 11405 | 235 | -43.6 | -59.9 | 81 | 17 |
| 2010-01-25T00:19 | 11435 | 234 | -43.8 | -60.7 | 80 | 17 |
| 2010-01-25T00:19 | 11462 | 233 | -44.0 | -61.1 | 80 | 18 |
| 2010-01-25T00:19 | 11491 | 232 | -44.1 | -61.3 | 79 | 18 |
| 2010-01-25T00:19 | 11519 | 231 | -44.4 | -61.3 | 79 | 18 |
| 2010-01-25T00:20 | 11549 | 230 | -44.6 | -61.4 | 79 | 18 |
| 2010-01-25T00:20 | 11577 | 229 | -44.8 | -61.7 | 79 | 18 |
| 2010-01-25T00:20 | 11606 | 228 | -45.1 | -62.0 | 79 | 19 |
| 2010-01-25T00:20 | 11634 | 227 | -45.5 | -62.3 | 80 | 19 |
| 2010-01-25T00:20 | 11662 | 226 | -45.6 | -62.1 | 81 | 19 |
| 2010-01-25T00:20 | 11689 | 225 | -45.9 | -61.8 | 81 | 19 |
| 2010-01-25T00:21 | 11718 | 224 | -46.1 | -61.2 | 82 | 19 |
| 2010-01-25T00:21 | 11746 | 223 | -46.4 | -61.4 | 83 | 20 |
| 2010-01-25T00:21 | 11773 | 223 | -46.5 | -61.9 | 83 | 20 |
| 2010-01-25T00:21 | 11800 | 222 | -46.6 | -62.9 | 83 | 20 |
| 2010-01-25T00:21 | 11828 | 221 | -46.7 | -63.6 | 83 | 20 |
| 2010-01-25T00:21 | 11855 | 220 | -47.0 | -64.1 | 83 | 20 |
| 2010-01-25T00:22 | 11883 | 219 | -47.2 | -64.4 | 82 | 20 |
| 2010-01-25T00:22 | 11911 | 218 | -47.4 | -64.6 | 82 | 20 |
| 2010-01-25T00:22 | 11939 | 217 | -47.6 | -64.7 | 82 | 20 |
| 2010-01-25T00:22 | 11967 | 216 | -48.0 | -64.6 | 82 | 19 |
| 2010-01-25T00:22 | 11995 | 215 | -48.0 | -64.4 | 82 | 19 |
| 2010-01-25T00:22 | 12023 | 214 | -48.4 | -64.4 | 81 | 19 |
| 2010-01-25T00:23 | 12051 | 213 | -48.6 | -64.5 | 81 | 19 |
| 2010-01-25T00:23 | 12079 | 212 | -48.8 | -64.7 | 82 | 19 |
| 2010-01-25T00:23 | 12108 | 212 | -49.2 | -65.6 | 82 | 19 |
| 2010-01-25T00:23 | 12137 | 211 | -49.6 | -66.4 | 82 | 19 |
| 2010-01-25T00:23 | 12167 | 210 | -49.6 | -66.6 | 82 | 19 |
| 2010-01-25T00:23 | 12196 | 209 | -50.1 | -67.0 | 82 | 19 |
| 2010-01-25T00:24 | 12225 | 208 | -50.4 | -67.6 | 82 | 19 |
| 2010-01-25T00:24 | 12255 | 207 | -50.5 | -67.6 | 82 | 19 |
| 2010-01-25T00:24 | 12286 | 206 | -50.8 | -67.8 | 83 | 20 |
| 2010-01-25T00:24 | 12315 | 205 | -51.2 | -68.2 | 83 | 19 |
| 2010-01-25T00:24 | 12343 | 204 | -51.4 | -68.3 | 84 | 19 |
| 2010-01-25T00:24 | 12374 | 203 | -51.6 | -68.3 | 84 | 19 |
| 2010-01-25T00:25 | 12404 | 202 | -51.9 | -68.4 | 84 | 20 |
| 2010-01-25T00:25 | 12435 | 201 | -52.1 | -68.7 | 84 | 20 |
| 2010-01-25T00:25 | 12465 | 200 | -52.3 | -68.7 | 84 | 20 |
| 2010-01-25T00:25 | 12496 | 199 | -52.5 | -69.0 | 83 | 20 |
| 2010-01-25T00:25 | 12525 | 198 | -52.9 | -69.3 | 83 | 20 |
| 2010-01-25T00:25 | 12556 | 197 | -53.2 | -69.4 | 83 | 20 |
| 2010-01-25T00:26 | 12587 | 196 | -53.5 | -69.5 | 83 | 20 |
| 2010-01-25T00:26 | 12618 | 196 | -53.8 | -69.6 | 83 | 20 |
| 2010-01-25T00:26 | 12649 | 195 | -54.1 | -69.7 | 82 | 20 |
| 2010-01-25T00:26 | 12679 | 194 | -54.4 | -69.6 | 81 | 20 |
| 2010-01-25T00:26 | 12711 | 193 | -54.6 | -69.5 | 80 | 20 |
| 2010-01-25T00:26 | 12742 | 192 | -55.0 | -69.6 | 79 | 20 |
| 2010-01-25T00:27 | 12773 | 191 | -55.4 | -69.8 | 77 | 21 |
| 2010-01-25T00:27 | 12804 | 190 | -55.0 | -69.9 | 76 | 22 |
| 2010-01-25T00:27 | 12833 | 189 | -55.3 | -70.6 | 76 | 22 |
| 2010-01-25T00:27 | 12863 | 188 | -55.7 | -71.2 | 75 | 22 |
| 2010-01-25T00:27 | 12894 | 187 | -56.0 | -71.3 | 74 | 23 |
| 2010-01-25T00:27 | 12922 | 186 | -56.1 | -71.1 | 74 | 23 |
| 2010-01-25T00:28 | 12952 | 186 | -56.4 | -71.0 | 74 | 23 |
| 2010-01-25T00:28 | 12982 | 185 | -56.6 | -70.9 | 74 | 23 |
| 2010-01-25T00:28 | 13010 | 184 | -57.0 | -70.9 | 73 | 23 |
| 2010-01-25T00:28 | 13039 | 183 | -57.3 | -70.7 | 73 | 23 |
| 2010-01-25T00:28 | 13068 | 182 | -57.5 | -70.5 | 73 | 23 |
| 2010-01-25T00:28 | 13098 | 181 | -57.7 | -70.3 | 72 | 23 |
| 2010-01-25T00:29 | 13127 | 181 | -58.0 | -70.3 | 72 | 23 |
| 2010-01-25T00:29 | 13155 | 180 | -58.4 | -70.3 | 71 | 23 |
| 2010-01-25T00:29 | 13185 | 179 | -58.6 | -70.1 | 71 | 24 |
| 2010-01-25T00:29 | 13214 | 178 | -58.6 | -70.0 | 72 | 24 |
| 2010-01-25T00:29 | 13242 | 177 | -59.0 | -70.1 | 72 | 24 |
| 2010-01-25T00:29 | 13273 | 176 | -59.2 | -70.1 | 72 | 24 |
| 2010-01-25T00:30 | 13303 | 176 | -59.5 | -70.1 | 73 | 24 |
| 2010-01-25T00:30 | 13333 | 175 | -59.7 | -70.0 | 73 | 24 |
| 2010-01-25T00:30 | 13362 | 174 | -60.0 | -69.9 | 74 | 24 |
| 2010-01-25T00:30 | 13392 | 173 | -60.4 | -69.9 | 74 | 24 |
| 2010-01-25T00:30 | 13422 | 172 | -60.8 | -69.6 | 75 | 24 |
| 2010-01-25T00:30 | 13452 | 171 | -61.0 | -69.3 | 75 | 24 |
| 2010-01-25T00:31 | 13481 | 171 | -61.0 | -69.0 | 75 | 24 |
| 2010-01-25T00:31 | 13512 | 170 | -61.4 | -69.1 | 75 | 24 |
| 2010-01-25T00:31 | 13542 | 169 | -61.7 | -69.1 | 76 | 24 |
| 2010-01-25T00:31 | 13572 | 168 | -62.1 | -69.1 | 77 | 24 |
| 2010-01-25T00:31 | 13601 | 167 | -62.5 | -69.1 | 77 | 24 |
| 2010-01-25T00:31 | 13630 | 166 | -62.7 | -69.3 | 77 | 24 |
| 2010-01-25T00:32 | 13659 | 166 | -62.7 | -69.7 | 78 | 24 |
| 2010-01-25T00:32 | 13687 | 165 | -62.8 | -70.1 | 79 | 24 |
| 2010-01-25T00:32 | 13715 | 164 | -63.1 | -70.9 | 80 | 24 |
| 2010-01-25T00:32 | 13745 | 163 | -63.4 | -71.7 | 81 | 23 |
| 2010-01-25T00:32 | 13774 | 163 | -63.3 | -72.0 | 82 | 23 |
| 2010-01-25T00:32 | 13802 | 162 | -63.5 | -72.5 | 83 | 23 |
| 2010-01-25T00:33 | 13831 | 161 | -63.8 | -72.7 | 84 | 22 |
| 2010-01-25T00:33 | 13861 | 160 | -64.0 | -73.0 | 86 | 22 |
| 2010-01-25T00:33 | 13890 | 160 | -64.0 | -73.7 | 87 | 22 |
| 2010-01-25T00:33 | 13920 | 159 | -64.3 | -74.4 | 89 | 22 |
| 2010-01-25T00:33 | 13950 | 158 | -64.5 | -75.1 | 91 | 22 |
| 2010-01-25T00:33 | 13980 | 157 | -64.7 | -75.8 | 91 | 22 |
| 2010-01-25T00:34 | 14010 | 156 | -64.6 | -76.2 | 92 | 22 |
| 2010-01-25T00:34 | 14041 | 156 | -64.7 | -76.8 | 91 | 23 |
| 2010-01-25T00:34 | 14072 | 155 | -65.1 | -77.6 | 90 | 23 |
| 2010-01-25T00:34 | 14101 | 154 | -65.4 | -78.3 | 91 | 24 |
| 2010-01-25T00:34 | 14130 | 153 | -65.9 | -79.1 | 92 | 24 |
| 2010-01-25T00:34 | 14163 | 153 | -66.2 | -79.7 | 93 | 25 |
| 2010-01-25T00:35 | 14196 | 152 | -66.2 | -80.1 | 95 | 26 |
| 2010-01-25T00:35 | 14227 | 151 | -66.4 | -80.6 | 96 | 26 |
| 2010-01-25T00:35 | 14258 | 150 | -66.5 | -80.9 | 97 | 26 |
| 2010-01-25T00:35 | 14290 | 149 | -66.7 | -81.3 | 97 | 26 |
| 2010-01-25T00:35 | 14320 | 149 | -67.1 | -81.9 | 98 | 26 |
| 2010-01-25T00:35 | 14352 | 148 | -67.2 | -82.1 | 98 | 26 |
| 2010-01-25T00:36 | 14384 | 147 | -67.4 | -82.3 | 98 | 26 |
| 2010-01-25T00:36 | 14414 | 146 | -67.7 | -82.7 | 99 | 26 |
| 2010-01-25T00:36 | 14446 | 146 | -67.9 | -83.0 | 99 | 26 |
| 2010-01-25T00:36 | 14479 | 145 | -68.1 | -83.2 | 99 | 26 |
| 2010-01-25T00:36 | 14512 | 144 | -68.5 | -83.5 | 99 | 26 |
| 2010-01-25T00:36 | 14544 | 143 | -68.9 | -83.9 | 100 | 26 |
| 2010-01-25T00:37 | 14576 | 142 | -69.3 | -84.2 | 100 | 26 |
| 2010-01-25T00:37 | 14610 | 142 | -69.7 | -84.4 | 100 | 26 |
| 2010-01-25T00:37 | 14643 | 141 | -70.0 | -84.5 | 99 | 26 |
| 2010-01-25T00:37 | 14677 | 140 | -70.5 | -84.6 | 98 | 25 |
| 2010-01-25T00:37 | 14710 | 139 | -70.7 | -84.6 | 97 | 25 |
| 2010-01-25T00:37 | 14741 | 139 | -70.9 | -84.5 | 96 | 26 |
| 2010-01-25T00:38 | 14774 | 138 | -71.3 | -84.6 | 95 | 26 |
| 2010-01-25T00:38 | 14807 | 137 | -71.6 | -84.8 | 95 | 26 |
| 2010-01-25T00:38 | 14838 | 136 | -71.9 | -85.0 | 94 | 26 |
| 2010-01-25T00:38 | 14870 | 136 | -72.0 | -85.0 | 94 | 25 |
| 2010-01-25T00:38 | 14903 | 135 | -72.2 | -85.1 | 94 | 25 |
| 2010-01-25T00:38 | 14936 | 134 | -72.3 | -85.2 | 94 | 25 |
| 2010-01-25T00:39 | 14968 | 133 | -72.6 | -85.4 | 95 | 25 |
| 2010-01-25T00:39 | 15002 | 133 | -73.0 | -85.8 | 95 | 25 |
| 2010-01-25T00:39 | 15034 | 132 | -73.2 | -85.9 | 96 | 25 |
| 2010-01-25T00:39 | 15068 | 131 | -73.4 | -86.0 | 96 | 25 |
| 2010-01-25T00:39 | 15101 | 130 | -73.7 | -86.1 | 96 | 25 |
| 2010-01-25T00:39 | 15132 | 130 | -74.0 | -86.3 | 97 | 25 |
| 2010-01-25T00:40 | 15163 | 129 | -74.4 | -86.5 | 97 | 25 |
| 2010-01-25T00:40 | 15196 | 128 | -74.0 | -85.9 | 97 | 25 |
| 2010-01-25T00:40 | 15228 | 128 | -74.3 | -86.1 | 96 | 25 |
| 2010-01-25T00:40 | 15260 | 127 | -74.6 | -86.4 | 96 | 25 |
| 2010-01-25T00:40 | 15291 | 126 | -74.8 | -86.6 | 97 | 25 |
| 2010-01-25T00:40 | 15321 | 126 | -74.9 | -86.6 | 97 | 25 |
| 2010-01-25T00:41 | 15352 | 125 | -75.0 | -86.6 | 98 | 26 |
| 2010-01-25T00:41 | 15383 | 124 | -75.3 | -86.7 | 98 | 26 |
| 2010-01-25T00:41 | 15412 | 124 | -75.3 | -86.8 | 98 | 26 |
| 2010-01-25T00:41 | 15442 | 123 | -75.6 | -87.1 | 98 | 26 |
| 2010-01-25T00:41 | 15471 | 122 | -75.9 | -87.3 | 97 | 26 |
| 2010-01-25T00:41 | 15501 | 122 | -76.1 | -87.5 | 97 | 26 |
| 2010-01-25T00:42 | 15532 | 121 | -76.1 | -87.6 | 96 | 27 |
| 2010-01-25T00:42 | 15564 | 120 | -75.9 | -87.4 | 96 | 27 |
| 2010-01-25T00:42 | 15595 | 120 | -76.2 | -87.8 | 96 | 27 |
| 2010-01-25T00:42 | 15629 | 119 | -76.6 | -88.2 | 97 | 27 |
| 2010-01-25T00:42 | 15661 | 118 | -77.1 | -88.6 | 97 | 27 |
| 2010-01-25T00:42 | 15696 | 118 | -77.3 | -88.9 | 97 | 26 |
| 2010-01-25T00:43 | 15732 | 117 | -77.4 | -89.0 | 97 | 26 |
| 2010-01-25T00:43 | 15767 | 116 | -77.8 | -89.3 | 97 | 26 |
| 2010-01-25T00:43 | 15804 | 115 | -78.1 | -89.5 | 97 | 26 |
| 2010-01-25T00:43 | 15840 | 115 | -78.5 | -89.8 | 97 | 26 |
| 2010-01-25T00:43 | 15876 | 114 | -78.8 | -90.0 | 96 | 26 |
| 2010-01-25T00:43 | 15910 | 113 | -79.1 | -90.2 | 96 | 26 |
| 2010-01-25T00:44 | 15944 | 113 | -79.1 | -90.2 | 95 | 25 |
| 2010-01-25T00:44 | 15978 | 112 | -79.0 | -90.1 | 96 | 25 |
| 2010-01-25T00:44 | 16011 | 111 | -79.2 | -90.2 | 98 | 24 |
| 2010-01-25T00:44 | 16046 | 111 | -77.8 | -88.9 | 100 | 24 |
| 2010-01-25T00:44 | 16078 | 110 | -77.3 | -88.6 | 102 | 23 |
| 2010-01-25T00:44 | 16111 | 109 | -76.5 | -87.9 | 104 | 22 |
| 2010-01-25T00:45 | 16145 | 109 | -76.2 | -87.8 | 107 | 20 |
| 2010-01-25T00:45 | 16178 | 108 | -75.8 | -87.6 | 111 | 19 |
| 2010-01-25T00:45 | 16210 | 108 | -75.5 | -87.5 | 115 | 18 |
| 2010-01-25T00:45 | 16238 | 107 | -75.2 | -87.5 | 119 | 17 |
| 2010-01-25T00:45 | 16268 | 106 | -74.6 | -87.1 | 120 | 16 |
| 2010-01-25T00:45 | 16298 | 106 | -74.6 | -87.3 | 121 | 16 |
| 2010-01-25T00:46 | 16329 | 105 | -74.8 | -87.7 | 122 | 15 |
| 2010-01-25T00:46 | 16358 | 105 | -74.9 | -88.1 | 125 | 15 |
| 2010-01-25T00:46 | 16388 | 104 | -75.1 | -88.5 | 127 | 14 |
| 2010-01-25T00:46 | 16417 | 104 | -75.1 | -88.7 | 130 | 13 |
| 2010-01-25T00:46 | 16447 | 103 | -75.1 | -88.9 | 131 | 14 |
| 2010-01-25T00:46 | 16477 | 103 | -74.7 | -88.7 | 131 | 14 |
| 2010-01-25T00:47 | 16509 | 102 | -75.2 | -89.2 | 131 | 14 |
| 2010-01-25T00:47 | 16541 | 102 | -75.6 | -89.7 | 131 | 14 |
| 2010-01-25T00:47 | 16574 | 101 | -76.0 | -90.3 | 130 | 13 |
| 2010-01-25T00:47 | 16609 | 100 | -75.6 | -90.3 | 131 | 11 |
| 2010-01-25T00:47 | 16655 | 100 | -75.7 | -90.5 | 132 | 8 |
| 2010-01-25T00:47 | 16693 | 99 | -75.7 | -90.7 | 135 | 7 |
| 2010-01-25T00:48 | 16733 | 98 | -75.7 | -90.8 | 136 | 5 |
| 2010-01-25T00:48 | 16774 | 98 | -75.9 | -90.9 | 141 | 4 |
| 2010-01-25T00:48 | 16823 | 97 | -76.2 | -91.3 | 162 | 2 |
| 2010-01-25T00:48 | 16866 | 96 | -76.1 | -91.4 | 214 | 2 |
| 2010-01-25T00:48 | 16901 | 95 | -76.4 | -91.7 | 237 | 2 |
| 2010-01-25T00:48 | 16944 | 95 | -76.8 | -92.0 | 248 | 4 |
| 2010-01-25T00:49 | 16995 | 94 | -77.0 | -92.2 | 258 | 5 |
| 2010-01-25T00:49 | 17037 | 93 | -77.2 | -92.4 | 265 | 6 |
| 2010-01-25T00:49 | 17083 | 92 | -77.7 | -92.8 | 270 | 7 |
| 2010-01-25T00:49 | 17120 | 92 | -78.0 | -93.0 | 273 | 8 |
| 2010-01-25T00:49 | 17157 | 91 | -78.1 | -93.1 | 273 | 9 |
| 2010-01-25T00:49 | 17189 | 91 | -78.3 | -93.2 | 272 | 9 |
| 2010-01-25T00:50 | 17226 | 90 | -78.5 | -93.3 | 270 | 10 |
| 2010-01-25T00:50 | 17275 | 89 | -79.0 | -93.6 | 271 | 12 |
| 2010-01-25T00:50 | 17318 | 89 | -79.4 | -93.9 | 272 | 13 |
| 2010-01-25T00:50 | 17357 | 88 | -79.3 | -93.8 | 275 | 15 |
| 2010-01-25T00:50 | 17405 | 87 | -79.7 | -94.1 | 279 | 16 |
| 2010-01-25T00:50 | 17448 | 87 | -80.1 | -94.3 | 282 | 17 |
| 2010-01-25T00:51 | 17487 | 86 | -80.1 | -94.2 | 284 | 19 |
| 2010-01-25T00:51 | 17524 | 86 | -80.0 | -94.0 | 285 | 20 |
| 2010-01-25T00:51 | 17557 | 85 | -80.1 | -93.9 | 284 | 21 |
| 2010-01-25T00:51 | 17590 | 85 | -80.0 | -93.7 | 282 | 20 |
| 2010-01-25T00:51 | 17624 | 84 | -80.3 | -93.9 | 281 | 20 |
| 2010-01-25T00:51 | 17657 | 84 | -80.6 | -94.1 | 279 | 19 |
| 2010-01-25T00:52 | 17689 | 83 | -80.6 | -94.0 | 278 | 19 |
| 2010-01-25T00:52 | 17720 | 83 | -80.6 | -94.0 | 277 | 19 |
| 2010-01-25T00:52 | 17751 | 82 | -80.5 | -93.8 | 277 | 19 |
| 2010-01-25T00:52 | 17783 | 82 | -80.6 | -93.9 | 277 | 20 |
| 2010-01-25T00:52 | 17816 | 81 | -80.7 | -93.9 | 277 | 20 |
| 2010-01-25T00:52 | 17848 | 81 | -81.1 | -94.2 | 276 | 20 |
| 2010-01-25T00:53 | 17883 | 80 | -81.1 | -94.2 | 276 | 20 |
| 2010-01-25T00:53 | 17918 | 80 | -81.3 | -94.3 | 276 | 20 |
| 2010-01-25T00:53 | 17956 | 79 | -81.4 | -94.3 | 276 | 19 |
| 2010-01-25T00:53 | 17995 | 79 | -81.6 | -94.4 | 276 | 17 |
| 2010-01-25T00:53 | 18033 | 78 | -80.7 | -93.9 | 275 | 16 |
| 2010-01-25T00:53 | 18072 | 78 | -80.6 | -93.7 | 273 | 16 |
| 2010-01-25T00:54 | 18113 | 77 | -80.8 | -93.9 | 269 | 17 |
| 2010-01-25T00:54 | 18152 | 77 | -80.1 | -93.3 | 264 | 17 |
| 2010-01-25T00:54 | 18191 | 76 | -79.9 | -93.2 | 261 | 18 |
| 2010-01-25T00:54 | 18226 | 76 | -79.9 | -93.1 | 259 | 18 |
| 2010-01-25T00:54 | 18264 | 75 | -80.0 | -93.1 | 260 | 18 |
| 2010-01-25T00:54 | 18302 | 75 | -80.3 | -93.3 | 261 | 17 |
| 2010-01-25T00:55 | 18339 | 74 | -80.7 | -93.7 | 262 | 16 |
| 2010-01-25T00:55 | 18374 | 74 | -80.3 | -93.5 | 262 | 14 |
| 2010-01-25T00:55 | 18411 | 73 | -79.3 | -92.8 | 261 | 13 |
| 2010-01-25T00:55 | 18445 | 73 | -79.3 | -92.7 | 262 | 13 |
| 2010-01-25T00:55 | 18480 | 72 | -79.3 | -92.7 | 264 | 13 |
| 2010-01-25T00:55 | 18513 | 72 | -78.9 | -92.4 | 266 | 13 |
| 2010-01-25T00:56 | 18548 | 71 | -78.8 | -92.4 | 265 | 13 |
| 2010-01-25T00:56 | 18583 | 71 | -78.5 | -92.1 | 263 | 13 |
| 2010-01-25T00:56 | 18617 | 70 | -76.9 | -90.9 | 260 | 13 |
| 2010-01-25T00:56 | 18652 | 70 | -76.5 | -90.5 | 258 | 13 |
| 2010-01-25T00:56 | 18688 | 70 | -76.3 | -90.5 | 256 | 13 |
| 2010-01-25T00:56 | 18723 | 69 | -76.4 | -90.6 | 253 | 13 |
| 2010-01-25T00:57 | 18760 | 69 | -76.1 | -90.6 | 252 | 13 |
| 2010-01-25T00:57 | 18797 | 68 | -76.1 | -90.6 | 251 | 13 |
| 2010-01-25T00:57 | 18832 | 68 | -76.4 | -90.9 | 251 | 13 |
| 2010-01-25T00:57 | 18868 | 67 | -76.1 | -90.9 | 252 | 12 |
| 2010-01-25T00:57 | 18902 | 67 | -75.5 | -90.7 | 254 | 11 |
| 2010-01-25T00:57 | 18937 | 67 | -75.3 | -90.6 | 259 | 9 |
| 2010-01-25T00:58 | 18971 | 66 | -74.7 | -90.3 | 267 | 9 |
| 2010-01-25T00:58 | 19004 | 66 | -74.7 | -90.4 | 275 | 9 |
| 2010-01-25T00:58 | 19036 | 66 | -74.9 | -90.7 | 281 | 9 |
| 2010-01-25T00:58 | 19069 | 65 | -75.1 | -91.0 | 286 | 9 |
| 2010-01-25T00:58 | 19103 | 65 | -75.5 | -91.4 | 290 | 9 |
| 2010-01-25T00:58 | 19136 | 64 | -75.8 | -91.8 | 295 | 9 |
| 2010-01-25T00:59 | 19169 | 64 | -75.8 | -91.9 | 298 | 9 |
| 2010-01-25T00:59 | 19201 | 64 | -75.7 | -91.9 | 298 | 10 |
| 2010-01-25T00:59 | 19233 | 63 | -75.2 | -91.7 | 294 | 10 |
| 2010-01-25T00:59 | 19266 | 63 | -74.9 | -91.6 | 290 | 10 |
| 2010-01-25T00:59 | 19299 | 63 | -75.0 | -91.7 | 286 | 10 |
| 2010-01-25T00:59 | 19333 | 62 | -75.0 | -91.7 | 282 | 10 |
| 2010-01-25T01:00 | 19367 | 62 | -74.8 | -91.7 | 278 | 10 |
| 2010-01-25T01:00 | 19403 | 62 | -75.1 | -91.9 | 274 | 10 |
| 2010-01-25T01:00 | 19438 | 61 | -75.3 | -92.3 | 269 | 9 |
| 2010-01-25T01:00 | 19474 | 61 | -75.2 | -92.2 | 265 | 9 |
| 2010-01-25T01:00 | 19509 | 60 | -75.3 | -92.4 | 263 | 9 |
| 2010-01-25T01:00 | 19547 | 60 | -75.2 | -92.4 | 265 | 9 |
| 2010-01-25T01:01 | 19584 | 60 | -75.3 | -92.5 | 267 | 8 |
| 2010-01-25T01:01 | 19621 | 59 | -75.7 | -93.0 | 269 | 7 |
| 2010-01-25T01:01 | 19656 | 59 | -75.9 | -93.3 | 269 | 6 |
| 2010-01-25T01:01 | 19692 | 59 | -75.6 | -93.1 | 266 | 6 |
| 2010-01-25T01:01 | 19728 | 58 | -75.6 | -93.1 | 261 | 5 |
| 2010-01-25T01:01 | 19767 | 58 | -75.4 | -92.9 | 252 | 5 |
| 2010-01-25T01:02 | 19800 | 57 | -75.2 | -92.7 | 241 | 5 |
| 2010-01-25T01:02 | 19836 | 57 | -74.9 | -92.7 | 231 | 6 |
| 2010-01-25T01:02 | 19871 | 57 | -74.9 | -92.9 | 224 | 7 |
| 2010-01-25T01:02 | 19903 | 56 | -74.8 | -92.8 | 220 | 8 |
| 2010-01-25T01:02 | 19938 | 56 | -75.0 | -92.8 | 217 | 8 |
| 2010-01-25T01:02 | 19972 | 56 | -74.9 | -92.8 | 214 | 8 |
| 2010-01-25T01:03 | 20007 | 55 | -74.7 | -92.7 | 212 | 7 |
| 2010-01-25T01:03 | 20041 | 55 | -75.0 | -92.8 | 213 | 7 |
| 2010-01-25T01:03 | 20075 | 55 | -75.3 | -93.3 | 212 | 7 |
| 2010-01-25T01:03 | 20110 | 54 | -75.8 | -93.6 | 212 | 7 |
| 2010-01-25T01:03 | 20144 | 54 | -76.2 | -94.0 | 214 | 7 |
| 2010-01-25T01:03 | 20179 | 54 | -76.6 | -94.4 | 221 | 6 |
| 2010-01-25T01:04 | 20212 | 54 | -76.2 | -94.2 | 227 | 5 |
| 2010-01-25T01:04 | 20247 | 53 | -75.5 | -93.8 | 227 | 3 |
| 2010-01-25T01:04 | 20279 | 53 | -74.7 | -93.2 | 219 | 2 |
| 2010-01-25T01:04 | 20310 | 53 | -74.5 | -92.9 | 205 | 2 |
| 2010-01-25T01:04 | 20343 | 52 | -74.7 | -93.0 | 176 | 1 |
| 2010-01-25T01:04 | 20376 | 52 | -74.7 | -93.0 | 126 | 1 |
| 2010-01-25T01:05 | 20407 | 52 | -74.6 | -92.9 | 85 | 1 |
| 2010-01-25T01:05 | 20438 | 51 | -74.7 | -93.1 | 64 | 2 |
| 2010-01-25T01:05 | 20471 | 51 | -73.9 | -92.6 | 52 | 3 |
| 2010-01-25T01:05 | 20505 | 51 | -74.0 | -92.6 | 44 | 3 |
| 2010-01-25T01:05 | 20539 | 51 | -73.6 | -92.4 | 35 | 3 |
| 2010-01-25T01:05 | 20575 | 50 | -73.4 | -92.3 | 18 | 2 |
| 2010-01-25T01:06 | 20611 | 50 | -72.1 | -91.5 | 355 | 2 |
| 2010-01-25T01:06 | 20646 | 50 | -72.0 | -91.5 | 336 | 2 |
| 2010-01-25T01:06 | 20684 | 49 | -72.0 | -91.6 | 325 | 3 |
| 2010-01-25T01:06 | 20720 | 49 | -72.3 | -91.8 | 316 | 3 |
| 2010-01-25T01:06 | 20755 | 49 | -72.5 | -92.1 | 310 | 3 |
| 2010-01-25T01:06 | 20794 | 48 | -72.7 | -92.5 | 308 | 3 |
| 2010-01-25T01:07 | 20829 | 48 | -73.0 | -92.8 | 309 | 3 |
| 2010-01-25T01:07 | 20863 | 48 | -73.3 | -93.2 | 310 | 3 |
| 2010-01-25T01:07 | 20898 | 48 | -73.7 | -93.7 | 311 | 4 |
| 2010-01-25T01:07 | 20933 | 47 | -74.1 | -94.0 | 314 | 4 |
| 2010-01-25T01:07 | 20965 | 47 | -74.4 | -94.4 | 320 | 3 |
| 2010-01-25T01:07 | 20997 | 47 | -74.0 | -94.3 | 322 | 1 |
| 2010-01-25T01:08 | 21030 | 47 | -73.6 | -94.2 | 0 | 0 |
| 2010-01-25T01:08 | 21063 | 46 | -73.3 | -94.0 | 182 | 1 |
| 2010-01-25T01:08 | 21097 | 46 | -72.9 | -93.6 | 185 | 3 |
| 2010-01-25T01:08 | 21131 | 46 | -72.7 | -93.5 | 187 | 4 |
| 2010-01-25T01:08 | 21166 | 45 | -72.9 | -93.7 | 187 | 6 |
| 2010-01-25T01:08 | 21200 | 45 | -73.0 | -93.8 | 188 | 7 |
| 2010-01-25T01:09 | 21237 | 45 | -72.8 | -93.8 | 188 | 9 |
| 2010-01-25T01:09 | 21275 | 45 | -72.7 | -93.8 | 188 | 10 |
| 2010-01-25T01:09 | 21312 | 44 | -73.0 | -93.9 | 186 | 10 |
| 2010-01-25T01:09 | 21353 | 44 | -73.3 | -94.2 | 180 | 9 |
| 2010-01-25T01:09 | 21391 | 44 | -72.8 | -94.0 | 166 | 8 |
| 2010-01-25T01:09 | 21427 | 43 | -71.9 | -93.7 | 144 | 7 |
| 2010-01-25T01:10 | 21469 | 43 | -71.9 | -93.8 | 119 | 7 |
| 2010-01-25T01:10 | 21506 | 43 | -70.6 | -93.1 | 96 | 8 |
| 2010-01-25T01:10 | 21547 | 43 | -68.8 | -92.0 | 79 | 8 |
| 2010-01-25T01:10 | 21587 | 42 | -67.5 | -91.2 | 69 | 8 |
| 2010-01-25T01:10 | 21624 | 42 | -67.0 | -90.8 | 63 | 7 |
| 2010-01-25T01:10 | 21660 | 42 | -66.6 | -90.7 | 60 | 7 |
| 2010-01-25T01:11 | 21695 | 42 | -66.7 | -91.0 | 62 | 7 |
| 2010-01-25T01:11 | 21725 | 41 | -66.6 | -91.4 | 68 | 8 |
| 2010-01-25T01:11 | 21757 | 41 | -66.3 | -91.5 | 77 | 8 |
| 2010-01-25T01:11 | 21787 | 41 | -66.3 | -91.9 | 86 | 8 |
| 2010-01-25T01:11 | 21819 | 41 | -66.1 | -91.9 | 94 | 9 |
| 2010-01-25T01:11 | 21850 | 41 | -65.8 | -92.2 | 98 | 9 |
| 2010-01-25T01:12 | 21881 | 40 | -65.9 | -92.6 | 101 | 10 |
| 2010-01-25T01:12 | 21913 | 40 | -65.7 | -92.9 | 104 | 11 |
| 2010-01-25T01:12 | 21947 | 40 | -65.0 | -92.9 | 105 | 13 |
| 2010-01-25T01:12 | 21983 | 40 | -65.1 | -93.1 | 105 | 15 |
| 2010-01-25T01:12 | 22018 | 39 | -64.6 | -92.8 | 105 | 16 |
| 2010-01-25T01:12 | 22054 | 39 | -64.9 | -93.1 | 105 | 17 |
| 2010-01-25T01:13 | 22088 | 39 | -65.3 | -93.7 | 105 | 18 |
| 2010-01-25T01:13 | 22124 | 39 | -65.3 | -94.0 | 105 | 19 |
| 2010-01-25T01:13 | 22159 | 39 | -65.6 | -94.4 | 105 | 20 |
| 2010-01-25T01:13 | 22194 | 38 | -65.7 | -94.6 | 105 | 20 |
| 2010-01-25T01:13 | 22229 | 38 | -66.0 | -94.7 | 103 | 20 |
| 2010-01-25T01:13 | 22264 | 38 | -66.5 | -95.2 | 102 | 21 |
| 2010-01-25T01:14 | 22299 | 38 | -66.7 | -95.7 | 99 | 21 |
| 2010-01-25T01:14 | 22334 | 37 | -66.3 | -95.4 | 97 | 21 |
| 2010-01-25T01:14 | 22368 | 37 | -66.4 | -95.5 | 95 | 21 |
| 2010-01-25T01:14 | 22402 | 37 | -66.2 | -95.3 | 92 | 20 |
| 2010-01-25T01:14 | 22435 | 37 | -66.1 | -95.2 | 89 | 20 |
| 2010-01-25T01:14 | 22469 | 37 | -65.6 | -94.8 | 87 | 20 |
| 2010-01-25T01:15 | 22503 | 36 | -65.5 | -94.8 | 86 | 20 |
| 2010-01-25T01:15 | 22537 | 36 | -65.2 | -94.6 | 84 | 19 |
| 2010-01-25T01:15 | 22571 | 36 | -64.7 | -94.2 | 83 | 19 |
| 2010-01-25T01:15 | 22604 | 36 | -64.5 | -94.1 | 81 | 20 |
| 2010-01-25T01:15 | 22635 | 36 | -63.2 | -93.2 | 79 | 21 |
| 2010-01-25T01:15 | 22668 | 35 | -62.7 | -92.8 | 78 | 22 |
| 2010-01-25T01:16 | 22700 | 35 | -62.0 | -92.3 | 78 | 23 |
| 2010-01-25T01:16 | 22733 | 35 | -61.6 | -92.0 | 79 | 22 |
| 2010-01-25T01:16 | 22764 | 35 | -60.9 | -91.5 | 79 | 22 |
| 2010-01-25T01:16 | 22797 | 35 | -60.8 | -91.4 | 80 | 23 |
| 2010-01-25T01:16 | 22830 | 35 | -60.8 | -91.4 | 81 | 23 |
| 2010-01-25T01:16 | 22863 | 34 | -60.5 | -91.2 | 83 | 24 |
| 2010-01-25T01:17 | 22894 | 34 | -60.6 | -91.3 | 84 | 24 |
| 2010-01-25T01:17 | 22926 | 34 | -60.6 | -91.3 | 84 | 24 |
| 2010-01-25T01:17 | 22963 | 34 | -60.8 | -91.4 | 85 | 23 |
| 2010-01-25T01:17 | 22996 | 34 | -60.6 | -91.3 | 86 | 23 |
| 2010-01-25T01:17 | 23027 | 33 | -60.6 | -91.3 | 86 | 23 |
| 2010-01-25T01:17 | 23064 | 33 | -60.7 | -91.4 | 85 | 24 |
| 2010-01-25T01:18 | 23098 | 33 | -60.7 | -91.4 | 84 | 25 |
| 2010-01-25T01:18 | 23133 | 33 | -60.1 | -90.9 | 82 | 26 |
| 2010-01-25T01:18 | 23163 | 33 | -59.8 | -90.7 | 81 | 27 |
| 2010-01-25T01:18 | 23199 | 33 | -59.6 | -90.6 | 80 | 27 |
| 2010-01-25T01:18 | 23232 | 32 | -59.3 | -90.3 | 80 | 27 |
| 2010-01-25T01:18 | 23266 | 32 | -59.0 | -90.1 | 81 | 26 |
| 2010-01-25T01:19 | 23300 | 32 | -59.2 | -90.3 | 82 | 26 |
| 2010-01-25T01:19 | 23334 | 32 | -59.3 | -90.3 | 84 | 26 |
| 2010-01-25T01:19 | 23369 | 32 | -58.5 | -89.8 | 86 | 26 |
| 2010-01-25T01:19 | 23402 | 31 | -58.3 | -89.7 | 87 | 26 |
| 2010-01-25T01:19 | 23437 | 31 | -57.7 | -89.2 | 87 | 27 |
| 2010-01-25T01:19 | 23470 | 31 | -58.0 | -89.4 | 87 | 27 |
| 2010-01-25T01:20 | 23504 | 31 | -58.2 | -89.6 | 87 | 27 |
| 2010-01-25T01:20 | 23540 | 31 | -58.1 | -89.5 | 87 | 27 |
| 2010-01-25T01:20 | 23573 | 31 | -58.2 | -89.6 | 87 | 27 |
| 2010-01-25T01:20 | 23607 | 30 | -58.3 | -89.7 | 88 | 27 |
| 2010-01-25T01:20 | 23640 | 30 | -58.3 | -89.7 | 89 | 27 |
| 2010-01-25T01:20 | 23677 | 30 | -58.3 | -89.7 | 90 | 26 |
| 2010-01-25T01:21 | 23709 | 30 | -58.1 | -89.5 | 90 | 26 |
| 2010-01-25T01:21 | 23746 | 30 | -58.5 | -89.8 | 90 | 26 |
| 2010-01-25T01:21 | 23778 | 30 | -58.9 | -90.1 | 90 | 27 |
| 2010-01-25T01:21 | 23815 | 29 | -59.0 | -90.1 | 90 | 28 |
| 2010-01-25T01:21 | 23853 | 29 | -59.1 | -90.2 | 91 | 29 |
| 2010-01-25T01:21 | 23886 | 29 | -59.0 | -90.1 | 92 | 29 |
| 2010-01-25T01:22 | 23927 | 29 | -59.3 | -90.3 | 93 | 30 |
| 2010-01-25T01:22 | 23962 | 29 | -59.5 | -90.5 | 93 | 30 |
| 2010-01-25T01:22 | 24001 | 29 | -59.2 | -90.3 | 94 | 29 |
| 2010-01-25T01:22 | 24040 | 28 | -59.1 | -90.2 | 93 | 29 |
| 2010-01-25T01:22 | 24077 | 28 | -59.1 | -90.2 | 93 | 29 |
| 2010-01-25T01:22 | 24113 | 28 | -58.8 | -90.0 | 92 | 29 |
| 2010-01-25T01:23 | 24151 | 28 | -59.0 | -90.1 | 91 | 29 |
| 2010-01-25T01:23 | 24189 | 28 | -59.0 | -90.1 | 91 | 28 |
| 2010-01-25T01:23 | 24225 | 28 | -58.9 | -90.0 | 91 | 28 |
| 2010-01-25T01:23 | 24262 | 27 | -58.3 | -89.6 | 91 | 28 |
| 2010-01-25T01:23 | 24297 | 27 | -58.5 | -89.8 | 91 | 28 |
| 2010-01-25T01:23 | 24328 | 27 | -58.8 | -90.0 | 90 | 28 |
| 2010-01-25T01:24 | 24363 | 27 | -58.7 | -89.9 | 89 | 27 |
| 2010-01-25T01:24 | 24396 | 27 | -59.1 | -90.2 | 89 | 27 |
| 2010-01-25T01:24 | 24428 | 27 | -58.7 | -89.9 | 89 | 27 |
| 2010-01-25T01:24 | 24460 | 27 | -59.0 | -90.2 | 90 | 26 |
| 2010-01-25T01:24 | 24492 | 26 | -59.3 | -90.4 | 91 | 27 |
| 2010-01-25T01:24 | 24525 | 26 | -59.4 | -90.4 | 91 | 27 |
| 2010-01-25T01:25 | 24559 | 26 | -59.3 | -90.3 | 90 | 27 |
| 2010-01-25T01:25 | 24591 | 26 | -59.1 | -90.2 | 90 | 27 |
| 2010-01-25T01:25 | 24625 | 26 | -59.3 | -90.4 | 89 | 28 |
| 2010-01-25T01:25 | 24658 | 26 | -59.4 | -90.4 | 88 | 28 |
| 2010-01-25T01:25 | 24693 | 26 | -58.8 | -90.0 | 87 | 28 |
| 2010-01-25T01:25 | 24731 | 25 | -58.9 | -90.0 | 87 | 28 |
| 2010-01-25T01:26 | 24767 | 25 | -58.5 | -89.8 | 87 | 28 |
| 2010-01-25T01:26 | 24803 | 25 | -58.3 | -89.6 | 86 | 28 |
| 2010-01-25T01:26 | 24843 | 25 | -58.3 | -89.6 | 85 | 29 |
| 2010-01-25T01:26 | 24882 | 25 | -58.3 | -89.6 | 84 | 28 |
| 2010-01-25T01:26 | 24921 | 25 | -58.0 | -89.4 | 83 | 28 |
| 2010-01-25T01:26 | 24966 | 25 | -57.9 | -89.3 | 83 | 28 |
| 2010-01-25T01:27 | 25003 | 24 | -58.0 | -89.4 | 83 | 27 |
| 2010-01-25T01:27 | 25044 | 24 | -57.9 | -89.4 | 83 | 27 |
| 2010-01-25T01:27 | 25085 | 24 | -57.7 | -89.2 | 84 | 27 |
| 2010-01-25T01:27 | 25121 | 24 | -57.8 | -89.3 | 84 | 27 |
| 2010-01-25T01:27 | 25158 | 24 | -57.6 | -89.2 | 85 | 28 |
| 2010-01-25T01:27 | 25198 | 24 | -57.2 | -88.9 | 86 | 28 |
| 2010-01-25T01:28 | 25232 | 24 | -56.9 | -88.7 | 87 | 29 |
| 2010-01-25T01:28 | 25264 | 23 | -56.6 | -88.4 | 88 | 29 |
| 2010-01-25T01:28 | 25304 | 23 | -56.3 | -88.3 | 89 | 30 |
| 2010-01-25T01:28 | 25335 | 23 | -56.1 | -88.1 | 90 | 30 |
| 2010-01-25T01:28 | 25369 | 23 | -56.0 | -88.0 | 91 | 31 |
| 2010-01-25T01:28 | 25400 | 23 | -56.2 | -88.1 | 92 | 31 |
| 2010-01-25T01:29 | 25435 | 23 | -56.4 | -88.3 | 93 | 32 |
| 2010-01-25T01:29 | 25468 | 23 | -56.3 | -88.2 | 94 | 32 |
| 2010-01-25T01:29 | 25498 | 23 | -56.1 | -88.1 | 96 | 33 |
| 2010-01-25T01:29 | 25535 | 22 | -56.2 | -88.2 | 96 | 33 |
| 2010-01-25T01:29 | 25570 | 22 | -56.5 | -88.3 | 95 | 32 |
| 2010-01-25T01:29 | 25606 | 22 | -56.9 | -88.6 | 93 | 32 |
| 2010-01-25T01:30 | 25641 | 22 | -57.3 | -88.9 | 92 | 32 |
| 2010-01-25T01:30 | 25673 | 22 | -57.0 | -88.7 | 90 | 32 |
| 2010-01-25T01:30 | 25714 | 22 | -56.8 | -88.6 | 89 | 32 |
| 2010-01-25T01:30 | 25752 | 22 | -56.6 | -88.4 | 89 | 32 |
| 2010-01-25T01:30 | 25791 | 22 | -56.6 | -88.4 | 89 | 33 |
| 2010-01-25T01:30 | 25829 | 21 | -56.8 | -88.6 | 89 | 33 |
| 2010-01-25T01:31 | 25865 | 21 | -56.6 | -88.4 | 90 | 33 |
| 2010-01-25T01:31 | 25903 | 21 | -56.0 | -88.0 | 91 | 33 |
| 2010-01-25T01:31 | 25939 | 21 | -55.6 | -87.7 | 93 | 34 |
| 2010-01-25T01:31 | 25979 | 21 | -55.5 | -87.7 | 94 | 34 |
| 2010-01-25T01:31 | 26013 | 21 | -55.8 | -87.9 | 94 | 34 |
| 2010-01-25T01:31 | 26050 | 21 | -56.0 | -88.0 | 95 | 33 |
| 2010-01-25T01:32 | 26090 | 21 | -56.2 | -88.2 | 95 | 33 |
| 2010-01-25T01:32 | 26123 | 20 | -56.1 | -88.1 | 94 | 33 |
| 2010-01-25T01:32 | 26160 | 20 | -56.0 | -88.0 | 93 | 34 |
| 2010-01-25T01:32 | 26197 | 20 | -56.2 | -88.1 | 92 | 34 |
| 2010-01-25T01:32 | 26233 | 20 | -56.1 | -88.1 | 91 | 34 |
| 2010-01-25T01:32 | 26269 | 20 | -56.1 | -88.1 | 91 | 34 |
| 2010-01-25T01:33 | 26303 | 20 | -56.2 | -88.2 | 91 | 35 |
| 2010-01-25T01:33 | 26336 | 20 | -56.0 | -88.0 | 91 | 35 |
| 2010-01-25T01:33 | 26374 | 20 | -55.9 | -88.0 | 91 | 35 |
| 2010-01-25T01:33 | 26413 | 20 | -55.9 | -88.0 | 90 | 36 |
| 2010-01-25T01:33 | 26449 | 19 | -55.9 | -88.0 | 90 | 37 |
| 2010-01-25T01:33 | 26484 | 19 | -55.8 | -87.9 | 89 | 37 |
| 2010-01-25T01:34 | 26525 | 19 | -56.0 | -88.0 | 88 | 37 |
| 2010-01-25T01:34 | 26564 | 19 | -55.8 | -87.9 | 87 | 37 |
| 2010-01-25T01:34 | 26602 | 19 | -56.0 | -88.0 | 86 | 37 |
| 2010-01-25T01:34 | 26639 | 19 | -55.8 | -87.9 | 86 | 37 |
| 2010-01-25T01:34 | 26676 | 19 | -55.8 | -87.8 | 86 | 38 |
| 2010-01-25T01:34 | 26713 | 19 | -56.1 | -88.1 | 86 | 38 |
| 2010-01-25T01:35 | 26753 | 19 | -56.1 | -88.1 | 86 | 39 |
| 2010-01-25T01:35 | 26785 | 18 | -55.9 | -87.9 | 85 | 39 |
| 2010-01-25T01:35 | 26826 | 18 | -56.2 | -88.1 | 84 | 39 |
| 2010-01-25T01:35 | 26864 | 18 | -56.3 | -88.3 | 83 | 38 |
| 2010-01-25T01:35 | 26898 | 18 | -55.8 | -87.8 | 83 | 38 |
| 2010-01-25T01:35 | 26933 | 18 | -55.9 | -87.9 | 82 | 38 |
| 2010-01-25T01:36 | 26966 | 18 | -55.8 | -87.9 | 82 | 38 |
| 2010-01-25T01:36 | 27004 | 18 | -55.7 | -87.8 | 82 | 39 |
| 2010-01-25T01:36 | 27033 | 18 | -55.6 | -87.7 | 81 | 39 |
| 2010-01-25T01:36 | 27066 | 18 | -55.3 | -87.5 | 81 | 39 |
| 2010-01-25T01:36 | 27102 | 18 | -55.2 | -87.4 | 81 | 39 |
| 2010-01-25T01:36 | 27136 | 17 | -55.3 | -87.5 | 80 | 39 |
| 2010-01-25T01:37 | 27172 | 17 | -55.1 | -87.4 | 79 | 39 |
| 2010-01-25T01:37 | 27205 | 17 | -54.2 | -86.7 | 79 | 39 |
| 2010-01-25T01:37 | 27237 | 17 | -53.7 | -86.4 | 78 | 38 |
| 2010-01-25T01:37 | 27268 | 17 | -53.5 | -86.2 | 78 | 38 |
| 2010-01-25T01:37 | 27306 | 17 | -53.3 | -86.1 | 77 | 38 |
| 2010-01-25T01:37 | 27343 | 17 | -53.3 | -86.1 | 77 | 38 |
| 2010-01-25T01:38 | 27375 | 17 | -53.0 | -85.9 | 77 | 38 |
| 2010-01-25T01:38 | 27412 | 17 | -53.2 | -86.0 | 78 | 38 |
| 2010-01-25T01:38 | 27451 | 17 | -53.2 | -86.0 | 78 | 38 |
| 2010-01-25T01:38 | 27486 | 17 | -52.8 | -85.8 | 78 | 38 |
| 2010-01-25T01:38 | 27523 | 16 | -52.4 | -85.5 | 78 | 38 |
| 2010-01-25T01:38 | 27558 | 16 | -52.5 | -85.5 | 78 | 38 |
| 2010-01-25T01:39 | 27593 | 16 | -52.2 | -85.3 | 78 | 39 |
| 2010-01-25T01:39 | 27633 | 16 | -51.8 | -85.0 | 78 | 39 |
| 2010-01-25T01:39 | 27669 | 16 | -51.5 | -84.8 | 79 | 39 |
| 2010-01-25T01:39 | 27701 | 16 | -51.2 | -84.6 | 80 | 39 |
| 2010-01-25T01:39 | 27737 | 16 | -51.2 | -84.7 | 80 | 39 |
| 2010-01-25T01:39 | 27775 | 16 | -51.4 | -84.8 | 81 | 40 |
| 2010-01-25T01:40 | 27805 | 16 | -51.0 | -84.5 | 81 | 40 |
| 2010-01-25T01:40 | 27843 | 16 | -50.8 | -84.3 | 81 | 40 |
| 2010-01-25T01:40 | 27875 | 16 | -50.6 | -84.2 | 82 | 40 |
| 2010-01-25T01:40 | 27909 | 15 | -50.4 | -84.1 | 82 | 40 |
| 2010-01-25T01:40 | 27943 | 15 | -50.2 | -83.9 | 82 | 40 |
| 2010-01-25T01:40 | 27976 | 15 | -50.3 | -84.0 | 82 | 39 |
| 2010-01-25T01:41 | 28011 | 15 | -50.1 | -83.8 | 82 | 39 |
| 2010-01-25T01:41 | 28043 | 15 | -50.1 | -83.9 | 82 | 40 |
| 2010-01-25T01:41 | 28076 | 15 | -50.2 | -83.9 | 82 | 40 |
| 2010-01-25T01:41 | 28111 | 15 | -49.8 | -83.7 | 82 | 41 |
| 2010-01-25T01:41 | 28150 | 15 | -49.8 | -83.6 | 82 | 41 |
| 2010-01-25T01:41 | 28182 | 15 | -49.4 | -83.4 | 82 | 42 |
| 2010-01-25T01:42 | 28213 | 15 | -49.5 | -83.4 | 82 | 43 |
| 2010-01-25T01:42 | 28246 | 15 | -49.3 | -83.3 | 81 | 43 |
| 2010-01-25T01:42 | 28287 | 15 | -49.2 | -83.2 | 81 | 44 |
| 2010-01-25T01:42 | 28323 | 15 | -49.5 | -83.4 | 81 | 44 |
| 2010-01-25T01:42 | 28363 | 14 | -49.3 | -83.3 | 81 | 44 |
| 2010-01-25T01:42 | 28395 | 14 | -49.2 | -83.2 | 81 | 44 |
| 2010-01-25T01:43 | 28433 | 14 | -49.6 | -83.5 | 82 | 43 |
| 2010-01-25T01:43 | 28472 | 14 | -49.6 | -83.5 | 83 | 43 |
| 2010-01-25T01:43 | 28510 | 14 | -49.7 | -83.6 | 84 | 42 |
| 2010-01-25T01:43 | 28551 | 14 | -50.1 | -83.8 | 85 | 43 |
| 2010-01-25T01:43 | 28585 | 14 | -50.0 | -83.8 | 85 | 43 |
| 2010-01-25T01:43 | 28622 | 14 | -50.0 | -83.8 | 85 | 43 |
| 2010-01-25T01:44 | 28657 | 14 | -50.3 | -84.0 | 85 | 44 |
| 2010-01-25T01:44 | 28697 | 14 | -50.1 | -83.9 | 84 | 44 |
| 2010-01-25T01:44 | 28729 | 14 | -50.2 | -83.9 | 84 | 44 |
| 2010-01-25T01:44 | 28765 | 14 | -50.4 | -84.1 | 84 | 44 |
| 2010-01-25T01:44 | 28796 | 14 | -50.3 | -84.0 | 84 | 44 |
| 2010-01-25T01:44 | 28833 | 13 | -50.3 | -84.0 | 85 | 44 |
| 2010-01-25T01:45 | 28863 | 13 | -50.2 | -83.9 | 85 | 43 |
| 2010-01-25T01:45 | 28895 | 13 | -50.0 | -83.8 | 86 | 43 |
| 2010-01-25T01:45 | 28925 | 13 | -49.1 | -83.2 | 86 | 43 |
| 2010-01-25T01:45 | 28964 | 13 | -49.1 | -83.2 | 86 | 42 |
| 2010-01-25T01:45 | 28990 | 13 | -48.8 | -83.0 | 85 | 42 |
| 2010-01-25T01:45 | 29025 | 13 | -49.0 | -83.1 | 85 | 42 |
| 2010-01-25T01:46 | 29057 | 13 | -48.9 | -83.0 | 86 | 42 |
| 2010-01-25T01:46 | 29089 | 13 | -48.6 | -82.8 | 87 | 42 |
| 2010-01-25T01:46 | 29121 | 13 | -48.4 | -82.7 | 87 | 41 |
| 2010-01-25T01:46 | 29153 | 13 | -48.3 | -82.6 | 87 | 41 |
| 2010-01-25T01:46 | 29186 | 13 | -47.7 | -82.1 | 86 | 41 |
| 2010-01-25T01:46 | 29218 | 13 | -47.3 | -81.9 | 85 | 40 |
| 2010-01-25T01:47 | 29254 | 13 | -47.7 | -82.2 | 85 | 40 |
| 2010-01-25T01:47 | 29288 | 13 | -47.8 | -82.2 | 85 | 41 |
| 2010-01-25T01:47 | 29324 | 12 | -47.5 | -82.0 | 86 | 41 |
| 2010-01-25T01:47 | 29357 | 12 | -47.6 | -82.1 | 86 | 40 |
| 2010-01-25T01:47 | 29395 | 12 | -47.5 | -82.0 | 86 | 40 |
| 2010-01-25T01:47 | 29431 | 12 | -47.4 | -82.0 | 86 | 39 |
| 2010-01-25T01:48 | 29464 | 12 | -47.3 | -81.9 | 86 | 39 |
| 2010-01-26T23:31 | 4 | 1008 | 33.0 | 25.0 | 280 | 3 |
| 2010-01-26T23:31 | 16 | 1007 | 29.4 | 23.2 | 294 | 1 |
| 2010-01-26T23:31 | 27 | 1006 | 29.2 | 23.6 | 296 | 1 |
| 2010-01-26T23:31 | 38 | 1004 | 29.0 | 23.7 | 296 | 2 |
| 2010-01-26T23:31 | 49 | 1003 | 28.8 | 23.9 | 296 | 2 |
| 2010-01-26T23:31 | 60 | 1002 | 28.7 | 24.1 | 296 | 2 |
| 2010-01-26T23:31 | 72 | 1001 | 28.5 | 24.1 | 296 | 2 |
| 2010-01-26T23:31 | 84 | 999 | 28.4 | 24.2 | 296 | 2 |
| 2010-01-26T23:31 | 96 | 998 | 28.3 | 24.2 | 296 | 2 |
| 2010-01-26T23:31 | 109 | 996 | 28.1 | 24.2 | 296 | 2 |
| 2010-01-26T23:31 | 123 | 995 | 27.9 | 24.1 | 296 | 2 |
| 2010-01-26T23:31 | 136 | 993 | 27.8 | 24.2 | 296 | 2 |
| 2010-01-26T23:31 | 148 | 992 | 27.7 | 24.1 | 296 | 2 |
| 2010-01-26T23:31 | 160 | 991 | 27.5 | 24.0 | 297 | 2 |
| 2010-01-26T23:31 | 173 | 989 | 27.3 | 23.9 | 298 | 2 |
| 2010-01-26T23:31 | 186 | 988 | 27.1 | 23.9 | 299 | 2 |
| 2010-01-26T23:31 | 198 | 987 | 27.0 | 23.9 | 300 | 2 |
| 2010-01-26T23:31 | 211 | 985 | 26.9 | 23.9 | 302 | 2 |
| 2010-01-26T23:31 | 224 | 984 | 26.8 | 23.8 | 305 | 2 |
| 2010-01-26T23:31 | 236 | 982 | 26.6 | 23.7 | 307 | 2 |
| 2010-01-26T23:31 | 249 | 981 | 26.4 | 23.6 | 309 | 2 |
| 2010-01-26T23:31 | 264 | 979 | 26.3 | 23.7 | 312 | 2 |
| 2010-01-26T23:31 | 277 | 978 | 26.2 | 23.8 | 314 | 2 |
| 2010-01-26T23:31 | 290 | 976 | 26.2 | 23.8 | 316 | 2 |
| 2010-01-26T23:31 | 303 | 975 | 26.0 | 23.6 | 318 | 2 |
| 2010-01-26T23:31 | 317 | 973 | 25.8 | 23.5 | 319 | 2 |
| 2010-01-26T23:31 | 332 | 972 | 25.6 | 23.5 | 320 | 2 |
| 2010-01-26T23:31 | 346 | 970 | 25.5 | 23.6 | 320 | 2 |
| 2010-01-26T23:31 | 362 | 968 | 25.5 | 23.6 | 320 | 2 |
| 2010-01-26T23:31 | 377 | 967 | 25.3 | 23.5 | 320 | 2 |
| 2010-01-26T23:32 | 393 | 965 | 25.1 | 23.4 | 319 | 2 |
| 2010-01-26T23:32 | 409 | 963 | 24.9 | 23.3 | 318 | 2 |
| 2010-01-26T23:32 | 425 | 962 | 24.8 | 23.3 | 317 | 2 |
| 2010-01-26T23:32 | 440 | 960 | 24.6 | 23.2 | 315 | 2 |
| 2010-01-26T23:32 | 456 | 958 | 24.5 | 23.2 | 314 | 2 |
| 2010-01-26T23:32 | 470 | 957 | 24.3 | 23.1 | 312 | 2 |
| 2010-01-26T23:32 | 483 | 955 | 24.2 | 23.0 | 309 | 2 |
| 2010-01-26T23:32 | 495 | 954 | 24.1 | 23.0 | 307 | 2 |
| 2010-01-26T23:32 | 508 | 953 | 24.0 | 22.7 | 305 | 2 |
| 2010-01-26T23:32 | 520 | 951 | 24.0 | 22.1 | 303 | 2 |
| 2010-01-26T23:32 | 533 | 950 | 24.0 | 21.7 | 301 | 3 |
| 2010-01-26T23:32 | 545 | 948 | 24.1 | 21.0 | 299 | 3 |
| 2010-01-26T23:32 | 559 | 947 | 24.1 | 21.1 | 297 | 3 |
| 2010-01-26T23:32 | 574 | 945 | 23.7 | 21.6 | 296 | 3 |
| 2010-01-26T23:32 | 588 | 944 | 23.7 | 20.8 | 295 | 3 |
| 2010-01-26T23:32 | 601 | 942 | 23.7 | 20.5 | 294 | 3 |
| 2010-01-26T23:32 | 614 | 941 | 23.5 | 20.7 | 293 | 3 |
| 2010-01-26T23:32 | 627 | 940 | 23.3 | 21.0 | 292 | 3 |
| 2010-01-26T23:32 | 639 | 938 | 23.0 | 21.1 | 291 | 4 |
| 2010-01-26T23:32 | 651 | 937 | 22.9 | 21.0 | 291 | 4 |
| 2010-01-26T23:32 | 662 | 936 | 22.8 | 20.9 | 290 | 4 |
| 2010-01-26T23:32 | 673 | 935 | 22.8 | 20.8 | 289 | 4 |
| 2010-01-26T23:32 | 683 | 934 | 22.7 | 20.8 | 289 | 4 |
| 2010-01-26T23:32 | 694 | 933 | 22.6 | 20.8 | 288 | 4 |
| 2010-01-26T23:32 | 705 | 931 | 22.4 | 20.9 | 288 | 4 |
| 2010-01-26T23:32 | 716 | 930 | 22.3 | 20.9 | 287 | 4 |
| 2010-01-26T23:32 | 727 | 929 | 22.2 | 20.8 | 287 | 5 |
| 2010-01-26T23:32 | 737 | 928 | 22.1 | 20.8 | 287 | 5 |
| 2010-01-26T23:32 | 748 | 927 | 22.0 | 20.8 | 286 | 5 |
| 2010-01-26T23:32 | 758 | 926 | 21.9 | 20.8 | 286 | 5 |
| 2010-01-26T23:33 | 768 | 925 | 21.8 | 20.7 | 285 | 6 |
| 2010-01-26T23:33 | 777 | 924 | 21.8 | 20.9 | 284 | 6 |
| 2010-01-26T23:33 | 789 | 922 | 21.7 | 21.1 | 284 | 6 |
| 2010-01-26T23:33 | 802 | 921 | 21.6 | 21.2 | 283 | 6 |
| 2010-01-26T23:33 | 815 | 920 | 21.6 | 21.3 | 282 | 7 |
| 2010-01-26T23:33 | 827 | 918 | 21.5 | 21.3 | 281 | 7 |
| 2010-01-26T23:33 | 839 | 917 | 21.5 | 21.3 | 281 | 7 |
| 2010-01-26T23:33 | 850 | 916 | 21.4 | 21.2 | 280 | 8 |
| 2010-01-26T23:33 | 859 | 915 | 21.3 | 21.0 | 279 | 8 |
| 2010-01-26T23:33 | 866 | 914 | 21.2 | 20.9 | 279 | 8 |
| 2010-01-26T23:33 | 875 | 913 | 21.2 | 20.9 | 279 | 8 |
| 2010-01-26T23:33 | 884 | 912 | 21.1 | 20.2 | 279 | 9 |
| 2010-01-26T23:33 | 894 | 911 | 21.1 | 19.4 | 279 | 9 |
| 2010-01-26T23:33 | 904 | 910 | 21.0 | 19.3 | 279 | 9 |
| 2010-01-26T23:33 | 913 | 909 | 21.0 | 19.9 | 279 | 9 |
| 2010-01-26T23:33 | 923 | 908 | 21.1 | 19.0 | 279 | 10 |
| 2010-01-26T23:33 | 933 | 907 | 21.4 | 17.6 | 279 | 10 |
| 2010-01-26T23:33 | 944 | 906 | 21.4 | 16.9 | 279 | 10 |
| 2010-01-26T23:33 | 954 | 905 | 21.4 | 16.6 | 279 | 10 |
| 2010-01-26T23:33 | 965 | 904 | 21.4 | 16.5 | 279 | 11 |
| 2010-01-26T23:33 | 975 | 903 | 21.4 | 16.4 | 279 | 11 |
| 2010-01-26T23:33 | 986 | 902 | 21.3 | 16.4 | 279 | 11 |
| 2010-01-26T23:33 | 996 | 901 | 21.3 | 16.3 | 278 | 11 |
| 2010-01-26T23:33 | 1007 | 900 | 21.2 | 16.1 | 278 | 12 |
| 2010-01-26T23:33 | 1018 | 898 | 21.1 | 16.0 | 277 | 12 |
| 2010-01-26T23:33 | 1029 | 897 | 21.1 | 16.0 | 277 | 12 |
| 2010-01-26T23:33 | 1040 | 896 | 21.1 | 15.9 | 276 | 12 |
| 2010-01-26T23:33 | 1051 | 895 | 21.1 | 15.9 | 276 | 12 |
| 2010-01-26T23:33 | 1062 | 894 | 21.2 | 15.5 | 275 | 13 |
| 2010-01-26T23:33 | 1072 | 893 | 21.4 | 14.9 | 275 | 13 |
| 2010-01-26T23:34 | 1082 | 892 | 21.4 | 14.4 | 274 | 13 |
| 2010-01-26T23:34 | 1092 | 891 | 21.4 | 14.0 | 274 | 13 |
| 2010-01-26T23:34 | 1102 | 890 | 21.3 | 13.9 | 273 | 13 |
| 2010-01-26T23:34 | 1112 | 889 | 21.2 | 13.9 | 273 | 13 |
| 2010-01-26T23:34 | 1121 | 888 | 21.1 | 13.7 | 273 | 14 |
| 2010-01-26T23:34 | 1131 | 887 | 21.2 | 13.2 | 272 | 14 |
| 2010-01-26T23:34 | 1140 | 886 | 21.3 | 12.5 | 272 | 14 |
| 2010-01-26T23:34 | 1150 | 885 | 21.4 | 12.1 | 272 | 14 |
| 2010-01-26T23:34 | 1162 | 884 | 21.3 | 12.3 | 272 | 14 |
| 2010-01-26T23:34 | 1172 | 883 | 21.3 | 12.0 | 271 | 14 |
| 2010-01-26T23:34 | 1182 | 882 | 21.3 | 11.7 | 271 | 14 |
| 2010-01-26T23:34 | 1192 | 881 | 21.3 | 11.4 | 271 | 14 |
| 2010-01-26T23:34 | 1203 | 880 | 21.2 | 11.1 | 271 | 14 |
| 2010-01-26T23:34 | 1212 | 879 | 21.2 | 10.7 | 271 | 13 |
| 2010-01-26T23:34 | 1221 | 878 | 21.2 | 10.1 | 271 | 13 |
| 2010-01-26T23:34 | 1231 | 877 | 21.2 | 10.0 | 271 | 13 |
| 2010-01-26T23:34 | 1241 | 876 | 21.1 | 10.5 | 271 | 13 |
| 2010-01-26T23:34 | 1251 | 875 | 21.0 | 11.2 | 271 | 13 |
| 2010-01-26T23:34 | 1261 | 874 | 20.9 | 12.0 | 271 | 13 |
| 2010-01-26T23:34 | 1272 | 873 | 20.8 | 12.7 | 271 | 13 |
| 2010-01-26T23:34 | 1283 | 871 | 20.6 | 13.1 | 271 | 13 |
| 2010-01-26T23:34 | 1295 | 870 | 20.5 | 13.4 | 271 | 12 |
| 2010-01-26T23:34 | 1305 | 869 | 20.4 | 13.6 | 271 | 12 |
| 2010-01-26T23:34 | 1315 | 868 | 20.3 | 13.7 | 270 | 12 |
| 2010-01-26T23:34 | 1326 | 867 | 20.2 | 13.9 | 270 | 12 |
| 2010-01-26T23:34 | 1337 | 866 | 20.1 | 14.3 | 270 | 12 |
| 2010-01-26T23:34 | 1347 | 865 | 20.0 | 14.7 | 270 | 12 |
| 2010-01-26T23:34 | 1359 | 864 | 19.9 | 14.8 | 269 | 12 |
| 2010-01-26T23:34 | 1371 | 863 | 19.8 | 14.8 | 269 | 12 |
| 2010-01-26T23:34 | 1382 | 861 | 19.7 | 14.7 | 269 | 12 |
| 2010-01-26T23:35 | 1394 | 860 | 19.6 | 14.6 | 269 | 12 |
| 2010-01-26T23:35 | 1406 | 859 | 19.5 | 14.5 | 269 | 12 |
| 2010-01-26T23:35 | 1417 | 858 | 19.4 | 14.5 | 269 | 12 |
| 2010-01-26T23:35 | 1428 | 857 | 19.3 | 14.5 | 269 | 12 |
| 2010-01-26T23:35 | 1437 | 856 | 19.3 | 14.6 | 269 | 12 |
| 2010-01-26T23:35 | 1447 | 855 | 19.2 | 14.6 | 269 | 11 |
| 2010-01-26T23:35 | 1457 | 854 | 19.1 | 14.7 | 269 | 11 |
| 2010-01-26T23:35 | 1468 | 853 | 19.1 | 14.7 | 270 | 11 |
| 2010-01-26T23:35 | 1479 | 852 | 19.0 | 14.8 | 270 | 11 |
| 2010-01-26T23:35 | 1490 | 851 | 18.9 | 14.9 | 270 | 11 |
| 2010-01-26T23:35 | 1499 | 850 | 18.8 | 14.9 | 270 | 11 |
| 2010-01-26T23:35 | 1509 | 849 | 18.7 | 14.9 | 270 | 11 |
| 2010-01-26T23:35 | 1521 | 848 | 18.6 | 14.9 | 271 | 11 |
| 2010-01-26T23:35 | 1531 | 847 | 18.5 | 14.9 | 271 | 11 |
| 2010-01-26T23:35 | 1541 | 846 | 18.4 | 15.0 | 271 | 11 |
| 2010-01-26T23:35 | 1552 | 845 | 18.4 | 15.1 | 271 | 11 |
| 2010-01-26T23:35 | 1563 | 844 | 18.2 | 15.1 | 272 | 11 |
| 2010-01-26T23:35 | 1573 | 843 | 18.1 | 15.1 | 272 | 11 |
| 2010-01-26T23:35 | 1583 | 842 | 18.0 | 15.1 | 273 | 11 |
| 2010-01-26T23:35 | 1594 | 841 | 18.0 | 15.1 | 273 | 11 |
| 2010-01-26T23:35 | 1604 | 840 | 18.0 | 15.2 | 274 | 11 |
| 2010-01-26T23:35 | 1615 | 839 | 18.0 | 15.2 | 274 | 11 |
| 2010-01-26T23:35 | 1626 | 837 | 18.0 | 15.2 | 275 | 11 |
| 2010-01-26T23:35 | 1637 | 836 | 18.0 | 15.1 | 276 | 11 |
| 2010-01-26T23:35 | 1649 | 835 | 18.0 | 15.0 | 276 | 11 |
| 2010-01-26T23:35 | 1661 | 834 | 18.0 | 14.8 | 277 | 10 |
| 2010-01-26T23:35 | 1670 | 833 | 18.0 | 14.8 | 277 | 10 |
| 2010-01-26T23:35 | 1680 | 832 | 18.0 | 14.8 | 278 | 10 |
| 2010-01-26T23:35 | 1690 | 831 | 18.0 | 14.7 | 278 | 10 |
| 2010-01-26T23:35 | 1701 | 830 | 17.9 | 14.6 | 278 | 10 |
| 2010-01-26T23:36 | 1713 | 829 | 17.9 | 14.4 | 278 | 10 |
| 2010-01-26T23:36 | 1725 | 828 | 17.9 | 14.3 | 278 | 10 |
| 2010-01-26T23:36 | 1736 | 827 | 18.0 | 13.9 | 277 | 10 |
| 2010-01-26T23:36 | 1747 | 826 | 18.1 | 13.6 | 277 | 9 |
| 2010-01-26T23:36 | 1759 | 825 | 18.2 | 13.3 | 276 | 9 |
| 2010-01-26T23:36 | 1770 | 824 | 18.2 | 13.3 | 275 | 9 |
| 2010-01-26T23:36 | 1780 | 823 | 18.2 | 13.2 | 275 | 9 |
| 2010-01-26T23:36 | 1791 | 822 | 18.1 | 13.2 | 274 | 9 |
| 2010-01-26T23:36 | 1802 | 820 | 18.0 | 13.3 | 273 | 9 |
| 2010-01-26T23:36 | 1813 | 819 | 17.9 | 13.4 | 273 | 9 |
| 2010-01-26T23:36 | 1824 | 818 | 17.8 | 13.6 | 272 | 9 |
| 2010-01-26T23:36 | 1835 | 817 | 17.6 | 14.1 | 272 | 9 |
| 2010-01-26T23:36 | 1847 | 816 | 17.5 | 14.5 | 271 | 9 |
| 2010-01-26T23:36 | 1858 | 815 | 17.4 | 14.6 | 271 | 9 |
| 2010-01-26T23:36 | 1870 | 814 | 17.3 | 14.6 | 271 | 9 |
| 2010-01-26T23:36 | 1881 | 813 | 17.3 | 14.5 | 271 | 9 |
| 2010-01-26T23:36 | 1892 | 812 | 17.2 | 14.5 | 270 | 9 |
| 2010-01-26T23:36 | 1904 | 811 | 17.2 | 14.5 | 270 | 9 |
| 2010-01-26T23:36 | 1915 | 810 | 17.1 | 14.5 | 270 | 9 |
| 2010-01-26T23:36 | 1926 | 809 | 17.1 | 14.5 | 270 | 9 |
| 2010-01-26T23:36 | 1936 | 808 | 17.0 | 14.5 | 269 | 9 |
| 2010-01-26T23:36 | 1947 | 807 | 17.0 | 14.5 | 269 | 9 |
| 2010-01-26T23:36 | 1957 | 806 | 16.9 | 14.5 | 268 | 9 |
| 2010-01-26T23:36 | 1968 | 805 | 16.9 | 14.0 | 268 | 9 |
| 2010-01-26T23:36 | 1980 | 804 | 17.0 | 13.3 | 267 | 9 |
| 2010-01-26T23:36 | 1992 | 802 | 16.9 | 13.0 | 267 | 9 |
| 2010-01-26T23:37 | 2049 | 797 | 16.6 | 12.2 | 264 | 8 |
| 2010-01-26T23:37 | 2100 | 792 | 16.3 | 12.0 | 264 | 8 |
| 2010-01-26T23:37 | 2159 | 787 | 15.6 | 13.1 | 263 | 8 |
| 2010-01-26T23:37 | 2212 | 782 | 15.1 | 13.2 | 263 | 8 |
| 2010-01-26T23:37 | 2266 | 777 | 14.7 | 12.6 | 266 | 7 |
| 2010-01-26T23:37 | 2322 | 772 | 14.6 | 11.5 | 268 | 7 |
| 2010-01-26T23:38 | 2376 | 767 | 14.9 | 10.1 | 268 | 7 |
| 2010-01-26T23:38 | 2437 | 762 | 15.2 | 5.1 | 269 | 7 |
| 2010-01-26T23:38 | 2493 | 757 | 14.7 | 5.9 | 271 | 7 |
| 2010-01-26T23:38 | 2546 | 752 | 14.2 | 7.7 | 273 | 8 |
| 2010-01-26T23:38 | 2601 | 747 | 13.9 | 7.3 | 273 | 8 |
| 2010-01-26T23:38 | 2657 | 742 | 13.7 | 8.0 | 274 | 9 |
| 2010-01-26T23:39 | 2717 | 737 | 13.4 | 7.3 | 274 | 10 |
| 2010-01-26T23:39 | 2777 | 732 | 13.3 | 6.2 | 273 | 11 |
| 2010-01-26T23:39 | 2833 | 727 | 13.1 | 5.4 | 272 | 12 |
| 2010-01-26T23:39 | 2890 | 722 | 12.9 | 5.0 | 272 | 12 |
| 2010-01-26T23:39 | 2942 | 717 | 12.7 | 4.5 | 273 | 12 |
| 2010-01-26T23:39 | 2998 | 713 | 12.3 | 5.1 | 273 | 12 |
| 2010-01-26T23:40 | 3054 | 708 | 11.9 | 4.1 | 273 | 11 |
| 2010-01-26T23:40 | 3112 | 703 | 11.6 | 3.2 | 276 | 10 |
| 2010-01-26T23:40 | 3171 | 698 | 11.3 | 3.4 | 280 | 10 |
| 2010-01-26T23:40 | 3226 | 693 | 11.1 | 3.0 | 282 | 10 |
| 2010-01-26T23:40 | 3280 | 689 | 11.1 | 0.6 | 283 | 10 |
| 2010-01-26T23:40 | 3335 | 684 | 11.0 | 1.8 | 282 | 11 |
| 2010-01-26T23:41 | 3390 | 680 | 10.7 | 2.0 | 280 | 11 |
| 2010-01-26T23:41 | 3450 | 675 | 10.3 | 1.7 | 279 | 11 |
| 2010-01-26T23:41 | 3506 | 670 | 9.9 | 1.3 | 280 | 11 |
| 2010-01-26T23:41 | 3557 | 666 | 9.4 | 1.3 | 281 | 11 |
| 2010-01-26T23:41 | 3614 | 662 | 9.1 | 1.7 | 278 | 11 |
| 2010-01-26T23:41 | 3665 | 658 | 9.0 | 1.3 | 274 | 11 |
| 2010-01-26T23:42 | 3721 | 653 | 9.1 | 1.3 | 270 | 12 |
| 2010-01-26T23:42 | 3772 | 649 | 9.0 | 0.4 | 270 | 11 |
| 2010-01-26T23:42 | 3825 | 645 | 8.8 | -0.2 | 272 | 10 |
| 2010-01-26T23:42 | 3878 | 641 | 8.4 | -0.1 | 273 | 10 |
| 2010-01-26T23:42 | 3930 | 637 | 7.9 | -0.1 | 271 | 9 |
| 2010-01-26T23:42 | 3982 | 633 | 7.7 | -1.2 | 267 | 8 |
| 2010-01-26T23:43 | 4035 | 629 | 7.4 | -1.5 | 265 | 8 |
| 2010-01-26T23:43 | 4090 | 625 | 7.0 | -1.9 | 265 | 7 |
| 2010-01-26T23:43 | 4145 | 621 | 6.5 | -2.3 | 265 | 7 |
| 2010-01-26T23:43 | 4201 | 616 | 6.1 | -2.4 | 265 | 7 |
| 2010-01-26T23:43 | 4252 | 613 | 5.7 | -2.7 | 265 | 7 |
| 2010-01-26T23:43 | 4305 | 609 | 5.3 | -3.0 | 265 | 6 |
| 2010-01-26T23:44 | 4361 | 604 | 4.9 | -3.0 | 267 | 6 |
| 2010-01-26T23:44 | 4415 | 600 | 4.6 | -2.0 | 270 | 5 |
| 2010-01-26T23:44 | 4461 | 597 | 4.4 | -2.6 | 270 | 4 |
| 2010-01-26T23:44 | 4519 | 593 | 4.2 | -3.0 | 264 | 3 |
| 2010-01-26T23:44 | 4575 | 589 | 3.9 | -2.8 | 252 | 2 |
| 2010-01-26T23:44 | 4630 | 585 | 3.6 | -2.9 | 241 | 2 |
| 2010-01-26T23:45 | 4686 | 581 | 3.2 | -2.8 | 237 | 2 |
| 2010-01-26T23:45 | 4739 | 577 | 2.8 | -2.9 | 239 | 2 |
| 2010-01-26T23:45 | 4796 | 573 | 2.3 | -3.3 | 241 | 1 |
| 2010-01-26T23:45 | 4856 | 569 | 1.8 | -3.6 | 239 | 1 |
| 2010-01-26T23:45 | 4913 | 565 | 1.5 | -3.7 | 233 | 1 |
| 2010-01-26T23:45 | 4967 | 561 | 1.1 | -4.0 | 225 | 1 |
| 2010-01-26T23:46 | 5028 | 557 | 0.9 | -3.9 | 203 | 0 |
| 2010-01-26T23:46 | 5085 | 553 | 0.5 | -3.7 | 0 | 0 |
| 2010-01-26T23:46 | 5147 | 549 | 0.0 | -4.4 | 75 | 0 |
| 2010-01-26T23:46 | 5205 | 545 | -0.4 | -5.3 | 53 | 1 |
| 2010-01-26T23:46 | 5261 | 541 | -0.8 | -5.5 | 40 | 1 |
| 2010-01-26T23:46 | 5319 | 537 | -1.0 | -6.4 | 32 | 0 |
| 2010-01-26T23:47 | 5377 | 533 | -1.4 | -7.3 | 0 | 0 |
| 2010-01-26T23:47 | 5429 | 530 | -1.7 | -7.3 | 17 | 0 |
| 2010-01-26T23:47 | 5489 | 526 | -2.0 | -7.7 | 11 | 2 |
| 2010-01-26T23:47 | 5546 | 522 | -2.4 | -7.8 | 14 | 3 |
| 2010-01-26T23:47 | 5610 | 518 | -2.8 | -8.5 | 19 | 4 |
| 2010-01-26T23:47 | 5674 | 513 | -3.3 | -9.2 | 22 | 5 |
| 2010-01-26T23:48 | 5734 | 510 | -3.7 | -9.6 | 23 | 5 |
| 2010-01-26T23:48 | 5792 | 506 | -4.2 | -9.8 | 23 | 6 |
| 2010-01-26T23:48 | 5858 | 502 | -4.6 | -10.0 | 23 | 6 |
| 2010-01-26T23:48 | 5918 | 498 | -5.1 | -10.6 | 23 | 7 |
| 2010-01-26T23:48 | 5976 | 494 | -5.7 | -10.9 | 22 | 7 |
| 2010-01-26T23:48 | 6028 | 491 | -6.1 | -11.1 | 20 | 6 |
| 2010-01-26T23:49 | 6074 | 488 | -6.5 | -11.4 | 18 | 6 |
| 2010-01-26T23:49 | 6125 | 485 | -6.7 | -12.3 | 16 | 6 |
| 2010-01-26T23:49 | 6170 | 482 | -7.0 | -13.1 | 14 | 5 |
| 2010-01-26T23:49 | 6217 | 479 | -7.4 | -12.9 | 11 | 5 |
| 2010-01-26T23:49 | 6259 | 477 | -7.7 | -13.0 | 7 | 5 |
| 2010-01-26T23:49 | 6303 | 474 | -8.1 | -12.9 | 0 | 5 |
| 2010-01-26T23:50 | 6357 | 471 | -8.6 | -13.0 | 349 | 6 |
| 2010-01-26T23:50 | 6415 | 467 | -8.6 | -13.9 | 341 | 6 |
| 2010-01-26T23:50 | 6467 | 464 | -8.8 | -14.8 | 340 | 7 |
| 2010-01-26T23:50 | 6512 | 461 | -9.0 | -15.2 | 344 | 8 |
| 2010-01-26T23:50 | 6561 | 458 | -9.3 | -15.9 | 348 | 8 |
| 2010-01-26T23:50 | 6608 | 456 | -9.6 | -16.0 | 350 | 8 |
| 2010-01-26T23:51 | 6652 | 453 | -9.9 | -16.1 | 350 | 7 |
| 2010-01-26T23:51 | 6697 | 450 | -10.2 | -16.4 | 348 | 7 |
| 2010-01-26T23:51 | 6750 | 447 | -10.5 | -16.9 | 348 | 7 |
| 2010-01-26T23:51 | 6804 | 444 | -10.9 | -17.6 | 351 | 7 |
| 2010-01-26T23:51 | 6852 | 441 | -11.1 | -18.0 | 356 | 7 |
| 2010-01-26T23:51 | 6888 | 439 | -11.3 | -18.2 | 359 | 7 |
| 2010-01-26T23:52 | 6929 | 437 | -11.5 | -19.0 | 2 | 6 |
| 2010-01-26T23:52 | 6968 | 435 | -11.5 | -19.9 | 2 | 5 |
| 2010-01-26T23:52 | 7012 | 432 | -11.8 | -20.3 | 3 | 5 |
| 2010-01-26T23:52 | 7052 | 430 | -11.9 | -20.9 | 5 | 5 |
| 2010-01-26T23:52 | 7089 | 428 | -12.0 | -21.9 | 8 | 5 |
| 2010-01-26T23:52 | 7129 | 426 | -12.2 | -22.4 | 13 | 5 |
| 2010-01-26T23:53 | 7164 | 424 | -12.4 | -23.4 | 20 | 5 |
| 2010-01-26T23:53 | 7202 | 422 | -12.7 | -23.7 | 28 | 5 |
| 2010-01-26T23:53 | 7239 | 420 | -12.9 | -24.5 | 35 | 5 |
| 2010-01-26T23:53 | 7276 | 418 | -13.1 | -26.6 | 40 | 5 |
| 2010-01-26T23:53 | 7312 | 416 | -13.2 | -30.2 | 42 | 6 |
| 2010-01-26T23:53 | 7348 | 414 | -13.3 | -31.2 | 46 | 6 |
| 2010-01-26T23:54 | 7384 | 412 | -13.6 | -30.0 | 50 | 6 |
| 2010-01-26T23:54 | 7431 | 409 | -13.8 | -28.0 | 55 | 6 |
| 2010-01-26T23:54 | 7479 | 407 | -14.3 | -27.8 | 59 | 8 |
| 2010-01-26T23:54 | 7530 | 404 | -14.6 | -26.7 | 61 | 9 |
| 2010-01-26T23:54 | 7573 | 402 | -15.0 | -26.5 | 61 | 10 |
| 2010-01-26T23:54 | 7620 | 399 | -15.3 | -26.3 | 61 | 11 |
| 2010-01-26T23:55 | 7660 | 397 | -15.6 | -26.3 | 62 | 11 |
| 2010-01-26T23:55 | 7697 | 395 | -15.9 | -27.1 | 63 | 12 |
| 2010-01-26T23:55 | 7732 | 393 | -15.9 | -27.5 | 64 | 13 |
| 2010-01-26T23:55 | 7768 | 391 | -16.2 | -28.2 | 64 | 12 |
| 2010-01-26T23:55 | 7807 | 389 | -16.5 | -27.4 | 64 | 12 |
| 2010-01-26T23:55 | 7843 | 387 | -16.8 | -26.8 | 65 | 12 |
| 2010-01-26T23:56 | 7880 | 386 | -17.1 | -26.6 | 64 | 12 |
| 2010-01-26T23:56 | 7915 | 384 | -17.3 | -26.7 | 63 | 12 |
| 2010-01-26T23:56 | 7952 | 382 | -17.6 | -26.4 | 62 | 12 |
| 2010-01-26T23:56 | 7990 | 380 | -17.8 | -28.1 | 62 | 11 |
| 2010-01-26T23:56 | 8028 | 378 | -17.9 | -28.9 | 63 | 10 |
| 2010-01-26T23:56 | 8064 | 376 | -18.0 | -30.2 | 64 | 10 |
| 2010-01-26T23:57 | 8100 | 374 | -18.1 | -32.7 | 66 | 9 |
| 2010-01-26T23:57 | 8138 | 372 | -18.4 | -32.4 | 67 | 8 |
| 2010-01-26T23:57 | 8175 | 371 | -18.6 | -29.8 | 68 | 7 |
| 2010-01-26T23:57 | 8213 | 369 | -18.9 | -30.1 | 69 | 7 |
| 2010-01-26T23:57 | 8251 | 367 | -19.1 | -30.6 | 68 | 6 |
| 2010-01-26T23:57 | 8291 | 365 | -19.5 | -30.7 | 68 | 5 |
| 2010-01-26T23:58 | 8331 | 363 | -19.7 | -31.0 | 68 | 4 |
| 2010-01-26T23:58 | 8369 | 361 | -19.9 | -32.1 | 69 | 4 |
| 2010-01-26T23:58 | 8408 | 359 | -20.0 | -33.3 | 74 | 4 |
| 2010-01-26T23:58 | 8447 | 357 | -20.1 | -34.0 | 79 | 4 |
| 2010-01-26T23:58 | 8487 | 355 | -20.3 | -33.8 | 81 | 5 |
| 2010-01-26T23:58 | 8528 | 353 | -20.5 | -33.7 | 83 | 4 |
| 2010-01-26T23:59 | 8568 | 352 | -20.6 | -33.8 | 86 | 4 |
| 2010-01-26T23:59 | 8608 | 350 | -20.8 | -35.1 | 88 | 4 |
| 2010-01-26T23:59 | 8650 | 348 | -21.1 | -35.6 | 93 | 4 |
| 2010-01-26T23:59 | 8692 | 346 | -21.5 | -35.6 | 99 | 4 |
| 2010-01-26T23:59 | 8734 | 344 | -21.9 | -35.7 | 106 | 3 |
| 2010-01-26T23:59 | 8776 | 342 | -22.2 | -35.8 | 115 | 3 |
| 2010-01-27T00:00 | 8818 | 340 | -22.5 | -35.0 | 125 | 2 |
| 2010-01-27T00:00 | 8857 | 338 | -22.9 | -35.0 | 128 | 2 |
| 2010-01-27T00:00 | 8898 | 336 | -23.2 | -34.8 | 121 | 2 |
| 2010-01-27T00:00 | 8940 | 334 | -23.6 | -35.1 | 115 | 3 |
| 2010-01-27T00:00 | 8980 | 332 | -24.0 | -35.3 | 115 | 3 |
| 2010-01-27T00:00 | 9020 | 331 | -24.4 | -35.7 | 118 | 3 |
| 2010-01-27T00:01 | 9060 | 329 | -24.8 | -35.7 | 118 | 3 |
| 2010-01-27T00:01 | 9100 | 327 | -25.1 | -36.1 | 118 | 3 |
| 2010-01-27T00:01 | 9140 | 325 | -25.5 | -36.3 | 120 | 3 |
| 2010-01-27T00:01 | 9182 | 323 | -25.9 | -36.3 | 119 | 3 |
| 2010-01-27T00:01 | 9225 | 321 | -26.3 | -36.3 | 115 | 3 |
| 2010-01-27T00:01 | 9267 | 319 | -26.7 | -36.4 | 112 | 3 |
| 2010-01-27T00:02 | 9310 | 318 | -27.1 | -36.2 | 114 | 3 |
| 2010-01-27T00:02 | 9353 | 316 | -27.6 | -36.3 | 113 | 3 |
| 2010-01-27T00:02 | 9396 | 314 | -28.0 | -36.2 | 109 | 3 |
| 2010-01-27T00:02 | 9435 | 312 | -28.3 | -36.6 | 106 | 3 |
| 2010-01-27T00:02 | 9477 | 310 | -28.7 | -36.5 | 109 | 3 |
| 2010-01-27T00:02 | 9517 | 309 | -28.9 | -35.1 | 116 | 3 |
| 2010-01-27T00:03 | 9559 | 307 | -29.3 | -34.7 | 120 | 3 |
| 2010-01-27T00:03 | 9598 | 305 | -29.6 | -35.0 | 116 | 3 |
| 2010-01-27T00:03 | 9638 | 303 | -30.0 | -35.3 | 108 | 2 |
| 2010-01-27T00:03 | 9679 | 302 | -30.2 | -35.3 | 98 | 2 |
| 2010-01-27T00:03 | 9719 | 300 | -30.5 | -35.7 | 86 | 1 |
| 2010-01-27T00:03 | 9760 | 298 | -30.8 | -36.0 | 79 | 1 |
| 2010-01-27T00:04 | 9802 | 296 | -31.2 | -36.2 | 79 | 2 |
| 2010-01-27T00:04 | 9841 | 295 | -31.5 | -36.3 | 80 | 2 |
| 2010-01-27T00:04 | 9880 | 293 | -31.8 | -36.9 | 80 | 1 |
| 2010-01-27T00:04 | 9921 | 292 | -32.1 | -37.2 | 80 | 1 |
| 2010-01-27T00:04 | 9960 | 290 | -32.4 | -37.5 | 82 | 1 |
| 2010-01-27T00:04 | 10000 | 288 | -32.7 | -37.8 | 84 | 1 |
| 2010-01-27T00:05 | 10039 | 287 | -33.0 | -38.1 | 84 | 2 |
| 2010-01-27T00:05 | 10081 | 285 | -33.4 | -38.3 | 87 | 2 |
| 2010-01-27T00:05 | 10122 | 283 | -33.7 | -38.5 | 94 | 2 |
| 2010-01-27T00:05 | 10168 | 281 | -34.0 | -39.0 | 101 | 3 |
| 2010-01-27T00:05 | 10208 | 280 | -34.3 | -39.2 | 105 | 3 |
| 2010-01-27T00:05 | 10247 | 278 | -34.6 | -39.2 | 107 | 4 |
| 2010-01-27T00:06 | 10288 | 277 | -34.9 | -39.5 | 109 | 5 |
| 2010-01-27T00:06 | 10331 | 275 | -35.2 | -40.2 | 113 | 5 |
| 2010-01-27T00:06 | 10372 | 273 | -35.5 | -40.5 | 117 | 5 |
| 2010-01-27T00:06 | 10416 | 272 | -35.9 | -40.9 | 120 | 5 |
| 2010-01-27T00:06 | 10463 | 270 | -36.4 | -41.1 | 120 | 5 |
| 2010-01-27T00:06 | 10514 | 268 | -36.8 | -41.1 | 121 | 6 |
| 2010-01-27T00:07 | 10562 | 266 | -37.2 | -41.3 | 121 | 6 |
| 2010-01-27T00:07 | 10608 | 264 | -37.5 | -41.8 | 123 | 6 |
| 2010-01-27T00:07 | 10653 | 262 | -37.8 | -42.4 | 126 | 6 |
| 2010-01-27T00:07 | 10701 | 261 | -38.3 | -42.7 | 127 | 6 |
| 2010-01-27T00:07 | 10755 | 259 | -38.7 | -43.0 | 130 | 5 |
| 2010-01-27T00:07 | 10815 | 256 | -39.1 | -43.5 | 135 | 5 |
| 2010-01-27T00:08 | 10867 | 254 | -39.7 | -44.0 | 137 | 6 |
| 2010-01-27T00:08 | 10924 | 252 | -40.1 | -44.3 | 138 | 6 |
| 2010-01-27T00:08 | 10983 | 250 | -40.7 | -44.8 | 138 | 6 |
| 2010-01-27T00:08 | 11039 | 248 | -41.2 | -45.1 | 135 | 5 |
| 2010-01-27T00:08 | 11096 | 246 | -41.8 | -45.0 | 131 | 6 |
| 2010-01-27T00:08 | 11151 | 244 | -42.3 | -45.3 | 129 | 6 |
| 2010-01-27T00:09 | 11198 | 242 | -42.7 | -46.0 | 131 | 6 |
| 2010-01-27T00:09 | 11258 | 240 | -43.3 | -47.3 | 132 | 7 |
| 2010-01-27T00:09 | 11317 | 238 | -43.7 | -47.2 | 133 | 7 |
| 2010-01-27T00:09 | 11367 | 236 | -44.2 | -47.3 | 135 | 7 |
| 2010-01-27T00:09 | 11417 | 235 | -44.6 | -48.0 | 138 | 7 |
| 2010-01-27T00:09 | 11463 | 233 | -45.0 | -49.5 | 135 | 8 |
| 2010-01-27T00:10 | 11517 | 231 | -45.5 | -50.2 | 126 | 9 |
| 2010-01-27T00:10 | 11567 | 229 | -46.0 | -50.8 | 118 | 11 |
| 2010-01-27T00:10 | 11620 | 227 | -46.3 | -51.6 | 112 | 12 |
| 2010-01-27T00:10 | 11658 | 226 | -46.3 | -53.0 | 107 | 13 |
| 2010-01-27T00:10 | 11699 | 225 | -46.7 | -53.8 | 103 | 14 |
| 2010-01-27T00:10 | 11749 | 223 | -47.3 | -54.2 | 100 | 15 |
| 2010-01-27T00:11 | 11809 | 221 | -47.7 | -54.4 | 100 | 16 |
| 2010-01-27T00:11 | 11838 | 220 | -47.6 | -54.8 | 100 | 17 |
| 2010-01-27T00:11 | 11868 | 219 | -47.8 | -55.8 | 100 | 17 |
| 2010-01-27T00:11 | 11900 | 218 | -48.2 | -56.3 | 99 | 17 |
| 2010-01-27T00:11 | 11933 | 217 | -48.4 | -56.7 | 98 | 17 |
| 2010-01-27T00:11 | 11968 | 216 | -48.7 | -57.3 | 97 | 17 |
| 2010-01-27T00:12 | 12003 | 215 | -48.9 | -57.7 | 97 | 18 |
| 2010-01-27T00:12 | 12040 | 213 | -49.4 | -58.2 | 98 | 19 |
| 2010-01-27T00:12 | 12080 | 212 | -49.7 | -58.6 | 98 | 19 |
| 2010-01-27T00:12 | 12123 | 211 | -50.0 | -59.2 | 98 | 20 |
| 2010-01-27T00:12 | 12166 | 209 | -50.3 | -59.8 | 97 | 20 |
| 2010-01-27T00:12 | 12205 | 208 | -50.6 | -60.7 | 96 | 19 |
| 2010-01-27T00:13 | 12243 | 207 | -50.9 | -61.6 | 95 | 19 |
| 2010-01-27T00:13 | 12281 | 206 | -51.2 | -62.3 | 95 | 18 |
| 2010-01-27T00:13 | 12319 | 205 | -51.6 | -63.1 | 94 | 18 |
| 2010-01-27T00:13 | 12359 | 203 | -51.9 | -63.8 | 92 | 17 |
| 2010-01-27T00:13 | 12401 | 202 | -52.2 | -64.6 | 91 | 17 |
| 2010-01-27T00:13 | 12439 | 201 | -52.5 | -65.4 | 89 | 18 |
| 2010-01-27T00:14 | 12480 | 199 | -52.8 | -65.9 | 88 | 18 |
| 2010-01-27T00:14 | 12523 | 198 | -53.3 | -66.1 | 89 | 18 |
| 2010-01-27T00:14 | 12561 | 197 | -53.6 | -66.3 | 90 | 19 |
| 2010-01-27T00:14 | 12601 | 196 | -53.9 | -66.4 | 91 | 19 |
| 2010-01-27T00:14 | 12644 | 194 | -54.3 | -66.4 | 91 | 20 |
| 2010-01-27T00:14 | 12689 | 193 | -54.8 | -66.3 | 92 | 20 |
| 2010-01-27T00:15 | 12734 | 192 | -55.2 | -66.3 | 92 | 21 |
| 2010-01-27T00:15 | 12776 | 190 | -55.5 | -66.4 | 92 | 21 |
| 2010-01-27T00:15 | 12817 | 189 | -56.0 | -66.8 | 92 | 22 |
| 2010-01-27T00:15 | 12857 | 188 | -56.4 | -67.1 | 93 | 22 |
| 2010-01-27T00:15 | 12899 | 187 | -56.7 | -66.9 | 93 | 22 |
| 2010-01-27T00:15 | 12941 | 186 | -57.0 | -66.9 | 94 | 23 |
| 2010-01-27T00:16 | 12984 | 184 | -57.2 | -66.8 | 96 | 23 |
| 2010-01-27T00:16 | 13028 | 183 | -57.7 | -67.0 | 97 | 24 |
| 2010-01-27T00:16 | 13070 | 182 | -58.0 | -67.1 | 99 | 24 |
| 2010-01-27T00:16 | 13113 | 181 | -58.4 | -67.3 | 99 | 25 |
| 2010-01-27T00:16 | 13153 | 179 | -58.8 | -67.4 | 100 | 25 |
| 2010-01-27T00:16 | 13194 | 178 | -59.0 | -67.5 | 100 | 25 |
| 2010-01-27T00:17 | 13240 | 177 | -59.4 | -67.9 | 100 | 26 |
| 2010-01-27T00:17 | 13284 | 176 | -60.0 | -68.5 | 101 | 26 |
| 2010-01-27T00:17 | 13326 | 175 | -60.4 | -68.7 | 102 | 27 |
| 2010-01-27T00:17 | 13367 | 173 | -60.8 | -68.9 | 103 | 27 |
| 2010-01-27T00:17 | 13406 | 172 | -61.2 | -69.2 | 104 | 27 |
| 2010-01-27T00:17 | 13446 | 171 | -61.5 | -69.5 | 105 | 27 |
| 2010-01-27T00:18 | 13484 | 170 | -61.9 | -69.8 | 106 | 28 |
| 2010-01-27T00:18 | 13523 | 169 | -62.0 | -69.9 | 106 | 28 |
| 2010-01-27T00:18 | 13562 | 168 | -62.5 | -70.5 | 107 | 28 |
| 2010-01-27T00:18 | 13602 | 167 | -62.8 | -70.9 | 108 | 28 |
| 2010-01-27T00:18 | 13642 | 166 | -63.2 | -71.3 | 108 | 28 |
| 2010-01-27T00:18 | 13682 | 165 | -63.5 | -71.8 | 108 | 28 |
| 2010-01-27T00:19 | 13722 | 164 | -63.9 | -72.2 | 108 | 28 |
| 2010-01-27T00:19 | 13764 | 163 | -64.3 | -72.5 | 107 | 28 |
| 2010-01-27T00:19 | 13804 | 162 | -64.7 | -72.8 | 107 | 27 |
| 2010-01-27T00:19 | 13841 | 161 | -65.0 | -73.1 | 108 | 27 |
| 2010-01-27T00:19 | 13879 | 160 | -65.2 | -73.4 | 109 | 27 |
| 2010-01-27T00:19 | 13922 | 158 | -65.5 | -73.8 | 111 | 26 |
| 2010-01-27T00:20 | 13970 | 157 | -65.9 | -74.4 | 115 | 25 |
| 2010-01-27T00:20 | 14024 | 156 | -65.9 | -74.5 | 121 | 25 |
| 2010-01-27T00:20 | 14073 | 155 | -65.5 | -74.2 | 125 | 26 |
| 2010-01-27T00:20 | 14115 | 153 | -65.4 | -74.1 | 128 | 27 |
| 2010-01-27T00:20 | 14159 | 152 | -65.4 | -74.2 | 130 | 28 |
| 2010-01-27T00:20 | 14202 | 151 | -65.4 | -74.2 | 133 | 29 |
| 2010-01-27T00:21 | 14248 | 150 | -66.0 | -74.7 | 135 | 29 |
| 2010-01-27T00:21 | 14296 | 149 | -66.2 | -74.7 | 137 | 29 |
| 2010-01-27T00:21 | 14343 | 148 | -66.4 | -74.8 | 139 | 29 |
| 2010-01-27T00:21 | 14391 | 147 | -66.9 | -75.3 | 140 | 29 |
| 2010-01-27T00:21 | 14439 | 146 | -67.3 | -75.6 | 141 | 29 |
| 2010-01-27T00:21 | 14485 | 144 | -67.8 | -76.1 | 141 | 29 |
| 2010-01-27T00:22 | 14533 | 143 | -68.2 | -76.5 | 141 | 29 |
| 2010-01-27T00:22 | 14582 | 142 | -68.7 | -77.1 | 141 | 29 |
| 2010-01-27T00:22 | 14630 | 141 | -69.1 | -77.6 | 141 | 29 |
| 2010-01-27T00:22 | 14677 | 140 | -69.6 | -78.0 | 141 | 29 |
| 2010-01-27T00:22 | 14723 | 139 | -70.1 | -78.5 | 140 | 29 |
| 2010-01-27T00:22 | 14771 | 138 | -70.4 | -78.7 | 138 | 29 |
| 2010-01-27T00:23 | 14818 | 137 | -70.7 | -78.9 | 137 | 30 |
| 2010-01-27T00:23 | 14865 | 135 | -71.0 | -79.2 | 136 | 30 |
| 2010-01-27T00:23 | 14911 | 134 | -71.4 | -79.6 | 136 | 31 |
| 2010-01-27T00:23 | 14956 | 133 | -71.7 | -79.8 | 135 | 31 |
| 2010-01-27T00:23 | 15000 | 132 | -72.2 | -80.3 | 135 | 31 |
| 2010-01-27T00:23 | 15042 | 131 | -72.6 | -80.7 | 134 | 32 |
| 2010-01-27T00:24 | 15085 | 131 | -72.8 | -81.0 | 135 | 32 |
| 2010-01-27T00:24 | 15126 | 130 | -73.3 | -81.5 | 135 | 33 |
| 2010-01-27T00:24 | 15167 | 129 | -73.7 | -81.8 | 135 | 33 |
| 2010-01-27T00:24 | 15208 | 128 | -73.9 | -81.9 | 135 | 33 |
| 2010-01-27T00:24 | 15247 | 127 | -74.1 | -82.1 | 134 | 34 |
| 2010-01-27T00:24 | 15287 | 126 | -74.4 | -82.4 | 134 | 34 |
| 2010-01-27T00:25 | 15327 | 125 | -74.6 | -82.7 | 133 | 34 |
| 2010-01-27T00:25 | 15373 | 124 | -74.7 | -82.9 | 133 | 33 |
| 2010-01-27T00:25 | 15419 | 123 | -74.6 | -82.8 | 133 | 32 |
| 2010-01-27T00:25 | 15465 | 122 | -74.8 | -83.0 | 132 | 30 |
| 2010-01-27T00:25 | 15522 | 121 | -74.8 | -83.1 | 130 | 28 |
| 2010-01-27T00:25 | 15582 | 120 | -75.0 | -83.4 | 126 | 26 |
| 2010-01-27T00:26 | 15668 | 118 | -74.5 | -83.3 | 121 | 24 |
| 2010-01-27T00:26 | 15742 | 117 | -74.7 | -83.6 | 117 | 22 |
| 2010-01-27T00:26 | 15832 | 115 | -75.4 | -84.5 | 113 | 19 |
| 2010-01-27T00:26 | 15905 | 113 | -75.6 | -84.9 | 110 | 16 |
| 2010-01-27T00:26 | 15968 | 112 | -76.0 | -85.5 | 108 | 15 |
| 2010-01-27T00:26 | 16017 | 111 | -76.5 | -86.1 | 108 | 15 |
| 2010-01-27T00:27 | 16076 | 110 | -77.0 | -86.7 | 107 | 14 |
| 2010-01-27T00:27 | 16129 | 109 | -77.3 | -87.2 | 108 | 13 |
| 2010-01-27T00:27 | 16198 | 108 | -77.5 | -87.4 | 109 | 11 |
| 2010-01-27T00:27 | 16270 | 106 | -77.8 | -87.8 | 111 | 8 |
| 2010-01-27T00:27 | 16358 | 105 | -77.2 | -87.4 | 122 | 5 |
| 2010-01-27T00:27 | 16429 | 103 | -77.0 | -87.3 | 172 | 3 |
| 2010-01-27T00:28 | 16503 | 102 | -77.1 | -87.5 | 215 | 5 |
| 2010-01-27T00:28 | 16561 | 101 | -76.6 | -87.3 | 226 | 8 |
| 2010-01-27T00:28 | 16610 | 100 | -76.4 | -87.2 | 232 | 10 |
| 2010-01-27T00:28 | 16660 | 99 | -76.3 | -87.2 | 236 | 10 |
| 2010-01-27T00:28 | 16714 | 98 | -76.8 | -87.8 | 237 | 10 |
| 2010-01-27T00:28 | 16768 | 98 | -77.3 | -88.3 | 238 | 10 |
| 2010-01-27T00:29 | 16822 | 97 | -77.7 | -88.8 | 243 | 10 |
| 2010-01-27T00:29 | 16874 | 96 | -77.8 | -89.0 | 250 | 9 |
| 2010-01-27T00:29 | 16925 | 95 | -77.4 | -88.9 | 258 | 10 |
| 2010-01-27T00:29 | 16975 | 94 | -77.6 | -89.1 | 263 | 10 |
| 2010-01-27T00:29 | 17026 | 93 | -77.7 | -89.3 | 265 | 11 |
| 2010-01-27T00:29 | 17075 | 92 | -78.0 | -89.7 | 264 | 12 |
| 2010-01-27T00:30 | 17123 | 92 | -77.9 | -89.7 | 262 | 13 |
| 2010-01-27T00:30 | 17171 | 91 | -78.1 | -89.9 | 261 | 13 |
| 2010-01-27T00:30 | 17216 | 90 | -78.4 | -90.2 | 259 | 13 |
| 2010-01-27T00:30 | 17262 | 89 | -78.9 | -90.6 | 258 | 14 |
| 2010-01-27T00:30 | 17306 | 89 | -79.3 | -91.0 | 257 | 14 |
| 2010-01-27T00:30 | 17349 | 88 | -79.7 | -91.4 | 257 | 14 |
| 2010-01-27T00:31 | 17393 | 87 | -79.7 | -91.5 | 258 | 13 |
| 2010-01-27T00:31 | 17438 | 87 | -80.0 | -91.6 | 258 | 12 |
| 2010-01-27T00:31 | 17485 | 86 | -80.2 | -91.8 | 255 | 12 |
| 2010-01-27T00:31 | 17533 | 85 | -80.7 | -92.3 | 252 | 12 |
| 2010-01-27T00:31 | 17579 | 85 | -81.1 | -92.6 | 250 | 11 |
| 2010-01-27T00:31 | 17624 | 84 | -81.6 | -93.0 | 249 | 11 |
| 2010-01-27T00:32 | 17669 | 83 | -81.9 | -93.3 | 252 | 10 |
| 2010-01-27T00:32 | 17715 | 83 | -81.8 | -93.2 | 261 | 9 |
| 2010-01-27T00:32 | 17760 | 82 | -81.0 | -92.6 | 272 | 9 |
| 2010-01-27T00:32 | 17809 | 81 | -81.1 | -92.6 | 279 | 10 |
| 2010-01-27T00:32 | 17856 | 81 | -81.4 | -92.8 | 281 | 11 |
| 2010-01-27T00:32 | 17901 | 80 | -81.2 | -92.6 | 281 | 12 |
| 2010-01-27T00:33 | 17949 | 79 | -81.2 | -92.6 | 281 | 12 |
| 2010-01-27T00:33 | 17994 | 79 | -81.1 | -92.5 | 282 | 12 |
| 2010-01-27T00:33 | 18040 | 78 | -81.1 | -92.5 | 284 | 12 |
| 2010-01-27T00:33 | 18084 | 77 | -81.5 | -92.8 | 286 | 12 |
| 2010-01-27T00:33 | 18128 | 77 | -81.8 | -93.1 | 286 | 12 |
| 2010-01-27T00:33 | 18173 | 76 | -82.0 | -93.3 | 284 | 12 |
| 2010-01-27T00:34 | 18218 | 75 | -82.3 | -93.6 | 282 | 12 |
| 2010-01-27T00:34 | 18263 | 75 | -82.5 | -93.7 | 281 | 12 |
| 2010-01-27T00:34 | 18308 | 74 | -82.3 | -93.5 | 282 | 12 |
| 2010-01-27T00:34 | 18354 | 74 | -82.4 | -93.6 | 283 | 11 |
| 2010-01-27T00:34 | 18401 | 73 | -82.5 | -93.7 | 284 | 11 |
| 2010-01-27T00:34 | 18446 | 72 | -82.4 | -93.5 | 283 | 10 |
| 2010-01-27T00:35 | 18495 | 72 | -82.4 | -93.6 | 280 | 10 |
| 2010-01-27T00:35 | 18543 | 71 | -82.6 | -93.7 | 279 | 10 |
| 2010-01-27T00:35 | 18591 | 71 | -81.9 | -93.1 | 281 | 10 |
| 2010-01-27T00:35 | 18640 | 70 | -81.8 | -92.9 | 283 | 9 |
| 2010-01-27T00:35 | 18690 | 69 | -80.6 | -92.0 | 281 | 9 |
| 2010-01-27T00:35 | 18737 | 69 | -80.2 | -91.7 | 275 | 9 |
| 2010-01-27T00:36 | 18786 | 68 | -80.2 | -91.7 | 267 | 9 |
| 2010-01-27T00:36 | 18834 | 68 | -79.8 | -91.4 | 259 | 9 |
| 2010-01-27T00:36 | 18880 | 67 | -79.8 | -91.4 | 255 | 8 |
| 2010-01-27T00:36 | 18926 | 67 | -79.7 | -91.4 | 254 | 8 |
| 2010-01-27T00:36 | 18973 | 66 | -78.7 | -90.6 | 253 | 9 |
| 2010-01-27T00:36 | 19017 | 65 | -77.0 | -89.3 | 252 | 11 |
| 2010-01-27T00:37 | 19063 | 65 | -75.1 | -87.8 | 249 | 12 |
| 2010-01-27T00:37 | 19108 | 64 | -74.1 | -87.0 | 247 | 12 |
| 2010-01-27T00:37 | 19154 | 64 | -74.2 | -87.2 | 245 | 12 |
| 2010-01-27T00:37 | 19200 | 63 | -74.3 | -87.6 | 244 | 12 |
| 2010-01-27T00:37 | 19245 | 63 | -74.6 | -88.1 | 243 | 12 |
| 2010-01-27T00:37 | 19292 | 62 | -74.9 | -88.5 | 243 | 12 |
| 2010-01-27T00:38 | 19339 | 62 | -74.8 | -88.8 | 242 | 12 |
| 2010-01-27T00:38 | 19387 | 61 | -75.0 | -89.2 | 242 | 12 |
| 2010-01-27T00:38 | 19435 | 61 | -75.1 | -89.4 | 245 | 11 |
| 2010-01-27T00:38 | 19481 | 60 | -75.2 | -89.7 | 250 | 9 |
| 2010-01-27T00:38 | 19528 | 60 | -75.1 | -89.8 | 255 | 8 |
| 2010-01-27T00:38 | 19577 | 59 | -75.1 | -90.0 | 260 | 7 |
| 2010-01-27T00:39 | 19627 | 59 | -75.5 | -90.5 | 266 | 6 |
| 2010-01-27T00:39 | 19675 | 58 | -75.0 | -90.2 | 276 | 7 |
| 2010-01-27T00:39 | 19723 | 58 | -74.8 | -90.3 | 282 | 8 |
| 2010-01-27T00:39 | 19772 | 57 | -75.1 | -90.6 | 285 | 9 |
| 2010-01-27T00:39 | 19821 | 57 | -75.5 | -91.1 | 287 | 10 |
| 2010-01-27T00:39 | 19872 | 56 | -75.7 | -91.4 | 290 | 11 |
| 2010-01-27T00:40 | 19921 | 56 | -75.7 | -91.4 | 292 | 12 |
| 2010-01-27T00:40 | 19971 | 56 | -76.1 | -91.9 | 294 | 12 |
| 2010-01-27T00:40 | 20023 | 55 | -76.4 | -92.1 | 297 | 12 |
| 2010-01-27T00:40 | 20074 | 55 | -76.7 | -92.6 | 301 | 10 |
| 2010-01-27T00:40 | 20124 | 54 | -76.4 | -92.4 | 305 | 9 |
| 2010-01-27T00:40 | 20173 | 54 | -74.7 | -91.1 | 309 | 8 |
| 2010-01-27T00:41 | 20220 | 53 | -73.9 | -90.4 | 310 | 9 |
| 2010-01-27T00:41 | 20268 | 53 | -73.7 | -90.3 | 310 | 10 |
| 2010-01-27T00:41 | 20316 | 52 | -73.4 | -90.2 | 311 | 11 |
| 2010-01-27T00:41 | 20364 | 52 | -73.3 | -90.3 | 313 | 12 |
| 2010-01-27T00:41 | 20410 | 51 | -73.5 | -90.5 | 314 | 12 |
| 2010-01-27T00:41 | 20457 | 51 | -74.0 | -91.1 | 314 | 13 |
| 2010-01-27T00:42 | 20504 | 51 | -74.3 | -91.5 | 314 | 12 |
| 2010-01-27T00:42 | 20551 | 50 | -74.2 | -91.7 | 314 | 11 |
| 2010-01-27T00:42 | 20599 | 50 | -74.4 | -92.0 | 313 | 8 |
| 2010-01-27T00:42 | 20646 | 49 | -74.4 | -92.1 | 310 | 6 |
| 2010-01-27T00:42 | 20694 | 49 | -74.2 | -92.0 | 299 | 4 |
| 2010-01-27T00:42 | 20742 | 49 | -73.7 | -91.7 | 274 | 2 |
| 2010-01-27T00:43 | 20790 | 48 | -73.5 | -91.6 | 242 | 2 |
| 2010-01-27T00:43 | 20837 | 48 | -73.9 | -92.0 | 227 | 3 |
| 2010-01-27T00:43 | 20886 | 47 | -73.9 | -92.2 | 220 | 4 |
| 2010-01-27T00:43 | 20933 | 47 | -74.0 | -92.4 | 211 | 5 |
| 2010-01-27T00:43 | 20981 | 47 | -73.7 | -92.3 | 202 | 6 |
| 2010-01-27T00:43 | 21029 | 46 | -73.8 | -92.5 | 193 | 6 |
| 2010-01-27T00:44 | 21077 | 46 | -74.0 | -92.8 | 180 | 4 |
| 2010-01-27T00:44 | 21125 | 46 | -72.7 | -91.9 | 150 | 3 |
| 2010-01-27T00:44 | 21176 | 45 | -72.4 | -91.8 | 111 | 4 |
| 2010-01-27T00:44 | 21227 | 45 | -71.7 | -91.4 | 89 | 6 |
| 2010-01-27T00:44 | 21277 | 44 | -71.1 | -91.1 | 76 | 7 |
| 2010-01-27T00:44 | 21325 | 44 | -70.2 | -90.7 | 68 | 7 |
| 2010-01-27T00:45 | 21374 | 44 | -70.3 | -91.0 | 62 | 6 |
| 2010-01-27T00:45 | 21420 | 43 | -70.4 | -91.2 | 52 | 6 |
| 2010-01-27T00:45 | 21468 | 43 | -70.8 | -91.8 | 42 | 6 |
| 2010-01-27T00:45 | 21516 | 43 | -71.0 | -92.1 | 38 | 7 |
| 2010-01-27T00:45 | 21560 | 42 | -70.9 | -92.4 | 46 | 8 |
| 2010-01-27T00:45 | 21606 | 42 | -70.5 | -92.3 | 60 | 8 |
| 2010-01-27T00:46 | 21652 | 42 | -70.2 | -92.4 | 74 | 9 |
| 2010-01-27T00:46 | 21699 | 41 | -69.8 | -92.3 | 85 | 10 |
| 2010-01-27T00:46 | 21744 | 41 | -69.7 | -92.4 | 95 | 10 |
| 2010-01-27T00:46 | 21792 | 41 | -69.8 | -92.6 | 104 | 10 |
| 2010-01-27T00:46 | 21839 | 40 | -70.0 | -92.9 | 113 | 10 |
| 2010-01-27T00:46 | 21888 | 40 | -70.2 | -93.3 | 121 | 10 |
| 2010-01-27T00:47 | 21936 | 40 | -70.5 | -93.6 | 125 | 10 |
| 2010-01-27T00:47 | 21987 | 39 | -70.7 | -93.9 | 123 | 11 |
| 2010-01-27T00:47 | 22037 | 39 | -70.3 | -94.0 | 115 | 12 |
| 2010-01-27T00:47 | 22086 | 39 | -69.5 | -93.6 | 107 | 14 |
| 2010-01-27T00:47 | 22137 | 38 | -68.5 | -93.1 | 100 | 15 |
| 2010-01-27T00:47 | 22186 | 38 | -68.1 | -92.9 | 97 | 16 |
| 2010-01-27T00:48 | 22235 | 38 | -67.9 | -92.8 | 96 | 16 |
| 2010-01-27T00:48 | 22283 | 37 | -67.4 | -92.7 | 96 | 17 |
| 2010-01-27T00:48 | 22332 | 37 | -67.1 | -92.7 | 97 | 19 |
| 2010-01-27T00:48 | 22383 | 37 | -67.2 | -92.8 | 101 | 19 |
| 2010-01-27T00:48 | 22433 | 37 | -67.3 | -93.0 | 104 | 20 |
| 2010-01-27T00:48 | 22483 | 36 | -67.2 | -93.2 | 106 | 20 |
| 2010-01-27T00:49 | 22534 | 36 | -67.5 | -93.5 | 107 | 20 |
| 2010-01-27T00:49 | 22584 | 36 | -67.7 | -93.9 | 105 | 21 |
| 2010-01-27T00:49 | 22634 | 35 | -67.7 | -94.0 | 102 | 21 |
| 2010-01-27T00:49 | 22684 | 35 | -67.5 | -94.2 | 98 | 21 |
| 2010-01-27T00:49 | 22733 | 35 | -67.0 | -94.0 | 93 | 21 |
| 2010-01-27T00:49 | 22783 | 35 | -65.1 | -93.3 | 89 | 21 |
| 2010-01-27T00:50 | 22834 | 34 | -65.2 | -93.1 | 89 | 22 |
| 2010-01-27T00:50 | 22884 | 34 | -65.1 | -93.0 | 90 | 22 |
| 2010-01-27T00:50 | 22932 | 34 | -64.8 | -93.0 | 92 | 23 |
| 2010-01-27T00:50 | 22985 | 33 | -64.8 | -93.0 | 92 | 24 |
| 2010-01-27T00:50 | 23035 | 33 | -65.0 | -93.2 | 91 | 24 |
| 2010-01-27T00:50 | 23085 | 33 | -65.3 | -93.4 | 92 | 25 |
| 2010-01-27T00:51 | 23136 | 33 | -65.5 | -93.6 | 93 | 25 |
| 2010-01-27T00:51 | 23187 | 32 | -65.5 | -93.9 | 93 | 26 |
| 2010-01-27T00:51 | 23239 | 32 | -64.9 | -93.7 | 91 | 27 |
| 2010-01-27T00:51 | 23289 | 32 | -64.7 | -93.7 | 88 | 28 |
| 2010-01-27T00:51 | 23341 | 31 | -64.4 | -93.5 | 85 | 28 |
| 2010-01-27T00:51 | 23389 | 31 | -63.4 | -93.1 | 83 | 29 |
| 2010-01-27T00:52 | 23441 | 31 | -63.5 | -93.0 | 83 | 29 |
| 2010-01-27T00:52 | 23493 | 31 | -63.5 | -92.9 | 84 | 30 |
| 2010-01-27T00:52 | 23545 | 30 | -63.3 | -92.8 | 86 | 30 |
| 2010-01-27T00:52 | 23596 | 30 | -63.1 | -92.8 | 87 | 31 |
| 2010-01-27T00:52 | 23647 | 30 | -63.1 | -92.7 | 87 | 31 |
| 2010-01-27T00:52 | 23699 | 30 | -62.8 | -92.6 | 85 | 31 |
| 2010-01-27T00:53 | 23750 | 29 | -62.7 | -92.5 | 83 | 31 |
| 2010-01-27T00:53 | 23801 | 29 | -62.7 | -92.5 | 82 | 31 |
| 2010-01-27T00:53 | 23853 | 29 | -62.8 | -92.6 | 82 | 31 |
| 2010-01-27T00:53 | 23906 | 29 | -62.4 | -92.4 | 84 | 31 |
| 2010-01-27T00:53 | 23956 | 28 | -62.0 | -92.2 | 86 | 30 |
| 2010-01-27T00:53 | 24007 | 28 | -60.9 | -91.5 | 88 | 30 |
| 2010-01-27T00:54 | 24057 | 28 | -60.0 | -90.8 | 89 | 31 |
| 2010-01-27T00:54 | 24110 | 28 | -59.3 | -90.4 | 89 | 31 |
| 2010-01-27T00:54 | 24162 | 28 | -59.5 | -90.4 | 88 | 32 |
| 2010-01-27T00:54 | 24215 | 27 | -59.6 | -90.3 | 88 | 32 |
| 2010-01-27T00:54 | 24267 | 27 | -59.6 | -90.3 | 87 | 33 |
| 2010-01-27T00:54 | 24319 | 27 | -59.6 | -90.2 | 86 | 33 |
| 2010-01-27T00:55 | 24373 | 27 | -59.6 | -90.2 | 85 | 33 |
| 2010-01-27T00:55 | 24427 | 26 | -59.1 | -90.0 | 84 | 32 |
| 2010-01-27T00:55 | 24479 | 26 | -59.2 | -90.0 | 84 | 32 |
| 2010-01-27T00:55 | 24530 | 26 | -59.2 | -89.8 | 84 | 31 |
| 2010-01-27T00:55 | 24584 | 26 | -59.2 | -89.9 | 84 | 31 |
| 2010-01-27T00:55 | 24637 | 26 | -59.1 | -89.7 | 84 | 32 |
| 2010-01-27T00:56 | 24690 | 25 | -58.8 | -89.6 | 85 | 32 |
| 2010-01-27T00:56 | 24741 | 25 | -58.6 | -89.5 | 85 | 32 |
| 2010-01-27T00:56 | 24794 | 25 | -58.7 | -89.4 | 85 | 32 |
| 2010-01-27T00:56 | 24848 | 25 | -58.7 | -89.3 | 85 | 31 |
| 2010-01-27T00:56 | 24900 | 24 | -58.5 | -89.3 | 86 | 31 |
| 2010-01-27T00:56 | 24952 | 24 | -58.4 | -89.1 | 87 | 31 |
| 2010-01-27T00:57 | 25006 | 24 | -58.2 | -89.0 | 87 | 31 |
| 2010-01-27T00:57 | 25059 | 24 | -58.0 | -88.9 | 87 | 31 |
| 2010-01-27T00:57 | 25112 | 24 | -58.2 | -88.9 | 86 | 31 |
| 2010-01-27T00:57 | 25166 | 23 | -58.4 | -89.0 | 86 | 32 |
| 2010-01-27T00:57 | 25220 | 23 | -58.4 | -88.9 | 86 | 32 |
| 2010-01-27T00:57 | 25274 | 23 | -58.3 | -88.8 | 86 | 32 |
| 2010-01-27T00:58 | 25327 | 23 | -57.7 | -88.7 | 86 | 32 |
| 2010-01-27T00:58 | 25384 | 23 | -57.0 | -88.3 | 85 | 33 |
| 2010-01-27T00:58 | 25439 | 22 | -56.7 | -88.1 | 82 | 33 |
| 2010-01-27T00:58 | 25494 | 22 | -56.2 | -87.8 | 80 | 33 |
| 2010-01-27T00:58 | 25551 | 22 | -56.0 | -87.6 | 80 | 33 |
| 2010-01-27T00:58 | 25608 | 22 | -56.1 | -87.4 | 82 | 33 |
| 2010-01-27T00:59 | 25666 | 22 | -56.0 | -87.3 | 83 | 33 |
| 2010-01-27T00:59 | 25721 | 22 | -56.0 | -87.2 | 83 | 34 |
| 2010-01-27T00:59 | 25775 | 21 | -55.6 | -87.0 | 83 | 34 |
| 2010-01-27T00:59 | 25831 | 21 | -55.3 | -86.8 | 82 | 34 |
| 2010-01-27T00:59 | 25884 | 21 | -55.2 | -86.7 | 82 | 33 |
| 2010-01-27T00:59 | 25937 | 21 | -54.9 | -86.6 | 83 | 33 |
| 2010-01-27T01:00 | 25991 | 21 | -54.7 | -86.4 | 85 | 32 |
| 2010-01-27T01:00 | 26041 | 20 | -54.6 | -86.2 | 86 | 32 |
| 2010-01-27T01:00 | 26094 | 20 | -54.9 | -86.2 | 86 | 32 |
| 2010-01-27T01:00 | 26141 | 20 | -54.7 | -86.1 | 85 | 32 |
| 2010-01-27T01:00 | 26189 | 20 | -54.4 | -85.9 | 85 | 32 |
| 2010-01-27T01:00 | 26240 | 20 | -54.3 | -85.9 | 86 | 32 |
| 2010-01-27T01:01 | 26286 | 20 | -54.4 | -85.8 | 87 | 32 |
| 2010-01-27T01:01 | 26336 | 20 | -54.4 | -85.9 | 88 | 32 |
| 2010-01-27T01:01 | 26381 | 19 | -54.4 | -85.8 | 89 | 32 |
| 2010-01-27T01:01 | 26432 | 19 | -54.6 | -85.8 | 89 | 31 |
| 2010-01-27T01:01 | 26479 | 19 | -54.8 | -85.9 | 88 | 32 |
| 2010-01-27T01:01 | 26529 | 19 | -54.8 | -85.9 | 88 | 32 |
| 2010-01-27T01:02 | 26582 | 19 | -55.0 | -86.0 | 88 | 32 |
| 2010-01-27T01:02 | 26631 | 19 | -54.9 | -86.0 | 88 | 33 |
| 2010-01-27T01:02 | 26682 | 19 | -54.7 | -85.9 | 87 | 33 |
| 2010-01-27T01:02 | 26737 | 18 | -54.3 | -85.8 | 87 | 34 |
| 2010-01-27T01:02 | 26791 | 18 | -53.9 | -85.6 | 87 | 35 |
| 2010-01-27T01:02 | 26849 | 18 | -53.5 | -85.3 | 87 | 35 |
| 2010-01-27T01:03 | 26903 | 18 | -53.6 | -85.3 | 86 | 36 |
| 2010-01-27T01:03 | 26958 | 18 | -53.6 | -85.3 | 85 | 36 |
| 2010-01-27T01:03 | 27013 | 18 | -53.6 | -85.1 | 83 | 35 |
| 2010-01-27T01:03 | 27069 | 17 | -53.3 | -85.0 | 82 | 35 |
| 2010-01-27T01:03 | 27127 | 17 | -52.6 | -84.7 | 80 | 35 |
| 2010-01-27T01:03 | 27180 | 17 | -51.8 | -84.3 | 78 | 36 |
| 2010-01-27T01:04 | 27234 | 17 | -51.3 | -84.1 | 77 | 35 |
| 2010-01-27T01:04 | 27284 | 17 | -50.9 | -83.7 | 77 | 36 |
| 2010-01-27T01:04 | 27341 | 17 | -50.6 | -83.5 | 76 | 36 |
| 2010-01-27T01:04 | 27394 | 17 | -50.3 | -83.2 | 76 | 37 |
| 2010-01-27T01:04 | 27446 | 16 | -50.2 | -82.9 | 75 | 37 |
| 2010-01-27T01:04 | 27497 | 16 | -50.0 | -82.8 | 75 | 37 |
| 2010-01-27T01:05 | 27548 | 16 | -50.2 | -82.8 | 75 | 37 |
| 2010-01-27T01:05 | 27596 | 16 | -50.2 | -82.8 | 76 | 38 |
| 2010-01-27T01:05 | 27655 | 16 | -50.0 | -82.6 | 77 | 38 |
| 2010-01-27T01:05 | 27706 | 16 | -49.6 | -82.4 | 78 | 38 |
| 2010-01-27T01:05 | 27758 | 16 | -49.1 | -82.2 | 77 | 38 |
| 2010-01-27T01:05 | 27813 | 16 | -48.9 | -82.0 | 76 | 37 |
| 2010-01-27T01:06 | 27874 | 15 | -48.8 | -81.9 | 76 | 37 |
| 2010-01-27T01:06 | 27928 | 15 | -48.7 | -81.8 | 76 | 36 |
| 2010-01-27T01:06 | 27989 | 15 | -48.6 | -81.7 | 76 | 36 |
| 2010-01-27T01:06 | 28046 | 15 | -48.6 | -81.6 | 77 | 35 |
| 2010-01-27T01:06 | 28103 | 15 | -48.7 | -81.6 | 77 | 35 |
| 2010-01-27T01:06 | 28165 | 15 | -48.5 | -81.5 | 77 | 34 |
| 2010-01-27T01:07 | 28223 | 15 | -48.5 | -81.5 | 76 | 34 |
| 2010-01-27T01:07 | 28284 | 14 | -48.5 | -81.5 | 76 | 33 |
| 2010-01-27T01:07 | 28343 | 14 | -48.4 | -81.4 | 76 | 33 |
| 2010-01-27T01:07 | 28396 | 14 | -48.3 | -81.3 | 77 | 33 |
| 2010-01-27T01:07 | 28458 | 14 | -48.2 | -81.3 | 77 | 32 |
| 2010-01-27T01:07 | 28517 | 14 | -48.2 | -81.3 | 77 | 32 |
| 2010-01-27T01:08 | 28565 | 14 | -48.2 | -81.3 | 77 | 31 |
| 2010-01-27T01:08 | 28621 | 14 | -48.3 | -81.3 | 77 | 30 |
| 2010-01-27T01:08 | 28677 | 14 | -48.4 | -81.3 | 78 | 30 |
| 2010-01-27T01:08 | 28730 | 14 | -48.3 | -81.2 | 78 | 30 |
| 2010-01-27T01:08 | 28781 | 13 | -48.4 | -81.3 | 79 | 30 |
| 2010-01-27T01:08 | 28832 | 13 | -48.2 | -81.2 | 79 | 31 |
| 2010-01-27T01:09 | 28884 | 13 | -48.3 | -81.3 | 80 | 32 |
| 2010-01-27T01:09 | 28932 | 13 | -48.5 | -81.3 | 80 | 33 |
| 2010-01-27T01:09 | 28984 | 13 | -48.6 | -81.3 | 81 | 34 |
| 2010-01-27T01:09 | 29037 | 13 | -48.6 | -81.4 | 83 | 35 |
| 2010-01-27T01:09 | 29084 | 13 | -48.5 | -81.5 | 85 | 35 |
| 2010-01-27T01:09 | 29134 | 13 | -48.2 | -81.4 | 87 | 34 |
| 2010-01-27T01:10 | 29186 | 13 | -47.4 | -81.1 | 89 | 32 |
| 2010-01-27T01:10 | 29241 | 13 | -47.0 | -80.8 | 90 | 29 |
| 2010-01-28T23:40 | 4 | 1009 | 29.4 | 21.7 | 310 | 3 |
| 2010-01-28T23:40 | 19 | 1007 | 29.0 | 22.3 | 317 | 1 |
| 2010-01-28T23:40 | 27 | 1006 | 28.9 | 22.9 | 319 | 1 |
| 2010-01-28T23:40 | 33 | 1005 | 28.9 | 23.3 | 321 | 2 |
| 2010-01-28T23:40 | 41 | 1004 | 28.8 | 23.6 | 322 | 2 |
| 2010-01-28T23:40 | 51 | 1003 | 28.7 | 23.7 | 324 | 2 |
| 2010-01-28T23:40 | 61 | 1002 | 28.6 | 23.9 | 326 | 2 |
| 2010-01-28T23:40 | 72 | 1001 | 28.5 | 23.9 | 327 | 3 |
| 2010-01-28T23:40 | 84 | 1000 | 28.3 | 23.9 | 328 | 3 |
| 2010-01-28T23:40 | 96 | 998 | 28.2 | 24.0 | 329 | 3 |
| 2010-01-28T23:40 | 109 | 997 | 28.1 | 24.0 | 330 | 3 |
| 2010-01-28T23:40 | 122 | 995 | 28.0 | 24.0 | 330 | 3 |
| 2010-01-28T23:40 | 133 | 994 | 27.9 | 24.0 | 330 | 4 |
| 2010-01-28T23:40 | 145 | 993 | 27.8 | 24.0 | 330 | 4 |
| 2010-01-28T23:40 | 157 | 991 | 27.7 | 24.1 | 329 | 4 |
| 2010-01-28T23:40 | 170 | 990 | 27.7 | 24.1 | 328 | 4 |
| 2010-01-28T23:40 | 183 | 988 | 27.6 | 24.1 | 327 | 4 |
| 2010-01-28T23:40 | 196 | 987 | 27.5 | 24.1 | 325 | 4 |
| 2010-01-28T23:40 | 209 | 986 | 27.2 | 23.9 | 324 | 4 |
| 2010-01-28T23:40 | 222 | 984 | 26.9 | 23.6 | 322 | 4 |
| 2010-01-28T23:40 | 233 | 983 | 26.8 | 23.6 | 320 | 4 |
| 2010-01-28T23:40 | 244 | 982 | 26.8 | 23.7 | 319 | 5 |
| 2010-01-28T23:40 | 254 | 981 | 26.9 | 23.9 | 317 | 5 |
| 2010-01-28T23:40 | 263 | 980 | 26.8 | 23.9 | 316 | 5 |
| 2010-01-28T23:40 | 272 | 979 | 26.5 | 23.6 | 315 | 5 |
| 2010-01-28T23:40 | 281 | 978 | 26.3 | 23.4 | 314 | 5 |
| 2010-01-28T23:40 | 291 | 977 | 26.0 | 23.3 | 313 | 5 |
| 2010-01-28T23:40 | 301 | 976 | 25.8 | 23.2 | 312 | 5 |
| 2010-01-28T23:40 | 310 | 975 | 25.7 | 23.3 | 312 | 5 |
| 2010-01-28T23:40 | 318 | 974 | 25.6 | 23.3 | 312 | 5 |
| 2010-01-28T23:41 | 326 | 973 | 25.6 | 23.4 | 312 | 6 |
| 2010-01-28T23:41 | 336 | 972 | 25.5 | 23.4 | 312 | 6 |
| 2010-01-28T23:41 | 345 | 971 | 25.4 | 23.2 | 312 | 6 |
| 2010-01-28T23:41 | 355 | 970 | 25.4 | 23.1 | 312 | 6 |
| 2010-01-28T23:41 | 365 | 968 | 25.3 | 23.0 | 312 | 6 |
| 2010-01-28T23:41 | 373 | 968 | 25.2 | 22.9 | 312 | 6 |
| 2010-01-28T23:41 | 381 | 967 | 25.1 | 23.0 | 312 | 6 |
| 2010-01-28T23:41 | 388 | 966 | 25.0 | 23.0 | 312 | 6 |
| 2010-01-28T23:41 | 395 | 965 | 25.0 | 22.8 | 312 | 6 |
| 2010-01-28T23:41 | 401 | 964 | 25.0 | 22.5 | 312 | 6 |
| 2010-01-28T23:41 | 409 | 964 | 24.9 | 22.5 | 312 | 6 |
| 2010-01-28T23:41 | 417 | 963 | 24.9 | 22.5 | 312 | 6 |
| 2010-01-28T23:41 | 425 | 962 | 24.8 | 22.5 | 312 | 6 |
| 2010-01-28T23:41 | 433 | 961 | 24.7 | 22.5 | 311 | 6 |
| 2010-01-28T23:41 | 442 | 960 | 24.6 | 22.5 | 311 | 6 |
| 2010-01-28T23:41 | 450 | 959 | 24.6 | 22.4 | 311 | 6 |
| 2010-01-28T23:41 | 458 | 958 | 24.5 | 22.3 | 311 | 6 |
| 2010-01-28T23:41 | 465 | 958 | 24.4 | 22.4 | 311 | 6 |
| 2010-01-28T23:41 | 473 | 957 | 24.4 | 22.4 | 310 | 6 |
| 2010-01-28T23:41 | 481 | 956 | 24.3 | 22.3 | 310 | 6 |
| 2010-01-28T23:41 | 489 | 955 | 24.2 | 22.3 | 310 | 6 |
| 2010-01-28T23:41 | 497 | 954 | 24.2 | 22.2 | 309 | 6 |
| 2010-01-28T23:41 | 506 | 953 | 24.2 | 22.0 | 309 | 6 |
| 2010-01-28T23:41 | 514 | 952 | 24.1 | 21.9 | 308 | 6 |
| 2010-01-28T23:41 | 522 | 951 | 24.0 | 21.9 | 307 | 6 |
| 2010-01-28T23:41 | 531 | 950 | 23.9 | 22.0 | 306 | 7 |
| 2010-01-28T23:41 | 539 | 950 | 23.8 | 22.0 | 305 | 7 |
| 2010-01-28T23:41 | 548 | 949 | 23.8 | 21.7 | 304 | 7 |
| 2010-01-28T23:41 | 557 | 948 | 23.8 | 21.6 | 303 | 7 |
| 2010-01-28T23:41 | 566 | 947 | 23.7 | 21.5 | 302 | 7 |
| 2010-01-28T23:42 | 574 | 946 | 23.7 | 21.5 | 300 | 7 |
| 2010-01-28T23:42 | 582 | 945 | 23.6 | 21.4 | 299 | 7 |
| 2010-01-28T23:42 | 590 | 944 | 23.5 | 21.4 | 298 | 7 |
| 2010-01-28T23:42 | 599 | 943 | 23.5 | 21.3 | 298 | 7 |
| 2010-01-28T23:42 | 609 | 942 | 23.5 | 21.0 | 297 | 7 |
| 2010-01-28T23:42 | 618 | 941 | 23.5 | 20.9 | 297 | 7 |
| 2010-01-28T23:42 | 627 | 940 | 23.4 | 20.7 | 296 | 7 |
| 2010-01-28T23:42 | 635 | 939 | 23.4 | 20.5 | 296 | 8 |
| 2010-01-28T23:42 | 645 | 938 | 23.3 | 20.5 | 296 | 8 |
| 2010-01-28T23:42 | 654 | 937 | 23.2 | 20.5 | 297 | 8 |
| 2010-01-28T23:42 | 664 | 936 | 23.1 | 20.4 | 297 | 8 |
| 2010-01-28T23:42 | 675 | 935 | 23.1 | 20.3 | 297 | 8 |
| 2010-01-28T23:42 | 686 | 934 | 23.0 | 20.3 | 297 | 8 |
| 2010-01-28T23:42 | 697 | 933 | 22.9 | 20.3 | 297 | 9 |
| 2010-01-28T23:42 | 707 | 931 | 22.7 | 20.3 | 297 | 9 |
| 2010-01-28T23:42 | 717 | 930 | 22.6 | 20.3 | 297 | 9 |
| 2010-01-28T23:42 | 727 | 929 | 22.5 | 20.3 | 297 | 9 |
| 2010-01-28T23:42 | 736 | 928 | 22.4 | 20.3 | 296 | 9 |
| 2010-01-28T23:42 | 744 | 928 | 22.3 | 20.3 | 296 | 9 |
| 2010-01-28T23:42 | 751 | 927 | 22.3 | 20.3 | 296 | 9 |
| 2010-01-28T23:42 | 759 | 926 | 22.2 | 20.2 | 295 | 9 |
| 2010-01-28T23:42 | 767 | 925 | 22.3 | 20.0 | 295 | 9 |
| 2010-01-28T23:42 | 774 | 924 | 22.3 | 19.8 | 295 | 9 |
| 2010-01-28T23:42 | 783 | 923 | 22.2 | 19.6 | 294 | 9 |
| 2010-01-28T23:42 | 792 | 923 | 22.2 | 19.5 | 294 | 9 |
| 2010-01-28T23:42 | 800 | 922 | 22.1 | 19.5 | 294 | 9 |
| 2010-01-28T23:42 | 807 | 921 | 22.0 | 19.4 | 293 | 9 |
| 2010-01-28T23:42 | 814 | 920 | 22.0 | 19.4 | 293 | 9 |
| 2010-01-28T23:42 | 822 | 919 | 21.9 | 19.4 | 293 | 9 |
| 2010-01-28T23:42 | 829 | 919 | 21.9 | 19.3 | 293 | 9 |
| 2010-01-28T23:43 | 837 | 918 | 21.8 | 19.3 | 293 | 9 |
| 2010-01-28T23:43 | 844 | 917 | 21.7 | 19.3 | 292 | 9 |
| 2010-01-28T23:43 | 852 | 916 | 21.6 | 19.2 | 292 | 9 |
| 2010-01-28T23:43 | 860 | 915 | 21.6 | 19.1 | 292 | 9 |
| 2010-01-28T23:43 | 868 | 915 | 21.5 | 19.1 | 292 | 9 |
| 2010-01-28T23:43 | 876 | 914 | 21.4 | 19.1 | 291 | 9 |
| 2010-01-28T23:43 | 883 | 913 | 21.4 | 19.0 | 291 | 9 |
| 2010-01-28T23:43 | 893 | 912 | 21.3 | 19.0 | 291 | 9 |
| 2010-01-28T23:43 | 902 | 911 | 21.2 | 18.9 | 291 | 10 |
| 2010-01-28T23:43 | 911 | 910 | 21.2 | 18.8 | 290 | 10 |
| 2010-01-28T23:43 | 918 | 909 | 21.1 | 18.7 | 290 | 10 |
| 2010-01-28T23:43 | 926 | 908 | 21.1 | 18.6 | 290 | 10 |
| 2010-01-28T23:43 | 934 | 908 | 21.0 | 18.5 | 289 | 10 |
| 2010-01-28T23:43 | 942 | 907 | 21.0 | 18.4 | 289 | 10 |
| 2010-01-28T23:43 | 951 | 906 | 21.0 | 18.4 | 288 | 10 |
| 2010-01-28T23:43 | 959 | 905 | 20.9 | 18.3 | 288 | 10 |
| 2010-01-28T23:43 | 968 | 904 | 20.8 | 18.3 | 287 | 11 |
| 2010-01-28T23:43 | 976 | 903 | 20.7 | 18.3 | 287 | 11 |
| 2010-01-28T23:43 | 984 | 902 | 20.7 | 18.3 | 286 | 11 |
| 2010-01-28T23:43 | 993 | 901 | 20.7 | 18.3 | 285 | 11 |
| 2010-01-28T23:43 | 1001 | 901 | 20.6 | 18.3 | 284 | 11 |
| 2010-01-28T23:43 | 1008 | 900 | 20.6 | 18.3 | 284 | 11 |
| 2010-01-28T23:43 | 1015 | 899 | 20.6 | 18.3 | 283 | 11 |
| 2010-01-28T23:43 | 1023 | 898 | 20.5 | 18.3 | 282 | 11 |
| 2010-01-28T23:43 | 1030 | 898 | 20.4 | 18.3 | 282 | 11 |
| 2010-01-28T23:43 | 1037 | 897 | 20.4 | 18.3 | 281 | 11 |
| 2010-01-28T23:43 | 1045 | 896 | 20.3 | 18.4 | 281 | 11 |
| 2010-01-28T23:43 | 1052 | 895 | 20.3 | 18.4 | 280 | 11 |
| 2010-01-28T23:43 | 1059 | 895 | 20.3 | 18.4 | 280 | 11 |
| 2010-01-28T23:43 | 1067 | 894 | 20.3 | 18.4 | 280 | 11 |
| 2010-01-28T23:44 | 1074 | 893 | 20.3 | 18.4 | 279 | 11 |
| 2010-01-28T23:44 | 1082 | 892 | 20.3 | 18.3 | 279 | 11 |
| 2010-01-28T23:44 | 1090 | 891 | 20.2 | 18.2 | 279 | 11 |
| 2010-01-28T23:44 | 1098 | 891 | 20.2 | 18.1 | 279 | 11 |
| 2010-01-28T23:44 | 1105 | 890 | 20.2 | 17.9 | 278 | 11 |
| 2010-01-28T23:44 | 1114 | 889 | 20.1 | 17.8 | 278 | 11 |
| 2010-01-28T23:44 | 1123 | 888 | 20.1 | 17.7 | 277 | 11 |
| 2010-01-28T23:44 | 1131 | 887 | 20.0 | 17.6 | 277 | 11 |
| 2010-01-28T23:44 | 1139 | 886 | 20.0 | 17.6 | 277 | 11 |
| 2010-01-28T23:44 | 1148 | 885 | 19.9 | 17.6 | 276 | 11 |
| 2010-01-28T23:44 | 1157 | 885 | 19.8 | 17.7 | 276 | 11 |
| 2010-01-28T23:44 | 1164 | 884 | 19.8 | 17.7 | 275 | 11 |
| 2010-01-28T23:44 | 1172 | 883 | 19.8 | 17.7 | 275 | 11 |
| 2010-01-28T23:44 | 1180 | 882 | 19.7 | 17.7 | 275 | 11 |
| 2010-01-28T23:44 | 1188 | 881 | 19.6 | 17.7 | 274 | 11 |
| 2010-01-28T23:44 | 1197 | 880 | 19.6 | 17.7 | 274 | 11 |
| 2010-01-28T23:44 | 1204 | 880 | 19.6 | 17.7 | 273 | 11 |
| 2010-01-28T23:44 | 1212 | 879 | 19.5 | 17.7 | 273 | 11 |
| 2010-01-28T23:44 | 1219 | 878 | 19.5 | 17.6 | 273 | 11 |
| 2010-01-28T23:44 | 1227 | 877 | 19.5 | 17.6 | 272 | 11 |
| 2010-01-28T23:44 | 1234 | 877 | 19.5 | 17.5 | 272 | 11 |
| 2010-01-28T23:44 | 1242 | 876 | 19.6 | 17.4 | 272 | 11 |
| 2010-01-28T23:44 | 1250 | 875 | 19.6 | 17.3 | 271 | 11 |
| 2010-01-28T23:44 | 1259 | 874 | 19.6 | 17.2 | 271 | 11 |
| 2010-01-28T23:44 | 1267 | 873 | 19.6 | 17.1 | 271 | 11 |
| 2010-01-28T23:44 | 1275 | 873 | 19.6 | 17.0 | 271 | 11 |
| 2010-01-28T23:44 | 1282 | 872 | 19.6 | 16.9 | 270 | 12 |
| 2010-01-28T23:44 | 1290 | 871 | 19.6 | 16.7 | 270 | 12 |
| 2010-01-28T23:44 | 1299 | 870 | 19.6 | 16.5 | 270 | 12 |
| 2010-01-28T23:44 | 1307 | 869 | 19.8 | 16.2 | 270 | 12 |
| 2010-01-28T23:45 | 1316 | 868 | 20.0 | 15.9 | 270 | 12 |
| 2010-01-28T23:45 | 1324 | 868 | 20.3 | 15.6 | 270 | 12 |
| 2010-01-28T23:45 | 1333 | 867 | 20.5 | 15.3 | 270 | 12 |
| 2010-01-28T23:45 | 1340 | 866 | 20.5 | 15.0 | 270 | 12 |
| 2010-01-28T23:45 | 1348 | 865 | 20.5 | 14.9 | 270 | 12 |
| 2010-01-28T23:45 | 1356 | 864 | 20.4 | 14.9 | 270 | 12 |
| 2010-01-28T23:45 | 1364 | 864 | 20.4 | 14.7 | 270 | 12 |
| 2010-01-28T23:45 | 1373 | 863 | 20.3 | 14.7 | 270 | 12 |
| 2010-01-28T23:45 | 1381 | 862 | 20.3 | 14.7 | 270 | 12 |
| 2010-01-28T23:45 | 1388 | 861 | 20.2 | 14.7 | 270 | 12 |
| 2010-01-28T23:45 | 1395 | 860 | 20.1 | 14.7 | 270 | 12 |
| 2010-01-28T23:45 | 1404 | 860 | 20.1 | 14.6 | 271 | 12 |
| 2010-01-28T23:45 | 1412 | 859 | 20.0 | 14.5 | 271 | 12 |
| 2010-01-28T23:45 | 1420 | 858 | 20.0 | 14.3 | 271 | 12 |
| 2010-01-28T23:45 | 1428 | 857 | 19.9 | 14.3 | 271 | 12 |
| 2010-01-28T23:45 | 1437 | 856 | 19.9 | 14.3 | 271 | 12 |
| 2010-01-28T23:45 | 1445 | 856 | 19.8 | 14.3 | 272 | 12 |
| 2010-01-28T23:45 | 1453 | 855 | 19.7 | 14.3 | 272 | 12 |
| 2010-01-28T23:45 | 1462 | 854 | 19.5 | 14.3 | 272 | 12 |
| 2010-01-28T23:45 | 1469 | 853 | 19.5 | 14.2 | 273 | 12 |
| 2010-01-28T23:45 | 1478 | 852 | 19.5 | 14.2 | 273 | 12 |
| 2010-01-28T23:45 | 1485 | 852 | 19.4 | 14.2 | 273 | 12 |
| 2010-01-28T23:45 | 1492 | 851 | 19.4 | 14.1 | 274 | 12 |
| 2010-01-28T23:45 | 1501 | 850 | 19.3 | 14.0 | 274 | 12 |
| 2010-01-28T23:45 | 1510 | 849 | 19.2 | 13.9 | 274 | 13 |
| 2010-01-28T23:45 | 1517 | 848 | 19.2 | 13.9 | 274 | 13 |
| 2010-01-28T23:45 | 1524 | 848 | 19.1 | 13.8 | 274 | 13 |
| 2010-01-28T23:45 | 1532 | 847 | 19.1 | 13.7 | 274 | 13 |
| 2010-01-28T23:45 | 1539 | 846 | 19.0 | 13.6 | 274 | 13 |
| 2010-01-28T23:45 | 1547 | 845 | 19.0 | 13.6 | 274 | 13 |
| 2010-01-28T23:46 | 1555 | 845 | 19.0 | 13.5 | 274 | 13 |
| 2010-01-28T23:46 | 1562 | 844 | 18.9 | 13.5 | 274 | 13 |
| 2010-01-28T23:46 | 1569 | 843 | 18.9 | 13.5 | 274 | 13 |
| 2010-01-28T23:46 | 1576 | 843 | 18.8 | 13.5 | 274 | 13 |
| 2010-01-28T23:46 | 1583 | 842 | 18.8 | 13.4 | 274 | 13 |
| 2010-01-28T23:46 | 1591 | 841 | 18.7 | 13.4 | 274 | 13 |
| 2010-01-28T23:46 | 1600 | 840 | 18.6 | 13.4 | 274 | 13 |
| 2010-01-28T23:46 | 1608 | 839 | 18.5 | 13.6 | 274 | 13 |
| 2010-01-28T23:46 | 1616 | 839 | 18.4 | 13.7 | 274 | 13 |
| 2010-01-28T23:46 | 1623 | 838 | 18.4 | 13.8 | 274 | 13 |
| 2010-01-28T23:46 | 1631 | 837 | 18.3 | 13.8 | 274 | 13 |
| 2010-01-28T23:46 | 1639 | 837 | 18.2 | 13.7 | 274 | 13 |
| 2010-01-28T23:46 | 1647 | 836 | 18.1 | 13.6 | 274 | 13 |
| 2010-01-28T23:46 | 1655 | 835 | 18.1 | 13.6 | 274 | 13 |
| 2010-01-28T23:46 | 1663 | 834 | 18.0 | 13.7 | 274 | 13 |
| 2010-01-28T23:46 | 1670 | 833 | 17.9 | 13.8 | 274 | 13 |
| 2010-01-28T23:46 | 1677 | 833 | 17.8 | 13.9 | 273 | 13 |
| 2010-01-28T23:46 | 1685 | 832 | 17.7 | 13.8 | 273 | 13 |
| 2010-01-28T23:46 | 1693 | 831 | 17.7 | 13.9 | 273 | 13 |
| 2010-01-28T23:46 | 1701 | 830 | 17.6 | 13.9 | 272 | 13 |
| 2010-01-28T23:46 | 1709 | 830 | 17.5 | 14.0 | 272 | 13 |
| 2010-01-28T23:46 | 1717 | 829 | 17.4 | 14.1 | 271 | 13 |
| 2010-01-28T23:46 | 1725 | 828 | 17.4 | 14.1 | 271 | 13 |
| 2010-01-28T23:46 | 1734 | 827 | 17.3 | 14.1 | 270 | 13 |
| 2010-01-28T23:46 | 1742 | 827 | 17.2 | 14.1 | 270 | 14 |
| 2010-01-28T23:46 | 1750 | 826 | 17.1 | 14.1 | 269 | 14 |
| 2010-01-28T23:46 | 1759 | 825 | 17.1 | 14.0 | 269 | 14 |
| 2010-01-28T23:46 | 1767 | 824 | 17.1 | 13.9 | 268 | 14 |
| 2010-01-28T23:46 | 1775 | 823 | 17.1 | 13.6 | 268 | 14 |
| 2010-01-28T23:46 | 1784 | 822 | 17.1 | 13.4 | 267 | 14 |
| 2010-01-28T23:47 | 1792 | 822 | 17.1 | 13.2 | 267 | 14 |
| 2010-01-28T23:47 | 1799 | 821 | 17.1 | 13.1 | 266 | 14 |
| 2010-01-28T23:47 | 1807 | 820 | 17.1 | 12.9 | 266 | 14 |
| 2010-01-28T23:47 | 1817 | 819 | 17.1 | 12.8 | 266 | 14 |
| 2010-01-28T23:47 | 1825 | 818 | 17.1 | 12.6 | 265 | 14 |
| 2010-01-28T23:47 | 1834 | 818 | 17.0 | 12.5 | 265 | 14 |
| 2010-01-28T23:47 | 1842 | 817 | 16.9 | 12.4 | 265 | 14 |
| 2010-01-28T23:47 | 1851 | 816 | 16.9 | 12.5 | 265 | 14 |
| 2010-01-28T23:47 | 1858 | 815 | 16.8 | 12.5 | 265 | 14 |
| 2010-01-28T23:47 | 1866 | 815 | 16.8 | 12.5 | 265 | 14 |
| 2010-01-28T23:47 | 1874 | 814 | 16.7 | 12.5 | 265 | 14 |
| 2010-01-28T23:47 | 1882 | 813 | 16.6 | 12.5 | 265 | 14 |
| 2010-01-28T23:47 | 1890 | 812 | 16.6 | 12.4 | 265 | 14 |
| 2010-01-28T23:47 | 1898 | 812 | 16.6 | 12.1 | 266 | 14 |
| 2010-01-28T23:47 | 1907 | 811 | 16.6 | 11.9 | 266 | 14 |
| 2010-01-28T23:47 | 1916 | 810 | 16.5 | 11.8 | 266 | 14 |
| 2010-01-28T23:47 | 1924 | 809 | 16.4 | 11.7 | 267 | 14 |
| 2010-01-28T23:47 | 1932 | 808 | 16.3 | 11.6 | 267 | 14 |
| 2010-01-28T23:47 | 1941 | 807 | 16.3 | 11.6 | 267 | 14 |
| 2010-01-28T23:47 | 1950 | 807 | 16.2 | 11.8 | 268 | 14 |
| 2010-01-28T23:47 | 1958 | 806 | 16.1 | 12.2 | 268 | 14 |
| 2010-01-28T23:47 | 1968 | 805 | 16.1 | 12.1 | 268 | 14 |
| 2010-01-28T23:47 | 1976 | 804 | 16.0 | 11.8 | 269 | 14 |
| 2010-01-28T23:47 | 1985 | 803 | 16.0 | 11.6 | 269 | 14 |
| 2010-01-28T23:47 | 1993 | 803 | 16.0 | 11.5 | 269 | 14 |
| 2010-01-28T23:47 | 2002 | 802 | 15.9 | 11.4 | 269 | 14 |
| 2010-01-28T23:48 | 2044 | 798 | 15.6 | 11.6 | 267 | 14 |
| 2010-01-28T23:48 | 2085 | 794 | 15.7 | 11.1 | 265 | 15 |
| 2010-01-28T23:48 | 2128 | 790 | 16.1 | 9.6 | 264 | 15 |
| 2010-01-28T23:48 | 2171 | 786 | 15.9 | 8.5 | 264 | 14 |
| 2010-01-28T23:48 | 2216 | 782 | 15.5 | 8.4 | 265 | 14 |
| 2010-01-28T23:48 | 2257 | 778 | 15.3 | 9.0 | 266 | 13 |
| 2010-01-28T23:49 | 2301 | 774 | 15.4 | 5.7 | 267 | 13 |
| 2010-01-28T23:49 | 2343 | 770 | 15.3 | 4.4 | 267 | 12 |
| 2010-01-28T23:49 | 2386 | 766 | 15.1 | 4.4 | 268 | 12 |
| 2010-01-28T23:49 | 2429 | 762 | 14.8 | 4.3 | 269 | 11 |
| 2010-01-28T23:49 | 2473 | 758 | 14.6 | 3.8 | 268 | 10 |
| 2010-01-28T23:49 | 2518 | 754 | 14.4 | 3.6 | 266 | 10 |
| 2010-01-28T23:50 | 2561 | 751 | 14.2 | 3.9 | 265 | 9 |
| 2010-01-28T23:50 | 2604 | 747 | 13.9 | 4.2 | 263 | 9 |
| 2010-01-28T23:50 | 2646 | 743 | 13.6 | 5.3 | 262 | 8 |
| 2010-01-28T23:50 | 2690 | 739 | 13.2 | 5.4 | 262 | 8 |
| 2010-01-28T23:50 | 2734 | 735 | 12.8 | 5.6 | 263 | 8 |
| 2010-01-28T23:50 | 2779 | 731 | 12.4 | 5.8 | 265 | 7 |
| 2010-01-28T23:51 | 2823 | 728 | 12.1 | 5.9 | 268 | 7 |
| 2010-01-28T23:51 | 2865 | 724 | 12.1 | 4.9 | 269 | 6 |
| 2010-01-28T23:51 | 2910 | 720 | 11.9 | 2.7 | 269 | 6 |
| 2010-01-28T23:51 | 2955 | 716 | 11.6 | 1.9 | 270 | 6 |
| 2010-01-28T23:51 | 3000 | 712 | 11.6 | -1.9 | 268 | 6 |
| 2010-01-28T23:51 | 3045 | 709 | 11.6 | -1.6 | 266 | 7 |
| 2010-01-28T23:52 | 3086 | 705 | 11.3 | -1.6 | 265 | 7 |
| 2010-01-28T23:52 | 3129 | 701 | 11.2 | -4.1 | 264 | 8 |
| 2010-01-28T23:52 | 3171 | 698 | 11.1 | -1.0 | 264 | 9 |
| 2010-01-28T23:52 | 3214 | 694 | 10.9 | -3.3 | 264 | 9 |
| 2010-01-28T23:52 | 3258 | 691 | 10.9 | -5.7 | 264 | 10 |
| 2010-01-28T23:52 | 3299 | 687 | 10.8 | -5.1 | 265 | 10 |
| 2010-01-28T23:53 | 3341 | 684 | 10.5 | -4.2 | 266 | 10 |
| 2010-01-28T23:53 | 3384 | 680 | 10.6 | -3.9 | 267 | 9 |
| 2010-01-28T23:53 | 3424 | 677 | 10.5 | -5.1 | 266 | 9 |
| 2010-01-28T23:53 | 3469 | 673 | 10.5 | -3.5 | 264 | 8 |
| 2010-01-28T23:53 | 3512 | 670 | 10.4 | -7.2 | 263 | 8 |
| 2010-01-28T23:53 | 3555 | 666 | 10.4 | -9.8 | 263 | 8 |
| 2010-01-28T23:54 | 3601 | 663 | 10.2 | -9.7 | 264 | 9 |
| 2010-01-28T23:54 | 3648 | 659 | 10.0 | -11.8 | 265 | 9 |
| 2010-01-28T23:54 | 3695 | 655 | 9.8 | -13.0 | 268 | 9 |
| 2010-01-28T23:54 | 3741 | 652 | 9.3 | -11.9 | 269 | 10 |
| 2010-01-28T23:54 | 3785 | 648 | 9.1 | -10.6 | 269 | 10 |
| 2010-01-28T23:54 | 3829 | 645 | 8.6 | -9.2 | 269 | 10 |
| 2010-01-28T23:55 | 3874 | 641 | 8.3 | -8.6 | 269 | 11 |
| 2010-01-28T23:55 | 3920 | 638 | 7.8 | -8.5 | 269 | 11 |
| 2010-01-28T23:55 | 3968 | 634 | 7.5 | -9.7 | 268 | 11 |
| 2010-01-28T23:55 | 4015 | 630 | 7.2 | -10.0 | 268 | 11 |
| 2010-01-28T23:55 | 4062 | 627 | 6.8 | -6.4 | 268 | 10 |
| 2010-01-28T23:55 | 4111 | 623 | 6.3 | -5.9 | 267 | 10 |
| 2010-01-28T23:56 | 4159 | 619 | 5.8 | -5.6 | 267 | 9 |
| 2010-01-28T23:56 | 4206 | 616 | 5.4 | -5.3 | 266 | 8 |
| 2010-01-28T23:56 | 4256 | 612 | 5.0 | -5.3 | 264 | 8 |
| 2010-01-28T23:56 | 4304 | 609 | 4.6 | -5.4 | 262 | 7 |
| 2010-01-28T23:56 | 4350 | 605 | 4.3 | -5.8 | 261 | 6 |
| 2010-01-28T23:56 | 4400 | 601 | 4.0 | -6.4 | 260 | 5 |
| 2010-01-28T23:57 | 4451 | 598 | 3.5 | -6.8 | 260 | 4 |
| 2010-01-28T23:57 | 4501 | 594 | 3.1 | -7.2 | 262 | 4 |
| 2010-01-28T23:57 | 4551 | 590 | 2.8 | -7.7 | 266 | 3 |
| 2010-01-28T23:57 | 4598 | 587 | 2.3 | -7.7 | 268 | 3 |
| 2010-01-28T23:57 | 4644 | 584 | 2.0 | -8.0 | 263 | 2 |
| 2010-01-28T23:57 | 4690 | 580 | 1.6 | -7.5 | 250 | 2 |
| 2010-01-28T23:58 | 4737 | 577 | 1.2 | -5.3 | 240 | 2 |
| 2010-01-28T23:58 | 4784 | 574 | 0.8 | -5.3 | 238 | 2 |
| 2010-01-28T23:58 | 4830 | 570 | 0.3 | -5.2 | 239 | 2 |
| 2010-01-28T23:58 | 4880 | 567 | -0.1 | -5.3 | 240 | 2 |
| 2010-01-28T23:58 | 4926 | 564 | -0.5 | -5.4 | 241 | 1 |
| 2010-01-28T23:58 | 4974 | 560 | -1.0 | -5.6 | 245 | 1 |
| 2010-01-28T23:59 | 5023 | 557 | -1.4 | -5.6 | 247 | 1 |
| 2010-01-28T23:59 | 5068 | 554 | -1.8 | -5.8 | 251 | 1 |
| 2010-01-28T23:59 | 5118 | 550 | -2.1 | -5.8 | 261 | 1 |
| 2010-01-28T23:59 | 5165 | 547 | -2.5 | -6.6 | 293 | 0 |
| 2010-01-28T23:59 | 5216 | 543 | -2.8 | -7.6 | 349 | 0 |
| 2010-01-28T23:59 | 5264 | 540 | -3.2 | -8.3 | 20 | 1 |
| 2010-01-29T00:00 | 5312 | 537 | -3.5 | -8.9 | 38 | 1 |
| 2010-01-29T00:00 | 5360 | 534 | -3.5 | -9.5 | 45 | 3 |
| 2010-01-29T00:00 | 5409 | 530 | -3.7 | -9.6 | 46 | 4 |
| 2010-01-29T00:00 | 5457 | 527 | -4.0 | -10.3 | 45 | 5 |
| 2010-01-29T00:00 | 5504 | 524 | -4.3 | -10.9 | 45 | 6 |
| 2010-01-29T00:00 | 5550 | 521 | -4.5 | -11.4 | 46 | 7 |
| 2010-01-29T00:01 | 5600 | 518 | -4.8 | -11.6 | 48 | 8 |
| 2010-01-29T00:01 | 5646 | 515 | -5.0 | -10.9 | 50 | 8 |
| 2010-01-29T00:01 | 5692 | 512 | -5.1 | -10.1 | 53 | 8 |
| 2010-01-29T00:01 | 5739 | 508 | -5.2 | -11.8 | 56 | 8 |
| 2010-01-29T00:01 | 5788 | 505 | -5.3 | -10.9 | 61 | 8 |
| 2010-01-29T00:01 | 5836 | 502 | -5.5 | -11.6 | 65 | 8 |
| 2010-01-29T00:02 | 5884 | 499 | -5.4 | -15.4 | 68 | 9 |
| 2010-01-29T00:02 | 5932 | 496 | -5.6 | -12.9 | 70 | 8 |
| 2010-01-29T00:02 | 5979 | 493 | -5.6 | -16.8 | 71 | 8 |
| 2010-01-29T00:02 | 6026 | 490 | -5.8 | -16.2 | 73 | 7 |
| 2010-01-29T00:02 | 6077 | 487 | -5.8 | -19.0 | 76 | 7 |
| 2010-01-29T00:02 | 6126 | 484 | -6.0 | -18.6 | 78 | 7 |
| 2010-01-29T00:03 | 6176 | 481 | -6.2 | -19.7 | 78 | 7 |
| 2010-01-29T00:03 | 6225 | 478 | -6.5 | -18.5 | 77 | 7 |
| 2010-01-29T00:03 | 6274 | 475 | -6.8 | -18.1 | 77 | 7 |
| 2010-01-29T00:03 | 6323 | 472 | -7.1 | -16.5 | 74 | 7 |
| 2010-01-29T00:03 | 6373 | 469 | -7.3 | -20.0 | 71 | 7 |
| 2010-01-29T00:03 | 6424 | 466 | -7.4 | -22.4 | 71 | 8 |
| 2010-01-29T00:04 | 6474 | 463 | -7.7 | -19.1 | 73 | 8 |
| 2010-01-29T00:04 | 6523 | 460 | -8.1 | -18.0 | 77 | 9 |
| 2010-01-29T00:04 | 6573 | 457 | -8.4 | -18.2 | 80 | 9 |
| 2010-01-29T00:04 | 6624 | 454 | -8.8 | -17.6 | 81 | 10 |
| 2010-01-29T00:04 | 6676 | 451 | -9.3 | -16.9 | 79 | 10 |
| 2010-01-29T00:04 | 6728 | 448 | -9.7 | -17.0 | 75 | 11 |
| 2010-01-29T00:05 | 6779 | 445 | -10.0 | -18.0 | 71 | 12 |
| 2010-01-29T00:05 | 6832 | 442 | -10.2 | -17.9 | 67 | 12 |
| 2010-01-29T00:05 | 6887 | 439 | -10.6 | -18.6 | 64 | 13 |
| 2010-01-29T00:05 | 6939 | 436 | -10.6 | -20.4 | 62 | 14 |
| 2010-01-29T00:05 | 6992 | 433 | -10.9 | -18.9 | 61 | 14 |
| 2010-01-29T00:05 | 7045 | 430 | -11.1 | -21.7 | 60 | 14 |
| 2010-01-29T00:06 | 7097 | 427 | -11.4 | -22.7 | 61 | 13 |
| 2010-01-29T00:06 | 7149 | 424 | -11.7 | -24.1 | 62 | 13 |
| 2010-01-29T00:06 | 7202 | 421 | -12.1 | -23.2 | 63 | 12 |
| 2010-01-29T00:06 | 7255 | 418 | -12.4 | -23.7 | 63 | 12 |
| 2010-01-29T00:06 | 7309 | 415 | -12.8 | -22.4 | 63 | 12 |
| 2010-01-29T00:06 | 7361 | 413 | -13.3 | -21.4 | 63 | 12 |
| 2010-01-29T00:07 | 7414 | 410 | -13.8 | -21.5 | 63 | 13 |
| 2010-01-29T00:07 | 7466 | 407 | -14.3 | -21.5 | 62 | 13 |
| 2010-01-29T00:07 | 7519 | 404 | -14.8 | -21.7 | 61 | 14 |
| 2010-01-29T00:07 | 7572 | 401 | -15.2 | -22.4 | 60 | 14 |
| 2010-01-29T00:07 | 7624 | 398 | -15.5 | -22.9 | 60 | 14 |
| 2010-01-29T00:07 | 7669 | 396 | -15.8 | -24.2 | 61 | 15 |
| 2010-01-29T00:08 | 7702 | 394 | -16.0 | -23.6 | 63 | 16 |
| 2010-01-29T00:08 | 7737 | 393 | -16.2 | -23.6 | 64 | 16 |
| 2010-01-29T00:08 | 7770 | 391 | -16.3 | -23.7 | 64 | 17 |
| 2010-01-29T00:08 | 7802 | 389 | -16.4 | -24.8 | 64 | 17 |
| 2010-01-29T00:08 | 7836 | 387 | -16.6 | -25.0 | 65 | 17 |
| 2010-01-29T00:08 | 7869 | 386 | -16.8 | -25.4 | 66 | 16 |
| 2010-01-29T00:09 | 7902 | 384 | -17.1 | -25.7 | 67 | 16 |
| 2010-01-29T00:09 | 7937 | 382 | -17.4 | -25.8 | 68 | 16 |
| 2010-01-29T00:09 | 7972 | 380 | -17.6 | -26.1 | 69 | 16 |
| 2010-01-29T00:09 | 8004 | 379 | -17.8 | -26.7 | 70 | 17 |
| 2010-01-29T00:09 | 8042 | 377 | -18.0 | -27.0 | 71 | 17 |
| 2010-01-29T00:09 | 8076 | 375 | -18.3 | -27.5 | 73 | 16 |
| 2010-01-29T00:10 | 8108 | 374 | -18.5 | -27.6 | 73 | 16 |
| 2010-01-29T00:10 | 8141 | 372 | -18.8 | -27.7 | 74 | 16 |
| 2010-01-29T00:10 | 8174 | 370 | -19.1 | -28.2 | 75 | 15 |
| 2010-01-29T00:10 | 8207 | 369 | -19.4 | -28.9 | 76 | 15 |
| 2010-01-29T00:10 | 8242 | 367 | -19.6 | -29.3 | 78 | 14 |
| 2010-01-29T00:10 | 8278 | 365 | -19.8 | -29.8 | 79 | 13 |
| 2010-01-29T00:11 | 8309 | 364 | -20.0 | -30.0 | 80 | 13 |
| 2010-01-29T00:11 | 8341 | 362 | -20.2 | -30.3 | 80 | 12 |
| 2010-01-29T00:11 | 8373 | 360 | -20.5 | -30.7 | 80 | 12 |
| 2010-01-29T00:11 | 8405 | 359 | -20.8 | -31.2 | 80 | 11 |
| 2010-01-29T00:11 | 8439 | 357 | -20.9 | -31.9 | 80 | 11 |
| 2010-01-29T00:11 | 8472 | 356 | -21.1 | -32.3 | 80 | 11 |
| 2010-01-29T00:12 | 8504 | 354 | -21.3 | -33.4 | 80 | 10 |
| 2010-01-29T00:12 | 8536 | 353 | -21.2 | -34.8 | 80 | 10 |
| 2010-01-29T00:12 | 8568 | 351 | -21.4 | -35.5 | 80 | 9 |
| 2010-01-29T00:12 | 8601 | 350 | -21.6 | -36.0 | 80 | 9 |
| 2010-01-29T00:12 | 8634 | 348 | -21.8 | -36.8 | 80 | 9 |
| 2010-01-29T00:12 | 8667 | 346 | -22.0 | -37.2 | 82 | 9 |
| 2010-01-29T00:13 | 8699 | 345 | -22.2 | -37.4 | 84 | 9 |
| 2010-01-29T00:13 | 8734 | 343 | -22.4 | -37.8 | 87 | 8 |
| 2010-01-29T00:13 | 8767 | 342 | -22.5 | -38.8 | 88 | 8 |
| 2010-01-29T00:13 | 8804 | 340 | -22.9 | -39.1 | 87 | 7 |
| 2010-01-29T00:13 | 8840 | 338 | -23.1 | -39.5 | 89 | 7 |
| 2010-01-29T00:13 | 8877 | 337 | -23.4 | -39.5 | 94 | 7 |
| 2010-01-29T00:14 | 8911 | 335 | -23.5 | -39.0 | 100 | 7 |
| 2010-01-29T00:14 | 8945 | 334 | -23.8 | -38.6 | 103 | 8 |
| 2010-01-29T00:14 | 8977 | 332 | -23.9 | -39.9 | 103 | 8 |
| 2010-01-29T00:14 | 9010 | 331 | -24.2 | -39.7 | 104 | 8 |
| 2010-01-29T00:14 | 9043 | 329 | -24.4 | -36.8 | 105 | 8 |
| 2010-01-29T00:14 | 9075 | 328 | -24.8 | -34.8 | 105 | 8 |
| 2010-01-29T00:15 | 9108 | 326 | -25.0 | -34.8 | 105 | 8 |
| 2010-01-29T00:15 | 9140 | 325 | -25.3 | -33.8 | 104 | 8 |
| 2010-01-29T00:15 | 9172 | 323 | -25.6 | -33.4 | 104 | 8 |
| 2010-01-29T00:15 | 9205 | 322 | -26.0 | -33.4 | 104 | 8 |
| 2010-01-29T00:15 | 9239 | 320 | -26.2 | -35.4 | 104 | 8 |
| 2010-01-29T00:15 | 9271 | 319 | -26.4 | -34.1 | 104 | 8 |
| 2010-01-29T00:16 | 9305 | 317 | -26.5 | -37.1 | 104 | 8 |
| 2010-01-29T00:16 | 9338 | 316 | -26.7 | -36.3 | 105 | 8 |
| 2010-01-29T00:16 | 9370 | 314 | -27.0 | -35.7 | 104 | 8 |
| 2010-01-29T00:16 | 9404 | 313 | -27.3 | -34.7 | 103 | 8 |
| 2010-01-29T00:16 | 9436 | 312 | -27.6 | -34.2 | 101 | 7 |
| 2010-01-29T00:16 | 9469 | 310 | -27.8 | -37.7 | 98 | 7 |
| 2010-01-29T00:17 | 9502 | 309 | -28.1 | -36.8 | 96 | 8 |
| 2010-01-29T00:17 | 9535 | 307 | -28.2 | -37.0 | 94 | 8 |
| 2010-01-29T00:17 | 9568 | 306 | -28.4 | -38.7 | 93 | 8 |
| 2010-01-29T00:17 | 9601 | 305 | -28.6 | -40.1 | 92 | 8 |
| 2010-01-29T00:17 | 9634 | 303 | -28.9 | -38.5 | 91 | 8 |
| 2010-01-29T00:17 | 9668 | 302 | -29.2 | -37.5 | 91 | 8 |
| 2010-01-29T00:18 | 9700 | 300 | -29.5 | -37.6 | 91 | 7 |
| 2010-01-29T00:18 | 9733 | 299 | -29.8 | -38.0 | 89 | 7 |
| 2010-01-29T00:18 | 9767 | 298 | -30.1 | -38.5 | 88 | 7 |
| 2010-01-29T00:18 | 9802 | 296 | -30.4 | -39.3 | 88 | 6 |
| 2010-01-29T00:18 | 9837 | 295 | -30.6 | -38.9 | 88 | 6 |
| 2010-01-29T00:18 | 9870 | 293 | -30.9 | -38.5 | 90 | 6 |
| 2010-01-29T00:19 | 9903 | 292 | -31.1 | -38.3 | 92 | 5 |
| 2010-01-29T00:19 | 9937 | 291 | -31.5 | -38.7 | 96 | 5 |
| 2010-01-29T00:19 | 9972 | 289 | -31.7 | -39.4 | 101 | 5 |
| 2010-01-29T00:19 | 10005 | 288 | -31.9 | -40.5 | 104 | 5 |
| 2010-01-29T00:19 | 10038 | 286 | -32.2 | -40.8 | 106 | 5 |
| 2010-01-29T00:19 | 10072 | 285 | -32.4 | -41.0 | 107 | 4 |
| 2010-01-29T00:20 | 10106 | 284 | -32.7 | -41.4 | 109 | 4 |
| 2010-01-29T00:20 | 10140 | 282 | -33.0 | -41.9 | 110 | 4 |
| 2010-01-29T00:20 | 10174 | 281 | -33.2 | -41.7 | 113 | 4 |
| 2010-01-29T00:20 | 10208 | 280 | -33.5 | -42.4 | 118 | 4 |
| 2010-01-29T00:20 | 10242 | 278 | -33.7 | -43.6 | 123 | 4 |
| 2010-01-29T00:20 | 10275 | 277 | -33.7 | -44.8 | 126 | 4 |
| 2010-01-29T00:21 | 10311 | 275 | -34.1 | -45.2 | 129 | 5 |
| 2010-01-29T00:21 | 10347 | 274 | -34.4 | -45.5 | 131 | 5 |
| 2010-01-29T00:21 | 10380 | 273 | -34.8 | -45.5 | 133 | 5 |
| 2010-01-29T00:21 | 10416 | 271 | -35.2 | -45.3 | 135 | 5 |
| 2010-01-29T00:21 | 10448 | 270 | -35.4 | -45.5 | 139 | 5 |
| 2010-01-29T00:21 | 10481 | 269 | -35.7 | -45.6 | 142 | 5 |
| 2010-01-29T00:22 | 10515 | 268 | -36.2 | -46.1 | 144 | 5 |
| 2010-01-29T00:22 | 10548 | 266 | -36.3 | -46.7 | 143 | 6 |
| 2010-01-29T00:22 | 10581 | 265 | -36.7 | -47.1 | 142 | 6 |
| 2010-01-29T00:22 | 10613 | 264 | -36.9 | -47.1 | 138 | 6 |
| 2010-01-29T00:22 | 10647 | 262 | -37.0 | -48.5 | 134 | 7 |
| 2010-01-29T00:22 | 10683 | 261 | -37.0 | -51.0 | 132 | 7 |
| 2010-01-29T00:23 | 10717 | 260 | -37.3 | -51.8 | 131 | 8 |
| 2010-01-29T00:23 | 10752 | 259 | -37.6 | -52.5 | 130 | 8 |
| 2010-01-29T00:23 | 10787 | 257 | -37.8 | -52.9 | 129 | 8 |
| 2010-01-29T00:23 | 10821 | 256 | -38.1 | -53.2 | 129 | 9 |
| 2010-01-29T00:23 | 10855 | 255 | -38.3 | -53.4 | 128 | 9 |
| 2010-01-29T00:23 | 10893 | 253 | -38.8 | -53.5 | 128 | 10 |
| 2010-01-29T00:24 | 10931 | 252 | -39.1 | -53.5 | 127 | 11 |
| 2010-01-29T00:24 | 10964 | 251 | -39.3 | -54.1 | 125 | 12 |
| 2010-01-29T00:24 | 11002 | 249 | -39.6 | -55.0 | 124 | 12 |
| 2010-01-29T00:24 | 11039 | 248 | -39.8 | -55.8 | 123 | 13 |
| 2010-01-29T00:24 | 11079 | 247 | -40.3 | -56.3 | 123 | 13 |
| 2010-01-29T00:24 | 11114 | 245 | -40.6 | -56.6 | 123 | 14 |
| 2010-01-29T00:25 | 11152 | 244 | -40.9 | -56.6 | 122 | 14 |
| 2010-01-29T00:25 | 11189 | 243 | -41.3 | -56.7 | 122 | 14 |
| 2010-01-29T00:25 | 11225 | 241 | -41.7 | -56.4 | 121 | 14 |
| 2010-01-29T00:25 | 11262 | 240 | -41.9 | -56.3 | 121 | 14 |
| 2010-01-29T00:25 | 11299 | 239 | -42.3 | -56.6 | 121 | 14 |
| 2010-01-29T00:25 | 11334 | 237 | -42.6 | -56.8 | 121 | 14 |
| 2010-01-29T00:26 | 11369 | 236 | -43.0 | -56.9 | 120 | 14 |
| 2010-01-29T00:26 | 11404 | 235 | -43.3 | -57.0 | 120 | 14 |
| 2010-01-29T00:26 | 11438 | 234 | -43.6 | -57.0 | 120 | 14 |
| 2010-01-29T00:26 | 11472 | 233 | -44.0 | -57.2 | 119 | 14 |
| 2010-01-29T00:26 | 11506 | 231 | -44.3 | -57.2 | 119 | 14 |
| 2010-01-29T00:26 | 11540 | 230 | -44.5 | -57.1 | 118 | 14 |
| 2010-01-29T00:27 | 11573 | 229 | -44.9 | -57.1 | 118 | 13 |
| 2010-01-29T00:27 | 11605 | 228 | -45.2 | -57.2 | 118 | 13 |
| 2010-01-29T00:27 | 11639 | 227 | -45.5 | -57.4 | 118 | 13 |
| 2010-01-29T00:27 | 11673 | 226 | -45.8 | -58.0 | 118 | 13 |
| 2010-01-29T00:27 | 11707 | 225 | -46.2 | -58.3 | 117 | 13 |
| 2010-01-29T00:27 | 11741 | 223 | -46.5 | -58.0 | 115 | 13 |
| 2010-01-29T00:28 | 11776 | 222 | -46.8 | -57.3 | 114 | 14 |
| 2010-01-29T00:28 | 11810 | 221 | -46.9 | -56.0 | 114 | 14 |
| 2010-01-29T00:28 | 11844 | 220 | -47.2 | -56.0 | 114 | 14 |
| 2010-01-29T00:28 | 11878 | 219 | -47.6 | -56.3 | 114 | 14 |
| 2010-01-29T00:28 | 11910 | 218 | -48.0 | -56.6 | 114 | 15 |
| 2010-01-29T00:28 | 11943 | 217 | -48.1 | -56.6 | 113 | 15 |
| 2010-01-29T00:29 | 11978 | 216 | -48.4 | -57.6 | 111 | 15 |
| 2010-01-29T00:29 | 12010 | 214 | -48.6 | -58.1 | 110 | 15 |
| 2010-01-29T00:29 | 12043 | 213 | -48.8 | -58.0 | 110 | 15 |
| 2010-01-29T00:29 | 12076 | 212 | -49.1 | -58.2 | 110 | 16 |
| 2010-01-29T00:29 | 12109 | 211 | -49.4 | -58.2 | 111 | 16 |
| 2010-01-29T00:29 | 12141 | 210 | -49.7 | -58.7 | 111 | 16 |
| 2010-01-29T00:30 | 12174 | 209 | -50.1 | -59.5 | 112 | 17 |
| 2010-01-29T00:30 | 12208 | 208 | -50.3 | -60.0 | 113 | 17 |
| 2010-01-29T00:30 | 12241 | 207 | -50.4 | -59.8 | 115 | 18 |
| 2010-01-29T00:30 | 12275 | 206 | -50.7 | -60.3 | 116 | 18 |
| 2010-01-29T00:30 | 12309 | 205 | -51.0 | -60.8 | 118 | 18 |
| 2010-01-29T00:30 | 12343 | 204 | -51.2 | -61.9 | 119 | 19 |
| 2010-01-29T00:31 | 12377 | 203 | -51.4 | -62.4 | 119 | 19 |
| 2010-01-29T00:31 | 12409 | 202 | -51.8 | -63.0 | 119 | 19 |
| 2010-01-29T00:31 | 12441 | 201 | -52.0 | -63.6 | 119 | 20 |
| 2010-01-29T00:31 | 12475 | 200 | -52.4 | -63.9 | 119 | 20 |
| 2010-01-29T00:31 | 12507 | 199 | -52.7 | -64.0 | 119 | 20 |
| 2010-01-29T00:31 | 12540 | 198 | -53.0 | -64.1 | 119 | 20 |
| 2010-01-29T00:32 | 12573 | 197 | -53.4 | -64.2 | 118 | 20 |
| 2010-01-29T00:32 | 12606 | 196 | -53.6 | -64.0 | 118 | 20 |
| 2010-01-29T00:32 | 12642 | 195 | -53.8 | -63.6 | 117 | 21 |
| 2010-01-29T00:32 | 12675 | 194 | -54.2 | -63.1 | 117 | 21 |
| 2010-01-29T00:32 | 12710 | 193 | -54.5 | -63.0 | 117 | 21 |
| 2010-01-29T00:32 | 12744 | 192 | -54.8 | -63.2 | 116 | 21 |
| 2010-01-29T00:33 | 12780 | 190 | -54.8 | -64.2 | 115 | 21 |
| 2010-01-29T00:33 | 12815 | 189 | -55.1 | -65.8 | 116 | 21 |
| 2010-01-29T00:33 | 12850 | 188 | -55.2 | -66.9 | 116 | 21 |
| 2010-01-29T00:33 | 12885 | 187 | -55.5 | -68.2 | 117 | 21 |
| 2010-01-29T00:33 | 12922 | 186 | -55.6 | -68.8 | 117 | 21 |
| 2010-01-29T00:33 | 12960 | 185 | -55.9 | -69.2 | 117 | 21 |
| 2010-01-29T00:34 | 12999 | 184 | -56.1 | -70.1 | 117 | 21 |
| 2010-01-29T00:34 | 13037 | 183 | -56.4 | -70.7 | 117 | 20 |
| 2010-01-29T00:34 | 13076 | 182 | -56.9 | -71.3 | 116 | 20 |
| 2010-01-29T00:34 | 13116 | 181 | -57.2 | -71.5 | 115 | 20 |
| 2010-01-29T00:34 | 13157 | 179 | -57.6 | -71.7 | 114 | 19 |
| 2010-01-29T00:34 | 13196 | 178 | -57.7 | -71.8 | 112 | 19 |
| 2010-01-29T00:35 | 13234 | 177 | -57.9 | -72.1 | 110 | 19 |
| 2010-01-29T00:35 | 13271 | 176 | -58.0 | -72.5 | 109 | 19 |
| 2010-01-29T00:35 | 13308 | 175 | -58.4 | -72.9 | 108 | 19 |
| 2010-01-29T00:35 | 13344 | 174 | -58.8 | -73.2 | 107 | 19 |
| 2010-01-29T00:35 | 13381 | 173 | -59.2 | -73.5 | 107 | 19 |
| 2010-01-29T00:35 | 13417 | 172 | -59.5 | -73.7 | 106 | 19 |
| 2010-01-29T00:36 | 13451 | 171 | -59.9 | -74.0 | 105 | 19 |
| 2010-01-29T00:36 | 13486 | 170 | -60.2 | -74.2 | 104 | 19 |
| 2010-01-29T00:36 | 13524 | 169 | -60.6 | -74.6 | 102 | 19 |
| 2010-01-29T00:36 | 13566 | 168 | -60.8 | -74.9 | 101 | 20 |
| 2010-01-29T00:36 | 13606 | 167 | -61.2 | -75.5 | 99 | 20 |
| 2010-01-29T00:36 | 13649 | 166 | -61.6 | -75.8 | 99 | 20 |
| 2010-01-29T00:37 | 13688 | 165 | -62.1 | -76.2 | 99 | 20 |
| 2010-01-29T00:37 | 13727 | 164 | -62.4 | -76.3 | 98 | 20 |
| 2010-01-29T00:37 | 13769 | 163 | -62.8 | -76.5 | 96 | 20 |
| 2010-01-29T00:37 | 13808 | 162 | -63.2 | -76.8 | 95 | 20 |
| 2010-01-29T00:37 | 13849 | 161 | -63.5 | -77.0 | 94 | 20 |
| 2010-01-29T00:37 | 13889 | 160 | -63.8 | -77.4 | 94 | 21 |
| 2010-01-29T00:38 | 13925 | 159 | -64.3 | -77.8 | 94 | 22 |
| 2010-01-29T00:38 | 13958 | 158 | -64.6 | -78.0 | 93 | 22 |
| 2010-01-29T00:38 | 13994 | 157 | -64.8 | -78.2 | 92 | 22 |
| 2010-01-29T00:38 | 14026 | 156 | -65.0 | -78.3 | 91 | 23 |
| 2010-01-29T00:38 | 14061 | 155 | -65.4 | -78.7 | 91 | 23 |
| 2010-01-29T00:38 | 14094 | 154 | -65.6 | -78.8 | 90 | 23 |
| 2010-01-29T00:39 | 14128 | 153 | -65.9 | -79.0 | 89 | 23 |
| 2010-01-29T00:39 | 14163 | 153 | -66.2 | -79.2 | 89 | 23 |
| 2010-01-29T00:39 | 14197 | 152 | -66.5 | -79.5 | 88 | 23 |
| 2010-01-29T00:39 | 14231 | 151 | -66.9 | -79.8 | 88 | 23 |
| 2010-01-29T00:39 | 14265 | 150 | -67.0 | -80.0 | 88 | 23 |
| 2010-01-29T00:39 | 14298 | 149 | -67.4 | -80.4 | 89 | 24 |
| 2010-01-29T00:40 | 14332 | 148 | -67.6 | -80.4 | 88 | 24 |
| 2010-01-29T00:40 | 14366 | 147 | -68.0 | -80.8 | 88 | 24 |
| 2010-01-29T00:40 | 14399 | 147 | -68.3 | -81.0 | 89 | 24 |
| 2010-01-29T00:40 | 14434 | 146 | -68.6 | -81.1 | 90 | 24 |
| 2010-01-29T00:40 | 14467 | 145 | -68.9 | -81.3 | 91 | 23 |
| 2010-01-29T00:40 | 14504 | 144 | -69.2 | -81.4 | 92 | 23 |
| 2010-01-29T00:41 | 14538 | 143 | -69.6 | -81.7 | 95 | 23 |
| 2010-01-29T00:41 | 14573 | 142 | -69.8 | -81.8 | 96 | 23 |
| 2010-01-29T00:41 | 14608 | 142 | -70.0 | -81.9 | 98 | 23 |
| 2010-01-29T00:41 | 14643 | 141 | -70.1 | -82.0 | 98 | 24 |
| 2010-01-29T00:41 | 14677 | 140 | -70.5 | -82.3 | 98 | 24 |
| 2010-01-29T00:41 | 14712 | 139 | -70.6 | -82.4 | 97 | 24 |
| 2010-01-29T00:42 | 14749 | 138 | -70.7 | -82.5 | 96 | 24 |
| 2010-01-29T00:42 | 14786 | 137 | -70.7 | -82.6 | 94 | 24 |
| 2010-01-29T00:42 | 14824 | 137 | -70.8 | -82.8 | 93 | 23 |
| 2010-01-29T00:42 | 14868 | 136 | -70.7 | -83.0 | 93 | 21 |
| 2010-01-29T00:42 | 14913 | 135 | -70.8 | -83.3 | 93 | 19 |
| 2010-01-29T00:42 | 14959 | 134 | -70.5 | -83.3 | 93 | 17 |
| 2010-01-29T00:43 | 15001 | 133 | -70.8 | -83.8 | 93 | 16 |
| 2010-01-29T00:43 | 15047 | 132 | -70.7 | -84.0 | 95 | 15 |
| 2010-01-29T00:43 | 15091 | 131 | -70.9 | -84.4 | 97 | 14 |
| 2010-01-29T00:43 | 15133 | 130 | -71.3 | -85.0 | 98 | 14 |
| 2010-01-29T00:43 | 15178 | 129 | -71.7 | -85.5 | 99 | 12 |
| 2010-01-29T00:43 | 15219 | 128 | -72.0 | -86.0 | 100 | 11 |
| 2010-01-29T00:44 | 15257 | 127 | -72.0 | -86.2 | 101 | 9 |
| 2010-01-29T00:44 | 15294 | 126 | -72.0 | -86.2 | 102 | 8 |
| 2010-01-29T00:44 | 15332 | 125 | -72.4 | -86.7 | 100 | 7 |
| 2010-01-29T00:44 | 15370 | 125 | -72.4 | -86.9 | 97 | 7 |
| 2010-01-29T00:44 | 15409 | 124 | -72.8 | -87.4 | 94 | 6 |
| 2010-01-29T00:44 | 15448 | 123 | -73.2 | -87.8 | 90 | 6 |
| 2010-01-29T00:45 | 15489 | 122 | -73.5 | -88.2 | 85 | 5 |
| 2010-01-29T00:45 | 15530 | 121 | -73.9 | -88.6 | 79 | 5 |
| 2010-01-29T00:45 | 15568 | 120 | -74.2 | -88.8 | 74 | 4 |
| 2010-01-29T00:45 | 15607 | 120 | -74.4 | -89.1 | 71 | 4 |
| 2010-01-29T00:45 | 15646 | 119 | -74.6 | -89.3 | 69 | 4 |
| 2010-01-29T00:45 | 15686 | 118 | -74.9 | -89.6 | 67 | 3 |
| 2010-01-29T00:46 | 15724 | 117 | -75.3 | -89.9 | 66 | 3 |
| 2010-01-29T00:46 | 15764 | 116 | -75.6 | -90.0 | 63 | 3 |
| 2010-01-29T00:46 | 15806 | 116 | -75.9 | -90.4 | 55 | 3 |
| 2010-01-29T00:46 | 15847 | 115 | -76.1 | -90.5 | 46 | 3 |
| 2010-01-29T00:46 | 15889 | 114 | -76.5 | -90.9 | 41 | 3 |
| 2010-01-29T00:46 | 15931 | 113 | -77.0 | -91.3 | 38 | 3 |
| 2010-01-29T00:47 | 15973 | 112 | -77.4 | -91.5 | 35 | 3 |
| 2010-01-29T00:47 | 16010 | 112 | -77.6 | -91.7 | 33 | 3 |
| 2010-01-29T00:47 | 16049 | 111 | -78.2 | -92.1 | 31 | 4 |
| 2010-01-29T00:47 | 16091 | 110 | -78.5 | -92.3 | 28 | 4 |
| 2010-01-29T00:47 | 16131 | 109 | -78.8 | -92.6 | 24 | 4 |
| 2010-01-29T00:47 | 16170 | 108 | -79.3 | -92.8 | 22 | 5 |
| 2010-01-29T00:48 | 16211 | 108 | -79.6 | -93.1 | 21 | 5 |
| 2010-01-29T00:48 | 16252 | 107 | -80.0 | -93.3 | 21 | 6 |
| 2010-01-29T00:48 | 16293 | 106 | -80.3 | -93.4 | 22 | 6 |
| 2010-01-29T00:48 | 16334 | 105 | -80.9 | -93.9 | 25 | 7 |
| 2010-01-29T00:48 | 16376 | 105 | -80.9 | -93.9 | 29 | 7 |
| 2010-01-29T00:48 | 16416 | 104 | -81.4 | -94.2 | 32 | 8 |
| 2010-01-29T00:49 | 16460 | 103 | -81.5 | -94.2 | 35 | 9 |
| 2010-01-29T00:49 | 16499 | 102 | -81.8 | -94.4 | 36 | 9 |
| 2010-01-29T00:49 | 16541 | 101 | -81.6 | -94.1 | 37 | 9 |
| 2010-01-29T00:49 | 16584 | 101 | -81.9 | -94.4 | 36 | 9 |
| 2010-01-29T00:49 | 16628 | 100 | -82.3 | -94.7 | 35 | 8 |
| 2010-01-29T00:49 | 16671 | 99 | -82.5 | -94.8 | 33 | 7 |
| 2010-01-29T00:50 | 16713 | 98 | -83.0 | -95.0 | 31 | 7 |
| 2010-01-29T00:50 | 16754 | 98 | -83.2 | -95.1 | 30 | 6 |
| 2010-01-29T00:50 | 16795 | 97 | -83.4 | -95.1 | 29 | 6 |
| 2010-01-29T00:50 | 16835 | 96 | -83.7 | -95.2 | 30 | 5 |
| 2010-01-29T00:50 | 16874 | 96 | -83.8 | -95.3 | 30 | 5 |
| 2010-01-29T00:50 | 16910 | 95 | -83.9 | -95.2 | 21 | 5 |
| 2010-01-29T00:51 | 16953 | 94 | -83.5 | -94.8 | 356 | 4 |
| 2010-01-29T00:51 | 16999 | 93 | -82.9 | -94.3 | 326 | 5 |
| 2010-01-29T00:51 | 17046 | 93 | -82.5 | -93.8 | 307 | 6 |
| 2010-01-29T00:51 | 17093 | 92 | -82.7 | -93.7 | 296 | 7 |
| 2010-01-29T00:51 | 17135 | 91 | -82.7 | -93.6 | 290 | 9 |
| 2010-01-29T00:51 | 17176 | 91 | -82.7 | -93.5 | 285 | 10 |
| 2010-01-29T00:52 | 17216 | 90 | -83.1 | -93.8 | 281 | 10 |
| 2010-01-29T00:52 | 17259 | 89 | -83.1 | -93.7 | 276 | 10 |
| 2010-01-29T00:52 | 17301 | 89 | -83.3 | -93.8 | 273 | 10 |
| 2010-01-29T00:52 | 17345 | 88 | -83.7 | -94.1 | 269 | 9 |
| 2010-01-29T00:52 | 17387 | 87 | -83.7 | -94.1 | 265 | 9 |
| 2010-01-29T00:52 | 17429 | 87 | -83.9 | -94.3 | 262 | 9 |
| 2010-01-29T00:53 | 17471 | 86 | -83.7 | -94.0 | 260 | 10 |
| 2010-01-29T00:53 | 17512 | 85 | -83.7 | -94.0 | 259 | 11 |
| 2010-01-29T00:53 | 17555 | 85 | -83.5 | -93.8 | 258 | 11 |
| 2010-01-29T00:53 | 17597 | 84 | -83.9 | -94.0 | 256 | 11 |
| 2010-01-29T00:53 | 17639 | 83 | -83.8 | -93.9 | 252 | 10 |
| 2010-01-29T00:53 | 17684 | 83 | -83.4 | -93.6 | 246 | 9 |
| 2010-01-29T00:54 | 17728 | 82 | -83.3 | -93.4 | 242 | 9 |
| 2010-01-29T00:54 | 17772 | 81 | -83.0 | -93.1 | 240 | 10 |
| 2010-01-29T00:54 | 17815 | 81 | -82.6 | -92.8 | 240 | 11 |
| 2010-01-29T00:54 | 17858 | 80 | -82.0 | -92.2 | 238 | 12 |
| 2010-01-29T00:54 | 17902 | 79 | -82.2 | -92.4 | 237 | 12 |
| 2010-01-29T00:54 | 17945 | 79 | -82.4 | -92.6 | 236 | 11 |
| 2010-01-29T00:55 | 17987 | 78 | -82.4 | -92.6 | 234 | 11 |
| 2010-01-29T00:55 | 18029 | 78 | -82.6 | -92.8 | 231 | 10 |
| 2010-01-29T00:55 | 18071 | 77 | -82.4 | -92.6 | 228 | 10 |
| 2010-01-29T00:55 | 18112 | 77 | -82.8 | -93.0 | 227 | 9 |
| 2010-01-29T00:55 | 18152 | 76 | -82.7 | -93.0 | 229 | 8 |
| 2010-01-29T00:55 | 18192 | 75 | -82.4 | -92.7 | 238 | 6 |
| 2010-01-29T00:56 | 18234 | 75 | -82.1 | -92.5 | 257 | 5 |
| 2010-01-29T00:56 | 18275 | 74 | -80.3 | -90.9 | 272 | 5 |
| 2010-01-29T00:56 | 18316 | 74 | -79.2 | -90.0 | 274 | 6 |
| 2010-01-29T00:56 | 18355 | 73 | -79.2 | -89.9 | 272 | 7 |
| 2010-01-29T00:56 | 18396 | 73 | -79.4 | -90.3 | 271 | 7 |
| 2010-01-29T00:56 | 18438 | 72 | -79.7 | -90.6 | 270 | 8 |
| 2010-01-29T00:57 | 18477 | 72 | -79.3 | -90.3 | 268 | 8 |
| 2010-01-29T00:57 | 18517 | 71 | -79.6 | -90.7 | 266 | 9 |
| 2010-01-29T00:57 | 18559 | 71 | -79.9 | -91.2 | 263 | 8 |
| 2010-01-29T00:57 | 18600 | 70 | -79.9 | -91.2 | 258 | 8 |
| 2010-01-29T00:57 | 18643 | 70 | -79.8 | -91.2 | 250 | 7 |
| 2010-01-29T00:57 | 18685 | 69 | -79.8 | -91.3 | 243 | 7 |
| 2010-01-29T00:58 | 18728 | 69 | -79.8 | -91.5 | 240 | 7 |
| 2010-01-29T00:58 | 18770 | 68 | -80.0 | -91.6 | 241 | 7 |
| 2010-01-29T00:58 | 18815 | 68 | -80.4 | -92.1 | 241 | 7 |
| 2010-01-29T00:58 | 18859 | 67 | -80.7 | -92.4 | 239 | 7 |
| 2010-01-29T00:58 | 18902 | 67 | -80.5 | -92.3 | 237 | 8 |
| 2010-01-29T00:58 | 18945 | 66 | -80.3 | -92.2 | 236 | 8 |
| 2010-01-29T00:59 | 18989 | 66 | -80.3 | -92.3 | 240 | 7 |
| 2010-01-29T00:59 | 19032 | 65 | -79.0 | -91.3 | 249 | 6 |
| 2010-01-29T00:59 | 19077 | 65 | -78.9 | -91.2 | 260 | 5 |
| 2010-01-29T00:59 | 19121 | 64 | -79.0 | -91.3 | 270 | 5 |
| 2010-01-29T00:59 | 19163 | 64 | -79.4 | -91.8 | 273 | 5 |
| 2010-01-29T00:59 | 19205 | 63 | -78.6 | -91.2 | 272 | 5 |
| 2010-01-29T01:00 | 19246 | 63 | -78.2 | -91.0 | 275 | 5 |
| 2010-01-29T01:00 | 19288 | 62 | -77.8 | -90.8 | 281 | 5 |
| 2010-01-29T01:00 | 19331 | 62 | -77.3 | -90.4 | 291 | 5 |
| 2010-01-29T01:00 | 19371 | 61 | -77.3 | -90.5 | 299 | 4 |
| 2010-01-29T01:00 | 19413 | 61 | -75.8 | -89.4 | 298 | 5 |
| 2010-01-29T01:00 | 19453 | 60 | -73.8 | -88.0 | 295 | 5 |
| 2010-01-29T01:01 | 19494 | 60 | -72.9 | -87.4 | 294 | 5 |
| 2010-01-29T01:01 | 19536 | 60 | -71.9 | -86.8 | 292 | 6 |
| 2010-01-29T01:01 | 19575 | 59 | -71.8 | -87.0 | 286 | 6 |
| 2010-01-29T01:01 | 19616 | 59 | -71.7 | -87.2 | 281 | 7 |
| 2010-01-29T01:01 | 19656 | 58 | -72.0 | -87.6 | 278 | 7 |
| 2010-01-29T01:01 | 19698 | 58 | -71.8 | -87.8 | 274 | 7 |
| 2010-01-29T01:02 | 19738 | 58 | -72.1 | -88.3 | 271 | 7 |
| 2010-01-29T01:02 | 19778 | 57 | -72.3 | -88.8 | 270 | 7 |
| 2010-01-29T01:02 | 19821 | 57 | -72.7 | -89.4 | 269 | 7 |
| 2010-01-29T01:02 | 19861 | 56 | -72.8 | -89.8 | 267 | 7 |
| 2010-01-29T01:02 | 19904 | 56 | -73.1 | -90.2 | 265 | 8 |
| 2010-01-29T01:02 | 19947 | 56 | -73.3 | -90.5 | 262 | 8 |
| 2010-01-29T01:03 | 19989 | 55 | -73.5 | -90.9 | 262 | 9 |
| 2010-01-29T01:03 | 20032 | 55 | -73.6 | -91.2 | 261 | 10 |
| 2010-01-29T01:03 | 20075 | 54 | -73.7 | -91.3 | 261 | 9 |
| 2010-01-29T01:03 | 20117 | 54 | -73.6 | -91.2 | 260 | 9 |
| 2010-01-29T01:03 | 20162 | 54 | -73.8 | -91.6 | 257 | 9 |
| 2010-01-29T01:03 | 20204 | 53 | -73.7 | -91.6 | 252 | 8 |
| 2010-01-29T01:04 | 20249 | 53 | -73.7 | -91.8 | 244 | 8 |
| 2010-01-29T01:04 | 20292 | 52 | -73.6 | -91.8 | 233 | 7 |
| 2010-01-29T01:04 | 20335 | 52 | -73.3 | -91.6 | 216 | 7 |
| 2010-01-29T01:04 | 20379 | 52 | -73.1 | -91.5 | 195 | 6 |
| 2010-01-29T01:04 | 20426 | 51 | -73.3 | -91.8 | 173 | 6 |
| 2010-01-29T01:04 | 20470 | 51 | -72.6 | -91.3 | 152 | 6 |
| 2010-01-29T01:05 | 20513 | 50 | -72.0 | -91.0 | 130 | 6 |
| 2010-01-29T01:05 | 20555 | 50 | -70.8 | -90.3 | 109 | 7 |
| 2010-01-29T01:05 | 20599 | 50 | -70.1 | -90.0 | 92 | 7 |
| 2010-01-29T01:05 | 20640 | 49 | -69.7 | -89.8 | 77 | 7 |
| 2010-01-29T01:05 | 20683 | 49 | -69.7 | -89.9 | 62 | 7 |
| 2010-01-29T01:05 | 20724 | 49 | -69.4 | -90.0 | 48 | 8 |
| 2010-01-29T01:06 | 20766 | 48 | -69.4 | -90.2 | 37 | 9 |
| 2010-01-29T01:06 | 20808 | 48 | -69.3 | -90.3 | 29 | 10 |
| 2010-01-29T01:06 | 20852 | 48 | -69.3 | -90.6 | 22 | 11 |
| 2010-01-29T01:06 | 20892 | 47 | -69.1 | -90.7 | 17 | 12 |
| 2010-01-29T01:06 | 20935 | 47 | -69.0 | -90.8 | 14 | 12 |
| 2010-01-29T01:06 | 20976 | 47 | -69.0 | -91.0 | 12 | 12 |
| 2010-01-29T01:07 | 21019 | 46 | -69.5 | -91.5 | 10 | 11 |
| 2010-01-29T01:07 | 21061 | 46 | -69.8 | -91.9 | 9 | 11 |
| 2010-01-29T01:07 | 21103 | 46 | -70.0 | -92.1 | 8 | 10 |
| 2010-01-29T01:07 | 21145 | 45 | -70.2 | -92.4 | 9 | 10 |
| 2010-01-29T01:07 | 21185 | 45 | -70.4 | -92.7 | 13 | 9 |
| 2010-01-29T01:07 | 21228 | 45 | -70.0 | -92.6 | 20 | 9 |
| 2010-01-29T01:08 | 21270 | 44 | -69.6 | -92.4 | 27 | 8 |
| 2010-01-29T01:08 | 21313 | 44 | -69.6 | -92.5 | 29 | 7 |
| 2010-01-29T01:08 | 21357 | 44 | -69.9 | -92.8 | 25 | 5 |
| 2010-01-29T01:08 | 21402 | 43 | -69.6 | -92.6 | 19 | 4 |
| 2010-01-29T01:08 | 21445 | 43 | -70.0 | -92.8 | 15 | 3 |
| 2010-01-29T01:08 | 21489 | 43 | -70.2 | -93.0 | 23 | 3 |
| 2010-01-29T01:09 | 21533 | 42 | -70.2 | -93.0 | 46 | 3 |
| 2010-01-29T01:09 | 21577 | 42 | -69.7 | -93.0 | 66 | 4 |
| 2010-01-29T01:09 | 21622 | 42 | -69.5 | -93.0 | 75 | 6 |
| 2010-01-29T01:09 | 21666 | 42 | -69.2 | -92.8 | 76 | 8 |
| 2010-01-29T01:09 | 21711 | 41 | -68.6 | -92.5 | 71 | 9 |
| 2010-01-29T01:09 | 21754 | 41 | -68.2 | -92.4 | 62 | 9 |
| 2010-01-29T01:10 | 21798 | 41 | -68.2 | -92.4 | 52 | 10 |
| 2010-01-29T01:10 | 21843 | 40 | -67.9 | -92.3 | 45 | 11 |
| 2010-01-29T01:10 | 21884 | 40 | -67.8 | -92.3 | 40 | 12 |
| 2010-01-29T01:10 | 21927 | 40 | -67.8 | -92.3 | 40 | 12 |
| 2010-01-29T01:10 | 21967 | 40 | -68.0 | -92.5 | 43 | 13 |
| 2010-01-29T01:10 | 22009 | 39 | -68.2 | -92.7 | 49 | 13 |
| 2010-01-29T01:11 | 22050 | 39 | -68.0 | -92.7 | 56 | 13 |
| 2010-01-29T01:11 | 22093 | 39 | -67.7 | -92.7 | 62 | 13 |
| 2010-01-29T01:11 | 22134 | 38 | -67.2 | -92.4 | 66 | 12 |
| 2010-01-29T01:11 | 22174 | 38 | -67.2 | -92.4 | 68 | 11 |
| 2010-01-29T01:11 | 22218 | 38 | -66.9 | -92.3 | 70 | 11 |
| 2010-01-29T01:11 | 22259 | 38 | -66.7 | -92.2 | 73 | 12 |
| 2010-01-29T01:12 | 22305 | 37 | -66.4 | -92.1 | 74 | 13 |
| 2010-01-29T01:12 | 22347 | 37 | -66.5 | -92.2 | 73 | 14 |
| 2010-01-29T01:12 | 22392 | 37 | -66.3 | -92.2 | 74 | 14 |
| 2010-01-29T01:12 | 22435 | 37 | -66.3 | -92.1 | 77 | 15 |
| 2010-01-29T01:12 | 22477 | 36 | -66.0 | -92.1 | 82 | 15 |
| 2010-01-29T01:12 | 22523 | 36 | -65.1 | -91.7 | 88 | 15 |
| 2010-01-29T01:13 | 22566 | 36 | -64.9 | -91.8 | 93 | 15 |
| 2010-01-29T01:13 | 22609 | 36 | -63.7 | -91.4 | 97 | 15 |
| 2010-01-29T01:13 | 22655 | 35 | -63.5 | -91.0 | 100 | 15 |
| 2010-01-29T01:13 | 22698 | 35 | -63.8 | -91.1 | 103 | 16 |
| 2010-01-29T01:13 | 22743 | 35 | -63.9 | -91.1 | 104 | 16 |
| 2010-01-29T01:13 | 22788 | 35 | -63.8 | -90.9 | 102 | 17 |
| 2010-01-29T01:14 | 22831 | 34 | -63.9 | -91.0 | 100 | 17 |
| 2010-01-29T01:14 | 22871 | 34 | -63.8 | -91.1 | 99 | 17 |
| 2010-01-29T01:14 | 22915 | 34 | -64.0 | -91.2 | 100 | 17 |
| 2010-01-29T01:14 | 22958 | 34 | -64.6 | -91.6 | 101 | 17 |
| 2010-01-29T01:14 | 23002 | 33 | -63.8 | -91.4 | 102 | 18 |
| 2010-01-29T01:14 | 23045 | 33 | -63.0 | -91.1 | 103 | 18 |
| 2010-01-29T01:15 | 23088 | 33 | -62.7 | -90.9 | 104 | 19 |
| 2010-01-29T01:15 | 23130 | 33 | -62.7 | -90.8 | 105 | 20 |
| 2010-01-29T01:15 | 23173 | 32 | -62.6 | -90.8 | 107 | 20 |
| 2010-01-29T01:15 | 23214 | 32 | -62.1 | -90.5 | 108 | 20 |
| 2010-01-29T01:15 | 23259 | 32 | -61.7 | -90.4 | 109 | 21 |
| 2010-01-29T01:15 | 23300 | 32 | -61.5 | -90.2 | 109 | 21 |
| 2010-01-29T01:16 | 23342 | 32 | -61.4 | -90.0 | 109 | 20 |
| 2010-01-29T01:16 | 23386 | 31 | -61.2 | -90.0 | 109 | 20 |
| 2010-01-29T01:16 | 23428 | 31 | -60.7 | -89.9 | 110 | 20 |
| 2010-01-29T01:16 | 23472 | 31 | -60.6 | -89.7 | 111 | 21 |
| 2010-01-29T01:16 | 23517 | 31 | -60.9 | -89.6 | 112 | 22 |
| 2010-01-29T01:16 | 23563 | 30 | -61.5 | -89.8 | 113 | 22 |
| 2010-01-29T01:17 | 23606 | 30 | -61.4 | -89.9 | 112 | 23 |
| 2010-01-29T01:17 | 23654 | 30 | -61.6 | -90.0 | 111 | 23 |
| 2010-01-29T01:17 | 23696 | 30 | -62.0 | -90.1 | 110 | 23 |
| 2010-01-29T01:17 | 23742 | 30 | -62.3 | -90.3 | 108 | 24 |
| 2010-01-29T01:17 | 23785 | 29 | -62.4 | -90.5 | 105 | 24 |
| 2010-01-29T01:17 | 23827 | 29 | -61.4 | -90.2 | 101 | 25 |
| 2010-01-29T01:18 | 23872 | 29 | -61.2 | -89.9 | 98 | 25 |
| 2010-01-29T01:18 | 23916 | 29 | -60.7 | -89.6 | 95 | 26 |
| 2010-01-29T01:18 | 23961 | 29 | -60.5 | -89.5 | 94 | 25 |
| 2010-01-29T01:18 | 24007 | 28 | -60.1 | -89.2 | 93 | 25 |
| 2010-01-29T01:18 | 24050 | 28 | -60.3 | -89.2 | 91 | 25 |
| 2010-01-29T01:18 | 24096 | 28 | -60.0 | -88.9 | 89 | 24 |
| 2010-01-29T01:19 | 24139 | 28 | -59.9 | -89.0 | 88 | 24 |
| 2010-01-29T01:19 | 24185 | 28 | -59.5 | -88.8 | 86 | 24 |
| 2010-01-29T01:19 | 24230 | 27 | -59.9 | -88.8 | 86 | 23 |
| 2010-01-29T01:19 | 24276 | 27 | -59.3 | -88.6 | 87 | 22 |
| 2010-01-29T01:19 | 24320 | 27 | -59.3 | -88.6 | 89 | 21 |
| 2010-01-29T01:19 | 24366 | 27 | -59.5 | -88.5 | 91 | 21 |
| 2010-01-29T01:20 | 24408 | 27 | -59.5 | -88.6 | 93 | 22 |
| 2010-01-29T01:20 | 24454 | 26 | -59.4 | -88.5 | 94 | 22 |
| 2010-01-29T01:20 | 24499 | 26 | -59.2 | -88.4 | 95 | 23 |
| 2010-01-29T01:20 | 24543 | 26 | -59.5 | -88.6 | 95 | 24 |
| 2010-01-29T01:20 | 24589 | 26 | -59.5 | -88.5 | 95 | 24 |
| 2010-01-29T01:20 | 24636 | 26 | -59.9 | -88.6 | 94 | 25 |
| 2010-01-29T01:21 | 24682 | 25 | -59.8 | -88.6 | 93 | 24 |
| 2010-01-29T01:21 | 24730 | 25 | -60.0 | -88.7 | 92 | 24 |
| 2010-01-29T01:21 | 24779 | 25 | -60.3 | -88.9 | 92 | 24 |
| 2010-01-29T01:21 | 24827 | 25 | -60.1 | -88.8 | 91 | 25 |
| 2010-01-29T01:21 | 24879 | 25 | -60.3 | -88.8 | 90 | 26 |
| 2010-01-29T01:21 | 24926 | 24 | -60.0 | -88.8 | 89 | 27 |
| 2010-01-29T01:22 | 24979 | 24 | -59.7 | -88.5 | 88 | 28 |
| 2010-01-29T01:22 | 25027 | 24 | -59.9 | -88.7 | 88 | 28 |
| 2010-01-29T01:22 | 25080 | 24 | -59.9 | -88.7 | 87 | 29 |
| 2010-01-29T01:22 | 25128 | 24 | -59.7 | -88.7 | 87 | 29 |
| 2010-01-29T01:22 | 25176 | 23 | -59.5 | -88.5 | 87 | 30 |
| 2010-01-29T01:22 | 25226 | 23 | -59.7 | -88.6 | 87 | 30 |
| 2010-01-29T01:23 | 25275 | 23 | -59.6 | -88.5 | 87 | 30 |
| 2010-01-29T01:23 | 25322 | 23 | -59.8 | -88.4 | 87 | 30 |
| 2010-01-29T01:23 | 25369 | 23 | -59.8 | -88.4 | 86 | 30 |
| 2010-01-29T01:23 | 25416 | 23 | -60.0 | -88.5 | 85 | 30 |
| 2010-01-29T01:23 | 25461 | 22 | -60.0 | -88.6 | 83 | 30 |
| 2010-01-29T01:23 | 25505 | 22 | -60.0 | -88.5 | 82 | 30 |
| 2010-01-29T01:24 | 25550 | 22 | -60.0 | -88.6 | 80 | 29 |
| 2010-01-29T01:24 | 25594 | 22 | -59.9 | -88.7 | 78 | 28 |
| 2010-01-29T01:24 | 25642 | 22 | -59.6 | -88.6 | 77 | 28 |
| 2010-01-29T01:24 | 25686 | 22 | -59.8 | -88.5 | 77 | 28 |
| 2010-01-29T01:24 | 25733 | 21 | -59.7 | -88.5 | 77 | 29 |
| 2010-01-29T01:24 | 25779 | 21 | -59.8 | -88.4 | 77 | 30 |
| 2010-01-29T01:25 | 25823 | 21 | -59.6 | -88.2 | 77 | 31 |
| 2010-01-29T01:25 | 25868 | 21 | -59.5 | -88.2 | 77 | 30 |
| 2010-01-29T01:25 | 25915 | 21 | -59.3 | -88.2 | 77 | 30 |
| 2010-01-29T01:25 | 25959 | 21 | -59.4 | -88.2 | 79 | 30 |
| 2010-01-29T01:25 | 26006 | 21 | -59.4 | -88.1 | 80 | 30 |
| 2010-01-29T01:25 | 26052 | 20 | -59.1 | -88.0 | 80 | 31 |
| 2010-01-29T01:26 | 26099 | 20 | -59.0 | -88.0 | 80 | 33 |
| 2010-01-29T01:26 | 26148 | 20 | -58.8 | -87.8 | 81 | 34 |
| 2010-01-29T01:26 | 26190 | 20 | -57.5 | -87.4 | 83 | 35 |
| 2010-01-29T01:26 | 26231 | 20 | -57.4 | -87.2 | 83 | 35 |
| 2010-01-29T01:26 | 26278 | 20 | -56.9 | -86.8 | 83 | 35 |
| 2010-01-29T01:26 | 26328 | 20 | -57.2 | -86.7 | 83 | 35 |
| 2010-01-29T01:27 | 26371 | 19 | -57.4 | -86.8 | 82 | 35 |
| 2010-01-29T01:27 | 26416 | 19 | -57.5 | -86.8 | 81 | 35 |
| 2010-01-29T01:27 | 26463 | 19 | -57.8 | -86.8 | 81 | 35 |
| 2010-01-29T01:27 | 26506 | 19 | -58.2 | -87.0 | 80 | 35 |
| 2010-01-29T01:27 | 26554 | 19 | -58.6 | -87.3 | 80 | 35 |
| 2010-01-29T01:27 | 26601 | 19 | -58.4 | -87.2 | 79 | 35 |
| 2010-01-29T01:28 | 26644 | 19 | -58.5 | -87.2 | 79 | 35 |
| 2010-01-29T01:28 | 26689 | 18 | -58.6 | -87.6 | 80 | 35 |
| 2010-01-29T01:28 | 26742 | 18 | -59.1 | -87.6 | 80 | 35 |
| 2010-01-29T01:28 | 26788 | 18 | -59.5 | -87.8 | 81 | 35 |
| 2010-01-29T01:28 | 26832 | 18 | -59.6 | -88.0 | 81 | 36 |
| 2010-01-29T01:28 | 26882 | 18 | -59.8 | -88.2 | 82 | 37 |
| 2010-01-29T01:29 | 26926 | 18 | -60.1 | -88.5 | 83 | 38 |
| 2010-01-29T01:29 | 26977 | 18 | -60.3 | -88.7 | 83 | 38 |
| 2010-01-29T01:29 | 27024 | 17 | -60.0 | -88.6 | 84 | 37 |
| 2010-01-29T01:29 | 27069 | 17 | -59.3 | -88.2 | 84 | 36 |
| 2010-01-29T01:29 | 27113 | 17 | -58.8 | -87.8 | 85 | 36 |
| 2010-01-29T01:29 | 27164 | 17 | -58.5 | -87.5 | 86 | 37 |
| 2010-01-29T01:30 | 27209 | 17 | -58.7 | -87.5 | 86 | 37 |
| 2010-01-29T01:30 | 27255 | 17 | -58.2 | -87.3 | 86 | 36 |
| 2010-01-29T01:30 | 27299 | 17 | -58.2 | -87.3 | 87 | 36 |
| 2010-01-29T01:30 | 27341 | 17 | -57.9 | -87.0 | 88 | 36 |
| 2010-01-29T01:30 | 27390 | 17 | -57.3 | -86.7 | 89 | 36 |
| 2010-01-29T01:30 | 27435 | 16 | -56.9 | -86.4 | 91 | 36 |
| 2010-01-29T01:31 | 27476 | 16 | -57.0 | -86.5 | 92 | 36 |
| 2010-01-29T01:31 | 27517 | 16 | -56.5 | -86.4 | 94 | 37 |
| 2010-01-29T01:31 | 27557 | 16 | -55.7 | -85.7 | 94 | 37 |
| 2010-01-29T01:31 | 27604 | 16 | -56.2 | -85.9 | 93 | 37 |
| 2010-01-29T01:31 | 27648 | 16 | -56.1 | -85.9 | 93 | 37 |
| 2010-01-29T01:31 | 27694 | 16 | -55.6 | -85.6 | 92 | 38 |
| 2010-01-29T01:32 | 27738 | 16 | -55.6 | -85.5 | 92 | 38 |
| 2010-01-29T01:32 | 27783 | 16 | -55.7 | -85.6 | 93 | 39 |
| 2010-01-29T01:32 | 27833 | 15 | -55.8 | -85.5 | 93 | 39 |
| 2010-01-29T01:32 | 27879 | 15 | -55.1 | -85.2 | 94 | 39 |
| 2010-01-29T01:32 | 27926 | 15 | -55.1 | -85.2 | 94 | 38 |
| 2010-01-29T01:32 | 27977 | 15 | -54.2 | -84.8 | 93 | 38 |
| 2010-01-29T01:33 | 28024 | 15 | -53.7 | -84.7 | 92 | 39 |
| 2010-01-29T01:33 | 28069 | 15 | -53.9 | -84.5 | 91 | 39 |
| 2010-01-29T01:33 | 28118 | 15 | -53.7 | -84.3 | 91 | 39 |
| 2010-01-29T01:33 | 28166 | 15 | -53.3 | -84.0 | 90 | 39 |
| 2010-01-29T01:33 | 28214 | 15 | -53.1 | -83.9 | 90 | 39 |
| 2010-01-29T01:33 | 28262 | 14 | -53.1 | -83.9 | 90 | 39 |
| 2010-01-29T01:34 | 28307 | 14 | -53.0 | -83.9 | 90 | 40 |
| 2010-01-29T01:34 | 28359 | 14 | -52.7 | -83.6 | 90 | 40 |
| 2010-01-29T01:34 | 28401 | 14 | -52.0 | -83.3 | 90 | 41 |
| 2010-01-29T01:34 | 28446 | 14 | -51.0 | -82.9 | 91 | 42 |
| 2010-01-29T01:34 | 28493 | 14 | -50.8 | -82.7 | 91 | 43 |
| 2010-01-29T01:34 | 28538 | 14 | -49.9 | -82.2 | 91 | 43 |
| 2010-01-29T01:35 | 28585 | 14 | -49.7 | -81.9 | 92 | 43 |
| 2010-01-29T01:35 | 28632 | 14 | -49.3 | -81.8 | 92 | 43 |
| 2010-01-29T01:35 | 28679 | 14 | -48.9 | -81.5 | 92 | 43 |
| 2010-01-29T01:35 | 28724 | 13 | -48.8 | -81.3 | 92 | 44 |
| 2010-01-29T01:35 | 28769 | 13 | -48.5 | -81.1 | 93 | 44 |
| 2010-01-29T01:35 | 28822 | 13 | -48.2 | -80.9 | 93 | 44 |
| 2010-01-29T01:36 | 28865 | 13 | -48.1 | -80.7 | 92 | 45 |
| 2010-01-29T01:36 | 28911 | 13 | -48.2 | -80.7 | 92 | 45 |
| 2010-01-29T01:36 | 28958 | 13 | -48.2 | -80.7 | 92 | 45 |
| 2010-01-29T01:36 | 29000 | 13 | -47.8 | -80.5 | 91 | 46 |
| 2010-01-29T01:36 | 29047 | 13 | -47.9 | -80.5 | 91 | 46 |
| 2010-01-29T01:36 | 29094 | 13 | -47.8 | -80.4 | 90 | 46 |
| 2010-01-29T01:37 | 29140 | 13 | -47.5 | -80.3 | 89 | 45 |
| 2010-01-29T01:37 | 29185 | 13 | -47.1 | -80.1 | 87 | 44 |
| 2010-01-29T01:37 | 29229 | 12 | -46.5 | -79.9 | 86 | 42 |
| 2010-01-29T01:37 | 29275 | 12 | -46.6 | -79.9 | 85 | 41 |
| 2010-01-29T01:37 | 29322 | 12 | -46.5 | -79.8 | 84 | 39 |
| 2010-01-29T01:37 | 29364 | 12 | -46.5 | -79.7 | 84 | 38 |
| 2010-01-29T01:38 | 29407 | 12 | -46.8 | -79.9 | 84 | 37 |
| 2010-01-29T01:38 | 29454 | 12 | -46.2 | -79.6 | 83 | 35 |
| 2010-01-29T01:38 | 29501 | 12 | -46.0 | -79.4 | 82 | 33 |
| 2010-01-29T01:38 | 29547 | 12 | -46.1 | -79.5 | 81 | 32 |
| 2010-01-29T23:33 | 4 | 1008 | 32.1 | 26.4 | 60 | 2 |
| 2010-01-29T23:33 | 14 | 1007 | 28.8 | 23.0 | 68 | 1 |
| 2010-01-29T23:33 | 24 | 1006 | 28.4 | 23.5 | 76 | 1 |
| 2010-01-29T23:33 | 32 | 1005 | 28.3 | 24.1 | 83 | 1 |
| 2010-01-29T23:33 | 40 | 1004 | 28.1 | 24.5 | 89 | 1 |
| 2010-01-29T23:33 | 49 | 1003 | 28.0 | 24.7 | 94 | 1 |
| 2010-01-29T23:33 | 58 | 1002 | 27.9 | 24.9 | 97 | 1 |
| 2010-01-29T23:33 | 68 | 1001 | 27.8 | 24.9 | 99 | 1 |
| 2010-01-29T23:33 | 78 | 1000 | 27.8 | 24.9 | 98 | 1 |
| 2010-01-29T23:33 | 87 | 999 | 27.6 | 25.0 | 95 | 1 |
| 2010-01-29T23:33 | 97 | 998 | 27.6 | 25.0 | 90 | 1 |
| 2010-01-29T23:33 | 108 | 996 | 27.4 | 25.0 | 81 | 1 |
| 2010-01-29T23:33 | 119 | 995 | 27.3 | 24.9 | 71 | 1 |
| 2010-01-29T23:33 | 130 | 994 | 27.3 | 25.0 | 61 | 1 |
| 2010-01-29T23:33 | 141 | 993 | 27.2 | 25.0 | 54 | 2 |
| 2010-01-29T23:33 | 152 | 992 | 27.1 | 25.0 | 48 | 2 |
| 2010-01-29T23:33 | 162 | 990 | 27.0 | 25.0 | 43 | 2 |
| 2010-01-29T23:33 | 172 | 989 | 26.9 | 25.0 | 39 | 2 |
| 2010-01-29T23:33 | 183 | 988 | 26.7 | 24.8 | 36 | 2 |
| 2010-01-29T23:33 | 194 | 987 | 26.6 | 24.8 | 34 | 2 |
| 2010-01-29T23:33 | 205 | 986 | 26.5 | 24.8 | 32 | 3 |
| 2010-01-29T23:33 | 215 | 985 | 26.4 | 24.7 | 30 | 3 |
| 2010-01-29T23:33 | 226 | 983 | 26.3 | 24.7 | 30 | 3 |
| 2010-01-29T23:33 | 237 | 982 | 26.2 | 24.7 | 29 | 3 |
| 2010-01-29T23:33 | 248 | 981 | 26.0 | 24.7 | 29 | 3 |
| 2010-01-29T23:33 | 258 | 980 | 25.9 | 24.7 | 28 | 3 |
| 2010-01-29T23:33 | 268 | 979 | 25.8 | 24.7 | 29 | 2 |
| 2010-01-29T23:33 | 279 | 977 | 25.8 | 24.6 | 29 | 2 |
| 2010-01-29T23:33 | 289 | 976 | 25.7 | 24.6 | 29 | 2 |
| 2010-01-29T23:33 | 299 | 975 | 25.6 | 24.5 | 29 | 2 |
| 2010-01-29T23:34 | 309 | 974 | 25.5 | 24.5 | 28 | 2 |
| 2010-01-29T23:34 | 320 | 973 | 25.4 | 24.5 | 28 | 2 |
| 2010-01-29T23:34 | 330 | 972 | 25.3 | 24.4 | 27 | 2 |
| 2010-01-29T23:34 | 341 | 971 | 25.2 | 24.4 | 25 | 2 |
| 2010-01-29T23:34 | 351 | 969 | 25.1 | 24.4 | 24 | 2 |
| 2010-01-29T23:34 | 362 | 968 | 25.0 | 24.4 | 21 | 2 |
| 2010-01-29T23:34 | 372 | 967 | 24.9 | 24.4 | 18 | 2 |
| 2010-01-29T23:34 | 383 | 966 | 24.8 | 24.3 | 15 | 2 |
| 2010-01-29T23:34 | 393 | 965 | 24.7 | 24.3 | 11 | 2 |
| 2010-01-29T23:34 | 404 | 964 | 24.6 | 24.2 | 7 | 2 |
| 2010-01-29T23:34 | 415 | 962 | 24.5 | 24.2 | 3 | 2 |
| 2010-01-29T23:34 | 427 | 961 | 24.4 | 24.2 | 359 | 2 |
| 2010-01-29T23:34 | 439 | 960 | 24.3 | 24.1 | 356 | 2 |
| 2010-01-29T23:34 | 450 | 959 | 24.3 | 24.2 | 352 | 2 |
| 2010-01-29T23:34 | 462 | 957 | 24.2 | 24.2 | 349 | 2 |
| 2010-01-29T23:34 | 472 | 956 | 24.1 | 24.1 | 345 | 2 |
| 2010-01-29T23:34 | 484 | 955 | 24.1 | 24.1 | 342 | 2 |
| 2010-01-29T23:34 | 494 | 954 | 24.0 | 24.0 | 339 | 2 |
| 2010-01-29T23:34 | 505 | 953 | 23.9 | 23.9 | 336 | 2 |
| 2010-01-29T23:34 | 518 | 951 | 23.8 | 23.8 | 333 | 2 |
| 2010-01-29T23:34 | 530 | 950 | 23.8 | 23.8 | 330 | 2 |
| 2010-01-29T23:34 | 541 | 949 | 23.6 | 23.6 | 326 | 2 |
| 2010-01-29T23:34 | 553 | 948 | 23.6 | 23.6 | 323 | 2 |
| 2010-01-29T23:34 | 566 | 946 | 23.5 | 23.5 | 320 | 2 |
| 2010-01-29T23:34 | 579 | 945 | 23.4 | 23.4 | 316 | 2 |
| 2010-01-29T23:34 | 591 | 944 | 23.3 | 23.3 | 313 | 2 |
| 2010-01-29T23:34 | 601 | 942 | 23.3 | 23.3 | 310 | 2 |
| 2010-01-29T23:34 | 610 | 941 | 23.4 | 23.4 | 308 | 3 |
| 2010-01-29T23:34 | 620 | 940 | 23.4 | 23.4 | 306 | 3 |
| 2010-01-29T23:34 | 629 | 939 | 23.2 | 22.8 | 304 | 3 |
| 2010-01-29T23:35 | 637 | 939 | 23.2 | 22.5 | 303 | 3 |
| 2010-01-29T23:35 | 646 | 938 | 23.4 | 21.9 | 302 | 3 |
| 2010-01-29T23:35 | 655 | 937 | 23.5 | 21.3 | 302 | 3 |
| 2010-01-29T23:35 | 664 | 936 | 23.5 | 21.1 | 302 | 3 |
| 2010-01-29T23:35 | 672 | 935 | 23.4 | 21.0 | 302 | 3 |
| 2010-01-29T23:35 | 681 | 934 | 23.4 | 20.9 | 302 | 3 |
| 2010-01-29T23:35 | 691 | 933 | 23.3 | 20.9 | 303 | 3 |
| 2010-01-29T23:35 | 701 | 932 | 23.2 | 20.8 | 303 | 3 |
| 2010-01-29T23:35 | 710 | 931 | 23.2 | 20.7 | 304 | 3 |
| 2010-01-29T23:35 | 719 | 930 | 23.1 | 20.7 | 305 | 3 |
| 2010-01-29T23:35 | 727 | 929 | 23.1 | 20.6 | 305 | 3 |
| 2010-01-29T23:35 | 736 | 928 | 23.0 | 20.6 | 306 | 3 |
| 2010-01-29T23:35 | 746 | 927 | 23.0 | 20.5 | 306 | 3 |
| 2010-01-29T23:35 | 755 | 926 | 22.9 | 20.5 | 306 | 3 |
| 2010-01-29T23:35 | 763 | 925 | 22.9 | 20.4 | 307 | 3 |
| 2010-01-29T23:35 | 772 | 924 | 22.8 | 20.3 | 307 | 3 |
| 2010-01-29T23:35 | 782 | 923 | 22.7 | 20.3 | 307 | 3 |
| 2010-01-29T23:35 | 791 | 922 | 22.6 | 20.2 | 307 | 3 |
| 2010-01-29T23:35 | 800 | 921 | 22.6 | 20.2 | 307 | 3 |
| 2010-01-29T23:35 | 810 | 920 | 22.5 | 20.1 | 307 | 4 |
| 2010-01-29T23:35 | 820 | 919 | 22.5 | 20.1 | 308 | 4 |
| 2010-01-29T23:35 | 830 | 918 | 22.4 | 20.1 | 308 | 4 |
| 2010-01-29T23:35 | 839 | 917 | 22.3 | 20.0 | 308 | 4 |
| 2010-01-29T23:35 | 848 | 916 | 22.3 | 20.0 | 308 | 4 |
| 2010-01-29T23:35 | 858 | 915 | 22.2 | 19.9 | 308 | 4 |
| 2010-01-29T23:35 | 867 | 914 | 22.1 | 19.9 | 308 | 4 |
| 2010-01-29T23:35 | 875 | 913 | 22.0 | 19.9 | 308 | 4 |
| 2010-01-29T23:35 | 885 | 912 | 22.0 | 19.9 | 308 | 4 |
| 2010-01-29T23:35 | 894 | 911 | 21.9 | 19.9 | 308 | 4 |
| 2010-01-29T23:35 | 902 | 911 | 21.9 | 20.0 | 307 | 4 |
| 2010-01-29T23:36 | 910 | 910 | 21.8 | 20.0 | 307 | 4 |
| 2010-01-29T23:36 | 918 | 909 | 21.8 | 19.9 | 306 | 4 |
| 2010-01-29T23:36 | 928 | 908 | 21.7 | 19.9 | 305 | 4 |
| 2010-01-29T23:36 | 937 | 907 | 21.6 | 19.8 | 304 | 4 |
| 2010-01-29T23:36 | 946 | 906 | 21.5 | 19.7 | 304 | 4 |
| 2010-01-29T23:36 | 956 | 905 | 21.5 | 19.6 | 303 | 4 |
| 2010-01-29T23:36 | 965 | 904 | 21.5 | 19.5 | 302 | 4 |
| 2010-01-29T23:36 | 974 | 903 | 21.4 | 19.4 | 301 | 4 |
| 2010-01-29T23:36 | 983 | 902 | 21.4 | 19.4 | 301 | 4 |
| 2010-01-29T23:36 | 994 | 901 | 21.3 | 19.4 | 300 | 4 |
| 2010-01-29T23:36 | 1004 | 900 | 21.2 | 19.3 | 300 | 4 |
| 2010-01-29T23:36 | 1013 | 899 | 21.1 | 19.3 | 300 | 4 |
| 2010-01-29T23:36 | 1021 | 898 | 21.1 | 19.3 | 299 | 4 |
| 2010-01-29T23:36 | 1029 | 897 | 21.0 | 19.4 | 299 | 4 |
| 2010-01-29T23:36 | 1039 | 896 | 21.0 | 19.4 | 299 | 4 |
| 2010-01-29T23:36 | 1050 | 895 | 21.0 | 19.4 | 300 | 3 |
| 2010-01-29T23:36 | 1060 | 894 | 20.9 | 19.4 | 300 | 3 |
| 2010-01-29T23:36 | 1070 | 893 | 20.9 | 19.4 | 300 | 3 |
| 2010-01-29T23:36 | 1080 | 892 | 20.8 | 19.3 | 300 | 3 |
| 2010-01-29T23:36 | 1089 | 891 | 20.8 | 19.2 | 300 | 3 |
| 2010-01-29T23:36 | 1098 | 890 | 20.7 | 19.2 | 300 | 3 |
| 2010-01-29T23:36 | 1109 | 889 | 20.6 | 19.2 | 300 | 3 |
| 2010-01-29T23:36 | 1119 | 888 | 20.6 | 19.2 | 299 | 3 |
| 2010-01-29T23:36 | 1128 | 887 | 20.5 | 19.2 | 298 | 3 |
| 2010-01-29T23:36 | 1137 | 886 | 20.4 | 19.2 | 297 | 3 |
| 2010-01-29T23:36 | 1148 | 885 | 20.3 | 19.2 | 296 | 3 |
| 2010-01-29T23:36 | 1159 | 884 | 20.2 | 19.1 | 295 | 3 |
| 2010-01-29T23:36 | 1170 | 883 | 20.1 | 19.2 | 294 | 4 |
| 2010-01-29T23:36 | 1180 | 882 | 20.1 | 19.2 | 293 | 4 |
| 2010-01-29T23:36 | 1191 | 881 | 20.0 | 19.1 | 292 | 4 |
| 2010-01-29T23:37 | 1201 | 880 | 19.9 | 19.1 | 290 | 4 |
| 2010-01-29T23:37 | 1211 | 879 | 19.8 | 19.1 | 289 | 4 |
| 2010-01-29T23:37 | 1221 | 878 | 19.7 | 19.1 | 289 | 4 |
| 2010-01-29T23:37 | 1230 | 877 | 19.7 | 19.1 | 288 | 4 |
| 2010-01-29T23:37 | 1241 | 876 | 19.7 | 19.0 | 287 | 4 |
| 2010-01-29T23:37 | 1251 | 875 | 19.7 | 19.0 | 287 | 4 |
| 2010-01-29T23:37 | 1262 | 874 | 19.6 | 18.8 | 286 | 4 |
| 2010-01-29T23:37 | 1273 | 872 | 19.5 | 18.8 | 285 | 4 |
| 2010-01-29T23:37 | 1284 | 871 | 19.4 | 18.7 | 284 | 4 |
| 2010-01-29T23:37 | 1295 | 870 | 19.3 | 18.6 | 283 | 4 |
| 2010-01-29T23:37 | 1305 | 869 | 19.2 | 18.6 | 282 | 4 |
| 2010-01-29T23:37 | 1315 | 868 | 19.1 | 18.6 | 281 | 4 |
| 2010-01-29T23:37 | 1324 | 867 | 19.1 | 18.5 | 279 | 4 |
| 2010-01-29T23:37 | 1333 | 866 | 19.0 | 18.5 | 278 | 4 |
| 2010-01-29T23:37 | 1343 | 865 | 18.9 | 18.4 | 276 | 4 |
| 2010-01-29T23:37 | 1353 | 864 | 18.8 | 18.4 | 274 | 4 |
| 2010-01-29T23:37 | 1363 | 863 | 18.7 | 18.4 | 272 | 4 |
| 2010-01-29T23:37 | 1373 | 862 | 18.7 | 18.4 | 270 | 5 |
| 2010-01-29T23:37 | 1382 | 861 | 18.6 | 18.4 | 269 | 5 |
| 2010-01-29T23:37 | 1392 | 860 | 18.6 | 18.3 | 267 | 5 |
| 2010-01-29T23:37 | 1401 | 860 | 18.6 | 18.3 | 266 | 5 |
| 2010-01-29T23:37 | 1411 | 859 | 18.5 | 18.3 | 264 | 5 |
| 2010-01-29T23:37 | 1422 | 858 | 18.5 | 18.3 | 263 | 5 |
| 2010-01-29T23:37 | 1433 | 856 | 18.4 | 18.2 | 262 | 5 |
| 2010-01-29T23:37 | 1442 | 856 | 18.4 | 18.0 | 261 | 5 |
| 2010-01-29T23:37 | 1450 | 855 | 18.4 | 18.0 | 260 | 5 |
| 2010-01-29T23:37 | 1459 | 854 | 18.3 | 18.0 | 260 | 5 |
| 2010-01-29T23:37 | 1469 | 853 | 18.3 | 18.0 | 259 | 5 |
| 2010-01-29T23:37 | 1481 | 852 | 18.2 | 17.9 | 258 | 5 |
| 2010-01-29T23:37 | 1492 | 851 | 18.3 | 17.9 | 258 | 5 |
| 2010-01-29T23:38 | 1503 | 850 | 18.2 | 17.8 | 257 | 5 |
| 2010-01-29T23:38 | 1514 | 848 | 18.2 | 17.7 | 257 | 5 |
| 2010-01-29T23:38 | 1524 | 847 | 18.2 | 17.6 | 257 | 5 |
| 2010-01-29T23:38 | 1534 | 846 | 18.3 | 17.4 | 257 | 5 |
| 2010-01-29T23:38 | 1545 | 845 | 18.3 | 17.3 | 257 | 5 |
| 2010-01-29T23:38 | 1555 | 844 | 18.3 | 17.1 | 257 | 5 |
| 2010-01-29T23:38 | 1565 | 843 | 18.4 | 17.1 | 257 | 5 |
| 2010-01-29T23:38 | 1575 | 842 | 18.3 | 17.1 | 257 | 5 |
| 2010-01-29T23:38 | 1585 | 841 | 18.3 | 17.0 | 257 | 5 |
| 2010-01-29T23:38 | 1595 | 840 | 18.3 | 16.9 | 257 | 5 |
| 2010-01-29T23:38 | 1606 | 839 | 18.3 | 16.7 | 256 | 5 |
| 2010-01-29T23:38 | 1616 | 838 | 18.3 | 16.5 | 256 | 5 |
| 2010-01-29T23:38 | 1625 | 837 | 18.2 | 16.4 | 256 | 5 |
| 2010-01-29T23:38 | 1636 | 836 | 18.1 | 16.3 | 255 | 5 |
| 2010-01-29T23:38 | 1646 | 835 | 18.0 | 16.2 | 255 | 5 |
| 2010-01-29T23:38 | 1657 | 834 | 18.0 | 16.0 | 254 | 5 |
| 2010-01-29T23:38 | 1669 | 833 | 17.9 | 15.9 | 253 | 5 |
| 2010-01-29T23:38 | 1681 | 832 | 17.9 | 15.9 | 252 | 5 |
| 2010-01-29T23:38 | 1691 | 831 | 17.8 | 16.0 | 251 | 5 |
| 2010-01-29T23:38 | 1702 | 830 | 17.8 | 16.1 | 250 | 5 |
| 2010-01-29T23:38 | 1713 | 829 | 17.7 | 16.1 | 249 | 5 |
| 2010-01-29T23:38 | 1724 | 828 | 17.6 | 16.0 | 248 | 5 |
| 2010-01-29T23:38 | 1734 | 827 | 17.6 | 16.0 | 247 | 5 |
| 2010-01-29T23:38 | 1745 | 826 | 17.5 | 16.1 | 246 | 5 |
| 2010-01-29T23:38 | 1758 | 825 | 17.5 | 16.1 | 246 | 5 |
| 2010-01-29T23:38 | 1769 | 824 | 17.5 | 15.9 | 245 | 5 |
| 2010-01-29T23:38 | 1779 | 823 | 17.4 | 15.8 | 245 | 5 |
| 2010-01-29T23:38 | 1790 | 822 | 17.3 | 15.6 | 245 | 5 |
| 2010-01-29T23:38 | 1801 | 821 | 17.3 | 15.5 | 246 | 5 |
| 2010-01-29T23:38 | 1811 | 820 | 17.3 | 15.3 | 246 | 5 |
| 2010-01-29T23:39 | 1822 | 819 | 17.3 | 15.1 | 247 | 5 |
| 2010-01-29T23:39 | 1834 | 817 | 17.3 | 15.0 | 248 | 5 |
| 2010-01-29T23:39 | 1844 | 816 | 17.2 | 15.0 | 249 | 6 |
| 2010-01-29T23:39 | 1854 | 815 | 17.2 | 15.0 | 250 | 6 |
| 2010-01-29T23:39 | 1864 | 815 | 17.3 | 14.9 | 251 | 6 |
| 2010-01-29T23:39 | 1875 | 814 | 17.3 | 14.5 | 252 | 6 |
| 2010-01-29T23:39 | 1887 | 812 | 17.3 | 14.2 | 253 | 6 |
| 2010-01-29T23:39 | 1897 | 811 | 17.2 | 14.0 | 254 | 6 |
| 2010-01-29T23:39 | 1909 | 810 | 17.2 | 14.0 | 254 | 6 |
| 2010-01-29T23:39 | 1921 | 809 | 17.1 | 14.2 | 255 | 6 |
| 2010-01-29T23:39 | 1931 | 808 | 17.1 | 14.1 | 255 | 6 |
| 2010-01-29T23:39 | 1941 | 807 | 17.0 | 13.9 | 255 | 6 |
| 2010-01-29T23:39 | 1951 | 806 | 17.0 | 13.9 | 255 | 7 |
| 2010-01-29T23:39 | 1961 | 805 | 16.9 | 14.0 | 255 | 7 |
| 2010-01-29T23:39 | 1971 | 804 | 16.8 | 14.0 | 255 | 7 |
| 2010-01-29T23:39 | 1982 | 803 | 16.8 | 13.8 | 254 | 7 |
| 2010-01-29T23:39 | 1993 | 802 | 16.8 | 13.4 | 254 | 7 |
| 2010-01-29T23:39 | 2037 | 798 | 16.7 | 11.9 | 251 | 7 |
| 2010-01-29T23:39 | 2088 | 794 | 16.3 | 12.1 | 249 | 8 |
| 2010-01-29T23:40 | 2141 | 789 | 16.0 | 11.7 | 249 | 9 |
| 2010-01-29T23:40 | 2194 | 784 | 15.7 | 11.6 | 250 | 9 |
| 2010-01-29T23:40 | 2245 | 779 | 15.5 | 11.2 | 251 | 9 |
| 2010-01-29T23:40 | 2296 | 774 | 15.3 | 11.1 | 255 | 9 |
| 2010-01-29T23:40 | 2346 | 770 | 15.2 | 11.0 | 262 | 9 |
| 2010-01-29T23:40 | 2397 | 765 | 15.0 | 11.1 | 269 | 8 |
| 2010-01-29T23:41 | 2454 | 760 | 14.9 | 10.6 | 274 | 8 |
| 2010-01-29T23:41 | 2504 | 756 | 14.7 | 10.1 | 275 | 8 |
| 2010-01-29T23:41 | 2557 | 751 | 14.4 | 9.5 | 274 | 8 |
| 2010-01-29T23:41 | 2611 | 746 | 14.1 | 8.5 | 275 | 8 |
| 2010-01-29T23:41 | 2661 | 742 | 13.7 | 9.4 | 277 | 7 |
| 2010-01-29T23:41 | 2713 | 737 | 13.6 | 8.5 | 279 | 7 |
| 2010-01-29T23:42 | 2763 | 733 | 13.1 | 8.9 | 279 | 7 |
| 2010-01-29T23:42 | 2818 | 728 | 12.9 | 8.7 | 281 | 7 |
| 2010-01-29T23:42 | 2869 | 724 | 12.5 | 8.4 | 282 | 7 |
| 2010-01-29T23:42 | 2922 | 719 | 12.3 | 7.5 | 280 | 7 |
| 2010-01-29T23:42 | 2977 | 714 | 12.0 | 7.3 | 276 | 7 |
| 2010-01-29T23:42 | 3030 | 710 | 11.6 | 7.2 | 273 | 7 |
| 2010-01-29T23:43 | 3080 | 706 | 11.3 | 6.7 | 272 | 7 |
| 2010-01-29T23:43 | 3134 | 701 | 10.9 | 6.7 | 274 | 7 |
| 2010-01-29T23:43 | 3187 | 697 | 10.7 | 4.8 | 273 | 7 |
| 2010-01-29T23:43 | 3242 | 692 | 10.5 | 3.4 | 270 | 7 |
| 2010-01-29T23:43 | 3297 | 688 | 10.2 | 2.9 | 269 | 7 |
| 2010-01-29T23:43 | 3348 | 683 | 9.9 | 3.0 | 270 | 7 |
| 2010-01-29T23:44 | 3400 | 679 | 9.6 | 3.5 | 271 | 7 |
| 2010-01-29T23:44 | 3457 | 674 | 9.2 | 2.2 | 274 | 7 |
| 2010-01-29T23:44 | 3513 | 670 | 8.9 | 2.0 | 275 | 7 |
| 2010-01-29T23:44 | 3567 | 666 | 8.6 | 3.2 | 274 | 7 |
| 2010-01-29T23:44 | 3623 | 661 | 8.3 | 2.8 | 271 | 8 |
| 2010-01-29T23:44 | 3676 | 657 | 8.1 | 1.0 | 269 | 8 |
| 2010-01-29T23:45 | 3732 | 652 | 7.9 | -0.1 | 269 | 9 |
| 2010-01-29T23:45 | 3787 | 648 | 7.6 | 0.4 | 268 | 9 |
| 2010-01-29T23:45 | 3842 | 644 | 7.3 | -0.3 | 268 | 9 |
| 2010-01-29T23:45 | 3900 | 639 | 7.1 | 0.3 | 267 | 9 |
| 2010-01-29T23:45 | 3958 | 635 | 7.1 | -0.8 | 266 | 9 |
| 2010-01-29T23:45 | 4014 | 630 | 7.0 | 0.5 | 265 | 8 |
| 2010-01-29T23:46 | 4066 | 626 | 7.1 | -2.1 | 261 | 7 |
| 2010-01-29T23:46 | 4122 | 622 | 7.0 | -5.1 | 254 | 7 |
| 2010-01-29T23:46 | 4182 | 618 | 6.5 | -5.7 | 249 | 6 |
| 2010-01-29T23:46 | 4238 | 613 | 6.0 | -6.1 | 246 | 6 |
| 2010-01-29T23:46 | 4294 | 609 | 5.5 | -6.5 | 246 | 5 |
| 2010-01-29T23:46 | 4351 | 605 | 5.2 | -7.3 | 246 | 4 |
| 2010-01-29T23:47 | 4408 | 601 | 4.7 | -7.4 | 248 | 4 |
| 2010-01-29T23:47 | 4459 | 597 | 4.4 | -6.9 | 249 | 3 |
| 2010-01-29T23:47 | 4513 | 593 | 4.1 | -6.6 | 246 | 2 |
| 2010-01-29T23:47 | 4568 | 589 | 3.8 | -6.4 | 241 | 2 |
| 2010-01-29T23:47 | 4625 | 585 | 3.4 | -6.8 | 234 | 2 |
| 2010-01-29T23:47 | 4675 | 581 | 3.0 | -6.4 | 224 | 2 |
| 2010-01-29T23:48 | 4733 | 577 | 2.6 | -6.4 | 212 | 1 |
| 2010-01-29T23:48 | 4787 | 573 | 2.1 | -6.3 | 193 | 1 |
| 2010-01-29T23:48 | 4841 | 570 | 1.6 | -6.1 | 168 | 0 |
| 2010-01-29T23:48 | 4895 | 566 | 1.2 | -5.8 | 0 | 0 |
| 2010-01-29T23:48 | 4950 | 562 | 0.7 | -5.8 | 76 | 0 |
| 2010-01-29T23:48 | 5003 | 558 | 0.3 | -6.4 | 63 | 1 |
| 2010-01-29T23:49 | 5064 | 554 | -0.1 | -7.0 | 57 | 1 |
| 2010-01-29T23:49 | 5122 | 550 | -0.7 | -7.2 | 55 | 2 |
| 2010-01-29T23:49 | 5183 | 546 | -1.3 | -7.4 | 58 | 3 |
| 2010-01-29T23:49 | 5238 | 542 | -1.7 | -7.8 | 62 | 4 |
| 2010-01-29T23:49 | 5299 | 538 | -2.2 | -8.0 | 66 | 6 |
| 2010-01-29T23:49 | 5361 | 534 | -2.5 | -8.1 | 71 | 7 |
| 2010-01-29T23:50 | 5413 | 530 | -2.2 | -7.7 | 74 | 8 |
| 2010-01-29T23:50 | 5471 | 526 | -2.2 | -8.9 | 76 | 7 |
| 2010-01-29T23:50 | 5531 | 522 | -1.6 | -10.4 | 81 | 6 |
| 2010-01-29T23:50 | 5591 | 519 | -1.7 | -9.1 | 86 | 6 |
| 2010-01-29T23:50 | 5648 | 515 | -1.9 | -10.3 | 89 | 6 |
| 2010-01-29T23:50 | 5705 | 511 | -2.4 | -10.3 | 89 | 6 |
| 2010-01-29T23:51 | 5761 | 508 | -2.9 | -10.2 | 89 | 6 |
| 2010-01-29T23:51 | 5817 | 504 | -3.4 | -10.4 | 91 | 6 |
| 2010-01-29T23:51 | 5875 | 500 | -4.0 | -10.4 | 93 | 6 |
| 2010-01-29T23:51 | 5932 | 497 | -4.6 | -10.6 | 94 | 6 |
| 2010-01-29T23:51 | 5990 | 493 | -5.1 | -10.8 | 93 | 6 |
| 2010-01-29T23:51 | 6047 | 490 | -5.5 | -10.9 | 91 | 6 |
| 2010-01-29T23:52 | 6104 | 486 | -6.1 | -11.1 | 92 | 6 |
| 2010-01-29T23:52 | 6161 | 482 | -6.5 | -11.3 | 93 | 7 |
| 2010-01-29T23:52 | 6211 | 479 | -6.8 | -12.4 | 91 | 8 |
| 2010-01-29T23:52 | 6253 | 477 | -7.0 | -13.3 | 89 | 8 |
| 2010-01-29T23:52 | 6296 | 474 | -7.3 | -13.6 | 92 | 7 |
| 2010-01-29T23:52 | 6336 | 472 | -7.5 | -14.0 | 97 | 6 |
| 2010-01-29T23:53 | 6374 | 469 | -7.7 | -14.0 | 100 | 6 |
| 2010-01-29T23:53 | 6413 | 467 | -8.1 | -14.4 | 102 | 6 |
| 2010-01-29T23:53 | 6451 | 465 | -8.4 | -14.4 | 103 | 6 |
| 2010-01-29T23:53 | 6491 | 462 | -8.8 | -14.5 | 101 | 5 |
| 2010-01-29T23:53 | 6542 | 459 | -9.2 | -14.1 | 96 | 5 |
| 2010-01-29T23:53 | 6595 | 456 | -9.6 | -13.8 | 92 | 5 |
| 2010-01-29T23:54 | 6652 | 453 | -9.8 | -14.2 | 91 | 6 |
| 2010-01-29T23:54 | 6708 | 450 | -10.2 | -14.8 | 88 | 7 |
| 2010-01-29T23:54 | 6762 | 446 | -10.5 | -15.1 | 87 | 7 |
| 2010-01-29T23:54 | 6820 | 443 | -10.9 | -14.6 | 88 | 7 |
| 2010-01-29T23:54 | 6876 | 440 | -11.1 | -14.9 | 90 | 8 |
| 2010-01-29T23:54 | 6932 | 437 | -11.4 | -15.7 | 93 | 9 |
| 2010-01-29T23:55 | 6989 | 433 | -11.7 | -16.5 | 94 | 10 |
| 2010-01-29T23:55 | 7049 | 430 | -12.1 | -16.6 | 91 | 11 |
| 2010-01-29T23:55 | 7107 | 427 | -12.6 | -16.7 | 88 | 12 |
| 2010-01-29T23:55 | 7168 | 423 | -13.1 | -16.3 | 87 | 13 |
| 2010-01-29T23:55 | 7224 | 420 | -13.6 | -16.2 | 86 | 14 |
| 2010-01-29T23:55 | 7278 | 417 | -13.9 | -16.3 | 85 | 14 |
| 2010-01-29T23:56 | 7332 | 414 | -14.0 | -17.0 | 85 | 14 |
| 2010-01-29T23:56 | 7386 | 412 | -14.1 | -18.2 | 85 | 14 |
| 2010-01-29T23:56 | 7429 | 409 | -14.1 | -18.0 | 86 | 14 |
| 2010-01-29T23:56 | 7466 | 407 | -14.1 | -18.3 | 87 | 14 |
| 2010-01-29T23:56 | 7503 | 405 | -14.1 | -18.8 | 88 | 14 |
| 2010-01-29T23:56 | 7540 | 403 | -14.0 | -20.9 | 90 | 13 |
| 2010-01-29T23:57 | 7579 | 401 | -14.3 | -21.2 | 91 | 13 |
| 2010-01-29T23:57 | 7618 | 399 | -14.4 | -21.8 | 91 | 13 |
| 2010-01-29T23:57 | 7658 | 397 | -14.8 | -22.0 | 91 | 12 |
| 2010-01-29T23:57 | 7699 | 395 | -15.0 | -22.4 | 91 | 11 |
| 2010-01-29T23:57 | 7739 | 393 | -14.9 | -23.4 | 94 | 11 |
| 2010-01-29T23:57 | 7781 | 391 | -15.1 | -24.1 | 98 | 11 |
| 2010-01-29T23:58 | 7819 | 389 | -15.2 | -25.0 | 102 | 11 |
| 2010-01-29T23:58 | 7860 | 387 | -15.6 | -25.3 | 105 | 11 |
| 2010-01-29T23:58 | 7899 | 385 | -15.9 | -25.3 | 106 | 11 |
| 2010-01-29T23:58 | 7938 | 383 | -16.2 | -25.5 | 107 | 11 |
| 2010-01-29T23:58 | 7977 | 381 | -16.6 | -26.0 | 107 | 11 |
| 2010-01-29T23:58 | 8015 | 379 | -16.9 | -25.6 | 106 | 11 |
| 2010-01-29T23:59 | 8055 | 377 | -17.2 | -25.3 | 105 | 11 |
| 2010-01-29T23:59 | 8092 | 375 | -17.6 | -25.2 | 104 | 11 |
| 2010-01-29T23:59 | 8129 | 373 | -17.9 | -25.5 | 104 | 10 |
| 2010-01-29T23:59 | 8167 | 371 | -18.1 | -25.8 | 103 | 10 |
| 2010-01-29T23:59 | 8203 | 369 | -18.4 | -25.9 | 103 | 9 |
| 2010-01-29T23:59 | 8239 | 367 | -18.6 | -26.9 | 103 | 8 |
| 2010-01-30T00:00 | 8276 | 366 | -18.8 | -27.1 | 103 | 8 |
| 2010-01-30T00:00 | 8313 | 364 | -19.0 | -28.0 | 102 | 8 |
| 2010-01-30T00:00 | 8349 | 362 | -19.3 | -28.4 | 101 | 7 |
| 2010-01-30T00:00 | 8385 | 360 | -19.5 | -28.8 | 99 | 7 |
| 2010-01-30T00:00 | 8421 | 359 | -19.8 | -29.3 | 97 | 7 |
| 2010-01-30T00:00 | 8457 | 357 | -20.0 | -29.3 | 94 | 7 |
| 2010-01-30T00:01 | 8495 | 355 | -20.2 | -28.5 | 91 | 7 |
| 2010-01-30T00:01 | 8535 | 353 | -20.5 | -28.5 | 90 | 7 |
| 2010-01-30T00:01 | 8570 | 351 | -20.6 | -29.1 | 91 | 7 |
| 2010-01-30T00:01 | 8606 | 350 | -20.8 | -29.7 | 94 | 7 |
| 2010-01-30T00:01 | 8643 | 348 | -21.1 | -30.3 | 97 | 7 |
| 2010-01-30T00:01 | 8679 | 346 | -21.4 | -30.9 | 97 | 7 |
| 2010-01-30T00:02 | 8717 | 345 | -21.7 | -31.0 | 98 | 8 |
| 2010-01-30T00:02 | 8754 | 343 | -22.0 | -31.2 | 100 | 8 |
| 2010-01-30T00:02 | 8791 | 341 | -22.4 | -31.5 | 103 | 8 |
| 2010-01-30T00:02 | 8826 | 339 | -22.6 | -31.8 | 105 | 8 |
| 2010-01-30T00:02 | 8862 | 338 | -23.0 | -32.0 | 105 | 8 |
| 2010-01-30T00:02 | 8897 | 336 | -23.3 | -32.4 | 106 | 8 |
| 2010-01-30T00:03 | 8933 | 335 | -23.6 | -32.5 | 106 | 8 |
| 2010-01-30T00:03 | 8970 | 333 | -23.9 | -33.0 | 107 | 9 |
| 2010-01-30T00:03 | 9006 | 331 | -24.1 | -33.8 | 108 | 9 |
| 2010-01-30T00:03 | 9043 | 330 | -24.3 | -34.7 | 109 | 9 |
| 2010-01-30T00:03 | 9079 | 328 | -24.7 | -35.1 | 109 | 9 |
| 2010-01-30T00:03 | 9116 | 326 | -25.0 | -35.4 | 109 | 9 |
| 2010-01-30T00:04 | 9153 | 325 | -25.4 | -35.5 | 108 | 9 |
| 2010-01-30T00:04 | 9191 | 323 | -25.7 | -35.8 | 108 | 9 |
| 2010-01-30T00:04 | 9229 | 321 | -26.1 | -36.1 | 109 | 9 |
| 2010-01-30T00:04 | 9267 | 320 | -26.4 | -36.3 | 110 | 8 |
| 2010-01-30T00:04 | 9305 | 318 | -26.7 | -36.3 | 112 | 8 |
| 2010-01-30T00:04 | 9342 | 316 | -27.1 | -36.5 | 113 | 8 |
| 2010-01-30T00:05 | 9379 | 315 | -27.4 | -36.7 | 113 | 8 |
| 2010-01-30T00:05 | 9417 | 313 | -27.8 | -36.6 | 113 | 8 |
| 2010-01-30T00:05 | 9455 | 311 | -28.2 | -36.7 | 114 | 8 |
| 2010-01-30T00:05 | 9492 | 310 | -28.6 | -36.8 | 114 | 8 |
| 2010-01-30T00:05 | 9530 | 308 | -28.9 | -36.5 | 115 | 7 |
| 2010-01-30T00:05 | 9567 | 306 | -29.3 | -36.5 | 115 | 7 |
| 2010-01-30T00:06 | 9605 | 305 | -29.6 | -36.8 | 115 | 7 |
| 2010-01-30T00:06 | 9643 | 303 | -30.0 | -36.8 | 113 | 7 |
| 2010-01-30T00:06 | 9682 | 302 | -30.3 | -37.3 | 112 | 7 |
| 2010-01-30T00:06 | 9720 | 300 | -30.6 | -38.4 | 112 | 6 |
| 2010-01-30T00:06 | 9758 | 298 | -30.9 | -38.7 | 112 | 6 |
| 2010-01-30T00:06 | 9794 | 297 | -31.3 | -38.6 | 109 | 6 |
| 2010-01-30T00:07 | 9833 | 295 | -31.5 | -39.2 | 104 | 5 |
| 2010-01-30T00:07 | 9870 | 294 | -31.8 | -40.1 | 98 | 5 |
| 2010-01-30T00:07 | 9909 | 292 | -32.1 | -40.3 | 92 | 5 |
| 2010-01-30T00:07 | 9945 | 291 | -32.2 | -40.6 | 88 | 6 |
| 2010-01-30T00:07 | 9984 | 289 | -31.9 | -42.9 | 88 | 6 |
| 2010-01-30T00:07 | 10022 | 287 | -32.3 | -44.2 | 87 | 7 |
| 2010-01-30T00:08 | 10061 | 286 | -32.6 | -44.5 | 86 | 6 |
| 2010-01-30T00:08 | 10101 | 284 | -33.0 | -44.8 | 86 | 6 |
| 2010-01-30T00:08 | 10140 | 283 | -33.3 | -45.1 | 86 | 6 |
| 2010-01-30T00:08 | 10179 | 281 | -33.7 | -45.1 | 89 | 6 |
| 2010-01-30T00:08 | 10217 | 280 | -34.0 | -45.6 | 93 | 6 |
| 2010-01-30T00:08 | 10256 | 278 | -34.3 | -46.0 | 97 | 7 |
| 2010-01-30T00:09 | 10294 | 276 | -34.7 | -46.4 | 100 | 7 |
| 2010-01-30T00:09 | 10334 | 275 | -35.0 | -46.7 | 101 | 8 |
| 2010-01-30T00:09 | 10372 | 273 | -35.4 | -46.9 | 102 | 8 |
| 2010-01-30T00:09 | 10411 | 272 | -35.8 | -47.5 | 103 | 8 |
| 2010-01-30T00:09 | 10450 | 270 | -36.1 | -47.4 | 103 | 9 |
| 2010-01-30T00:09 | 10489 | 269 | -36.4 | -47.7 | 102 | 9 |
| 2010-01-30T00:10 | 10528 | 267 | -36.9 | -47.9 | 102 | 9 |
| 2010-01-30T00:10 | 10566 | 266 | -37.2 | -48.1 | 103 | 10 |
| 2010-01-30T00:10 | 10603 | 264 | -37.6 | -48.3 | 103 | 10 |
| 2010-01-30T00:10 | 10642 | 263 | -37.9 | -48.5 | 102 | 10 |
| 2010-01-30T00:10 | 10682 | 261 | -38.2 | -48.9 | 101 | 11 |
| 2010-01-30T00:10 | 10720 | 260 | -38.7 | -49.5 | 99 | 11 |
| 2010-01-30T00:11 | 10759 | 259 | -39.0 | -49.6 | 97 | 11 |
| 2010-01-30T00:11 | 10795 | 257 | -39.2 | -49.8 | 95 | 11 |
| 2010-01-30T00:11 | 10832 | 256 | -39.6 | -50.3 | 93 | 11 |
| 2010-01-30T00:11 | 10869 | 254 | -39.8 | -50.7 | 92 | 12 |
| 2010-01-30T00:11 | 10907 | 253 | -40.0 | -51.7 | 92 | 12 |
| 2010-01-30T00:11 | 10943 | 252 | -40.3 | -53.2 | 93 | 13 |
| 2010-01-30T00:12 | 10983 | 250 | -40.4 | -53.8 | 94 | 14 |
| 2010-01-30T00:12 | 11024 | 249 | -40.5 | -55.4 | 96 | 15 |
| 2010-01-30T00:12 | 11072 | 247 | -40.9 | -56.5 | 98 | 16 |
| 2010-01-30T00:12 | 11112 | 245 | -41.0 | -57.8 | 100 | 18 |
| 2010-01-30T00:12 | 11157 | 244 | -41.4 | -58.4 | 101 | 19 |
| 2010-01-30T00:12 | 11200 | 242 | -41.8 | -58.9 | 101 | 19 |
| 2010-01-30T00:13 | 11243 | 241 | -42.1 | -59.2 | 101 | 21 |
| 2010-01-30T00:13 | 11281 | 239 | -42.2 | -60.6 | 102 | 21 |
| 2010-01-30T00:13 | 11320 | 238 | -42.4 | -61.7 | 102 | 22 |
| 2010-01-30T00:13 | 11359 | 237 | -42.9 | -62.4 | 102 | 22 |
| 2010-01-30T00:13 | 11399 | 235 | -43.2 | -62.1 | 103 | 23 |
| 2010-01-30T00:13 | 11440 | 234 | -43.7 | -61.5 | 103 | 23 |
| 2010-01-30T00:14 | 11479 | 232 | -44.0 | -61.0 | 104 | 23 |
| 2010-01-30T00:14 | 11520 | 231 | -44.2 | -60.1 | 104 | 24 |
| 2010-01-30T00:14 | 11560 | 230 | -44.5 | -59.1 | 105 | 24 |
| 2010-01-30T00:14 | 11600 | 228 | -44.9 | -57.8 | 106 | 24 |
| 2010-01-30T00:14 | 11641 | 227 | -45.2 | -56.7 | 106 | 24 |
| 2010-01-30T00:14 | 11681 | 226 | -45.6 | -56.6 | 106 | 24 |
| 2010-01-30T00:15 | 11721 | 224 | -46.0 | -56.7 | 106 | 24 |
| 2010-01-30T00:15 | 11762 | 223 | -46.4 | -56.8 | 106 | 24 |
| 2010-01-30T00:15 | 11801 | 222 | -46.8 | -56.9 | 107 | 24 |
| 2010-01-30T00:15 | 11841 | 220 | -47.2 | -56.8 | 107 | 24 |
| 2010-01-30T00:15 | 11881 | 219 | -47.5 | -56.6 | 108 | 24 |
| 2010-01-30T00:15 | 11922 | 218 | -47.6 | -57.0 | 110 | 25 |
| 2010-01-30T00:16 | 11963 | 216 | -47.9 | -57.8 | 110 | 25 |
| 2010-01-30T00:16 | 12004 | 215 | -48.2 | -57.8 | 111 | 26 |
| 2010-01-30T00:16 | 12042 | 214 | -48.4 | -58.7 | 111 | 26 |
| 2010-01-30T00:16 | 12083 | 212 | -48.8 | -60.6 | 111 | 27 |
| 2010-01-30T00:16 | 12124 | 211 | -49.1 | -61.9 | 110 | 27 |
| 2010-01-30T00:16 | 12164 | 210 | -49.5 | -62.6 | 110 | 27 |
| 2010-01-30T00:17 | 12205 | 208 | -49.9 | -63.1 | 110 | 27 |
| 2010-01-30T00:17 | 12247 | 207 | -50.3 | -63.5 | 110 | 27 |
| 2010-01-30T00:17 | 12289 | 206 | -50.5 | -63.4 | 109 | 26 |
| 2010-01-30T00:17 | 12330 | 204 | -50.9 | -63.2 | 110 | 26 |
| 2010-01-30T00:17 | 12371 | 203 | -51.2 | -63.8 | 110 | 26 |
| 2010-01-30T00:17 | 12412 | 202 | -51.3 | -64.2 | 111 | 26 |
| 2010-01-30T00:18 | 12452 | 201 | -51.7 | -64.7 | 111 | 26 |
| 2010-01-30T00:18 | 12492 | 199 | -52.1 | -64.8 | 111 | 26 |
| 2010-01-30T00:18 | 12532 | 198 | -52.5 | -65.0 | 111 | 26 |
| 2010-01-30T00:18 | 12574 | 197 | -52.9 | -65.2 | 111 | 26 |
| 2010-01-30T00:18 | 12615 | 196 | -53.3 | -65.3 | 111 | 25 |
| 2010-01-30T00:18 | 12655 | 194 | -53.6 | -65.5 | 111 | 25 |
| 2010-01-30T00:19 | 12695 | 193 | -53.8 | -65.4 | 111 | 25 |
| 2010-01-30T00:19 | 12737 | 192 | -54.2 | -65.6 | 111 | 25 |
| 2010-01-30T00:19 | 12780 | 191 | -54.6 | -66.2 | 111 | 25 |
| 2010-01-30T00:19 | 12822 | 189 | -55.0 | -66.7 | 112 | 25 |
| 2010-01-30T00:19 | 12863 | 188 | -55.3 | -66.1 | 113 | 25 |
| 2010-01-30T00:19 | 12904 | 187 | -55.5 | -65.5 | 114 | 25 |
| 2010-01-30T00:20 | 12945 | 186 | -56.1 | -65.5 | 114 | 25 |
| 2010-01-30T00:20 | 12988 | 185 | -56.4 | -65.1 | 113 | 25 |
| 2010-01-30T00:20 | 13029 | 183 | -56.8 | -65.3 | 113 | 25 |
| 2010-01-30T00:20 | 13070 | 182 | -57.2 | -65.5 | 113 | 25 |
| 2010-01-30T00:20 | 13114 | 181 | -57.6 | -65.8 | 112 | 25 |
| 2010-01-30T00:20 | 13157 | 180 | -58.1 | -66.0 | 112 | 25 |
| 2010-01-30T00:21 | 13200 | 178 | -58.5 | -66.0 | 112 | 25 |
| 2010-01-30T00:21 | 13244 | 177 | -58.8 | -66.1 | 112 | 25 |
| 2010-01-30T00:21 | 13292 | 176 | -59.3 | -66.4 | 111 | 25 |
| 2010-01-30T00:21 | 13339 | 175 | -59.8 | -66.7 | 110 | 25 |
| 2010-01-30T00:21 | 13381 | 173 | -60.2 | -66.8 | 110 | 25 |
| 2010-01-30T00:21 | 13422 | 172 | -60.8 | -67.3 | 110 | 25 |
| 2010-01-30T00:22 | 13465 | 171 | -61.1 | -67.3 | 110 | 25 |
| 2010-01-30T00:22 | 13508 | 170 | -61.3 | -67.2 | 109 | 25 |
| 2010-01-30T00:22 | 13561 | 168 | -61.9 | -67.6 | 108 | 25 |
| 2010-01-30T00:22 | 13609 | 167 | -62.2 | -68.2 | 106 | 25 |
| 2010-01-30T00:22 | 13651 | 166 | -62.6 | -69.0 | 105 | 25 |
| 2010-01-30T00:22 | 13696 | 165 | -62.9 | -69.7 | 105 | 24 |
| 2010-01-30T00:23 | 13739 | 164 | -63.4 | -70.4 | 105 | 24 |
| 2010-01-30T00:23 | 13782 | 162 | -63.7 | -70.9 | 106 | 25 |
| 2010-01-30T00:23 | 13825 | 161 | -64.1 | -71.1 | 106 | 25 |
| 2010-01-30T00:23 | 13870 | 160 | -64.3 | -71.4 | 106 | 25 |
| 2010-01-30T00:23 | 13915 | 159 | -64.7 | -71.9 | 107 | 25 |
| 2010-01-30T00:23 | 13959 | 158 | -64.9 | -72.2 | 107 | 25 |
| 2010-01-30T00:24 | 14003 | 157 | -65.3 | -72.7 | 106 | 25 |
| 2010-01-30T00:24 | 14043 | 156 | -65.6 | -73.1 | 106 | 25 |
| 2010-01-30T00:24 | 14086 | 155 | -65.9 | -73.7 | 105 | 25 |
| 2010-01-30T00:24 | 14128 | 153 | -66.3 | -74.2 | 104 | 25 |
| 2010-01-30T00:24 | 14170 | 152 | -66.7 | -74.8 | 104 | 25 |
| 2010-01-30T00:24 | 14212 | 151 | -67.0 | -75.2 | 104 | 25 |
| 2010-01-30T00:25 | 14256 | 150 | -67.4 | -75.5 | 105 | 25 |
| 2010-01-30T00:25 | 14299 | 149 | -67.8 | -75.8 | 107 | 25 |
| 2010-01-30T00:25 | 14344 | 148 | -68.1 | -76.1 | 108 | 25 |
| 2010-01-30T00:25 | 14391 | 147 | -68.4 | -76.2 | 109 | 25 |
| 2010-01-30T00:25 | 14435 | 146 | -68.8 | -76.3 | 109 | 25 |
| 2010-01-30T00:25 | 14480 | 145 | -69.2 | -76.6 | 109 | 24 |
| 2010-01-30T00:26 | 14529 | 144 | -69.7 | -76.9 | 110 | 24 |
| 2010-01-30T00:26 | 14578 | 142 | -70.0 | -77.3 | 111 | 24 |
| 2010-01-30T00:26 | 14623 | 141 | -70.4 | -77.6 | 112 | 24 |
| 2010-01-30T00:26 | 14665 | 140 | -70.8 | -78.0 | 111 | 24 |
| 2010-01-30T00:26 | 14710 | 139 | -71.2 | -78.4 | 110 | 23 |
| 2010-01-30T00:26 | 14755 | 138 | -71.4 | -78.7 | 110 | 22 |
| 2010-01-30T00:27 | 14799 | 137 | -71.3 | -78.7 | 108 | 21 |
| 2010-01-30T00:27 | 14843 | 136 | -71.1 | -78.7 | 107 | 20 |
| 2010-01-30T00:27 | 14888 | 135 | -70.6 | -78.4 | 105 | 19 |
| 2010-01-30T00:27 | 14940 | 134 | -70.9 | -79.2 | 104 | 18 |
| 2010-01-30T00:27 | 14993 | 133 | -71.2 | -79.6 | 103 | 17 |
| 2010-01-30T00:27 | 15043 | 132 | -71.5 | -80.1 | 102 | 16 |
| 2010-01-30T00:28 | 15092 | 131 | -71.9 | -80.6 | 101 | 15 |
| 2010-01-30T00:28 | 15143 | 129 | -72.3 | -81.2 | 102 | 14 |
| 2010-01-30T00:28 | 15191 | 128 | -72.4 | -81.5 | 104 | 13 |
| 2010-01-30T00:28 | 15238 | 127 | -72.8 | -81.9 | 108 | 12 |
| 2010-01-30T00:28 | 15285 | 126 | -72.9 | -82.3 | 113 | 10 |
| 2010-01-30T00:28 | 15330 | 125 | -72.9 | -82.4 | 116 | 9 |
| 2010-01-30T00:29 | 15376 | 124 | -73.1 | -82.7 | 119 | 8 |
| 2010-01-30T00:29 | 15420 | 123 | -73.3 | -83.0 | 124 | 7 |
| 2010-01-30T00:29 | 15468 | 122 | -73.6 | -83.4 | 132 | 6 |
| 2010-01-30T00:29 | 15513 | 121 | -73.8 | -83.8 | 141 | 6 |
| 2010-01-30T00:29 | 15558 | 121 | -74.2 | -84.2 | 151 | 5 |
| 2010-01-30T00:29 | 15604 | 120 | -74.5 | -84.6 | 162 | 5 |
| 2010-01-30T00:30 | 15653 | 119 | -74.9 | -85.1 | 172 | 5 |
| 2010-01-30T00:30 | 15699 | 118 | -75.3 | -85.5 | 179 | 5 |
| 2010-01-30T00:30 | 15742 | 117 | -75.7 | -86.0 | 185 | 5 |
| 2010-01-30T00:30 | 15788 | 116 | -76.0 | -86.3 | 189 | 5 |
| 2010-01-30T00:30 | 15833 | 115 | -76.4 | -86.8 | 191 | 5 |
| 2010-01-30T00:30 | 15877 | 114 | -77.1 | -87.4 | 193 | 5 |
| 2010-01-30T00:31 | 15919 | 113 | -77.4 | -87.7 | 195 | 4 |
| 2010-01-30T00:31 | 15964 | 112 | -77.8 | -88.1 | 196 | 4 |
| 2010-01-30T00:31 | 16007 | 112 | -78.0 | -88.4 | 194 | 3 |
| 2010-01-30T00:31 | 16051 | 111 | -78.2 | -88.6 | 185 | 3 |
| 2010-01-30T00:31 | 16093 | 110 | -78.5 | -88.9 | 170 | 2 |
| 2010-01-30T00:31 | 16136 | 109 | -78.8 | -89.1 | 149 | 2 |
| 2010-01-30T00:32 | 16179 | 108 | -79.2 | -89.6 | 131 | 2 |
| 2010-01-30T00:32 | 16222 | 107 | -79.3 | -89.6 | 121 | 3 |
| 2010-01-30T00:32 | 16266 | 107 | -79.8 | -90.1 | 120 | 4 |
| 2010-01-30T00:32 | 16311 | 106 | -79.9 | -90.2 | 127 | 4 |
| 2010-01-30T00:32 | 16356 | 105 | -80.0 | -90.3 | 138 | 4 |
| 2010-01-30T00:32 | 16400 | 104 | -80.0 | -90.3 | 147 | 4 |
| 2010-01-30T00:33 | 16445 | 103 | -80.5 | -90.7 | 150 | 4 |
| 2010-01-30T00:33 | 16488 | 102 | -80.6 | -90.8 | 149 | 4 |
| 2010-01-30T00:33 | 16532 | 102 | -80.9 | -91.1 | 150 | 3 |
| 2010-01-30T00:33 | 16578 | 101 | -80.8 | -91.1 | 158 | 3 |
| 2010-01-30T00:33 | 16625 | 100 | -81.2 | -91.3 | 176 | 3 |
| 2010-01-30T00:33 | 16676 | 99 | -80.9 | -91.1 | 188 | 4 |
| 2010-01-30T00:34 | 16730 | 98 | -81.3 | -91.3 | 192 | 6 |
| 2010-01-30T00:34 | 16786 | 97 | -81.6 | -91.7 | 191 | 7 |
| 2010-01-30T00:34 | 16839 | 96 | -82.1 | -92.0 | 189 | 8 |
| 2010-01-30T00:34 | 16886 | 95 | -82.5 | -92.4 | 187 | 8 |
| 2010-01-30T00:34 | 16935 | 95 | -82.9 | -92.7 | 185 | 8 |
| 2010-01-30T00:34 | 16986 | 94 | -83.1 | -92.8 | 183 | 9 |
| 2010-01-30T00:35 | 17034 | 93 | -83.5 | -93.1 | 183 | 9 |
| 2010-01-30T00:35 | 17084 | 92 | -83.9 | -93.5 | 186 | 9 |
| 2010-01-30T00:35 | 17131 | 91 | -84.2 | -93.7 | 188 | 9 |
| 2010-01-30T00:35 | 17181 | 91 | -84.6 | -94.0 | 187 | 9 |
| 2010-01-30T00:35 | 17230 | 90 | -85.0 | -94.3 | 185 | 9 |
| 2010-01-30T00:35 | 17279 | 89 | -85.1 | -94.4 | 186 | 8 |
| 2010-01-30T00:36 | 17327 | 88 | -85.1 | -94.4 | 191 | 7 |
| 2010-01-30T00:36 | 17375 | 87 | -84.7 | -94.0 | 200 | 7 |
| 2010-01-30T00:36 | 17425 | 87 | -84.6 | -93.9 | 210 | 7 |
| 2010-01-30T00:36 | 17473 | 86 | -84.6 | -93.8 | 215 | 7 |
| 2010-01-30T00:36 | 17521 | 85 | -84.8 | -94.1 | 212 | 6 |
| 2010-01-30T00:36 | 17569 | 84 | -84.8 | -94.0 | 203 | 5 |
| 2010-01-30T00:37 | 17615 | 84 | -84.7 | -93.9 | 197 | 4 |
| 2010-01-30T00:37 | 17663 | 83 | -84.7 | -93.9 | 213 | 2 |
| 2010-01-30T00:37 | 17713 | 82 | -83.3 | -92.7 | 267 | 2 |
| 2010-01-30T00:37 | 17759 | 82 | -83.0 | -92.4 | 290 | 4 |
| 2010-01-30T00:37 | 17806 | 81 | -83.3 | -92.5 | 299 | 4 |
| 2010-01-30T00:37 | 17852 | 80 | -82.7 | -92.1 | 307 | 5 |
| 2010-01-30T00:38 | 17898 | 80 | -82.5 | -91.8 | 311 | 6 |
| 2010-01-30T00:38 | 17944 | 79 | -80.6 | -90.2 | 312 | 7 |
| 2010-01-30T00:38 | 17989 | 78 | -79.8 | -89.4 | 313 | 8 |
| 2010-01-30T00:38 | 18037 | 78 | -79.8 | -89.4 | 315 | 9 |
| 2010-01-30T00:38 | 18083 | 77 | -79.8 | -89.5 | 316 | 9 |
| 2010-01-30T00:38 | 18130 | 76 | -79.6 | -89.4 | 314 | 9 |
| 2010-01-30T00:39 | 18177 | 76 | -78.9 | -88.9 | 309 | 8 |
| 2010-01-30T00:39 | 18224 | 75 | -78.4 | -88.5 | 302 | 7 |
| 2010-01-30T00:39 | 18271 | 74 | -77.7 | -88.0 | 294 | 6 |
| 2010-01-30T00:39 | 18317 | 74 | -77.6 | -88.0 | 290 | 5 |
| 2010-01-30T00:39 | 18364 | 73 | -77.0 | -87.6 | 289 | 5 |
| 2010-01-30T00:39 | 18411 | 73 | -76.7 | -87.5 | 282 | 5 |
| 2010-01-30T00:40 | 18458 | 72 | -76.2 | -87.2 | 268 | 5 |
| 2010-01-30T00:40 | 18504 | 71 | -75.7 | -86.9 | 249 | 6 |
| 2010-01-30T00:40 | 18551 | 71 | -75.2 | -86.6 | 234 | 6 |
| 2010-01-30T00:40 | 18598 | 70 | -74.5 | -86.2 | 225 | 7 |
| 2010-01-30T00:40 | 18645 | 70 | -74.6 | -86.5 | 223 | 7 |
| 2010-01-30T00:40 | 18693 | 69 | -75.1 | -87.0 | 221 | 7 |
| 2010-01-30T00:41 | 18742 | 69 | -75.2 | -87.3 | 218 | 7 |
| 2010-01-30T00:41 | 18789 | 68 | -74.5 | -86.9 | 218 | 7 |
| 2010-01-30T00:41 | 18837 | 67 | -73.8 | -86.6 | 223 | 7 |
| 2010-01-30T00:41 | 18884 | 67 | -74.1 | -86.9 | 232 | 7 |
| 2010-01-30T00:41 | 18931 | 66 | -74.4 | -87.3 | 243 | 8 |
| 2010-01-30T00:41 | 18980 | 66 | -74.2 | -87.4 | 256 | 8 |
| 2010-01-30T00:42 | 19029 | 65 | -74.2 | -87.6 | 269 | 8 |
| 2010-01-30T00:42 | 19077 | 65 | -74.3 | -87.7 | 282 | 8 |
| 2010-01-30T00:42 | 19126 | 64 | -74.4 | -88.0 | 295 | 8 |
| 2010-01-30T00:42 | 19175 | 64 | -74.3 | -88.0 | 305 | 9 |
| 2010-01-30T00:42 | 19226 | 63 | -74.2 | -88.1 | 311 | 9 |
| 2010-01-30T00:42 | 19274 | 63 | -74.3 | -88.3 | 313 | 11 |
| 2010-01-30T00:43 | 19323 | 62 | -73.2 | -87.6 | 312 | 12 |
| 2010-01-30T00:43 | 19371 | 62 | -73.0 | -87.6 | 309 | 14 |
| 2010-01-30T00:43 | 19418 | 61 | -72.8 | -87.5 | 305 | 15 |
| 2010-01-30T00:43 | 19466 | 61 | -72.6 | -87.5 | 302 | 15 |
| 2010-01-30T00:43 | 19512 | 60 | -72.1 | -87.2 | 300 | 15 |
| 2010-01-30T00:43 | 19559 | 60 | -72.4 | -87.5 | 298 | 15 |
| 2010-01-30T00:44 | 19607 | 59 | -72.7 | -87.9 | 295 | 15 |
| 2010-01-30T00:44 | 19654 | 59 | -72.9 | -88.2 | 292 | 15 |
| 2010-01-30T00:44 | 19701 | 58 | -72.8 | -88.3 | 287 | 15 |
| 2010-01-30T00:44 | 19749 | 58 | -72.7 | -88.2 | 281 | 15 |
| 2010-01-30T00:44 | 19797 | 57 | -72.7 | -88.4 | 277 | 15 |
| 2010-01-30T00:44 | 19844 | 57 | -73.0 | -88.7 | 273 | 15 |
| 2010-01-30T00:45 | 19892 | 56 | -73.2 | -89.0 | 271 | 15 |
| 2010-01-30T00:45 | 19938 | 56 | -73.7 | -89.4 | 270 | 15 |
| 2010-01-30T00:45 | 19986 | 55 | -74.0 | -89.7 | 269 | 14 |
| 2010-01-30T00:45 | 20033 | 55 | -74.3 | -90.1 | 269 | 13 |
| 2010-01-30T00:45 | 20079 | 55 | -74.6 | -90.3 | 269 | 13 |
| 2010-01-30T00:45 | 20126 | 54 | -74.1 | -90.0 | 267 | 14 |
| 2010-01-30T00:46 | 20172 | 54 | -74.4 | -90.3 | 266 | 14 |
| 2010-01-30T00:46 | 20217 | 53 | -74.7 | -90.5 | 265 | 13 |
| 2010-01-30T00:46 | 20264 | 53 | -75.0 | -90.7 | 262 | 12 |
| 2010-01-30T00:46 | 20309 | 52 | -74.8 | -90.6 | 258 | 11 |
| 2010-01-30T00:46 | 20357 | 52 | -74.4 | -90.4 | 255 | 9 |
| 2010-01-30T00:46 | 20402 | 52 | -74.5 | -90.5 | 256 | 7 |
| 2010-01-30T00:47 | 20449 | 51 | -74.8 | -90.8 | 257 | 5 |
| 2010-01-30T00:47 | 20493 | 51 | -74.1 | -90.2 | 257 | 2 |
| 2010-01-30T00:47 | 20540 | 50 | -73.3 | -89.8 | 83 | 0 |
| 2010-01-30T00:47 | 20585 | 50 | -72.4 | -89.2 | 70 | 2 |
| 2010-01-30T00:47 | 20630 | 50 | -71.0 | -88.1 | 57 | 3 |
| 2010-01-30T00:47 | 20678 | 49 | -70.0 | -87.3 | 32 | 3 |
| 2010-01-30T00:48 | 20725 | 49 | -69.4 | -86.9 | 3 | 3 |
| 2010-01-30T00:48 | 20774 | 48 | -69.0 | -86.7 | 343 | 3 |
| 2010-01-30T00:48 | 20825 | 48 | -69.0 | -86.8 | 328 | 3 |
| 2010-01-30T00:48 | 20875 | 48 | -69.1 | -87.1 | 313 | 3 |
| 2010-01-30T00:48 | 20925 | 47 | -69.3 | -87.4 | 298 | 3 |
| 2010-01-30T00:48 | 20977 | 47 | -69.7 | -87.9 | 288 | 3 |
| 2010-01-30T00:49 | 21029 | 46 | -70.0 | -88.3 | 286 | 4 |
| 2010-01-30T00:49 | 21082 | 46 | -70.3 | -88.7 | 291 | 4 |
| 2010-01-30T00:49 | 21134 | 46 | -70.5 | -89.0 | 300 | 3 |
| 2010-01-30T00:49 | 21188 | 45 | -70.9 | -89.4 | 317 | 2 |
| 2010-01-30T00:49 | 21237 | 45 | -70.9 | -89.5 | 6 | 1 |
| 2010-01-30T00:49 | 21291 | 44 | -71.2 | -89.8 | 68 | 2 |
| 2010-01-30T00:50 | 21342 | 44 | -70.8 | -89.6 | 102 | 2 |
| 2010-01-30T00:50 | 21393 | 44 | -70.1 | -89.2 | 130 | 3 |
| 2010-01-30T00:50 | 21444 | 43 | -70.3 | -89.5 | 155 | 3 |
| 2010-01-30T00:50 | 21496 | 43 | -70.4 | -89.6 | 173 | 4 |
| 2010-01-30T00:50 | 21547 | 43 | -70.8 | -89.9 | 175 | 4 |
| 2010-01-30T00:50 | 21596 | 42 | -70.6 | -89.9 | 160 | 4 |
| 2010-01-30T00:51 | 21646 | 42 | -70.6 | -89.9 | 137 | 5 |
| 2010-01-30T00:51 | 21694 | 42 | -70.5 | -89.9 | 119 | 6 |
| 2010-01-30T00:51 | 21744 | 41 | -70.1 | -89.6 | 107 | 7 |
| 2010-01-30T00:51 | 21795 | 41 | -69.4 | -89.3 | 101 | 8 |
| 2010-01-30T00:51 | 21842 | 40 | -69.2 | -89.2 | 96 | 7 |
| 2010-01-30T00:51 | 21891 | 40 | -69.1 | -89.2 | 89 | 7 |
| 2010-01-30T00:52 | 21938 | 40 | -68.8 | -89.0 | 82 | 6 |
| 2010-01-30T00:52 | 21986 | 40 | -68.9 | -89.1 | 78 | 7 |
| 2010-01-30T00:52 | 22033 | 39 | -68.8 | -89.2 | 80 | 9 |
| 2010-01-30T00:52 | 22083 | 39 | -68.9 | -89.2 | 87 | 10 |
| 2010-01-30T00:52 | 22130 | 39 | -68.8 | -89.3 | 94 | 11 |
| 2010-01-30T00:52 | 22179 | 38 | -68.8 | -89.3 | 98 | 11 |
| 2010-01-30T00:53 | 22230 | 38 | -68.7 | -89.3 | 99 | 12 |
| 2010-01-30T00:53 | 22280 | 38 | -68.9 | -89.6 | 98 | 12 |
| 2010-01-30T00:53 | 22332 | 37 | -68.8 | -89.6 | 98 | 12 |
| 2010-01-30T00:53 | 22382 | 37 | -69.1 | -89.8 | 98 | 13 |
| 2010-01-30T00:53 | 22434 | 37 | -69.3 | -90.1 | 96 | 13 |
| 2010-01-30T00:53 | 22487 | 36 | -68.5 | -89.7 | 94 | 13 |
| 2010-01-30T00:54 | 22541 | 36 | -68.4 | -89.5 | 94 | 13 |
| 2010-01-30T00:54 | 22597 | 36 | -68.3 | -89.5 | 97 | 13 |
| 2010-01-30T00:54 | 22653 | 35 | -68.2 | -89.4 | 99 | 14 |
| 2010-01-30T00:54 | 22705 | 35 | -68.0 | -89.4 | 101 | 15 |
| 2010-01-30T00:54 | 22762 | 35 | -68.1 | -89.5 | 100 | 16 |
| 2010-01-30T00:54 | 22817 | 34 | -68.1 | -89.6 | 96 | 17 |
| 2010-01-30T00:55 | 22869 | 34 | -67.0 | -88.9 | 93 | 18 |
| 2010-01-30T00:55 | 22925 | 34 | -67.1 | -89.0 | 90 | 18 |
| 2010-01-30T00:55 | 22979 | 33 | -66.3 | -88.5 | 90 | 18 |
| 2010-01-30T00:55 | 23031 | 33 | -65.9 | -88.3 | 91 | 17 |
| 2010-01-30T00:55 | 23082 | 33 | -65.6 | -88.1 | 94 | 17 |
| 2010-01-30T00:55 | 23132 | 33 | -65.4 | -88.1 | 97 | 17 |
| 2010-01-30T00:56 | 23183 | 32 | -65.2 | -87.9 | 100 | 17 |
| 2010-01-30T00:56 | 23233 | 32 | -65.2 | -88.0 | 101 | 18 |
| 2010-01-30T00:56 | 23280 | 32 | -65.2 | -88.1 | 102 | 19 |
| 2010-01-30T00:56 | 23329 | 32 | -65.1 | -88.1 | 102 | 20 |
| 2010-01-30T00:56 | 23380 | 31 | -65.2 | -88.1 | 101 | 20 |
| 2010-01-30T00:56 | 23426 | 31 | -65.4 | -88.4 | 99 | 21 |
| 2010-01-30T00:57 | 23473 | 31 | -65.5 | -88.5 | 97 | 22 |
| 2010-01-30T00:57 | 23522 | 31 | -65.5 | -88.5 | 95 | 22 |
| 2010-01-30T00:57 | 23569 | 30 | -65.1 | -88.4 | 94 | 23 |
| 2010-01-30T00:57 | 23616 | 30 | -65.3 | -88.4 | 94 | 23 |
| 2010-01-30T00:57 | 23666 | 30 | -65.3 | -88.5 | 94 | 23 |
| 2010-01-30T00:57 | 23717 | 30 | -65.3 | -88.6 | 95 | 23 |
| 2010-01-30T00:58 | 23767 | 29 | -65.4 | -88.6 | 95 | 23 |
| 2010-01-30T00:58 | 23819 | 29 | -65.5 | -88.7 | 95 | 23 |
| 2010-01-30T00:58 | 23868 | 29 | -65.5 | -88.8 | 97 | 24 |
| 2010-01-30T00:58 | 23922 | 29 | -64.9 | -88.4 | 99 | 25 |
| 2010-01-30T00:58 | 23976 | 28 | -64.7 | -88.4 | 100 | 26 |
| 2010-01-30T00:58 | 24030 | 28 | -64.5 | -88.3 | 100 | 27 |
| 2010-01-30T00:59 | 24083 | 28 | -64.1 | -88.0 | 99 | 28 |
| 2010-01-30T00:59 | 24136 | 28 | -63.0 | -87.4 | 99 | 29 |
| 2010-01-30T00:59 | 24191 | 27 | -62.6 | -87.1 | 100 | 29 |
| 2010-01-30T00:59 | 24250 | 27 | -62.1 | -86.8 | 100 | 29 |
| 2010-01-30T00:59 | 24303 | 27 | -62.0 | -86.7 | 99 | 30 |
| 2010-01-30T00:59 | 24362 | 27 | -62.3 | -86.8 | 98 | 30 |
| 2010-01-30T01:00 | 24417 | 26 | -62.5 | -86.9 | 97 | 31 |
| 2010-01-30T01:00 | 24471 | 26 | -62.8 | -87.1 | 98 | 31 |
| 2010-01-30T01:00 | 24527 | 26 | -62.8 | -87.1 | 98 | 31 |
| 2010-01-30T01:00 | 24584 | 26 | -62.9 | -87.2 | 97 | 31 |
| 2010-01-30T01:00 | 24635 | 26 | -62.8 | -87.2 | 97 | 31 |
| 2010-01-30T01:00 | 24688 | 25 | -62.5 | -87.1 | 98 | 31 |
| 2010-01-30T01:01 | 24743 | 25 | -62.2 | -86.9 | 99 | 31 |
| 2010-01-30T01:01 | 24796 | 25 | -62.3 | -87.0 | 100 | 31 |
| 2010-01-30T01:01 | 24852 | 25 | -62.0 | -86.8 | 100 | 32 |
| 2010-01-30T01:01 | 24899 | 24 | -61.5 | -86.6 | 99 | 33 |
| 2010-01-30T01:01 | 24953 | 24 | -61.4 | -86.4 | 99 | 34 |
| 2010-01-30T01:01 | 25009 | 24 | -61.2 | -86.3 | 100 | 34 |
| 2010-01-30T01:02 | 25064 | 24 | -61.4 | -86.4 | 100 | 35 |
| 2010-01-30T01:02 | 25114 | 24 | -61.5 | -86.5 | 100 | 35 |
| 2010-01-30T01:02 | 25169 | 23 | -61.7 | -86.6 | 100 | 36 |
| 2010-01-30T01:02 | 25218 | 23 | -61.7 | -86.6 | 99 | 37 |
| 2010-01-30T01:02 | 25273 | 23 | -61.4 | -86.5 | 98 | 37 |
| 2010-01-30T01:02 | 25323 | 23 | -61.3 | -86.4 | 97 | 38 |
| 2010-01-30T01:03 | 25373 | 23 | -61.5 | -86.5 | 96 | 38 |
| 2010-01-30T01:03 | 25426 | 22 | -61.2 | -86.4 | 95 | 37 |
| 2010-01-30T01:03 | 25476 | 22 | -60.8 | -86.1 | 95 | 36 |
| 2010-01-30T01:03 | 25530 | 22 | -60.3 | -85.9 | 94 | 35 |
| 2010-01-30T01:03 | 25583 | 22 | -60.1 | -85.7 | 93 | 35 |
| 2010-01-30T01:03 | 25636 | 22 | -59.8 | -85.5 | 92 | 35 |
| 2010-01-30T01:04 | 25687 | 22 | -59.3 | -85.3 | 91 | 35 |
| 2010-01-30T01:04 | 25742 | 21 | -57.8 | -84.5 | 91 | 35 |
| 2010-01-30T01:04 | 25798 | 21 | -56.6 | -83.7 | 90 | 36 |
| 2010-01-30T01:04 | 25855 | 21 | -56.1 | -83.3 | 90 | 36 |
| 2010-01-30T01:04 | 25906 | 21 | -55.3 | -82.8 | 90 | 36 |
| 2010-01-30T01:04 | 25963 | 21 | -55.2 | -82.5 | 90 | 35 |
| 2010-01-30T01:05 | 26017 | 20 | -55.2 | -82.5 | 90 | 35 |
| 2010-01-30T01:05 | 26076 | 20 | -55.2 | -82.4 | 90 | 35 |
| 2010-01-30T01:05 | 26130 | 20 | -55.2 | -82.4 | 90 | 34 |
| 2010-01-30T01:05 | 26191 | 20 | -55.2 | -82.3 | 91 | 34 |
| 2010-01-30T01:05 | 26247 | 20 | -55.3 | -82.4 | 91 | 34 |
| 2010-01-30T01:05 | 26304 | 20 | -55.3 | -82.4 | 91 | 35 |
| 2010-01-30T01:06 | 26360 | 19 | -55.1 | -82.3 | 90 | 36 |
| 2010-01-30T01:06 | 26416 | 19 | -54.5 | -82.0 | 90 | 36 |
| 2010-01-30T01:06 | 26467 | 19 | -54.2 | -81.8 | 90 | 36 |
| 2010-01-30T01:06 | 26525 | 19 | -53.6 | -81.5 | 90 | 36 |
| 2010-01-30T01:06 | 26586 | 19 | -53.2 | -81.2 | 89 | 37 |
| 2010-01-30T01:06 | 26639 | 19 | -52.8 | -81.0 | 88 | 37 |
| 2010-01-30T01:07 | 26695 | 18 | -52.6 | -80.8 | 88 | 37 |
| 2010-01-30T01:07 | 26743 | 18 | -52.5 | -80.7 | 88 | 38 |
| 2010-01-30T01:07 | 26804 | 18 | -52.5 | -80.7 | 88 | 39 |
| 2010-01-30T01:07 | 26858 | 18 | -52.5 | -80.7 | 88 | 40 |
| 2010-01-30T01:07 | 26911 | 18 | -52.5 | -80.7 | 88 | 40 |
| 2010-01-30T01:07 | 26966 | 18 | -52.2 | -80.5 | 87 | 40 |
| 2010-01-30T01:08 | 27018 | 18 | -52.0 | -80.4 | 87 | 41 |
| 2010-01-30T01:08 | 27076 | 17 | -52.1 | -80.4 | 86 | 42 |
| 2010-01-30T01:08 | 27127 | 17 | -52.3 | -80.5 | 85 | 42 |
| 2010-01-30T01:08 | 27180 | 17 | -52.6 | -80.6 | 83 | 42 |
| 2010-01-30T01:08 | 27238 | 17 | -52.5 | -80.6 | 82 | 41 |
| 2010-01-30T01:08 | 27286 | 17 | -52.6 | -80.7 | 82 | 40 |
| 2010-01-30T01:09 | 27346 | 17 | -52.8 | -80.8 | 82 | 40 |
| 2010-01-30T01:09 | 27398 | 17 | -53.0 | -80.9 | 83 | 40 |
| 2010-01-30T01:09 | 27457 | 16 | -53.0 | -80.9 | 84 | 40 |
| 2010-01-30T01:09 | 27509 | 16 | -52.9 | -80.9 | 84 | 40 |
| 2010-01-30T01:09 | 27569 | 16 | -52.8 | -80.9 | 85 | 40 |
| 2010-01-30T01:09 | 27622 | 16 | -53.2 | -81.1 | 85 | 40 |
| 2010-01-30T01:10 | 27679 | 16 | -53.5 | -81.3 | 85 | 39 |
| 2010-01-30T01:10 | 27735 | 16 | -53.7 | -81.4 | 85 | 39 |
| 2010-01-30T01:10 | 27795 | 16 | -54.1 | -81.6 | 85 | 40 |
| 2010-01-30T01:10 | 27849 | 15 | -54.2 | -81.7 | 86 | 41 |
| 2010-01-30T01:10 | 27912 | 15 | -54.1 | -81.8 | 86 | 42 |
| 2010-01-30T01:10 | 27967 | 15 | -54.1 | -81.8 | 87 | 43 |
| 2010-01-30T01:11 | 28018 | 15 | -53.8 | -81.6 | 87 | 43 |
| 2010-01-30T01:11 | 28078 | 15 | -53.7 | -81.6 | 87 | 44 |
| 2010-01-30T01:11 | 28128 | 15 | -53.7 | -81.6 | 87 | 44 |
| 2010-01-30T01:11 | 28185 | 15 | -53.2 | -81.3 | 86 | 43 |
| 2010-01-30T01:11 | 28237 | 14 | -52.6 | -81.0 | 86 | 42 |
| 2010-01-30T01:11 | 28285 | 14 | -52.3 | -80.7 | 85 | 42 |
| 2010-01-30T01:12 | 28341 | 14 | -51.8 | -80.5 | 85 | 42 |
| 2010-01-30T01:12 | 28391 | 14 | -51.9 | -80.4 | 85 | 42 |
| 2010-01-30T01:12 | 28445 | 14 | -52.1 | -80.4 | 86 | 42 |
| 2010-01-30T01:12 | 28499 | 14 | -52.2 | -80.6 | 86 | 43 |
| 2010-01-30T01:12 | 28555 | 14 | -52.2 | -80.6 | 86 | 43 |
| 2010-01-30T01:12 | 28603 | 14 | -52.4 | -80.7 | 87 | 43 |
| 2010-01-30T01:13 | 28657 | 14 | -52.5 | -80.6 | 87 | 44 |
| 2010-01-30T01:13 | 28710 | 13 | -52.3 | -80.4 | 87 | 44 |
| 2010-01-30T01:13 | 28772 | 13 | -52.0 | -80.2 | 87 | 44 |
| 2010-01-30T01:13 | 28827 | 13 | -51.7 | -80.1 | 87 | 44 |
| 2010-01-30T01:13 | 28879 | 13 | -51.3 | -79.9 | 87 | 43 |
| 2010-01-30T01:13 | 28935 | 13 | -51.2 | -79.8 | 86 | 44 |
| 2010-01-30T01:14 | 28995 | 13 | -51.2 | -79.8 | 86 | 45 |
| 2010-01-30T01:14 | 29048 | 13 | -50.4 | -79.3 | 86 | 45 |
| 2010-01-30T01:14 | 29114 | 13 | -50.4 | -79.3 | 86 | 46 |
| 2010-01-30T01:14 | 29164 | 13 | -49.7 | -79.0 | 87 | 46 |
| 2010-01-30T01:14 | 29223 | 12 | -49.3 | -78.8 | 88 | 45 |
| 2010-01-30T01:14 | 29280 | 12 | -48.7 | -78.5 | 90 | 44 |
| 2010-01-30T01:15 | 29334 | 12 | -48.1 | -78.1 | 92 | 44 |
| 2010-01-30T01:15 | 29396 | 12 | -47.3 | -77.7 | 93 | 44 |
| 2010-01-30T01:15 | 29452 | 12 | -47.1 | -77.5 | 94 | 44 |
| 2010-01-30T01:15 | 29505 | 12 | -46.8 | -77.3 | 94 | 44 |
| 2010-01-30T01:15 | 29563 | 12 | -46.1 | -76.9 | 93 | 42 |
| 2010-01-30T01:15 | 29621 | 12 | -45.5 | -76.6 | 94 | 40 |
| 2010-01-30T01:16 | 29671 | 12 | -45.0 | -76.2 | 94 | 38 |
| 2010-01-30T01:16 | 29728 | 12 | -44.8 | -76.1 | 93 | 36 |
| 2010-01-30T01:16 | 29786 | 11 | -44.9 | -76.0 | 93 | 34 |
| 2010-01-30T01:16 | 29838 | 11 | -44.8 | -75.9 | 94 | 32 |
| 2010-01-31T23:28 | 4 | 1007 | 29.9 | 25.2 | 310 | 4 |
| 2010-01-31T23:28 | 15 | 1006 | 27.3 | 23.2 | 309 | 4 |
| 2010-01-31T23:28 | 26 | 1004 | 26.9 | 23.4 | 307 | 4 |
| 2010-01-31T23:28 | 37 | 1003 | 26.7 | 23.7 | 306 | 4 |
| 2010-01-31T23:28 | 48 | 1002 | 26.6 | 23.9 | 305 | 4 |
| 2010-01-31T23:28 | 59 | 1001 | 26.5 | 24.0 | 304 | 4 |
| 2010-01-31T23:28 | 71 | 999 | 26.4 | 24.0 | 303 | 4 |
| 2010-01-31T23:28 | 82 | 998 | 26.2 | 23.9 | 302 | 4 |
| 2010-01-31T23:28 | 94 | 997 | 26.1 | 24.0 | 301 | 4 |
| 2010-01-31T23:28 | 105 | 995 | 26.0 | 23.9 | 300 | 4 |
| 2010-01-31T23:28 | 116 | 994 | 25.9 | 23.9 | 299 | 4 |
| 2010-01-31T23:28 | 126 | 993 | 25.8 | 23.9 | 298 | 5 |
| 2010-01-31T23:28 | 136 | 992 | 25.7 | 23.9 | 298 | 5 |
| 2010-01-31T23:28 | 146 | 991 | 25.6 | 24.0 | 298 | 5 |
| 2010-01-31T23:28 | 157 | 990 | 25.5 | 24.0 | 297 | 5 |
| 2010-01-31T23:28 | 167 | 988 | 25.4 | 24.0 | 297 | 5 |
| 2010-01-31T23:28 | 179 | 987 | 25.3 | 24.0 | 298 | 5 |
| 2010-01-31T23:28 | 189 | 986 | 25.2 | 24.0 | 298 | 5 |
| 2010-01-31T23:28 | 199 | 985 | 25.2 | 24.0 | 299 | 5 |
| 2010-01-31T23:28 | 210 | 984 | 25.2 | 23.6 | 299 | 5 |
| 2010-01-31T23:28 | 221 | 982 | 25.2 | 22.8 | 300 | 5 |
| 2010-01-31T23:28 | 232 | 981 | 25.1 | 23.6 | 301 | 5 |
| 2010-01-31T23:28 | 243 | 980 | 25.3 | 23.1 | 302 | 5 |
| 2010-01-31T23:28 | 254 | 979 | 25.6 | 22.6 | 302 | 5 |
| 2010-01-31T23:28 | 264 | 978 | 25.6 | 22.5 | 303 | 5 |
| 2010-01-31T23:28 | 275 | 976 | 25.6 | 22.4 | 303 | 5 |
| 2010-01-31T23:28 | 285 | 975 | 25.6 | 22.3 | 303 | 5 |
| 2010-01-31T23:28 | 296 | 974 | 25.7 | 22.3 | 303 | 5 |
| 2010-01-31T23:28 | 307 | 973 | 25.8 | 22.0 | 303 | 4 |
| 2010-01-31T23:28 | 319 | 972 | 25.9 | 21.8 | 303 | 4 |
| 2010-01-31T23:29 | 330 | 970 | 25.9 | 21.6 | 302 | 4 |
| 2010-01-31T23:29 | 342 | 969 | 25.9 | 21.5 | 302 | 4 |
| 2010-01-31T23:29 | 353 | 968 | 25.9 | 21.4 | 301 | 4 |
| 2010-01-31T23:29 | 364 | 967 | 25.9 | 21.4 | 301 | 4 |
| 2010-01-31T23:29 | 374 | 966 | 25.8 | 21.3 | 300 | 4 |
| 2010-01-31T23:29 | 386 | 964 | 25.8 | 21.3 | 300 | 4 |
| 2010-01-31T23:29 | 397 | 963 | 25.8 | 21.2 | 300 | 4 |
| 2010-01-31T23:29 | 408 | 962 | 25.8 | 21.1 | 300 | 4 |
| 2010-01-31T23:29 | 419 | 961 | 25.8 | 21.0 | 300 | 4 |
| 2010-01-31T23:29 | 430 | 959 | 25.8 | 20.9 | 300 | 4 |
| 2010-01-31T23:29 | 442 | 958 | 25.7 | 20.8 | 300 | 4 |
| 2010-01-31T23:29 | 453 | 957 | 25.7 | 20.7 | 300 | 4 |
| 2010-01-31T23:29 | 463 | 956 | 25.6 | 20.6 | 300 | 4 |
| 2010-01-31T23:29 | 475 | 955 | 25.6 | 20.6 | 299 | 3 |
| 2010-01-31T23:29 | 487 | 953 | 25.5 | 20.5 | 298 | 3 |
| 2010-01-31T23:29 | 498 | 952 | 25.4 | 20.4 | 297 | 3 |
| 2010-01-31T23:29 | 509 | 951 | 25.4 | 20.3 | 295 | 3 |
| 2010-01-31T23:29 | 521 | 950 | 25.3 | 20.3 | 293 | 3 |
| 2010-01-31T23:29 | 532 | 948 | 25.2 | 20.3 | 291 | 3 |
| 2010-01-31T23:29 | 542 | 947 | 25.2 | 20.2 | 289 | 3 |
| 2010-01-31T23:29 | 553 | 946 | 25.2 | 20.0 | 287 | 3 |
| 2010-01-31T23:29 | 563 | 945 | 25.1 | 19.8 | 285 | 2 |
| 2010-01-31T23:29 | 574 | 944 | 25.0 | 19.7 | 283 | 2 |
| 2010-01-31T23:29 | 583 | 943 | 25.0 | 19.6 | 282 | 2 |
| 2010-01-31T23:29 | 594 | 942 | 24.9 | 19.6 | 282 | 2 |
| 2010-01-31T23:29 | 606 | 941 | 24.8 | 19.5 | 282 | 2 |
| 2010-01-31T23:29 | 617 | 939 | 24.8 | 19.4 | 282 | 3 |
| 2010-01-31T23:29 | 630 | 938 | 24.7 | 19.5 | 284 | 3 |
| 2010-01-31T23:29 | 641 | 937 | 24.7 | 19.5 | 286 | 3 |
| 2010-01-31T23:29 | 653 | 936 | 24.6 | 19.5 | 288 | 3 |
| 2010-01-31T23:30 | 664 | 934 | 24.5 | 19.5 | 290 | 3 |
| 2010-01-31T23:30 | 675 | 933 | 24.4 | 19.4 | 293 | 3 |
| 2010-01-31T23:30 | 686 | 932 | 24.3 | 19.4 | 295 | 3 |
| 2010-01-31T23:30 | 697 | 931 | 24.2 | 19.3 | 298 | 3 |
| 2010-01-31T23:30 | 709 | 930 | 24.2 | 19.2 | 300 | 3 |
| 2010-01-31T23:30 | 720 | 928 | 24.1 | 19.0 | 302 | 3 |
| 2010-01-31T23:30 | 730 | 927 | 24.1 | 19.0 | 304 | 3 |
| 2010-01-31T23:30 | 741 | 926 | 24.0 | 19.0 | 305 | 4 |
| 2010-01-31T23:30 | 753 | 925 | 23.9 | 19.1 | 307 | 4 |
| 2010-01-31T23:30 | 764 | 924 | 23.9 | 19.3 | 308 | 4 |
| 2010-01-31T23:30 | 775 | 923 | 23.9 | 19.4 | 309 | 3 |
| 2010-01-31T23:30 | 787 | 921 | 23.8 | 19.4 | 310 | 3 |
| 2010-01-31T23:30 | 799 | 920 | 23.7 | 19.4 | 311 | 3 |
| 2010-01-31T23:30 | 811 | 919 | 23.5 | 19.4 | 311 | 3 |
| 2010-01-31T23:30 | 821 | 918 | 23.5 | 19.4 | 312 | 3 |
| 2010-01-31T23:30 | 831 | 917 | 23.4 | 19.4 | 313 | 3 |
| 2010-01-31T23:30 | 841 | 916 | 23.3 | 19.4 | 313 | 3 |
| 2010-01-31T23:30 | 851 | 915 | 23.3 | 19.3 | 314 | 3 |
| 2010-01-31T23:30 | 862 | 914 | 23.1 | 19.3 | 315 | 3 |
| 2010-01-31T23:30 | 872 | 913 | 23.1 | 19.2 | 315 | 3 |
| 2010-01-31T23:30 | 883 | 911 | 23.0 | 19.2 | 316 | 3 |
| 2010-01-31T23:30 | 895 | 910 | 22.9 | 19.1 | 317 | 3 |
| 2010-01-31T23:30 | 906 | 909 | 22.8 | 19.1 | 318 | 3 |
| 2010-01-31T23:30 | 917 | 908 | 22.6 | 19.1 | 319 | 3 |
| 2010-01-31T23:30 | 928 | 907 | 22.5 | 19.0 | 320 | 3 |
| 2010-01-31T23:30 | 939 | 905 | 22.4 | 19.0 | 321 | 3 |
| 2010-01-31T23:30 | 950 | 904 | 22.3 | 19.0 | 322 | 3 |
| 2010-01-31T23:30 | 962 | 903 | 22.2 | 19.0 | 324 | 3 |
| 2010-01-31T23:30 | 975 | 902 | 22.1 | 19.0 | 325 | 2 |
| 2010-01-31T23:30 | 988 | 900 | 22.0 | 18.9 | 327 | 2 |
| 2010-01-31T23:31 | 999 | 899 | 21.9 | 18.9 | 329 | 2 |
| 2010-01-31T23:31 | 1011 | 898 | 21.8 | 18.9 | 330 | 2 |
| 2010-01-31T23:31 | 1024 | 897 | 21.6 | 18.8 | 332 | 2 |
| 2010-01-31T23:31 | 1036 | 895 | 21.6 | 18.7 | 333 | 2 |
| 2010-01-31T23:31 | 1049 | 894 | 21.5 | 18.7 | 334 | 2 |
| 2010-01-31T23:31 | 1060 | 893 | 21.4 | 18.6 | 334 | 2 |
| 2010-01-31T23:31 | 1071 | 892 | 21.4 | 18.5 | 334 | 2 |
| 2010-01-31T23:31 | 1082 | 891 | 21.3 | 18.5 | 334 | 2 |
| 2010-01-31T23:31 | 1093 | 890 | 21.2 | 18.5 | 333 | 2 |
| 2010-01-31T23:31 | 1105 | 888 | 21.1 | 18.5 | 331 | 2 |
| 2010-01-31T23:31 | 1117 | 887 | 21.0 | 18.5 | 330 | 2 |
| 2010-01-31T23:31 | 1128 | 886 | 21.0 | 18.4 | 328 | 2 |
| 2010-01-31T23:31 | 1139 | 885 | 20.9 | 18.4 | 326 | 2 |
| 2010-01-31T23:31 | 1150 | 884 | 20.9 | 18.4 | 324 | 2 |
| 2010-01-31T23:31 | 1162 | 883 | 20.8 | 18.4 | 323 | 2 |
| 2010-01-31T23:31 | 1174 | 881 | 20.8 | 18.5 | 321 | 2 |
| 2010-01-31T23:31 | 1186 | 880 | 20.8 | 18.5 | 319 | 2 |
| 2010-01-31T23:31 | 1198 | 879 | 20.8 | 18.4 | 318 | 2 |
| 2010-01-31T23:31 | 1210 | 878 | 20.8 | 18.3 | 316 | 2 |
| 2010-01-31T23:31 | 1222 | 877 | 20.7 | 18.2 | 316 | 2 |
| 2010-01-31T23:31 | 1233 | 875 | 20.6 | 18.2 | 315 | 2 |
| 2010-01-31T23:31 | 1244 | 874 | 20.5 | 18.1 | 315 | 2 |
| 2010-01-31T23:31 | 1255 | 873 | 20.5 | 18.1 | 315 | 2 |
| 2010-01-31T23:31 | 1265 | 872 | 20.5 | 18.1 | 315 | 3 |
| 2010-01-31T23:31 | 1275 | 871 | 20.5 | 18.0 | 316 | 3 |
| 2010-01-31T23:31 | 1286 | 870 | 20.5 | 18.0 | 317 | 3 |
| 2010-01-31T23:31 | 1299 | 869 | 20.4 | 17.9 | 319 | 3 |
| 2010-01-31T23:31 | 1311 | 868 | 20.3 | 17.8 | 320 | 3 |
| 2010-01-31T23:31 | 1323 | 866 | 20.2 | 17.8 | 321 | 3 |
| 2010-01-31T23:31 | 1335 | 865 | 20.1 | 17.8 | 323 | 3 |
| 2010-01-31T23:32 | 1346 | 864 | 20.1 | 17.7 | 324 | 3 |
| 2010-01-31T23:32 | 1357 | 863 | 20.0 | 17.7 | 325 | 3 |
| 2010-01-31T23:32 | 1368 | 862 | 20.0 | 17.6 | 325 | 3 |
| 2010-01-31T23:32 | 1380 | 861 | 19.9 | 17.6 | 325 | 3 |
| 2010-01-31T23:32 | 1392 | 859 | 19.9 | 17.6 | 325 | 3 |
| 2010-01-31T23:32 | 1405 | 858 | 19.8 | 17.5 | 324 | 3 |
| 2010-01-31T23:32 | 1417 | 857 | 19.8 | 17.5 | 323 | 3 |
| 2010-01-31T23:32 | 1430 | 856 | 19.7 | 17.5 | 321 | 3 |
| 2010-01-31T23:32 | 1443 | 854 | 19.7 | 17.4 | 320 | 3 |
| 2010-01-31T23:32 | 1454 | 853 | 19.6 | 17.4 | 318 | 3 |
| 2010-01-31T23:32 | 1466 | 852 | 19.5 | 17.3 | 316 | 3 |
| 2010-01-31T23:32 | 1478 | 851 | 19.4 | 17.2 | 314 | 3 |
| 2010-01-31T23:32 | 1490 | 850 | 19.4 | 17.2 | 312 | 3 |
| 2010-01-31T23:32 | 1502 | 849 | 19.4 | 17.1 | 310 | 3 |
| 2010-01-31T23:32 | 1513 | 848 | 19.4 | 17.0 | 309 | 3 |
| 2010-01-31T23:32 | 1524 | 846 | 19.3 | 16.9 | 308 | 3 |
| 2010-01-31T23:32 | 1536 | 845 | 19.1 | 16.9 | 307 | 3 |
| 2010-01-31T23:32 | 1546 | 844 | 19.0 | 16.8 | 306 | 3 |
| 2010-01-31T23:32 | 1557 | 843 | 18.9 | 16.8 | 305 | 3 |
| 2010-01-31T23:32 | 1568 | 842 | 18.8 | 16.7 | 305 | 3 |
| 2010-01-31T23:32 | 1579 | 841 | 18.8 | 16.6 | 304 | 3 |
| 2010-01-31T23:32 | 1591 | 840 | 18.7 | 16.6 | 304 | 3 |
| 2010-01-31T23:32 | 1602 | 839 | 18.5 | 16.5 | 304 | 3 |
| 2010-01-31T23:32 | 1612 | 838 | 18.5 | 16.4 | 304 | 2 |
| 2010-01-31T23:32 | 1621 | 837 | 18.4 | 16.4 | 305 | 2 |
| 2010-01-31T23:32 | 1630 | 836 | 18.4 | 16.4 | 306 | 2 |
| 2010-01-31T23:32 | 1641 | 835 | 18.3 | 16.4 | 307 | 2 |
| 2010-01-31T23:32 | 1652 | 834 | 18.2 | 16.4 | 308 | 2 |
| 2010-01-31T23:32 | 1664 | 833 | 18.2 | 16.3 | 309 | 2 |
| 2010-01-31T23:32 | 1676 | 832 | 18.1 | 16.3 | 311 | 2 |
| 2010-01-31T23:33 | 1687 | 831 | 18.0 | 16.3 | 313 | 2 |
| 2010-01-31T23:33 | 1700 | 829 | 17.9 | 16.3 | 314 | 2 |
| 2010-01-31T23:33 | 1712 | 828 | 17.8 | 16.3 | 316 | 2 |
| 2010-01-31T23:33 | 1722 | 827 | 17.7 | 16.3 | 317 | 2 |
| 2010-01-31T23:33 | 1732 | 826 | 17.6 | 16.3 | 318 | 2 |
| 2010-01-31T23:33 | 1743 | 825 | 17.5 | 16.3 | 318 | 2 |
| 2010-01-31T23:33 | 1756 | 824 | 17.4 | 16.3 | 318 | 2 |
| 2010-01-31T23:33 | 1767 | 823 | 17.3 | 16.2 | 318 | 2 |
| 2010-01-31T23:33 | 1779 | 822 | 17.3 | 16.2 | 318 | 1 |
| 2010-01-31T23:33 | 1791 | 821 | 17.3 | 16.1 | 317 | 1 |
| 2010-01-31T23:33 | 1803 | 819 | 17.2 | 16.1 | 316 | 1 |
| 2010-01-31T23:33 | 1815 | 818 | 17.1 | 16.0 | 316 | 1 |
| 2010-01-31T23:33 | 1827 | 817 | 17.0 | 16.0 | 315 | 1 |
| 2010-01-31T23:33 | 1840 | 816 | 17.0 | 15.9 | 315 | 1 |
| 2010-01-31T23:33 | 1852 | 815 | 17.0 | 15.7 | 315 | 1 |
| 2010-01-31T23:33 | 1865 | 814 | 17.0 | 15.6 | 315 | 1 |
| 2010-01-31T23:33 | 1877 | 812 | 17.0 | 15.4 | 316 | 1 |
| 2010-01-31T23:33 | 1890 | 811 | 17.0 | 15.2 | 317 | 1 |
| 2010-01-31T23:33 | 1902 | 810 | 17.0 | 15.1 | 319 | 1 |
| 2010-01-31T23:33 | 1915 | 809 | 17.0 | 15.0 | 321 | 1 |
| 2010-01-31T23:33 | 1927 | 808 | 17.0 | 14.8 | 324 | 1 |
| 2010-01-31T23:33 | 1939 | 807 | 16.9 | 14.6 | 327 | 1 |
| 2010-01-31T23:33 | 1950 | 805 | 16.8 | 14.5 | 332 | 1 |
| 2010-01-31T23:33 | 1962 | 804 | 16.7 | 14.4 | 337 | 1 |
| 2010-01-31T23:33 | 1973 | 803 | 16.7 | 14.4 | 341 | 1 |
| 2010-01-31T23:33 | 1984 | 802 | 16.6 | 14.3 | 346 | 1 |
| 2010-01-31T23:33 | 1996 | 801 | 16.5 | 14.3 | 351 | 1 |
| 2010-01-31T23:34 | 2045 | 797 | 16.1 | 14.1 | 360 | 1 |
| 2010-01-31T23:34 | 2107 | 791 | 15.6 | 14.0 | 354 | 1 |
| 2010-01-31T23:34 | 2164 | 786 | 15.2 | 13.8 | 341 | 1 |
| 2010-01-31T23:34 | 2219 | 780 | 15.1 | 13.4 | 331 | 1 |
| 2010-01-31T23:34 | 2278 | 775 | 14.9 | 12.9 | 312 | 0 |
| 2010-01-31T23:34 | 2334 | 770 | 14.6 | 12.3 | 280 | 0 |
| 2010-01-31T23:35 | 2396 | 764 | 14.7 | 10.5 | 277 | 1 |
| 2010-01-31T23:35 | 2454 | 759 | 14.5 | 10.3 | 283 | 1 |
| 2010-01-31T23:35 | 2512 | 754 | 14.0 | 11.1 | 290 | 1 |
| 2010-01-31T23:35 | 2571 | 749 | 13.6 | 11.2 | 303 | 0 |
| 2010-01-31T23:35 | 2623 | 744 | 13.6 | 9.4 | 319 | 1 |
| 2010-01-31T23:35 | 2683 | 739 | 13.3 | 8.1 | 318 | 2 |
| 2010-01-31T23:36 | 2737 | 734 | 12.9 | 7.7 | 313 | 2 |
| 2010-01-31T23:36 | 2800 | 729 | 12.8 | 6.9 | 307 | 2 |
| 2010-01-31T23:36 | 2860 | 724 | 12.1 | 9.2 | 305 | 2 |
| 2010-01-31T23:36 | 2923 | 718 | 12.0 | 7.8 | 312 | 3 |
| 2010-01-31T23:36 | 2975 | 714 | 11.9 | 6.9 | 313 | 4 |
| 2010-01-31T23:36 | 3033 | 709 | 11.4 | 7.2 | 308 | 4 |
| 2010-01-31T23:37 | 3092 | 704 | 10.9 | 7.7 | 301 | 4 |
| 2010-01-31T23:37 | 3150 | 699 | 10.3 | 7.8 | 301 | 3 |
| 2010-01-31T23:37 | 3207 | 694 | 9.9 | 6.9 | 304 | 3 |
| 2010-01-31T23:37 | 3267 | 689 | 9.5 | 6.3 | 310 | 3 |
| 2010-01-31T23:37 | 3328 | 684 | 9.4 | 5.5 | 314 | 4 |
| 2010-01-31T23:37 | 3387 | 679 | 9.1 | 4.7 | 314 | 4 |
| 2010-01-31T23:38 | 3442 | 675 | 8.7 | 5.3 | 312 | 4 |
| 2010-01-31T23:38 | 3496 | 670 | 8.3 | 4.7 | 316 | 3 |
| 2010-01-31T23:38 | 3562 | 665 | 7.6 | 5.2 | 326 | 3 |
| 2010-01-31T23:38 | 3616 | 661 | 7.0 | 6.1 | 329 | 3 |
| 2010-01-31T23:38 | 3680 | 656 | 6.5 | 5.8 | 327 | 3 |
| 2010-01-31T23:38 | 3739 | 651 | 6.2 | 5.3 | 320 | 3 |
| 2010-01-31T23:39 | 3802 | 646 | 5.9 | 4.7 | 306 | 3 |
| 2010-01-31T23:39 | 3865 | 641 | 6.0 | 3.3 | 295 | 4 |
| 2010-01-31T23:39 | 3931 | 636 | 5.6 | 3.9 | 295 | 4 |
| 2010-01-31T23:39 | 3995 | 631 | 5.1 | 3.5 | 300 | 4 |
| 2010-01-31T23:39 | 4050 | 627 | 4.7 | 3.0 | 310 | 4 |
| 2010-01-31T23:39 | 4108 | 622 | 4.4 | 1.7 | 324 | 3 |
| 2010-01-31T23:40 | 4170 | 618 | 3.9 | 1.6 | 327 | 2 |
| 2010-01-31T23:40 | 4230 | 613 | 3.4 | 2.1 | 296 | 1 |
| 2010-01-31T23:40 | 4295 | 608 | 4.1 | -0.9 | 250 | 2 |
| 2010-01-31T23:40 | 4350 | 604 | 3.8 | -1.9 | 228 | 3 |
| 2010-01-31T23:40 | 4400 | 600 | 3.7 | -3.6 | 223 | 2 |
| 2010-01-31T23:40 | 4461 | 596 | 3.3 | -4.7 | 239 | 1 |
| 2010-01-31T23:41 | 4519 | 592 | 2.9 | -4.4 | 298 | 1 |
| 2010-01-31T23:41 | 4581 | 587 | 2.4 | -3.7 | 341 | 1 |
| 2010-01-31T23:41 | 4632 | 583 | 2.1 | -3.4 | 360 | 1 |
| 2010-01-31T23:41 | 4685 | 580 | 2.0 | -3.7 | 31 | 1 |
| 2010-01-31T23:41 | 4723 | 577 | 2.0 | -3.4 | 62 | 1 |
| 2010-01-31T23:41 | 4768 | 574 | 1.7 | -4.9 | 62 | 1 |
| 2010-01-31T23:42 | 4825 | 570 | 1.4 | -6.2 | 62 | 1 |
| 2010-01-31T23:42 | 4883 | 566 | 0.9 | -5.7 | 67 | 1 |
| 2010-01-31T23:42 | 4942 | 561 | 0.4 | -3.8 | 67 | 1 |
| 2010-01-31T23:42 | 4998 | 557 | -0.1 | -3.2 | 0 | 0 |
| 2010-01-31T23:42 | 5046 | 554 | -0.4 | -3.2 | 0 | 0 |
| 2010-01-31T23:42 | 5097 | 551 | -0.6 | -4.0 | 0 | 0 |
| 2010-01-31T23:43 | 5147 | 547 | -0.8 | -4.9 | 0 | 0 |
| 2010-01-31T23:43 | 5204 | 543 | -1.0 | -6.8 | 131 | 1 |
| 2010-01-31T23:43 | 5257 | 540 | -1.3 | -8.2 | 129 | 2 |
| 2010-01-31T23:43 | 5316 | 536 | -1.6 | -6.7 | 114 | 3 |
| 2010-01-31T23:43 | 5370 | 532 | -2.0 | -7.5 | 102 | 3 |
| 2010-01-31T23:43 | 5433 | 528 | -2.5 | -8.3 | 97 | 4 |
| 2010-01-31T23:44 | 5492 | 524 | -2.7 | -8.6 | 99 | 3 |
| 2010-01-31T23:44 | 5549 | 520 | -2.8 | -9.1 | 110 | 3 |
| 2010-01-31T23:44 | 5609 | 516 | -2.9 | -9.3 | 122 | 3 |
| 2010-01-31T23:44 | 5663 | 513 | -3.2 | -10.0 | 126 | 3 |
| 2010-01-31T23:44 | 5708 | 510 | -3.5 | -10.7 | 127 | 3 |
| 2010-01-31T23:44 | 5755 | 507 | -3.7 | -12.0 | 130 | 3 |
| 2010-01-31T23:45 | 5805 | 504 | -4.1 | -11.3 | 132 | 4 |
| 2010-01-31T23:45 | 5856 | 500 | -4.5 | -11.5 | 128 | 4 |
| 2010-01-31T23:45 | 5914 | 497 | -4.8 | -13.0 | 117 | 4 |
| 2010-01-31T23:45 | 5973 | 493 | -5.2 | -13.9 | 107 | 4 |
| 2010-01-31T23:45 | 6020 | 490 | -5.3 | -15.1 | 102 | 5 |
| 2010-01-31T23:45 | 6067 | 487 | -5.5 | -14.2 | 99 | 4 |
| 2010-01-31T23:46 | 6116 | 484 | -5.7 | -14.3 | 99 | 4 |
| 2010-01-31T23:46 | 6158 | 482 | -6.0 | -14.7 | 104 | 4 |
| 2010-01-31T23:46 | 6205 | 479 | -6.2 | -15.3 | 109 | 4 |
| 2010-01-31T23:46 | 6251 | 476 | -6.3 | -15.9 | 113 | 4 |
| 2010-01-31T23:46 | 6297 | 473 | -6.6 | -16.7 | 117 | 4 |
| 2010-01-31T23:46 | 6344 | 470 | -7.0 | -17.1 | 117 | 5 |
| 2010-01-31T23:47 | 6386 | 468 | -7.3 | -17.0 | 112 | 5 |
| 2010-01-31T23:47 | 6428 | 465 | -7.5 | -16.9 | 108 | 5 |
| 2010-01-31T23:47 | 6468 | 463 | -7.7 | -19.0 | 105 | 4 |
| 2010-01-31T23:47 | 6508 | 460 | -7.9 | -18.1 | 107 | 4 |
| 2010-01-31T23:47 | 6549 | 458 | -8.3 | -17.6 | 116 | 4 |
| 2010-01-31T23:47 | 6595 | 455 | -8.7 | -17.2 | 123 | 4 |
| 2010-01-31T23:48 | 6642 | 453 | -9.1 | -17.1 | 127 | 4 |
| 2010-01-31T23:48 | 6685 | 450 | -9.5 | -17.0 | 131 | 3 |
| 2010-01-31T23:48 | 6727 | 448 | -9.9 | -16.8 | 138 | 3 |
| 2010-01-31T23:48 | 6770 | 445 | -10.3 | -16.9 | 148 | 3 |
| 2010-01-31T23:48 | 6815 | 443 | -10.6 | -17.2 | 157 | 4 |
| 2010-01-31T23:48 | 6858 | 440 | -10.8 | -17.3 | 165 | 5 |
| 2010-01-31T23:49 | 6898 | 438 | -10.7 | -18.3 | 173 | 5 |
| 2010-01-31T23:49 | 6943 | 435 | -10.7 | -19.3 | 179 | 5 |
| 2010-01-31T23:49 | 6982 | 433 | -10.8 | -20.5 | 178 | 5 |
| 2010-01-31T23:49 | 7022 | 431 | -11.0 | -20.0 | 174 | 5 |
| 2010-01-31T23:49 | 7064 | 428 | -11.5 | -19.2 | 172 | 6 |
| 2010-01-31T23:49 | 7107 | 426 | -11.9 | -17.8 | 171 | 6 |
| 2010-01-31T23:50 | 7150 | 424 | -12.3 | -17.8 | 168 | 6 |
| 2010-01-31T23:50 | 7193 | 421 | -12.5 | -19.0 | 168 | 6 |
| 2010-01-31T23:50 | 7231 | 419 | -12.8 | -18.9 | 169 | 6 |
| 2010-01-31T23:50 | 7271 | 417 | -13.0 | -19.5 | 170 | 5 |
| 2010-01-31T23:50 | 7314 | 415 | -13.3 | -22.5 | 169 | 5 |
| 2010-01-31T23:50 | 7353 | 413 | -13.6 | -23.2 | 166 | 5 |
| 2010-01-31T23:51 | 7395 | 410 | -13.9 | -24.2 | 162 | 5 |
| 2010-01-31T23:51 | 7436 | 408 | -14.1 | -25.6 | 159 | 5 |
| 2010-01-31T23:51 | 7477 | 406 | -14.4 | -25.2 | 159 | 5 |
| 2010-01-31T23:51 | 7520 | 404 | -14.6 | -26.5 | 161 | 5 |
| 2010-01-31T23:51 | 7561 | 401 | -14.6 | -31.3 | 161 | 5 |
| 2010-01-31T23:51 | 7604 | 399 | -14.8 | -32.5 | 160 | 4 |
| 2010-01-31T23:52 | 7650 | 397 | -14.9 | -33.7 | 152 | 3 |
| 2010-01-31T23:52 | 7692 | 394 | -14.9 | -35.4 | 136 | 2 |
| 2010-01-31T23:52 | 7735 | 392 | -15.3 | -35.7 | 120 | 2 |
| 2010-01-31T23:52 | 7779 | 390 | -15.6 | -35.1 | 109 | 2 |
| 2010-01-31T23:52 | 7823 | 388 | -15.9 | -34.5 | 105 | 3 |
| 2010-01-31T23:52 | 7865 | 386 | -16.3 | -33.8 | 107 | 3 |
| 2010-01-31T23:53 | 7907 | 383 | -16.5 | -34.4 | 111 | 4 |
| 2010-01-31T23:53 | 7948 | 381 | -16.9 | -33.5 | 113 | 4 |
| 2010-01-31T23:53 | 7991 | 379 | -17.3 | -33.5 | 109 | 4 |
| 2010-01-31T23:53 | 8034 | 377 | -17.6 | -33.8 | 102 | 4 |
| 2010-01-31T23:53 | 8075 | 375 | -18.0 | -32.0 | 97 | 4 |
| 2010-01-31T23:53 | 8116 | 373 | -18.2 | -32.1 | 94 | 4 |
| 2010-01-31T23:54 | 8159 | 371 | -18.6 | -32.0 | 91 | 5 |
| 2010-01-31T23:54 | 8202 | 369 | -18.9 | -33.0 | 87 | 6 |
| 2010-01-31T23:54 | 8243 | 367 | -19.1 | -33.4 | 84 | 7 |
| 2010-01-31T23:54 | 8286 | 364 | -19.1 | -34.4 | 83 | 7 |
| 2010-01-31T23:54 | 8328 | 362 | -19.1 | -35.1 | 84 | 8 |
| 2010-01-31T23:54 | 8371 | 360 | -19.1 | -35.4 | 86 | 8 |
| 2010-01-31T23:55 | 8415 | 358 | -19.5 | -35.7 | 88 | 8 |
| 2010-01-31T23:55 | 8458 | 356 | -19.9 | -36.1 | 89 | 8 |
| 2010-01-31T23:55 | 8507 | 354 | -20.3 | -36.6 | 91 | 8 |
| 2010-01-31T23:55 | 8553 | 352 | -20.8 | -36.7 | 92 | 8 |
| 2010-01-31T23:55 | 8594 | 350 | -21.1 | -36.7 | 92 | 8 |
| 2010-01-31T23:55 | 8634 | 348 | -21.5 | -36.7 | 91 | 8 |
| 2010-01-31T23:56 | 8675 | 346 | -21.7 | -37.0 | 90 | 8 |
| 2010-01-31T23:56 | 8715 | 344 | -21.5 | -38.6 | 88 | 8 |
| 2010-01-31T23:56 | 8754 | 342 | -21.9 | -38.8 | 87 | 8 |
| 2010-01-31T23:56 | 8795 | 340 | -22.3 | -39.0 | 89 | 7 |
| 2010-01-31T23:56 | 8840 | 338 | -22.7 | -39.2 | 92 | 7 |
| 2010-01-31T23:56 | 8884 | 336 | -23.1 | -39.6 | 93 | 7 |
| 2010-01-31T23:57 | 8924 | 334 | -23.5 | -39.9 | 96 | 6 |
| 2010-01-31T23:57 | 8967 | 332 | -23.8 | -40.2 | 100 | 6 |
| 2010-01-31T23:57 | 9008 | 330 | -24.1 | -41.3 | 105 | 5 |
| 2010-01-31T23:57 | 9050 | 329 | -24.3 | -42.3 | 113 | 4 |
| 2010-01-31T23:57 | 9091 | 327 | -24.5 | -43.7 | 124 | 3 |
| 2010-01-31T23:57 | 9131 | 325 | -24.8 | -44.4 | 130 | 2 |
| 2010-01-31T23:58 | 9171 | 323 | -25.0 | -45.3 | 136 | 2 |
| 2010-01-31T23:58 | 9212 | 321 | -25.4 | -46.0 | 150 | 1 |
| 2010-01-31T23:58 | 9253 | 319 | -25.7 | -46.1 | 160 | 1 |
| 2010-01-31T23:58 | 9294 | 318 | -26.0 | -46.3 | 160 | 2 |
| 2010-01-31T23:58 | 9334 | 316 | -26.4 | -46.3 | 157 | 2 |
| 2010-01-31T23:58 | 9374 | 314 | -26.8 | -46.7 | 159 | 2 |
| 2010-01-31T23:59 | 9414 | 312 | -27.0 | -47.5 | 163 | 2 |
| 2010-01-31T23:59 | 9456 | 311 | -27.4 | -47.7 | 166 | 2 |
| 2010-01-31T23:59 | 9496 | 309 | -27.8 | -47.8 | 170 | 2 |
| 2010-01-31T23:59 | 9536 | 307 | -28.1 | -47.9 | 171 | 2 |
| 2010-01-31T23:59 | 9575 | 306 | -28.5 | -48.0 | 169 | 2 |
| 2010-01-31T23:59 | 9614 | 304 | -28.8 | -48.2 | 168 | 2 |
